<?xml version="1.0" encoding="UTF-8" standalone="no" ?>
<gpx xmlns="http://www.topografix.com/GPX/1/1" xmlns:xsi="http://www.w3.org/2001/XMLSchema-instance" xsi:schemaLocation="http://www.topografix.com/GPX/1/1 http://www.topografix.com/GPX/1/1/gpx.xsd" version="1.1" creator="VisuGPX - https://www.visugpx.com">
  <metadata>
    <name>Ma GTJ Gravel customisée</name>
  </metadata>
  <trk>
    <name><![CDATA[Bout de GTJ Gravielo]]></name>
    <extensions>
      <line xmlns="http://www.topografix.com/GPX/gpx_style/0/2">
        <color>0000FF</color>
        <width>4</width>
      </line>
    </extensions>
    <trkseg>
      <trkpt lat="47.51691" lon="6.7777">
        <ele>380.6</ele>
        <time>2024-05-08T07:44:34Z</time>
      </trkpt>
      <trkpt lat="47.51691" lon="6.7777">
        <ele>380.6</ele>
        <time>2024-05-08T07:44:44Z</time>
      </trkpt>
      <trkpt lat="47.51693" lon="6.77762">
        <ele>380</ele>
        <time>2024-05-08T07:44:55Z</time>
      </trkpt>
      <trkpt lat="47.51693" lon="6.77762">
        <ele>380</ele>
        <time>2024-05-08T07:45:05Z</time>
      </trkpt>
      <trkpt lat="47.51654" lon="6.77754">
        <ele>376.5</ele>
        <time>2024-05-08T07:45:16Z</time>
      </trkpt>
      <trkpt lat="47.51576" lon="6.7773">
        <ele>369.2</ele>
        <time>2024-05-08T07:45:27Z</time>
      </trkpt>
      <trkpt lat="47.51488" lon="6.77719">
        <ele>359.8</ele>
        <time>2024-05-08T07:45:37Z</time>
      </trkpt>
      <trkpt lat="47.51418" lon="6.77732">
        <ele>351.2</ele>
        <time>2024-05-08T07:45:47Z</time>
      </trkpt>
      <trkpt lat="47.51373" lon="6.77759">
        <ele>345.1</ele>
        <time>2024-05-08T07:45:58Z</time>
      </trkpt>
      <trkpt lat="47.51328" lon="6.77774">
        <ele>340.2</ele>
        <time>2024-05-08T07:46:09Z</time>
      </trkpt>
      <trkpt lat="47.51267" lon="6.77784">
        <ele>332.9</ele>
        <time>2024-05-08T07:46:19Z</time>
      </trkpt>
      <trkpt lat="47.51199" lon="6.77784">
        <ele>326.1</ele>
        <time>2024-05-08T07:46:29Z</time>
      </trkpt>
      <trkpt lat="47.51113" lon="6.77782">
        <ele>320.1</ele>
        <time>2024-05-08T07:46:39Z</time>
      </trkpt>
      <trkpt lat="47.51049" lon="6.77765">
        <ele>318.2</ele>
        <time>2024-05-08T07:46:50Z</time>
      </trkpt>
      <trkpt lat="47.5101" lon="6.77729">
        <ele>316.8</ele>
        <time>2024-05-08T07:47:00Z</time>
      </trkpt>
      <trkpt lat="47.50962" lon="6.7769">
        <ele>315.3</ele>
        <time>2024-05-08T07:47:11Z</time>
      </trkpt>
      <trkpt lat="47.50947" lon="6.77699">
        <ele>315.1</ele>
        <time>2024-05-08T07:47:21Z</time>
      </trkpt>
      <trkpt lat="47.50906" lon="6.77698">
        <ele>314.9</ele>
        <time>2024-05-08T07:47:31Z</time>
      </trkpt>
      <trkpt lat="47.50872" lon="6.77685">
        <ele>314.8</ele>
        <time>2024-05-08T07:47:42Z</time>
      </trkpt>
      <trkpt lat="47.50835" lon="6.77628">
        <ele>314.8</ele>
        <time>2024-05-08T07:47:52Z</time>
      </trkpt>
      <trkpt lat="47.50781" lon="6.77582">
        <ele>314.8</ele>
        <time>2024-05-08T07:48:03Z</time>
      </trkpt>
      <trkpt lat="47.50732" lon="6.7754">
        <ele>314.9</ele>
        <time>2024-05-08T07:48:13Z</time>
      </trkpt>
      <trkpt lat="47.50679" lon="6.77524">
        <ele>315.4</ele>
        <time>2024-05-08T07:48:25Z</time>
      </trkpt>
      <trkpt lat="47.50648" lon="6.77534">
        <ele>315.4</ele>
        <time>2024-05-08T07:48:36Z</time>
      </trkpt>
      <trkpt lat="47.50607" lon="6.77527">
        <ele>315.5</ele>
        <time>2024-05-08T07:48:46Z</time>
      </trkpt>
      <trkpt lat="47.50564" lon="6.77549">
        <ele>315.5</ele>
        <time>2024-05-08T07:48:56Z</time>
      </trkpt>
      <trkpt lat="47.50526" lon="6.77507">
        <ele>315.5</ele>
        <time>2024-05-08T07:49:07Z</time>
      </trkpt>
      <trkpt lat="47.50471" lon="6.77464">
        <ele>315.3</ele>
        <time>2024-05-08T07:49:17Z</time>
      </trkpt>
      <trkpt lat="47.50415" lon="6.77416">
        <ele>315.1</ele>
        <time>2024-05-08T07:49:28Z</time>
      </trkpt>
      <trkpt lat="47.50363" lon="6.77373">
        <ele>315</ele>
        <time>2024-05-08T07:49:38Z</time>
      </trkpt>
      <trkpt lat="47.50309" lon="6.7733">
        <ele>315</ele>
        <time>2024-05-08T07:49:48Z</time>
      </trkpt>
      <trkpt lat="47.50248" lon="6.77287">
        <ele>315</ele>
        <time>2024-05-08T07:50:00Z</time>
      </trkpt>
      <trkpt lat="47.50186" lon="6.7724">
        <ele>314.5</ele>
        <time>2024-05-08T07:50:10Z</time>
      </trkpt>
      <trkpt lat="47.50128" lon="6.77201">
        <ele>315</ele>
        <time>2024-05-08T07:50:21Z</time>
      </trkpt>
      <trkpt lat="47.50074" lon="6.77205">
        <ele>316.2</ele>
        <time>2024-05-08T07:50:32Z</time>
      </trkpt>
      <trkpt lat="47.50014" lon="6.77228">
        <ele>315.5</ele>
        <time>2024-05-08T07:50:42Z</time>
      </trkpt>
      <trkpt lat="47.49953" lon="6.77258">
        <ele>314.2</ele>
        <time>2024-05-08T07:50:53Z</time>
      </trkpt>
      <trkpt lat="47.49895" lon="6.77294">
        <ele>313.5</ele>
        <time>2024-05-08T07:51:03Z</time>
      </trkpt>
      <trkpt lat="47.4983" lon="6.77302">
        <ele>313.1</ele>
        <time>2024-05-08T07:51:13Z</time>
      </trkpt>
      <trkpt lat="47.49756" lon="6.77308">
        <ele>312.8</ele>
        <time>2024-05-08T07:51:24Z</time>
      </trkpt>
      <trkpt lat="47.49691" lon="6.77335">
        <ele>312.6</ele>
        <time>2024-05-08T07:51:35Z</time>
      </trkpt>
      <trkpt lat="47.4962" lon="6.77353">
        <ele>312.5</ele>
        <time>2024-05-08T07:51:46Z</time>
      </trkpt>
      <trkpt lat="47.49555" lon="6.77361">
        <ele>312.5</ele>
        <time>2024-05-08T07:51:56Z</time>
      </trkpt>
      <trkpt lat="47.4949" lon="6.77354">
        <ele>312.4</ele>
        <time>2024-05-08T07:52:06Z</time>
      </trkpt>
      <trkpt lat="47.49421" lon="6.77349">
        <ele>312.3</ele>
        <time>2024-05-08T07:52:17Z</time>
      </trkpt>
      <trkpt lat="47.4935" lon="6.77344">
        <ele>312.3</ele>
        <time>2024-05-08T07:52:28Z</time>
      </trkpt>
      <trkpt lat="47.49283" lon="6.77324">
        <ele>312</ele>
        <time>2024-05-08T07:52:38Z</time>
      </trkpt>
      <trkpt lat="47.49225" lon="6.77336">
        <ele>312.4</ele>
        <time>2024-05-08T07:52:48Z</time>
      </trkpt>
      <trkpt lat="47.49159" lon="6.7733">
        <ele>312.7</ele>
        <time>2024-05-08T07:53:00Z</time>
      </trkpt>
      <trkpt lat="47.49091" lon="6.77324">
        <ele>312.5</ele>
        <time>2024-05-08T07:53:11Z</time>
      </trkpt>
      <trkpt lat="47.49021" lon="6.77321">
        <ele>312.6</ele>
        <time>2024-05-08T07:53:21Z</time>
      </trkpt>
      <trkpt lat="47.4895" lon="6.77315">
        <ele>312.6</ele>
        <time>2024-05-08T07:53:32Z</time>
      </trkpt>
      <trkpt lat="47.48878" lon="6.77287">
        <ele>312.5</ele>
        <time>2024-05-08T07:53:43Z</time>
      </trkpt>
      <trkpt lat="47.48817" lon="6.77254">
        <ele>312.5</ele>
        <time>2024-05-08T07:53:54Z</time>
      </trkpt>
      <trkpt lat="47.48751" lon="6.77201">
        <ele>312.4</ele>
        <time>2024-05-08T07:54:04Z</time>
      </trkpt>
      <trkpt lat="47.48685" lon="6.77151">
        <ele>312.4</ele>
        <time>2024-05-08T07:54:16Z</time>
      </trkpt>
      <trkpt lat="47.48631" lon="6.77091">
        <ele>313</ele>
        <time>2024-05-08T07:54:26Z</time>
      </trkpt>
      <trkpt lat="47.48569" lon="6.77053">
        <ele>312.8</ele>
        <time>2024-05-08T07:54:37Z</time>
      </trkpt>
      <trkpt lat="47.48499" lon="6.77008">
        <ele>311.5</ele>
        <time>2024-05-08T07:54:47Z</time>
      </trkpt>
      <trkpt lat="47.48428" lon="6.76962">
        <ele>311.4</ele>
        <time>2024-05-08T07:54:58Z</time>
      </trkpt>
      <trkpt lat="47.48353" lon="6.7692">
        <ele>311.3</ele>
        <time>2024-05-08T07:55:09Z</time>
      </trkpt>
      <trkpt lat="47.48294" lon="6.76875">
        <ele>311.5</ele>
        <time>2024-05-08T07:55:20Z</time>
      </trkpt>
      <trkpt lat="47.4824" lon="6.76804">
        <ele>311.9</ele>
        <time>2024-05-08T07:55:30Z</time>
      </trkpt>
      <trkpt lat="47.48177" lon="6.76766">
        <ele>311.5</ele>
        <time>2024-05-08T07:55:40Z</time>
      </trkpt>
      <trkpt lat="47.4813" lon="6.76685">
        <ele>311.6</ele>
        <time>2024-05-08T07:55:51Z</time>
      </trkpt>
      <trkpt lat="47.48095" lon="6.76617">
        <ele>312.1</ele>
        <time>2024-05-08T07:56:02Z</time>
      </trkpt>
      <trkpt lat="47.48122" lon="6.76536">
        <ele>313.2</ele>
        <time>2024-05-08T07:56:12Z</time>
      </trkpt>
      <trkpt lat="47.48089" lon="6.7652">
        <ele>313.8</ele>
        <time>2024-05-08T07:56:22Z</time>
      </trkpt>
      <trkpt lat="47.48044" lon="6.76564">
        <ele>314.1</ele>
        <time>2024-05-08T07:56:34Z</time>
      </trkpt>
      <trkpt lat="47.47992" lon="6.76603">
        <ele>314.2</ele>
        <time>2024-05-08T07:56:45Z</time>
      </trkpt>
      <trkpt lat="47.47945" lon="6.76625">
        <ele>313.2</ele>
        <time>2024-05-08T07:56:55Z</time>
      </trkpt>
      <trkpt lat="47.47881" lon="6.76688">
        <ele>311.2</ele>
        <time>2024-05-08T07:57:05Z</time>
      </trkpt>
      <trkpt lat="47.47838" lon="6.76777">
        <ele>311.7</ele>
        <time>2024-05-08T07:57:16Z</time>
      </trkpt>
      <trkpt lat="47.47785" lon="6.76794">
        <ele>312.5</ele>
        <time>2024-05-08T07:57:27Z</time>
      </trkpt>
      <trkpt lat="47.47731" lon="6.76779">
        <ele>312.5</ele>
        <time>2024-05-08T07:57:37Z</time>
      </trkpt>
      <trkpt lat="47.47657" lon="6.76729">
        <ele>311.6</ele>
        <time>2024-05-08T07:57:47Z</time>
      </trkpt>
      <trkpt lat="47.47588" lon="6.76687">
        <ele>311.9</ele>
        <time>2024-05-08T07:57:57Z</time>
      </trkpt>
      <trkpt lat="47.4753" lon="6.76628">
        <ele>312.8</ele>
        <time>2024-05-08T07:58:09Z</time>
      </trkpt>
      <trkpt lat="47.47488" lon="6.76566">
        <ele>313.5</ele>
        <time>2024-05-08T07:58:20Z</time>
      </trkpt>
      <trkpt lat="47.4744" lon="6.76502">
        <ele>313</ele>
        <time>2024-05-08T07:58:31Z</time>
      </trkpt>
      <trkpt lat="47.47376" lon="6.76506">
        <ele>313.3</ele>
        <time>2024-05-08T07:58:41Z</time>
      </trkpt>
      <trkpt lat="47.4733" lon="6.76512">
        <ele>314.3</ele>
        <time>2024-05-08T07:58:51Z</time>
      </trkpt>
      <trkpt lat="47.47283" lon="6.76517">
        <ele>315.8</ele>
        <time>2024-05-08T07:59:01Z</time>
      </trkpt>
      <trkpt lat="47.47231" lon="6.76522">
        <ele>317.6</ele>
        <time>2024-05-08T07:59:12Z</time>
      </trkpt>
      <trkpt lat="47.47185" lon="6.76527">
        <ele>318.9</ele>
        <time>2024-05-08T07:59:22Z</time>
      </trkpt>
      <trkpt lat="47.47133" lon="6.76533">
        <ele>320.3</ele>
        <time>2024-05-08T07:59:33Z</time>
      </trkpt>
      <trkpt lat="47.47087" lon="6.76538">
        <ele>321.8</ele>
        <time>2024-05-08T07:59:43Z</time>
      </trkpt>
      <trkpt lat="47.47034" lon="6.76539">
        <ele>323.7</ele>
        <time>2024-05-08T07:59:54Z</time>
      </trkpt>
      <trkpt lat="47.46991" lon="6.76529">
        <ele>325.2</ele>
        <time>2024-05-08T08:00:04Z</time>
      </trkpt>
      <trkpt lat="47.46948" lon="6.76508">
        <ele>326.4</ele>
        <time>2024-05-08T08:00:14Z</time>
      </trkpt>
      <trkpt lat="47.46902" lon="6.76471">
        <ele>328</ele>
        <time>2024-05-08T08:00:25Z</time>
      </trkpt>
      <trkpt lat="47.46857" lon="6.76443">
        <ele>329.5</ele>
        <time>2024-05-08T08:00:36Z</time>
      </trkpt>
      <trkpt lat="47.46816" lon="6.76429">
        <ele>330.8</ele>
        <time>2024-05-08T08:00:47Z</time>
      </trkpt>
      <trkpt lat="47.46771" lon="6.7643">
        <ele>332.2</ele>
        <time>2024-05-08T08:00:57Z</time>
      </trkpt>
      <trkpt lat="47.46732" lon="6.76447">
        <ele>333</ele>
        <time>2024-05-08T08:01:07Z</time>
      </trkpt>
      <trkpt lat="47.46698" lon="6.76465">
        <ele>334.2</ele>
        <time>2024-05-08T08:01:17Z</time>
      </trkpt>
      <trkpt lat="47.46661" lon="6.76483">
        <ele>335.5</ele>
        <time>2024-05-08T08:01:28Z</time>
      </trkpt>
      <trkpt lat="47.46627" lon="6.765">
        <ele>336.7</ele>
        <time>2024-05-08T08:01:39Z</time>
      </trkpt>
      <trkpt lat="47.46584" lon="6.76522">
        <ele>338.2</ele>
        <time>2024-05-08T08:01:49Z</time>
      </trkpt>
      <trkpt lat="47.46543" lon="6.76533">
        <ele>340</ele>
        <time>2024-05-08T08:02:00Z</time>
      </trkpt>
      <trkpt lat="47.46505" lon="6.76534">
        <ele>342.3</ele>
        <time>2024-05-08T08:02:11Z</time>
      </trkpt>
      <trkpt lat="47.46468" lon="6.76527">
        <ele>344.7</ele>
        <time>2024-05-08T08:02:21Z</time>
      </trkpt>
      <trkpt lat="47.46435" lon="6.76521">
        <ele>346.9</ele>
        <time>2024-05-08T08:02:32Z</time>
      </trkpt>
      <trkpt lat="47.46397" lon="6.76517">
        <ele>349</ele>
        <time>2024-05-08T08:02:42Z</time>
      </trkpt>
      <trkpt lat="47.4636" lon="6.76522">
        <ele>350.5</ele>
        <time>2024-05-08T08:02:52Z</time>
      </trkpt>
      <trkpt lat="47.4632" lon="6.76538">
        <ele>352.1</ele>
        <time>2024-05-08T08:03:03Z</time>
      </trkpt>
      <trkpt lat="47.4628" lon="6.76565">
        <ele>353.8</ele>
        <time>2024-05-08T08:03:13Z</time>
      </trkpt>
      <trkpt lat="47.46238" lon="6.76596">
        <ele>355.6</ele>
        <time>2024-05-08T08:03:24Z</time>
      </trkpt>
      <trkpt lat="47.46197" lon="6.76624">
        <ele>357</ele>
        <time>2024-05-08T08:03:34Z</time>
      </trkpt>
      <trkpt lat="47.46154" lon="6.76651">
        <ele>358.2</ele>
        <time>2024-05-08T08:03:45Z</time>
      </trkpt>
      <trkpt lat="47.46112" lon="6.76669">
        <ele>359.4</ele>
        <time>2024-05-08T08:03:56Z</time>
      </trkpt>
      <trkpt lat="47.46069" lon="6.76681">
        <ele>360.6</ele>
        <time>2024-05-08T08:04:06Z</time>
      </trkpt>
      <trkpt lat="47.46028" lon="6.76692">
        <ele>361.9</ele>
        <time>2024-05-08T08:04:16Z</time>
      </trkpt>
      <trkpt lat="47.45989" lon="6.76698">
        <ele>363.2</ele>
        <time>2024-05-08T08:04:26Z</time>
      </trkpt>
      <trkpt lat="47.45946" lon="6.76708">
        <ele>364.8</ele>
        <time>2024-05-08T08:04:37Z</time>
      </trkpt>
      <trkpt lat="47.45907" lon="6.76718">
        <ele>366.4</ele>
        <time>2024-05-08T08:04:47Z</time>
      </trkpt>
      <trkpt lat="47.45867" lon="6.76727">
        <ele>368.1</ele>
        <time>2024-05-08T08:04:57Z</time>
      </trkpt>
      <trkpt lat="47.45831" lon="6.76724">
        <ele>369.5</ele>
        <time>2024-05-08T08:05:07Z</time>
      </trkpt>
      <trkpt lat="47.45789" lon="6.76723">
        <ele>370.9</ele>
        <time>2024-05-08T08:05:17Z</time>
      </trkpt>
      <trkpt lat="47.45739" lon="6.76721">
        <ele>372.6</ele>
        <time>2024-05-08T08:05:28Z</time>
      </trkpt>
      <trkpt lat="47.457" lon="6.76721">
        <ele>374</ele>
        <time>2024-05-08T08:05:38Z</time>
      </trkpt>
      <trkpt lat="47.45658" lon="6.7672">
        <ele>375.5</ele>
        <time>2024-05-08T08:05:48Z</time>
      </trkpt>
      <trkpt lat="47.45613" lon="6.76728">
        <ele>377.2</ele>
        <time>2024-05-08T08:05:59Z</time>
      </trkpt>
      <trkpt lat="47.45566" lon="6.76739">
        <ele>378.8</ele>
        <time>2024-05-08T08:06:09Z</time>
      </trkpt>
      <trkpt lat="47.45519" lon="6.76752">
        <ele>380.5</ele>
        <time>2024-05-08T08:06:20Z</time>
      </trkpt>
      <trkpt lat="47.45476" lon="6.76765">
        <ele>382</ele>
        <time>2024-05-08T08:06:30Z</time>
      </trkpt>
      <trkpt lat="47.45434" lon="6.76776">
        <ele>383.4</ele>
        <time>2024-05-08T08:06:40Z</time>
      </trkpt>
      <trkpt lat="47.45393" lon="6.76786">
        <ele>384.7</ele>
        <time>2024-05-08T08:06:51Z</time>
      </trkpt>
      <trkpt lat="47.45346" lon="6.76791">
        <ele>385.7</ele>
        <time>2024-05-08T08:07:01Z</time>
      </trkpt>
      <trkpt lat="47.45296" lon="6.76778">
        <ele>386</ele>
        <time>2024-05-08T08:07:11Z</time>
      </trkpt>
      <trkpt lat="47.45246" lon="6.76746">
        <ele>386.2</ele>
        <time>2024-05-08T08:07:22Z</time>
      </trkpt>
      <trkpt lat="47.45215" lon="6.76757">
        <ele>385.6</ele>
        <time>2024-05-08T08:07:32Z</time>
      </trkpt>
      <trkpt lat="47.45176" lon="6.76836">
        <ele>382.5</ele>
        <time>2024-05-08T08:07:42Z</time>
      </trkpt>
      <trkpt lat="47.45129" lon="6.76941">
        <ele>378.5</ele>
        <time>2024-05-08T08:07:52Z</time>
      </trkpt>
      <trkpt lat="47.45086" lon="6.77043">
        <ele>375.1</ele>
        <time>2024-05-08T08:08:02Z</time>
      </trkpt>
      <trkpt lat="47.4506" lon="6.77163">
        <ele>372.3</ele>
        <time>2024-05-08T08:08:13Z</time>
      </trkpt>
      <trkpt lat="47.4504" lon="6.7728">
        <ele>369</ele>
        <time>2024-05-08T08:08:24Z</time>
      </trkpt>
      <trkpt lat="47.45001" lon="6.77389">
        <ele>365.6</ele>
        <time>2024-05-08T08:08:36Z</time>
      </trkpt>
      <trkpt lat="47.44965" lon="6.77486">
        <ele>363.8</ele>
        <time>2024-05-08T08:08:47Z</time>
      </trkpt>
      <trkpt lat="47.44932" lon="6.77574">
        <ele>362.5</ele>
        <time>2024-05-08T08:08:57Z</time>
      </trkpt>
      <trkpt lat="47.44896" lon="6.77669">
        <ele>362</ele>
        <time>2024-05-08T08:09:07Z</time>
      </trkpt>
      <trkpt lat="47.44852" lon="6.77748">
        <ele>361</ele>
        <time>2024-05-08T08:09:17Z</time>
      </trkpt>
      <trkpt lat="47.44784" lon="6.77809">
        <ele>359.1</ele>
        <time>2024-05-08T08:09:28Z</time>
      </trkpt>
      <trkpt lat="47.44696" lon="6.77829">
        <ele>355.4</ele>
        <time>2024-05-08T08:09:39Z</time>
      </trkpt>
      <trkpt lat="47.44606" lon="6.778">
        <ele>350.7</ele>
        <time>2024-05-08T08:09:50Z</time>
      </trkpt>
      <trkpt lat="47.44501" lon="6.77737">
        <ele>344.7</ele>
        <time>2024-05-08T08:10:00Z</time>
      </trkpt>
      <trkpt lat="47.44405" lon="6.77679">
        <ele>340</ele>
        <time>2024-05-08T08:10:10Z</time>
      </trkpt>
      <trkpt lat="47.44307" lon="6.77652">
        <ele>338.1</ele>
        <time>2024-05-08T08:10:21Z</time>
      </trkpt>
      <trkpt lat="47.44221" lon="6.77692">
        <ele>338.7</ele>
        <time>2024-05-08T08:10:32Z</time>
      </trkpt>
      <trkpt lat="47.44154" lon="6.77751">
        <ele>338.9</ele>
        <time>2024-05-08T08:10:42Z</time>
      </trkpt>
      <trkpt lat="47.44097" lon="6.77802">
        <ele>339.1</ele>
        <time>2024-05-08T08:10:52Z</time>
      </trkpt>
      <trkpt lat="47.44036" lon="6.77854">
        <ele>339.5</ele>
        <time>2024-05-08T08:11:03Z</time>
      </trkpt>
      <trkpt lat="47.43982" lon="6.77897">
        <ele>339.8</ele>
        <time>2024-05-08T08:11:13Z</time>
      </trkpt>
      <trkpt lat="47.43924" lon="6.7795">
        <ele>339.8</ele>
        <time>2024-05-08T08:11:24Z</time>
      </trkpt>
      <trkpt lat="47.43871" lon="6.77999">
        <ele>339.9</ele>
        <time>2024-05-08T08:11:34Z</time>
      </trkpt>
      <trkpt lat="47.43817" lon="6.78045">
        <ele>339.8</ele>
        <time>2024-05-08T08:11:44Z</time>
      </trkpt>
      <trkpt lat="47.43764" lon="6.78093">
        <ele>340.2</ele>
        <time>2024-05-08T08:11:54Z</time>
      </trkpt>
      <trkpt lat="47.43705" lon="6.78143">
        <ele>340.3</ele>
        <time>2024-05-08T08:12:05Z</time>
      </trkpt>
      <trkpt lat="47.43651" lon="6.7819">
        <ele>340.3</ele>
        <time>2024-05-08T08:12:15Z</time>
      </trkpt>
      <trkpt lat="47.43593" lon="6.78243">
        <ele>340.6</ele>
        <time>2024-05-08T08:12:26Z</time>
      </trkpt>
      <trkpt lat="47.43532" lon="6.78293">
        <ele>340.9</ele>
        <time>2024-05-08T08:12:37Z</time>
      </trkpt>
      <trkpt lat="47.4348" lon="6.78339">
        <ele>341</ele>
        <time>2024-05-08T08:12:47Z</time>
      </trkpt>
      <trkpt lat="47.43424" lon="6.78384">
        <ele>341.2</ele>
        <time>2024-05-08T08:12:58Z</time>
      </trkpt>
      <trkpt lat="47.43383" lon="6.78412">
        <ele>341.2</ele>
        <time>2024-05-08T08:13:08Z</time>
      </trkpt>
      <trkpt lat="47.4338" lon="6.78411">
        <ele>341.2</ele>
        <time>2024-05-08T08:13:19Z</time>
      </trkpt>
      <trkpt lat="47.43354" lon="6.78447">
        <ele>341.4</ele>
        <time>2024-05-08T08:13:30Z</time>
      </trkpt>
      <trkpt lat="47.43293" lon="6.78438">
        <ele>341.6</ele>
        <time>2024-05-08T08:13:41Z</time>
      </trkpt>
      <trkpt lat="47.4323" lon="6.78414">
        <ele>341.8</ele>
        <time>2024-05-08T08:13:52Z</time>
      </trkpt>
      <trkpt lat="47.43166" lon="6.78389">
        <ele>342.1</ele>
        <time>2024-05-08T08:14:03Z</time>
      </trkpt>
      <trkpt lat="47.43097" lon="6.78363">
        <ele>342.2</ele>
        <time>2024-05-08T08:14:15Z</time>
      </trkpt>
      <trkpt lat="47.43028" lon="6.78333">
        <ele>342.5</ele>
        <time>2024-05-08T08:14:25Z</time>
      </trkpt>
      <trkpt lat="47.42964" lon="6.78308">
        <ele>342.6</ele>
        <time>2024-05-08T08:14:35Z</time>
      </trkpt>
      <trkpt lat="47.42893" lon="6.78282">
        <ele>342.8</ele>
        <time>2024-05-08T08:14:47Z</time>
      </trkpt>
      <trkpt lat="47.42827" lon="6.78239">
        <ele>342.9</ele>
        <time>2024-05-08T08:14:57Z</time>
      </trkpt>
      <trkpt lat="47.4276" lon="6.78225">
        <ele>343.1</ele>
        <time>2024-05-08T08:15:08Z</time>
      </trkpt>
      <trkpt lat="47.42693" lon="6.78197">
        <ele>343.3</ele>
        <time>2024-05-08T08:15:20Z</time>
      </trkpt>
      <trkpt lat="47.42632" lon="6.78175">
        <ele>343.5</ele>
        <time>2024-05-08T08:15:30Z</time>
      </trkpt>
      <trkpt lat="47.42565" lon="6.7815">
        <ele>343.8</ele>
        <time>2024-05-08T08:15:41Z</time>
      </trkpt>
      <trkpt lat="47.42495" lon="6.78121">
        <ele>343.9</ele>
        <time>2024-05-08T08:15:51Z</time>
      </trkpt>
      <trkpt lat="47.42431" lon="6.78097">
        <ele>343.7</ele>
        <time>2024-05-08T08:16:02Z</time>
      </trkpt>
      <trkpt lat="47.42358" lon="6.78069">
        <ele>343.4</ele>
        <time>2024-05-08T08:16:12Z</time>
      </trkpt>
      <trkpt lat="47.42285" lon="6.78041">
        <ele>343.5</ele>
        <time>2024-05-08T08:16:22Z</time>
      </trkpt>
      <trkpt lat="47.42205" lon="6.78009">
        <ele>343.8</ele>
        <time>2024-05-08T08:16:33Z</time>
      </trkpt>
      <trkpt lat="47.42135" lon="6.77981">
        <ele>344</ele>
        <time>2024-05-08T08:16:43Z</time>
      </trkpt>
      <trkpt lat="47.42066" lon="6.77955">
        <ele>344.2</ele>
        <time>2024-05-08T08:16:53Z</time>
      </trkpt>
      <trkpt lat="47.41997" lon="6.77928">
        <ele>344.3</ele>
        <time>2024-05-08T08:17:03Z</time>
      </trkpt>
      <trkpt lat="47.41924" lon="6.77899">
        <ele>344.7</ele>
        <time>2024-05-08T08:17:14Z</time>
      </trkpt>
      <trkpt lat="47.41862" lon="6.77876">
        <ele>345.2</ele>
        <time>2024-05-08T08:17:25Z</time>
      </trkpt>
      <trkpt lat="47.41794" lon="6.77849">
        <ele>345.9</ele>
        <time>2024-05-08T08:17:35Z</time>
      </trkpt>
      <trkpt lat="47.41733" lon="6.77826">
        <ele>346.4</ele>
        <time>2024-05-08T08:17:46Z</time>
      </trkpt>
      <trkpt lat="47.41678" lon="6.77806">
        <ele>346.4</ele>
        <time>2024-05-08T08:17:57Z</time>
      </trkpt>
      <trkpt lat="47.41629" lon="6.77785">
        <ele>346.3</ele>
        <time>2024-05-08T08:18:07Z</time>
      </trkpt>
      <trkpt lat="47.4158" lon="6.77775">
        <ele>346</ele>
        <time>2024-05-08T08:18:18Z</time>
      </trkpt>
      <trkpt lat="47.41548" lon="6.77789">
        <ele>345.2</ele>
        <time>2024-05-08T08:18:29Z</time>
      </trkpt>
      <trkpt lat="47.41552" lon="6.77881">
        <ele>344</ele>
        <time>2024-05-08T08:18:39Z</time>
      </trkpt>
      <trkpt lat="47.41516" lon="6.77935">
        <ele>343.9</ele>
        <time>2024-05-08T08:18:50Z</time>
      </trkpt>
      <trkpt lat="47.41468" lon="6.77933">
        <ele>344</ele>
        <time>2024-05-08T08:19:01Z</time>
      </trkpt>
      <trkpt lat="47.41491" lon="6.7798">
        <ele>343.5</ele>
        <time>2024-05-08T08:19:11Z</time>
      </trkpt>
      <trkpt lat="47.41529" lon="6.78042">
        <ele>343.5</ele>
        <time>2024-05-08T08:19:21Z</time>
      </trkpt>
      <trkpt lat="47.41573" lon="6.78089">
        <ele>344.2</ele>
        <time>2024-05-08T08:19:32Z</time>
      </trkpt>
      <trkpt lat="47.41576" lon="6.78157">
        <ele>343.9</ele>
        <time>2024-05-08T08:19:42Z</time>
      </trkpt>
      <trkpt lat="47.41533" lon="6.78175">
        <ele>343.7</ele>
        <time>2024-05-08T08:19:52Z</time>
      </trkpt>
      <trkpt lat="47.41478" lon="6.78154">
        <ele>343.7</ele>
        <time>2024-05-08T08:20:02Z</time>
      </trkpt>
      <trkpt lat="47.41417" lon="6.78108">
        <ele>343.5</ele>
        <time>2024-05-08T08:20:13Z</time>
      </trkpt>
      <trkpt lat="47.41366" lon="6.78063">
        <ele>343.7</ele>
        <time>2024-05-08T08:20:24Z</time>
      </trkpt>
      <trkpt lat="47.41318" lon="6.78095">
        <ele>342.8</ele>
        <time>2024-05-08T08:20:35Z</time>
      </trkpt>
      <trkpt lat="47.41271" lon="6.78131">
        <ele>342.4</ele>
        <time>2024-05-08T08:20:46Z</time>
      </trkpt>
      <trkpt lat="47.41232" lon="6.78177">
        <ele>341.3</ele>
        <time>2024-05-08T08:20:56Z</time>
      </trkpt>
      <trkpt lat="47.41227" lon="6.78179">
        <ele>341.3</ele>
        <time>2024-05-08T08:21:07Z</time>
      </trkpt>
      <trkpt lat="47.41227" lon="6.7818">
        <ele>341.3</ele>
        <time>2024-05-08T08:21:17Z</time>
      </trkpt>
      <trkpt lat="47.41227" lon="6.7818">
        <ele>341.3</ele>
        <time>2024-05-08T08:21:28Z</time>
      </trkpt>
      <trkpt lat="47.41227" lon="6.7818">
        <ele>341.3</ele>
        <time>2024-05-08T08:21:38Z</time>
      </trkpt>
      <trkpt lat="47.41229" lon="6.78182">
        <ele>341.3</ele>
        <time>2024-05-08T08:21:48Z</time>
      </trkpt>
      <trkpt lat="47.41229" lon="6.78182">
        <ele>341.3</ele>
        <time>2024-05-08T08:21:59Z</time>
      </trkpt>
      <trkpt lat="47.41226" lon="6.78168">
        <ele>341.1</ele>
        <time>2024-05-08T08:22:10Z</time>
      </trkpt>
      <trkpt lat="47.41218" lon="6.78097">
        <ele>340.9</ele>
        <time>2024-05-08T08:22:21Z</time>
      </trkpt>
      <trkpt lat="47.41202" lon="6.78017">
        <ele>340.9</ele>
        <time>2024-05-08T08:22:31Z</time>
      </trkpt>
      <trkpt lat="47.41241" lon="6.77974">
        <ele>342</ele>
        <time>2024-05-08T08:22:42Z</time>
      </trkpt>
      <trkpt lat="47.41285" lon="6.7797">
        <ele>342.4</ele>
        <time>2024-05-08T08:22:52Z</time>
      </trkpt>
      <trkpt lat="47.41336" lon="6.77941">
        <ele>343.3</ele>
        <time>2024-05-08T08:23:03Z</time>
      </trkpt>
      <trkpt lat="47.41347" lon="6.77904">
        <ele>344.3</ele>
        <time>2024-05-08T08:23:14Z</time>
      </trkpt>
      <trkpt lat="47.41322" lon="6.77837">
        <ele>344.2</ele>
        <time>2024-05-08T08:23:24Z</time>
      </trkpt>
      <trkpt lat="47.41286" lon="6.77759">
        <ele>344.2</ele>
        <time>2024-05-08T08:23:35Z</time>
      </trkpt>
      <trkpt lat="47.41235" lon="6.77691">
        <ele>344.1</ele>
        <time>2024-05-08T08:23:46Z</time>
      </trkpt>
      <trkpt lat="47.41176" lon="6.77628">
        <ele>343.8</ele>
        <time>2024-05-08T08:23:57Z</time>
      </trkpt>
      <trkpt lat="47.41128" lon="6.77596">
        <ele>343.5</ele>
        <time>2024-05-08T08:24:08Z</time>
      </trkpt>
      <trkpt lat="47.41078" lon="6.77657">
        <ele>342.7</ele>
        <time>2024-05-08T08:24:18Z</time>
      </trkpt>
      <trkpt lat="47.4103" lon="6.77721">
        <ele>343.1</ele>
        <time>2024-05-08T08:24:28Z</time>
      </trkpt>
      <trkpt lat="47.40983" lon="6.77761">
        <ele>343.4</ele>
        <time>2024-05-08T08:24:39Z</time>
      </trkpt>
      <trkpt lat="47.40942" lon="6.77693">
        <ele>343.9</ele>
        <time>2024-05-08T08:24:49Z</time>
      </trkpt>
      <trkpt lat="47.40914" lon="6.77609">
        <ele>344.3</ele>
        <time>2024-05-08T08:25:00Z</time>
      </trkpt>
      <trkpt lat="47.40875" lon="6.77533">
        <ele>344.4</ele>
        <time>2024-05-08T08:25:11Z</time>
      </trkpt>
      <trkpt lat="47.40842" lon="6.77458">
        <ele>344.5</ele>
        <time>2024-05-08T08:25:22Z</time>
      </trkpt>
      <trkpt lat="47.40806" lon="6.77376">
        <ele>344.8</ele>
        <time>2024-05-08T08:25:32Z</time>
      </trkpt>
      <trkpt lat="47.40774" lon="6.77308">
        <ele>344.9</ele>
        <time>2024-05-08T08:25:42Z</time>
      </trkpt>
      <trkpt lat="47.40747" lon="6.77253">
        <ele>344.7</ele>
        <time>2024-05-08T08:25:53Z</time>
      </trkpt>
      <trkpt lat="47.40708" lon="6.77203">
        <ele>345</ele>
        <time>2024-05-08T08:26:04Z</time>
      </trkpt>
      <trkpt lat="47.40658" lon="6.77158">
        <ele>345.2</ele>
        <time>2024-05-08T08:26:15Z</time>
      </trkpt>
      <trkpt lat="47.40606" lon="6.77129">
        <ele>345.4</ele>
        <time>2024-05-08T08:26:25Z</time>
      </trkpt>
      <trkpt lat="47.40543" lon="6.7712">
        <ele>345.3</ele>
        <time>2024-05-08T08:26:36Z</time>
      </trkpt>
      <trkpt lat="47.40475" lon="6.77116">
        <ele>345.2</ele>
        <time>2024-05-08T08:26:47Z</time>
      </trkpt>
      <trkpt lat="47.40413" lon="6.77107">
        <ele>345.3</ele>
        <time>2024-05-08T08:26:57Z</time>
      </trkpt>
      <trkpt lat="47.40347" lon="6.77109">
        <ele>345.3</ele>
        <time>2024-05-08T08:27:08Z</time>
      </trkpt>
      <trkpt lat="47.40283" lon="6.77117">
        <ele>346.3</ele>
        <time>2024-05-08T08:27:19Z</time>
      </trkpt>
      <trkpt lat="47.40236" lon="6.77138">
        <ele>348.2</ele>
        <time>2024-05-08T08:27:29Z</time>
      </trkpt>
      <trkpt lat="47.40197" lon="6.77163">
        <ele>349.2</ele>
        <time>2024-05-08T08:27:39Z</time>
      </trkpt>
      <trkpt lat="47.4014" lon="6.77165">
        <ele>349.5</ele>
        <time>2024-05-08T08:27:50Z</time>
      </trkpt>
      <trkpt lat="47.4008" lon="6.7716">
        <ele>349.5</ele>
        <time>2024-05-08T08:28:01Z</time>
      </trkpt>
      <trkpt lat="47.40023" lon="6.77154">
        <ele>349.6</ele>
        <time>2024-05-08T08:28:12Z</time>
      </trkpt>
      <trkpt lat="47.39963" lon="6.77148">
        <ele>349.8</ele>
        <time>2024-05-08T08:28:22Z</time>
      </trkpt>
      <trkpt lat="47.39907" lon="6.77152">
        <ele>350.1</ele>
        <time>2024-05-08T08:28:32Z</time>
      </trkpt>
      <trkpt lat="47.39853" lon="6.77162">
        <ele>350.2</ele>
        <time>2024-05-08T08:28:42Z</time>
      </trkpt>
      <trkpt lat="47.39818" lon="6.77161">
        <ele>350.1</ele>
        <time>2024-05-08T08:28:53Z</time>
      </trkpt>
      <trkpt lat="47.39775" lon="6.77174">
        <ele>349.6</ele>
        <time>2024-05-08T08:29:04Z</time>
      </trkpt>
      <trkpt lat="47.39727" lon="6.7719">
        <ele>347.9</ele>
        <time>2024-05-08T08:29:15Z</time>
      </trkpt>
      <trkpt lat="47.39671" lon="6.77211">
        <ele>346</ele>
        <time>2024-05-08T08:29:25Z</time>
      </trkpt>
      <trkpt lat="47.39621" lon="6.77255">
        <ele>345.9</ele>
        <time>2024-05-08T08:29:36Z</time>
      </trkpt>
      <trkpt lat="47.39571" lon="6.77298">
        <ele>346.1</ele>
        <time>2024-05-08T08:29:46Z</time>
      </trkpt>
      <trkpt lat="47.3952" lon="6.77345">
        <ele>346.7</ele>
        <time>2024-05-08T08:29:57Z</time>
      </trkpt>
      <trkpt lat="47.39462" lon="6.77371">
        <ele>347</ele>
        <time>2024-05-08T08:30:07Z</time>
      </trkpt>
      <trkpt lat="47.39405" lon="6.77394">
        <ele>347.5</ele>
        <time>2024-05-08T08:30:18Z</time>
      </trkpt>
      <trkpt lat="47.39346" lon="6.77414">
        <ele>347.7</ele>
        <time>2024-05-08T08:30:29Z</time>
      </trkpt>
      <trkpt lat="47.39298" lon="6.77413">
        <ele>347.6</ele>
        <time>2024-05-08T08:30:41Z</time>
      </trkpt>
      <trkpt lat="47.39242" lon="6.774">
        <ele>346.7</ele>
        <time>2024-05-08T08:30:52Z</time>
      </trkpt>
      <trkpt lat="47.39168" lon="6.774">
        <ele>346</ele>
        <time>2024-05-08T08:31:02Z</time>
      </trkpt>
      <trkpt lat="47.39101" lon="6.77414">
        <ele>346.1</ele>
        <time>2024-05-08T08:31:13Z</time>
      </trkpt>
      <trkpt lat="47.39039" lon="6.7744">
        <ele>346.4</ele>
        <time>2024-05-08T08:31:23Z</time>
      </trkpt>
      <trkpt lat="47.38991" lon="6.77467">
        <ele>347.7</ele>
        <time>2024-05-08T08:31:34Z</time>
      </trkpt>
      <trkpt lat="47.39005" lon="6.77471">
        <ele>347.7</ele>
        <time>2024-05-08T08:31:44Z</time>
      </trkpt>
      <trkpt lat="47.39029" lon="6.7744">
        <ele>346.7</ele>
        <time>2024-05-08T08:31:54Z</time>
      </trkpt>
      <trkpt lat="47.39025" lon="6.77404">
        <ele>346.3</ele>
        <time>2024-05-08T08:32:04Z</time>
      </trkpt>
      <trkpt lat="47.38983" lon="6.77392">
        <ele>345.7</ele>
        <time>2024-05-08T08:32:15Z</time>
      </trkpt>
      <trkpt lat="47.38936" lon="6.77374">
        <ele>345.4</ele>
        <time>2024-05-08T08:32:25Z</time>
      </trkpt>
      <trkpt lat="47.38895" lon="6.7736">
        <ele>345.3</ele>
        <time>2024-05-08T08:32:35Z</time>
      </trkpt>
      <trkpt lat="47.38842" lon="6.77341">
        <ele>345.3</ele>
        <time>2024-05-08T08:32:47Z</time>
      </trkpt>
      <trkpt lat="47.38788" lon="6.77326">
        <ele>345.3</ele>
        <time>2024-05-08T08:32:57Z</time>
      </trkpt>
      <trkpt lat="47.38736" lon="6.77302">
        <ele>345.4</ele>
        <time>2024-05-08T08:33:08Z</time>
      </trkpt>
      <trkpt lat="47.38686" lon="6.77284">
        <ele>345.6</ele>
        <time>2024-05-08T08:33:19Z</time>
      </trkpt>
      <trkpt lat="47.38634" lon="6.77275">
        <ele>345.8</ele>
        <time>2024-05-08T08:33:29Z</time>
      </trkpt>
      <trkpt lat="47.38585" lon="6.77269">
        <ele>345.6</ele>
        <time>2024-05-08T08:33:40Z</time>
      </trkpt>
      <trkpt lat="47.38539" lon="6.77267">
        <ele>346.1</ele>
        <time>2024-05-08T08:33:50Z</time>
      </trkpt>
      <trkpt lat="47.38499" lon="6.77273">
        <ele>346.6</ele>
        <time>2024-05-08T08:34:02Z</time>
      </trkpt>
      <trkpt lat="47.38461" lon="6.7729">
        <ele>347.2</ele>
        <time>2024-05-08T08:34:12Z</time>
      </trkpt>
      <trkpt lat="47.38449" lon="6.77326">
        <ele>350.4</ele>
        <time>2024-05-08T08:34:22Z</time>
      </trkpt>
      <trkpt lat="47.38447" lon="6.77361">
        <ele>353.3</ele>
        <time>2024-05-08T08:34:33Z</time>
      </trkpt>
      <trkpt lat="47.38405" lon="6.7735">
        <ele>352.7</ele>
        <time>2024-05-08T08:34:43Z</time>
      </trkpt>
      <trkpt lat="47.38334" lon="6.77335">
        <ele>351.1</ele>
        <time>2024-05-08T08:34:54Z</time>
      </trkpt>
      <trkpt lat="47.38264" lon="6.7732">
        <ele>350.9</ele>
        <time>2024-05-08T08:35:04Z</time>
      </trkpt>
      <trkpt lat="47.38217" lon="6.77293">
        <ele>352</ele>
        <time>2024-05-08T08:35:14Z</time>
      </trkpt>
      <trkpt lat="47.38221" lon="6.77221">
        <ele>352.3</ele>
        <time>2024-05-08T08:35:25Z</time>
      </trkpt>
      <trkpt lat="47.38218" lon="6.77143">
        <ele>352.6</ele>
        <time>2024-05-08T08:35:35Z</time>
      </trkpt>
      <trkpt lat="47.38204" lon="6.77094">
        <ele>352.9</ele>
        <time>2024-05-08T08:35:46Z</time>
      </trkpt>
      <trkpt lat="47.38204" lon="6.7709">
        <ele>352.9</ele>
        <time>2024-05-08T08:35:56Z</time>
      </trkpt>
      <trkpt lat="47.38204" lon="6.7709">
        <ele>352.9</ele>
        <time>2024-05-08T08:36:07Z</time>
      </trkpt>
      <trkpt lat="47.38204" lon="6.7709">
        <ele>352.9</ele>
        <time>2024-05-08T08:36:17Z</time>
      </trkpt>
      <trkpt lat="47.38204" lon="6.7709">
        <ele>352.9</ele>
        <time>2024-05-08T08:36:28Z</time>
      </trkpt>
      <trkpt lat="47.38204" lon="6.7709">
        <ele>352.9</ele>
        <time>2024-05-08T08:36:38Z</time>
      </trkpt>
      <trkpt lat="47.38204" lon="6.7709">
        <ele>352.9</ele>
        <time>2024-05-08T08:36:49Z</time>
      </trkpt>
      <trkpt lat="47.38204" lon="6.7709">
        <ele>352.9</ele>
        <time>2024-05-08T08:37:00Z</time>
      </trkpt>
      <trkpt lat="47.38204" lon="6.7709">
        <ele>352.9</ele>
        <time>2024-05-08T08:37:10Z</time>
      </trkpt>
      <trkpt lat="47.38204" lon="6.7709">
        <ele>352.9</ele>
        <time>2024-05-08T08:37:20Z</time>
      </trkpt>
      <trkpt lat="47.38206" lon="6.77091">
        <ele>352.9</ele>
        <time>2024-05-08T08:37:30Z</time>
      </trkpt>
      <trkpt lat="47.38208" lon="6.7709">
        <ele>353</ele>
        <time>2024-05-08T08:37:40Z</time>
      </trkpt>
      <trkpt lat="47.38205" lon="6.77087">
        <ele>353</ele>
        <time>2024-05-08T08:37:51Z</time>
      </trkpt>
      <trkpt lat="47.38205" lon="6.77087">
        <ele>353</ele>
        <time>2024-05-08T08:38:02Z</time>
      </trkpt>
      <trkpt lat="47.38205" lon="6.77086">
        <ele>353</ele>
        <time>2024-05-08T08:38:13Z</time>
      </trkpt>
      <trkpt lat="47.38203" lon="6.77062">
        <ele>353.5</ele>
        <time>2024-05-08T08:38:23Z</time>
      </trkpt>
      <trkpt lat="47.38182" lon="6.77027">
        <ele>354.4</ele>
        <time>2024-05-08T08:38:34Z</time>
      </trkpt>
      <trkpt lat="47.38155" lon="6.77011">
        <ele>355.7</ele>
        <time>2024-05-08T08:38:44Z</time>
      </trkpt>
      <trkpt lat="47.38119" lon="6.77017">
        <ele>357.2</ele>
        <time>2024-05-08T08:38:55Z</time>
      </trkpt>
      <trkpt lat="47.38083" lon="6.77022">
        <ele>357.7</ele>
        <time>2024-05-08T08:39:05Z</time>
      </trkpt>
      <trkpt lat="47.38051" lon="6.76985">
        <ele>358.6</ele>
        <time>2024-05-08T08:39:16Z</time>
      </trkpt>
      <trkpt lat="47.38034" lon="6.76928">
        <ele>359.9</ele>
        <time>2024-05-08T08:39:27Z</time>
      </trkpt>
      <trkpt lat="47.38015" lon="6.76873">
        <ele>361.5</ele>
        <time>2024-05-08T08:39:38Z</time>
      </trkpt>
      <trkpt lat="47.37964" lon="6.7686">
        <ele>361.5</ele>
        <time>2024-05-08T08:39:49Z</time>
      </trkpt>
      <trkpt lat="47.37915" lon="6.76835">
        <ele>361.4</ele>
        <time>2024-05-08T08:39:59Z</time>
      </trkpt>
      <trkpt lat="47.37863" lon="6.76785">
        <ele>361.1</ele>
        <time>2024-05-08T08:40:10Z</time>
      </trkpt>
      <trkpt lat="47.37822" lon="6.76736">
        <ele>361.1</ele>
        <time>2024-05-08T08:40:20Z</time>
      </trkpt>
      <trkpt lat="47.37792" lon="6.76668">
        <ele>360.5</ele>
        <time>2024-05-08T08:40:32Z</time>
      </trkpt>
      <trkpt lat="47.37768" lon="6.76581">
        <ele>360.3</ele>
        <time>2024-05-08T08:40:42Z</time>
      </trkpt>
      <trkpt lat="47.37756" lon="6.76502">
        <ele>360.1</ele>
        <time>2024-05-08T08:40:52Z</time>
      </trkpt>
      <trkpt lat="47.37741" lon="6.76413">
        <ele>359.4</ele>
        <time>2024-05-08T08:41:03Z</time>
      </trkpt>
      <trkpt lat="47.37725" lon="6.76332">
        <ele>359.4</ele>
        <time>2024-05-08T08:41:14Z</time>
      </trkpt>
      <trkpt lat="47.37714" lon="6.76252">
        <ele>360.8</ele>
        <time>2024-05-08T08:41:24Z</time>
      </trkpt>
      <trkpt lat="47.37708" lon="6.76212">
        <ele>361.3</ele>
        <time>2024-05-08T08:41:34Z</time>
      </trkpt>
      <trkpt lat="47.37696" lon="6.76181">
        <ele>361.1</ele>
        <time>2024-05-08T08:41:44Z</time>
      </trkpt>
      <trkpt lat="47.37696" lon="6.76181">
        <ele>361.1</ele>
        <time>2024-05-08T08:41:55Z</time>
      </trkpt>
      <trkpt lat="47.37696" lon="6.76181">
        <ele>361.1</ele>
        <time>2024-05-08T08:42:05Z</time>
      </trkpt>
      <trkpt lat="47.37696" lon="6.76181">
        <ele>361.1</ele>
        <time>2024-05-08T08:42:15Z</time>
      </trkpt>
      <trkpt lat="47.37696" lon="6.76181">
        <ele>361.1</ele>
        <time>2024-05-08T08:42:26Z</time>
      </trkpt>
      <trkpt lat="47.37696" lon="6.76181">
        <ele>361.1</ele>
        <time>2024-05-08T08:42:37Z</time>
      </trkpt>
      <trkpt lat="47.37696" lon="6.76181">
        <ele>361.1</ele>
        <time>2024-05-08T08:42:47Z</time>
      </trkpt>
      <trkpt lat="47.37696" lon="6.76181">
        <ele>361.1</ele>
        <time>2024-05-08T08:42:58Z</time>
      </trkpt>
      <trkpt lat="47.37694" lon="6.76177">
        <ele>361.1</ele>
        <time>2024-05-08T08:43:09Z</time>
      </trkpt>
      <trkpt lat="47.37681" lon="6.76148">
        <ele>361.2</ele>
        <time>2024-05-08T08:43:20Z</time>
      </trkpt>
      <trkpt lat="47.37647" lon="6.76096">
        <ele>360</ele>
        <time>2024-05-08T08:43:30Z</time>
      </trkpt>
      <trkpt lat="47.37593" lon="6.76037">
        <ele>357.8</ele>
        <time>2024-05-08T08:43:41Z</time>
      </trkpt>
      <trkpt lat="47.37534" lon="6.75996">
        <ele>357.3</ele>
        <time>2024-05-08T08:43:52Z</time>
      </trkpt>
      <trkpt lat="47.37485" lon="6.75976">
        <ele>357.4</ele>
        <time>2024-05-08T08:44:02Z</time>
      </trkpt>
      <trkpt lat="47.37442" lon="6.75951">
        <ele>357.5</ele>
        <time>2024-05-08T08:44:12Z</time>
      </trkpt>
      <trkpt lat="47.37395" lon="6.75945">
        <ele>357.2</ele>
        <time>2024-05-08T08:44:23Z</time>
      </trkpt>
      <trkpt lat="47.37352" lon="6.75947">
        <ele>356.9</ele>
        <time>2024-05-08T08:44:33Z</time>
      </trkpt>
      <trkpt lat="47.37292" lon="6.75947">
        <ele>356.2</ele>
        <time>2024-05-08T08:44:44Z</time>
      </trkpt>
      <trkpt lat="47.37242" lon="6.75939">
        <ele>355.6</ele>
        <time>2024-05-08T08:44:54Z</time>
      </trkpt>
      <trkpt lat="47.37179" lon="6.75917">
        <ele>354.6</ele>
        <time>2024-05-08T08:45:05Z</time>
      </trkpt>
      <trkpt lat="47.37125" lon="6.75874">
        <ele>354</ele>
        <time>2024-05-08T08:45:15Z</time>
      </trkpt>
      <trkpt lat="47.3707" lon="6.75833">
        <ele>353.7</ele>
        <time>2024-05-08T08:45:26Z</time>
      </trkpt>
      <trkpt lat="47.37014" lon="6.7578">
        <ele>353.5</ele>
        <time>2024-05-08T08:45:37Z</time>
      </trkpt>
      <trkpt lat="47.36974" lon="6.75719">
        <ele>355</ele>
        <time>2024-05-08T08:45:48Z</time>
      </trkpt>
      <trkpt lat="47.36944" lon="6.75685">
        <ele>355.6</ele>
        <time>2024-05-08T08:45:58Z</time>
      </trkpt>
      <trkpt lat="47.36904" lon="6.75642">
        <ele>355.5</ele>
        <time>2024-05-08T08:46:08Z</time>
      </trkpt>
      <trkpt lat="47.36858" lon="6.75597">
        <ele>355.4</ele>
        <time>2024-05-08T08:46:18Z</time>
      </trkpt>
      <trkpt lat="47.36803" lon="6.7555">
        <ele>355.3</ele>
        <time>2024-05-08T08:46:29Z</time>
      </trkpt>
      <trkpt lat="47.36745" lon="6.75522">
        <ele>355.8</ele>
        <time>2024-05-08T08:46:40Z</time>
      </trkpt>
      <trkpt lat="47.36695" lon="6.75516">
        <ele>355.8</ele>
        <time>2024-05-08T08:46:50Z</time>
      </trkpt>
      <trkpt lat="47.36629" lon="6.75514">
        <ele>354.1</ele>
        <time>2024-05-08T08:47:00Z</time>
      </trkpt>
      <trkpt lat="47.36584" lon="6.75489">
        <ele>354.5</ele>
        <time>2024-05-08T08:47:11Z</time>
      </trkpt>
      <trkpt lat="47.36552" lon="6.75477">
        <ele>355.1</ele>
        <time>2024-05-08T08:47:22Z</time>
      </trkpt>
      <trkpt lat="47.3652" lon="6.75469">
        <ele>356</ele>
        <time>2024-05-08T08:47:33Z</time>
      </trkpt>
      <trkpt lat="47.36479" lon="6.75471">
        <ele>357.2</ele>
        <time>2024-05-08T08:47:43Z</time>
      </trkpt>
      <trkpt lat="47.36424" lon="6.75482">
        <ele>358.5</ele>
        <time>2024-05-08T08:47:54Z</time>
      </trkpt>
      <trkpt lat="47.36369" lon="6.7549">
        <ele>359.3</ele>
        <time>2024-05-08T08:48:05Z</time>
      </trkpt>
      <trkpt lat="47.36318" lon="6.7549">
        <ele>359.6</ele>
        <time>2024-05-08T08:48:15Z</time>
      </trkpt>
      <trkpt lat="47.36264" lon="6.75494">
        <ele>359.5</ele>
        <time>2024-05-08T08:48:25Z</time>
      </trkpt>
      <trkpt lat="47.36218" lon="6.75497">
        <ele>359.3</ele>
        <time>2024-05-08T08:48:36Z</time>
      </trkpt>
      <trkpt lat="47.36181" lon="6.75524">
        <ele>359.5</ele>
        <time>2024-05-08T08:48:46Z</time>
      </trkpt>
      <trkpt lat="47.36131" lon="6.75554">
        <ele>360</ele>
        <time>2024-05-08T08:48:57Z</time>
      </trkpt>
      <trkpt lat="47.36072" lon="6.75547">
        <ele>358.6</ele>
        <time>2024-05-08T08:49:08Z</time>
      </trkpt>
      <trkpt lat="47.36013" lon="6.75601">
        <ele>357</ele>
        <time>2024-05-08T08:49:18Z</time>
      </trkpt>
      <trkpt lat="47.35955" lon="6.7564">
        <ele>357.6</ele>
        <time>2024-05-08T08:49:29Z</time>
      </trkpt>
      <trkpt lat="47.35905" lon="6.75688">
        <ele>358</ele>
        <time>2024-05-08T08:49:40Z</time>
      </trkpt>
      <trkpt lat="47.3585" lon="6.7573">
        <ele>357.9</ele>
        <time>2024-05-08T08:49:51Z</time>
      </trkpt>
      <trkpt lat="47.35793" lon="6.75762">
        <ele>358.6</ele>
        <time>2024-05-08T08:50:02Z</time>
      </trkpt>
      <trkpt lat="47.3574" lon="6.75795">
        <ele>358.9</ele>
        <time>2024-05-08T08:50:13Z</time>
      </trkpt>
      <trkpt lat="47.35681" lon="6.75815">
        <ele>359.3</ele>
        <time>2024-05-08T08:50:24Z</time>
      </trkpt>
      <trkpt lat="47.35626" lon="6.75829">
        <ele>360.4</ele>
        <time>2024-05-08T08:50:36Z</time>
      </trkpt>
      <trkpt lat="47.35572" lon="6.75858">
        <ele>360.7</ele>
        <time>2024-05-08T08:50:46Z</time>
      </trkpt>
      <trkpt lat="47.35511" lon="6.75881">
        <ele>360.9</ele>
        <time>2024-05-08T08:50:57Z</time>
      </trkpt>
      <trkpt lat="47.35448" lon="6.75879">
        <ele>361.1</ele>
        <time>2024-05-08T08:51:08Z</time>
      </trkpt>
      <trkpt lat="47.35387" lon="6.75874">
        <ele>362</ele>
        <time>2024-05-08T08:51:19Z</time>
      </trkpt>
      <trkpt lat="47.35324" lon="6.7587">
        <ele>362.1</ele>
        <time>2024-05-08T08:51:30Z</time>
      </trkpt>
      <trkpt lat="47.35268" lon="6.7587">
        <ele>362.1</ele>
        <time>2024-05-08T08:51:40Z</time>
      </trkpt>
      <trkpt lat="47.35204" lon="6.75866">
        <ele>362.5</ele>
        <time>2024-05-08T08:51:51Z</time>
      </trkpt>
      <trkpt lat="47.35148" lon="6.75867">
        <ele>362.7</ele>
        <time>2024-05-08T08:52:01Z</time>
      </trkpt>
      <trkpt lat="47.3509" lon="6.75871">
        <ele>362.7</ele>
        <time>2024-05-08T08:52:11Z</time>
      </trkpt>
      <trkpt lat="47.3503" lon="6.75867">
        <ele>362.8</ele>
        <time>2024-05-08T08:52:22Z</time>
      </trkpt>
      <trkpt lat="47.34978" lon="6.75852">
        <ele>363.1</ele>
        <time>2024-05-08T08:52:33Z</time>
      </trkpt>
      <trkpt lat="47.34929" lon="6.75829">
        <ele>363.5</ele>
        <time>2024-05-08T08:52:43Z</time>
      </trkpt>
      <trkpt lat="47.34879" lon="6.75785">
        <ele>363.9</ele>
        <time>2024-05-08T08:52:54Z</time>
      </trkpt>
      <trkpt lat="47.3485" lon="6.7572">
        <ele>364.4</ele>
        <time>2024-05-08T08:53:05Z</time>
      </trkpt>
      <trkpt lat="47.34816" lon="6.75671">
        <ele>362.4</ele>
        <time>2024-05-08T08:53:15Z</time>
      </trkpt>
      <trkpt lat="47.34751" lon="6.75618">
        <ele>358.2</ele>
        <time>2024-05-08T08:53:25Z</time>
      </trkpt>
      <trkpt lat="47.3468" lon="6.75652">
        <ele>357.8</ele>
        <time>2024-05-08T08:53:36Z</time>
      </trkpt>
      <trkpt lat="47.34628" lon="6.75702">
        <ele>358.1</ele>
        <time>2024-05-08T08:53:46Z</time>
      </trkpt>
      <trkpt lat="47.34564" lon="6.75726">
        <ele>357.6</ele>
        <time>2024-05-08T08:53:57Z</time>
      </trkpt>
      <trkpt lat="47.34496" lon="6.75758">
        <ele>358</ele>
        <time>2024-05-08T08:54:07Z</time>
      </trkpt>
      <trkpt lat="47.34433" lon="6.7578">
        <ele>359.2</ele>
        <time>2024-05-08T08:54:18Z</time>
      </trkpt>
      <trkpt lat="47.3439" lon="6.75791">
        <ele>361.4</ele>
        <time>2024-05-08T08:54:28Z</time>
      </trkpt>
      <trkpt lat="47.34337" lon="6.75797">
        <ele>362.2</ele>
        <time>2024-05-08T08:54:39Z</time>
      </trkpt>
      <trkpt lat="47.3428" lon="6.75803">
        <ele>361.8</ele>
        <time>2024-05-08T08:54:50Z</time>
      </trkpt>
      <trkpt lat="47.34224" lon="6.75798">
        <ele>361.9</ele>
        <time>2024-05-08T08:55:00Z</time>
      </trkpt>
      <trkpt lat="47.34167" lon="6.75772">
        <ele>362.6</ele>
        <time>2024-05-08T08:55:11Z</time>
      </trkpt>
      <trkpt lat="47.34118" lon="6.75757">
        <ele>363.4</ele>
        <time>2024-05-08T08:55:21Z</time>
      </trkpt>
      <trkpt lat="47.34063" lon="6.75743">
        <ele>363.3</ele>
        <time>2024-05-08T08:55:31Z</time>
      </trkpt>
      <trkpt lat="47.33998" lon="6.75731">
        <ele>363.1</ele>
        <time>2024-05-08T08:55:42Z</time>
      </trkpt>
      <trkpt lat="47.33934" lon="6.75695">
        <ele>362.9</ele>
        <time>2024-05-08T08:55:53Z</time>
      </trkpt>
      <trkpt lat="47.33871" lon="6.7566">
        <ele>362.6</ele>
        <time>2024-05-08T08:56:04Z</time>
      </trkpt>
      <trkpt lat="47.33811" lon="6.75624">
        <ele>363</ele>
        <time>2024-05-08T08:56:15Z</time>
      </trkpt>
      <trkpt lat="47.33772" lon="6.75566">
        <ele>364.3</ele>
        <time>2024-05-08T08:56:26Z</time>
      </trkpt>
      <trkpt lat="47.33736" lon="6.75524">
        <ele>366.2</ele>
        <time>2024-05-08T08:56:36Z</time>
      </trkpt>
      <trkpt lat="47.33701" lon="6.75507">
        <ele>368.1</ele>
        <time>2024-05-08T08:56:47Z</time>
      </trkpt>
      <trkpt lat="47.33662" lon="6.75492">
        <ele>369.5</ele>
        <time>2024-05-08T08:56:58Z</time>
      </trkpt>
      <trkpt lat="47.33617" lon="6.75481">
        <ele>370.4</ele>
        <time>2024-05-08T08:57:09Z</time>
      </trkpt>
      <trkpt lat="47.33562" lon="6.75474">
        <ele>370.1</ele>
        <time>2024-05-08T08:57:20Z</time>
      </trkpt>
      <trkpt lat="47.33503" lon="6.7547">
        <ele>370.3</ele>
        <time>2024-05-08T08:57:31Z</time>
      </trkpt>
      <trkpt lat="47.33448" lon="6.75474">
        <ele>370.1</ele>
        <time>2024-05-08T08:57:41Z</time>
      </trkpt>
      <trkpt lat="47.33382" lon="6.75493">
        <ele>368.9</ele>
        <time>2024-05-08T08:57:52Z</time>
      </trkpt>
      <trkpt lat="47.33346" lon="6.75567">
        <ele>369.7</ele>
        <time>2024-05-08T08:58:02Z</time>
      </trkpt>
      <trkpt lat="47.33318" lon="6.75632">
        <ele>370.6</ele>
        <time>2024-05-08T08:58:12Z</time>
      </trkpt>
      <trkpt lat="47.33279" lon="6.7569">
        <ele>370.5</ele>
        <time>2024-05-08T08:58:22Z</time>
      </trkpt>
      <trkpt lat="47.33229" lon="6.75749">
        <ele>370.1</ele>
        <time>2024-05-08T08:58:33Z</time>
      </trkpt>
      <trkpt lat="47.33207" lon="6.75812">
        <ele>373.3</ele>
        <time>2024-05-08T08:58:44Z</time>
      </trkpt>
      <trkpt lat="47.33193" lon="6.75853">
        <ele>375.8</ele>
        <time>2024-05-08T08:58:54Z</time>
      </trkpt>
      <trkpt lat="47.33177" lon="6.75886">
        <ele>377.4</ele>
        <time>2024-05-08T08:59:04Z</time>
      </trkpt>
      <trkpt lat="47.33148" lon="6.7593">
        <ele>377.8</ele>
        <time>2024-05-08T08:59:15Z</time>
      </trkpt>
      <trkpt lat="47.33101" lon="6.75978">
        <ele>376.7</ele>
        <time>2024-05-08T08:59:26Z</time>
      </trkpt>
      <trkpt lat="47.33041" lon="6.76043">
        <ele>371.6</ele>
        <time>2024-05-08T08:59:36Z</time>
      </trkpt>
      <trkpt lat="47.32974" lon="6.76113">
        <ele>365.7</ele>
        <time>2024-05-08T08:59:46Z</time>
      </trkpt>
      <trkpt lat="47.32941" lon="6.76227">
        <ele>364.5</ele>
        <time>2024-05-08T08:59:57Z</time>
      </trkpt>
      <trkpt lat="47.3291" lon="6.76298">
        <ele>366</ele>
        <time>2024-05-08T09:00:08Z</time>
      </trkpt>
      <trkpt lat="47.3288" lon="6.76363">
        <ele>366.9</ele>
        <time>2024-05-08T09:00:19Z</time>
      </trkpt>
      <trkpt lat="47.32852" lon="6.76423">
        <ele>368.2</ele>
        <time>2024-05-08T09:00:29Z</time>
      </trkpt>
      <trkpt lat="47.32822" lon="6.7648">
        <ele>368.8</ele>
        <time>2024-05-08T09:00:40Z</time>
      </trkpt>
      <trkpt lat="47.32795" lon="6.7655">
        <ele>369.1</ele>
        <time>2024-05-08T09:00:51Z</time>
      </trkpt>
      <trkpt lat="47.32769" lon="6.76625">
        <ele>369.1</ele>
        <time>2024-05-08T09:01:01Z</time>
      </trkpt>
      <trkpt lat="47.3274" lon="6.76689">
        <ele>369.2</ele>
        <time>2024-05-08T09:01:11Z</time>
      </trkpt>
      <trkpt lat="47.32702" lon="6.76752">
        <ele>367.6</ele>
        <time>2024-05-08T09:01:22Z</time>
      </trkpt>
      <trkpt lat="47.32647" lon="6.76822">
        <ele>365.1</ele>
        <time>2024-05-08T09:01:32Z</time>
      </trkpt>
      <trkpt lat="47.32649" lon="6.76887">
        <ele>366.5</ele>
        <time>2024-05-08T09:01:43Z</time>
      </trkpt>
      <trkpt lat="47.32653" lon="6.76939">
        <ele>368.1</ele>
        <time>2024-05-08T09:01:54Z</time>
      </trkpt>
      <trkpt lat="47.32658" lon="6.77002">
        <ele>368.7</ele>
        <time>2024-05-08T09:02:05Z</time>
      </trkpt>
      <trkpt lat="47.32664" lon="6.77076">
        <ele>367.8</ele>
        <time>2024-05-08T09:02:16Z</time>
      </trkpt>
      <trkpt lat="47.32663" lon="6.77156">
        <ele>367.6</ele>
        <time>2024-05-08T09:02:26Z</time>
      </trkpt>
      <trkpt lat="47.32651" lon="6.77219">
        <ele>368</ele>
        <time>2024-05-08T09:02:36Z</time>
      </trkpt>
      <trkpt lat="47.32643" lon="6.773">
        <ele>367.6</ele>
        <time>2024-05-08T09:02:47Z</time>
      </trkpt>
      <trkpt lat="47.32647" lon="6.77383">
        <ele>367.5</ele>
        <time>2024-05-08T09:02:58Z</time>
      </trkpt>
      <trkpt lat="47.32646" lon="6.77466">
        <ele>367.7</ele>
        <time>2024-05-08T09:03:08Z</time>
      </trkpt>
      <trkpt lat="47.32649" lon="6.77534">
        <ele>369</ele>
        <time>2024-05-08T09:03:19Z</time>
      </trkpt>
      <trkpt lat="47.32658" lon="6.77596">
        <ele>369.5</ele>
        <time>2024-05-08T09:03:29Z</time>
      </trkpt>
      <trkpt lat="47.32681" lon="6.77662">
        <ele>369.8</ele>
        <time>2024-05-08T09:03:40Z</time>
      </trkpt>
      <trkpt lat="47.32685" lon="6.77735">
        <ele>370.1</ele>
        <time>2024-05-08T09:03:50Z</time>
      </trkpt>
      <trkpt lat="47.3267" lon="6.77816">
        <ele>370.2</ele>
        <time>2024-05-08T09:04:01Z</time>
      </trkpt>
      <trkpt lat="47.32665" lon="6.77889">
        <ele>370.7</ele>
        <time>2024-05-08T09:04:11Z</time>
      </trkpt>
      <trkpt lat="47.32664" lon="6.77953">
        <ele>371.2</ele>
        <time>2024-05-08T09:04:22Z</time>
      </trkpt>
      <trkpt lat="47.32649" lon="6.78028">
        <ele>371.1</ele>
        <time>2024-05-08T09:04:33Z</time>
      </trkpt>
      <trkpt lat="47.32618" lon="6.78105">
        <ele>370.6</ele>
        <time>2024-05-08T09:04:44Z</time>
      </trkpt>
      <trkpt lat="47.32584" lon="6.78176">
        <ele>369.7</ele>
        <time>2024-05-08T09:04:54Z</time>
      </trkpt>
      <trkpt lat="47.32553" lon="6.78255">
        <ele>369.8</ele>
        <time>2024-05-08T09:05:05Z</time>
      </trkpt>
      <trkpt lat="47.32531" lon="6.78309">
        <ele>369.8</ele>
        <time>2024-05-08T09:05:16Z</time>
      </trkpt>
      <trkpt lat="47.32515" lon="6.78344">
        <ele>369.6</ele>
        <time>2024-05-08T09:05:26Z</time>
      </trkpt>
      <trkpt lat="47.325" lon="6.78373">
        <ele>369.4</ele>
        <time>2024-05-08T09:05:36Z</time>
      </trkpt>
      <trkpt lat="47.32479" lon="6.7841">
        <ele>368.7</ele>
        <time>2024-05-08T09:05:47Z</time>
      </trkpt>
      <trkpt lat="47.32452" lon="6.78459">
        <ele>367.7</ele>
        <time>2024-05-08T09:05:58Z</time>
      </trkpt>
      <trkpt lat="47.32428" lon="6.78502">
        <ele>367.9</ele>
        <time>2024-05-08T09:06:09Z</time>
      </trkpt>
      <trkpt lat="47.32403" lon="6.78542">
        <ele>368</ele>
        <time>2024-05-08T09:06:20Z</time>
      </trkpt>
      <trkpt lat="47.32371" lon="6.78589">
        <ele>367.8</ele>
        <time>2024-05-08T09:06:31Z</time>
      </trkpt>
      <trkpt lat="47.32346" lon="6.7863">
        <ele>368.2</ele>
        <time>2024-05-08T09:06:42Z</time>
      </trkpt>
      <trkpt lat="47.32324" lon="6.78671">
        <ele>368.1</ele>
        <time>2024-05-08T09:06:52Z</time>
      </trkpt>
      <trkpt lat="47.32307" lon="6.78721">
        <ele>368.8</ele>
        <time>2024-05-08T09:07:03Z</time>
      </trkpt>
      <trkpt lat="47.32291" lon="6.78764">
        <ele>370.2</ele>
        <time>2024-05-08T09:07:13Z</time>
      </trkpt>
      <trkpt lat="47.32276" lon="6.78808">
        <ele>372</ele>
        <time>2024-05-08T09:07:24Z</time>
      </trkpt>
      <trkpt lat="47.32257" lon="6.78848">
        <ele>372.4</ele>
        <time>2024-05-08T09:07:34Z</time>
      </trkpt>
      <trkpt lat="47.32251" lon="6.78849">
        <ele>372.4</ele>
        <time>2024-05-08T09:07:45Z</time>
      </trkpt>
      <trkpt lat="47.32249" lon="6.78852">
        <ele>372.5</ele>
        <time>2024-05-08T09:07:56Z</time>
      </trkpt>
      <trkpt lat="47.32249" lon="6.78866">
        <ele>372.8</ele>
        <time>2024-05-08T09:08:07Z</time>
      </trkpt>
      <trkpt lat="47.32253" lon="6.78872">
        <ele>373</ele>
        <time>2024-05-08T09:08:18Z</time>
      </trkpt>
      <trkpt lat="47.32252" lon="6.7888">
        <ele>373.1</ele>
        <time>2024-05-08T09:08:28Z</time>
      </trkpt>
      <trkpt lat="47.32248" lon="6.789">
        <ele>373.3</ele>
        <time>2024-05-08T09:08:39Z</time>
      </trkpt>
      <trkpt lat="47.32239" lon="6.78939">
        <ele>373.4</ele>
        <time>2024-05-08T09:08:49Z</time>
      </trkpt>
      <trkpt lat="47.32223" lon="6.78993">
        <ele>373.2</ele>
        <time>2024-05-08T09:09:00Z</time>
      </trkpt>
      <trkpt lat="47.32211" lon="6.79047">
        <ele>372.9</ele>
        <time>2024-05-08T09:09:10Z</time>
      </trkpt>
      <trkpt lat="47.32209" lon="6.79118">
        <ele>373.3</ele>
        <time>2024-05-08T09:09:21Z</time>
      </trkpt>
      <trkpt lat="47.32207" lon="6.79183">
        <ele>373.2</ele>
        <time>2024-05-08T09:09:31Z</time>
      </trkpt>
      <trkpt lat="47.32205" lon="6.79253">
        <ele>373.5</ele>
        <time>2024-05-08T09:09:41Z</time>
      </trkpt>
      <trkpt lat="47.32206" lon="6.79309">
        <ele>374.2</ele>
        <time>2024-05-08T09:09:52Z</time>
      </trkpt>
      <trkpt lat="47.32207" lon="6.79356">
        <ele>374.9</ele>
        <time>2024-05-08T09:10:03Z</time>
      </trkpt>
      <trkpt lat="47.32205" lon="6.794">
        <ele>375.4</ele>
        <time>2024-05-08T09:10:14Z</time>
      </trkpt>
      <trkpt lat="47.32194" lon="6.79447">
        <ele>375.6</ele>
        <time>2024-05-08T09:10:25Z</time>
      </trkpt>
      <trkpt lat="47.3218" lon="6.7949">
        <ele>375.1</ele>
        <time>2024-05-08T09:10:35Z</time>
      </trkpt>
      <trkpt lat="47.32197" lon="6.79516">
        <ele>373.7</ele>
        <time>2024-05-08T09:10:46Z</time>
      </trkpt>
      <trkpt lat="47.32205" lon="6.7957">
        <ele>370.6</ele>
        <time>2024-05-08T09:10:57Z</time>
      </trkpt>
      <trkpt lat="47.32203" lon="6.79631">
        <ele>368.9</ele>
        <time>2024-05-08T09:11:08Z</time>
      </trkpt>
      <trkpt lat="47.322" lon="6.79663">
        <ele>369.4</ele>
        <time>2024-05-08T09:11:18Z</time>
      </trkpt>
      <trkpt lat="47.32195" lon="6.79693">
        <ele>370</ele>
        <time>2024-05-08T09:11:28Z</time>
      </trkpt>
      <trkpt lat="47.32183" lon="6.79719">
        <ele>371</ele>
        <time>2024-05-08T09:11:39Z</time>
      </trkpt>
      <trkpt lat="47.32172" lon="6.79743">
        <ele>371.3</ele>
        <time>2024-05-08T09:11:49Z</time>
      </trkpt>
      <trkpt lat="47.32162" lon="6.79784">
        <ele>371</ele>
        <time>2024-05-08T09:12:00Z</time>
      </trkpt>
      <trkpt lat="47.3215" lon="6.79828">
        <ele>370.5</ele>
        <time>2024-05-08T09:12:10Z</time>
      </trkpt>
      <trkpt lat="47.32143" lon="6.79877">
        <ele>370</ele>
        <time>2024-05-08T09:12:21Z</time>
      </trkpt>
      <trkpt lat="47.32146" lon="6.79927">
        <ele>368.6</ele>
        <time>2024-05-08T09:12:31Z</time>
      </trkpt>
      <trkpt lat="47.32151" lon="6.79987">
        <ele>367.2</ele>
        <time>2024-05-08T09:12:42Z</time>
      </trkpt>
      <trkpt lat="47.32153" lon="6.80038">
        <ele>367.2</ele>
        <time>2024-05-08T09:12:53Z</time>
      </trkpt>
      <trkpt lat="47.32158" lon="6.8009">
        <ele>368</ele>
        <time>2024-05-08T09:13:03Z</time>
      </trkpt>
      <trkpt lat="47.32156" lon="6.80136">
        <ele>369.6</ele>
        <time>2024-05-08T09:13:14Z</time>
      </trkpt>
      <trkpt lat="47.3215" lon="6.80171">
        <ele>372.1</ele>
        <time>2024-05-08T09:13:24Z</time>
      </trkpt>
      <trkpt lat="47.32143" lon="6.80206">
        <ele>374.7</ele>
        <time>2024-05-08T09:13:35Z</time>
      </trkpt>
      <trkpt lat="47.3214" lon="6.80231">
        <ele>376.7</ele>
        <time>2024-05-08T09:13:46Z</time>
      </trkpt>
      <trkpt lat="47.32135" lon="6.80264">
        <ele>378.9</ele>
        <time>2024-05-08T09:13:57Z</time>
      </trkpt>
      <trkpt lat="47.32132" lon="6.80291">
        <ele>380.4</ele>
        <time>2024-05-08T09:14:08Z</time>
      </trkpt>
      <trkpt lat="47.32139" lon="6.80328">
        <ele>382.9</ele>
        <time>2024-05-08T09:14:19Z</time>
      </trkpt>
      <trkpt lat="47.3214" lon="6.80359">
        <ele>385</ele>
        <time>2024-05-08T09:14:30Z</time>
      </trkpt>
      <trkpt lat="47.32147" lon="6.80386">
        <ele>386.8</ele>
        <time>2024-05-08T09:14:40Z</time>
      </trkpt>
      <trkpt lat="47.32158" lon="6.80417">
        <ele>388.8</ele>
        <time>2024-05-08T09:14:51Z</time>
      </trkpt>
      <trkpt lat="47.32171" lon="6.80441">
        <ele>390.4</ele>
        <time>2024-05-08T09:15:02Z</time>
      </trkpt>
      <trkpt lat="47.32183" lon="6.80467">
        <ele>391.5</ele>
        <time>2024-05-08T09:15:12Z</time>
      </trkpt>
      <trkpt lat="47.32192" lon="6.80498">
        <ele>392.1</ele>
        <time>2024-05-08T09:15:23Z</time>
      </trkpt>
      <trkpt lat="47.32205" lon="6.80527">
        <ele>393.4</ele>
        <time>2024-05-08T09:15:34Z</time>
      </trkpt>
      <trkpt lat="47.3222" lon="6.80554">
        <ele>394.5</ele>
        <time>2024-05-08T09:15:45Z</time>
      </trkpt>
      <trkpt lat="47.32236" lon="6.80583">
        <ele>394.3</ele>
        <time>2024-05-08T09:15:56Z</time>
      </trkpt>
      <trkpt lat="47.32255" lon="6.80596">
        <ele>394.2</ele>
        <time>2024-05-08T09:16:07Z</time>
      </trkpt>
      <trkpt lat="47.32272" lon="6.80611">
        <ele>394.3</ele>
        <time>2024-05-08T09:16:17Z</time>
      </trkpt>
      <trkpt lat="47.32278" lon="6.80612">
        <ele>394.6</ele>
        <time>2024-05-08T09:16:28Z</time>
      </trkpt>
      <trkpt lat="47.32285" lon="6.80614">
        <ele>395.1</ele>
        <time>2024-05-08T09:16:38Z</time>
      </trkpt>
      <trkpt lat="47.32297" lon="6.80616">
        <ele>396.3</ele>
        <time>2024-05-08T09:16:49Z</time>
      </trkpt>
      <trkpt lat="47.32304" lon="6.80616">
        <ele>397</ele>
        <time>2024-05-08T09:16:59Z</time>
      </trkpt>
      <trkpt lat="47.32305" lon="6.80616">
        <ele>397.1</ele>
        <time>2024-05-08T09:17:09Z</time>
      </trkpt>
      <trkpt lat="47.32319" lon="6.80611">
        <ele>398.1</ele>
        <time>2024-05-08T09:17:20Z</time>
      </trkpt>
      <trkpt lat="47.32339" lon="6.80602">
        <ele>398.1</ele>
        <time>2024-05-08T09:17:30Z</time>
      </trkpt>
      <trkpt lat="47.32372" lon="6.806">
        <ele>395</ele>
        <time>2024-05-08T09:17:41Z</time>
      </trkpt>
      <trkpt lat="47.32411" lon="6.80634">
        <ele>390.4</ele>
        <time>2024-05-08T09:17:52Z</time>
      </trkpt>
      <trkpt lat="47.32441" lon="6.80664">
        <ele>386.2</ele>
        <time>2024-05-08T09:18:02Z</time>
      </trkpt>
      <trkpt lat="47.32476" lon="6.807">
        <ele>382.4</ele>
        <time>2024-05-08T09:18:13Z</time>
      </trkpt>
      <trkpt lat="47.3251" lon="6.80768">
        <ele>379.6</ele>
        <time>2024-05-08T09:18:24Z</time>
      </trkpt>
      <trkpt lat="47.32526" lon="6.80828">
        <ele>376.8</ele>
        <time>2024-05-08T09:18:34Z</time>
      </trkpt>
      <trkpt lat="47.32521" lon="6.80895">
        <ele>373.9</ele>
        <time>2024-05-08T09:18:45Z</time>
      </trkpt>
      <trkpt lat="47.32499" lon="6.80946">
        <ele>372.8</ele>
        <time>2024-05-08T09:18:55Z</time>
      </trkpt>
      <trkpt lat="47.32467" lon="6.80995">
        <ele>372.7</ele>
        <time>2024-05-08T09:19:06Z</time>
      </trkpt>
      <trkpt lat="47.32423" lon="6.81023">
        <ele>374.4</ele>
        <time>2024-05-08T09:19:17Z</time>
      </trkpt>
      <trkpt lat="47.32381" lon="6.8105">
        <ele>375.6</ele>
        <time>2024-05-08T09:19:28Z</time>
      </trkpt>
      <trkpt lat="47.32344" lon="6.81087">
        <ele>375.7</ele>
        <time>2024-05-08T09:19:38Z</time>
      </trkpt>
      <trkpt lat="47.32294" lon="6.81118">
        <ele>375</ele>
        <time>2024-05-08T09:19:49Z</time>
      </trkpt>
      <trkpt lat="47.32245" lon="6.8112">
        <ele>375.4</ele>
        <time>2024-05-08T09:19:59Z</time>
      </trkpt>
      <trkpt lat="47.32198" lon="6.81108">
        <ele>375.9</ele>
        <time>2024-05-08T09:20:09Z</time>
      </trkpt>
      <trkpt lat="47.32145" lon="6.81092">
        <ele>375.8</ele>
        <time>2024-05-08T09:20:20Z</time>
      </trkpt>
      <trkpt lat="47.32091" lon="6.81076">
        <ele>375.4</ele>
        <time>2024-05-08T09:20:30Z</time>
      </trkpt>
      <trkpt lat="47.3204" lon="6.81065">
        <ele>376.3</ele>
        <time>2024-05-08T09:20:40Z</time>
      </trkpt>
      <trkpt lat="47.31991" lon="6.81063">
        <ele>378.4</ele>
        <time>2024-05-08T09:20:51Z</time>
      </trkpt>
      <trkpt lat="47.31956" lon="6.81067">
        <ele>379.8</ele>
        <time>2024-05-08T09:21:01Z</time>
      </trkpt>
      <trkpt lat="47.31919" lon="6.81073">
        <ele>379.8</ele>
        <time>2024-05-08T09:21:12Z</time>
      </trkpt>
      <trkpt lat="47.31867" lon="6.81074">
        <ele>377</ele>
        <time>2024-05-08T09:21:22Z</time>
      </trkpt>
      <trkpt lat="47.31795" lon="6.81063">
        <ele>376.4</ele>
        <time>2024-05-08T09:21:33Z</time>
      </trkpt>
      <trkpt lat="47.31753" lon="6.81052">
        <ele>378.4</ele>
        <time>2024-05-08T09:21:43Z</time>
      </trkpt>
      <trkpt lat="47.31722" lon="6.81061">
        <ele>379.8</ele>
        <time>2024-05-08T09:21:53Z</time>
      </trkpt>
      <trkpt lat="47.31717" lon="6.81112">
        <ele>380.9</ele>
        <time>2024-05-08T09:22:04Z</time>
      </trkpt>
      <trkpt lat="47.31717" lon="6.81154">
        <ele>382.3</ele>
        <time>2024-05-08T09:22:15Z</time>
      </trkpt>
      <trkpt lat="47.31758" lon="6.81172">
        <ele>382.1</ele>
        <time>2024-05-08T09:22:25Z</time>
      </trkpt>
      <trkpt lat="47.31793" lon="6.81215">
        <ele>381.7</ele>
        <time>2024-05-08T09:22:35Z</time>
      </trkpt>
      <trkpt lat="47.31809" lon="6.81271">
        <ele>382.3</ele>
        <time>2024-05-08T09:22:46Z</time>
      </trkpt>
      <trkpt lat="47.31786" lon="6.81316">
        <ele>384</ele>
        <time>2024-05-08T09:22:56Z</time>
      </trkpt>
      <trkpt lat="47.31782" lon="6.81361">
        <ele>385.3</ele>
        <time>2024-05-08T09:23:06Z</time>
      </trkpt>
      <trkpt lat="47.31781" lon="6.81406">
        <ele>387</ele>
        <time>2024-05-08T09:23:17Z</time>
      </trkpt>
      <trkpt lat="47.31783" lon="6.81448">
        <ele>388.4</ele>
        <time>2024-05-08T09:23:27Z</time>
      </trkpt>
      <trkpt lat="47.31789" lon="6.81503">
        <ele>389.2</ele>
        <time>2024-05-08T09:23:38Z</time>
      </trkpt>
      <trkpt lat="47.31796" lon="6.8156">
        <ele>388.9</ele>
        <time>2024-05-08T09:23:48Z</time>
      </trkpt>
      <trkpt lat="47.31799" lon="6.81633">
        <ele>388.1</ele>
        <time>2024-05-08T09:23:58Z</time>
      </trkpt>
      <trkpt lat="47.31805" lon="6.81707">
        <ele>388</ele>
        <time>2024-05-08T09:24:09Z</time>
      </trkpt>
      <trkpt lat="47.3181" lon="6.81784">
        <ele>388</ele>
        <time>2024-05-08T09:24:20Z</time>
      </trkpt>
      <trkpt lat="47.31824" lon="6.81853">
        <ele>388.8</ele>
        <time>2024-05-08T09:24:31Z</time>
      </trkpt>
      <trkpt lat="47.31845" lon="6.81898">
        <ele>389.7</ele>
        <time>2024-05-08T09:24:41Z</time>
      </trkpt>
      <trkpt lat="47.3187" lon="6.8194">
        <ele>391.1</ele>
        <time>2024-05-08T09:24:52Z</time>
      </trkpt>
      <trkpt lat="47.31898" lon="6.81984">
        <ele>393</ele>
        <time>2024-05-08T09:25:03Z</time>
      </trkpt>
      <trkpt lat="47.31921" lon="6.82022">
        <ele>394.7</ele>
        <time>2024-05-08T09:25:13Z</time>
      </trkpt>
      <trkpt lat="47.31945" lon="6.82066">
        <ele>396.4</ele>
        <time>2024-05-08T09:25:24Z</time>
      </trkpt>
      <trkpt lat="47.31972" lon="6.82114">
        <ele>397.7</ele>
        <time>2024-05-08T09:25:34Z</time>
      </trkpt>
      <trkpt lat="47.31997" lon="6.82164">
        <ele>398.2</ele>
        <time>2024-05-08T09:25:44Z</time>
      </trkpt>
      <trkpt lat="47.32027" lon="6.82222">
        <ele>398.9</ele>
        <time>2024-05-08T09:25:55Z</time>
      </trkpt>
      <trkpt lat="47.32048" lon="6.82271">
        <ele>400.1</ele>
        <time>2024-05-08T09:26:05Z</time>
      </trkpt>
      <trkpt lat="47.32062" lon="6.82326">
        <ele>402</ele>
        <time>2024-05-08T09:26:16Z</time>
      </trkpt>
      <trkpt lat="47.32071" lon="6.82371">
        <ele>404</ele>
        <time>2024-05-08T09:26:26Z</time>
      </trkpt>
      <trkpt lat="47.3208" lon="6.82421">
        <ele>406.2</ele>
        <time>2024-05-08T09:26:37Z</time>
      </trkpt>
      <trkpt lat="47.32091" lon="6.82466">
        <ele>408.1</ele>
        <time>2024-05-08T09:26:47Z</time>
      </trkpt>
      <trkpt lat="47.32105" lon="6.82509">
        <ele>409.7</ele>
        <time>2024-05-08T09:26:57Z</time>
      </trkpt>
      <trkpt lat="47.32121" lon="6.82559">
        <ele>411</ele>
        <time>2024-05-08T09:27:08Z</time>
      </trkpt>
      <trkpt lat="47.32137" lon="6.82604">
        <ele>412</ele>
        <time>2024-05-08T09:27:18Z</time>
      </trkpt>
      <trkpt lat="47.32156" lon="6.82652">
        <ele>413.3</ele>
        <time>2024-05-08T09:27:29Z</time>
      </trkpt>
      <trkpt lat="47.32171" lon="6.82693">
        <ele>414.7</ele>
        <time>2024-05-08T09:27:39Z</time>
      </trkpt>
      <trkpt lat="47.3219" lon="6.8274">
        <ele>416.9</ele>
        <time>2024-05-08T09:27:50Z</time>
      </trkpt>
      <trkpt lat="47.32206" lon="6.82782">
        <ele>419.2</ele>
        <time>2024-05-08T09:28:01Z</time>
      </trkpt>
      <trkpt lat="47.32223" lon="6.8282">
        <ele>421.4</ele>
        <time>2024-05-08T09:28:12Z</time>
      </trkpt>
      <trkpt lat="47.32242" lon="6.82862">
        <ele>423.3</ele>
        <time>2024-05-08T09:28:23Z</time>
      </trkpt>
      <trkpt lat="47.32263" lon="6.82907">
        <ele>424.4</ele>
        <time>2024-05-08T09:28:33Z</time>
      </trkpt>
      <trkpt lat="47.3229" lon="6.82965">
        <ele>424.6</ele>
        <time>2024-05-08T09:28:44Z</time>
      </trkpt>
      <trkpt lat="47.32309" lon="6.83024">
        <ele>425.3</ele>
        <time>2024-05-08T09:28:55Z</time>
      </trkpt>
      <trkpt lat="47.32326" lon="6.83057">
        <ele>427.3</ele>
        <time>2024-05-08T09:29:05Z</time>
      </trkpt>
      <trkpt lat="47.32338" lon="6.8309">
        <ele>429.5</ele>
        <time>2024-05-08T09:29:16Z</time>
      </trkpt>
      <trkpt lat="47.32337" lon="6.83119">
        <ele>431.1</ele>
        <time>2024-05-08T09:29:26Z</time>
      </trkpt>
      <trkpt lat="47.32338" lon="6.83144">
        <ele>432.4</ele>
        <time>2024-05-08T09:29:36Z</time>
      </trkpt>
      <trkpt lat="47.3234" lon="6.83184">
        <ele>434.3</ele>
        <time>2024-05-08T09:29:47Z</time>
      </trkpt>
      <trkpt lat="47.32343" lon="6.83225">
        <ele>436.4</ele>
        <time>2024-05-08T09:29:57Z</time>
      </trkpt>
      <trkpt lat="47.3235" lon="6.83254">
        <ele>437.9</ele>
        <time>2024-05-08T09:30:07Z</time>
      </trkpt>
      <trkpt lat="47.32372" lon="6.83283">
        <ele>440.3</ele>
        <time>2024-05-08T09:30:17Z</time>
      </trkpt>
      <trkpt lat="47.32391" lon="6.83313">
        <ele>442.2</ele>
        <time>2024-05-08T09:30:28Z</time>
      </trkpt>
      <trkpt lat="47.32411" lon="6.83338">
        <ele>443.9</ele>
        <time>2024-05-08T09:30:38Z</time>
      </trkpt>
      <trkpt lat="47.32428" lon="6.83364">
        <ele>445.9</ele>
        <time>2024-05-08T09:30:49Z</time>
      </trkpt>
      <trkpt lat="47.32429" lon="6.83401">
        <ele>447.7</ele>
        <time>2024-05-08T09:30:59Z</time>
      </trkpt>
      <trkpt lat="47.32423" lon="6.83438">
        <ele>449.3</ele>
        <time>2024-05-08T09:31:09Z</time>
      </trkpt>
      <trkpt lat="47.32412" lon="6.83476">
        <ele>451.2</ele>
        <time>2024-05-08T09:31:20Z</time>
      </trkpt>
      <trkpt lat="47.32393" lon="6.83502">
        <ele>452.5</ele>
        <time>2024-05-08T09:31:30Z</time>
      </trkpt>
      <trkpt lat="47.32366" lon="6.83518">
        <ele>453.9</ele>
        <time>2024-05-08T09:31:41Z</time>
      </trkpt>
      <trkpt lat="47.32337" lon="6.83529">
        <ele>455.4</ele>
        <time>2024-05-08T09:31:52Z</time>
      </trkpt>
      <trkpt lat="47.32315" lon="6.8355">
        <ele>456.6</ele>
        <time>2024-05-08T09:32:02Z</time>
      </trkpt>
      <trkpt lat="47.32312" lon="6.83556">
        <ele>456.8</ele>
        <time>2024-05-08T09:32:12Z</time>
      </trkpt>
      <trkpt lat="47.32312" lon="6.83559">
        <ele>456.9</ele>
        <time>2024-05-08T09:32:23Z</time>
      </trkpt>
      <trkpt lat="47.32312" lon="6.83559">
        <ele>456.9</ele>
        <time>2024-05-08T09:32:34Z</time>
      </trkpt>
      <trkpt lat="47.32311" lon="6.83558">
        <ele>457</ele>
        <time>2024-05-08T09:32:45Z</time>
      </trkpt>
      <trkpt lat="47.32311" lon="6.83557">
        <ele>457</ele>
        <time>2024-05-08T09:32:56Z</time>
      </trkpt>
      <trkpt lat="47.32311" lon="6.83557">
        <ele>457</ele>
        <time>2024-05-08T09:33:07Z</time>
      </trkpt>
      <trkpt lat="47.32311" lon="6.83557">
        <ele>457</ele>
        <time>2024-05-08T09:33:17Z</time>
      </trkpt>
      <trkpt lat="47.32311" lon="6.83557">
        <ele>457</ele>
        <time>2024-05-08T09:33:28Z</time>
      </trkpt>
      <trkpt lat="47.32311" lon="6.83557">
        <ele>457</ele>
        <time>2024-05-08T09:33:38Z</time>
      </trkpt>
      <trkpt lat="47.32311" lon="6.83557">
        <ele>457</ele>
        <time>2024-05-08T09:33:49Z</time>
      </trkpt>
      <trkpt lat="47.32311" lon="6.83557">
        <ele>457</ele>
        <time>2024-05-08T09:33:59Z</time>
      </trkpt>
      <trkpt lat="47.32311" lon="6.83557">
        <ele>457</ele>
        <time>2024-05-08T09:34:10Z</time>
      </trkpt>
      <trkpt lat="47.32311" lon="6.83557">
        <ele>457</ele>
        <time>2024-05-08T09:34:20Z</time>
      </trkpt>
      <trkpt lat="47.32311" lon="6.83557">
        <ele>457</ele>
        <time>2024-05-08T09:34:31Z</time>
      </trkpt>
      <trkpt lat="47.32311" lon="6.83557">
        <ele>457</ele>
        <time>2024-05-08T09:34:41Z</time>
      </trkpt>
      <trkpt lat="47.32311" lon="6.83557">
        <ele>457</ele>
        <time>2024-05-08T09:34:51Z</time>
      </trkpt>
      <trkpt lat="47.32311" lon="6.83557">
        <ele>457</ele>
        <time>2024-05-08T09:35:02Z</time>
      </trkpt>
      <trkpt lat="47.32311" lon="6.83557">
        <ele>457</ele>
        <time>2024-05-08T09:35:12Z</time>
      </trkpt>
      <trkpt lat="47.32311" lon="6.83557">
        <ele>457</ele>
        <time>2024-05-08T09:35:23Z</time>
      </trkpt>
      <trkpt lat="47.32311" lon="6.83557">
        <ele>457</ele>
        <time>2024-05-08T09:35:33Z</time>
      </trkpt>
      <trkpt lat="47.32311" lon="6.83557">
        <ele>457</ele>
        <time>2024-05-08T09:35:44Z</time>
      </trkpt>
      <trkpt lat="47.32311" lon="6.83557">
        <ele>457</ele>
        <time>2024-05-08T09:35:54Z</time>
      </trkpt>
      <trkpt lat="47.32312" lon="6.83558">
        <ele>457.1</ele>
        <time>2024-05-08T09:36:05Z</time>
      </trkpt>
      <trkpt lat="47.32312" lon="6.83558">
        <ele>457.1</ele>
        <time>2024-05-08T09:36:16Z</time>
      </trkpt>
      <trkpt lat="47.32311" lon="6.83558">
        <ele>457.1</ele>
        <time>2024-05-08T09:36:26Z</time>
      </trkpt>
      <trkpt lat="47.32311" lon="6.83558">
        <ele>457.1</ele>
        <time>2024-05-08T09:36:36Z</time>
      </trkpt>
      <trkpt lat="47.32311" lon="6.83558">
        <ele>457.1</ele>
        <time>2024-05-08T09:36:47Z</time>
      </trkpt>
      <trkpt lat="47.32311" lon="6.83558">
        <ele>457.1</ele>
        <time>2024-05-08T09:36:57Z</time>
      </trkpt>
      <trkpt lat="47.32311" lon="6.83558">
        <ele>457.1</ele>
        <time>2024-05-08T09:37:08Z</time>
      </trkpt>
      <trkpt lat="47.32311" lon="6.83558">
        <ele>457.1</ele>
        <time>2024-05-08T09:37:19Z</time>
      </trkpt>
      <trkpt lat="47.32311" lon="6.83558">
        <ele>457.1</ele>
        <time>2024-05-08T09:37:29Z</time>
      </trkpt>
      <trkpt lat="47.32309" lon="6.83557">
        <ele>457.2</ele>
        <time>2024-05-08T09:37:40Z</time>
      </trkpt>
      <trkpt lat="47.32309" lon="6.83557">
        <ele>457.2</ele>
        <time>2024-05-08T09:37:51Z</time>
      </trkpt>
      <trkpt lat="47.32309" lon="6.83557">
        <ele>457.2</ele>
        <time>2024-05-08T09:38:01Z</time>
      </trkpt>
      <trkpt lat="47.32309" lon="6.83557">
        <ele>457.2</ele>
        <time>2024-05-08T09:38:11Z</time>
      </trkpt>
      <trkpt lat="47.32309" lon="6.83557">
        <ele>457.2</ele>
        <time>2024-05-08T09:38:21Z</time>
      </trkpt>
      <trkpt lat="47.32309" lon="6.83558">
        <ele>457.2</ele>
        <time>2024-05-08T09:38:32Z</time>
      </trkpt>
      <trkpt lat="47.32309" lon="6.83558">
        <ele>457.2</ele>
        <time>2024-05-08T09:38:42Z</time>
      </trkpt>
      <trkpt lat="47.32297" lon="6.83573">
        <ele>457.9</ele>
        <time>2024-05-08T09:38:53Z</time>
      </trkpt>
      <trkpt lat="47.32275" lon="6.83605">
        <ele>459.1</ele>
        <time>2024-05-08T09:39:04Z</time>
      </trkpt>
      <trkpt lat="47.32264" lon="6.83643">
        <ele>460.1</ele>
        <time>2024-05-08T09:39:14Z</time>
      </trkpt>
      <trkpt lat="47.32262" lon="6.83691">
        <ele>461.6</ele>
        <time>2024-05-08T09:39:25Z</time>
      </trkpt>
      <trkpt lat="47.32267" lon="6.83737">
        <ele>463.1</ele>
        <time>2024-05-08T09:39:36Z</time>
      </trkpt>
      <trkpt lat="47.32272" lon="6.83774">
        <ele>464.6</ele>
        <time>2024-05-08T09:39:46Z</time>
      </trkpt>
      <trkpt lat="47.32278" lon="6.83818">
        <ele>466.6</ele>
        <time>2024-05-08T09:39:56Z</time>
      </trkpt>
      <trkpt lat="47.32282" lon="6.8386">
        <ele>468.5</ele>
        <time>2024-05-08T09:40:06Z</time>
      </trkpt>
      <trkpt lat="47.32275" lon="6.83901">
        <ele>470.2</ele>
        <time>2024-05-08T09:40:16Z</time>
      </trkpt>
      <trkpt lat="47.3226" lon="6.8393">
        <ele>471.9</ele>
        <time>2024-05-08T09:40:26Z</time>
      </trkpt>
      <trkpt lat="47.32251" lon="6.83952">
        <ele>473.2</ele>
        <time>2024-05-08T09:40:36Z</time>
      </trkpt>
      <trkpt lat="47.3223" lon="6.83959">
        <ele>474.9</ele>
        <time>2024-05-08T09:40:47Z</time>
      </trkpt>
      <trkpt lat="47.32209" lon="6.83937">
        <ele>477</ele>
        <time>2024-05-08T09:40:57Z</time>
      </trkpt>
      <trkpt lat="47.32201" lon="6.83908">
        <ele>478.6</ele>
        <time>2024-05-08T09:41:07Z</time>
      </trkpt>
      <trkpt lat="47.32195" lon="6.83877">
        <ele>480.2</ele>
        <time>2024-05-08T09:41:18Z</time>
      </trkpt>
      <trkpt lat="47.32194" lon="6.83851">
        <ele>481.4</ele>
        <time>2024-05-08T09:41:29Z</time>
      </trkpt>
      <trkpt lat="47.32195" lon="6.83821">
        <ele>482.9</ele>
        <time>2024-05-08T09:41:40Z</time>
      </trkpt>
      <trkpt lat="47.32198" lon="6.83795">
        <ele>484.3</ele>
        <time>2024-05-08T09:41:51Z</time>
      </trkpt>
      <trkpt lat="47.32204" lon="6.83771">
        <ele>485.7</ele>
        <time>2024-05-08T09:42:01Z</time>
      </trkpt>
      <trkpt lat="47.32215" lon="6.83745">
        <ele>487.3</ele>
        <time>2024-05-08T09:42:11Z</time>
      </trkpt>
      <trkpt lat="47.32218" lon="6.83716">
        <ele>488.9</ele>
        <time>2024-05-08T09:42:21Z</time>
      </trkpt>
      <trkpt lat="47.32218" lon="6.8368">
        <ele>490.8</ele>
        <time>2024-05-08T09:42:32Z</time>
      </trkpt>
      <trkpt lat="47.32208" lon="6.83648">
        <ele>492.6</ele>
        <time>2024-05-08T09:42:43Z</time>
      </trkpt>
      <trkpt lat="47.32194" lon="6.83618">
        <ele>494.4</ele>
        <time>2024-05-08T09:42:53Z</time>
      </trkpt>
      <trkpt lat="47.3218" lon="6.83586">
        <ele>496.3</ele>
        <time>2024-05-08T09:43:03Z</time>
      </trkpt>
      <trkpt lat="47.32167" lon="6.83554">
        <ele>498</ele>
        <time>2024-05-08T09:43:14Z</time>
      </trkpt>
      <trkpt lat="47.3215" lon="6.83526">
        <ele>500</ele>
        <time>2024-05-08T09:43:25Z</time>
      </trkpt>
      <trkpt lat="47.32136" lon="6.835">
        <ele>501.8</ele>
        <time>2024-05-08T09:43:36Z</time>
      </trkpt>
      <trkpt lat="47.32127" lon="6.83484">
        <ele>503</ele>
        <time>2024-05-08T09:43:46Z</time>
      </trkpt>
      <trkpt lat="47.32118" lon="6.83465">
        <ele>504.2</ele>
        <time>2024-05-08T09:43:56Z</time>
      </trkpt>
      <trkpt lat="47.32113" lon="6.83437">
        <ele>505.7</ele>
        <time>2024-05-08T09:44:07Z</time>
      </trkpt>
      <trkpt lat="47.32108" lon="6.83407">
        <ele>507.3</ele>
        <time>2024-05-08T09:44:17Z</time>
      </trkpt>
      <trkpt lat="47.32102" lon="6.8338">
        <ele>508.7</ele>
        <time>2024-05-08T09:44:28Z</time>
      </trkpt>
      <trkpt lat="47.32096" lon="6.83355">
        <ele>510</ele>
        <time>2024-05-08T09:44:38Z</time>
      </trkpt>
      <trkpt lat="47.32085" lon="6.8333">
        <ele>511.4</ele>
        <time>2024-05-08T09:44:49Z</time>
      </trkpt>
      <trkpt lat="47.32076" lon="6.83303">
        <ele>512.8</ele>
        <time>2024-05-08T09:44:59Z</time>
      </trkpt>
      <trkpt lat="47.32069" lon="6.83277">
        <ele>514.1</ele>
        <time>2024-05-08T09:45:09Z</time>
      </trkpt>
      <trkpt lat="47.32064" lon="6.8325">
        <ele>515.5</ele>
        <time>2024-05-08T09:45:19Z</time>
      </trkpt>
      <trkpt lat="47.32054" lon="6.8322">
        <ele>517.2</ele>
        <time>2024-05-08T09:45:30Z</time>
      </trkpt>
      <trkpt lat="47.32045" lon="6.83191">
        <ele>519</ele>
        <time>2024-05-08T09:45:41Z</time>
      </trkpt>
      <trkpt lat="47.32039" lon="6.83163">
        <ele>520.6</ele>
        <time>2024-05-08T09:45:52Z</time>
      </trkpt>
      <trkpt lat="47.32035" lon="6.83138">
        <ele>521.9</ele>
        <time>2024-05-08T09:46:02Z</time>
      </trkpt>
      <trkpt lat="47.32029" lon="6.83106">
        <ele>523.5</ele>
        <time>2024-05-08T09:46:13Z</time>
      </trkpt>
      <trkpt lat="47.32022" lon="6.83077">
        <ele>525.1</ele>
        <time>2024-05-08T09:46:24Z</time>
      </trkpt>
      <trkpt lat="47.3201" lon="6.83045">
        <ele>526.9</ele>
        <time>2024-05-08T09:46:35Z</time>
      </trkpt>
      <trkpt lat="47.32002" lon="6.8302">
        <ele>528.2</ele>
        <time>2024-05-08T09:46:45Z</time>
      </trkpt>
      <trkpt lat="47.31995" lon="6.82993">
        <ele>529.7</ele>
        <time>2024-05-08T09:46:56Z</time>
      </trkpt>
      <trkpt lat="47.3199" lon="6.82965">
        <ele>531.1</ele>
        <time>2024-05-08T09:47:06Z</time>
      </trkpt>
      <trkpt lat="47.31984" lon="6.82936">
        <ele>532.5</ele>
        <time>2024-05-08T09:47:17Z</time>
      </trkpt>
      <trkpt lat="47.31979" lon="6.82909">
        <ele>533.8</ele>
        <time>2024-05-08T09:47:27Z</time>
      </trkpt>
      <trkpt lat="47.31971" lon="6.8288">
        <ele>535.4</ele>
        <time>2024-05-08T09:47:38Z</time>
      </trkpt>
      <trkpt lat="47.31963" lon="6.82853">
        <ele>537</ele>
        <time>2024-05-08T09:47:48Z</time>
      </trkpt>
      <trkpt lat="47.31955" lon="6.8283">
        <ele>538.3</ele>
        <time>2024-05-08T09:47:59Z</time>
      </trkpt>
      <trkpt lat="47.31945" lon="6.82808">
        <ele>539.7</ele>
        <time>2024-05-08T09:48:09Z</time>
      </trkpt>
      <trkpt lat="47.31938" lon="6.82785">
        <ele>541</ele>
        <time>2024-05-08T09:48:19Z</time>
      </trkpt>
      <trkpt lat="47.31929" lon="6.82761">
        <ele>542.5</ele>
        <time>2024-05-08T09:48:30Z</time>
      </trkpt>
      <trkpt lat="47.31921" lon="6.82738">
        <ele>543.8</ele>
        <time>2024-05-08T09:48:40Z</time>
      </trkpt>
      <trkpt lat="47.31903" lon="6.82717">
        <ele>545.5</ele>
        <time>2024-05-08T09:48:51Z</time>
      </trkpt>
      <trkpt lat="47.31886" lon="6.82696">
        <ele>547.2</ele>
        <time>2024-05-08T09:49:02Z</time>
      </trkpt>
      <trkpt lat="47.31872" lon="6.82679">
        <ele>548.6</ele>
        <time>2024-05-08T09:49:12Z</time>
      </trkpt>
      <trkpt lat="47.31863" lon="6.82659">
        <ele>549.9</ele>
        <time>2024-05-08T09:49:23Z</time>
      </trkpt>
      <trkpt lat="47.31854" lon="6.82635">
        <ele>551.4</ele>
        <time>2024-05-08T09:49:33Z</time>
      </trkpt>
      <trkpt lat="47.31839" lon="6.8261">
        <ele>553.2</ele>
        <time>2024-05-08T09:49:44Z</time>
      </trkpt>
      <trkpt lat="47.31821" lon="6.82589">
        <ele>555.1</ele>
        <time>2024-05-08T09:49:55Z</time>
      </trkpt>
      <trkpt lat="47.31806" lon="6.82574">
        <ele>556.6</ele>
        <time>2024-05-08T09:50:05Z</time>
      </trkpt>
      <trkpt lat="47.31792" lon="6.82559">
        <ele>558.1</ele>
        <time>2024-05-08T09:50:15Z</time>
      </trkpt>
      <trkpt lat="47.31778" lon="6.82544">
        <ele>559.6</ele>
        <time>2024-05-08T09:50:26Z</time>
      </trkpt>
      <trkpt lat="47.31767" lon="6.82525">
        <ele>561</ele>
        <time>2024-05-08T09:50:37Z</time>
      </trkpt>
      <trkpt lat="47.31757" lon="6.825">
        <ele>562.7</ele>
        <time>2024-05-08T09:50:48Z</time>
      </trkpt>
      <trkpt lat="47.31752" lon="6.8247">
        <ele>564.4</ele>
        <time>2024-05-08T09:50:59Z</time>
      </trkpt>
      <trkpt lat="47.3175" lon="6.8244">
        <ele>565.9</ele>
        <time>2024-05-08T09:51:09Z</time>
      </trkpt>
      <trkpt lat="47.31749" lon="6.8241">
        <ele>567.5</ele>
        <time>2024-05-08T09:51:20Z</time>
      </trkpt>
      <trkpt lat="47.31741" lon="6.8238">
        <ele>569.2</ele>
        <time>2024-05-08T09:51:31Z</time>
      </trkpt>
      <trkpt lat="47.31731" lon="6.82356">
        <ele>570.8</ele>
        <time>2024-05-08T09:51:41Z</time>
      </trkpt>
      <trkpt lat="47.31714" lon="6.82338">
        <ele>572.6</ele>
        <time>2024-05-08T09:51:51Z</time>
      </trkpt>
      <trkpt lat="47.31695" lon="6.82335">
        <ele>573.9</ele>
        <time>2024-05-08T09:52:01Z</time>
      </trkpt>
      <trkpt lat="47.31678" lon="6.82348">
        <ele>575.2</ele>
        <time>2024-05-08T09:52:12Z</time>
      </trkpt>
      <trkpt lat="47.31669" lon="6.82375">
        <ele>576.9</ele>
        <time>2024-05-08T09:52:23Z</time>
      </trkpt>
      <trkpt lat="47.31668" lon="6.82379">
        <ele>577.1</ele>
        <time>2024-05-08T09:52:33Z</time>
      </trkpt>
      <trkpt lat="47.31673" lon="6.82354">
        <ele>576.7</ele>
        <time>2024-05-08T09:52:44Z</time>
      </trkpt>
      <trkpt lat="47.31704" lon="6.82332">
        <ele>573.8</ele>
        <time>2024-05-08T09:52:55Z</time>
      </trkpt>
      <trkpt lat="47.31718" lon="6.82322">
        <ele>573.2</ele>
        <time>2024-05-08T09:53:06Z</time>
      </trkpt>
      <trkpt lat="47.31722" lon="6.82316">
        <ele>573.4</ele>
        <time>2024-05-08T09:53:17Z</time>
      </trkpt>
      <trkpt lat="47.31722" lon="6.82313">
        <ele>573.5</ele>
        <time>2024-05-08T09:53:28Z</time>
      </trkpt>
      <trkpt lat="47.31722" lon="6.82307">
        <ele>573.6</ele>
        <time>2024-05-08T09:53:38Z</time>
      </trkpt>
      <trkpt lat="47.31722" lon="6.82307">
        <ele>573.6</ele>
        <time>2024-05-08T09:53:49Z</time>
      </trkpt>
      <trkpt lat="47.31722" lon="6.82307">
        <ele>573.6</ele>
        <time>2024-05-08T09:54:00Z</time>
      </trkpt>
      <trkpt lat="47.3172" lon="6.82304">
        <ele>573.7</ele>
        <time>2024-05-08T09:54:10Z</time>
      </trkpt>
      <trkpt lat="47.31721" lon="6.82305">
        <ele>573.8</ele>
        <time>2024-05-08T09:54:21Z</time>
      </trkpt>
      <trkpt lat="47.31721" lon="6.82304">
        <ele>573.8</ele>
        <time>2024-05-08T09:54:32Z</time>
      </trkpt>
      <trkpt lat="47.31722" lon="6.82301">
        <ele>573.9</ele>
        <time>2024-05-08T09:54:44Z</time>
      </trkpt>
      <trkpt lat="47.31719" lon="6.82304">
        <ele>574</ele>
        <time>2024-05-08T09:54:54Z</time>
      </trkpt>
      <trkpt lat="47.31719" lon="6.82304">
        <ele>574</ele>
        <time>2024-05-08T09:55:05Z</time>
      </trkpt>
      <trkpt lat="47.31719" lon="6.82304">
        <ele>574</ele>
        <time>2024-05-08T09:55:16Z</time>
      </trkpt>
      <trkpt lat="47.31719" lon="6.82304">
        <ele>574</ele>
        <time>2024-05-08T09:55:27Z</time>
      </trkpt>
      <trkpt lat="47.31719" lon="6.82304">
        <ele>574</ele>
        <time>2024-05-08T09:55:38Z</time>
      </trkpt>
      <trkpt lat="47.31719" lon="6.82304">
        <ele>574</ele>
        <time>2024-05-08T09:55:48Z</time>
      </trkpt>
      <trkpt lat="47.31719" lon="6.82304">
        <ele>574</ele>
        <time>2024-05-08T09:55:59Z</time>
      </trkpt>
      <trkpt lat="47.31719" lon="6.82304">
        <ele>574</ele>
        <time>2024-05-08T09:56:10Z</time>
      </trkpt>
      <trkpt lat="47.31719" lon="6.82304">
        <ele>574</ele>
        <time>2024-05-08T09:56:20Z</time>
      </trkpt>
      <trkpt lat="47.31719" lon="6.82304">
        <ele>574</ele>
        <time>2024-05-08T09:56:31Z</time>
      </trkpt>
      <trkpt lat="47.31719" lon="6.82304">
        <ele>574</ele>
        <time>2024-05-08T09:56:41Z</time>
      </trkpt>
      <trkpt lat="47.31719" lon="6.82305">
        <ele>574</ele>
        <time>2024-05-08T09:56:51Z</time>
      </trkpt>
      <trkpt lat="47.31719" lon="6.82305">
        <ele>574</ele>
        <time>2024-05-08T09:57:01Z</time>
      </trkpt>
      <trkpt lat="47.31719" lon="6.82305">
        <ele>574</ele>
        <time>2024-05-08T09:57:12Z</time>
      </trkpt>
      <trkpt lat="47.31721" lon="6.82312">
        <ele>574.2</ele>
        <time>2024-05-08T09:57:22Z</time>
      </trkpt>
      <trkpt lat="47.31718" lon="6.82319">
        <ele>574.4</ele>
        <time>2024-05-08T09:57:33Z</time>
      </trkpt>
      <trkpt lat="47.31716" lon="6.82323">
        <ele>574.6</ele>
        <time>2024-05-08T09:57:44Z</time>
      </trkpt>
      <trkpt lat="47.317" lon="6.82331">
        <ele>575.3</ele>
        <time>2024-05-08T09:57:55Z</time>
      </trkpt>
      <trkpt lat="47.31685" lon="6.82336">
        <ele>575.9</ele>
        <time>2024-05-08T09:58:05Z</time>
      </trkpt>
      <trkpt lat="47.31674" lon="6.82354">
        <ele>576.7</ele>
        <time>2024-05-08T09:58:16Z</time>
      </trkpt>
      <trkpt lat="47.3167" lon="6.82382">
        <ele>578.6</ele>
        <time>2024-05-08T09:58:27Z</time>
      </trkpt>
      <trkpt lat="47.31679" lon="6.82404">
        <ele>580.3</ele>
        <time>2024-05-08T09:58:37Z</time>
      </trkpt>
      <trkpt lat="47.31688" lon="6.82417">
        <ele>581.3</ele>
        <time>2024-05-08T09:58:48Z</time>
      </trkpt>
      <trkpt lat="47.31702" lon="6.82438">
        <ele>582.7</ele>
        <time>2024-05-08T09:58:59Z</time>
      </trkpt>
      <trkpt lat="47.31705" lon="6.82463">
        <ele>583.7</ele>
        <time>2024-05-08T09:59:09Z</time>
      </trkpt>
      <trkpt lat="47.31704" lon="6.82488">
        <ele>584.4</ele>
        <time>2024-05-08T09:59:19Z</time>
      </trkpt>
      <trkpt lat="47.31706" lon="6.82518">
        <ele>585.4</ele>
        <time>2024-05-08T09:59:29Z</time>
      </trkpt>
      <trkpt lat="47.31708" lon="6.82552">
        <ele>586.8</ele>
        <time>2024-05-08T09:59:40Z</time>
      </trkpt>
      <trkpt lat="47.31718" lon="6.82576">
        <ele>588.2</ele>
        <time>2024-05-08T09:59:50Z</time>
      </trkpt>
      <trkpt lat="47.31733" lon="6.826">
        <ele>589.7</ele>
        <time>2024-05-08T10:00:01Z</time>
      </trkpt>
      <trkpt lat="47.3175" lon="6.82624">
        <ele>591.3</ele>
        <time>2024-05-08T10:00:11Z</time>
      </trkpt>
      <trkpt lat="47.31765" lon="6.82652">
        <ele>593</ele>
        <time>2024-05-08T10:00:22Z</time>
      </trkpt>
      <trkpt lat="47.31774" lon="6.82682">
        <ele>594.4</ele>
        <time>2024-05-08T10:00:33Z</time>
      </trkpt>
      <trkpt lat="47.3178" lon="6.82709">
        <ele>595.7</ele>
        <time>2024-05-08T10:00:43Z</time>
      </trkpt>
      <trkpt lat="47.31786" lon="6.82738">
        <ele>597</ele>
        <time>2024-05-08T10:00:54Z</time>
      </trkpt>
      <trkpt lat="47.31796" lon="6.82766">
        <ele>598.5</ele>
        <time>2024-05-08T10:01:05Z</time>
      </trkpt>
      <trkpt lat="47.31806" lon="6.82796">
        <ele>599.9</ele>
        <time>2024-05-08T10:01:16Z</time>
      </trkpt>
      <trkpt lat="47.31816" lon="6.82823">
        <ele>601.3</ele>
        <time>2024-05-08T10:01:26Z</time>
      </trkpt>
      <trkpt lat="47.31827" lon="6.82848">
        <ele>602.7</ele>
        <time>2024-05-08T10:01:37Z</time>
      </trkpt>
      <trkpt lat="47.31826" lon="6.82874">
        <ele>603.8</ele>
        <time>2024-05-08T10:01:47Z</time>
      </trkpt>
      <trkpt lat="47.31832" lon="6.82903">
        <ele>605.1</ele>
        <time>2024-05-08T10:01:57Z</time>
      </trkpt>
      <trkpt lat="47.31837" lon="6.82932">
        <ele>606.6</ele>
        <time>2024-05-08T10:02:08Z</time>
      </trkpt>
      <trkpt lat="47.31841" lon="6.82964">
        <ele>608.1</ele>
        <time>2024-05-08T10:02:19Z</time>
      </trkpt>
      <trkpt lat="47.31842" lon="6.82993">
        <ele>609.4</ele>
        <time>2024-05-08T10:02:30Z</time>
      </trkpt>
      <trkpt lat="47.3184" lon="6.8302">
        <ele>610.5</ele>
        <time>2024-05-08T10:02:40Z</time>
      </trkpt>
      <trkpt lat="47.31844" lon="6.83049">
        <ele>611.8</ele>
        <time>2024-05-08T10:02:50Z</time>
      </trkpt>
      <trkpt lat="47.31853" lon="6.83075">
        <ele>613.1</ele>
        <time>2024-05-08T10:03:00Z</time>
      </trkpt>
      <trkpt lat="47.31859" lon="6.83106">
        <ele>614.5</ele>
        <time>2024-05-08T10:03:11Z</time>
      </trkpt>
      <trkpt lat="47.31865" lon="6.83132">
        <ele>615.7</ele>
        <time>2024-05-08T10:03:21Z</time>
      </trkpt>
      <trkpt lat="47.3187" lon="6.83161">
        <ele>617.1</ele>
        <time>2024-05-08T10:03:32Z</time>
      </trkpt>
      <trkpt lat="47.31873" lon="6.83188">
        <ele>618.3</ele>
        <time>2024-05-08T10:03:42Z</time>
      </trkpt>
      <trkpt lat="47.31874" lon="6.83221">
        <ele>619.7</ele>
        <time>2024-05-08T10:03:53Z</time>
      </trkpt>
      <trkpt lat="47.31876" lon="6.83252">
        <ele>621.1</ele>
        <time>2024-05-08T10:04:04Z</time>
      </trkpt>
      <trkpt lat="47.3188" lon="6.83282">
        <ele>622.6</ele>
        <time>2024-05-08T10:04:15Z</time>
      </trkpt>
      <trkpt lat="47.31882" lon="6.83309">
        <ele>623.8</ele>
        <time>2024-05-08T10:04:25Z</time>
      </trkpt>
      <trkpt lat="47.31884" lon="6.8334">
        <ele>625.2</ele>
        <time>2024-05-08T10:04:36Z</time>
      </trkpt>
      <trkpt lat="47.31887" lon="6.83367">
        <ele>626.4</ele>
        <time>2024-05-08T10:04:46Z</time>
      </trkpt>
      <trkpt lat="47.31891" lon="6.83397">
        <ele>627.8</ele>
        <time>2024-05-08T10:04:57Z</time>
      </trkpt>
      <trkpt lat="47.31894" lon="6.83427">
        <ele>629.1</ele>
        <time>2024-05-08T10:05:08Z</time>
      </trkpt>
      <trkpt lat="47.31896" lon="6.83458">
        <ele>630.5</ele>
        <time>2024-05-08T10:05:19Z</time>
      </trkpt>
      <trkpt lat="47.31898" lon="6.8349">
        <ele>632</ele>
        <time>2024-05-08T10:05:30Z</time>
      </trkpt>
      <trkpt lat="47.31902" lon="6.83517">
        <ele>633.3</ele>
        <time>2024-05-08T10:05:40Z</time>
      </trkpt>
      <trkpt lat="47.31905" lon="6.83547">
        <ele>634.8</ele>
        <time>2024-05-08T10:05:51Z</time>
      </trkpt>
      <trkpt lat="47.31906" lon="6.83577">
        <ele>636.1</ele>
        <time>2024-05-08T10:06:02Z</time>
      </trkpt>
      <trkpt lat="47.31909" lon="6.83603">
        <ele>637.2</ele>
        <time>2024-05-08T10:06:12Z</time>
      </trkpt>
      <trkpt lat="47.31915" lon="6.8363">
        <ele>638.5</ele>
        <time>2024-05-08T10:06:22Z</time>
      </trkpt>
      <trkpt lat="47.31921" lon="6.83656">
        <ele>639.8</ele>
        <time>2024-05-08T10:06:32Z</time>
      </trkpt>
      <trkpt lat="47.31927" lon="6.83685">
        <ele>641.2</ele>
        <time>2024-05-08T10:06:43Z</time>
      </trkpt>
      <trkpt lat="47.31931" lon="6.83712">
        <ele>642.4</ele>
        <time>2024-05-08T10:06:53Z</time>
      </trkpt>
      <trkpt lat="47.31933" lon="6.83741">
        <ele>643.7</ele>
        <time>2024-05-08T10:07:04Z</time>
      </trkpt>
      <trkpt lat="47.31932" lon="6.83769">
        <ele>644.9</ele>
        <time>2024-05-08T10:07:14Z</time>
      </trkpt>
      <trkpt lat="47.31931" lon="6.838">
        <ele>646.3</ele>
        <time>2024-05-08T10:07:25Z</time>
      </trkpt>
      <trkpt lat="47.31927" lon="6.83825">
        <ele>647.5</ele>
        <time>2024-05-08T10:07:35Z</time>
      </trkpt>
      <trkpt lat="47.31923" lon="6.83856">
        <ele>649</ele>
        <time>2024-05-08T10:07:46Z</time>
      </trkpt>
      <trkpt lat="47.3192" lon="6.83887">
        <ele>650.4</ele>
        <time>2024-05-08T10:07:57Z</time>
      </trkpt>
      <trkpt lat="47.31921" lon="6.83917">
        <ele>651.7</ele>
        <time>2024-05-08T10:08:08Z</time>
      </trkpt>
      <trkpt lat="47.3192" lon="6.83944">
        <ele>652.8</ele>
        <time>2024-05-08T10:08:18Z</time>
      </trkpt>
      <trkpt lat="47.31918" lon="6.83971">
        <ele>654</ele>
        <time>2024-05-08T10:08:29Z</time>
      </trkpt>
      <trkpt lat="47.31917" lon="6.83998">
        <ele>655.4</ele>
        <time>2024-05-08T10:08:39Z</time>
      </trkpt>
      <trkpt lat="47.3191" lon="6.84025">
        <ele>656.8</ele>
        <time>2024-05-08T10:08:50Z</time>
      </trkpt>
      <trkpt lat="47.31905" lon="6.84053">
        <ele>658.2</ele>
        <time>2024-05-08T10:09:00Z</time>
      </trkpt>
      <trkpt lat="47.31908" lon="6.84084">
        <ele>659.5</ele>
        <time>2024-05-08T10:09:11Z</time>
      </trkpt>
      <trkpt lat="47.3191" lon="6.84118">
        <ele>660.6</ele>
        <time>2024-05-08T10:09:22Z</time>
      </trkpt>
      <trkpt lat="47.319" lon="6.84149">
        <ele>661.6</ele>
        <time>2024-05-08T10:09:32Z</time>
      </trkpt>
      <trkpt lat="47.31894" lon="6.84179">
        <ele>662.3</ele>
        <time>2024-05-08T10:09:42Z</time>
      </trkpt>
      <trkpt lat="47.31889" lon="6.84211">
        <ele>663.1</ele>
        <time>2024-05-08T10:09:53Z</time>
      </trkpt>
      <trkpt lat="47.31875" lon="6.84232">
        <ele>663.9</ele>
        <time>2024-05-08T10:10:03Z</time>
      </trkpt>
      <trkpt lat="47.31858" lon="6.8423">
        <ele>664.7</ele>
        <time>2024-05-08T10:10:14Z</time>
      </trkpt>
      <trkpt lat="47.31842" lon="6.84209">
        <ele>665.8</ele>
        <time>2024-05-08T10:10:24Z</time>
      </trkpt>
      <trkpt lat="47.31841" lon="6.84179">
        <ele>667.1</ele>
        <time>2024-05-08T10:10:34Z</time>
      </trkpt>
      <trkpt lat="47.31841" lon="6.84151">
        <ele>668.4</ele>
        <time>2024-05-08T10:10:44Z</time>
      </trkpt>
      <trkpt lat="47.31836" lon="6.84124">
        <ele>670</ele>
        <time>2024-05-08T10:10:55Z</time>
      </trkpt>
      <trkpt lat="47.31831" lon="6.84101">
        <ele>671.5</ele>
        <time>2024-05-08T10:11:05Z</time>
      </trkpt>
      <trkpt lat="47.31824" lon="6.84077">
        <ele>673</ele>
        <time>2024-05-08T10:11:16Z</time>
      </trkpt>
      <trkpt lat="47.31817" lon="6.8405">
        <ele>674.5</ele>
        <time>2024-05-08T10:11:27Z</time>
      </trkpt>
      <trkpt lat="47.31809" lon="6.84024">
        <ele>676</ele>
        <time>2024-05-08T10:11:38Z</time>
      </trkpt>
      <trkpt lat="47.31804" lon="6.83999">
        <ele>677.2</ele>
        <time>2024-05-08T10:11:48Z</time>
      </trkpt>
      <trkpt lat="47.31794" lon="6.83971">
        <ele>678.7</ele>
        <time>2024-05-08T10:11:59Z</time>
      </trkpt>
      <trkpt lat="47.31786" lon="6.83946">
        <ele>680</ele>
        <time>2024-05-08T10:12:09Z</time>
      </trkpt>
      <trkpt lat="47.3178" lon="6.83921">
        <ele>681.3</ele>
        <time>2024-05-08T10:12:19Z</time>
      </trkpt>
      <trkpt lat="47.31772" lon="6.83896">
        <ele>682.7</ele>
        <time>2024-05-08T10:12:30Z</time>
      </trkpt>
      <trkpt lat="47.31766" lon="6.8387">
        <ele>683.9</ele>
        <time>2024-05-08T10:12:41Z</time>
      </trkpt>
      <trkpt lat="47.31755" lon="6.83844">
        <ele>685.4</ele>
        <time>2024-05-08T10:12:51Z</time>
      </trkpt>
      <trkpt lat="47.31747" lon="6.83819">
        <ele>686.8</ele>
        <time>2024-05-08T10:13:01Z</time>
      </trkpt>
      <trkpt lat="47.31739" lon="6.83794">
        <ele>688.2</ele>
        <time>2024-05-08T10:13:12Z</time>
      </trkpt>
      <trkpt lat="47.31733" lon="6.83767">
        <ele>689.5</ele>
        <time>2024-05-08T10:13:22Z</time>
      </trkpt>
      <trkpt lat="47.31729" lon="6.8374">
        <ele>690.8</ele>
        <time>2024-05-08T10:13:32Z</time>
      </trkpt>
      <trkpt lat="47.31725" lon="6.83709">
        <ele>692.4</ele>
        <time>2024-05-08T10:13:44Z</time>
      </trkpt>
      <trkpt lat="47.3172" lon="6.83683">
        <ele>693.7</ele>
        <time>2024-05-08T10:13:54Z</time>
      </trkpt>
      <trkpt lat="47.31711" lon="6.83661">
        <ele>695</ele>
        <time>2024-05-08T10:14:04Z</time>
      </trkpt>
      <trkpt lat="47.31702" lon="6.83638">
        <ele>696.3</ele>
        <time>2024-05-08T10:14:14Z</time>
      </trkpt>
      <trkpt lat="47.31688" lon="6.83617">
        <ele>697.7</ele>
        <time>2024-05-08T10:14:25Z</time>
      </trkpt>
      <trkpt lat="47.31671" lon="6.83603">
        <ele>699</ele>
        <time>2024-05-08T10:14:36Z</time>
      </trkpt>
      <trkpt lat="47.31652" lon="6.83595">
        <ele>700.1</ele>
        <time>2024-05-08T10:14:47Z</time>
      </trkpt>
      <trkpt lat="47.31631" lon="6.8359">
        <ele>701.1</ele>
        <time>2024-05-08T10:14:57Z</time>
      </trkpt>
      <trkpt lat="47.31611" lon="6.8359">
        <ele>702.2</ele>
        <time>2024-05-08T10:15:07Z</time>
      </trkpt>
      <trkpt lat="47.31591" lon="6.83587">
        <ele>703.2</ele>
        <time>2024-05-08T10:15:17Z</time>
      </trkpt>
      <trkpt lat="47.31565" lon="6.83583">
        <ele>704.1</ele>
        <time>2024-05-08T10:15:28Z</time>
      </trkpt>
      <trkpt lat="47.31537" lon="6.83581">
        <ele>704.8</ele>
        <time>2024-05-08T10:15:39Z</time>
      </trkpt>
      <trkpt lat="47.3151" lon="6.83579">
        <ele>705.6</ele>
        <time>2024-05-08T10:15:49Z</time>
      </trkpt>
      <trkpt lat="47.3148" lon="6.83574">
        <ele>706.6</ele>
        <time>2024-05-08T10:16:00Z</time>
      </trkpt>
      <trkpt lat="47.3145" lon="6.83571">
        <ele>707.6</ele>
        <time>2024-05-08T10:16:11Z</time>
      </trkpt>
      <trkpt lat="47.31422" lon="6.83567">
        <ele>708.7</ele>
        <time>2024-05-08T10:16:22Z</time>
      </trkpt>
      <trkpt lat="47.31399" lon="6.83559">
        <ele>709.9</ele>
        <time>2024-05-08T10:16:32Z</time>
      </trkpt>
      <trkpt lat="47.31376" lon="6.83551">
        <ele>711.2</ele>
        <time>2024-05-08T10:16:42Z</time>
      </trkpt>
      <trkpt lat="47.3135" lon="6.83541">
        <ele>712.7</ele>
        <time>2024-05-08T10:16:53Z</time>
      </trkpt>
      <trkpt lat="47.31328" lon="6.83534">
        <ele>714</ele>
        <time>2024-05-08T10:17:03Z</time>
      </trkpt>
      <trkpt lat="47.31307" lon="6.83527">
        <ele>715.4</ele>
        <time>2024-05-08T10:17:13Z</time>
      </trkpt>
      <trkpt lat="47.31286" lon="6.83526">
        <ele>716.8</ele>
        <time>2024-05-08T10:17:23Z</time>
      </trkpt>
      <trkpt lat="47.31263" lon="6.83529">
        <ele>718.3</ele>
        <time>2024-05-08T10:17:34Z</time>
      </trkpt>
      <trkpt lat="47.3124" lon="6.83539">
        <ele>720</ele>
        <time>2024-05-08T10:17:45Z</time>
      </trkpt>
      <trkpt lat="47.31219" lon="6.83542">
        <ele>721.4</ele>
        <time>2024-05-08T10:17:56Z</time>
      </trkpt>
      <trkpt lat="47.31194" lon="6.83531">
        <ele>723.1</ele>
        <time>2024-05-08T10:18:07Z</time>
      </trkpt>
      <trkpt lat="47.31172" lon="6.83514">
        <ele>724.7</ele>
        <time>2024-05-08T10:18:17Z</time>
      </trkpt>
      <trkpt lat="47.31147" lon="6.83499">
        <ele>726.4</ele>
        <time>2024-05-08T10:18:28Z</time>
      </trkpt>
      <trkpt lat="47.31123" lon="6.83491">
        <ele>727.8</ele>
        <time>2024-05-08T10:18:38Z</time>
      </trkpt>
      <trkpt lat="47.31098" lon="6.83483">
        <ele>729.3</ele>
        <time>2024-05-08T10:18:49Z</time>
      </trkpt>
      <trkpt lat="47.31071" lon="6.83475">
        <ele>731</ele>
        <time>2024-05-08T10:19:00Z</time>
      </trkpt>
      <trkpt lat="47.31043" lon="6.83466">
        <ele>732.7</ele>
        <time>2024-05-08T10:19:11Z</time>
      </trkpt>
      <trkpt lat="47.31015" lon="6.83456">
        <ele>734.5</ele>
        <time>2024-05-08T10:19:22Z</time>
      </trkpt>
      <trkpt lat="47.30989" lon="6.83447">
        <ele>736</ele>
        <time>2024-05-08T10:19:33Z</time>
      </trkpt>
      <trkpt lat="47.30962" lon="6.83438">
        <ele>737.7</ele>
        <time>2024-05-08T10:19:44Z</time>
      </trkpt>
      <trkpt lat="47.30937" lon="6.83432">
        <ele>739.2</ele>
        <time>2024-05-08T10:19:54Z</time>
      </trkpt>
      <trkpt lat="47.30909" lon="6.83419">
        <ele>740.8</ele>
        <time>2024-05-08T10:20:05Z</time>
      </trkpt>
      <trkpt lat="47.30883" lon="6.83409">
        <ele>742.1</ele>
        <time>2024-05-08T10:20:15Z</time>
      </trkpt>
      <trkpt lat="47.30853" lon="6.83403">
        <ele>743.2</ele>
        <time>2024-05-08T10:20:26Z</time>
      </trkpt>
      <trkpt lat="47.30824" lon="6.83404">
        <ele>744.1</ele>
        <time>2024-05-08T10:20:37Z</time>
      </trkpt>
      <trkpt lat="47.30796" lon="6.83403">
        <ele>744.9</ele>
        <time>2024-05-08T10:20:48Z</time>
      </trkpt>
      <trkpt lat="47.30769" lon="6.83404">
        <ele>745.8</ele>
        <time>2024-05-08T10:20:58Z</time>
      </trkpt>
      <trkpt lat="47.30739" lon="6.83405">
        <ele>746.7</ele>
        <time>2024-05-08T10:21:08Z</time>
      </trkpt>
      <trkpt lat="47.30705" lon="6.83408">
        <ele>747.6</ele>
        <time>2024-05-08T10:21:19Z</time>
      </trkpt>
      <trkpt lat="47.30671" lon="6.83418">
        <ele>748.4</ele>
        <time>2024-05-08T10:21:30Z</time>
      </trkpt>
      <trkpt lat="47.30643" lon="6.83436">
        <ele>749.1</ele>
        <time>2024-05-08T10:21:42Z</time>
      </trkpt>
      <trkpt lat="47.30611" lon="6.83456">
        <ele>749.7</ele>
        <time>2024-05-08T10:21:52Z</time>
      </trkpt>
      <trkpt lat="47.3058" lon="6.83481">
        <ele>750.4</ele>
        <time>2024-05-08T10:22:03Z</time>
      </trkpt>
      <trkpt lat="47.30549" lon="6.83504">
        <ele>751.3</ele>
        <time>2024-05-08T10:22:13Z</time>
      </trkpt>
      <trkpt lat="47.30525" lon="6.83524">
        <ele>751.9</ele>
        <time>2024-05-08T10:22:23Z</time>
      </trkpt>
      <trkpt lat="47.30512" lon="6.83535">
        <ele>752</ele>
        <time>2024-05-08T10:22:34Z</time>
      </trkpt>
      <trkpt lat="47.30511" lon="6.83537">
        <ele>752</ele>
        <time>2024-05-08T10:22:45Z</time>
      </trkpt>
      <trkpt lat="47.30511" lon="6.83537">
        <ele>752</ele>
        <time>2024-05-08T10:22:56Z</time>
      </trkpt>
      <trkpt lat="47.30511" lon="6.83537">
        <ele>752</ele>
        <time>2024-05-08T10:23:06Z</time>
      </trkpt>
      <trkpt lat="47.30511" lon="6.83537">
        <ele>752</ele>
        <time>2024-05-08T10:23:17Z</time>
      </trkpt>
      <trkpt lat="47.30511" lon="6.83538">
        <ele>752</ele>
        <time>2024-05-08T10:23:27Z</time>
      </trkpt>
      <trkpt lat="47.30511" lon="6.83538">
        <ele>752</ele>
        <time>2024-05-08T10:23:37Z</time>
      </trkpt>
      <trkpt lat="47.30511" lon="6.83538">
        <ele>752</ele>
        <time>2024-05-08T10:23:47Z</time>
      </trkpt>
      <trkpt lat="47.30511" lon="6.83538">
        <ele>752</ele>
        <time>2024-05-08T10:23:58Z</time>
      </trkpt>
      <trkpt lat="47.30511" lon="6.83538">
        <ele>752</ele>
        <time>2024-05-08T10:24:08Z</time>
      </trkpt>
      <trkpt lat="47.30511" lon="6.83538">
        <ele>752</ele>
        <time>2024-05-08T10:24:18Z</time>
      </trkpt>
      <trkpt lat="47.30511" lon="6.83538">
        <ele>752</ele>
        <time>2024-05-08T10:24:28Z</time>
      </trkpt>
      <trkpt lat="47.30511" lon="6.83538">
        <ele>752</ele>
        <time>2024-05-08T10:24:39Z</time>
      </trkpt>
      <trkpt lat="47.30505" lon="6.83546">
        <ele>752</ele>
        <time>2024-05-08T10:24:49Z</time>
      </trkpt>
      <trkpt lat="47.30497" lon="6.83587">
        <ele>751.8</ele>
        <time>2024-05-08T10:25:00Z</time>
      </trkpt>
      <trkpt lat="47.30483" lon="6.8365">
        <ele>749.7</ele>
        <time>2024-05-08T10:25:10Z</time>
      </trkpt>
      <trkpt lat="47.30425" lon="6.83702">
        <ele>744.1</ele>
        <time>2024-05-08T10:25:21Z</time>
      </trkpt>
      <trkpt lat="47.30383" lon="6.83773">
        <ele>737.2</ele>
        <time>2024-05-08T10:25:32Z</time>
      </trkpt>
      <trkpt lat="47.30336" lon="6.83805">
        <ele>735.3</ele>
        <time>2024-05-08T10:25:43Z</time>
      </trkpt>
      <trkpt lat="47.30316" lon="6.83853">
        <ele>735.4</ele>
        <time>2024-05-08T10:25:53Z</time>
      </trkpt>
      <trkpt lat="47.30297" lon="6.839">
        <ele>736.1</ele>
        <time>2024-05-08T10:26:03Z</time>
      </trkpt>
      <trkpt lat="47.30289" lon="6.83939">
        <ele>737.1</ele>
        <time>2024-05-08T10:26:14Z</time>
      </trkpt>
      <trkpt lat="47.30278" lon="6.84009">
        <ele>735.4</ele>
        <time>2024-05-08T10:26:25Z</time>
      </trkpt>
      <trkpt lat="47.30257" lon="6.84108">
        <ele>731.7</ele>
        <time>2024-05-08T10:26:35Z</time>
      </trkpt>
      <trkpt lat="47.30222" lon="6.84225">
        <ele>729.4</ele>
        <time>2024-05-08T10:26:46Z</time>
      </trkpt>
      <trkpt lat="47.30201" lon="6.84298">
        <ele>729.8</ele>
        <time>2024-05-08T10:26:56Z</time>
      </trkpt>
      <trkpt lat="47.30181" lon="6.84365">
        <ele>730.4</ele>
        <time>2024-05-08T10:27:07Z</time>
      </trkpt>
      <trkpt lat="47.30164" lon="6.84424">
        <ele>731.5</ele>
        <time>2024-05-08T10:27:18Z</time>
      </trkpt>
      <trkpt lat="47.30151" lon="6.84476">
        <ele>732.6</ele>
        <time>2024-05-08T10:27:28Z</time>
      </trkpt>
      <trkpt lat="47.30139" lon="6.84532">
        <ele>734</ele>
        <time>2024-05-08T10:27:39Z</time>
      </trkpt>
      <trkpt lat="47.3013" lon="6.84583">
        <ele>735.4</ele>
        <time>2024-05-08T10:27:49Z</time>
      </trkpt>
      <trkpt lat="47.30118" lon="6.84634">
        <ele>736.9</ele>
        <time>2024-05-08T10:28:00Z</time>
      </trkpt>
      <trkpt lat="47.30104" lon="6.84678">
        <ele>738.9</ele>
        <time>2024-05-08T10:28:11Z</time>
      </trkpt>
      <trkpt lat="47.30093" lon="6.84708">
        <ele>740.8</ele>
        <time>2024-05-08T10:28:21Z</time>
      </trkpt>
      <trkpt lat="47.30078" lon="6.84745">
        <ele>743.4</ele>
        <time>2024-05-08T10:28:32Z</time>
      </trkpt>
      <trkpt lat="47.30065" lon="6.84781">
        <ele>745.9</ele>
        <time>2024-05-08T10:28:43Z</time>
      </trkpt>
      <trkpt lat="47.30046" lon="6.84805">
        <ele>747.8</ele>
        <time>2024-05-08T10:28:53Z</time>
      </trkpt>
      <trkpt lat="47.30021" lon="6.84831">
        <ele>748.9</ele>
        <time>2024-05-08T10:29:04Z</time>
      </trkpt>
      <trkpt lat="47.29983" lon="6.84845">
        <ele>749.1</ele>
        <time>2024-05-08T10:29:15Z</time>
      </trkpt>
      <trkpt lat="47.29937" lon="6.84844">
        <ele>749.1</ele>
        <time>2024-05-08T10:29:26Z</time>
      </trkpt>
      <trkpt lat="47.29903" lon="6.84816">
        <ele>749.6</ele>
        <time>2024-05-08T10:29:37Z</time>
      </trkpt>
      <trkpt lat="47.29878" lon="6.84792">
        <ele>751.5</ele>
        <time>2024-05-08T10:29:47Z</time>
      </trkpt>
      <trkpt lat="47.29856" lon="6.84771">
        <ele>753.3</ele>
        <time>2024-05-08T10:29:58Z</time>
      </trkpt>
      <trkpt lat="47.29839" lon="6.84753">
        <ele>754.5</ele>
        <time>2024-05-08T10:30:08Z</time>
      </trkpt>
      <trkpt lat="47.29818" lon="6.84724">
        <ele>755.2</ele>
        <time>2024-05-08T10:30:18Z</time>
      </trkpt>
      <trkpt lat="47.29796" lon="6.84684">
        <ele>755.9</ele>
        <time>2024-05-08T10:30:29Z</time>
      </trkpt>
      <trkpt lat="47.29769" lon="6.84673">
        <ele>756.8</ele>
        <time>2024-05-08T10:30:39Z</time>
      </trkpt>
      <trkpt lat="47.2975" lon="6.84661">
        <ele>758.1</ele>
        <time>2024-05-08T10:30:50Z</time>
      </trkpt>
      <trkpt lat="47.29731" lon="6.84649">
        <ele>759.7</ele>
        <time>2024-05-08T10:31:01Z</time>
      </trkpt>
      <trkpt lat="47.29712" lon="6.84637">
        <ele>761.9</ele>
        <time>2024-05-08T10:31:12Z</time>
      </trkpt>
      <trkpt lat="47.29698" lon="6.84621">
        <ele>764.1</ele>
        <time>2024-05-08T10:31:23Z</time>
      </trkpt>
      <trkpt lat="47.29682" lon="6.84613">
        <ele>766.1</ele>
        <time>2024-05-08T10:31:34Z</time>
      </trkpt>
      <trkpt lat="47.29666" lon="6.84604">
        <ele>767.8</ele>
        <time>2024-05-08T10:31:45Z</time>
      </trkpt>
      <trkpt lat="47.29649" lon="6.846">
        <ele>769.2</ele>
        <time>2024-05-08T10:31:56Z</time>
      </trkpt>
      <trkpt lat="47.29632" lon="6.84596">
        <ele>770.6</ele>
        <time>2024-05-08T10:32:07Z</time>
      </trkpt>
      <trkpt lat="47.29617" lon="6.84593">
        <ele>771.7</ele>
        <time>2024-05-08T10:32:17Z</time>
      </trkpt>
      <trkpt lat="47.296" lon="6.84591">
        <ele>772.8</ele>
        <time>2024-05-08T10:32:28Z</time>
      </trkpt>
      <trkpt lat="47.2958" lon="6.84589">
        <ele>774.4</ele>
        <time>2024-05-08T10:32:39Z</time>
      </trkpt>
      <trkpt lat="47.29564" lon="6.84587">
        <ele>776</ele>
        <time>2024-05-08T10:32:49Z</time>
      </trkpt>
      <trkpt lat="47.29547" lon="6.84592">
        <ele>777.8</ele>
        <time>2024-05-08T10:33:00Z</time>
      </trkpt>
      <trkpt lat="47.29531" lon="6.846">
        <ele>779.5</ele>
        <time>2024-05-08T10:33:11Z</time>
      </trkpt>
      <trkpt lat="47.29519" lon="6.84607">
        <ele>780.8</ele>
        <time>2024-05-08T10:33:21Z</time>
      </trkpt>
      <trkpt lat="47.29507" lon="6.84614">
        <ele>782.1</ele>
        <time>2024-05-08T10:33:31Z</time>
      </trkpt>
      <trkpt lat="47.29489" lon="6.84621">
        <ele>784</ele>
        <time>2024-05-08T10:33:42Z</time>
      </trkpt>
      <trkpt lat="47.29473" lon="6.84623">
        <ele>785.7</ele>
        <time>2024-05-08T10:33:53Z</time>
      </trkpt>
      <trkpt lat="47.29458" lon="6.84625">
        <ele>787.4</ele>
        <time>2024-05-08T10:34:03Z</time>
      </trkpt>
      <trkpt lat="47.29443" lon="6.84627">
        <ele>789.2</ele>
        <time>2024-05-08T10:34:14Z</time>
      </trkpt>
      <trkpt lat="47.29429" lon="6.84632">
        <ele>790.8</ele>
        <time>2024-05-08T10:34:24Z</time>
      </trkpt>
      <trkpt lat="47.29413" lon="6.8464">
        <ele>792.6</ele>
        <time>2024-05-08T10:34:35Z</time>
      </trkpt>
      <trkpt lat="47.29398" lon="6.84647">
        <ele>794.4</ele>
        <time>2024-05-08T10:34:46Z</time>
      </trkpt>
      <trkpt lat="47.29386" lon="6.84659">
        <ele>796.1</ele>
        <time>2024-05-08T10:34:56Z</time>
      </trkpt>
      <trkpt lat="47.29373" lon="6.84671">
        <ele>798.1</ele>
        <time>2024-05-08T10:35:07Z</time>
      </trkpt>
      <trkpt lat="47.29361" lon="6.84683">
        <ele>800</ele>
        <time>2024-05-08T10:35:18Z</time>
      </trkpt>
      <trkpt lat="47.2935" lon="6.84694">
        <ele>801.8</ele>
        <time>2024-05-08T10:35:28Z</time>
      </trkpt>
      <trkpt lat="47.2934" lon="6.84706">
        <ele>803.5</ele>
        <time>2024-05-08T10:35:39Z</time>
      </trkpt>
      <trkpt lat="47.29326" lon="6.84712">
        <ele>805.7</ele>
        <time>2024-05-08T10:35:49Z</time>
      </trkpt>
      <trkpt lat="47.29315" lon="6.84717">
        <ele>807.6</ele>
        <time>2024-05-08T10:35:59Z</time>
      </trkpt>
      <trkpt lat="47.29301" lon="6.84729">
        <ele>810</ele>
        <time>2024-05-08T10:36:10Z</time>
      </trkpt>
      <trkpt lat="47.29292" lon="6.84737">
        <ele>811.4</ele>
        <time>2024-05-08T10:36:20Z</time>
      </trkpt>
      <trkpt lat="47.29283" lon="6.84748">
        <ele>813</ele>
        <time>2024-05-08T10:36:31Z</time>
      </trkpt>
      <trkpt lat="47.29275" lon="6.84762">
        <ele>814.6</ele>
        <time>2024-05-08T10:36:41Z</time>
      </trkpt>
      <trkpt lat="47.29267" lon="6.84778">
        <ele>816.2</ele>
        <time>2024-05-08T10:36:52Z</time>
      </trkpt>
      <trkpt lat="47.29256" lon="6.848">
        <ele>818.4</ele>
        <time>2024-05-08T10:37:02Z</time>
      </trkpt>
      <trkpt lat="47.29246" lon="6.84821">
        <ele>820.8</ele>
        <time>2024-05-08T10:37:13Z</time>
      </trkpt>
      <trkpt lat="47.29237" lon="6.84841">
        <ele>823.2</ele>
        <time>2024-05-08T10:37:24Z</time>
      </trkpt>
      <trkpt lat="47.29228" lon="6.84856">
        <ele>825.2</ele>
        <time>2024-05-08T10:37:35Z</time>
      </trkpt>
      <trkpt lat="47.29219" lon="6.84869">
        <ele>826.9</ele>
        <time>2024-05-08T10:37:45Z</time>
      </trkpt>
      <trkpt lat="47.29208" lon="6.84881">
        <ele>828.3</ele>
        <time>2024-05-08T10:37:55Z</time>
      </trkpt>
      <trkpt lat="47.29198" lon="6.84886">
        <ele>829.4</ele>
        <time>2024-05-08T10:38:06Z</time>
      </trkpt>
      <trkpt lat="47.29183" lon="6.8489">
        <ele>830.6</ele>
        <time>2024-05-08T10:38:16Z</time>
      </trkpt>
      <trkpt lat="47.29168" lon="6.84895">
        <ele>831.8</ele>
        <time>2024-05-08T10:38:27Z</time>
      </trkpt>
      <trkpt lat="47.29155" lon="6.84902">
        <ele>833</ele>
        <time>2024-05-08T10:38:37Z</time>
      </trkpt>
      <trkpt lat="47.29148" lon="6.84906">
        <ele>833.6</ele>
        <time>2024-05-08T10:38:47Z</time>
      </trkpt>
      <trkpt lat="47.29133" lon="6.84926">
        <ele>835.2</ele>
        <time>2024-05-08T10:38:57Z</time>
      </trkpt>
      <trkpt lat="47.29116" lon="6.8494">
        <ele>836.4</ele>
        <time>2024-05-08T10:39:08Z</time>
      </trkpt>
      <trkpt lat="47.29101" lon="6.84954">
        <ele>837.7</ele>
        <time>2024-05-08T10:39:18Z</time>
      </trkpt>
      <trkpt lat="47.29083" lon="6.84965">
        <ele>839.7</ele>
        <time>2024-05-08T10:39:29Z</time>
      </trkpt>
      <trkpt lat="47.29063" lon="6.84965">
        <ele>841.2</ele>
        <time>2024-05-08T10:39:39Z</time>
      </trkpt>
      <trkpt lat="47.29041" lon="6.84966">
        <ele>842.4</ele>
        <time>2024-05-08T10:39:50Z</time>
      </trkpt>
      <trkpt lat="47.29015" lon="6.84963">
        <ele>843.5</ele>
        <time>2024-05-08T10:40:01Z</time>
      </trkpt>
      <trkpt lat="47.28993" lon="6.84982">
        <ele>845</ele>
        <time>2024-05-08T10:40:12Z</time>
      </trkpt>
      <trkpt lat="47.28977" lon="6.84997">
        <ele>846.1</ele>
        <time>2024-05-08T10:40:22Z</time>
      </trkpt>
      <trkpt lat="47.28966" lon="6.85006">
        <ele>846.9</ele>
        <time>2024-05-08T10:40:33Z</time>
      </trkpt>
      <trkpt lat="47.28952" lon="6.85016">
        <ele>847.9</ele>
        <time>2024-05-08T10:40:43Z</time>
      </trkpt>
      <trkpt lat="47.28928" lon="6.85017">
        <ele>848.5</ele>
        <time>2024-05-08T10:40:54Z</time>
      </trkpt>
      <trkpt lat="47.28888" lon="6.85035">
        <ele>846.7</ele>
        <time>2024-05-08T10:41:04Z</time>
      </trkpt>
      <trkpt lat="47.28851" lon="6.85086">
        <ele>845.7</ele>
        <time>2024-05-08T10:41:15Z</time>
      </trkpt>
      <trkpt lat="47.28837" lon="6.85116">
        <ele>846.2</ele>
        <time>2024-05-08T10:41:25Z</time>
      </trkpt>
      <trkpt lat="47.28821" lon="6.85141">
        <ele>847</ele>
        <time>2024-05-08T10:41:36Z</time>
      </trkpt>
      <trkpt lat="47.28807" lon="6.85162">
        <ele>848</ele>
        <time>2024-05-08T10:41:46Z</time>
      </trkpt>
      <trkpt lat="47.28793" lon="6.85195">
        <ele>849.5</ele>
        <time>2024-05-08T10:41:57Z</time>
      </trkpt>
      <trkpt lat="47.28783" lon="6.85218">
        <ele>850.6</ele>
        <time>2024-05-08T10:42:07Z</time>
      </trkpt>
      <trkpt lat="47.2878" lon="6.85219">
        <ele>850.6</ele>
        <time>2024-05-08T10:42:18Z</time>
      </trkpt>
      <trkpt lat="47.2878" lon="6.85219">
        <ele>850.6</ele>
        <time>2024-05-08T10:42:28Z</time>
      </trkpt>
      <trkpt lat="47.2878" lon="6.85219">
        <ele>850.6</ele>
        <time>2024-05-08T10:42:38Z</time>
      </trkpt>
      <trkpt lat="47.2878" lon="6.85219">
        <ele>850.6</ele>
        <time>2024-05-08T10:42:49Z</time>
      </trkpt>
      <trkpt lat="47.2878" lon="6.85219">
        <ele>850.6</ele>
        <time>2024-05-08T10:42:59Z</time>
      </trkpt>
      <trkpt lat="47.2878" lon="6.85219">
        <ele>850.6</ele>
        <time>2024-05-08T10:43:10Z</time>
      </trkpt>
      <trkpt lat="47.2878" lon="6.85219">
        <ele>850.6</ele>
        <time>2024-05-08T10:43:20Z</time>
      </trkpt>
      <trkpt lat="47.2878" lon="6.85219">
        <ele>850.6</ele>
        <time>2024-05-08T10:43:30Z</time>
      </trkpt>
      <trkpt lat="47.2878" lon="6.85219">
        <ele>850.6</ele>
        <time>2024-05-08T10:43:41Z</time>
      </trkpt>
      <trkpt lat="47.2878" lon="6.85219">
        <ele>850.6</ele>
        <time>2024-05-08T10:43:52Z</time>
      </trkpt>
      <trkpt lat="47.2878" lon="6.85219">
        <ele>850.6</ele>
        <time>2024-05-08T10:44:02Z</time>
      </trkpt>
      <trkpt lat="47.2878" lon="6.85219">
        <ele>850.6</ele>
        <time>2024-05-08T10:44:12Z</time>
      </trkpt>
      <trkpt lat="47.2878" lon="6.85219">
        <ele>850.6</ele>
        <time>2024-05-08T10:44:23Z</time>
      </trkpt>
      <trkpt lat="47.2878" lon="6.85219">
        <ele>850.6</ele>
        <time>2024-05-08T10:44:33Z</time>
      </trkpt>
      <trkpt lat="47.2878" lon="6.85219">
        <ele>850.6</ele>
        <time>2024-05-08T10:44:44Z</time>
      </trkpt>
      <trkpt lat="47.2878" lon="6.85219">
        <ele>850.6</ele>
        <time>2024-05-08T10:44:55Z</time>
      </trkpt>
      <trkpt lat="47.2878" lon="6.85219">
        <ele>850.6</ele>
        <time>2024-05-08T10:45:06Z</time>
      </trkpt>
      <trkpt lat="47.2878" lon="6.85219">
        <ele>850.6</ele>
        <time>2024-05-08T10:45:16Z</time>
      </trkpt>
      <trkpt lat="47.28785" lon="6.85217">
        <ele>850.6</ele>
        <time>2024-05-08T10:45:26Z</time>
      </trkpt>
      <trkpt lat="47.28787" lon="6.85249">
        <ele>850.1</ele>
        <time>2024-05-08T10:45:37Z</time>
      </trkpt>
      <trkpt lat="47.28785" lon="6.85293">
        <ele>849.1</ele>
        <time>2024-05-08T10:45:48Z</time>
      </trkpt>
      <trkpt lat="47.28777" lon="6.85357">
        <ele>845.5</ele>
        <time>2024-05-08T10:45:58Z</time>
      </trkpt>
      <trkpt lat="47.28769" lon="6.85458">
        <ele>837.8</ele>
        <time>2024-05-08T10:46:10Z</time>
      </trkpt>
      <trkpt lat="47.2878" lon="6.85581">
        <ele>830.8</ele>
        <time>2024-05-08T10:46:21Z</time>
      </trkpt>
      <trkpt lat="47.28782" lon="6.8568">
        <ele>824.5</ele>
        <time>2024-05-08T10:46:32Z</time>
      </trkpt>
      <trkpt lat="47.288" lon="6.85721">
        <ele>824</ele>
        <time>2024-05-08T10:46:43Z</time>
      </trkpt>
      <trkpt lat="47.28825" lon="6.85767">
        <ele>824.1</ele>
        <time>2024-05-08T10:46:54Z</time>
      </trkpt>
      <trkpt lat="47.2885" lon="6.85819">
        <ele>824.6</ele>
        <time>2024-05-08T10:47:05Z</time>
      </trkpt>
      <trkpt lat="47.28873" lon="6.85839">
        <ele>825.9</ele>
        <time>2024-05-08T10:47:16Z</time>
      </trkpt>
      <trkpt lat="47.28896" lon="6.85848">
        <ele>827.7</ele>
        <time>2024-05-08T10:47:26Z</time>
      </trkpt>
      <trkpt lat="47.28916" lon="6.85869">
        <ele>829.4</ele>
        <time>2024-05-08T10:47:37Z</time>
      </trkpt>
      <trkpt lat="47.28942" lon="6.85895">
        <ele>831.1</ele>
        <time>2024-05-08T10:47:48Z</time>
      </trkpt>
      <trkpt lat="47.28965" lon="6.85912">
        <ele>833</ele>
        <time>2024-05-08T10:47:59Z</time>
      </trkpt>
      <trkpt lat="47.28984" lon="6.85927">
        <ele>834.6</ele>
        <time>2024-05-08T10:48:10Z</time>
      </trkpt>
      <trkpt lat="47.29006" lon="6.85936">
        <ele>836.3</ele>
        <time>2024-05-08T10:48:20Z</time>
      </trkpt>
      <trkpt lat="47.29029" lon="6.8595">
        <ele>837.8</ele>
        <time>2024-05-08T10:48:31Z</time>
      </trkpt>
      <trkpt lat="47.29048" lon="6.8596">
        <ele>838.8</ele>
        <time>2024-05-08T10:48:41Z</time>
      </trkpt>
      <trkpt lat="47.29066" lon="6.85978">
        <ele>839.7</ele>
        <time>2024-05-08T10:48:52Z</time>
      </trkpt>
      <trkpt lat="47.29088" lon="6.85995">
        <ele>840.8</ele>
        <time>2024-05-08T10:49:02Z</time>
      </trkpt>
      <trkpt lat="47.29105" lon="6.8601">
        <ele>841.9</ele>
        <time>2024-05-08T10:49:13Z</time>
      </trkpt>
      <trkpt lat="47.29125" lon="6.86012">
        <ele>843.8</ele>
        <time>2024-05-08T10:49:23Z</time>
      </trkpt>
      <trkpt lat="47.2914" lon="6.86007">
        <ele>844.5</ele>
        <time>2024-05-08T10:49:33Z</time>
      </trkpt>
      <trkpt lat="47.29154" lon="6.86008">
        <ele>844.7</ele>
        <time>2024-05-08T10:49:44Z</time>
      </trkpt>
      <trkpt lat="47.29152" lon="6.86011">
        <ele>844.7</ele>
        <time>2024-05-08T10:49:54Z</time>
      </trkpt>
      <trkpt lat="47.29153" lon="6.86015">
        <ele>844.6</ele>
        <time>2024-05-08T10:50:05Z</time>
      </trkpt>
      <trkpt lat="47.29157" lon="6.86017">
        <ele>844.6</ele>
        <time>2024-05-08T10:50:15Z</time>
      </trkpt>
      <trkpt lat="47.29172" lon="6.86028">
        <ele>843.8</ele>
        <time>2024-05-08T10:50:25Z</time>
      </trkpt>
      <trkpt lat="47.29208" lon="6.86075">
        <ele>840.8</ele>
        <time>2024-05-08T10:50:36Z</time>
      </trkpt>
      <trkpt lat="47.29256" lon="6.86137">
        <ele>837.5</ele>
        <time>2024-05-08T10:50:46Z</time>
      </trkpt>
      <trkpt lat="47.29306" lon="6.8621">
        <ele>833.7</ele>
        <time>2024-05-08T10:50:57Z</time>
      </trkpt>
      <trkpt lat="47.29359" lon="6.86277">
        <ele>828.4</ele>
        <time>2024-05-08T10:51:09Z</time>
      </trkpt>
      <trkpt lat="47.29393" lon="6.86346">
        <ele>822.8</ele>
        <time>2024-05-08T10:51:19Z</time>
      </trkpt>
      <trkpt lat="47.29399" lon="6.86365">
        <ele>821.6</ele>
        <time>2024-05-08T10:51:29Z</time>
      </trkpt>
      <trkpt lat="47.29399" lon="6.86365">
        <ele>821.6</ele>
        <time>2024-05-08T10:51:40Z</time>
      </trkpt>
      <trkpt lat="47.29404" lon="6.86376">
        <ele>821</ele>
        <time>2024-05-08T10:51:51Z</time>
      </trkpt>
      <trkpt lat="47.29428" lon="6.864">
        <ele>820.3</ele>
        <time>2024-05-08T10:52:01Z</time>
      </trkpt>
      <trkpt lat="47.29452" lon="6.86417">
        <ele>820.2</ele>
        <time>2024-05-08T10:52:11Z</time>
      </trkpt>
      <trkpt lat="47.29483" lon="6.8644">
        <ele>818.7</ele>
        <time>2024-05-08T10:52:22Z</time>
      </trkpt>
      <trkpt lat="47.29529" lon="6.86479">
        <ele>814.4</ele>
        <time>2024-05-08T10:52:33Z</time>
      </trkpt>
      <trkpt lat="47.29569" lon="6.86524">
        <ele>809.5</ele>
        <time>2024-05-08T10:52:43Z</time>
      </trkpt>
      <trkpt lat="47.29594" lon="6.86555">
        <ele>806.7</ele>
        <time>2024-05-08T10:52:54Z</time>
      </trkpt>
      <trkpt lat="47.29594" lon="6.86555">
        <ele>806.7</ele>
        <time>2024-05-08T10:53:05Z</time>
      </trkpt>
      <trkpt lat="47.29594" lon="6.86557">
        <ele>806.6</ele>
        <time>2024-05-08T10:53:15Z</time>
      </trkpt>
      <trkpt lat="47.29609" lon="6.86575">
        <ele>805</ele>
        <time>2024-05-08T10:53:26Z</time>
      </trkpt>
      <trkpt lat="47.29646" lon="6.86625">
        <ele>802</ele>
        <time>2024-05-08T10:53:36Z</time>
      </trkpt>
      <trkpt lat="47.29692" lon="6.86701">
        <ele>799.2</ele>
        <time>2024-05-08T10:53:47Z</time>
      </trkpt>
      <trkpt lat="47.29735" lon="6.86768">
        <ele>797.3</ele>
        <time>2024-05-08T10:53:57Z</time>
      </trkpt>
      <trkpt lat="47.2979" lon="6.86815">
        <ele>790.7</ele>
        <time>2024-05-08T10:54:08Z</time>
      </trkpt>
      <trkpt lat="47.29809" lon="6.86875">
        <ele>783.5</ele>
        <time>2024-05-08T10:54:18Z</time>
      </trkpt>
      <trkpt lat="47.29782" lon="6.86901">
        <ele>781.3</ele>
        <time>2024-05-08T10:54:29Z</time>
      </trkpt>
      <trkpt lat="47.29741" lon="6.86904">
        <ele>778</ele>
        <time>2024-05-08T10:54:39Z</time>
      </trkpt>
      <trkpt lat="47.29676" lon="6.86886">
        <ele>775</ele>
        <time>2024-05-08T10:54:49Z</time>
      </trkpt>
      <trkpt lat="47.29619" lon="6.86891">
        <ele>773.7</ele>
        <time>2024-05-08T10:54:59Z</time>
      </trkpt>
      <trkpt lat="47.29558" lon="6.8692">
        <ele>770.9</ele>
        <time>2024-05-08T10:55:10Z</time>
      </trkpt>
      <trkpt lat="47.29496" lon="6.86975">
        <ele>767.4</ele>
        <time>2024-05-08T10:55:21Z</time>
      </trkpt>
      <trkpt lat="47.29441" lon="6.87043">
        <ele>763.8</ele>
        <time>2024-05-08T10:55:31Z</time>
      </trkpt>
      <trkpt lat="47.29381" lon="6.87114">
        <ele>759.5</ele>
        <time>2024-05-08T10:55:42Z</time>
      </trkpt>
      <trkpt lat="47.29323" lon="6.87171">
        <ele>758.1</ele>
        <time>2024-05-08T10:55:53Z</time>
      </trkpt>
      <trkpt lat="47.29272" lon="6.87231">
        <ele>757.8</ele>
        <time>2024-05-08T10:56:04Z</time>
      </trkpt>
      <trkpt lat="47.29234" lon="6.87269">
        <ele>757.9</ele>
        <time>2024-05-08T10:56:15Z</time>
      </trkpt>
      <trkpt lat="47.29187" lon="6.87274">
        <ele>757.2</ele>
        <time>2024-05-08T10:56:25Z</time>
      </trkpt>
      <trkpt lat="47.29139" lon="6.87282">
        <ele>757.3</ele>
        <time>2024-05-08T10:56:35Z</time>
      </trkpt>
      <trkpt lat="47.29092" lon="6.8732">
        <ele>757</ele>
        <time>2024-05-08T10:56:46Z</time>
      </trkpt>
      <trkpt lat="47.29069" lon="6.87365">
        <ele>758.2</ele>
        <time>2024-05-08T10:56:57Z</time>
      </trkpt>
      <trkpt lat="47.29117" lon="6.87374">
        <ele>758.4</ele>
        <time>2024-05-08T10:57:08Z</time>
      </trkpt>
      <trkpt lat="47.29164" lon="6.87404">
        <ele>759.1</ele>
        <time>2024-05-08T10:57:19Z</time>
      </trkpt>
      <trkpt lat="47.29202" lon="6.87453">
        <ele>759.5</ele>
        <time>2024-05-08T10:57:30Z</time>
      </trkpt>
      <trkpt lat="47.2924" lon="6.8751">
        <ele>759.7</ele>
        <time>2024-05-08T10:57:41Z</time>
      </trkpt>
      <trkpt lat="47.29275" lon="6.87574">
        <ele>760</ele>
        <time>2024-05-08T10:57:52Z</time>
      </trkpt>
      <trkpt lat="47.29307" lon="6.87635">
        <ele>760.9</ele>
        <time>2024-05-08T10:58:03Z</time>
      </trkpt>
      <trkpt lat="47.29326" lon="6.87694">
        <ele>761.8</ele>
        <time>2024-05-08T10:58:13Z</time>
      </trkpt>
      <trkpt lat="47.29346" lon="6.87759">
        <ele>762.1</ele>
        <time>2024-05-08T10:58:23Z</time>
      </trkpt>
      <trkpt lat="47.29372" lon="6.87826">
        <ele>762.4</ele>
        <time>2024-05-08T10:58:34Z</time>
      </trkpt>
      <trkpt lat="47.294" lon="6.87891">
        <ele>761.7</ele>
        <time>2024-05-08T10:58:45Z</time>
      </trkpt>
      <trkpt lat="47.29449" lon="6.87961">
        <ele>759.5</ele>
        <time>2024-05-08T10:58:56Z</time>
      </trkpt>
      <trkpt lat="47.29439" lon="6.8802">
        <ele>760.1</ele>
        <time>2024-05-08T10:59:06Z</time>
      </trkpt>
      <trkpt lat="47.29383" lon="6.88024">
        <ele>760.9</ele>
        <time>2024-05-08T10:59:17Z</time>
      </trkpt>
      <trkpt lat="47.29328" lon="6.88019">
        <ele>762</ele>
        <time>2024-05-08T10:59:28Z</time>
      </trkpt>
      <trkpt lat="47.29278" lon="6.88019">
        <ele>763.5</ele>
        <time>2024-05-08T10:59:39Z</time>
      </trkpt>
      <trkpt lat="47.29244" lon="6.88056">
        <ele>764</ele>
        <time>2024-05-08T10:59:49Z</time>
      </trkpt>
      <trkpt lat="47.292" lon="6.88077">
        <ele>764.6</ele>
        <time>2024-05-08T11:00:00Z</time>
      </trkpt>
      <trkpt lat="47.2915" lon="6.88084">
        <ele>763</ele>
        <time>2024-05-08T11:00:11Z</time>
      </trkpt>
      <trkpt lat="47.29095" lon="6.88077">
        <ele>761.2</ele>
        <time>2024-05-08T11:00:21Z</time>
      </trkpt>
      <trkpt lat="47.29054" lon="6.88072">
        <ele>761.3</ele>
        <time>2024-05-08T11:00:32Z</time>
      </trkpt>
      <trkpt lat="47.29023" lon="6.88068">
        <ele>760.9</ele>
        <time>2024-05-08T11:00:43Z</time>
      </trkpt>
      <trkpt lat="47.28999" lon="6.88063">
        <ele>761</ele>
        <time>2024-05-08T11:00:53Z</time>
      </trkpt>
      <trkpt lat="47.28976" lon="6.88055">
        <ele>761.2</ele>
        <time>2024-05-08T11:01:03Z</time>
      </trkpt>
      <trkpt lat="47.28951" lon="6.88054">
        <ele>761.5</ele>
        <time>2024-05-08T11:01:13Z</time>
      </trkpt>
      <trkpt lat="47.28926" lon="6.88052">
        <ele>761.6</ele>
        <time>2024-05-08T11:01:24Z</time>
      </trkpt>
      <trkpt lat="47.28902" lon="6.88048">
        <ele>761.8</ele>
        <time>2024-05-08T11:01:35Z</time>
      </trkpt>
      <trkpt lat="47.28873" lon="6.88039">
        <ele>762.2</ele>
        <time>2024-05-08T11:01:46Z</time>
      </trkpt>
      <trkpt lat="47.28847" lon="6.8804">
        <ele>762.3</ele>
        <time>2024-05-08T11:01:56Z</time>
      </trkpt>
      <trkpt lat="47.28826" lon="6.8804">
        <ele>763</ele>
        <time>2024-05-08T11:02:07Z</time>
      </trkpt>
      <trkpt lat="47.28817" lon="6.88036">
        <ele>763.4</ele>
        <time>2024-05-08T11:02:17Z</time>
      </trkpt>
      <trkpt lat="47.28787" lon="6.88025">
        <ele>764.5</ele>
        <time>2024-05-08T11:02:28Z</time>
      </trkpt>
      <trkpt lat="47.28765" lon="6.88022">
        <ele>764.5</ele>
        <time>2024-05-08T11:02:38Z</time>
      </trkpt>
      <trkpt lat="47.28739" lon="6.8802">
        <ele>764.8</ele>
        <time>2024-05-08T11:02:49Z</time>
      </trkpt>
      <trkpt lat="47.28718" lon="6.88016">
        <ele>765.5</ele>
        <time>2024-05-08T11:02:59Z</time>
      </trkpt>
      <trkpt lat="47.28695" lon="6.88007">
        <ele>766.6</ele>
        <time>2024-05-08T11:03:10Z</time>
      </trkpt>
      <trkpt lat="47.28671" lon="6.88003">
        <ele>767.4</ele>
        <time>2024-05-08T11:03:21Z</time>
      </trkpt>
      <trkpt lat="47.28641" lon="6.88002">
        <ele>767</ele>
        <time>2024-05-08T11:03:31Z</time>
      </trkpt>
      <trkpt lat="47.2861" lon="6.87997">
        <ele>767.7</ele>
        <time>2024-05-08T11:03:42Z</time>
      </trkpt>
      <trkpt lat="47.28576" lon="6.87972">
        <ele>767.8</ele>
        <time>2024-05-08T11:03:53Z</time>
      </trkpt>
      <trkpt lat="47.28545" lon="6.87935">
        <ele>768</ele>
        <time>2024-05-08T11:04:04Z</time>
      </trkpt>
      <trkpt lat="47.28509" lon="6.87906">
        <ele>767.2</ele>
        <time>2024-05-08T11:04:15Z</time>
      </trkpt>
      <trkpt lat="47.28491" lon="6.87918">
        <ele>767.1</ele>
        <time>2024-05-08T11:04:26Z</time>
      </trkpt>
      <trkpt lat="47.28476" lon="6.87934">
        <ele>767.3</ele>
        <time>2024-05-08T11:04:37Z</time>
      </trkpt>
      <trkpt lat="47.28466" lon="6.87959">
        <ele>767.8</ele>
        <time>2024-05-08T11:04:47Z</time>
      </trkpt>
      <trkpt lat="47.28473" lon="6.87997">
        <ele>769.1</ele>
        <time>2024-05-08T11:04:57Z</time>
      </trkpt>
      <trkpt lat="47.28476" lon="6.8803">
        <ele>770.2</ele>
        <time>2024-05-08T11:05:08Z</time>
      </trkpt>
      <trkpt lat="47.28482" lon="6.88072">
        <ele>771.5</ele>
        <time>2024-05-08T11:05:20Z</time>
      </trkpt>
      <trkpt lat="47.28489" lon="6.8812">
        <ele>772.6</ele>
        <time>2024-05-08T11:05:31Z</time>
      </trkpt>
      <trkpt lat="47.28496" lon="6.88165">
        <ele>773.6</ele>
        <time>2024-05-08T11:05:41Z</time>
      </trkpt>
      <trkpt lat="47.28501" lon="6.88211">
        <ele>774.3</ele>
        <time>2024-05-08T11:05:51Z</time>
      </trkpt>
      <trkpt lat="47.28505" lon="6.88258">
        <ele>775.2</ele>
        <time>2024-05-08T11:06:01Z</time>
      </trkpt>
      <trkpt lat="47.28508" lon="6.88318">
        <ele>776.1</ele>
        <time>2024-05-08T11:06:12Z</time>
      </trkpt>
      <trkpt lat="47.28511" lon="6.88371">
        <ele>777.3</ele>
        <time>2024-05-08T11:06:22Z</time>
      </trkpt>
      <trkpt lat="47.28515" lon="6.88427">
        <ele>778.5</ele>
        <time>2024-05-08T11:06:33Z</time>
      </trkpt>
      <trkpt lat="47.28517" lon="6.88478">
        <ele>779.7</ele>
        <time>2024-05-08T11:06:43Z</time>
      </trkpt>
      <trkpt lat="47.28518" lon="6.88538">
        <ele>781.1</ele>
        <time>2024-05-08T11:06:54Z</time>
      </trkpt>
      <trkpt lat="47.28518" lon="6.88591">
        <ele>782.4</ele>
        <time>2024-05-08T11:07:04Z</time>
      </trkpt>
      <trkpt lat="47.28524" lon="6.88647">
        <ele>783.9</ele>
        <time>2024-05-08T11:07:15Z</time>
      </trkpt>
      <trkpt lat="47.28526" lon="6.88703">
        <ele>785.3</ele>
        <time>2024-05-08T11:07:25Z</time>
      </trkpt>
      <trkpt lat="47.28532" lon="6.88757">
        <ele>786.9</ele>
        <time>2024-05-08T11:07:36Z</time>
      </trkpt>
      <trkpt lat="47.2853" lon="6.88808">
        <ele>788.7</ele>
        <time>2024-05-08T11:07:46Z</time>
      </trkpt>
      <trkpt lat="47.28524" lon="6.88835">
        <ele>790.7</ele>
        <time>2024-05-08T11:07:56Z</time>
      </trkpt>
      <trkpt lat="47.2852" lon="6.88855">
        <ele>792.6</ele>
        <time>2024-05-08T11:08:07Z</time>
      </trkpt>
      <trkpt lat="47.28513" lon="6.88873">
        <ele>794.6</ele>
        <time>2024-05-08T11:08:17Z</time>
      </trkpt>
      <trkpt lat="47.28505" lon="6.88894">
        <ele>796.9</ele>
        <time>2024-05-08T11:08:28Z</time>
      </trkpt>
      <trkpt lat="47.285" lon="6.88913">
        <ele>798.9</ele>
        <time>2024-05-08T11:08:39Z</time>
      </trkpt>
      <trkpt lat="47.28498" lon="6.88934">
        <ele>801</ele>
        <time>2024-05-08T11:08:49Z</time>
      </trkpt>
      <trkpt lat="47.28493" lon="6.88951">
        <ele>802.9</ele>
        <time>2024-05-08T11:09:00Z</time>
      </trkpt>
      <trkpt lat="47.28489" lon="6.88973">
        <ele>805</ele>
        <time>2024-05-08T11:09:10Z</time>
      </trkpt>
      <trkpt lat="47.28487" lon="6.88994">
        <ele>806.7</ele>
        <time>2024-05-08T11:09:21Z</time>
      </trkpt>
      <trkpt lat="47.28484" lon="6.89013">
        <ele>808.2</ele>
        <time>2024-05-08T11:09:31Z</time>
      </trkpt>
      <trkpt lat="47.28476" lon="6.89036">
        <ele>810.2</ele>
        <time>2024-05-08T11:09:42Z</time>
      </trkpt>
      <trkpt lat="47.28468" lon="6.89054">
        <ele>811.9</ele>
        <time>2024-05-08T11:09:53Z</time>
      </trkpt>
      <trkpt lat="47.28455" lon="6.89067">
        <ele>813.5</ele>
        <time>2024-05-08T11:10:03Z</time>
      </trkpt>
      <trkpt lat="47.28442" lon="6.89077">
        <ele>814.6</ele>
        <time>2024-05-08T11:10:14Z</time>
      </trkpt>
      <trkpt lat="47.28425" lon="6.89086">
        <ele>815.3</ele>
        <time>2024-05-08T11:10:24Z</time>
      </trkpt>
      <trkpt lat="47.28403" lon="6.89084">
        <ele>815.8</ele>
        <time>2024-05-08T11:10:34Z</time>
      </trkpt>
      <trkpt lat="47.28373" lon="6.89076">
        <ele>815.8</ele>
        <time>2024-05-08T11:10:45Z</time>
      </trkpt>
      <trkpt lat="47.28341" lon="6.89071">
        <ele>815.1</ele>
        <time>2024-05-08T11:10:56Z</time>
      </trkpt>
      <trkpt lat="47.28312" lon="6.89069">
        <ele>813.7</ele>
        <time>2024-05-08T11:11:06Z</time>
      </trkpt>
      <trkpt lat="47.28279" lon="6.8907">
        <ele>811.4</ele>
        <time>2024-05-08T11:11:17Z</time>
      </trkpt>
      <trkpt lat="47.28254" lon="6.89079">
        <ele>808.8</ele>
        <time>2024-05-08T11:11:28Z</time>
      </trkpt>
      <trkpt lat="47.28234" lon="6.89103">
        <ele>805.7</ele>
        <time>2024-05-08T11:11:39Z</time>
      </trkpt>
      <trkpt lat="47.28218" lon="6.89129">
        <ele>802.6</ele>
        <time>2024-05-08T11:11:49Z</time>
      </trkpt>
      <trkpt lat="47.28205" lon="6.89183">
        <ele>799.6</ele>
        <time>2024-05-08T11:12:00Z</time>
      </trkpt>
      <trkpt lat="47.28197" lon="6.89226">
        <ele>799.3</ele>
        <time>2024-05-08T11:12:10Z</time>
      </trkpt>
      <trkpt lat="47.28191" lon="6.89267">
        <ele>799.7</ele>
        <time>2024-05-08T11:12:21Z</time>
      </trkpt>
      <trkpt lat="47.28185" lon="6.89292">
        <ele>800.1</ele>
        <time>2024-05-08T11:12:32Z</time>
      </trkpt>
      <trkpt lat="47.28164" lon="6.89313">
        <ele>800.8</ele>
        <time>2024-05-08T11:12:43Z</time>
      </trkpt>
      <trkpt lat="47.28149" lon="6.89317">
        <ele>802.3</ele>
        <time>2024-05-08T11:12:53Z</time>
      </trkpt>
      <trkpt lat="47.28138" lon="6.89319">
        <ele>803.7</ele>
        <time>2024-05-08T11:13:03Z</time>
      </trkpt>
      <trkpt lat="47.28124" lon="6.8931">
        <ele>805.6</ele>
        <time>2024-05-08T11:13:13Z</time>
      </trkpt>
      <trkpt lat="47.28115" lon="6.89293">
        <ele>806.9</ele>
        <time>2024-05-08T11:13:24Z</time>
      </trkpt>
      <trkpt lat="47.28108" lon="6.89272">
        <ele>808</ele>
        <time>2024-05-08T11:13:35Z</time>
      </trkpt>
      <trkpt lat="47.28101" lon="6.89244">
        <ele>809.3</ele>
        <time>2024-05-08T11:13:46Z</time>
      </trkpt>
      <trkpt lat="47.28093" lon="6.8922">
        <ele>810.5</ele>
        <time>2024-05-08T11:13:57Z</time>
      </trkpt>
      <trkpt lat="47.28085" lon="6.89195">
        <ele>811.5</ele>
        <time>2024-05-08T11:14:07Z</time>
      </trkpt>
      <trkpt lat="47.28087" lon="6.89174">
        <ele>812.2</ele>
        <time>2024-05-08T11:14:17Z</time>
      </trkpt>
      <trkpt lat="47.28088" lon="6.89153">
        <ele>812.8</ele>
        <time>2024-05-08T11:14:28Z</time>
      </trkpt>
      <trkpt lat="47.28087" lon="6.89124">
        <ele>813.4</ele>
        <time>2024-05-08T11:14:39Z</time>
      </trkpt>
      <trkpt lat="47.2809" lon="6.89079">
        <ele>813</ele>
        <time>2024-05-08T11:14:50Z</time>
      </trkpt>
      <trkpt lat="47.28094" lon="6.89026">
        <ele>811.3</ele>
        <time>2024-05-08T11:15:00Z</time>
      </trkpt>
      <trkpt lat="47.28101" lon="6.88987">
        <ele>810.7</ele>
        <time>2024-05-08T11:15:11Z</time>
      </trkpt>
      <trkpt lat="47.28113" lon="6.88949">
        <ele>810</ele>
        <time>2024-05-08T11:15:22Z</time>
      </trkpt>
      <trkpt lat="47.28117" lon="6.88914">
        <ele>809</ele>
        <time>2024-05-08T11:15:33Z</time>
      </trkpt>
      <trkpt lat="47.28115" lon="6.88887">
        <ele>808.6</ele>
        <time>2024-05-08T11:15:43Z</time>
      </trkpt>
      <trkpt lat="47.28114" lon="6.8886">
        <ele>808.7</ele>
        <time>2024-05-08T11:15:53Z</time>
      </trkpt>
      <trkpt lat="47.28114" lon="6.88827">
        <ele>809.2</ele>
        <time>2024-05-08T11:16:04Z</time>
      </trkpt>
      <trkpt lat="47.28113" lon="6.88792">
        <ele>810.3</ele>
        <time>2024-05-08T11:16:15Z</time>
      </trkpt>
      <trkpt lat="47.28107" lon="6.8876">
        <ele>811.5</ele>
        <time>2024-05-08T11:16:26Z</time>
      </trkpt>
      <trkpt lat="47.28103" lon="6.8873">
        <ele>812.5</ele>
        <time>2024-05-08T11:16:36Z</time>
      </trkpt>
      <trkpt lat="47.281" lon="6.88706">
        <ele>813.2</ele>
        <time>2024-05-08T11:16:47Z</time>
      </trkpt>
      <trkpt lat="47.28094" lon="6.88682">
        <ele>814.1</ele>
        <time>2024-05-08T11:16:57Z</time>
      </trkpt>
      <trkpt lat="47.28092" lon="6.8866">
        <ele>814.9</ele>
        <time>2024-05-08T11:17:08Z</time>
      </trkpt>
      <trkpt lat="47.28091" lon="6.88643">
        <ele>815.6</ele>
        <time>2024-05-08T11:17:18Z</time>
      </trkpt>
      <trkpt lat="47.28091" lon="6.88611">
        <ele>817.3</ele>
        <time>2024-05-08T11:17:28Z</time>
      </trkpt>
      <trkpt lat="47.28088" lon="6.88582">
        <ele>819.3</ele>
        <time>2024-05-08T11:17:39Z</time>
      </trkpt>
      <trkpt lat="47.28086" lon="6.88549">
        <ele>821.7</ele>
        <time>2024-05-08T11:17:50Z</time>
      </trkpt>
      <trkpt lat="47.2808" lon="6.88505">
        <ele>824.5</ele>
        <time>2024-05-08T11:18:01Z</time>
      </trkpt>
      <trkpt lat="47.28067" lon="6.88458">
        <ele>827.2</ele>
        <time>2024-05-08T11:18:12Z</time>
      </trkpt>
      <trkpt lat="47.28047" lon="6.88414">
        <ele>829</ele>
        <time>2024-05-08T11:18:23Z</time>
      </trkpt>
      <trkpt lat="47.28029" lon="6.88388">
        <ele>829.4</ele>
        <time>2024-05-08T11:18:34Z</time>
      </trkpt>
      <trkpt lat="47.28024" lon="6.88406">
        <ele>828.7</ele>
        <time>2024-05-08T11:18:45Z</time>
      </trkpt>
      <trkpt lat="47.28013" lon="6.88426">
        <ele>829</ele>
        <time>2024-05-08T11:18:56Z</time>
      </trkpt>
      <trkpt lat="47.28004" lon="6.88447">
        <ele>830.4</ele>
        <time>2024-05-08T11:19:07Z</time>
      </trkpt>
      <trkpt lat="47.27994" lon="6.88467">
        <ele>831.9</ele>
        <time>2024-05-08T11:19:17Z</time>
      </trkpt>
      <trkpt lat="47.27981" lon="6.88485">
        <ele>833.4</ele>
        <time>2024-05-08T11:19:28Z</time>
      </trkpt>
      <trkpt lat="47.27969" lon="6.88501">
        <ele>834.5</ele>
        <time>2024-05-08T11:19:39Z</time>
      </trkpt>
      <trkpt lat="47.27956" lon="6.88529">
        <ele>835.5</ele>
        <time>2024-05-08T11:19:50Z</time>
      </trkpt>
      <trkpt lat="47.27942" lon="6.88554">
        <ele>836.6</ele>
        <time>2024-05-08T11:20:01Z</time>
      </trkpt>
      <trkpt lat="47.27931" lon="6.88578">
        <ele>837.9</ele>
        <time>2024-05-08T11:20:12Z</time>
      </trkpt>
      <trkpt lat="47.27918" lon="6.88606">
        <ele>839.7</ele>
        <time>2024-05-08T11:20:22Z</time>
      </trkpt>
      <trkpt lat="47.27909" lon="6.88627">
        <ele>841.1</ele>
        <time>2024-05-08T11:20:32Z</time>
      </trkpt>
      <trkpt lat="47.27898" lon="6.8865">
        <ele>842.7</ele>
        <time>2024-05-08T11:20:43Z</time>
      </trkpt>
      <trkpt lat="47.27889" lon="6.88675">
        <ele>844.3</ele>
        <time>2024-05-08T11:20:53Z</time>
      </trkpt>
      <trkpt lat="47.27879" lon="6.887">
        <ele>845.5</ele>
        <time>2024-05-08T11:21:04Z</time>
      </trkpt>
      <trkpt lat="47.27871" lon="6.88726">
        <ele>846.4</ele>
        <time>2024-05-08T11:21:14Z</time>
      </trkpt>
      <trkpt lat="47.2786" lon="6.88757">
        <ele>847.6</ele>
        <time>2024-05-08T11:21:25Z</time>
      </trkpt>
      <trkpt lat="47.27854" lon="6.88781">
        <ele>848.9</ele>
        <time>2024-05-08T11:21:35Z</time>
      </trkpt>
      <trkpt lat="47.27848" lon="6.88808">
        <ele>850.3</ele>
        <time>2024-05-08T11:21:46Z</time>
      </trkpt>
      <trkpt lat="47.27842" lon="6.88836">
        <ele>851.4</ele>
        <time>2024-05-08T11:21:56Z</time>
      </trkpt>
      <trkpt lat="47.27836" lon="6.88869">
        <ele>852.4</ele>
        <time>2024-05-08T11:22:07Z</time>
      </trkpt>
      <trkpt lat="47.27829" lon="6.889">
        <ele>853.2</ele>
        <time>2024-05-08T11:22:17Z</time>
      </trkpt>
      <trkpt lat="47.2782" lon="6.88934">
        <ele>853.8</ele>
        <time>2024-05-08T11:22:28Z</time>
      </trkpt>
      <trkpt lat="47.2781" lon="6.88971">
        <ele>853.9</ele>
        <time>2024-05-08T11:22:39Z</time>
      </trkpt>
      <trkpt lat="47.27799" lon="6.89004">
        <ele>853.6</ele>
        <time>2024-05-08T11:22:49Z</time>
      </trkpt>
      <trkpt lat="47.27775" lon="6.89045">
        <ele>852.8</ele>
        <time>2024-05-08T11:23:00Z</time>
      </trkpt>
      <trkpt lat="47.27764" lon="6.89085">
        <ele>852.7</ele>
        <time>2024-05-08T11:23:10Z</time>
      </trkpt>
      <trkpt lat="47.27764" lon="6.89129">
        <ele>853.4</ele>
        <time>2024-05-08T11:23:21Z</time>
      </trkpt>
      <trkpt lat="47.27765" lon="6.8916">
        <ele>854.4</ele>
        <time>2024-05-08T11:23:31Z</time>
      </trkpt>
      <trkpt lat="47.27765" lon="6.89203">
        <ele>855.4</ele>
        <time>2024-05-08T11:23:42Z</time>
      </trkpt>
      <trkpt lat="47.27762" lon="6.8924">
        <ele>855.9</ele>
        <time>2024-05-08T11:23:52Z</time>
      </trkpt>
      <trkpt lat="47.27759" lon="6.89283">
        <ele>856</ele>
        <time>2024-05-08T11:24:02Z</time>
      </trkpt>
      <trkpt lat="47.27756" lon="6.89323">
        <ele>856.2</ele>
        <time>2024-05-08T11:24:13Z</time>
      </trkpt>
      <trkpt lat="47.27752" lon="6.89367">
        <ele>856.8</ele>
        <time>2024-05-08T11:24:23Z</time>
      </trkpt>
      <trkpt lat="47.27749" lon="6.89406">
        <ele>857.4</ele>
        <time>2024-05-08T11:24:33Z</time>
      </trkpt>
      <trkpt lat="47.27757" lon="6.8944">
        <ele>858.4</ele>
        <time>2024-05-08T11:24:43Z</time>
      </trkpt>
      <trkpt lat="47.27762" lon="6.8947">
        <ele>859.2</ele>
        <time>2024-05-08T11:24:53Z</time>
      </trkpt>
      <trkpt lat="47.27766" lon="6.89504">
        <ele>859.6</ele>
        <time>2024-05-08T11:25:03Z</time>
      </trkpt>
      <trkpt lat="47.27769" lon="6.89548">
        <ele>859.2</ele>
        <time>2024-05-08T11:25:14Z</time>
      </trkpt>
      <trkpt lat="47.27778" lon="6.89575">
        <ele>858.7</ele>
        <time>2024-05-08T11:25:24Z</time>
      </trkpt>
      <trkpt lat="47.27808" lon="6.89587">
        <ele>856.1</ele>
        <time>2024-05-08T11:25:35Z</time>
      </trkpt>
      <trkpt lat="47.27843" lon="6.89601">
        <ele>854.9</ele>
        <time>2024-05-08T11:25:46Z</time>
      </trkpt>
      <trkpt lat="47.2786" lon="6.89626">
        <ele>855.6</ele>
        <time>2024-05-08T11:25:57Z</time>
      </trkpt>
      <trkpt lat="47.27855" lon="6.8965">
        <ele>856.7</ele>
        <time>2024-05-08T11:26:08Z</time>
      </trkpt>
      <trkpt lat="47.2783" lon="6.89671">
        <ele>855.1</ele>
        <time>2024-05-08T11:26:19Z</time>
      </trkpt>
      <trkpt lat="47.27784" lon="6.89703">
        <ele>850.8</ele>
        <time>2024-05-08T11:26:30Z</time>
      </trkpt>
      <trkpt lat="47.27752" lon="6.89749">
        <ele>848.4</ele>
        <time>2024-05-08T11:26:40Z</time>
      </trkpt>
      <trkpt lat="47.27738" lon="6.89753">
        <ele>847.8</ele>
        <time>2024-05-08T11:26:51Z</time>
      </trkpt>
      <trkpt lat="47.27738" lon="6.89754">
        <ele>847.8</ele>
        <time>2024-05-08T11:27:01Z</time>
      </trkpt>
      <trkpt lat="47.27738" lon="6.89754">
        <ele>847.8</ele>
        <time>2024-05-08T11:27:12Z</time>
      </trkpt>
      <trkpt lat="47.27737" lon="6.89756">
        <ele>847.7</ele>
        <time>2024-05-08T11:27:23Z</time>
      </trkpt>
      <trkpt lat="47.27737" lon="6.89756">
        <ele>847.7</ele>
        <time>2024-05-08T11:27:34Z</time>
      </trkpt>
      <trkpt lat="47.27732" lon="6.89776">
        <ele>847.2</ele>
        <time>2024-05-08T11:27:44Z</time>
      </trkpt>
      <trkpt lat="47.2774" lon="6.89825">
        <ele>847.4</ele>
        <time>2024-05-08T11:27:54Z</time>
      </trkpt>
      <trkpt lat="47.2775" lon="6.89882">
        <ele>848</ele>
        <time>2024-05-08T11:28:05Z</time>
      </trkpt>
      <trkpt lat="47.2776" lon="6.89941">
        <ele>848.6</ele>
        <time>2024-05-08T11:28:16Z</time>
      </trkpt>
      <trkpt lat="47.27765" lon="6.89994">
        <ele>849.2</ele>
        <time>2024-05-08T11:28:26Z</time>
      </trkpt>
      <trkpt lat="47.27777" lon="6.90056">
        <ele>850</ele>
        <time>2024-05-08T11:28:37Z</time>
      </trkpt>
      <trkpt lat="47.27791" lon="6.90111">
        <ele>850.6</ele>
        <time>2024-05-08T11:28:47Z</time>
      </trkpt>
      <trkpt lat="47.27811" lon="6.90167">
        <ele>851.1</ele>
        <time>2024-05-08T11:28:58Z</time>
      </trkpt>
      <trkpt lat="47.27834" lon="6.90225">
        <ele>851</ele>
        <time>2024-05-08T11:29:08Z</time>
      </trkpt>
      <trkpt lat="47.27856" lon="6.90284">
        <ele>850.7</ele>
        <time>2024-05-08T11:29:18Z</time>
      </trkpt>
      <trkpt lat="47.27875" lon="6.90354">
        <ele>850.7</ele>
        <time>2024-05-08T11:29:29Z</time>
      </trkpt>
      <trkpt lat="47.27891" lon="6.90422">
        <ele>851.1</ele>
        <time>2024-05-08T11:29:40Z</time>
      </trkpt>
      <trkpt lat="47.27906" lon="6.90482">
        <ele>851.5</ele>
        <time>2024-05-08T11:29:50Z</time>
      </trkpt>
      <trkpt lat="47.27919" lon="6.90539">
        <ele>852.5</ele>
        <time>2024-05-08T11:30:00Z</time>
      </trkpt>
      <trkpt lat="47.27932" lon="6.90591">
        <ele>853.7</ele>
        <time>2024-05-08T11:30:11Z</time>
      </trkpt>
      <trkpt lat="47.27945" lon="6.90646">
        <ele>855</ele>
        <time>2024-05-08T11:30:21Z</time>
      </trkpt>
      <trkpt lat="47.27956" lon="6.90701">
        <ele>856.2</ele>
        <time>2024-05-08T11:30:32Z</time>
      </trkpt>
      <trkpt lat="47.27966" lon="6.90751">
        <ele>857.3</ele>
        <time>2024-05-08T11:30:42Z</time>
      </trkpt>
      <trkpt lat="47.27975" lon="6.90809">
        <ele>858.2</ele>
        <time>2024-05-08T11:30:53Z</time>
      </trkpt>
      <trkpt lat="47.27985" lon="6.90867">
        <ele>859</ele>
        <time>2024-05-08T11:31:04Z</time>
      </trkpt>
      <trkpt lat="47.27992" lon="6.9092">
        <ele>859.9</ele>
        <time>2024-05-08T11:31:14Z</time>
      </trkpt>
      <trkpt lat="47.28002" lon="6.90971">
        <ele>861.1</ele>
        <time>2024-05-08T11:31:25Z</time>
      </trkpt>
      <trkpt lat="47.28016" lon="6.91025">
        <ele>862.1</ele>
        <time>2024-05-08T11:31:35Z</time>
      </trkpt>
      <trkpt lat="47.28002" lon="6.91061">
        <ele>863.1</ele>
        <time>2024-05-08T11:31:46Z</time>
      </trkpt>
      <trkpt lat="47.27963" lon="6.91044">
        <ele>864.4</ele>
        <time>2024-05-08T11:31:57Z</time>
      </trkpt>
      <trkpt lat="47.27937" lon="6.91031">
        <ele>866.6</ele>
        <time>2024-05-08T11:32:07Z</time>
      </trkpt>
      <trkpt lat="47.27925" lon="6.91059">
        <ele>868.5</ele>
        <time>2024-05-08T11:32:18Z</time>
      </trkpt>
      <trkpt lat="47.27932" lon="6.91094">
        <ele>871</ele>
        <time>2024-05-08T11:32:29Z</time>
      </trkpt>
      <trkpt lat="47.27939" lon="6.91124">
        <ele>873.3</ele>
        <time>2024-05-08T11:32:39Z</time>
      </trkpt>
      <trkpt lat="47.27946" lon="6.91159">
        <ele>875.8</ele>
        <time>2024-05-08T11:32:50Z</time>
      </trkpt>
      <trkpt lat="47.27953" lon="6.91196">
        <ele>877.4</ele>
        <time>2024-05-08T11:33:00Z</time>
      </trkpt>
      <trkpt lat="47.27952" lon="6.91242">
        <ele>878.4</ele>
        <time>2024-05-08T11:33:11Z</time>
      </trkpt>
      <trkpt lat="47.27951" lon="6.91297">
        <ele>877.8</ele>
        <time>2024-05-08T11:33:22Z</time>
      </trkpt>
      <trkpt lat="47.27944" lon="6.91368">
        <ele>874.2</ele>
        <time>2024-05-08T11:33:33Z</time>
      </trkpt>
      <trkpt lat="47.27942" lon="6.91446">
        <ele>870.5</ele>
        <time>2024-05-08T11:33:44Z</time>
      </trkpt>
      <trkpt lat="47.27905" lon="6.91483">
        <ele>866.5</ele>
        <time>2024-05-08T11:33:54Z</time>
      </trkpt>
      <trkpt lat="47.27873" lon="6.91509">
        <ele>866</ele>
        <time>2024-05-08T11:34:05Z</time>
      </trkpt>
      <trkpt lat="47.27833" lon="6.91507">
        <ele>867</ele>
        <time>2024-05-08T11:34:15Z</time>
      </trkpt>
      <trkpt lat="47.27792" lon="6.91506">
        <ele>867.9</ele>
        <time>2024-05-08T11:34:25Z</time>
      </trkpt>
      <trkpt lat="47.27747" lon="6.91506">
        <ele>869</ele>
        <time>2024-05-08T11:34:36Z</time>
      </trkpt>
      <trkpt lat="47.27709" lon="6.91501">
        <ele>870.4</ele>
        <time>2024-05-08T11:34:47Z</time>
      </trkpt>
      <trkpt lat="47.27675" lon="6.91496">
        <ele>872.4</ele>
        <time>2024-05-08T11:34:58Z</time>
      </trkpt>
      <trkpt lat="47.27647" lon="6.91496">
        <ele>874.4</ele>
        <time>2024-05-08T11:35:08Z</time>
      </trkpt>
      <trkpt lat="47.27619" lon="6.91489">
        <ele>876.6</ele>
        <time>2024-05-08T11:35:19Z</time>
      </trkpt>
      <trkpt lat="47.27597" lon="6.91483">
        <ele>878.6</ele>
        <time>2024-05-08T11:35:29Z</time>
      </trkpt>
      <trkpt lat="47.27574" lon="6.91479">
        <ele>880.9</ele>
        <time>2024-05-08T11:35:40Z</time>
      </trkpt>
      <trkpt lat="47.27552" lon="6.91479">
        <ele>882.9</ele>
        <time>2024-05-08T11:35:50Z</time>
      </trkpt>
      <trkpt lat="47.2753" lon="6.91482">
        <ele>885</ele>
        <time>2024-05-08T11:36:01Z</time>
      </trkpt>
      <trkpt lat="47.27505" lon="6.91478">
        <ele>887.3</ele>
        <time>2024-05-08T11:36:11Z</time>
      </trkpt>
      <trkpt lat="47.27484" lon="6.91457">
        <ele>889.6</ele>
        <time>2024-05-08T11:36:22Z</time>
      </trkpt>
      <trkpt lat="47.2747" lon="6.91432">
        <ele>891.4</ele>
        <time>2024-05-08T11:36:32Z</time>
      </trkpt>
      <trkpt lat="47.27456" lon="6.91408">
        <ele>893.1</ele>
        <time>2024-05-08T11:36:42Z</time>
      </trkpt>
      <trkpt lat="47.27439" lon="6.91388">
        <ele>895.1</ele>
        <time>2024-05-08T11:36:52Z</time>
      </trkpt>
      <trkpt lat="47.27421" lon="6.91372">
        <ele>896.6</ele>
        <time>2024-05-08T11:37:03Z</time>
      </trkpt>
      <trkpt lat="47.27402" lon="6.91359">
        <ele>896.9</ele>
        <time>2024-05-08T11:37:13Z</time>
      </trkpt>
      <trkpt lat="47.27384" lon="6.91357">
        <ele>896.7</ele>
        <time>2024-05-08T11:37:24Z</time>
      </trkpt>
      <trkpt lat="47.27351" lon="6.91351">
        <ele>896.6</ele>
        <time>2024-05-08T11:37:36Z</time>
      </trkpt>
      <trkpt lat="47.27314" lon="6.91336">
        <ele>896.8</ele>
        <time>2024-05-08T11:37:47Z</time>
      </trkpt>
      <trkpt lat="47.2728" lon="6.91324">
        <ele>897.7</ele>
        <time>2024-05-08T11:37:57Z</time>
      </trkpt>
      <trkpt lat="47.27248" lon="6.91312">
        <ele>899.3</ele>
        <time>2024-05-08T11:38:07Z</time>
      </trkpt>
      <trkpt lat="47.27215" lon="6.91301">
        <ele>901.2</ele>
        <time>2024-05-08T11:38:17Z</time>
      </trkpt>
      <trkpt lat="47.27185" lon="6.91294">
        <ele>902.6</ele>
        <time>2024-05-08T11:38:27Z</time>
      </trkpt>
      <trkpt lat="47.27148" lon="6.91289">
        <ele>903</ele>
        <time>2024-05-08T11:38:38Z</time>
      </trkpt>
      <trkpt lat="47.27104" lon="6.9129">
        <ele>902.4</ele>
        <time>2024-05-08T11:38:49Z</time>
      </trkpt>
      <trkpt lat="47.27065" lon="6.91295">
        <ele>902.2</ele>
        <time>2024-05-08T11:38:59Z</time>
      </trkpt>
      <trkpt lat="47.27033" lon="6.91307">
        <ele>902.8</ele>
        <time>2024-05-08T11:39:09Z</time>
      </trkpt>
      <trkpt lat="47.27001" lon="6.91319">
        <ele>903.2</ele>
        <time>2024-05-08T11:39:20Z</time>
      </trkpt>
      <trkpt lat="47.26962" lon="6.91342">
        <ele>903.4</ele>
        <time>2024-05-08T11:39:31Z</time>
      </trkpt>
      <trkpt lat="47.26944" lon="6.91395">
        <ele>903.2</ele>
        <time>2024-05-08T11:39:42Z</time>
      </trkpt>
      <trkpt lat="47.26923" lon="6.91459">
        <ele>903.1</ele>
        <time>2024-05-08T11:39:53Z</time>
      </trkpt>
      <trkpt lat="47.26919" lon="6.9152">
        <ele>903.6</ele>
        <time>2024-05-08T11:40:03Z</time>
      </trkpt>
      <trkpt lat="47.26926" lon="6.91575">
        <ele>904</ele>
        <time>2024-05-08T11:40:14Z</time>
      </trkpt>
      <trkpt lat="47.26931" lon="6.91645">
        <ele>905.5</ele>
        <time>2024-05-08T11:40:25Z</time>
      </trkpt>
      <trkpt lat="47.26929" lon="6.91686">
        <ele>907.9</ele>
        <time>2024-05-08T11:40:35Z</time>
      </trkpt>
      <trkpt lat="47.26919" lon="6.91703">
        <ele>909.9</ele>
        <time>2024-05-08T11:40:46Z</time>
      </trkpt>
      <trkpt lat="47.26909" lon="6.91722">
        <ele>912.5</ele>
        <time>2024-05-08T11:40:57Z</time>
      </trkpt>
      <trkpt lat="47.2691" lon="6.91738">
        <ele>914.5</ele>
        <time>2024-05-08T11:41:07Z</time>
      </trkpt>
      <trkpt lat="47.26919" lon="6.91754">
        <ele>916.9</ele>
        <time>2024-05-08T11:41:18Z</time>
      </trkpt>
      <trkpt lat="47.26933" lon="6.91767">
        <ele>919.4</ele>
        <time>2024-05-08T11:41:28Z</time>
      </trkpt>
      <trkpt lat="47.26949" lon="6.9178">
        <ele>921.9</ele>
        <time>2024-05-08T11:41:39Z</time>
      </trkpt>
      <trkpt lat="47.26943" lon="6.91797">
        <ele>923.5</ele>
        <time>2024-05-08T11:41:50Z</time>
      </trkpt>
      <trkpt lat="47.26934" lon="6.91811">
        <ele>924.9</ele>
        <time>2024-05-08T11:42:00Z</time>
      </trkpt>
      <trkpt lat="47.26926" lon="6.91836">
        <ele>927</ele>
        <time>2024-05-08T11:42:11Z</time>
      </trkpt>
      <trkpt lat="47.26914" lon="6.91859">
        <ele>929.9</ele>
        <time>2024-05-08T11:42:21Z</time>
      </trkpt>
      <trkpt lat="47.26911" lon="6.91881">
        <ele>932.9</ele>
        <time>2024-05-08T11:42:32Z</time>
      </trkpt>
      <trkpt lat="47.2691" lon="6.919">
        <ele>935.5</ele>
        <time>2024-05-08T11:42:43Z</time>
      </trkpt>
      <trkpt lat="47.26905" lon="6.91919">
        <ele>938.2</ele>
        <time>2024-05-08T11:42:54Z</time>
      </trkpt>
      <trkpt lat="47.26909" lon="6.91939">
        <ele>940.8</ele>
        <time>2024-05-08T11:43:05Z</time>
      </trkpt>
      <trkpt lat="47.26911" lon="6.9196">
        <ele>943.3</ele>
        <time>2024-05-08T11:43:15Z</time>
      </trkpt>
      <trkpt lat="47.26911" lon="6.91982">
        <ele>945.8</ele>
        <time>2024-05-08T11:43:26Z</time>
      </trkpt>
      <trkpt lat="47.26916" lon="6.92005">
        <ele>948.3</ele>
        <time>2024-05-08T11:43:37Z</time>
      </trkpt>
      <trkpt lat="47.26921" lon="6.92025">
        <ele>950.5</ele>
        <time>2024-05-08T11:43:47Z</time>
      </trkpt>
      <trkpt lat="47.26924" lon="6.92049">
        <ele>953.2</ele>
        <time>2024-05-08T11:43:58Z</time>
      </trkpt>
      <trkpt lat="47.26928" lon="6.9207">
        <ele>955.6</ele>
        <time>2024-05-08T11:44:08Z</time>
      </trkpt>
      <trkpt lat="47.2693" lon="6.92093">
        <ele>958.3</ele>
        <time>2024-05-08T11:44:19Z</time>
      </trkpt>
      <trkpt lat="47.26934" lon="6.92115">
        <ele>960.9</ele>
        <time>2024-05-08T11:44:30Z</time>
      </trkpt>
      <trkpt lat="47.2694" lon="6.92139">
        <ele>963.3</ele>
        <time>2024-05-08T11:44:41Z</time>
      </trkpt>
      <trkpt lat="47.26946" lon="6.92164">
        <ele>965.4</ele>
        <time>2024-05-08T11:44:52Z</time>
      </trkpt>
      <trkpt lat="47.26949" lon="6.92187">
        <ele>967.2</ele>
        <time>2024-05-08T11:45:02Z</time>
      </trkpt>
      <trkpt lat="47.26951" lon="6.92208">
        <ele>968.7</ele>
        <time>2024-05-08T11:45:12Z</time>
      </trkpt>
      <trkpt lat="47.26938" lon="6.92225">
        <ele>969.8</ele>
        <time>2024-05-08T11:45:23Z</time>
      </trkpt>
      <trkpt lat="47.26913" lon="6.92222">
        <ele>970.4</ele>
        <time>2024-05-08T11:45:33Z</time>
      </trkpt>
      <trkpt lat="47.26883" lon="6.92223">
        <ele>971.2</ele>
        <time>2024-05-08T11:45:44Z</time>
      </trkpt>
      <trkpt lat="47.26862" lon="6.92239">
        <ele>972.6</ele>
        <time>2024-05-08T11:45:54Z</time>
      </trkpt>
      <trkpt lat="47.26849" lon="6.92259">
        <ele>974.3</ele>
        <time>2024-05-08T11:46:05Z</time>
      </trkpt>
      <trkpt lat="47.26833" lon="6.92274">
        <ele>975.3</ele>
        <time>2024-05-08T11:46:15Z</time>
      </trkpt>
      <trkpt lat="47.26821" lon="6.92283">
        <ele>974.9</ele>
        <time>2024-05-08T11:46:26Z</time>
      </trkpt>
      <trkpt lat="47.2679" lon="6.92315">
        <ele>972.9</ele>
        <time>2024-05-08T11:46:36Z</time>
      </trkpt>
      <trkpt lat="47.26792" lon="6.92323">
        <ele>972.7</ele>
        <time>2024-05-08T11:46:47Z</time>
      </trkpt>
      <trkpt lat="47.26793" lon="6.92324">
        <ele>972.7</ele>
        <time>2024-05-08T11:46:57Z</time>
      </trkpt>
      <trkpt lat="47.26793" lon="6.92324">
        <ele>972.7</ele>
        <time>2024-05-08T11:47:07Z</time>
      </trkpt>
      <trkpt lat="47.26793" lon="6.92324">
        <ele>972.7</ele>
        <time>2024-05-08T11:47:18Z</time>
      </trkpt>
      <trkpt lat="47.26793" lon="6.92324">
        <ele>972.7</ele>
        <time>2024-05-08T11:47:29Z</time>
      </trkpt>
      <trkpt lat="47.26793" lon="6.92322">
        <ele>972.7</ele>
        <time>2024-05-08T11:47:39Z</time>
      </trkpt>
      <trkpt lat="47.26793" lon="6.92322">
        <ele>972.7</ele>
        <time>2024-05-08T11:47:50Z</time>
      </trkpt>
      <trkpt lat="47.26793" lon="6.92322">
        <ele>972.7</ele>
        <time>2024-05-08T11:48:00Z</time>
      </trkpt>
      <trkpt lat="47.26795" lon="6.9232">
        <ele>972.6</ele>
        <time>2024-05-08T11:48:11Z</time>
      </trkpt>
      <trkpt lat="47.26795" lon="6.9232">
        <ele>972.6</ele>
        <time>2024-05-08T11:48:22Z</time>
      </trkpt>
      <trkpt lat="47.26795" lon="6.9232">
        <ele>972.6</ele>
        <time>2024-05-08T11:48:33Z</time>
      </trkpt>
      <trkpt lat="47.26795" lon="6.9232">
        <ele>972.6</ele>
        <time>2024-05-08T11:48:43Z</time>
      </trkpt>
      <trkpt lat="47.26795" lon="6.9232">
        <ele>972.6</ele>
        <time>2024-05-08T11:48:53Z</time>
      </trkpt>
      <trkpt lat="47.26795" lon="6.9232">
        <ele>972.6</ele>
        <time>2024-05-08T11:49:04Z</time>
      </trkpt>
      <trkpt lat="47.26795" lon="6.9232">
        <ele>972.6</ele>
        <time>2024-05-08T11:49:15Z</time>
      </trkpt>
      <trkpt lat="47.26795" lon="6.9232">
        <ele>972.6</ele>
        <time>2024-05-08T11:49:25Z</time>
      </trkpt>
      <trkpt lat="47.26795" lon="6.9232">
        <ele>972.6</ele>
        <time>2024-05-08T11:49:35Z</time>
      </trkpt>
      <trkpt lat="47.26793" lon="6.9232">
        <ele>972.5</ele>
        <time>2024-05-08T11:49:46Z</time>
      </trkpt>
      <trkpt lat="47.26792" lon="6.92321">
        <ele>972.5</ele>
        <time>2024-05-08T11:49:57Z</time>
      </trkpt>
      <trkpt lat="47.26794" lon="6.9232">
        <ele>972.4</ele>
        <time>2024-05-08T11:50:08Z</time>
      </trkpt>
      <trkpt lat="47.26794" lon="6.9232">
        <ele>972.4</ele>
        <time>2024-05-08T11:50:19Z</time>
      </trkpt>
      <trkpt lat="47.26792" lon="6.92318">
        <ele>972.4</ele>
        <time>2024-05-08T11:50:30Z</time>
      </trkpt>
      <trkpt lat="47.26786" lon="6.92317">
        <ele>972.2</ele>
        <time>2024-05-08T11:50:41Z</time>
      </trkpt>
      <trkpt lat="47.26786" lon="6.92317">
        <ele>972.2</ele>
        <time>2024-05-08T11:50:52Z</time>
      </trkpt>
      <trkpt lat="47.26786" lon="6.92317">
        <ele>972.2</ele>
        <time>2024-05-08T11:51:02Z</time>
      </trkpt>
      <trkpt lat="47.26786" lon="6.92317">
        <ele>972.2</ele>
        <time>2024-05-08T11:51:13Z</time>
      </trkpt>
      <trkpt lat="47.26786" lon="6.92317">
        <ele>972.2</ele>
        <time>2024-05-08T11:51:23Z</time>
      </trkpt>
      <trkpt lat="47.26786" lon="6.92318">
        <ele>972.2</ele>
        <time>2024-05-08T11:51:34Z</time>
      </trkpt>
      <trkpt lat="47.26786" lon="6.92318">
        <ele>972.2</ele>
        <time>2024-05-08T11:51:44Z</time>
      </trkpt>
      <trkpt lat="47.26786" lon="6.92318">
        <ele>972.2</ele>
        <time>2024-05-08T11:51:55Z</time>
      </trkpt>
      <trkpt lat="47.26786" lon="6.92318">
        <ele>972.2</ele>
        <time>2024-05-08T11:52:06Z</time>
      </trkpt>
      <trkpt lat="47.26786" lon="6.92318">
        <ele>972.2</ele>
        <time>2024-05-08T11:52:17Z</time>
      </trkpt>
      <trkpt lat="47.26786" lon="6.92318">
        <ele>972.2</ele>
        <time>2024-05-08T11:52:27Z</time>
      </trkpt>
      <trkpt lat="47.26786" lon="6.92318">
        <ele>972.2</ele>
        <time>2024-05-08T11:52:38Z</time>
      </trkpt>
      <trkpt lat="47.26786" lon="6.92318">
        <ele>972.2</ele>
        <time>2024-05-08T11:52:49Z</time>
      </trkpt>
      <trkpt lat="47.26786" lon="6.92318">
        <ele>972.2</ele>
        <time>2024-05-08T11:52:59Z</time>
      </trkpt>
      <trkpt lat="47.26786" lon="6.92318">
        <ele>972.2</ele>
        <time>2024-05-08T11:53:10Z</time>
      </trkpt>
      <trkpt lat="47.26786" lon="6.92318">
        <ele>972.2</ele>
        <time>2024-05-08T11:53:20Z</time>
      </trkpt>
      <trkpt lat="47.26786" lon="6.92318">
        <ele>972.2</ele>
        <time>2024-05-08T11:53:31Z</time>
      </trkpt>
      <trkpt lat="47.26786" lon="6.92318">
        <ele>972.2</ele>
        <time>2024-05-08T11:53:42Z</time>
      </trkpt>
      <trkpt lat="47.26786" lon="6.92318">
        <ele>972.2</ele>
        <time>2024-05-08T11:53:52Z</time>
      </trkpt>
      <trkpt lat="47.26786" lon="6.92318">
        <ele>972.2</ele>
        <time>2024-05-08T11:54:02Z</time>
      </trkpt>
      <trkpt lat="47.26786" lon="6.92318">
        <ele>972.2</ele>
        <time>2024-05-08T11:54:13Z</time>
      </trkpt>
      <trkpt lat="47.26786" lon="6.92318">
        <ele>972.2</ele>
        <time>2024-05-08T11:54:23Z</time>
      </trkpt>
      <trkpt lat="47.26786" lon="6.92318">
        <ele>972.2</ele>
        <time>2024-05-08T11:54:34Z</time>
      </trkpt>
      <trkpt lat="47.26786" lon="6.92318">
        <ele>972.2</ele>
        <time>2024-05-08T11:54:44Z</time>
      </trkpt>
      <trkpt lat="47.26786" lon="6.92318">
        <ele>972.2</ele>
        <time>2024-05-08T11:54:55Z</time>
      </trkpt>
      <trkpt lat="47.26786" lon="6.92318">
        <ele>972.2</ele>
        <time>2024-05-08T11:55:06Z</time>
      </trkpt>
      <trkpt lat="47.26786" lon="6.92317">
        <ele>972.2</ele>
        <time>2024-05-08T11:55:16Z</time>
      </trkpt>
      <trkpt lat="47.26786" lon="6.92317">
        <ele>972.2</ele>
        <time>2024-05-08T11:55:27Z</time>
      </trkpt>
      <trkpt lat="47.26786" lon="6.92317">
        <ele>972.2</ele>
        <time>2024-05-08T11:55:38Z</time>
      </trkpt>
      <trkpt lat="47.26786" lon="6.92317">
        <ele>972.2</ele>
        <time>2024-05-08T11:55:49Z</time>
      </trkpt>
      <trkpt lat="47.26786" lon="6.92317">
        <ele>972.2</ele>
        <time>2024-05-08T11:55:59Z</time>
      </trkpt>
      <trkpt lat="47.26786" lon="6.92317">
        <ele>972.2</ele>
        <time>2024-05-08T11:56:09Z</time>
      </trkpt>
      <trkpt lat="47.26786" lon="6.92317">
        <ele>972.2</ele>
        <time>2024-05-08T11:56:20Z</time>
      </trkpt>
      <trkpt lat="47.26786" lon="6.92317">
        <ele>972.2</ele>
        <time>2024-05-08T11:56:31Z</time>
      </trkpt>
      <trkpt lat="47.26786" lon="6.92317">
        <ele>972.2</ele>
        <time>2024-05-08T11:56:42Z</time>
      </trkpt>
      <trkpt lat="47.26785" lon="6.92318">
        <ele>972.2</ele>
        <time>2024-05-08T11:56:53Z</time>
      </trkpt>
      <trkpt lat="47.26785" lon="6.92318">
        <ele>972.2</ele>
        <time>2024-05-08T11:57:03Z</time>
      </trkpt>
      <trkpt lat="47.26785" lon="6.92318">
        <ele>972.2</ele>
        <time>2024-05-08T11:57:13Z</time>
      </trkpt>
      <trkpt lat="47.26785" lon="6.92318">
        <ele>972.2</ele>
        <time>2024-05-08T11:57:24Z</time>
      </trkpt>
      <trkpt lat="47.26793" lon="6.92354">
        <ele>972.1</ele>
        <time>2024-05-08T11:59:48Z</time>
      </trkpt>
      <trkpt lat="47.26785" lon="6.92312">
        <ele>972</ele>
        <time>2024-05-08T11:59:58Z</time>
      </trkpt>
      <trkpt lat="47.26785" lon="6.92312">
        <ele>972</ele>
        <time>2024-05-08T12:00:08Z</time>
      </trkpt>
      <trkpt lat="47.26785" lon="6.92312">
        <ele>972</ele>
        <time>2024-05-08T12:00:19Z</time>
      </trkpt>
      <trkpt lat="47.26785" lon="6.92312">
        <ele>972</ele>
        <time>2024-05-08T12:00:29Z</time>
      </trkpt>
      <trkpt lat="47.26785" lon="6.92312">
        <ele>972</ele>
        <time>2024-05-08T12:00:39Z</time>
      </trkpt>
      <trkpt lat="47.26784" lon="6.92311">
        <ele>972.2</ele>
        <time>2024-05-08T12:00:50Z</time>
      </trkpt>
      <trkpt lat="47.26784" lon="6.92311">
        <ele>972.2</ele>
        <time>2024-05-08T12:01:01Z</time>
      </trkpt>
      <trkpt lat="47.26784" lon="6.92311">
        <ele>972.2</ele>
        <time>2024-05-08T12:01:12Z</time>
      </trkpt>
      <trkpt lat="47.26783" lon="6.92314">
        <ele>972.1</ele>
        <time>2024-05-08T12:01:22Z</time>
      </trkpt>
      <trkpt lat="47.26782" lon="6.92315">
        <ele>972</ele>
        <time>2024-05-08T12:01:32Z</time>
      </trkpt>
      <trkpt lat="47.26782" lon="6.92315">
        <ele>972</ele>
        <time>2024-05-08T12:01:43Z</time>
      </trkpt>
      <trkpt lat="47.26782" lon="6.92315">
        <ele>972</ele>
        <time>2024-05-08T12:01:53Z</time>
      </trkpt>
      <trkpt lat="47.26782" lon="6.92315">
        <ele>972</ele>
        <time>2024-05-08T12:02:04Z</time>
      </trkpt>
      <trkpt lat="47.26782" lon="6.92315">
        <ele>972</ele>
        <time>2024-05-08T12:02:15Z</time>
      </trkpt>
      <trkpt lat="47.26782" lon="6.92315">
        <ele>972</ele>
        <time>2024-05-08T12:02:25Z</time>
      </trkpt>
      <trkpt lat="47.26782" lon="6.92315">
        <ele>972</ele>
        <time>2024-05-08T12:02:36Z</time>
      </trkpt>
      <trkpt lat="47.26782" lon="6.92315">
        <ele>972</ele>
        <time>2024-05-08T12:02:46Z</time>
      </trkpt>
      <trkpt lat="47.26782" lon="6.92315">
        <ele>972</ele>
        <time>2024-05-08T12:02:57Z</time>
      </trkpt>
      <trkpt lat="47.26783" lon="6.92319">
        <ele>971.8</ele>
        <time>2024-05-08T12:03:08Z</time>
      </trkpt>
      <trkpt lat="47.26781" lon="6.92324">
        <ele>971.4</ele>
        <time>2024-05-08T12:03:18Z</time>
      </trkpt>
      <trkpt lat="47.26751" lon="6.92323">
        <ele>967.5</ele>
        <time>2024-05-08T12:03:29Z</time>
      </trkpt>
      <trkpt lat="47.26717" lon="6.92313">
        <ele>962</ele>
        <time>2024-05-08T12:03:40Z</time>
      </trkpt>
      <trkpt lat="47.26689" lon="6.92298">
        <ele>956.4</ele>
        <time>2024-05-08T12:03:50Z</time>
      </trkpt>
      <trkpt lat="47.26656" lon="6.92299">
        <ele>950.4</ele>
        <time>2024-05-08T12:04:00Z</time>
      </trkpt>
      <trkpt lat="47.26612" lon="6.92289">
        <ele>944.8</ele>
        <time>2024-05-08T12:04:11Z</time>
      </trkpt>
      <trkpt lat="47.2658" lon="6.92277">
        <ele>940.4</ele>
        <time>2024-05-08T12:04:21Z</time>
      </trkpt>
      <trkpt lat="47.26552" lon="6.92232">
        <ele>938.2</ele>
        <time>2024-05-08T12:04:32Z</time>
      </trkpt>
      <trkpt lat="47.26516" lon="6.92149">
        <ele>935.4</ele>
        <time>2024-05-08T12:04:43Z</time>
      </trkpt>
      <trkpt lat="47.26485" lon="6.92092">
        <ele>937.3</ele>
        <time>2024-05-08T12:04:54Z</time>
      </trkpt>
      <trkpt lat="47.26458" lon="6.92049">
        <ele>938.4</ele>
        <time>2024-05-08T12:05:05Z</time>
      </trkpt>
      <trkpt lat="47.26432" lon="6.9202">
        <ele>938.9</ele>
        <time>2024-05-08T12:05:16Z</time>
      </trkpt>
      <trkpt lat="47.26403" lon="6.91979">
        <ele>939</ele>
        <time>2024-05-08T12:05:26Z</time>
      </trkpt>
      <trkpt lat="47.26376" lon="6.9193">
        <ele>939.4</ele>
        <time>2024-05-08T12:05:36Z</time>
      </trkpt>
      <trkpt lat="47.26353" lon="6.9188">
        <ele>940.7</ele>
        <time>2024-05-08T12:05:47Z</time>
      </trkpt>
      <trkpt lat="47.26328" lon="6.91842">
        <ele>942.1</ele>
        <time>2024-05-08T12:05:58Z</time>
      </trkpt>
      <trkpt lat="47.26303" lon="6.91811">
        <ele>941.7</ele>
        <time>2024-05-08T12:06:09Z</time>
      </trkpt>
      <trkpt lat="47.2625" lon="6.91798">
        <ele>937.2</ele>
        <time>2024-05-08T12:06:19Z</time>
      </trkpt>
      <trkpt lat="47.262" lon="6.91851">
        <ele>936</ele>
        <time>2024-05-08T12:06:30Z</time>
      </trkpt>
      <trkpt lat="47.26174" lon="6.91888">
        <ele>938</ele>
        <time>2024-05-08T12:06:41Z</time>
      </trkpt>
      <trkpt lat="47.26165" lon="6.9193">
        <ele>940.6</ele>
        <time>2024-05-08T12:06:53Z</time>
      </trkpt>
      <trkpt lat="47.2616" lon="6.91971">
        <ele>943.2</ele>
        <time>2024-05-08T12:07:05Z</time>
      </trkpt>
      <trkpt lat="47.26153" lon="6.92002">
        <ele>944.9</ele>
        <time>2024-05-08T12:07:15Z</time>
      </trkpt>
      <trkpt lat="47.26143" lon="6.9203">
        <ele>946.2</ele>
        <time>2024-05-08T12:07:25Z</time>
      </trkpt>
      <trkpt lat="47.26133" lon="6.92063">
        <ele>947.8</ele>
        <time>2024-05-08T12:07:36Z</time>
      </trkpt>
      <trkpt lat="47.26121" lon="6.92092">
        <ele>949.4</ele>
        <time>2024-05-08T12:07:47Z</time>
      </trkpt>
      <trkpt lat="47.26099" lon="6.92127">
        <ele>950.7</ele>
        <time>2024-05-08T12:07:57Z</time>
      </trkpt>
      <trkpt lat="47.26086" lon="6.92175">
        <ele>952.4</ele>
        <time>2024-05-08T12:08:08Z</time>
      </trkpt>
      <trkpt lat="47.26076" lon="6.9221">
        <ele>954.7</ele>
        <time>2024-05-08T12:08:18Z</time>
      </trkpt>
      <trkpt lat="47.26076" lon="6.92245">
        <ele>957.3</ele>
        <time>2024-05-08T12:08:29Z</time>
      </trkpt>
      <trkpt lat="47.26073" lon="6.92279">
        <ele>959.3</ele>
        <time>2024-05-08T12:08:39Z</time>
      </trkpt>
      <trkpt lat="47.26065" lon="6.92314">
        <ele>961.1</ele>
        <time>2024-05-08T12:08:50Z</time>
      </trkpt>
      <trkpt lat="47.26059" lon="6.92348">
        <ele>962.5</ele>
        <time>2024-05-08T12:09:01Z</time>
      </trkpt>
      <trkpt lat="47.26038" lon="6.92402">
        <ele>962.8</ele>
        <time>2024-05-08T12:09:12Z</time>
      </trkpt>
      <trkpt lat="47.26004" lon="6.92444">
        <ele>962.7</ele>
        <time>2024-05-08T12:09:23Z</time>
      </trkpt>
      <trkpt lat="47.2597" lon="6.92486">
        <ele>962.3</ele>
        <time>2024-05-08T12:09:33Z</time>
      </trkpt>
      <trkpt lat="47.25934" lon="6.92529">
        <ele>961.9</ele>
        <time>2024-05-08T12:09:43Z</time>
      </trkpt>
      <trkpt lat="47.25895" lon="6.92571">
        <ele>959.8</ele>
        <time>2024-05-08T12:09:53Z</time>
      </trkpt>
      <trkpt lat="47.25833" lon="6.92535">
        <ele>957.4</ele>
        <time>2024-05-08T12:10:04Z</time>
      </trkpt>
      <trkpt lat="47.25799" lon="6.9248">
        <ele>958.7</ele>
        <time>2024-05-08T12:10:14Z</time>
      </trkpt>
      <trkpt lat="47.25779" lon="6.92424">
        <ele>960.5</ele>
        <time>2024-05-08T12:10:25Z</time>
      </trkpt>
      <trkpt lat="47.25764" lon="6.92389">
        <ele>961.3</ele>
        <time>2024-05-08T12:10:35Z</time>
      </trkpt>
      <trkpt lat="47.25765" lon="6.92395">
        <ele>961.4</ele>
        <time>2024-05-08T12:10:46Z</time>
      </trkpt>
      <trkpt lat="47.2575" lon="6.92413">
        <ele>961.6</ele>
        <time>2024-05-08T12:10:57Z</time>
      </trkpt>
      <trkpt lat="47.2572" lon="6.92421">
        <ele>961.6</ele>
        <time>2024-05-08T12:11:08Z</time>
      </trkpt>
      <trkpt lat="47.25715" lon="6.92429">
        <ele>961.6</ele>
        <time>2024-05-08T12:11:18Z</time>
      </trkpt>
      <trkpt lat="47.25737" lon="6.92417">
        <ele>961.7</ele>
        <time>2024-05-08T12:11:29Z</time>
      </trkpt>
      <trkpt lat="47.25763" lon="6.92415">
        <ele>961.2</ele>
        <time>2024-05-08T12:11:39Z</time>
      </trkpt>
      <trkpt lat="47.25757" lon="6.92377">
        <ele>962.6</ele>
        <time>2024-05-08T12:11:50Z</time>
      </trkpt>
      <trkpt lat="47.25744" lon="6.92324">
        <ele>963</ele>
        <time>2024-05-08T12:12:01Z</time>
      </trkpt>
      <trkpt lat="47.25726" lon="6.92258">
        <ele>961.6</ele>
        <time>2024-05-08T12:12:12Z</time>
      </trkpt>
      <trkpt lat="47.25679" lon="6.92224">
        <ele>959.6</ele>
        <time>2024-05-08T12:12:23Z</time>
      </trkpt>
      <trkpt lat="47.25643" lon="6.92218">
        <ele>958.1</ele>
        <time>2024-05-08T12:12:34Z</time>
      </trkpt>
      <trkpt lat="47.25629" lon="6.9218">
        <ele>958</ele>
        <time>2024-05-08T12:12:44Z</time>
      </trkpt>
      <trkpt lat="47.25626" lon="6.92176">
        <ele>958</ele>
        <time>2024-05-08T12:12:54Z</time>
      </trkpt>
      <trkpt lat="47.2564" lon="6.92212">
        <ele>957.8</ele>
        <time>2024-05-08T12:13:05Z</time>
      </trkpt>
      <trkpt lat="47.25604" lon="6.9223">
        <ele>955.4</ele>
        <time>2024-05-08T12:13:15Z</time>
      </trkpt>
      <trkpt lat="47.25521" lon="6.92223">
        <ele>950.5</ele>
        <time>2024-05-08T12:13:26Z</time>
      </trkpt>
      <trkpt lat="47.25438" lon="6.92194">
        <ele>949.9</ele>
        <time>2024-05-08T12:13:37Z</time>
      </trkpt>
      <trkpt lat="47.25387" lon="6.92191">
        <ele>951.4</ele>
        <time>2024-05-08T12:13:47Z</time>
      </trkpt>
      <trkpt lat="47.25339" lon="6.92188">
        <ele>951.4</ele>
        <time>2024-05-08T12:13:57Z</time>
      </trkpt>
      <trkpt lat="47.25285" lon="6.92188">
        <ele>951.6</ele>
        <time>2024-05-08T12:14:07Z</time>
      </trkpt>
      <trkpt lat="47.25239" lon="6.92193">
        <ele>952.6</ele>
        <time>2024-05-08T12:14:17Z</time>
      </trkpt>
      <trkpt lat="47.25187" lon="6.92199">
        <ele>953.7</ele>
        <time>2024-05-08T12:14:28Z</time>
      </trkpt>
      <trkpt lat="47.25148" lon="6.92206">
        <ele>955.4</ele>
        <time>2024-05-08T12:14:38Z</time>
      </trkpt>
      <trkpt lat="47.25109" lon="6.92213">
        <ele>956.5</ele>
        <time>2024-05-08T12:14:49Z</time>
      </trkpt>
      <trkpt lat="47.25065" lon="6.92215">
        <ele>957.8</ele>
        <time>2024-05-08T12:15:00Z</time>
      </trkpt>
      <trkpt lat="47.25023" lon="6.92208">
        <ele>959.9</ele>
        <time>2024-05-08T12:15:11Z</time>
      </trkpt>
      <trkpt lat="47.24983" lon="6.92207">
        <ele>961.9</ele>
        <time>2024-05-08T12:15:22Z</time>
      </trkpt>
      <trkpt lat="47.24952" lon="6.92204">
        <ele>963.3</ele>
        <time>2024-05-08T12:15:32Z</time>
      </trkpt>
      <trkpt lat="47.24914" lon="6.92201">
        <ele>964.3</ele>
        <time>2024-05-08T12:15:43Z</time>
      </trkpt>
      <trkpt lat="47.24874" lon="6.92197">
        <ele>964.9</ele>
        <time>2024-05-08T12:15:54Z</time>
      </trkpt>
      <trkpt lat="47.24829" lon="6.92194">
        <ele>965</ele>
        <time>2024-05-08T12:16:04Z</time>
      </trkpt>
      <trkpt lat="47.24775" lon="6.92189">
        <ele>965.2</ele>
        <time>2024-05-08T12:16:15Z</time>
      </trkpt>
      <trkpt lat="47.24727" lon="6.92185">
        <ele>965.9</ele>
        <time>2024-05-08T12:16:25Z</time>
      </trkpt>
      <trkpt lat="47.24672" lon="6.92181">
        <ele>965.9</ele>
        <time>2024-05-08T12:16:36Z</time>
      </trkpt>
      <trkpt lat="47.24619" lon="6.92174">
        <ele>966.2</ele>
        <time>2024-05-08T12:16:46Z</time>
      </trkpt>
      <trkpt lat="47.24564" lon="6.92152">
        <ele>966.2</ele>
        <time>2024-05-08T12:16:57Z</time>
      </trkpt>
      <trkpt lat="47.24523" lon="6.92103">
        <ele>967.1</ele>
        <time>2024-05-08T12:17:07Z</time>
      </trkpt>
      <trkpt lat="47.24494" lon="6.92056">
        <ele>968.9</ele>
        <time>2024-05-08T12:17:17Z</time>
      </trkpt>
      <trkpt lat="47.24467" lon="6.92009">
        <ele>971</ele>
        <time>2024-05-08T12:17:28Z</time>
      </trkpt>
      <trkpt lat="47.24448" lon="6.91968">
        <ele>972.9</ele>
        <time>2024-05-08T12:17:38Z</time>
      </trkpt>
      <trkpt lat="47.24428" lon="6.91929">
        <ele>975.2</ele>
        <time>2024-05-08T12:17:49Z</time>
      </trkpt>
      <trkpt lat="47.24412" lon="6.91897">
        <ele>977.1</ele>
        <time>2024-05-08T12:17:59Z</time>
      </trkpt>
      <trkpt lat="47.24393" lon="6.91858">
        <ele>978.9</ele>
        <time>2024-05-08T12:18:10Z</time>
      </trkpt>
      <trkpt lat="47.24372" lon="6.91815">
        <ele>980.5</ele>
        <time>2024-05-08T12:18:21Z</time>
      </trkpt>
      <trkpt lat="47.2435" lon="6.91769">
        <ele>981.4</ele>
        <time>2024-05-08T12:18:32Z</time>
      </trkpt>
      <trkpt lat="47.24325" lon="6.91721">
        <ele>981.9</ele>
        <time>2024-05-08T12:18:42Z</time>
      </trkpt>
      <trkpt lat="47.24296" lon="6.9166">
        <ele>982.2</ele>
        <time>2024-05-08T12:18:53Z</time>
      </trkpt>
      <trkpt lat="47.24271" lon="6.91608">
        <ele>982.2</ele>
        <time>2024-05-08T12:19:03Z</time>
      </trkpt>
      <trkpt lat="47.24245" lon="6.91555">
        <ele>982.3</ele>
        <time>2024-05-08T12:19:14Z</time>
      </trkpt>
      <trkpt lat="47.24212" lon="6.9149">
        <ele>982.1</ele>
        <time>2024-05-08T12:19:25Z</time>
      </trkpt>
      <trkpt lat="47.24179" lon="6.91422">
        <ele>981.8</ele>
        <time>2024-05-08T12:19:36Z</time>
      </trkpt>
      <trkpt lat="47.24152" lon="6.91348">
        <ele>980.9</ele>
        <time>2024-05-08T12:19:47Z</time>
      </trkpt>
      <trkpt lat="47.24121" lon="6.9127">
        <ele>979.3</ele>
        <time>2024-05-08T12:19:58Z</time>
      </trkpt>
      <trkpt lat="47.24085" lon="6.91195">
        <ele>976.7</ele>
        <time>2024-05-08T12:20:08Z</time>
      </trkpt>
      <trkpt lat="47.24042" lon="6.91105">
        <ele>972.9</ele>
        <time>2024-05-08T12:20:18Z</time>
      </trkpt>
      <trkpt lat="47.23997" lon="6.91008">
        <ele>966.9</ele>
        <time>2024-05-08T12:20:28Z</time>
      </trkpt>
      <trkpt lat="47.23951" lon="6.9088">
        <ele>961.3</ele>
        <time>2024-05-08T12:20:39Z</time>
      </trkpt>
      <trkpt lat="47.23945" lon="6.90807">
        <ele>960.6</ele>
        <time>2024-05-08T12:20:50Z</time>
      </trkpt>
      <trkpt lat="47.2396" lon="6.9077">
        <ele>961.7</ele>
        <time>2024-05-08T12:21:01Z</time>
      </trkpt>
      <trkpt lat="47.23948" lon="6.90707">
        <ele>960.4</ele>
        <time>2024-05-08T12:21:12Z</time>
      </trkpt>
      <trkpt lat="47.23914" lon="6.90602">
        <ele>955.9</ele>
        <time>2024-05-08T12:21:23Z</time>
      </trkpt>
      <trkpt lat="47.23889" lon="6.90471">
        <ele>950.6</ele>
        <time>2024-05-08T12:21:33Z</time>
      </trkpt>
      <trkpt lat="47.23907" lon="6.9031">
        <ele>944.4</ele>
        <time>2024-05-08T12:21:44Z</time>
      </trkpt>
      <trkpt lat="47.23937" lon="6.90153">
        <ele>938.4</ele>
        <time>2024-05-08T12:21:55Z</time>
      </trkpt>
      <trkpt lat="47.23998" lon="6.90016">
        <ele>933.4</ele>
        <time>2024-05-08T12:22:06Z</time>
      </trkpt>
      <trkpt lat="47.24058" lon="6.89897">
        <ele>932.2</ele>
        <time>2024-05-08T12:22:17Z</time>
      </trkpt>
      <trkpt lat="47.24077" lon="6.89768">
        <ele>928.3</ele>
        <time>2024-05-08T12:22:28Z</time>
      </trkpt>
      <trkpt lat="47.24087" lon="6.89628">
        <ele>922.4</ele>
        <time>2024-05-08T12:22:38Z</time>
      </trkpt>
      <trkpt lat="47.24026" lon="6.89536">
        <ele>916.8</ele>
        <time>2024-05-08T12:22:48Z</time>
      </trkpt>
      <trkpt lat="47.23952" lon="6.8942">
        <ele>910.4</ele>
        <time>2024-05-08T12:22:59Z</time>
      </trkpt>
      <trkpt lat="47.2392" lon="6.89272">
        <ele>905</ele>
        <time>2024-05-08T12:23:09Z</time>
      </trkpt>
      <trkpt lat="47.23866" lon="6.8913">
        <ele>899.1</ele>
        <time>2024-05-08T12:23:19Z</time>
      </trkpt>
      <trkpt lat="47.23814" lon="6.89038">
        <ele>895.9</ele>
        <time>2024-05-08T12:23:30Z</time>
      </trkpt>
      <trkpt lat="47.2378" lon="6.89044">
        <ele>899.8</ele>
        <time>2024-05-08T12:23:40Z</time>
      </trkpt>
      <trkpt lat="47.2376" lon="6.89042">
        <ele>902.2</ele>
        <time>2024-05-08T12:23:51Z</time>
      </trkpt>
      <trkpt lat="47.23742" lon="6.89034">
        <ele>904.4</ele>
        <time>2024-05-08T12:24:02Z</time>
      </trkpt>
      <trkpt lat="47.23726" lon="6.89028">
        <ele>906.2</ele>
        <time>2024-05-08T12:24:12Z</time>
      </trkpt>
      <trkpt lat="47.23707" lon="6.8902">
        <ele>908.4</ele>
        <time>2024-05-08T12:24:23Z</time>
      </trkpt>
      <trkpt lat="47.23691" lon="6.89014">
        <ele>910.2</ele>
        <time>2024-05-08T12:24:33Z</time>
      </trkpt>
      <trkpt lat="47.23673" lon="6.89008">
        <ele>912.2</ele>
        <time>2024-05-08T12:24:43Z</time>
      </trkpt>
      <trkpt lat="47.23652" lon="6.89002">
        <ele>914.2</ele>
        <time>2024-05-08T12:24:54Z</time>
      </trkpt>
      <trkpt lat="47.23632" lon="6.89001">
        <ele>915.9</ele>
        <time>2024-05-08T12:25:04Z</time>
      </trkpt>
      <trkpt lat="47.23613" lon="6.89">
        <ele>917.6</ele>
        <time>2024-05-08T12:25:15Z</time>
      </trkpt>
      <trkpt lat="47.23593" lon="6.89004">
        <ele>919.6</ele>
        <time>2024-05-08T12:25:26Z</time>
      </trkpt>
      <trkpt lat="47.23575" lon="6.89013">
        <ele>921.2</ele>
        <time>2024-05-08T12:25:36Z</time>
      </trkpt>
      <trkpt lat="47.23558" lon="6.89025">
        <ele>922.8</ele>
        <time>2024-05-08T12:25:46Z</time>
      </trkpt>
      <trkpt lat="47.23541" lon="6.89039">
        <ele>924.3</ele>
        <time>2024-05-08T12:25:57Z</time>
      </trkpt>
      <trkpt lat="47.23522" lon="6.89056">
        <ele>926</ele>
        <time>2024-05-08T12:26:08Z</time>
      </trkpt>
      <trkpt lat="47.23503" lon="6.89071">
        <ele>927.9</ele>
        <time>2024-05-08T12:26:19Z</time>
      </trkpt>
      <trkpt lat="47.23488" lon="6.89085">
        <ele>929.8</ele>
        <time>2024-05-08T12:26:30Z</time>
      </trkpt>
      <trkpt lat="47.23475" lon="6.89099">
        <ele>932</ele>
        <time>2024-05-08T12:26:40Z</time>
      </trkpt>
      <trkpt lat="47.23455" lon="6.89095">
        <ele>934.3</ele>
        <time>2024-05-08T12:26:51Z</time>
      </trkpt>
      <trkpt lat="47.23437" lon="6.89088">
        <ele>936.2</ele>
        <time>2024-05-08T12:27:02Z</time>
      </trkpt>
      <trkpt lat="47.23419" lon="6.89079">
        <ele>938.4</ele>
        <time>2024-05-08T12:27:13Z</time>
      </trkpt>
      <trkpt lat="47.23403" lon="6.89076">
        <ele>940.5</ele>
        <time>2024-05-08T12:27:23Z</time>
      </trkpt>
      <trkpt lat="47.23388" lon="6.89081">
        <ele>942.6</ele>
        <time>2024-05-08T12:27:34Z</time>
      </trkpt>
      <trkpt lat="47.23375" lon="6.89089">
        <ele>944.9</ele>
        <time>2024-05-08T12:27:44Z</time>
      </trkpt>
      <trkpt lat="47.23359" lon="6.89095">
        <ele>947.8</ele>
        <time>2024-05-08T12:27:55Z</time>
      </trkpt>
      <trkpt lat="47.23342" lon="6.89098">
        <ele>950.7</ele>
        <time>2024-05-08T12:28:06Z</time>
      </trkpt>
      <trkpt lat="47.23327" lon="6.89097">
        <ele>953.1</ele>
        <time>2024-05-08T12:28:17Z</time>
      </trkpt>
      <trkpt lat="47.23311" lon="6.89095">
        <ele>955.6</ele>
        <time>2024-05-08T12:28:28Z</time>
      </trkpt>
      <trkpt lat="47.23296" lon="6.89094">
        <ele>958</ele>
        <time>2024-05-08T12:28:38Z</time>
      </trkpt>
      <trkpt lat="47.2328" lon="6.89094">
        <ele>960.6</ele>
        <time>2024-05-08T12:28:48Z</time>
      </trkpt>
      <trkpt lat="47.23264" lon="6.89098">
        <ele>963</ele>
        <time>2024-05-08T12:28:59Z</time>
      </trkpt>
      <trkpt lat="47.23248" lon="6.89105">
        <ele>965.1</ele>
        <time>2024-05-08T12:29:10Z</time>
      </trkpt>
      <trkpt lat="47.23233" lon="6.89111">
        <ele>967.1</ele>
        <time>2024-05-08T12:29:20Z</time>
      </trkpt>
      <trkpt lat="47.23217" lon="6.89121">
        <ele>969</ele>
        <time>2024-05-08T12:29:31Z</time>
      </trkpt>
      <trkpt lat="47.23196" lon="6.89127">
        <ele>970.9</ele>
        <time>2024-05-08T12:29:42Z</time>
      </trkpt>
      <trkpt lat="47.23176" lon="6.89129">
        <ele>972.3</ele>
        <time>2024-05-08T12:29:52Z</time>
      </trkpt>
      <trkpt lat="47.23153" lon="6.89129">
        <ele>973.8</ele>
        <time>2024-05-08T12:30:03Z</time>
      </trkpt>
      <trkpt lat="47.23128" lon="6.89131">
        <ele>975.1</ele>
        <time>2024-05-08T12:30:14Z</time>
      </trkpt>
      <trkpt lat="47.23103" lon="6.89134">
        <ele>976.5</ele>
        <time>2024-05-08T12:30:25Z</time>
      </trkpt>
      <trkpt lat="47.23083" lon="6.89139">
        <ele>978.2</ele>
        <time>2024-05-08T12:30:35Z</time>
      </trkpt>
      <trkpt lat="47.23069" lon="6.89144">
        <ele>980</ele>
        <time>2024-05-08T12:30:45Z</time>
      </trkpt>
      <trkpt lat="47.23056" lon="6.8915">
        <ele>982</ele>
        <time>2024-05-08T12:30:56Z</time>
      </trkpt>
      <trkpt lat="47.23042" lon="6.8916">
        <ele>984.3</ele>
        <time>2024-05-08T12:31:06Z</time>
      </trkpt>
      <trkpt lat="47.23026" lon="6.89168">
        <ele>986.9</ele>
        <time>2024-05-08T12:31:17Z</time>
      </trkpt>
      <trkpt lat="47.23012" lon="6.8917">
        <ele>988.8</ele>
        <time>2024-05-08T12:31:28Z</time>
      </trkpt>
      <trkpt lat="47.22993" lon="6.89167">
        <ele>991.2</ele>
        <time>2024-05-08T12:31:38Z</time>
      </trkpt>
      <trkpt lat="47.22974" lon="6.89153">
        <ele>993.7</ele>
        <time>2024-05-08T12:31:48Z</time>
      </trkpt>
      <trkpt lat="47.22953" lon="6.89136">
        <ele>995.7</ele>
        <time>2024-05-08T12:31:58Z</time>
      </trkpt>
      <trkpt lat="47.2292" lon="6.89094">
        <ele>994.5</ele>
        <time>2024-05-08T12:32:09Z</time>
      </trkpt>
      <trkpt lat="47.22897" lon="6.89023">
        <ele>993.5</ele>
        <time>2024-05-08T12:32:19Z</time>
      </trkpt>
      <trkpt lat="47.22862" lon="6.88986">
        <ele>997</ele>
        <time>2024-05-08T12:32:30Z</time>
      </trkpt>
      <trkpt lat="47.22843" lon="6.8896">
        <ele>998.9</ele>
        <time>2024-05-08T12:32:41Z</time>
      </trkpt>
      <trkpt lat="47.22828" lon="6.8893">
        <ele>999</ele>
        <time>2024-05-08T12:32:51Z</time>
      </trkpt>
      <trkpt lat="47.22819" lon="6.88901">
        <ele>998.7</ele>
        <time>2024-05-08T12:33:01Z</time>
      </trkpt>
      <trkpt lat="47.22816" lon="6.88895">
        <ele>998.6</ele>
        <time>2024-05-08T12:33:11Z</time>
      </trkpt>
      <trkpt lat="47.22811" lon="6.88881">
        <ele>998.4</ele>
        <time>2024-05-08T12:33:22Z</time>
      </trkpt>
      <trkpt lat="47.22797" lon="6.88844">
        <ele>997.7</ele>
        <time>2024-05-08T12:33:32Z</time>
      </trkpt>
      <trkpt lat="47.22776" lon="6.88797">
        <ele>995.9</ele>
        <time>2024-05-08T12:33:42Z</time>
      </trkpt>
      <trkpt lat="47.22749" lon="6.88715">
        <ele>991.5</ele>
        <time>2024-05-08T12:33:52Z</time>
      </trkpt>
      <trkpt lat="47.22761" lon="6.88637">
        <ele>986.9</ele>
        <time>2024-05-08T12:34:03Z</time>
      </trkpt>
      <trkpt lat="47.22782" lon="6.88559">
        <ele>981.7</ele>
        <time>2024-05-08T12:34:13Z</time>
      </trkpt>
      <trkpt lat="47.22752" lon="6.88437">
        <ele>977</ele>
        <time>2024-05-08T12:34:24Z</time>
      </trkpt>
      <trkpt lat="47.22708" lon="6.8839">
        <ele>978.3</ele>
        <time>2024-05-08T12:34:35Z</time>
      </trkpt>
      <trkpt lat="47.22688" lon="6.8836">
        <ele>977.1</ele>
        <time>2024-05-08T12:34:45Z</time>
      </trkpt>
      <trkpt lat="47.22688" lon="6.88359">
        <ele>977.1</ele>
        <time>2024-05-08T12:34:56Z</time>
      </trkpt>
      <trkpt lat="47.22688" lon="6.88359">
        <ele>977.1</ele>
        <time>2024-05-08T12:35:07Z</time>
      </trkpt>
      <trkpt lat="47.22672" lon="6.88321">
        <ele>974.7</ele>
        <time>2024-05-08T12:35:17Z</time>
      </trkpt>
      <trkpt lat="47.22619" lon="6.88225">
        <ele>968.3</ele>
        <time>2024-05-08T12:35:27Z</time>
      </trkpt>
      <trkpt lat="47.22549" lon="6.88129">
        <ele>965.6</ele>
        <time>2024-05-08T12:35:37Z</time>
      </trkpt>
      <trkpt lat="47.22477" lon="6.88054">
        <ele>962.9</ele>
        <time>2024-05-08T12:35:48Z</time>
      </trkpt>
      <trkpt lat="47.22396" lon="6.88022">
        <ele>959.3</ele>
        <time>2024-05-08T12:35:58Z</time>
      </trkpt>
      <trkpt lat="47.22303" lon="6.8798">
        <ele>955.9</ele>
        <time>2024-05-08T12:36:09Z</time>
      </trkpt>
      <trkpt lat="47.22216" lon="6.87952">
        <ele>951.2</ele>
        <time>2024-05-08T12:36:20Z</time>
      </trkpt>
      <trkpt lat="47.22112" lon="6.87956">
        <ele>944.3</ele>
        <time>2024-05-08T12:36:30Z</time>
      </trkpt>
      <trkpt lat="47.22011" lon="6.87942">
        <ele>941.8</ele>
        <time>2024-05-08T12:36:41Z</time>
      </trkpt>
      <trkpt lat="47.21934" lon="6.8793">
        <ele>941.7</ele>
        <time>2024-05-08T12:36:51Z</time>
      </trkpt>
      <trkpt lat="47.21882" lon="6.87917">
        <ele>942.8</ele>
        <time>2024-05-08T12:37:02Z</time>
      </trkpt>
      <trkpt lat="47.21842" lon="6.87881">
        <ele>940.8</ele>
        <time>2024-05-08T12:37:12Z</time>
      </trkpt>
      <trkpt lat="47.21775" lon="6.87808">
        <ele>932.8</ele>
        <time>2024-05-08T12:37:22Z</time>
      </trkpt>
      <trkpt lat="47.2168" lon="6.87709">
        <ele>918.9</ele>
        <time>2024-05-08T12:37:32Z</time>
      </trkpt>
      <trkpt lat="47.21578" lon="6.87602">
        <ele>908.9</ele>
        <time>2024-05-08T12:37:42Z</time>
      </trkpt>
      <trkpt lat="47.21514" lon="6.87559">
        <ele>905.6</ele>
        <time>2024-05-08T12:37:53Z</time>
      </trkpt>
      <trkpt lat="47.21493" lon="6.87592">
        <ele>907.5</ele>
        <time>2024-05-08T12:38:03Z</time>
      </trkpt>
      <trkpt lat="47.21479" lon="6.87622">
        <ele>908.3</ele>
        <time>2024-05-08T12:38:14Z</time>
      </trkpt>
      <trkpt lat="47.21462" lon="6.87659">
        <ele>908.9</ele>
        <time>2024-05-08T12:38:25Z</time>
      </trkpt>
      <trkpt lat="47.21433" lon="6.87675">
        <ele>907.5</ele>
        <time>2024-05-08T12:38:36Z</time>
      </trkpt>
      <trkpt lat="47.21376" lon="6.8765">
        <ele>906.4</ele>
        <time>2024-05-08T12:38:46Z</time>
      </trkpt>
      <trkpt lat="47.21343" lon="6.87621">
        <ele>907</ele>
        <time>2024-05-08T12:38:56Z</time>
      </trkpt>
      <trkpt lat="47.21305" lon="6.87633">
        <ele>907.8</ele>
        <time>2024-05-08T12:39:07Z</time>
      </trkpt>
      <trkpt lat="47.21275" lon="6.87625">
        <ele>908.8</ele>
        <time>2024-05-08T12:39:17Z</time>
      </trkpt>
      <trkpt lat="47.2124" lon="6.87608">
        <ele>909</ele>
        <time>2024-05-08T12:39:27Z</time>
      </trkpt>
      <trkpt lat="47.21197" lon="6.87569">
        <ele>906</ele>
        <time>2024-05-08T12:39:37Z</time>
      </trkpt>
      <trkpt lat="47.21125" lon="6.87474">
        <ele>899.7</ele>
        <time>2024-05-08T12:39:48Z</time>
      </trkpt>
      <trkpt lat="47.21061" lon="6.87374">
        <ele>898.6</ele>
        <time>2024-05-08T12:39:59Z</time>
      </trkpt>
      <trkpt lat="47.21011" lon="6.8729">
        <ele>898.8</ele>
        <time>2024-05-08T12:40:09Z</time>
      </trkpt>
      <trkpt lat="47.20986" lon="6.87199">
        <ele>901.4</ele>
        <time>2024-05-08T12:40:20Z</time>
      </trkpt>
      <trkpt lat="47.20965" lon="6.87134">
        <ele>903.8</ele>
        <time>2024-05-08T12:40:31Z</time>
      </trkpt>
      <trkpt lat="47.20945" lon="6.87073">
        <ele>905.6</ele>
        <time>2024-05-08T12:40:42Z</time>
      </trkpt>
      <trkpt lat="47.20926" lon="6.87015">
        <ele>906.8</ele>
        <time>2024-05-08T12:40:52Z</time>
      </trkpt>
      <trkpt lat="47.20897" lon="6.86958">
        <ele>908.1</ele>
        <time>2024-05-08T12:41:03Z</time>
      </trkpt>
      <trkpt lat="47.20864" lon="6.86912">
        <ele>909.4</ele>
        <time>2024-05-08T12:41:14Z</time>
      </trkpt>
      <trkpt lat="47.20832" lon="6.86867">
        <ele>910.8</ele>
        <time>2024-05-08T12:41:25Z</time>
      </trkpt>
      <trkpt lat="47.20801" lon="6.86826">
        <ele>912.1</ele>
        <time>2024-05-08T12:41:36Z</time>
      </trkpt>
      <trkpt lat="47.20764" lon="6.86798">
        <ele>913.3</ele>
        <time>2024-05-08T12:41:47Z</time>
      </trkpt>
      <trkpt lat="47.20725" lon="6.86804">
        <ele>914.4</ele>
        <time>2024-05-08T12:41:58Z</time>
      </trkpt>
      <trkpt lat="47.207" lon="6.86842">
        <ele>915.4</ele>
        <time>2024-05-08T12:42:08Z</time>
      </trkpt>
      <trkpt lat="47.20674" lon="6.86884">
        <ele>916.6</ele>
        <time>2024-05-08T12:42:18Z</time>
      </trkpt>
      <trkpt lat="47.20649" lon="6.86898">
        <ele>917.3</ele>
        <time>2024-05-08T12:42:28Z</time>
      </trkpt>
      <trkpt lat="47.20644" lon="6.86896">
        <ele>917.5</ele>
        <time>2024-05-08T12:42:38Z</time>
      </trkpt>
      <trkpt lat="47.20644" lon="6.86896">
        <ele>917.5</ele>
        <time>2024-05-08T12:42:48Z</time>
      </trkpt>
      <trkpt lat="47.20644" lon="6.86896">
        <ele>917.5</ele>
        <time>2024-05-08T12:42:59Z</time>
      </trkpt>
      <trkpt lat="47.20644" lon="6.86896">
        <ele>917.5</ele>
        <time>2024-05-08T12:43:10Z</time>
      </trkpt>
      <trkpt lat="47.20644" lon="6.86896">
        <ele>917.5</ele>
        <time>2024-05-08T12:43:21Z</time>
      </trkpt>
      <trkpt lat="47.20644" lon="6.86896">
        <ele>917.5</ele>
        <time>2024-05-08T12:43:31Z</time>
      </trkpt>
      <trkpt lat="47.20641" lon="6.86891">
        <ele>917.7</ele>
        <time>2024-05-08T12:43:41Z</time>
      </trkpt>
      <trkpt lat="47.20618" lon="6.8687">
        <ele>918.9</ele>
        <time>2024-05-08T12:43:52Z</time>
      </trkpt>
      <trkpt lat="47.20597" lon="6.86838">
        <ele>920.3</ele>
        <time>2024-05-08T12:44:02Z</time>
      </trkpt>
      <trkpt lat="47.2057" lon="6.86804">
        <ele>921.9</ele>
        <time>2024-05-08T12:44:13Z</time>
      </trkpt>
      <trkpt lat="47.20546" lon="6.86769">
        <ele>923.5</ele>
        <time>2024-05-08T12:44:24Z</time>
      </trkpt>
      <trkpt lat="47.20525" lon="6.86733">
        <ele>924.9</ele>
        <time>2024-05-08T12:44:34Z</time>
      </trkpt>
      <trkpt lat="47.20496" lon="6.86701">
        <ele>926.4</ele>
        <time>2024-05-08T12:44:45Z</time>
      </trkpt>
      <trkpt lat="47.20467" lon="6.86686">
        <ele>927.6</ele>
        <time>2024-05-08T12:44:55Z</time>
      </trkpt>
      <trkpt lat="47.20436" lon="6.86674">
        <ele>928.8</ele>
        <time>2024-05-08T12:45:06Z</time>
      </trkpt>
      <trkpt lat="47.204" lon="6.86652">
        <ele>929.7</ele>
        <time>2024-05-08T12:45:17Z</time>
      </trkpt>
      <trkpt lat="47.20373" lon="6.86611">
        <ele>931</ele>
        <time>2024-05-08T12:45:28Z</time>
      </trkpt>
      <trkpt lat="47.20349" lon="6.86572">
        <ele>932.7</ele>
        <time>2024-05-08T12:45:39Z</time>
      </trkpt>
      <trkpt lat="47.20322" lon="6.86553">
        <ele>934.4</ele>
        <time>2024-05-08T12:45:50Z</time>
      </trkpt>
      <trkpt lat="47.20298" lon="6.86561">
        <ele>936.1</ele>
        <time>2024-05-08T12:46:01Z</time>
      </trkpt>
      <trkpt lat="47.20289" lon="6.86584">
        <ele>937.5</ele>
        <time>2024-05-08T12:46:12Z</time>
      </trkpt>
      <trkpt lat="47.20284" lon="6.86608">
        <ele>939</ele>
        <time>2024-05-08T12:46:23Z</time>
      </trkpt>
      <trkpt lat="47.20279" lon="6.86628">
        <ele>940.3</ele>
        <time>2024-05-08T12:46:33Z</time>
      </trkpt>
      <trkpt lat="47.20276" lon="6.86649">
        <ele>941.7</ele>
        <time>2024-05-08T12:46:43Z</time>
      </trkpt>
      <trkpt lat="47.2027" lon="6.86675">
        <ele>943.4</ele>
        <time>2024-05-08T12:46:53Z</time>
      </trkpt>
      <trkpt lat="47.20267" lon="6.86709">
        <ele>945.5</ele>
        <time>2024-05-08T12:47:04Z</time>
      </trkpt>
      <trkpt lat="47.20258" lon="6.86731">
        <ele>947.1</ele>
        <time>2024-05-08T12:47:15Z</time>
      </trkpt>
      <trkpt lat="47.20227" lon="6.86731">
        <ele>949.1</ele>
        <time>2024-05-08T12:47:26Z</time>
      </trkpt>
      <trkpt lat="47.20185" lon="6.8672">
        <ele>949.8</ele>
        <time>2024-05-08T12:47:37Z</time>
      </trkpt>
      <trkpt lat="47.20154" lon="6.86711">
        <ele>949.9</ele>
        <time>2024-05-08T12:47:47Z</time>
      </trkpt>
      <trkpt lat="47.20151" lon="6.86713">
        <ele>949.8</ele>
        <time>2024-05-08T12:47:58Z</time>
      </trkpt>
      <trkpt lat="47.2015" lon="6.86714">
        <ele>949.8</ele>
        <time>2024-05-08T12:48:09Z</time>
      </trkpt>
      <trkpt lat="47.2015" lon="6.86714">
        <ele>949.8</ele>
        <time>2024-05-08T12:48:19Z</time>
      </trkpt>
      <trkpt lat="47.2015" lon="6.86714">
        <ele>949.8</ele>
        <time>2024-05-08T12:48:30Z</time>
      </trkpt>
      <trkpt lat="47.2015" lon="6.86714">
        <ele>949.8</ele>
        <time>2024-05-08T12:48:40Z</time>
      </trkpt>
      <trkpt lat="47.2015" lon="6.86714">
        <ele>949.8</ele>
        <time>2024-05-08T12:48:50Z</time>
      </trkpt>
      <trkpt lat="47.20149" lon="6.86713">
        <ele>949.8</ele>
        <time>2024-05-08T12:49:01Z</time>
      </trkpt>
      <trkpt lat="47.20149" lon="6.86713">
        <ele>949.8</ele>
        <time>2024-05-08T12:49:11Z</time>
      </trkpt>
      <trkpt lat="47.20149" lon="6.86713">
        <ele>949.8</ele>
        <time>2024-05-08T12:49:22Z</time>
      </trkpt>
      <trkpt lat="47.20149" lon="6.86713">
        <ele>949.8</ele>
        <time>2024-05-08T12:49:33Z</time>
      </trkpt>
      <trkpt lat="47.20148" lon="6.86714">
        <ele>949.8</ele>
        <time>2024-05-08T12:49:44Z</time>
      </trkpt>
      <trkpt lat="47.20146" lon="6.8671">
        <ele>949.8</ele>
        <time>2024-05-08T12:49:54Z</time>
      </trkpt>
      <trkpt lat="47.20122" lon="6.86681">
        <ele>949.5</ele>
        <time>2024-05-08T12:50:04Z</time>
      </trkpt>
      <trkpt lat="47.20093" lon="6.86649">
        <ele>948.8</ele>
        <time>2024-05-08T12:50:15Z</time>
      </trkpt>
      <trkpt lat="47.20049" lon="6.86655">
        <ele>947.2</ele>
        <time>2024-05-08T12:50:26Z</time>
      </trkpt>
      <trkpt lat="47.20004" lon="6.86688">
        <ele>943.8</ele>
        <time>2024-05-08T12:50:36Z</time>
      </trkpt>
      <trkpt lat="47.19968" lon="6.86705">
        <ele>940.3</ele>
        <time>2024-05-08T12:50:46Z</time>
      </trkpt>
      <trkpt lat="47.19964" lon="6.86708">
        <ele>939.9</ele>
        <time>2024-05-08T12:50:57Z</time>
      </trkpt>
      <trkpt lat="47.19963" lon="6.86714">
        <ele>939.1</ele>
        <time>2024-05-08T12:51:08Z</time>
      </trkpt>
      <trkpt lat="47.19969" lon="6.86742">
        <ele>938.7</ele>
        <time>2024-05-08T12:51:18Z</time>
      </trkpt>
      <trkpt lat="47.19974" lon="6.86776">
        <ele>938.8</ele>
        <time>2024-05-08T12:51:29Z</time>
      </trkpt>
      <trkpt lat="47.19988" lon="6.86796">
        <ele>939.1</ele>
        <time>2024-05-08T12:51:40Z</time>
      </trkpt>
      <trkpt lat="47.1999" lon="6.86799">
        <ele>939.1</ele>
        <time>2024-05-08T12:51:50Z</time>
      </trkpt>
      <trkpt lat="47.1999" lon="6.86798">
        <ele>939.1</ele>
        <time>2024-05-08T12:52:01Z</time>
      </trkpt>
      <trkpt lat="47.1999" lon="6.86798">
        <ele>939.1</ele>
        <time>2024-05-08T12:52:12Z</time>
      </trkpt>
      <trkpt lat="47.1999" lon="6.86798">
        <ele>939.1</ele>
        <time>2024-05-08T12:52:23Z</time>
      </trkpt>
      <trkpt lat="47.1999" lon="6.86798">
        <ele>939.1</ele>
        <time>2024-05-08T12:52:33Z</time>
      </trkpt>
      <trkpt lat="47.1999" lon="6.86798">
        <ele>939.1</ele>
        <time>2024-05-08T12:52:43Z</time>
      </trkpt>
      <trkpt lat="47.1999" lon="6.86798">
        <ele>939.1</ele>
        <time>2024-05-08T12:52:54Z</time>
      </trkpt>
      <trkpt lat="47.1999" lon="6.86798">
        <ele>939.1</ele>
        <time>2024-05-08T12:53:04Z</time>
      </trkpt>
      <trkpt lat="47.1999" lon="6.86798">
        <ele>939.1</ele>
        <time>2024-05-08T12:53:15Z</time>
      </trkpt>
      <trkpt lat="47.1999" lon="6.86798">
        <ele>939.1</ele>
        <time>2024-05-08T12:53:26Z</time>
      </trkpt>
      <trkpt lat="47.1999" lon="6.86798">
        <ele>939.1</ele>
        <time>2024-05-08T12:53:37Z</time>
      </trkpt>
      <trkpt lat="47.1999" lon="6.86798">
        <ele>939.1</ele>
        <time>2024-05-08T12:53:47Z</time>
      </trkpt>
      <trkpt lat="47.1999" lon="6.86798">
        <ele>939.1</ele>
        <time>2024-05-08T12:53:57Z</time>
      </trkpt>
      <trkpt lat="47.1999" lon="6.86798">
        <ele>939.1</ele>
        <time>2024-05-08T12:54:08Z</time>
      </trkpt>
      <trkpt lat="47.19992" lon="6.86799">
        <ele>939.1</ele>
        <time>2024-05-08T12:54:19Z</time>
      </trkpt>
      <trkpt lat="47.19991" lon="6.868">
        <ele>939.2</ele>
        <time>2024-05-08T12:54:29Z</time>
      </trkpt>
      <trkpt lat="47.19991" lon="6.86798">
        <ele>939.2</ele>
        <time>2024-05-08T12:54:40Z</time>
      </trkpt>
      <trkpt lat="47.19988" lon="6.86789">
        <ele>939.3</ele>
        <time>2024-05-08T12:54:50Z</time>
      </trkpt>
      <trkpt lat="47.19989" lon="6.86779">
        <ele>939.5</ele>
        <time>2024-05-08T12:55:01Z</time>
      </trkpt>
      <trkpt lat="47.19987" lon="6.86764">
        <ele>939.4</ele>
        <time>2024-05-08T12:55:11Z</time>
      </trkpt>
      <trkpt lat="47.19981" lon="6.86742">
        <ele>938.9</ele>
        <time>2024-05-08T12:55:21Z</time>
      </trkpt>
      <trkpt lat="47.19961" lon="6.86727">
        <ele>938.9</ele>
        <time>2024-05-08T12:55:32Z</time>
      </trkpt>
      <trkpt lat="47.19915" lon="6.8671">
        <ele>934.5</ele>
        <time>2024-05-08T12:55:42Z</time>
      </trkpt>
      <trkpt lat="47.19849" lon="6.86654">
        <ele>925</ele>
        <time>2024-05-08T12:55:52Z</time>
      </trkpt>
      <trkpt lat="47.19755" lon="6.86581">
        <ele>917.9</ele>
        <time>2024-05-08T12:56:03Z</time>
      </trkpt>
      <trkpt lat="47.19684" lon="6.86512">
        <ele>913</ele>
        <time>2024-05-08T12:56:14Z</time>
      </trkpt>
      <trkpt lat="47.19623" lon="6.86435">
        <ele>909.1</ele>
        <time>2024-05-08T12:56:24Z</time>
      </trkpt>
      <trkpt lat="47.19551" lon="6.86347">
        <ele>905.3</ele>
        <time>2024-05-08T12:56:35Z</time>
      </trkpt>
      <trkpt lat="47.19483" lon="6.86261">
        <ele>903.2</ele>
        <time>2024-05-08T12:56:46Z</time>
      </trkpt>
      <trkpt lat="47.19436" lon="6.8618">
        <ele>903.8</ele>
        <time>2024-05-08T12:56:57Z</time>
      </trkpt>
      <trkpt lat="47.19405" lon="6.86118">
        <ele>906</ele>
        <time>2024-05-08T12:57:07Z</time>
      </trkpt>
      <trkpt lat="47.19382" lon="6.86068">
        <ele>908.6</ele>
        <time>2024-05-08T12:57:18Z</time>
      </trkpt>
      <trkpt lat="47.19363" lon="6.86025">
        <ele>910.8</ele>
        <time>2024-05-08T12:57:29Z</time>
      </trkpt>
      <trkpt lat="47.19348" lon="6.85988">
        <ele>912.6</ele>
        <time>2024-05-08T12:57:39Z</time>
      </trkpt>
      <trkpt lat="47.19328" lon="6.85953">
        <ele>914.5</ele>
        <time>2024-05-08T12:57:50Z</time>
      </trkpt>
      <trkpt lat="47.19306" lon="6.85926">
        <ele>915.9</ele>
        <time>2024-05-08T12:58:00Z</time>
      </trkpt>
      <trkpt lat="47.19275" lon="6.85888">
        <ele>916.4</ele>
        <time>2024-05-08T12:58:11Z</time>
      </trkpt>
      <trkpt lat="47.19248" lon="6.85831">
        <ele>916.4</ele>
        <time>2024-05-08T12:58:21Z</time>
      </trkpt>
      <trkpt lat="47.19222" lon="6.85771">
        <ele>916.8</ele>
        <time>2024-05-08T12:58:32Z</time>
      </trkpt>
      <trkpt lat="47.19219" lon="6.85725">
        <ele>918.2</ele>
        <time>2024-05-08T12:58:42Z</time>
      </trkpt>
      <trkpt lat="47.19222" lon="6.85683">
        <ele>920.1</ele>
        <time>2024-05-08T12:58:52Z</time>
      </trkpt>
      <trkpt lat="47.19224" lon="6.85631">
        <ele>922.5</ele>
        <time>2024-05-08T12:59:03Z</time>
      </trkpt>
      <trkpt lat="47.19226" lon="6.85589">
        <ele>924.3</ele>
        <time>2024-05-08T12:59:13Z</time>
      </trkpt>
      <trkpt lat="47.19234" lon="6.85552">
        <ele>926.5</ele>
        <time>2024-05-08T12:59:23Z</time>
      </trkpt>
      <trkpt lat="47.19249" lon="6.85519">
        <ele>928.4</ele>
        <time>2024-05-08T12:59:34Z</time>
      </trkpt>
      <trkpt lat="47.19266" lon="6.85477">
        <ele>929.9</ele>
        <time>2024-05-08T12:59:45Z</time>
      </trkpt>
      <trkpt lat="47.19277" lon="6.85435">
        <ele>931.2</ele>
        <time>2024-05-08T12:59:55Z</time>
      </trkpt>
      <trkpt lat="47.19281" lon="6.85387">
        <ele>932.7</ele>
        <time>2024-05-08T13:00:06Z</time>
      </trkpt>
      <trkpt lat="47.19275" lon="6.8533">
        <ele>934</ele>
        <time>2024-05-08T13:00:17Z</time>
      </trkpt>
      <trkpt lat="47.19261" lon="6.85277">
        <ele>934.9</ele>
        <time>2024-05-08T13:00:27Z</time>
      </trkpt>
      <trkpt lat="47.19242" lon="6.85221">
        <ele>935.6</ele>
        <time>2024-05-08T13:00:37Z</time>
      </trkpt>
      <trkpt lat="47.19245" lon="6.85151">
        <ele>936.5</ele>
        <time>2024-05-08T13:00:48Z</time>
      </trkpt>
      <trkpt lat="47.19281" lon="6.85146">
        <ele>937.9</ele>
        <time>2024-05-08T13:00:58Z</time>
      </trkpt>
      <trkpt lat="47.19312" lon="6.8512">
        <ele>938.8</ele>
        <time>2024-05-08T13:01:08Z</time>
      </trkpt>
      <trkpt lat="47.19302" lon="6.85062">
        <ele>940.4</ele>
        <time>2024-05-08T13:01:19Z</time>
      </trkpt>
      <trkpt lat="47.1928" lon="6.85022">
        <ele>942.8</ele>
        <time>2024-05-08T13:01:30Z</time>
      </trkpt>
      <trkpt lat="47.1926" lon="6.84986">
        <ele>944.9</ele>
        <time>2024-05-08T13:01:41Z</time>
      </trkpt>
      <trkpt lat="47.19238" lon="6.84949">
        <ele>946.3</ele>
        <time>2024-05-08T13:01:51Z</time>
      </trkpt>
      <trkpt lat="47.19218" lon="6.8491">
        <ele>948.2</ele>
        <time>2024-05-08T13:02:02Z</time>
      </trkpt>
      <trkpt lat="47.19208" lon="6.84872">
        <ele>950.1</ele>
        <time>2024-05-08T13:02:13Z</time>
      </trkpt>
      <trkpt lat="47.19203" lon="6.84828">
        <ele>951.8</ele>
        <time>2024-05-08T13:02:24Z</time>
      </trkpt>
      <trkpt lat="47.19209" lon="6.84785">
        <ele>953.3</ele>
        <time>2024-05-08T13:02:34Z</time>
      </trkpt>
      <trkpt lat="47.19204" lon="6.84739">
        <ele>955</ele>
        <time>2024-05-08T13:02:45Z</time>
      </trkpt>
      <trkpt lat="47.19194" lon="6.84711">
        <ele>956.3</ele>
        <time>2024-05-08T13:02:56Z</time>
      </trkpt>
      <trkpt lat="47.19191" lon="6.84679">
        <ele>957.2</ele>
        <time>2024-05-08T13:03:06Z</time>
      </trkpt>
      <trkpt lat="47.19192" lon="6.84634">
        <ele>956.7</ele>
        <time>2024-05-08T13:03:17Z</time>
      </trkpt>
      <trkpt lat="47.19193" lon="6.84564">
        <ele>954.4</ele>
        <time>2024-05-08T13:03:27Z</time>
      </trkpt>
      <trkpt lat="47.19214" lon="6.84478">
        <ele>952</ele>
        <time>2024-05-08T13:03:38Z</time>
      </trkpt>
      <trkpt lat="47.1926" lon="6.84411">
        <ele>948.9</ele>
        <time>2024-05-08T13:03:48Z</time>
      </trkpt>
      <trkpt lat="47.19324" lon="6.84359">
        <ele>945</ele>
        <time>2024-05-08T13:03:59Z</time>
      </trkpt>
      <trkpt lat="47.19402" lon="6.84336">
        <ele>939.2</ele>
        <time>2024-05-08T13:04:09Z</time>
      </trkpt>
      <trkpt lat="47.19408" lon="6.84313">
        <ele>938.8</ele>
        <time>2024-05-08T13:04:19Z</time>
      </trkpt>
      <trkpt lat="47.19418" lon="6.84321">
        <ele>938.5</ele>
        <time>2024-05-08T13:04:29Z</time>
      </trkpt>
      <trkpt lat="47.1942" lon="6.84326">
        <ele>938.4</ele>
        <time>2024-05-08T13:04:40Z</time>
      </trkpt>
      <trkpt lat="47.19451" lon="6.84324">
        <ele>936.8</ele>
        <time>2024-05-08T13:04:51Z</time>
      </trkpt>
      <trkpt lat="47.19486" lon="6.84307">
        <ele>933.6</ele>
        <time>2024-05-08T13:05:01Z</time>
      </trkpt>
      <trkpt lat="47.19538" lon="6.84273">
        <ele>929.6</ele>
        <time>2024-05-08T13:05:12Z</time>
      </trkpt>
      <trkpt lat="47.19583" lon="6.84241">
        <ele>924.3</ele>
        <time>2024-05-08T13:05:23Z</time>
      </trkpt>
      <trkpt lat="47.19629" lon="6.84224">
        <ele>917.7</ele>
        <time>2024-05-08T13:05:33Z</time>
      </trkpt>
      <trkpt lat="47.19687" lon="6.84225">
        <ele>910</ele>
        <time>2024-05-08T13:05:44Z</time>
      </trkpt>
      <trkpt lat="47.19742" lon="6.842">
        <ele>903.1</ele>
        <time>2024-05-08T13:05:55Z</time>
      </trkpt>
      <trkpt lat="47.19784" lon="6.8417">
        <ele>899</ele>
        <time>2024-05-08T13:06:05Z</time>
      </trkpt>
      <trkpt lat="47.19837" lon="6.84145">
        <ele>892.4</ele>
        <time>2024-05-08T13:06:16Z</time>
      </trkpt>
      <trkpt lat="47.19896" lon="6.84127">
        <ele>885.5</ele>
        <time>2024-05-08T13:06:27Z</time>
      </trkpt>
      <trkpt lat="47.1995" lon="6.8411">
        <ele>879.7</ele>
        <time>2024-05-08T13:06:37Z</time>
      </trkpt>
      <trkpt lat="47.20007" lon="6.84087">
        <ele>874.5</ele>
        <time>2024-05-08T13:06:48Z</time>
      </trkpt>
      <trkpt lat="47.20037" lon="6.84064">
        <ele>871.9</ele>
        <time>2024-05-08T13:06:59Z</time>
      </trkpt>
      <trkpt lat="47.20026" lon="6.84043">
        <ele>870.3</ele>
        <time>2024-05-08T13:07:09Z</time>
      </trkpt>
      <trkpt lat="47.20014" lon="6.84035">
        <ele>870.3</ele>
        <time>2024-05-08T13:07:20Z</time>
      </trkpt>
      <trkpt lat="47.19994" lon="6.84032">
        <ele>870.5</ele>
        <time>2024-05-08T13:07:30Z</time>
      </trkpt>
      <trkpt lat="47.20008" lon="6.84035">
        <ele>870.4</ele>
        <time>2024-05-08T13:07:41Z</time>
      </trkpt>
      <trkpt lat="47.20038" lon="6.84024">
        <ele>869.2</ele>
        <time>2024-05-08T13:07:52Z</time>
      </trkpt>
      <trkpt lat="47.20068" lon="6.8401">
        <ele>867.3</ele>
        <time>2024-05-08T13:08:03Z</time>
      </trkpt>
      <trkpt lat="47.20068" lon="6.83983">
        <ele>871.1</ele>
        <time>2024-05-08T13:08:13Z</time>
      </trkpt>
      <trkpt lat="47.20066" lon="6.83959">
        <ele>873.1</ele>
        <time>2024-05-08T13:08:24Z</time>
      </trkpt>
      <trkpt lat="47.20068" lon="6.83936">
        <ele>874.5</ele>
        <time>2024-05-08T13:08:34Z</time>
      </trkpt>
      <trkpt lat="47.20071" lon="6.83909">
        <ele>875.7</ele>
        <time>2024-05-08T13:08:45Z</time>
      </trkpt>
      <trkpt lat="47.20075" lon="6.83878">
        <ele>876.5</ele>
        <time>2024-05-08T13:08:56Z</time>
      </trkpt>
      <trkpt lat="47.20079" lon="6.8384">
        <ele>878.2</ele>
        <time>2024-05-08T13:09:07Z</time>
      </trkpt>
      <trkpt lat="47.20082" lon="6.83812">
        <ele>879.4</ele>
        <time>2024-05-08T13:09:18Z</time>
      </trkpt>
      <trkpt lat="47.20082" lon="6.83776">
        <ele>880</ele>
        <time>2024-05-08T13:09:28Z</time>
      </trkpt>
      <trkpt lat="47.20076" lon="6.8374">
        <ele>880.8</ele>
        <time>2024-05-08T13:09:39Z</time>
      </trkpt>
      <trkpt lat="47.20065" lon="6.83708">
        <ele>882.6</ele>
        <time>2024-05-08T13:09:50Z</time>
      </trkpt>
      <trkpt lat="47.20057" lon="6.8368">
        <ele>884</ele>
        <time>2024-05-08T13:10:01Z</time>
      </trkpt>
      <trkpt lat="47.20054" lon="6.83638">
        <ele>883.9</ele>
        <time>2024-05-08T13:10:11Z</time>
      </trkpt>
      <trkpt lat="47.20048" lon="6.83572">
        <ele>882.1</ele>
        <time>2024-05-08T13:10:22Z</time>
      </trkpt>
      <trkpt lat="47.20038" lon="6.83512">
        <ele>881.3</ele>
        <time>2024-05-08T13:10:33Z</time>
      </trkpt>
      <trkpt lat="47.20029" lon="6.83449">
        <ele>880.6</ele>
        <time>2024-05-08T13:10:44Z</time>
      </trkpt>
      <trkpt lat="47.20014" lon="6.83398">
        <ele>880.4</ele>
        <time>2024-05-08T13:10:54Z</time>
      </trkpt>
      <trkpt lat="47.2001" lon="6.83359">
        <ele>880.4</ele>
        <time>2024-05-08T13:11:04Z</time>
      </trkpt>
      <trkpt lat="47.20002" lon="6.8331">
        <ele>880.2</ele>
        <time>2024-05-08T13:11:15Z</time>
      </trkpt>
      <trkpt lat="47.19996" lon="6.83267">
        <ele>880</ele>
        <time>2024-05-08T13:11:25Z</time>
      </trkpt>
      <trkpt lat="47.19994" lon="6.83221">
        <ele>879.6</ele>
        <time>2024-05-08T13:11:36Z</time>
      </trkpt>
      <trkpt lat="47.1999" lon="6.83174">
        <ele>878.8</ele>
        <time>2024-05-08T13:11:46Z</time>
      </trkpt>
      <trkpt lat="47.19978" lon="6.83166">
        <ele>878.8</ele>
        <time>2024-05-08T13:11:57Z</time>
      </trkpt>
      <trkpt lat="47.19978" lon="6.83166">
        <ele>878.8</ele>
        <time>2024-05-08T13:12:07Z</time>
      </trkpt>
      <trkpt lat="47.19978" lon="6.83166">
        <ele>878.8</ele>
        <time>2024-05-08T13:12:17Z</time>
      </trkpt>
      <trkpt lat="47.19978" lon="6.83166">
        <ele>878.8</ele>
        <time>2024-05-08T13:12:28Z</time>
      </trkpt>
      <trkpt lat="47.19978" lon="6.83166">
        <ele>878.8</ele>
        <time>2024-05-08T13:12:38Z</time>
      </trkpt>
      <trkpt lat="47.19978" lon="6.83166">
        <ele>878.8</ele>
        <time>2024-05-08T13:12:48Z</time>
      </trkpt>
      <trkpt lat="47.19978" lon="6.83166">
        <ele>878.8</ele>
        <time>2024-05-08T13:12:59Z</time>
      </trkpt>
      <trkpt lat="47.19978" lon="6.83166">
        <ele>878.8</ele>
        <time>2024-05-08T13:13:09Z</time>
      </trkpt>
      <trkpt lat="47.19978" lon="6.83166">
        <ele>878.8</ele>
        <time>2024-05-08T13:13:20Z</time>
      </trkpt>
      <trkpt lat="47.19964" lon="6.83165">
        <ele>879.1</ele>
        <time>2024-05-08T13:13:31Z</time>
      </trkpt>
      <trkpt lat="47.19942" lon="6.83177">
        <ele>879.7</ele>
        <time>2024-05-08T13:13:41Z</time>
      </trkpt>
      <trkpt lat="47.19916" lon="6.83191">
        <ele>880.5</ele>
        <time>2024-05-08T13:13:51Z</time>
      </trkpt>
      <trkpt lat="47.19888" lon="6.83199">
        <ele>881.6</ele>
        <time>2024-05-08T13:14:02Z</time>
      </trkpt>
      <trkpt lat="47.1986" lon="6.83207">
        <ele>882.5</ele>
        <time>2024-05-08T13:14:12Z</time>
      </trkpt>
      <trkpt lat="47.19832" lon="6.83212">
        <ele>882.7</ele>
        <time>2024-05-08T13:14:22Z</time>
      </trkpt>
      <trkpt lat="47.19801" lon="6.83216">
        <ele>882.4</ele>
        <time>2024-05-08T13:14:33Z</time>
      </trkpt>
      <trkpt lat="47.19777" lon="6.83222">
        <ele>881.8</ele>
        <time>2024-05-08T13:14:44Z</time>
      </trkpt>
      <trkpt lat="47.19746" lon="6.83229">
        <ele>880.9</ele>
        <time>2024-05-08T13:14:54Z</time>
      </trkpt>
      <trkpt lat="47.19728" lon="6.83213">
        <ele>880.4</ele>
        <time>2024-05-08T13:15:05Z</time>
      </trkpt>
      <trkpt lat="47.19724" lon="6.83184">
        <ele>880.1</ele>
        <time>2024-05-08T13:15:15Z</time>
      </trkpt>
      <trkpt lat="47.19725" lon="6.83194">
        <ele>880.2</ele>
        <time>2024-05-08T13:15:25Z</time>
      </trkpt>
      <trkpt lat="47.1972" lon="6.83228">
        <ele>880.3</ele>
        <time>2024-05-08T13:15:35Z</time>
      </trkpt>
      <trkpt lat="47.19698" lon="6.83239">
        <ele>880.1</ele>
        <time>2024-05-08T13:15:46Z</time>
      </trkpt>
      <trkpt lat="47.19693" lon="6.83244">
        <ele>880.1</ele>
        <time>2024-05-08T13:15:57Z</time>
      </trkpt>
      <trkpt lat="47.19694" lon="6.83243">
        <ele>880.1</ele>
        <time>2024-05-08T13:16:07Z</time>
      </trkpt>
      <trkpt lat="47.19694" lon="6.83242">
        <ele>880.1</ele>
        <time>2024-05-08T13:16:17Z</time>
      </trkpt>
      <trkpt lat="47.19695" lon="6.83241">
        <ele>880</ele>
        <time>2024-05-08T13:16:28Z</time>
      </trkpt>
      <trkpt lat="47.19702" lon="6.83237">
        <ele>880</ele>
        <time>2024-05-08T13:16:38Z</time>
      </trkpt>
      <trkpt lat="47.19705" lon="6.83238">
        <ele>880</ele>
        <time>2024-05-08T13:16:48Z</time>
      </trkpt>
      <trkpt lat="47.19706" lon="6.83238">
        <ele>880</ele>
        <time>2024-05-08T13:16:59Z</time>
      </trkpt>
      <trkpt lat="47.19707" lon="6.83236">
        <ele>880</ele>
        <time>2024-05-08T13:17:10Z</time>
      </trkpt>
      <trkpt lat="47.19714" lon="6.83236">
        <ele>880</ele>
        <time>2024-05-08T13:17:20Z</time>
      </trkpt>
      <trkpt lat="47.19718" lon="6.83231">
        <ele>880</ele>
        <time>2024-05-08T13:17:30Z</time>
      </trkpt>
      <trkpt lat="47.19721" lon="6.8323">
        <ele>880</ele>
        <time>2024-05-08T13:17:40Z</time>
      </trkpt>
      <trkpt lat="47.19721" lon="6.8323">
        <ele>880</ele>
        <time>2024-05-08T13:17:51Z</time>
      </trkpt>
      <trkpt lat="47.1972" lon="6.83233">
        <ele>880</ele>
        <time>2024-05-08T13:18:02Z</time>
      </trkpt>
      <trkpt lat="47.1972" lon="6.83232">
        <ele>880</ele>
        <time>2024-05-08T13:18:13Z</time>
      </trkpt>
      <trkpt lat="47.1972" lon="6.83232">
        <ele>880</ele>
        <time>2024-05-08T13:18:23Z</time>
      </trkpt>
      <trkpt lat="47.1972" lon="6.83232">
        <ele>880</ele>
        <time>2024-05-08T13:18:34Z</time>
      </trkpt>
      <trkpt lat="47.1972" lon="6.83232">
        <ele>880</ele>
        <time>2024-05-08T13:18:44Z</time>
      </trkpt>
      <trkpt lat="47.1972" lon="6.83233">
        <ele>880</ele>
        <time>2024-05-08T13:18:54Z</time>
      </trkpt>
      <trkpt lat="47.1972" lon="6.83235">
        <ele>880</ele>
        <time>2024-05-08T13:19:05Z</time>
      </trkpt>
      <trkpt lat="47.19717" lon="6.83235">
        <ele>880</ele>
        <time>2024-05-08T13:19:15Z</time>
      </trkpt>
      <trkpt lat="47.19717" lon="6.83235">
        <ele>880</ele>
        <time>2024-05-08T13:19:26Z</time>
      </trkpt>
      <trkpt lat="47.19717" lon="6.83235">
        <ele>880</ele>
        <time>2024-05-08T13:19:37Z</time>
      </trkpt>
      <trkpt lat="47.19717" lon="6.83235">
        <ele>880</ele>
        <time>2024-05-08T13:19:47Z</time>
      </trkpt>
      <trkpt lat="47.19716" lon="6.83235">
        <ele>880</ele>
        <time>2024-05-08T13:19:57Z</time>
      </trkpt>
      <trkpt lat="47.19716" lon="6.83235">
        <ele>880</ele>
        <time>2024-05-08T13:20:08Z</time>
      </trkpt>
      <trkpt lat="47.19716" lon="6.83235">
        <ele>880</ele>
        <time>2024-05-08T13:20:19Z</time>
      </trkpt>
      <trkpt lat="47.19716" lon="6.83235">
        <ele>880</ele>
        <time>2024-05-08T13:20:29Z</time>
      </trkpt>
      <trkpt lat="47.19716" lon="6.83235">
        <ele>880</ele>
        <time>2024-05-08T13:20:39Z</time>
      </trkpt>
      <trkpt lat="47.19716" lon="6.83235">
        <ele>880</ele>
        <time>2024-05-08T13:20:50Z</time>
      </trkpt>
      <trkpt lat="47.19716" lon="6.83235">
        <ele>880</ele>
        <time>2024-05-08T13:21:00Z</time>
      </trkpt>
      <trkpt lat="47.19716" lon="6.83235">
        <ele>880</ele>
        <time>2024-05-08T13:21:11Z</time>
      </trkpt>
      <trkpt lat="47.19716" lon="6.83235">
        <ele>880</ele>
        <time>2024-05-08T13:21:21Z</time>
      </trkpt>
      <trkpt lat="47.19716" lon="6.83235">
        <ele>880</ele>
        <time>2024-05-08T13:21:32Z</time>
      </trkpt>
      <trkpt lat="47.19716" lon="6.83235">
        <ele>880</ele>
        <time>2024-05-08T13:21:43Z</time>
      </trkpt>
      <trkpt lat="47.19716" lon="6.83235">
        <ele>880</ele>
        <time>2024-05-08T13:21:53Z</time>
      </trkpt>
      <trkpt lat="47.19716" lon="6.83235">
        <ele>880</ele>
        <time>2024-05-08T13:22:04Z</time>
      </trkpt>
      <trkpt lat="47.19716" lon="6.83235">
        <ele>880</ele>
        <time>2024-05-08T13:22:14Z</time>
      </trkpt>
      <trkpt lat="47.19716" lon="6.83235">
        <ele>880</ele>
        <time>2024-05-08T13:22:24Z</time>
      </trkpt>
      <trkpt lat="47.19716" lon="6.83235">
        <ele>880</ele>
        <time>2024-05-08T13:22:34Z</time>
      </trkpt>
      <trkpt lat="47.19716" lon="6.83235">
        <ele>880</ele>
        <time>2024-05-08T13:22:45Z</time>
      </trkpt>
      <trkpt lat="47.19716" lon="6.83235">
        <ele>880</ele>
        <time>2024-05-08T13:22:55Z</time>
      </trkpt>
      <trkpt lat="47.19716" lon="6.83235">
        <ele>880</ele>
        <time>2024-05-08T13:23:06Z</time>
      </trkpt>
      <trkpt lat="47.19716" lon="6.83235">
        <ele>880</ele>
        <time>2024-05-08T13:23:17Z</time>
      </trkpt>
      <trkpt lat="47.19716" lon="6.83235">
        <ele>880</ele>
        <time>2024-05-08T13:23:27Z</time>
      </trkpt>
      <trkpt lat="47.19716" lon="6.83235">
        <ele>880</ele>
        <time>2024-05-08T13:23:38Z</time>
      </trkpt>
      <trkpt lat="47.19716" lon="6.83235">
        <ele>880</ele>
        <time>2024-05-08T13:23:49Z</time>
      </trkpt>
      <trkpt lat="47.19716" lon="6.83235">
        <ele>880</ele>
        <time>2024-05-08T13:24:00Z</time>
      </trkpt>
      <trkpt lat="47.19716" lon="6.83235">
        <ele>880</ele>
        <time>2024-05-08T13:24:11Z</time>
      </trkpt>
      <trkpt lat="47.1971" lon="6.83235">
        <ele>880</ele>
        <time>2024-05-08T13:24:22Z</time>
      </trkpt>
      <trkpt lat="47.19701" lon="6.83239">
        <ele>880</ele>
        <time>2024-05-08T13:24:33Z</time>
      </trkpt>
      <trkpt lat="47.19698" lon="6.83241">
        <ele>880.1</ele>
        <time>2024-05-08T13:24:43Z</time>
      </trkpt>
      <trkpt lat="47.19697" lon="6.83241">
        <ele>880.1</ele>
        <time>2024-05-08T13:24:54Z</time>
      </trkpt>
      <trkpt lat="47.19697" lon="6.83242">
        <ele>880.1</ele>
        <time>2024-05-08T13:25:04Z</time>
      </trkpt>
      <trkpt lat="47.19697" lon="6.83242">
        <ele>880.1</ele>
        <time>2024-05-08T13:25:15Z</time>
      </trkpt>
      <trkpt lat="47.19697" lon="6.83242">
        <ele>880.1</ele>
        <time>2024-05-08T13:25:26Z</time>
      </trkpt>
      <trkpt lat="47.19697" lon="6.83242">
        <ele>880.1</ele>
        <time>2024-05-08T13:25:37Z</time>
      </trkpt>
      <trkpt lat="47.19697" lon="6.83242">
        <ele>880.1</ele>
        <time>2024-05-08T13:25:47Z</time>
      </trkpt>
      <trkpt lat="47.19697" lon="6.83242">
        <ele>880.1</ele>
        <time>2024-05-08T13:25:58Z</time>
      </trkpt>
      <trkpt lat="47.19697" lon="6.83242">
        <ele>880.1</ele>
        <time>2024-05-08T13:26:08Z</time>
      </trkpt>
      <trkpt lat="47.19694" lon="6.83243">
        <ele>880.1</ele>
        <time>2024-05-08T13:26:18Z</time>
      </trkpt>
      <trkpt lat="47.19693" lon="6.83244">
        <ele>880.1</ele>
        <time>2024-05-08T13:26:28Z</time>
      </trkpt>
      <trkpt lat="47.19693" lon="6.83244">
        <ele>880.1</ele>
        <time>2024-05-08T13:26:39Z</time>
      </trkpt>
      <trkpt lat="47.19693" lon="6.83244">
        <ele>880.1</ele>
        <time>2024-05-08T13:26:49Z</time>
      </trkpt>
      <trkpt lat="47.19693" lon="6.83243">
        <ele>880.1</ele>
        <time>2024-05-08T13:26:59Z</time>
      </trkpt>
      <trkpt lat="47.19692" lon="6.83242">
        <ele>880.1</ele>
        <time>2024-05-08T13:27:09Z</time>
      </trkpt>
      <trkpt lat="47.19676" lon="6.83246">
        <ele>880.2</ele>
        <time>2024-05-08T13:27:20Z</time>
      </trkpt>
      <trkpt lat="47.19652" lon="6.83251">
        <ele>881.2</ele>
        <time>2024-05-08T13:27:30Z</time>
      </trkpt>
      <trkpt lat="47.19628" lon="6.83256">
        <ele>882.7</ele>
        <time>2024-05-08T13:27:41Z</time>
      </trkpt>
      <trkpt lat="47.19604" lon="6.83262">
        <ele>883.7</ele>
        <time>2024-05-08T13:27:52Z</time>
      </trkpt>
      <trkpt lat="47.19576" lon="6.83273">
        <ele>883.8</ele>
        <time>2024-05-08T13:28:02Z</time>
      </trkpt>
      <trkpt lat="47.19539" lon="6.83292">
        <ele>882.6</ele>
        <time>2024-05-08T13:28:12Z</time>
      </trkpt>
      <trkpt lat="47.19501" lon="6.83312">
        <ele>881.2</ele>
        <time>2024-05-08T13:28:23Z</time>
      </trkpt>
      <trkpt lat="47.19454" lon="6.83341">
        <ele>879.5</ele>
        <time>2024-05-08T13:28:34Z</time>
      </trkpt>
      <trkpt lat="47.19415" lon="6.83372">
        <ele>877.9</ele>
        <time>2024-05-08T13:28:44Z</time>
      </trkpt>
      <trkpt lat="47.19368" lon="6.83416">
        <ele>876.5</ele>
        <time>2024-05-08T13:28:55Z</time>
      </trkpt>
      <trkpt lat="47.19334" lon="6.83462">
        <ele>873.1</ele>
        <time>2024-05-08T13:29:05Z</time>
      </trkpt>
      <trkpt lat="47.19311" lon="6.83456">
        <ele>870.4</ele>
        <time>2024-05-08T13:29:15Z</time>
      </trkpt>
      <trkpt lat="47.19284" lon="6.83387">
        <ele>868.7</ele>
        <time>2024-05-08T13:29:26Z</time>
      </trkpt>
      <trkpt lat="47.19261" lon="6.83312">
        <ele>867.4</ele>
        <time>2024-05-08T13:29:36Z</time>
      </trkpt>
      <trkpt lat="47.1924" lon="6.83229">
        <ele>866.8</ele>
        <time>2024-05-08T13:29:46Z</time>
      </trkpt>
      <trkpt lat="47.19222" lon="6.8314">
        <ele>866.5</ele>
        <time>2024-05-08T13:29:57Z</time>
      </trkpt>
      <trkpt lat="47.19214" lon="6.83058">
        <ele>866.4</ele>
        <time>2024-05-08T13:30:07Z</time>
      </trkpt>
      <trkpt lat="47.19209" lon="6.82984">
        <ele>867.7</ele>
        <time>2024-05-08T13:30:17Z</time>
      </trkpt>
      <trkpt lat="47.19198" lon="6.8291">
        <ele>869.8</ele>
        <time>2024-05-08T13:30:28Z</time>
      </trkpt>
      <trkpt lat="47.19178" lon="6.82861">
        <ele>871.7</ele>
        <time>2024-05-08T13:30:38Z</time>
      </trkpt>
      <trkpt lat="47.19152" lon="6.8282">
        <ele>873.6</ele>
        <time>2024-05-08T13:30:48Z</time>
      </trkpt>
      <trkpt lat="47.19124" lon="6.82783">
        <ele>875.5</ele>
        <time>2024-05-08T13:30:59Z</time>
      </trkpt>
      <trkpt lat="47.19097" lon="6.82751">
        <ele>877.6</ele>
        <time>2024-05-08T13:31:10Z</time>
      </trkpt>
      <trkpt lat="47.19074" lon="6.82723">
        <ele>879.3</ele>
        <time>2024-05-08T13:31:21Z</time>
      </trkpt>
      <trkpt lat="47.19046" lon="6.82686">
        <ele>880.2</ele>
        <time>2024-05-08T13:31:31Z</time>
      </trkpt>
      <trkpt lat="47.19027" lon="6.82648">
        <ele>880.3</ele>
        <time>2024-05-08T13:31:41Z</time>
      </trkpt>
      <trkpt lat="47.19015" lon="6.82609">
        <ele>880.1</ele>
        <time>2024-05-08T13:31:52Z</time>
      </trkpt>
      <trkpt lat="47.18996" lon="6.82552">
        <ele>879.3</ele>
        <time>2024-05-08T13:32:02Z</time>
      </trkpt>
      <trkpt lat="47.18972" lon="6.82484">
        <ele>878.3</ele>
        <time>2024-05-08T13:32:13Z</time>
      </trkpt>
      <trkpt lat="47.18946" lon="6.82427">
        <ele>877.3</ele>
        <time>2024-05-08T13:32:23Z</time>
      </trkpt>
      <trkpt lat="47.18926" lon="6.82391">
        <ele>876.7</ele>
        <time>2024-05-08T13:32:34Z</time>
      </trkpt>
      <trkpt lat="47.18877" lon="6.82351">
        <ele>876</ele>
        <time>2024-05-08T13:32:44Z</time>
      </trkpt>
      <trkpt lat="47.1882" lon="6.82291">
        <ele>875.5</ele>
        <time>2024-05-08T13:32:54Z</time>
      </trkpt>
      <trkpt lat="47.1877" lon="6.82228">
        <ele>877.8</ele>
        <time>2024-05-08T13:33:05Z</time>
      </trkpt>
      <trkpt lat="47.18731" lon="6.82185">
        <ele>879.9</ele>
        <time>2024-05-08T13:33:16Z</time>
      </trkpt>
      <trkpt lat="47.18689" lon="6.82157">
        <ele>881.9</ele>
        <time>2024-05-08T13:33:27Z</time>
      </trkpt>
      <trkpt lat="47.18641" lon="6.8215">
        <ele>883.1</ele>
        <time>2024-05-08T13:33:38Z</time>
      </trkpt>
      <trkpt lat="47.18585" lon="6.82152">
        <ele>883.9</ele>
        <time>2024-05-08T13:33:49Z</time>
      </trkpt>
      <trkpt lat="47.18534" lon="6.82154">
        <ele>884.4</ele>
        <time>2024-05-08T13:33:59Z</time>
      </trkpt>
      <trkpt lat="47.18483" lon="6.82153">
        <ele>884.5</ele>
        <time>2024-05-08T13:34:10Z</time>
      </trkpt>
      <trkpt lat="47.18433" lon="6.82108">
        <ele>882.7</ele>
        <time>2024-05-08T13:34:21Z</time>
      </trkpt>
      <trkpt lat="47.18359" lon="6.82112">
        <ele>880.7</ele>
        <time>2024-05-08T13:34:32Z</time>
      </trkpt>
      <trkpt lat="47.18313" lon="6.82107">
        <ele>879.4</ele>
        <time>2024-05-08T13:34:43Z</time>
      </trkpt>
      <trkpt lat="47.1833" lon="6.82114">
        <ele>879.7</ele>
        <time>2024-05-08T13:34:53Z</time>
      </trkpt>
      <trkpt lat="47.18326" lon="6.82153">
        <ele>878.8</ele>
        <time>2024-05-08T13:35:03Z</time>
      </trkpt>
      <trkpt lat="47.18284" lon="6.82202">
        <ele>878.7</ele>
        <time>2024-05-08T13:35:14Z</time>
      </trkpt>
      <trkpt lat="47.18251" lon="6.82243">
        <ele>880.8</ele>
        <time>2024-05-08T13:35:25Z</time>
      </trkpt>
      <trkpt lat="47.18222" lon="6.82261">
        <ele>883.1</ele>
        <time>2024-05-08T13:35:35Z</time>
      </trkpt>
      <trkpt lat="47.18194" lon="6.82288">
        <ele>884.9</ele>
        <time>2024-05-08T13:35:46Z</time>
      </trkpt>
      <trkpt lat="47.18154" lon="6.82312">
        <ele>884.7</ele>
        <time>2024-05-08T13:35:57Z</time>
      </trkpt>
      <trkpt lat="47.18125" lon="6.82324">
        <ele>885.3</ele>
        <time>2024-05-08T13:36:07Z</time>
      </trkpt>
      <trkpt lat="47.18099" lon="6.82328">
        <ele>886.5</ele>
        <time>2024-05-08T13:36:18Z</time>
      </trkpt>
      <trkpt lat="47.18075" lon="6.82333">
        <ele>888.6</ele>
        <time>2024-05-08T13:36:29Z</time>
      </trkpt>
      <trkpt lat="47.18057" lon="6.8234">
        <ele>891.4</ele>
        <time>2024-05-08T13:36:39Z</time>
      </trkpt>
      <trkpt lat="47.18041" lon="6.82351">
        <ele>894.7</ele>
        <time>2024-05-08T13:36:50Z</time>
      </trkpt>
      <trkpt lat="47.18027" lon="6.82363">
        <ele>897.3</ele>
        <time>2024-05-08T13:37:00Z</time>
      </trkpt>
      <trkpt lat="47.18011" lon="6.82368">
        <ele>899.5</ele>
        <time>2024-05-08T13:37:11Z</time>
      </trkpt>
      <trkpt lat="47.17995" lon="6.82367">
        <ele>901.7</ele>
        <time>2024-05-08T13:37:22Z</time>
      </trkpt>
      <trkpt lat="47.17981" lon="6.82366">
        <ele>903.5</ele>
        <time>2024-05-08T13:37:32Z</time>
      </trkpt>
      <trkpt lat="47.17964" lon="6.82362">
        <ele>905.4</ele>
        <time>2024-05-08T13:37:43Z</time>
      </trkpt>
      <trkpt lat="47.17949" lon="6.8236">
        <ele>907</ele>
        <time>2024-05-08T13:37:54Z</time>
      </trkpt>
      <trkpt lat="47.17933" lon="6.82361">
        <ele>908.8</ele>
        <time>2024-05-08T13:38:05Z</time>
      </trkpt>
      <trkpt lat="47.17917" lon="6.82366">
        <ele>911</ele>
        <time>2024-05-08T13:38:16Z</time>
      </trkpt>
      <trkpt lat="47.17902" lon="6.82379">
        <ele>913.4</ele>
        <time>2024-05-08T13:38:27Z</time>
      </trkpt>
      <trkpt lat="47.17887" lon="6.82388">
        <ele>915.3</ele>
        <time>2024-05-08T13:38:38Z</time>
      </trkpt>
      <trkpt lat="47.17875" lon="6.82387">
        <ele>916.1</ele>
        <time>2024-05-08T13:38:49Z</time>
      </trkpt>
      <trkpt lat="47.17875" lon="6.82387">
        <ele>916.1</ele>
        <time>2024-05-08T13:39:00Z</time>
      </trkpt>
      <trkpt lat="47.17858" lon="6.82406">
        <ele>917.6</ele>
        <time>2024-05-08T13:39:11Z</time>
      </trkpt>
      <trkpt lat="47.17837" lon="6.82415">
        <ele>919.6</ele>
        <time>2024-05-08T13:39:22Z</time>
      </trkpt>
      <trkpt lat="47.17819" lon="6.82426">
        <ele>921.6</ele>
        <time>2024-05-08T13:39:32Z</time>
      </trkpt>
      <trkpt lat="47.17804" lon="6.82436">
        <ele>923</ele>
        <time>2024-05-08T13:39:42Z</time>
      </trkpt>
      <trkpt lat="47.17781" lon="6.82449">
        <ele>924.6</ele>
        <time>2024-05-08T13:39:53Z</time>
      </trkpt>
      <trkpt lat="47.17763" lon="6.8246">
        <ele>925.8</ele>
        <time>2024-05-08T13:40:03Z</time>
      </trkpt>
      <trkpt lat="47.17741" lon="6.82463">
        <ele>927.1</ele>
        <time>2024-05-08T13:40:13Z</time>
      </trkpt>
      <trkpt lat="47.17722" lon="6.82455">
        <ele>928.4</ele>
        <time>2024-05-08T13:40:25Z</time>
      </trkpt>
      <trkpt lat="47.17708" lon="6.82442">
        <ele>929.7</ele>
        <time>2024-05-08T13:40:35Z</time>
      </trkpt>
      <trkpt lat="47.17691" lon="6.82425">
        <ele>930.9</ele>
        <time>2024-05-08T13:40:46Z</time>
      </trkpt>
      <trkpt lat="47.17675" lon="6.82407">
        <ele>931.6</ele>
        <time>2024-05-08T13:40:57Z</time>
      </trkpt>
      <trkpt lat="47.17652" lon="6.82393">
        <ele>932.5</ele>
        <time>2024-05-08T13:41:07Z</time>
      </trkpt>
      <trkpt lat="47.1763" lon="6.82392">
        <ele>933.8</ele>
        <time>2024-05-08T13:41:18Z</time>
      </trkpt>
      <trkpt lat="47.17605" lon="6.82389">
        <ele>936.1</ele>
        <time>2024-05-08T13:41:29Z</time>
      </trkpt>
      <trkpt lat="47.17586" lon="6.82379">
        <ele>938</ele>
        <time>2024-05-08T13:41:39Z</time>
      </trkpt>
      <trkpt lat="47.17564" lon="6.82379">
        <ele>939.8</ele>
        <time>2024-05-08T13:41:50Z</time>
      </trkpt>
      <trkpt lat="47.17548" lon="6.82384">
        <ele>941.6</ele>
        <time>2024-05-08T13:42:00Z</time>
      </trkpt>
      <trkpt lat="47.17529" lon="6.82392">
        <ele>944.1</ele>
        <time>2024-05-08T13:42:11Z</time>
      </trkpt>
      <trkpt lat="47.17508" lon="6.82395">
        <ele>946.4</ele>
        <time>2024-05-08T13:42:22Z</time>
      </trkpt>
      <trkpt lat="47.17495" lon="6.82402">
        <ele>947.5</ele>
        <time>2024-05-08T13:42:32Z</time>
      </trkpt>
      <trkpt lat="47.17474" lon="6.82402">
        <ele>949.2</ele>
        <time>2024-05-08T13:42:43Z</time>
      </trkpt>
      <trkpt lat="47.17457" lon="6.82395">
        <ele>950.5</ele>
        <time>2024-05-08T13:42:53Z</time>
      </trkpt>
      <trkpt lat="47.17437" lon="6.82385">
        <ele>952</ele>
        <time>2024-05-08T13:43:04Z</time>
      </trkpt>
      <trkpt lat="47.17418" lon="6.82373">
        <ele>953.1</ele>
        <time>2024-05-08T13:43:14Z</time>
      </trkpt>
      <trkpt lat="47.17399" lon="6.82363">
        <ele>954.2</ele>
        <time>2024-05-08T13:43:25Z</time>
      </trkpt>
      <trkpt lat="47.17379" lon="6.82364">
        <ele>955.3</ele>
        <time>2024-05-08T13:43:35Z</time>
      </trkpt>
      <trkpt lat="47.1736" lon="6.82362">
        <ele>956.3</ele>
        <time>2024-05-08T13:43:45Z</time>
      </trkpt>
      <trkpt lat="47.17336" lon="6.82352">
        <ele>957.7</ele>
        <time>2024-05-08T13:43:56Z</time>
      </trkpt>
      <trkpt lat="47.17312" lon="6.82328">
        <ele>958.8</ele>
        <time>2024-05-08T13:44:06Z</time>
      </trkpt>
      <trkpt lat="47.17287" lon="6.82305">
        <ele>959.8</ele>
        <time>2024-05-08T13:44:16Z</time>
      </trkpt>
      <trkpt lat="47.17261" lon="6.82281">
        <ele>960.8</ele>
        <time>2024-05-08T13:44:26Z</time>
      </trkpt>
      <trkpt lat="47.17236" lon="6.8225">
        <ele>961.5</ele>
        <time>2024-05-08T13:44:36Z</time>
      </trkpt>
      <trkpt lat="47.17206" lon="6.82214">
        <ele>961.8</ele>
        <time>2024-05-08T13:44:47Z</time>
      </trkpt>
      <trkpt lat="47.17166" lon="6.82183">
        <ele>962.2</ele>
        <time>2024-05-08T13:44:58Z</time>
      </trkpt>
      <trkpt lat="47.17125" lon="6.82185">
        <ele>963</ele>
        <time>2024-05-08T13:45:09Z</time>
      </trkpt>
      <trkpt lat="47.17099" lon="6.82189">
        <ele>963.6</ele>
        <time>2024-05-08T13:45:19Z</time>
      </trkpt>
      <trkpt lat="47.17097" lon="6.82189">
        <ele>963.7</ele>
        <time>2024-05-08T13:45:29Z</time>
      </trkpt>
      <trkpt lat="47.17082" lon="6.82187">
        <ele>964.1</ele>
        <time>2024-05-08T13:45:40Z</time>
      </trkpt>
      <trkpt lat="47.17053" lon="6.82193">
        <ele>964.7</ele>
        <time>2024-05-08T13:45:50Z</time>
      </trkpt>
      <trkpt lat="47.17018" lon="6.82204">
        <ele>964.7</ele>
        <time>2024-05-08T13:46:01Z</time>
      </trkpt>
      <trkpt lat="47.16983" lon="6.82212">
        <ele>964.2</ele>
        <time>2024-05-08T13:46:12Z</time>
      </trkpt>
      <trkpt lat="47.16968" lon="6.82195">
        <ele>963.7</ele>
        <time>2024-05-08T13:46:22Z</time>
      </trkpt>
      <trkpt lat="47.16964" lon="6.82203">
        <ele>963.3</ele>
        <time>2024-05-08T13:46:33Z</time>
      </trkpt>
      <trkpt lat="47.16964" lon="6.82203">
        <ele>963.3</ele>
        <time>2024-05-08T13:46:44Z</time>
      </trkpt>
      <trkpt lat="47.16962" lon="6.82208">
        <ele>963.1</ele>
        <time>2024-05-08T13:46:55Z</time>
      </trkpt>
      <trkpt lat="47.16962" lon="6.82208">
        <ele>963.1</ele>
        <time>2024-05-08T13:47:05Z</time>
      </trkpt>
      <trkpt lat="47.16962" lon="6.82208">
        <ele>963.1</ele>
        <time>2024-05-08T13:47:16Z</time>
      </trkpt>
      <trkpt lat="47.16962" lon="6.82208">
        <ele>963.1</ele>
        <time>2024-05-08T13:47:27Z</time>
      </trkpt>
      <trkpt lat="47.16962" lon="6.82208">
        <ele>963.1</ele>
        <time>2024-05-08T13:47:37Z</time>
      </trkpt>
      <trkpt lat="47.16962" lon="6.82208">
        <ele>963.1</ele>
        <time>2024-05-08T13:47:48Z</time>
      </trkpt>
      <trkpt lat="47.16962" lon="6.82208">
        <ele>963.1</ele>
        <time>2024-05-08T13:47:58Z</time>
      </trkpt>
      <trkpt lat="47.16962" lon="6.82208">
        <ele>963.1</ele>
        <time>2024-05-08T13:48:08Z</time>
      </trkpt>
      <trkpt lat="47.16951" lon="6.82235">
        <ele>961.8</ele>
        <time>2024-05-08T13:48:19Z</time>
      </trkpt>
      <trkpt lat="47.16934" lon="6.82306">
        <ele>958.4</ele>
        <time>2024-05-08T13:48:29Z</time>
      </trkpt>
      <trkpt lat="47.16923" lon="6.82418">
        <ele>956.2</ele>
        <time>2024-05-08T13:48:39Z</time>
      </trkpt>
      <trkpt lat="47.16888" lon="6.82486">
        <ele>956.6</ele>
        <time>2024-05-08T13:48:50Z</time>
      </trkpt>
      <trkpt lat="47.16866" lon="6.82454">
        <ele>956.7</ele>
        <time>2024-05-08T13:49:01Z</time>
      </trkpt>
      <trkpt lat="47.16845" lon="6.82437">
        <ele>958.2</ele>
        <time>2024-05-08T13:49:11Z</time>
      </trkpt>
      <trkpt lat="47.16815" lon="6.82426">
        <ele>960.3</ele>
        <time>2024-05-08T13:49:22Z</time>
      </trkpt>
      <trkpt lat="47.16803" lon="6.82389">
        <ele>961</ele>
        <time>2024-05-08T13:49:32Z</time>
      </trkpt>
      <trkpt lat="47.16793" lon="6.82355">
        <ele>961.7</ele>
        <time>2024-05-08T13:49:43Z</time>
      </trkpt>
      <trkpt lat="47.16803" lon="6.82388">
        <ele>961</ele>
        <time>2024-05-08T13:49:53Z</time>
      </trkpt>
      <trkpt lat="47.16824" lon="6.8245">
        <ele>959.7</ele>
        <time>2024-05-08T13:50:04Z</time>
      </trkpt>
      <trkpt lat="47.16845" lon="6.82508">
        <ele>956.7</ele>
        <time>2024-05-08T13:50:14Z</time>
      </trkpt>
      <trkpt lat="47.16857" lon="6.82534">
        <ele>955.3</ele>
        <time>2024-05-08T13:50:25Z</time>
      </trkpt>
      <trkpt lat="47.16863" lon="6.82522">
        <ele>955.7</ele>
        <time>2024-05-08T13:50:35Z</time>
      </trkpt>
      <trkpt lat="47.1687" lon="6.82512">
        <ele>956.2</ele>
        <time>2024-05-08T13:50:46Z</time>
      </trkpt>
      <trkpt lat="47.16859" lon="6.82509">
        <ele>956.7</ele>
        <time>2024-05-08T13:50:57Z</time>
      </trkpt>
      <trkpt lat="47.16835" lon="6.82482">
        <ele>958.1</ele>
        <time>2024-05-08T13:51:08Z</time>
      </trkpt>
      <trkpt lat="47.16826" lon="6.82446">
        <ele>959.8</ele>
        <time>2024-05-08T13:51:18Z</time>
      </trkpt>
      <trkpt lat="47.16811" lon="6.82411">
        <ele>960.6</ele>
        <time>2024-05-08T13:51:28Z</time>
      </trkpt>
      <trkpt lat="47.16797" lon="6.82369">
        <ele>961.4</ele>
        <time>2024-05-08T13:51:39Z</time>
      </trkpt>
      <trkpt lat="47.16776" lon="6.82324">
        <ele>962.2</ele>
        <time>2024-05-08T13:51:50Z</time>
      </trkpt>
      <trkpt lat="47.16747" lon="6.82291">
        <ele>962</ele>
        <time>2024-05-08T13:52:00Z</time>
      </trkpt>
      <trkpt lat="47.16703" lon="6.82245">
        <ele>959.8</ele>
        <time>2024-05-08T13:52:11Z</time>
      </trkpt>
      <trkpt lat="47.1664" lon="6.8218">
        <ele>957</ele>
        <time>2024-05-08T13:52:22Z</time>
      </trkpt>
      <trkpt lat="47.16578" lon="6.82115">
        <ele>957.6</ele>
        <time>2024-05-08T13:52:33Z</time>
      </trkpt>
      <trkpt lat="47.16539" lon="6.82075">
        <ele>959</ele>
        <time>2024-05-08T13:52:43Z</time>
      </trkpt>
      <trkpt lat="47.16512" lon="6.82006">
        <ele>960</ele>
        <time>2024-05-08T13:52:54Z</time>
      </trkpt>
      <trkpt lat="47.16481" lon="6.81947">
        <ele>959.1</ele>
        <time>2024-05-08T13:53:04Z</time>
      </trkpt>
      <trkpt lat="47.16434" lon="6.81872">
        <ele>956</ele>
        <time>2024-05-08T13:53:15Z</time>
      </trkpt>
      <trkpt lat="47.16392" lon="6.81791">
        <ele>956.4</ele>
        <time>2024-05-08T13:53:25Z</time>
      </trkpt>
      <trkpt lat="47.16363" lon="6.81739">
        <ele>957.9</ele>
        <time>2024-05-08T13:53:36Z</time>
      </trkpt>
      <trkpt lat="47.16324" lon="6.81673">
        <ele>956.8</ele>
        <time>2024-05-08T13:53:47Z</time>
      </trkpt>
      <trkpt lat="47.16274" lon="6.81667">
        <ele>958.7</ele>
        <time>2024-05-08T13:53:57Z</time>
      </trkpt>
      <trkpt lat="47.16238" lon="6.81669">
        <ele>962.4</ele>
        <time>2024-05-08T13:54:08Z</time>
      </trkpt>
      <trkpt lat="47.16212" lon="6.81679">
        <ele>964</ele>
        <time>2024-05-08T13:54:18Z</time>
      </trkpt>
      <trkpt lat="47.16156" lon="6.81688">
        <ele>959.3</ele>
        <time>2024-05-08T13:54:29Z</time>
      </trkpt>
      <trkpt lat="47.16082" lon="6.81623">
        <ele>952.9</ele>
        <time>2024-05-08T13:54:40Z</time>
      </trkpt>
      <trkpt lat="47.16022" lon="6.81553">
        <ele>944.7</ele>
        <time>2024-05-08T13:54:50Z</time>
      </trkpt>
      <trkpt lat="47.15987" lon="6.81458">
        <ele>942.9</ele>
        <time>2024-05-08T13:55:00Z</time>
      </trkpt>
      <trkpt lat="47.15948" lon="6.81363">
        <ele>941</ele>
        <time>2024-05-08T13:55:11Z</time>
      </trkpt>
      <trkpt lat="47.15918" lon="6.81267">
        <ele>940.1</ele>
        <time>2024-05-08T13:55:21Z</time>
      </trkpt>
      <trkpt lat="47.15877" lon="6.81172">
        <ele>936.9</ele>
        <time>2024-05-08T13:55:32Z</time>
      </trkpt>
      <trkpt lat="47.15823" lon="6.81133">
        <ele>930.8</ele>
        <time>2024-05-08T13:55:43Z</time>
      </trkpt>
      <trkpt lat="47.15784" lon="6.81148">
        <ele>929.2</ele>
        <time>2024-05-08T13:55:53Z</time>
      </trkpt>
      <trkpt lat="47.15751" lon="6.81161">
        <ele>928.7</ele>
        <time>2024-05-08T13:56:03Z</time>
      </trkpt>
      <trkpt lat="47.15711" lon="6.81164">
        <ele>928.2</ele>
        <time>2024-05-08T13:56:14Z</time>
      </trkpt>
      <trkpt lat="47.15696" lon="6.81191">
        <ele>927.1</ele>
        <time>2024-05-08T13:56:24Z</time>
      </trkpt>
      <trkpt lat="47.15694" lon="6.81191">
        <ele>926.9</ele>
        <time>2024-05-08T13:56:34Z</time>
      </trkpt>
      <trkpt lat="47.15694" lon="6.81191">
        <ele>926.9</ele>
        <time>2024-05-08T13:56:45Z</time>
      </trkpt>
      <trkpt lat="47.15694" lon="6.81191">
        <ele>926.9</ele>
        <time>2024-05-08T13:56:56Z</time>
      </trkpt>
      <trkpt lat="47.15694" lon="6.81191">
        <ele>926.9</ele>
        <time>2024-05-08T13:57:06Z</time>
      </trkpt>
      <trkpt lat="47.1569" lon="6.81197">
        <ele>926.5</ele>
        <time>2024-05-08T13:57:17Z</time>
      </trkpt>
      <trkpt lat="47.15657" lon="6.81214">
        <ele>925.5</ele>
        <time>2024-05-08T13:57:28Z</time>
      </trkpt>
      <trkpt lat="47.15627" lon="6.81246">
        <ele>925.2</ele>
        <time>2024-05-08T13:57:39Z</time>
      </trkpt>
      <trkpt lat="47.15588" lon="6.81275">
        <ele>923.1</ele>
        <time>2024-05-08T13:57:50Z</time>
      </trkpt>
      <trkpt lat="47.15541" lon="6.81259">
        <ele>920.4</ele>
        <time>2024-05-08T13:58:01Z</time>
      </trkpt>
      <trkpt lat="47.15495" lon="6.81251">
        <ele>919.8</ele>
        <time>2024-05-08T13:58:11Z</time>
      </trkpt>
      <trkpt lat="47.15448" lon="6.81267">
        <ele>919.2</ele>
        <time>2024-05-08T13:58:22Z</time>
      </trkpt>
      <trkpt lat="47.15406" lon="6.81282">
        <ele>918.4</ele>
        <time>2024-05-08T13:58:32Z</time>
      </trkpt>
      <trkpt lat="47.15364" lon="6.81305">
        <ele>917.7</ele>
        <time>2024-05-08T13:58:43Z</time>
      </trkpt>
      <trkpt lat="47.15352" lon="6.81317">
        <ele>916.8</ele>
        <time>2024-05-08T13:58:54Z</time>
      </trkpt>
      <trkpt lat="47.15353" lon="6.81321">
        <ele>916.5</ele>
        <time>2024-05-08T13:59:05Z</time>
      </trkpt>
      <trkpt lat="47.15353" lon="6.81321">
        <ele>916.5</ele>
        <time>2024-05-08T13:59:15Z</time>
      </trkpt>
      <trkpt lat="47.15353" lon="6.81321">
        <ele>916.5</ele>
        <time>2024-05-08T13:59:26Z</time>
      </trkpt>
      <trkpt lat="47.15351" lon="6.81324">
        <ele>916.3</ele>
        <time>2024-05-08T13:59:36Z</time>
      </trkpt>
      <trkpt lat="47.15351" lon="6.81324">
        <ele>916.3</ele>
        <time>2024-05-08T13:59:46Z</time>
      </trkpt>
      <trkpt lat="47.15344" lon="6.8133">
        <ele>915.5</ele>
        <time>2024-05-08T13:59:56Z</time>
      </trkpt>
      <trkpt lat="47.15335" lon="6.81339">
        <ele>914.7</ele>
        <time>2024-05-08T14:00:07Z</time>
      </trkpt>
      <trkpt lat="47.1533" lon="6.81349">
        <ele>914</ele>
        <time>2024-05-08T14:00:18Z</time>
      </trkpt>
      <trkpt lat="47.15328" lon="6.81349">
        <ele>913.8</ele>
        <time>2024-05-08T14:00:28Z</time>
      </trkpt>
      <trkpt lat="47.15328" lon="6.81349">
        <ele>913.8</ele>
        <time>2024-05-08T14:00:39Z</time>
      </trkpt>
      <trkpt lat="47.15328" lon="6.81349">
        <ele>913.8</ele>
        <time>2024-05-08T14:00:49Z</time>
      </trkpt>
      <trkpt lat="47.15328" lon="6.81349">
        <ele>913.8</ele>
        <time>2024-05-08T14:01:00Z</time>
      </trkpt>
      <trkpt lat="47.15327" lon="6.81342">
        <ele>913.5</ele>
        <time>2024-05-08T14:01:11Z</time>
      </trkpt>
      <trkpt lat="47.15328" lon="6.81345">
        <ele>913.3</ele>
        <time>2024-05-08T14:01:22Z</time>
      </trkpt>
      <trkpt lat="47.15328" lon="6.81345">
        <ele>913.3</ele>
        <time>2024-05-08T14:01:32Z</time>
      </trkpt>
      <trkpt lat="47.15328" lon="6.81345">
        <ele>913.3</ele>
        <time>2024-05-08T14:01:42Z</time>
      </trkpt>
      <trkpt lat="47.15328" lon="6.81345">
        <ele>913.3</ele>
        <time>2024-05-08T14:01:53Z</time>
      </trkpt>
      <trkpt lat="47.15328" lon="6.81345">
        <ele>913.3</ele>
        <time>2024-05-08T14:02:03Z</time>
      </trkpt>
      <trkpt lat="47.15328" lon="6.81345">
        <ele>913.3</ele>
        <time>2024-05-08T14:02:14Z</time>
      </trkpt>
      <trkpt lat="47.15328" lon="6.81345">
        <ele>913.3</ele>
        <time>2024-05-08T14:02:25Z</time>
      </trkpt>
    </trkseg>
  </trk>
  <trk>
    <name><![CDATA[GTJ Gravielo EP 2]]></name>
    <extensions>
      <line xmlns="http://www.topografix.com/GPX/gpx_style/0/2">
        <color>00FF00</color>
        <width>4</width>
      </line>
    </extensions>
    <trkseg>
      <trkpt lat="47.15105" lon="6.80419">
        <ele>922</ele>
        <time>2024-05-09T06:44:32Z</time>
      </trkpt>
      <trkpt lat="47.15105" lon="6.80419">
        <ele>922</ele>
        <time>2024-05-09T06:44:43Z</time>
      </trkpt>
      <trkpt lat="47.15105" lon="6.80419">
        <ele>922</ele>
        <time>2024-05-09T06:44:54Z</time>
      </trkpt>
      <trkpt lat="47.15105" lon="6.80419">
        <ele>922</ele>
        <time>2024-05-09T06:45:05Z</time>
      </trkpt>
      <trkpt lat="47.15105" lon="6.80419">
        <ele>922</ele>
        <time>2024-05-09T06:45:15Z</time>
      </trkpt>
      <trkpt lat="47.15105" lon="6.80419">
        <ele>922</ele>
        <time>2024-05-09T06:45:25Z</time>
      </trkpt>
      <trkpt lat="47.15105" lon="6.80419">
        <ele>922</ele>
        <time>2024-05-09T06:45:36Z</time>
      </trkpt>
      <trkpt lat="47.15105" lon="6.80419">
        <ele>922</ele>
        <time>2024-05-09T06:45:47Z</time>
      </trkpt>
      <trkpt lat="47.15105" lon="6.80419">
        <ele>922</ele>
        <time>2024-05-09T06:45:57Z</time>
      </trkpt>
      <trkpt lat="47.15105" lon="6.80419">
        <ele>922</ele>
        <time>2024-05-09T06:46:08Z</time>
      </trkpt>
      <trkpt lat="47.15105" lon="6.8042">
        <ele>922</ele>
        <time>2024-05-09T06:46:18Z</time>
      </trkpt>
      <trkpt lat="47.15105" lon="6.8042">
        <ele>922</ele>
        <time>2024-05-09T06:46:28Z</time>
      </trkpt>
      <trkpt lat="47.15105" lon="6.8042">
        <ele>922</ele>
        <time>2024-05-09T06:46:38Z</time>
      </trkpt>
      <trkpt lat="47.151" lon="6.80409">
        <ele>921.9</ele>
        <time>2024-05-09T06:46:49Z</time>
      </trkpt>
      <trkpt lat="47.15082" lon="6.80372">
        <ele>921.4</ele>
        <time>2024-05-09T06:46:59Z</time>
      </trkpt>
      <trkpt lat="47.15062" lon="6.80337">
        <ele>921.7</ele>
        <time>2024-05-09T06:47:09Z</time>
      </trkpt>
      <trkpt lat="47.15042" lon="6.80294">
        <ele>922.3</ele>
        <time>2024-05-09T06:47:19Z</time>
      </trkpt>
      <trkpt lat="47.15018" lon="6.80248">
        <ele>923.3</ele>
        <time>2024-05-09T06:47:30Z</time>
      </trkpt>
      <trkpt lat="47.14999" lon="6.80212">
        <ele>924.8</ele>
        <time>2024-05-09T06:47:41Z</time>
      </trkpt>
      <trkpt lat="47.14983" lon="6.8017">
        <ele>926.1</ele>
        <time>2024-05-09T06:47:51Z</time>
      </trkpt>
      <trkpt lat="47.14976" lon="6.80113">
        <ele>926.5</ele>
        <time>2024-05-09T06:48:01Z</time>
      </trkpt>
      <trkpt lat="47.15003" lon="6.80052">
        <ele>926.5</ele>
        <time>2024-05-09T06:48:12Z</time>
      </trkpt>
      <trkpt lat="47.15039" lon="6.80008">
        <ele>927.2</ele>
        <time>2024-05-09T06:48:24Z</time>
      </trkpt>
      <trkpt lat="47.15062" lon="6.79951">
        <ele>927.8</ele>
        <time>2024-05-09T06:48:34Z</time>
      </trkpt>
      <trkpt lat="47.15042" lon="6.79898">
        <ele>927.5</ele>
        <time>2024-05-09T06:48:45Z</time>
      </trkpt>
      <trkpt lat="47.15014" lon="6.79841">
        <ele>926.3</ele>
        <time>2024-05-09T06:48:56Z</time>
      </trkpt>
      <trkpt lat="47.14978" lon="6.79772">
        <ele>925.1</ele>
        <time>2024-05-09T06:49:06Z</time>
      </trkpt>
      <trkpt lat="47.14953" lon="6.797">
        <ele>926.3</ele>
        <time>2024-05-09T06:49:18Z</time>
      </trkpt>
      <trkpt lat="47.1496" lon="6.79628">
        <ele>927.2</ele>
        <time>2024-05-09T06:49:29Z</time>
      </trkpt>
      <trkpt lat="47.14974" lon="6.79552">
        <ele>927.8</ele>
        <time>2024-05-09T06:49:39Z</time>
      </trkpt>
      <trkpt lat="47.14993" lon="6.79488">
        <ele>928.3</ele>
        <time>2024-05-09T06:49:49Z</time>
      </trkpt>
      <trkpt lat="47.15017" lon="6.7942">
        <ele>928.9</ele>
        <time>2024-05-09T06:50:01Z</time>
      </trkpt>
      <trkpt lat="47.15028" lon="6.79346">
        <ele>930.3</ele>
        <time>2024-05-09T06:50:11Z</time>
      </trkpt>
      <trkpt lat="47.15034" lon="6.79303">
        <ele>932.2</ele>
        <time>2024-05-09T06:50:21Z</time>
      </trkpt>
      <trkpt lat="47.15042" lon="6.79266">
        <ele>934.3</ele>
        <time>2024-05-09T06:50:31Z</time>
      </trkpt>
      <trkpt lat="47.15047" lon="6.79231">
        <ele>936.5</ele>
        <time>2024-05-09T06:50:42Z</time>
      </trkpt>
      <trkpt lat="47.15057" lon="6.79194">
        <ele>938.8</ele>
        <time>2024-05-09T06:50:52Z</time>
      </trkpt>
      <trkpt lat="47.15064" lon="6.79161">
        <ele>940.1</ele>
        <time>2024-05-09T06:51:02Z</time>
      </trkpt>
      <trkpt lat="47.15061" lon="6.7912">
        <ele>941.4</ele>
        <time>2024-05-09T06:51:13Z</time>
      </trkpt>
      <trkpt lat="47.15053" lon="6.79074">
        <ele>942.8</ele>
        <time>2024-05-09T06:51:23Z</time>
      </trkpt>
      <trkpt lat="47.15047" lon="6.79029">
        <ele>944.6</ele>
        <time>2024-05-09T06:51:34Z</time>
      </trkpt>
      <trkpt lat="47.15043" lon="6.78983">
        <ele>946.3</ele>
        <time>2024-05-09T06:51:44Z</time>
      </trkpt>
      <trkpt lat="47.15039" lon="6.78934">
        <ele>947.6</ele>
        <time>2024-05-09T06:51:54Z</time>
      </trkpt>
      <trkpt lat="47.15034" lon="6.78891">
        <ele>949.2</ele>
        <time>2024-05-09T06:52:04Z</time>
      </trkpt>
      <trkpt lat="47.15026" lon="6.78833">
        <ele>949.8</ele>
        <time>2024-05-09T06:52:15Z</time>
      </trkpt>
      <trkpt lat="47.15015" lon="6.78774">
        <ele>950.2</ele>
        <time>2024-05-09T06:52:26Z</time>
      </trkpt>
      <trkpt lat="47.15004" lon="6.78701">
        <ele>949.2</ele>
        <time>2024-05-09T06:52:36Z</time>
      </trkpt>
      <trkpt lat="47.1499" lon="6.78615">
        <ele>948.2</ele>
        <time>2024-05-09T06:52:46Z</time>
      </trkpt>
      <trkpt lat="47.14976" lon="6.78537">
        <ele>947.7</ele>
        <time>2024-05-09T06:52:56Z</time>
      </trkpt>
      <trkpt lat="47.14964" lon="6.78438">
        <ele>945.8</ele>
        <time>2024-05-09T06:53:07Z</time>
      </trkpt>
      <trkpt lat="47.14939" lon="6.78358">
        <ele>945.4</ele>
        <time>2024-05-09T06:53:18Z</time>
      </trkpt>
      <trkpt lat="47.14907" lon="6.78291">
        <ele>945.3</ele>
        <time>2024-05-09T06:53:28Z</time>
      </trkpt>
      <trkpt lat="47.14871" lon="6.78303">
        <ele>944.1</ele>
        <time>2024-05-09T06:53:38Z</time>
      </trkpt>
      <trkpt lat="47.14823" lon="6.78361">
        <ele>943.6</ele>
        <time>2024-05-09T06:53:50Z</time>
      </trkpt>
      <trkpt lat="47.14779" lon="6.78408">
        <ele>944.8</ele>
        <time>2024-05-09T06:54:00Z</time>
      </trkpt>
      <trkpt lat="47.14747" lon="6.78443">
        <ele>946.5</ele>
        <time>2024-05-09T06:54:10Z</time>
      </trkpt>
      <trkpt lat="47.14713" lon="6.78478">
        <ele>947.7</ele>
        <time>2024-05-09T06:54:22Z</time>
      </trkpt>
      <trkpt lat="47.14674" lon="6.78514">
        <ele>947.8</ele>
        <time>2024-05-09T06:54:32Z</time>
      </trkpt>
      <trkpt lat="47.14629" lon="6.78554">
        <ele>949.1</ele>
        <time>2024-05-09T06:54:43Z</time>
      </trkpt>
      <trkpt lat="47.14594" lon="6.78573">
        <ele>951.3</ele>
        <time>2024-05-09T06:54:54Z</time>
      </trkpt>
      <trkpt lat="47.14562" lon="6.78583">
        <ele>952.6</ele>
        <time>2024-05-09T06:55:04Z</time>
      </trkpt>
      <trkpt lat="47.14528" lon="6.78592">
        <ele>952.6</ele>
        <time>2024-05-09T06:55:14Z</time>
      </trkpt>
      <trkpt lat="47.14476" lon="6.78607">
        <ele>950.8</ele>
        <time>2024-05-09T06:55:25Z</time>
      </trkpt>
      <trkpt lat="47.14422" lon="6.78637">
        <ele>947.8</ele>
        <time>2024-05-09T06:55:35Z</time>
      </trkpt>
      <trkpt lat="47.14366" lon="6.7868">
        <ele>946.4</ele>
        <time>2024-05-09T06:55:47Z</time>
      </trkpt>
      <trkpt lat="47.1432" lon="6.78722">
        <ele>948.1</ele>
        <time>2024-05-09T06:55:57Z</time>
      </trkpt>
      <trkpt lat="47.14297" lon="6.78764">
        <ele>950.3</ele>
        <time>2024-05-09T06:56:08Z</time>
      </trkpt>
      <trkpt lat="47.14282" lon="6.78817">
        <ele>952.9</ele>
        <time>2024-05-09T06:56:19Z</time>
      </trkpt>
      <trkpt lat="47.14281" lon="6.78864">
        <ele>955.2</ele>
        <time>2024-05-09T06:56:29Z</time>
      </trkpt>
      <trkpt lat="47.14275" lon="6.78907">
        <ele>957.3</ele>
        <time>2024-05-09T06:56:39Z</time>
      </trkpt>
      <trkpt lat="47.14248" lon="6.78908">
        <ele>958.9</ele>
        <time>2024-05-09T06:56:50Z</time>
      </trkpt>
      <trkpt lat="47.14226" lon="6.78885">
        <ele>960.5</ele>
        <time>2024-05-09T06:57:00Z</time>
      </trkpt>
      <trkpt lat="47.14198" lon="6.78879">
        <ele>962.4</ele>
        <time>2024-05-09T06:57:11Z</time>
      </trkpt>
      <trkpt lat="47.14186" lon="6.78906">
        <ele>965</ele>
        <time>2024-05-09T06:57:22Z</time>
      </trkpt>
      <trkpt lat="47.14165" lon="6.78924">
        <ele>969.3</ele>
        <time>2024-05-09T06:57:32Z</time>
      </trkpt>
      <trkpt lat="47.14153" lon="6.7894">
        <ele>972.4</ele>
        <time>2024-05-09T06:57:42Z</time>
      </trkpt>
      <trkpt lat="47.14136" lon="6.78955">
        <ele>976.3</ele>
        <time>2024-05-09T06:57:53Z</time>
      </trkpt>
      <trkpt lat="47.14127" lon="6.78971">
        <ele>978.1</ele>
        <time>2024-05-09T06:58:04Z</time>
      </trkpt>
      <trkpt lat="47.1412" lon="6.78994">
        <ele>979.8</ele>
        <time>2024-05-09T06:58:14Z</time>
      </trkpt>
      <trkpt lat="47.14111" lon="6.79015">
        <ele>980.7</ele>
        <time>2024-05-09T06:58:25Z</time>
      </trkpt>
      <trkpt lat="47.14099" lon="6.79027">
        <ele>981.5</ele>
        <time>2024-05-09T06:58:35Z</time>
      </trkpt>
      <trkpt lat="47.14083" lon="6.79036">
        <ele>982.4</ele>
        <time>2024-05-09T06:58:46Z</time>
      </trkpt>
      <trkpt lat="47.14067" lon="6.79047">
        <ele>983.4</ele>
        <time>2024-05-09T06:58:57Z</time>
      </trkpt>
      <trkpt lat="47.14053" lon="6.79054">
        <ele>984.1</ele>
        <time>2024-05-09T06:59:08Z</time>
      </trkpt>
      <trkpt lat="47.14037" lon="6.79053">
        <ele>984.9</ele>
        <time>2024-05-09T06:59:19Z</time>
      </trkpt>
      <trkpt lat="47.14022" lon="6.79036">
        <ele>985.7</ele>
        <time>2024-05-09T06:59:29Z</time>
      </trkpt>
      <trkpt lat="47.14008" lon="6.79025">
        <ele>986.3</ele>
        <time>2024-05-09T06:59:39Z</time>
      </trkpt>
      <trkpt lat="47.1399" lon="6.79012">
        <ele>987.1</ele>
        <time>2024-05-09T06:59:50Z</time>
      </trkpt>
      <trkpt lat="47.1397" lon="6.79005">
        <ele>988</ele>
        <time>2024-05-09T07:00:01Z</time>
      </trkpt>
      <trkpt lat="47.13947" lon="6.79017">
        <ele>989.2</ele>
        <time>2024-05-09T07:00:12Z</time>
      </trkpt>
      <trkpt lat="47.13922" lon="6.79041">
        <ele>990.4</ele>
        <time>2024-05-09T07:00:23Z</time>
      </trkpt>
      <trkpt lat="47.13893" lon="6.7907">
        <ele>991.4</ele>
        <time>2024-05-09T07:00:34Z</time>
      </trkpt>
      <trkpt lat="47.13862" lon="6.791">
        <ele>992.4</ele>
        <time>2024-05-09T07:00:44Z</time>
      </trkpt>
      <trkpt lat="47.13836" lon="6.79135">
        <ele>994.1</ele>
        <time>2024-05-09T07:00:55Z</time>
      </trkpt>
      <trkpt lat="47.13811" lon="6.79113">
        <ele>994.1</ele>
        <time>2024-05-09T07:01:05Z</time>
      </trkpt>
      <trkpt lat="47.13788" lon="6.79064">
        <ele>994.5</ele>
        <time>2024-05-09T07:01:15Z</time>
      </trkpt>
      <trkpt lat="47.13767" lon="6.79003">
        <ele>995.1</ele>
        <time>2024-05-09T07:01:26Z</time>
      </trkpt>
      <trkpt lat="47.13748" lon="6.7896">
        <ele>995.8</ele>
        <time>2024-05-09T07:01:37Z</time>
      </trkpt>
      <trkpt lat="47.13726" lon="6.78902">
        <ele>996.4</ele>
        <time>2024-05-09T07:01:47Z</time>
      </trkpt>
      <trkpt lat="47.137" lon="6.78855">
        <ele>997.3</ele>
        <time>2024-05-09T07:01:57Z</time>
      </trkpt>
      <trkpt lat="47.13675" lon="6.78808">
        <ele>998.5</ele>
        <time>2024-05-09T07:02:08Z</time>
      </trkpt>
      <trkpt lat="47.13654" lon="6.7877">
        <ele>1000.7</ele>
        <time>2024-05-09T07:02:19Z</time>
      </trkpt>
      <trkpt lat="47.13637" lon="6.78741">
        <ele>1003</ele>
        <time>2024-05-09T07:02:29Z</time>
      </trkpt>
      <trkpt lat="47.13622" lon="6.7871">
        <ele>1005.4</ele>
        <time>2024-05-09T07:02:40Z</time>
      </trkpt>
      <trkpt lat="47.13609" lon="6.78677">
        <ele>1007.9</ele>
        <time>2024-05-09T07:02:51Z</time>
      </trkpt>
      <trkpt lat="47.13602" lon="6.78644">
        <ele>1010.3</ele>
        <time>2024-05-09T07:03:01Z</time>
      </trkpt>
      <trkpt lat="47.13595" lon="6.7861">
        <ele>1012.4</ele>
        <time>2024-05-09T07:03:12Z</time>
      </trkpt>
      <trkpt lat="47.13585" lon="6.78566">
        <ele>1014</ele>
        <time>2024-05-09T07:03:22Z</time>
      </trkpt>
      <trkpt lat="47.13569" lon="6.78522">
        <ele>1014.4</ele>
        <time>2024-05-09T07:03:33Z</time>
      </trkpt>
      <trkpt lat="47.13534" lon="6.78468">
        <ele>1014.2</ele>
        <time>2024-05-09T07:03:43Z</time>
      </trkpt>
      <trkpt lat="47.13498" lon="6.78419">
        <ele>1013.9</ele>
        <time>2024-05-09T07:03:53Z</time>
      </trkpt>
      <trkpt lat="47.13472" lon="6.78377">
        <ele>1013</ele>
        <time>2024-05-09T07:04:04Z</time>
      </trkpt>
      <trkpt lat="47.1344" lon="6.78301">
        <ele>1010.8</ele>
        <time>2024-05-09T07:04:15Z</time>
      </trkpt>
      <trkpt lat="47.13401" lon="6.78226">
        <ele>1008.8</ele>
        <time>2024-05-09T07:04:25Z</time>
      </trkpt>
      <trkpt lat="47.13355" lon="6.78149">
        <ele>1006.1</ele>
        <time>2024-05-09T07:04:35Z</time>
      </trkpt>
      <trkpt lat="47.13308" lon="6.78059">
        <ele>1001.3</ele>
        <time>2024-05-09T07:04:46Z</time>
      </trkpt>
      <trkpt lat="47.13247" lon="6.7797">
        <ele>994.5</ele>
        <time>2024-05-09T07:04:56Z</time>
      </trkpt>
      <trkpt lat="47.13153" lon="6.77891">
        <ele>985.2</ele>
        <time>2024-05-09T07:05:07Z</time>
      </trkpt>
      <trkpt lat="47.13057" lon="6.77779">
        <ele>977.5</ele>
        <time>2024-05-09T07:05:17Z</time>
      </trkpt>
      <trkpt lat="47.12997" lon="6.77649">
        <ele>974.2</ele>
        <time>2024-05-09T07:05:27Z</time>
      </trkpt>
      <trkpt lat="47.12957" lon="6.77532">
        <ele>974.9</ele>
        <time>2024-05-09T07:05:37Z</time>
      </trkpt>
      <trkpt lat="47.12949" lon="6.77445">
        <ele>976.7</ele>
        <time>2024-05-09T07:05:48Z</time>
      </trkpt>
      <trkpt lat="47.12951" lon="6.77399">
        <ele>979.3</ele>
        <time>2024-05-09T07:05:58Z</time>
      </trkpt>
      <trkpt lat="47.12954" lon="6.77358">
        <ele>981.6</ele>
        <time>2024-05-09T07:06:09Z</time>
      </trkpt>
      <trkpt lat="47.12957" lon="6.77307">
        <ele>983.6</ele>
        <time>2024-05-09T07:06:19Z</time>
      </trkpt>
      <trkpt lat="47.12957" lon="6.7726">
        <ele>984.9</ele>
        <time>2024-05-09T07:06:29Z</time>
      </trkpt>
      <trkpt lat="47.12954" lon="6.77211">
        <ele>986.4</ele>
        <time>2024-05-09T07:06:40Z</time>
      </trkpt>
      <trkpt lat="47.12948" lon="6.77161">
        <ele>988</ele>
        <time>2024-05-09T07:06:51Z</time>
      </trkpt>
      <trkpt lat="47.12941" lon="6.77117">
        <ele>989.9</ele>
        <time>2024-05-09T07:07:01Z</time>
      </trkpt>
      <trkpt lat="47.12934" lon="6.77069">
        <ele>991.7</ele>
        <time>2024-05-09T07:07:12Z</time>
      </trkpt>
      <trkpt lat="47.12927" lon="6.77029">
        <ele>993.6</ele>
        <time>2024-05-09T07:07:22Z</time>
      </trkpt>
      <trkpt lat="47.12917" lon="6.76982">
        <ele>995.1</ele>
        <time>2024-05-09T07:07:34Z</time>
      </trkpt>
      <trkpt lat="47.12905" lon="6.76927">
        <ele>996.4</ele>
        <time>2024-05-09T07:07:44Z</time>
      </trkpt>
      <trkpt lat="47.12898" lon="6.76881">
        <ele>998.3</ele>
        <time>2024-05-09T07:07:54Z</time>
      </trkpt>
      <trkpt lat="47.12892" lon="6.76842">
        <ele>1000.1</ele>
        <time>2024-05-09T07:08:05Z</time>
      </trkpt>
      <trkpt lat="47.12884" lon="6.76794">
        <ele>1001.3</ele>
        <time>2024-05-09T07:08:15Z</time>
      </trkpt>
      <trkpt lat="47.12875" lon="6.76726">
        <ele>1001.8</ele>
        <time>2024-05-09T07:08:26Z</time>
      </trkpt>
      <trkpt lat="47.1286" lon="6.76659">
        <ele>1001.6</ele>
        <time>2024-05-09T07:08:36Z</time>
      </trkpt>
      <trkpt lat="47.1284" lon="6.7658">
        <ele>1001.1</ele>
        <time>2024-05-09T07:08:47Z</time>
      </trkpt>
      <trkpt lat="47.12817" lon="6.76509">
        <ele>1000.5</ele>
        <time>2024-05-09T07:08:57Z</time>
      </trkpt>
      <trkpt lat="47.12785" lon="6.76441">
        <ele>999.7</ele>
        <time>2024-05-09T07:09:08Z</time>
      </trkpt>
      <trkpt lat="47.12741" lon="6.76369">
        <ele>998.5</ele>
        <time>2024-05-09T07:09:18Z</time>
      </trkpt>
      <trkpt lat="47.12691" lon="6.76299">
        <ele>997</ele>
        <time>2024-05-09T07:09:29Z</time>
      </trkpt>
      <trkpt lat="47.12646" lon="6.76237">
        <ele>997</ele>
        <time>2024-05-09T07:09:39Z</time>
      </trkpt>
      <trkpt lat="47.12644" lon="6.76241">
        <ele>996.9</ele>
        <time>2024-05-09T07:09:50Z</time>
      </trkpt>
      <trkpt lat="47.12611" lon="6.76209">
        <ele>996.4</ele>
        <time>2024-05-09T07:10:01Z</time>
      </trkpt>
      <trkpt lat="47.12571" lon="6.76167">
        <ele>995.7</ele>
        <time>2024-05-09T07:10:11Z</time>
      </trkpt>
      <trkpt lat="47.12576" lon="6.76173">
        <ele>995.7</ele>
        <time>2024-05-09T07:10:21Z</time>
      </trkpt>
      <trkpt lat="47.12585" lon="6.76186">
        <ele>995.8</ele>
        <time>2024-05-09T07:10:32Z</time>
      </trkpt>
      <trkpt lat="47.12583" lon="6.76187">
        <ele>995.9</ele>
        <time>2024-05-09T07:10:42Z</time>
      </trkpt>
      <trkpt lat="47.12583" lon="6.76187">
        <ele>995.9</ele>
        <time>2024-05-09T07:10:52Z</time>
      </trkpt>
      <trkpt lat="47.12583" lon="6.76186">
        <ele>995.9</ele>
        <time>2024-05-09T07:11:02Z</time>
      </trkpt>
      <trkpt lat="47.12583" lon="6.76186">
        <ele>995.9</ele>
        <time>2024-05-09T07:11:13Z</time>
      </trkpt>
      <trkpt lat="47.12583" lon="6.76186">
        <ele>995.9</ele>
        <time>2024-05-09T07:11:23Z</time>
      </trkpt>
      <trkpt lat="47.12583" lon="6.76186">
        <ele>995.9</ele>
        <time>2024-05-09T07:11:34Z</time>
      </trkpt>
      <trkpt lat="47.12583" lon="6.76186">
        <ele>995.9</ele>
        <time>2024-05-09T07:11:44Z</time>
      </trkpt>
      <trkpt lat="47.12583" lon="6.76186">
        <ele>995.9</ele>
        <time>2024-05-09T07:11:55Z</time>
      </trkpt>
      <trkpt lat="47.12583" lon="6.76186">
        <ele>995.9</ele>
        <time>2024-05-09T07:12:06Z</time>
      </trkpt>
      <trkpt lat="47.12583" lon="6.76186">
        <ele>995.9</ele>
        <time>2024-05-09T07:12:16Z</time>
      </trkpt>
      <trkpt lat="47.12583" lon="6.76186">
        <ele>995.9</ele>
        <time>2024-05-09T07:12:27Z</time>
      </trkpt>
      <trkpt lat="47.12583" lon="6.76186">
        <ele>995.9</ele>
        <time>2024-05-09T07:12:38Z</time>
      </trkpt>
      <trkpt lat="47.12583" lon="6.76186">
        <ele>995.9</ele>
        <time>2024-05-09T07:12:48Z</time>
      </trkpt>
      <trkpt lat="47.12583" lon="6.76186">
        <ele>995.9</ele>
        <time>2024-05-09T07:12:58Z</time>
      </trkpt>
      <trkpt lat="47.12583" lon="6.76186">
        <ele>995.9</ele>
        <time>2024-05-09T07:13:08Z</time>
      </trkpt>
      <trkpt lat="47.12583" lon="6.76186">
        <ele>995.9</ele>
        <time>2024-05-09T07:13:19Z</time>
      </trkpt>
      <trkpt lat="47.12583" lon="6.76186">
        <ele>995.9</ele>
        <time>2024-05-09T07:13:29Z</time>
      </trkpt>
      <trkpt lat="47.12583" lon="6.76186">
        <ele>995.9</ele>
        <time>2024-05-09T07:13:39Z</time>
      </trkpt>
      <trkpt lat="47.12583" lon="6.76186">
        <ele>995.9</ele>
        <time>2024-05-09T07:13:49Z</time>
      </trkpt>
      <trkpt lat="47.12583" lon="6.76186">
        <ele>995.9</ele>
        <time>2024-05-09T07:14:00Z</time>
      </trkpt>
      <trkpt lat="47.12583" lon="6.76186">
        <ele>995.9</ele>
        <time>2024-05-09T07:14:12Z</time>
      </trkpt>
      <trkpt lat="47.12583" lon="6.76186">
        <ele>995.9</ele>
        <time>2024-05-09T07:14:22Z</time>
      </trkpt>
      <trkpt lat="47.12583" lon="6.76186">
        <ele>995.9</ele>
        <time>2024-05-09T07:14:33Z</time>
      </trkpt>
      <trkpt lat="47.12583" lon="6.76186">
        <ele>995.9</ele>
        <time>2024-05-09T07:14:43Z</time>
      </trkpt>
      <trkpt lat="47.12583" lon="6.76186">
        <ele>995.9</ele>
        <time>2024-05-09T07:14:53Z</time>
      </trkpt>
      <trkpt lat="47.12583" lon="6.76186">
        <ele>995.9</ele>
        <time>2024-05-09T07:15:04Z</time>
      </trkpt>
      <trkpt lat="47.12583" lon="6.76186">
        <ele>995.9</ele>
        <time>2024-05-09T07:15:16Z</time>
      </trkpt>
      <trkpt lat="47.12583" lon="6.76186">
        <ele>995.9</ele>
        <time>2024-05-09T07:15:26Z</time>
      </trkpt>
      <trkpt lat="47.12583" lon="6.76186">
        <ele>995.9</ele>
        <time>2024-05-09T07:15:37Z</time>
      </trkpt>
      <trkpt lat="47.12583" lon="6.76186">
        <ele>995.9</ele>
        <time>2024-05-09T07:15:47Z</time>
      </trkpt>
      <trkpt lat="47.12583" lon="6.76186">
        <ele>995.9</ele>
        <time>2024-05-09T07:15:58Z</time>
      </trkpt>
      <trkpt lat="47.12583" lon="6.76186">
        <ele>995.9</ele>
        <time>2024-05-09T07:16:09Z</time>
      </trkpt>
      <trkpt lat="47.12583" lon="6.76186">
        <ele>995.9</ele>
        <time>2024-05-09T07:16:19Z</time>
      </trkpt>
      <trkpt lat="47.12583" lon="6.76186">
        <ele>995.9</ele>
        <time>2024-05-09T07:16:30Z</time>
      </trkpt>
      <trkpt lat="47.12568" lon="6.7616">
        <ele>995.4</ele>
        <time>2024-05-09T07:16:40Z</time>
      </trkpt>
      <trkpt lat="47.12535" lon="6.76117">
        <ele>994</ele>
        <time>2024-05-09T07:16:51Z</time>
      </trkpt>
      <trkpt lat="47.12507" lon="6.76085">
        <ele>992.8</ele>
        <time>2024-05-09T07:17:02Z</time>
      </trkpt>
      <trkpt lat="47.12481" lon="6.76039">
        <ele>991</ele>
        <time>2024-05-09T07:17:12Z</time>
      </trkpt>
      <trkpt lat="47.12448" lon="6.76014">
        <ele>991.6</ele>
        <time>2024-05-09T07:17:22Z</time>
      </trkpt>
      <trkpt lat="47.12426" lon="6.75981">
        <ele>993.4</ele>
        <time>2024-05-09T07:17:33Z</time>
      </trkpt>
      <trkpt lat="47.12411" lon="6.7595">
        <ele>995.7</ele>
        <time>2024-05-09T07:17:45Z</time>
      </trkpt>
      <trkpt lat="47.12396" lon="6.75918">
        <ele>998.3</ele>
        <time>2024-05-09T07:17:55Z</time>
      </trkpt>
      <trkpt lat="47.12381" lon="6.75888">
        <ele>999.9</ele>
        <time>2024-05-09T07:18:05Z</time>
      </trkpt>
      <trkpt lat="47.12368" lon="6.75853">
        <ele>1000.9</ele>
        <time>2024-05-09T07:18:15Z</time>
      </trkpt>
      <trkpt lat="47.12354" lon="6.75819">
        <ele>1001.3</ele>
        <time>2024-05-09T07:18:26Z</time>
      </trkpt>
      <trkpt lat="47.12335" lon="6.7577">
        <ele>1001.1</ele>
        <time>2024-05-09T07:18:36Z</time>
      </trkpt>
      <trkpt lat="47.12316" lon="6.75711">
        <ele>1000.5</ele>
        <time>2024-05-09T07:18:47Z</time>
      </trkpt>
      <trkpt lat="47.12295" lon="6.75643">
        <ele>999.5</ele>
        <time>2024-05-09T07:18:58Z</time>
      </trkpt>
      <trkpt lat="47.12276" lon="6.75579">
        <ele>997</ele>
        <time>2024-05-09T07:19:08Z</time>
      </trkpt>
      <trkpt lat="47.1224" lon="6.75522">
        <ele>996.4</ele>
        <time>2024-05-09T07:19:18Z</time>
      </trkpt>
      <trkpt lat="47.12222" lon="6.75493">
        <ele>997.1</ele>
        <time>2024-05-09T07:19:28Z</time>
      </trkpt>
      <trkpt lat="47.12197" lon="6.75436">
        <ele>996.4</ele>
        <time>2024-05-09T07:19:38Z</time>
      </trkpt>
      <trkpt lat="47.12169" lon="6.75377">
        <ele>994.8</ele>
        <time>2024-05-09T07:19:49Z</time>
      </trkpt>
      <trkpt lat="47.1214" lon="6.75319">
        <ele>993.7</ele>
        <time>2024-05-09T07:20:00Z</time>
      </trkpt>
      <trkpt lat="47.12121" lon="6.75268">
        <ele>994.4</ele>
        <time>2024-05-09T07:20:10Z</time>
      </trkpt>
      <trkpt lat="47.12108" lon="6.75228">
        <ele>995.7</ele>
        <time>2024-05-09T07:20:20Z</time>
      </trkpt>
      <trkpt lat="47.121" lon="6.75191">
        <ele>997.8</ele>
        <time>2024-05-09T07:20:31Z</time>
      </trkpt>
      <trkpt lat="47.12096" lon="6.75159">
        <ele>1000.1</ele>
        <time>2024-05-09T07:20:42Z</time>
      </trkpt>
      <trkpt lat="47.12094" lon="6.75138">
        <ele>1001.7</ele>
        <time>2024-05-09T07:20:52Z</time>
      </trkpt>
      <trkpt lat="47.12094" lon="6.75136">
        <ele>1001.8</ele>
        <time>2024-05-09T07:21:02Z</time>
      </trkpt>
      <trkpt lat="47.12097" lon="6.75113">
        <ele>1002.6</ele>
        <time>2024-05-09T07:21:12Z</time>
      </trkpt>
      <trkpt lat="47.12094" lon="6.75073">
        <ele>1003.3</ele>
        <time>2024-05-09T07:21:22Z</time>
      </trkpt>
      <trkpt lat="47.12087" lon="6.75032">
        <ele>1004.6</ele>
        <time>2024-05-09T07:21:32Z</time>
      </trkpt>
      <trkpt lat="47.12086" lon="6.74993">
        <ele>1006.7</ele>
        <time>2024-05-09T07:21:43Z</time>
      </trkpt>
      <trkpt lat="47.1209" lon="6.74966">
        <ele>1008.9</ele>
        <time>2024-05-09T07:21:53Z</time>
      </trkpt>
      <trkpt lat="47.12095" lon="6.74943">
        <ele>1010.8</ele>
        <time>2024-05-09T07:22:03Z</time>
      </trkpt>
      <trkpt lat="47.12101" lon="6.74919">
        <ele>1012.7</ele>
        <time>2024-05-09T07:22:14Z</time>
      </trkpt>
      <trkpt lat="47.12105" lon="6.74892">
        <ele>1014</ele>
        <time>2024-05-09T07:22:25Z</time>
      </trkpt>
      <trkpt lat="47.12107" lon="6.74858">
        <ele>1015.3</ele>
        <time>2024-05-09T07:22:36Z</time>
      </trkpt>
      <trkpt lat="47.12111" lon="6.74823">
        <ele>1016.6</ele>
        <time>2024-05-09T07:22:46Z</time>
      </trkpt>
      <trkpt lat="47.12112" lon="6.74781">
        <ele>1017.6</ele>
        <time>2024-05-09T07:22:57Z</time>
      </trkpt>
      <trkpt lat="47.12114" lon="6.74737">
        <ele>1018.5</ele>
        <time>2024-05-09T07:23:07Z</time>
      </trkpt>
      <trkpt lat="47.12122" lon="6.74693">
        <ele>1019.7</ele>
        <time>2024-05-09T07:23:17Z</time>
      </trkpt>
      <trkpt lat="47.12127" lon="6.74648">
        <ele>1021.2</ele>
        <time>2024-05-09T07:23:28Z</time>
      </trkpt>
      <trkpt lat="47.12127" lon="6.74605">
        <ele>1022</ele>
        <time>2024-05-09T07:23:39Z</time>
      </trkpt>
      <trkpt lat="47.12122" lon="6.74561">
        <ele>1022.4</ele>
        <time>2024-05-09T07:23:49Z</time>
      </trkpt>
      <trkpt lat="47.12117" lon="6.7452">
        <ele>1022.4</ele>
        <time>2024-05-09T07:24:00Z</time>
      </trkpt>
      <trkpt lat="47.12115" lon="6.74501">
        <ele>1022.8</ele>
        <time>2024-05-09T07:24:10Z</time>
      </trkpt>
      <trkpt lat="47.12115" lon="6.74474">
        <ele>1024</ele>
        <time>2024-05-09T07:24:21Z</time>
      </trkpt>
      <trkpt lat="47.12117" lon="6.7445">
        <ele>1025.7</ele>
        <time>2024-05-09T07:24:31Z</time>
      </trkpt>
      <trkpt lat="47.12119" lon="6.74422">
        <ele>1027.9</ele>
        <time>2024-05-09T07:24:42Z</time>
      </trkpt>
      <trkpt lat="47.12117" lon="6.74395">
        <ele>1030.1</ele>
        <time>2024-05-09T07:24:52Z</time>
      </trkpt>
      <trkpt lat="47.12115" lon="6.74371">
        <ele>1031.9</ele>
        <time>2024-05-09T07:25:03Z</time>
      </trkpt>
      <trkpt lat="47.12116" lon="6.74344">
        <ele>1033.4</ele>
        <time>2024-05-09T07:25:14Z</time>
      </trkpt>
      <trkpt lat="47.12116" lon="6.74302">
        <ele>1034.1</ele>
        <time>2024-05-09T07:25:25Z</time>
      </trkpt>
      <trkpt lat="47.12114" lon="6.74252">
        <ele>1033.3</ele>
        <time>2024-05-09T07:25:35Z</time>
      </trkpt>
      <trkpt lat="47.12103" lon="6.74168">
        <ele>1030.4</ele>
        <time>2024-05-09T07:25:46Z</time>
      </trkpt>
      <trkpt lat="47.12101" lon="6.74075">
        <ele>1028.8</ele>
        <time>2024-05-09T07:25:56Z</time>
      </trkpt>
      <trkpt lat="47.12107" lon="6.74024">
        <ele>1029.4</ele>
        <time>2024-05-09T07:26:07Z</time>
      </trkpt>
      <trkpt lat="47.12112" lon="6.73981">
        <ele>1031.4</ele>
        <time>2024-05-09T07:26:17Z</time>
      </trkpt>
      <trkpt lat="47.12116" lon="6.73961">
        <ele>1032.7</ele>
        <time>2024-05-09T07:26:28Z</time>
      </trkpt>
      <trkpt lat="47.12109" lon="6.73922">
        <ele>1034.3</ele>
        <time>2024-05-09T07:26:39Z</time>
      </trkpt>
      <trkpt lat="47.12094" lon="6.73887">
        <ele>1035.1</ele>
        <time>2024-05-09T07:26:49Z</time>
      </trkpt>
      <trkpt lat="47.12078" lon="6.73847">
        <ele>1035.4</ele>
        <time>2024-05-09T07:27:00Z</time>
      </trkpt>
      <trkpt lat="47.12073" lon="6.73793">
        <ele>1034.3</ele>
        <time>2024-05-09T07:27:11Z</time>
      </trkpt>
      <trkpt lat="47.12077" lon="6.73732">
        <ele>1032.2</ele>
        <time>2024-05-09T07:27:22Z</time>
      </trkpt>
      <trkpt lat="47.1205" lon="6.73673">
        <ele>1029.8</ele>
        <time>2024-05-09T07:27:32Z</time>
      </trkpt>
      <trkpt lat="47.12023" lon="6.73638">
        <ele>1027.4</ele>
        <time>2024-05-09T07:27:43Z</time>
      </trkpt>
      <trkpt lat="47.11991" lon="6.73613">
        <ele>1025.8</ele>
        <time>2024-05-09T07:27:53Z</time>
      </trkpt>
      <trkpt lat="47.11948" lon="6.73557">
        <ele>1023.8</ele>
        <time>2024-05-09T07:28:03Z</time>
      </trkpt>
      <trkpt lat="47.11919" lon="6.73527">
        <ele>1024.3</ele>
        <time>2024-05-09T07:28:14Z</time>
      </trkpt>
      <trkpt lat="47.11889" lon="6.73501">
        <ele>1024.9</ele>
        <time>2024-05-09T07:28:24Z</time>
      </trkpt>
      <trkpt lat="47.11865" lon="6.7347">
        <ele>1025.2</ele>
        <time>2024-05-09T07:28:35Z</time>
      </trkpt>
      <trkpt lat="47.1184" lon="6.73442">
        <ele>1025.5</ele>
        <time>2024-05-09T07:28:45Z</time>
      </trkpt>
      <trkpt lat="47.11815" lon="6.73409">
        <ele>1025.6</ele>
        <time>2024-05-09T07:28:55Z</time>
      </trkpt>
      <trkpt lat="47.11793" lon="6.73358">
        <ele>1025.4</ele>
        <time>2024-05-09T07:29:05Z</time>
      </trkpt>
      <trkpt lat="47.11774" lon="6.7331">
        <ele>1025.5</ele>
        <time>2024-05-09T07:29:16Z</time>
      </trkpt>
      <trkpt lat="47.11749" lon="6.73267">
        <ele>1026.1</ele>
        <time>2024-05-09T07:29:26Z</time>
      </trkpt>
      <trkpt lat="47.11722" lon="6.73234">
        <ele>1026.2</ele>
        <time>2024-05-09T07:29:37Z</time>
      </trkpt>
      <trkpt lat="47.11696" lon="6.73184">
        <ele>1025.6</ele>
        <time>2024-05-09T07:29:47Z</time>
      </trkpt>
      <trkpt lat="47.11669" lon="6.73128">
        <ele>1025.2</ele>
        <time>2024-05-09T07:29:58Z</time>
      </trkpt>
      <trkpt lat="47.11645" lon="6.73076">
        <ele>1024.7</ele>
        <time>2024-05-09T07:30:09Z</time>
      </trkpt>
      <trkpt lat="47.11617" lon="6.7302">
        <ele>1024</ele>
        <time>2024-05-09T07:30:19Z</time>
      </trkpt>
      <trkpt lat="47.11584" lon="6.72979">
        <ele>1024.6</ele>
        <time>2024-05-09T07:30:30Z</time>
      </trkpt>
      <trkpt lat="47.11565" lon="6.72947">
        <ele>1024.9</ele>
        <time>2024-05-09T07:30:41Z</time>
      </trkpt>
      <trkpt lat="47.11547" lon="6.72907">
        <ele>1024.2</ele>
        <time>2024-05-09T07:30:51Z</time>
      </trkpt>
      <trkpt lat="47.11527" lon="6.72861">
        <ele>1022.8</ele>
        <time>2024-05-09T07:31:01Z</time>
      </trkpt>
      <trkpt lat="47.11506" lon="6.72813">
        <ele>1022.1</ele>
        <time>2024-05-09T07:31:13Z</time>
      </trkpt>
      <trkpt lat="47.1149" lon="6.72768">
        <ele>1022.2</ele>
        <time>2024-05-09T07:31:23Z</time>
      </trkpt>
      <trkpt lat="47.11478" lon="6.7273">
        <ele>1022.1</ele>
        <time>2024-05-09T07:31:33Z</time>
      </trkpt>
      <trkpt lat="47.11469" lon="6.72707">
        <ele>1022</ele>
        <time>2024-05-09T07:31:44Z</time>
      </trkpt>
      <trkpt lat="47.11447" lon="6.72679">
        <ele>1022.1</ele>
        <time>2024-05-09T07:31:55Z</time>
      </trkpt>
      <trkpt lat="47.11436" lon="6.72668">
        <ele>1022.1</ele>
        <time>2024-05-09T07:32:06Z</time>
      </trkpt>
      <trkpt lat="47.11433" lon="6.72665">
        <ele>1022.1</ele>
        <time>2024-05-09T07:32:16Z</time>
      </trkpt>
      <trkpt lat="47.11419" lon="6.72656">
        <ele>1022.3</ele>
        <time>2024-05-09T07:32:26Z</time>
      </trkpt>
      <trkpt lat="47.11391" lon="6.72646">
        <ele>1023.8</ele>
        <time>2024-05-09T07:32:37Z</time>
      </trkpt>
      <trkpt lat="47.11365" lon="6.72635">
        <ele>1025.5</ele>
        <time>2024-05-09T07:32:48Z</time>
      </trkpt>
      <trkpt lat="47.11336" lon="6.72633">
        <ele>1027.1</ele>
        <time>2024-05-09T07:32:59Z</time>
      </trkpt>
      <trkpt lat="47.1131" lon="6.72635">
        <ele>1028.8</ele>
        <time>2024-05-09T07:33:10Z</time>
      </trkpt>
      <trkpt lat="47.11286" lon="6.72636">
        <ele>1030.7</ele>
        <time>2024-05-09T07:33:20Z</time>
      </trkpt>
      <trkpt lat="47.11259" lon="6.72631">
        <ele>1032.6</ele>
        <time>2024-05-09T07:33:32Z</time>
      </trkpt>
      <trkpt lat="47.11234" lon="6.72625">
        <ele>1034.8</ele>
        <time>2024-05-09T07:33:43Z</time>
      </trkpt>
      <trkpt lat="47.11209" lon="6.72614">
        <ele>1037.1</ele>
        <time>2024-05-09T07:33:53Z</time>
      </trkpt>
      <trkpt lat="47.11186" lon="6.726">
        <ele>1039</ele>
        <time>2024-05-09T07:34:04Z</time>
      </trkpt>
      <trkpt lat="47.11157" lon="6.72583">
        <ele>1039.7</ele>
        <time>2024-05-09T07:34:14Z</time>
      </trkpt>
      <trkpt lat="47.11121" lon="6.72566">
        <ele>1038</ele>
        <time>2024-05-09T07:34:24Z</time>
      </trkpt>
      <trkpt lat="47.1106" lon="6.72552">
        <ele>1032.9</ele>
        <time>2024-05-09T07:34:35Z</time>
      </trkpt>
      <trkpt lat="47.10996" lon="6.72581">
        <ele>1027.6</ele>
        <time>2024-05-09T07:34:45Z</time>
      </trkpt>
      <trkpt lat="47.10947" lon="6.72594">
        <ele>1023.8</ele>
        <time>2024-05-09T07:34:56Z</time>
      </trkpt>
      <trkpt lat="47.10957" lon="6.72688">
        <ele>1018</ele>
        <time>2024-05-09T07:35:06Z</time>
      </trkpt>
      <trkpt lat="47.10897" lon="6.72667">
        <ele>1013.1</ele>
        <time>2024-05-09T07:35:16Z</time>
      </trkpt>
      <trkpt lat="47.10866" lon="6.7271">
        <ele>1006.4</ele>
        <time>2024-05-09T07:35:26Z</time>
      </trkpt>
      <trkpt lat="47.1084" lon="6.72795">
        <ele>1000.1</ele>
        <time>2024-05-09T07:35:37Z</time>
      </trkpt>
      <trkpt lat="47.10746" lon="6.72769">
        <ele>991.6</ele>
        <time>2024-05-09T07:35:48Z</time>
      </trkpt>
      <trkpt lat="47.10671" lon="6.72786">
        <ele>980.7</ele>
        <time>2024-05-09T07:35:58Z</time>
      </trkpt>
      <trkpt lat="47.10659" lon="6.72782">
        <ele>978.8</ele>
        <time>2024-05-09T07:36:09Z</time>
      </trkpt>
      <trkpt lat="47.10646" lon="6.72781">
        <ele>976.5</ele>
        <time>2024-05-09T07:36:19Z</time>
      </trkpt>
      <trkpt lat="47.1061" lon="6.72825">
        <ele>965.9</ele>
        <time>2024-05-09T07:36:29Z</time>
      </trkpt>
      <trkpt lat="47.10544" lon="6.72864">
        <ele>955.2</ele>
        <time>2024-05-09T07:36:39Z</time>
      </trkpt>
      <trkpt lat="47.10501" lon="6.72837">
        <ele>948.7</ele>
        <time>2024-05-09T07:36:50Z</time>
      </trkpt>
      <trkpt lat="47.10453" lon="6.72909">
        <ele>935</ele>
        <time>2024-05-09T07:37:01Z</time>
      </trkpt>
      <trkpt lat="47.10469" lon="6.73017">
        <ele>923.9</ele>
        <time>2024-05-09T07:37:11Z</time>
      </trkpt>
      <trkpt lat="47.1047" lon="6.73039">
        <ele>921.9</ele>
        <time>2024-05-09T07:37:22Z</time>
      </trkpt>
      <trkpt lat="47.1047" lon="6.73039">
        <ele>921.9</ele>
        <time>2024-05-09T07:37:33Z</time>
      </trkpt>
      <trkpt lat="47.1047" lon="6.73039">
        <ele>921.9</ele>
        <time>2024-05-09T07:37:43Z</time>
      </trkpt>
      <trkpt lat="47.10459" lon="6.73037">
        <ele>920.4</ele>
        <time>2024-05-09T07:37:53Z</time>
      </trkpt>
      <trkpt lat="47.104" lon="6.73008">
        <ele>903.4</ele>
        <time>2024-05-09T07:38:04Z</time>
      </trkpt>
      <trkpt lat="47.10375" lon="6.73068">
        <ele>898</ele>
        <time>2024-05-09T07:38:15Z</time>
      </trkpt>
      <trkpt lat="47.10333" lon="6.7309">
        <ele>890.3</ele>
        <time>2024-05-09T07:38:25Z</time>
      </trkpt>
      <trkpt lat="47.10321" lon="6.73193">
        <ele>876.7</ele>
        <time>2024-05-09T07:38:36Z</time>
      </trkpt>
      <trkpt lat="47.10277" lon="6.73276">
        <ele>865.9</ele>
        <time>2024-05-09T07:38:46Z</time>
      </trkpt>
      <trkpt lat="47.10225" lon="6.73294">
        <ele>865.5</ele>
        <time>2024-05-09T07:38:57Z</time>
      </trkpt>
      <trkpt lat="47.10196" lon="6.73248">
        <ele>866.9</ele>
        <time>2024-05-09T07:39:07Z</time>
      </trkpt>
      <trkpt lat="47.10171" lon="6.73204">
        <ele>868.2</ele>
        <time>2024-05-09T07:39:18Z</time>
      </trkpt>
      <trkpt lat="47.10149" lon="6.73158">
        <ele>869.7</ele>
        <time>2024-05-09T07:39:28Z</time>
      </trkpt>
      <trkpt lat="47.10131" lon="6.73111">
        <ele>871.2</ele>
        <time>2024-05-09T07:39:39Z</time>
      </trkpt>
      <trkpt lat="47.10112" lon="6.73053">
        <ele>871.8</ele>
        <time>2024-05-09T07:39:50Z</time>
      </trkpt>
      <trkpt lat="47.10088" lon="6.72976">
        <ele>870.8</ele>
        <time>2024-05-09T07:40:00Z</time>
      </trkpt>
      <trkpt lat="47.10067" lon="6.72901">
        <ele>870.3</ele>
        <time>2024-05-09T07:40:11Z</time>
      </trkpt>
      <trkpt lat="47.10072" lon="6.72817">
        <ele>869.4</ele>
        <time>2024-05-09T07:40:22Z</time>
      </trkpt>
      <trkpt lat="47.10059" lon="6.72717">
        <ele>868.1</ele>
        <time>2024-05-09T07:40:32Z</time>
      </trkpt>
      <trkpt lat="47.1003" lon="6.72648">
        <ele>870.7</ele>
        <time>2024-05-09T07:40:43Z</time>
      </trkpt>
      <trkpt lat="47.1001" lon="6.72614">
        <ele>873.4</ele>
        <time>2024-05-09T07:40:53Z</time>
      </trkpt>
      <trkpt lat="47.09989" lon="6.72584">
        <ele>876.2</ele>
        <time>2024-05-09T07:41:04Z</time>
      </trkpt>
      <trkpt lat="47.09968" lon="6.72556">
        <ele>878.8</ele>
        <time>2024-05-09T07:41:14Z</time>
      </trkpt>
      <trkpt lat="47.09943" lon="6.72528">
        <ele>881.1</ele>
        <time>2024-05-09T07:41:25Z</time>
      </trkpt>
      <trkpt lat="47.09914" lon="6.72499">
        <ele>882.3</ele>
        <time>2024-05-09T07:41:35Z</time>
      </trkpt>
      <trkpt lat="47.09882" lon="6.72467">
        <ele>882.9</ele>
        <time>2024-05-09T07:41:46Z</time>
      </trkpt>
      <trkpt lat="47.09846" lon="6.72432">
        <ele>882.7</ele>
        <time>2024-05-09T07:41:56Z</time>
      </trkpt>
      <trkpt lat="47.09803" lon="6.72389">
        <ele>882.9</ele>
        <time>2024-05-09T07:42:07Z</time>
      </trkpt>
      <trkpt lat="47.09782" lon="6.72418">
        <ele>884</ele>
        <time>2024-05-09T07:42:18Z</time>
      </trkpt>
      <trkpt lat="47.09762" lon="6.72435">
        <ele>885.3</ele>
        <time>2024-05-09T07:42:28Z</time>
      </trkpt>
      <trkpt lat="47.09737" lon="6.7245">
        <ele>886.9</ele>
        <time>2024-05-09T07:42:38Z</time>
      </trkpt>
      <trkpt lat="47.09715" lon="6.72467">
        <ele>888.1</ele>
        <time>2024-05-09T07:42:49Z</time>
      </trkpt>
      <trkpt lat="47.09691" lon="6.72481">
        <ele>887.6</ele>
        <time>2024-05-09T07:43:00Z</time>
      </trkpt>
      <trkpt lat="47.09682" lon="6.72553">
        <ele>884.1</ele>
        <time>2024-05-09T07:43:10Z</time>
      </trkpt>
      <trkpt lat="47.09648" lon="6.72655">
        <ele>879.6</ele>
        <time>2024-05-09T07:43:22Z</time>
      </trkpt>
      <trkpt lat="47.09665" lon="6.72725">
        <ele>879</ele>
        <time>2024-05-09T07:43:32Z</time>
      </trkpt>
      <trkpt lat="47.09675" lon="6.72796">
        <ele>880.3</ele>
        <time>2024-05-09T07:43:42Z</time>
      </trkpt>
      <trkpt lat="47.09657" lon="6.72818">
        <ele>882.6</ele>
        <time>2024-05-09T07:43:54Z</time>
      </trkpt>
      <trkpt lat="47.09643" lon="6.72831">
        <ele>884.8</ele>
        <time>2024-05-09T07:44:04Z</time>
      </trkpt>
      <trkpt lat="47.09631" lon="6.72842">
        <ele>887.1</ele>
        <time>2024-05-09T07:44:15Z</time>
      </trkpt>
      <trkpt lat="47.09623" lon="6.7285">
        <ele>888.9</ele>
        <time>2024-05-09T07:44:25Z</time>
      </trkpt>
      <trkpt lat="47.0961" lon="6.72862">
        <ele>892.3</ele>
        <time>2024-05-09T07:44:36Z</time>
      </trkpt>
      <trkpt lat="47.09597" lon="6.72874">
        <ele>895.7</ele>
        <time>2024-05-09T07:44:46Z</time>
      </trkpt>
      <trkpt lat="47.09586" lon="6.72887">
        <ele>898.8</ele>
        <time>2024-05-09T07:44:57Z</time>
      </trkpt>
      <trkpt lat="47.09571" lon="6.72897">
        <ele>902.2</ele>
        <time>2024-05-09T07:45:08Z</time>
      </trkpt>
      <trkpt lat="47.0956" lon="6.72907">
        <ele>904.6</ele>
        <time>2024-05-09T07:45:18Z</time>
      </trkpt>
      <trkpt lat="47.09555" lon="6.72923">
        <ele>906.6</ele>
        <time>2024-05-09T07:45:29Z</time>
      </trkpt>
      <trkpt lat="47.09551" lon="6.7294">
        <ele>908.7</ele>
        <time>2024-05-09T07:45:39Z</time>
      </trkpt>
      <trkpt lat="47.09552" lon="6.72952">
        <ele>910.1</ele>
        <time>2024-05-09T07:45:50Z</time>
      </trkpt>
      <trkpt lat="47.09537" lon="6.72924">
        <ele>912.5</ele>
        <time>2024-05-09T07:46:02Z</time>
      </trkpt>
      <trkpt lat="47.09527" lon="6.72903">
        <ele>912.8</ele>
        <time>2024-05-09T07:46:12Z</time>
      </trkpt>
      <trkpt lat="47.09509" lon="6.72853">
        <ele>911.9</ele>
        <time>2024-05-09T07:46:22Z</time>
      </trkpt>
      <trkpt lat="47.0949" lon="6.72806">
        <ele>911.1</ele>
        <time>2024-05-09T07:46:33Z</time>
      </trkpt>
      <trkpt lat="47.09477" lon="6.72755">
        <ele>910</ele>
        <time>2024-05-09T07:46:43Z</time>
      </trkpt>
      <trkpt lat="47.09462" lon="6.72705">
        <ele>908.4</ele>
        <time>2024-05-09T07:46:54Z</time>
      </trkpt>
      <trkpt lat="47.09442" lon="6.72648">
        <ele>904</ele>
        <time>2024-05-09T07:47:04Z</time>
      </trkpt>
      <trkpt lat="47.09416" lon="6.72592">
        <ele>898.9</ele>
        <time>2024-05-09T07:47:14Z</time>
      </trkpt>
      <trkpt lat="47.09398" lon="6.72553">
        <ele>895.8</ele>
        <time>2024-05-09T07:47:26Z</time>
      </trkpt>
      <trkpt lat="47.09396" lon="6.72555">
        <ele>895.2</ele>
        <time>2024-05-09T07:47:36Z</time>
      </trkpt>
      <trkpt lat="47.09396" lon="6.72555">
        <ele>895.2</ele>
        <time>2024-05-09T07:47:46Z</time>
      </trkpt>
      <trkpt lat="47.09396" lon="6.72555">
        <ele>895.2</ele>
        <time>2024-05-09T07:47:56Z</time>
      </trkpt>
      <trkpt lat="47.09404" lon="6.72544">
        <ele>892.7</ele>
        <time>2024-05-09T07:48:07Z</time>
      </trkpt>
      <trkpt lat="47.0939" lon="6.725">
        <ele>888.9</ele>
        <time>2024-05-09T07:48:17Z</time>
      </trkpt>
      <trkpt lat="47.09373" lon="6.72452">
        <ele>887.3</ele>
        <time>2024-05-09T07:48:27Z</time>
      </trkpt>
      <trkpt lat="47.09354" lon="6.72394">
        <ele>886.1</ele>
        <time>2024-05-09T07:48:38Z</time>
      </trkpt>
      <trkpt lat="47.09339" lon="6.72353">
        <ele>884.3</ele>
        <time>2024-05-09T07:48:48Z</time>
      </trkpt>
      <trkpt lat="47.09315" lon="6.72311">
        <ele>879.2</ele>
        <time>2024-05-09T07:48:59Z</time>
      </trkpt>
      <trkpt lat="47.09285" lon="6.72261">
        <ele>874.4</ele>
        <time>2024-05-09T07:49:09Z</time>
      </trkpt>
      <trkpt lat="47.09253" lon="6.72213">
        <ele>874.5</ele>
        <time>2024-05-09T07:49:20Z</time>
      </trkpt>
      <trkpt lat="47.09233" lon="6.72176">
        <ele>875.7</ele>
        <time>2024-05-09T07:49:30Z</time>
      </trkpt>
      <trkpt lat="47.09211" lon="6.72133">
        <ele>877</ele>
        <time>2024-05-09T07:49:41Z</time>
      </trkpt>
      <trkpt lat="47.09191" lon="6.72092">
        <ele>878.1</ele>
        <time>2024-05-09T07:49:51Z</time>
      </trkpt>
      <trkpt lat="47.09174" lon="6.72057">
        <ele>879.1</ele>
        <time>2024-05-09T07:50:02Z</time>
      </trkpt>
      <trkpt lat="47.09158" lon="6.72028">
        <ele>880.6</ele>
        <time>2024-05-09T07:50:12Z</time>
      </trkpt>
      <trkpt lat="47.09154" lon="6.72005">
        <ele>882.8</ele>
        <time>2024-05-09T07:50:22Z</time>
      </trkpt>
      <trkpt lat="47.09151" lon="6.71974">
        <ele>885.1</ele>
        <time>2024-05-09T07:50:33Z</time>
      </trkpt>
      <trkpt lat="47.09155" lon="6.71934">
        <ele>885.5</ele>
        <time>2024-05-09T07:50:44Z</time>
      </trkpt>
      <trkpt lat="47.09163" lon="6.71885">
        <ele>885.2</ele>
        <time>2024-05-09T07:50:55Z</time>
      </trkpt>
      <trkpt lat="47.09166" lon="6.71823">
        <ele>885.5</ele>
        <time>2024-05-09T07:51:05Z</time>
      </trkpt>
      <trkpt lat="47.09167" lon="6.71769">
        <ele>885.6</ele>
        <time>2024-05-09T07:51:16Z</time>
      </trkpt>
      <trkpt lat="47.09161" lon="6.71713">
        <ele>885.4</ele>
        <time>2024-05-09T07:51:26Z</time>
      </trkpt>
      <trkpt lat="47.09144" lon="6.71633">
        <ele>884.7</ele>
        <time>2024-05-09T07:51:37Z</time>
      </trkpt>
      <trkpt lat="47.09117" lon="6.71563">
        <ele>885.7</ele>
        <time>2024-05-09T07:51:47Z</time>
      </trkpt>
      <trkpt lat="47.09111" lon="6.71525">
        <ele>888.5</ele>
        <time>2024-05-09T07:51:58Z</time>
      </trkpt>
      <trkpt lat="47.09098" lon="6.71476">
        <ele>887.8</ele>
        <time>2024-05-09T07:52:09Z</time>
      </trkpt>
      <trkpt lat="47.09086" lon="6.71403">
        <ele>881.3</ele>
        <time>2024-05-09T07:52:20Z</time>
      </trkpt>
      <trkpt lat="47.0909" lon="6.71325">
        <ele>876.1</ele>
        <time>2024-05-09T07:52:30Z</time>
      </trkpt>
      <trkpt lat="47.0908" lon="6.71264">
        <ele>868.4</ele>
        <time>2024-05-09T07:52:42Z</time>
      </trkpt>
      <trkpt lat="47.09089" lon="6.71188">
        <ele>868.1</ele>
        <time>2024-05-09T07:52:52Z</time>
      </trkpt>
      <trkpt lat="47.09089" lon="6.71112">
        <ele>864.5</ele>
        <time>2024-05-09T07:53:03Z</time>
      </trkpt>
      <trkpt lat="47.09084" lon="6.7102">
        <ele>860.2</ele>
        <time>2024-05-09T07:53:13Z</time>
      </trkpt>
      <trkpt lat="47.09068" lon="6.70973">
        <ele>854.2</ele>
        <time>2024-05-09T07:53:25Z</time>
      </trkpt>
      <trkpt lat="47.09043" lon="6.70925">
        <ele>850.3</ele>
        <time>2024-05-09T07:53:35Z</time>
      </trkpt>
      <trkpt lat="47.09027" lon="6.70875">
        <ele>846.2</ele>
        <time>2024-05-09T07:53:46Z</time>
      </trkpt>
      <trkpt lat="47.08982" lon="6.70868">
        <ele>844.3</ele>
        <time>2024-05-09T07:53:56Z</time>
      </trkpt>
      <trkpt lat="47.08927" lon="6.70869">
        <ele>842.9</ele>
        <time>2024-05-09T07:54:07Z</time>
      </trkpt>
      <trkpt lat="47.08891" lon="6.7082">
        <ele>839.4</ele>
        <time>2024-05-09T07:54:18Z</time>
      </trkpt>
      <trkpt lat="47.08855" lon="6.70765">
        <ele>837.4</ele>
        <time>2024-05-09T07:54:28Z</time>
      </trkpt>
      <trkpt lat="47.08822" lon="6.70735">
        <ele>839.2</ele>
        <time>2024-05-09T07:54:38Z</time>
      </trkpt>
      <trkpt lat="47.08789" lon="6.70716">
        <ele>840.2</ele>
        <time>2024-05-09T07:54:48Z</time>
      </trkpt>
      <trkpt lat="47.08757" lon="6.70706">
        <ele>841.1</ele>
        <time>2024-05-09T07:54:58Z</time>
      </trkpt>
      <trkpt lat="47.08722" lon="6.70712">
        <ele>842.6</ele>
        <time>2024-05-09T07:55:10Z</time>
      </trkpt>
      <trkpt lat="47.08691" lon="6.70715">
        <ele>844.6</ele>
        <time>2024-05-09T07:55:21Z</time>
      </trkpt>
      <trkpt lat="47.08668" lon="6.70705">
        <ele>847.3</ele>
        <time>2024-05-09T07:55:31Z</time>
      </trkpt>
      <trkpt lat="47.08647" lon="6.70694">
        <ele>850.2</ele>
        <time>2024-05-09T07:55:42Z</time>
      </trkpt>
      <trkpt lat="47.08628" lon="6.70685">
        <ele>852.4</ele>
        <time>2024-05-09T07:55:53Z</time>
      </trkpt>
      <trkpt lat="47.08609" lon="6.70676">
        <ele>854.5</ele>
        <time>2024-05-09T07:56:03Z</time>
      </trkpt>
      <trkpt lat="47.08591" lon="6.70664">
        <ele>856.5</ele>
        <time>2024-05-09T07:56:13Z</time>
      </trkpt>
      <trkpt lat="47.08575" lon="6.70655">
        <ele>858.3</ele>
        <time>2024-05-09T07:56:23Z</time>
      </trkpt>
      <trkpt lat="47.08555" lon="6.70646">
        <ele>860.8</ele>
        <time>2024-05-09T07:56:35Z</time>
      </trkpt>
      <trkpt lat="47.08539" lon="6.70631">
        <ele>863.3</ele>
        <time>2024-05-09T07:56:45Z</time>
      </trkpt>
      <trkpt lat="47.08525" lon="6.70612">
        <ele>865.9</ele>
        <time>2024-05-09T07:56:57Z</time>
      </trkpt>
      <trkpt lat="47.08513" lon="6.70594">
        <ele>868.3</ele>
        <time>2024-05-09T07:57:07Z</time>
      </trkpt>
      <trkpt lat="47.08504" lon="6.70574">
        <ele>870.5</ele>
        <time>2024-05-09T07:57:18Z</time>
      </trkpt>
      <trkpt lat="47.08497" lon="6.70551">
        <ele>872.9</ele>
        <time>2024-05-09T07:57:28Z</time>
      </trkpt>
      <trkpt lat="47.08489" lon="6.70532">
        <ele>875.2</ele>
        <time>2024-05-09T07:57:38Z</time>
      </trkpt>
      <trkpt lat="47.08483" lon="6.70512">
        <ele>877.3</ele>
        <time>2024-05-09T07:57:48Z</time>
      </trkpt>
      <trkpt lat="47.08476" lon="6.70491">
        <ele>879.2</ele>
        <time>2024-05-09T07:58:00Z</time>
      </trkpt>
      <trkpt lat="47.0847" lon="6.70469">
        <ele>881.2</ele>
        <time>2024-05-09T07:58:10Z</time>
      </trkpt>
      <trkpt lat="47.08472" lon="6.70451">
        <ele>881.5</ele>
        <time>2024-05-09T07:58:21Z</time>
      </trkpt>
      <trkpt lat="47.08486" lon="6.70451">
        <ele>883.6</ele>
        <time>2024-05-09T07:58:31Z</time>
      </trkpt>
      <trkpt lat="47.08502" lon="6.70449">
        <ele>886.2</ele>
        <time>2024-05-09T07:58:42Z</time>
      </trkpt>
      <trkpt lat="47.08518" lon="6.70424">
        <ele>888.7</ele>
        <time>2024-05-09T07:58:52Z</time>
      </trkpt>
      <trkpt lat="47.08522" lon="6.70389">
        <ele>890.4</ele>
        <time>2024-05-09T07:59:02Z</time>
      </trkpt>
      <trkpt lat="47.0853" lon="6.70353">
        <ele>892.4</ele>
        <time>2024-05-09T07:59:14Z</time>
      </trkpt>
      <trkpt lat="47.08537" lon="6.70326">
        <ele>894.2</ele>
        <time>2024-05-09T07:59:24Z</time>
      </trkpt>
      <trkpt lat="47.08542" lon="6.70293">
        <ele>895.9</ele>
        <time>2024-05-09T07:59:35Z</time>
      </trkpt>
      <trkpt lat="47.08549" lon="6.70263">
        <ele>897.6</ele>
        <time>2024-05-09T07:59:46Z</time>
      </trkpt>
      <trkpt lat="47.08555" lon="6.70235">
        <ele>899.9</ele>
        <time>2024-05-09T07:59:56Z</time>
      </trkpt>
      <trkpt lat="47.08558" lon="6.70201">
        <ele>901.3</ele>
        <time>2024-05-09T08:00:06Z</time>
      </trkpt>
      <trkpt lat="47.08563" lon="6.70167">
        <ele>903</ele>
        <time>2024-05-09T08:00:18Z</time>
      </trkpt>
      <trkpt lat="47.08569" lon="6.70132">
        <ele>904.9</ele>
        <time>2024-05-09T08:00:28Z</time>
      </trkpt>
      <trkpt lat="47.08572" lon="6.70101">
        <ele>906.6</ele>
        <time>2024-05-09T08:00:38Z</time>
      </trkpt>
      <trkpt lat="47.08576" lon="6.70063">
        <ele>908.6</ele>
        <time>2024-05-09T08:00:50Z</time>
      </trkpt>
      <trkpt lat="47.08579" lon="6.70023">
        <ele>910.5</ele>
        <time>2024-05-09T08:01:01Z</time>
      </trkpt>
      <trkpt lat="47.08582" lon="6.69983">
        <ele>912.5</ele>
        <time>2024-05-09T08:01:11Z</time>
      </trkpt>
      <trkpt lat="47.08585" lon="6.69948">
        <ele>914.2</ele>
        <time>2024-05-09T08:01:22Z</time>
      </trkpt>
      <trkpt lat="47.08587" lon="6.69909">
        <ele>915.7</ele>
        <time>2024-05-09T08:01:32Z</time>
      </trkpt>
      <trkpt lat="47.08586" lon="6.69868">
        <ele>916.7</ele>
        <time>2024-05-09T08:01:42Z</time>
      </trkpt>
      <trkpt lat="47.08585" lon="6.69826">
        <ele>917.7</ele>
        <time>2024-05-09T08:01:54Z</time>
      </trkpt>
      <trkpt lat="47.08586" lon="6.69818">
        <ele>917.8</ele>
        <time>2024-05-09T08:02:04Z</time>
      </trkpt>
      <trkpt lat="47.08588" lon="6.69817">
        <ele>917.9</ele>
        <time>2024-05-09T08:02:14Z</time>
      </trkpt>
      <trkpt lat="47.0857" lon="6.69789">
        <ele>918.2</ele>
        <time>2024-05-09T08:02:25Z</time>
      </trkpt>
      <trkpt lat="47.08548" lon="6.69756">
        <ele>918.3</ele>
        <time>2024-05-09T08:02:36Z</time>
      </trkpt>
      <trkpt lat="47.08513" lon="6.69717">
        <ele>917.1</ele>
        <time>2024-05-09T08:02:46Z</time>
      </trkpt>
      <trkpt lat="47.0847" lon="6.69707">
        <ele>914.7</ele>
        <time>2024-05-09T08:02:57Z</time>
      </trkpt>
      <trkpt lat="47.08425" lon="6.6972">
        <ele>912.9</ele>
        <time>2024-05-09T08:03:07Z</time>
      </trkpt>
      <trkpt lat="47.08381" lon="6.6972">
        <ele>911.9</ele>
        <time>2024-05-09T08:03:18Z</time>
      </trkpt>
      <trkpt lat="47.08326" lon="6.69714">
        <ele>910.3</ele>
        <time>2024-05-09T08:03:29Z</time>
      </trkpt>
      <trkpt lat="47.08283" lon="6.69749">
        <ele>909.9</ele>
        <time>2024-05-09T08:03:39Z</time>
      </trkpt>
      <trkpt lat="47.08257" lon="6.69787">
        <ele>910.9</ele>
        <time>2024-05-09T08:03:50Z</time>
      </trkpt>
      <trkpt lat="47.08226" lon="6.69803">
        <ele>912.7</ele>
        <time>2024-05-09T08:04:01Z</time>
      </trkpt>
      <trkpt lat="47.08203" lon="6.69798">
        <ele>914.4</ele>
        <time>2024-05-09T08:04:11Z</time>
      </trkpt>
      <trkpt lat="47.08177" lon="6.6979">
        <ele>916.4</ele>
        <time>2024-05-09T08:04:22Z</time>
      </trkpt>
      <trkpt lat="47.08154" lon="6.69782">
        <ele>918.2</ele>
        <time>2024-05-09T08:04:33Z</time>
      </trkpt>
      <trkpt lat="47.08132" lon="6.69772">
        <ele>919.9</ele>
        <time>2024-05-09T08:04:43Z</time>
      </trkpt>
      <trkpt lat="47.08113" lon="6.69763">
        <ele>921.4</ele>
        <time>2024-05-09T08:04:54Z</time>
      </trkpt>
      <trkpt lat="47.08091" lon="6.69753">
        <ele>923.4</ele>
        <time>2024-05-09T08:05:05Z</time>
      </trkpt>
      <trkpt lat="47.08067" lon="6.69743">
        <ele>925.3</ele>
        <time>2024-05-09T08:05:16Z</time>
      </trkpt>
      <trkpt lat="47.08045" lon="6.69745">
        <ele>926.3</ele>
        <time>2024-05-09T08:05:27Z</time>
      </trkpt>
      <trkpt lat="47.08012" lon="6.69752">
        <ele>926.8</ele>
        <time>2024-05-09T08:05:38Z</time>
      </trkpt>
      <trkpt lat="47.07975" lon="6.69762">
        <ele>925.9</ele>
        <time>2024-05-09T08:05:49Z</time>
      </trkpt>
      <trkpt lat="47.07951" lon="6.69761">
        <ele>924.4</ele>
        <time>2024-05-09T08:05:59Z</time>
      </trkpt>
      <trkpt lat="47.07921" lon="6.69745">
        <ele>922.9</ele>
        <time>2024-05-09T08:06:10Z</time>
      </trkpt>
      <trkpt lat="47.0788" lon="6.69731">
        <ele>920.1</ele>
        <time>2024-05-09T08:06:20Z</time>
      </trkpt>
      <trkpt lat="47.07846" lon="6.69721">
        <ele>916.8</ele>
        <time>2024-05-09T08:06:30Z</time>
      </trkpt>
      <trkpt lat="47.07808" lon="6.69707">
        <ele>914.4</ele>
        <time>2024-05-09T08:06:41Z</time>
      </trkpt>
      <trkpt lat="47.07775" lon="6.69691">
        <ele>912.6</ele>
        <time>2024-05-09T08:06:51Z</time>
      </trkpt>
      <trkpt lat="47.07759" lon="6.69681">
        <ele>911.2</ele>
        <time>2024-05-09T08:07:02Z</time>
      </trkpt>
      <trkpt lat="47.07757" lon="6.69678">
        <ele>911</ele>
        <time>2024-05-09T08:07:13Z</time>
      </trkpt>
      <trkpt lat="47.07743" lon="6.69658">
        <ele>909.5</ele>
        <time>2024-05-09T08:07:23Z</time>
      </trkpt>
      <trkpt lat="47.07718" lon="6.6962">
        <ele>907</ele>
        <time>2024-05-09T08:07:34Z</time>
      </trkpt>
      <trkpt lat="47.07711" lon="6.69612">
        <ele>906.4</ele>
        <time>2024-05-09T08:07:45Z</time>
      </trkpt>
      <trkpt lat="47.07711" lon="6.69612">
        <ele>906.4</ele>
        <time>2024-05-09T08:07:56Z</time>
      </trkpt>
      <trkpt lat="47.077" lon="6.69582">
        <ele>904.9</ele>
        <time>2024-05-09T08:08:07Z</time>
      </trkpt>
      <trkpt lat="47.07667" lon="6.69538">
        <ele>902</ele>
        <time>2024-05-09T08:08:18Z</time>
      </trkpt>
      <trkpt lat="47.07646" lon="6.69505">
        <ele>899.9</ele>
        <time>2024-05-09T08:08:28Z</time>
      </trkpt>
      <trkpt lat="47.07646" lon="6.69505">
        <ele>899.9</ele>
        <time>2024-05-09T08:08:38Z</time>
      </trkpt>
      <trkpt lat="47.07646" lon="6.69505">
        <ele>899.9</ele>
        <time>2024-05-09T08:08:48Z</time>
      </trkpt>
      <trkpt lat="47.07646" lon="6.69505">
        <ele>899.9</ele>
        <time>2024-05-09T08:08:59Z</time>
      </trkpt>
      <trkpt lat="47.07641" lon="6.69497">
        <ele>899.4</ele>
        <time>2024-05-09T08:09:11Z</time>
      </trkpt>
      <trkpt lat="47.07625" lon="6.6947">
        <ele>898.1</ele>
        <time>2024-05-09T08:09:21Z</time>
      </trkpt>
      <trkpt lat="47.07632" lon="6.69481">
        <ele>897.7</ele>
        <time>2024-05-09T08:09:32Z</time>
      </trkpt>
      <trkpt lat="47.07651" lon="6.69511">
        <ele>899.3</ele>
        <time>2024-05-09T08:09:42Z</time>
      </trkpt>
      <trkpt lat="47.07667" lon="6.69542">
        <ele>901.4</ele>
        <time>2024-05-09T08:09:53Z</time>
      </trkpt>
      <trkpt lat="47.07687" lon="6.69563">
        <ele>903.5</ele>
        <time>2024-05-09T08:10:04Z</time>
      </trkpt>
      <trkpt lat="47.07701" lon="6.69582">
        <ele>905.5</ele>
        <time>2024-05-09T08:10:14Z</time>
      </trkpt>
      <trkpt lat="47.07715" lon="6.69554">
        <ele>906.4</ele>
        <time>2024-05-09T08:10:25Z</time>
      </trkpt>
      <trkpt lat="47.07721" lon="6.69514">
        <ele>907.6</ele>
        <time>2024-05-09T08:10:36Z</time>
      </trkpt>
      <trkpt lat="47.07723" lon="6.69504">
        <ele>907.8</ele>
        <time>2024-05-09T08:10:47Z</time>
      </trkpt>
      <trkpt lat="47.07725" lon="6.69487">
        <ele>908.2</ele>
        <time>2024-05-09T08:10:57Z</time>
      </trkpt>
      <trkpt lat="47.07728" lon="6.69436">
        <ele>908.9</ele>
        <time>2024-05-09T08:11:08Z</time>
      </trkpt>
      <trkpt lat="47.07722" lon="6.69383">
        <ele>909.9</ele>
        <time>2024-05-09T08:11:19Z</time>
      </trkpt>
      <trkpt lat="47.07725" lon="6.69328">
        <ele>911</ele>
        <time>2024-05-09T08:11:30Z</time>
      </trkpt>
      <trkpt lat="47.07711" lon="6.69263">
        <ele>911.1</ele>
        <time>2024-05-09T08:11:41Z</time>
      </trkpt>
      <trkpt lat="47.07685" lon="6.69211">
        <ele>911.2</ele>
        <time>2024-05-09T08:11:51Z</time>
      </trkpt>
      <trkpt lat="47.07705" lon="6.69176">
        <ele>913.3</ele>
        <time>2024-05-09T08:12:01Z</time>
      </trkpt>
      <trkpt lat="47.07722" lon="6.69151">
        <ele>915.5</ele>
        <time>2024-05-09T08:12:12Z</time>
      </trkpt>
      <trkpt lat="47.07734" lon="6.69124">
        <ele>917.6</ele>
        <time>2024-05-09T08:12:22Z</time>
      </trkpt>
      <trkpt lat="47.07743" lon="6.69092">
        <ele>919.8</ele>
        <time>2024-05-09T08:12:33Z</time>
      </trkpt>
      <trkpt lat="47.07749" lon="6.69059">
        <ele>921.7</ele>
        <time>2024-05-09T08:12:43Z</time>
      </trkpt>
      <trkpt lat="47.07755" lon="6.69026">
        <ele>923.8</ele>
        <time>2024-05-09T08:12:53Z</time>
      </trkpt>
      <trkpt lat="47.0776" lon="6.68992">
        <ele>925.9</ele>
        <time>2024-05-09T08:13:04Z</time>
      </trkpt>
      <trkpt lat="47.07749" lon="6.68955">
        <ele>926.8</ele>
        <time>2024-05-09T08:13:15Z</time>
      </trkpt>
      <trkpt lat="47.07724" lon="6.68913">
        <ele>927.4</ele>
        <time>2024-05-09T08:13:26Z</time>
      </trkpt>
      <trkpt lat="47.07697" lon="6.68865">
        <ele>927.8</ele>
        <time>2024-05-09T08:13:36Z</time>
      </trkpt>
      <trkpt lat="47.07673" lon="6.68805">
        <ele>928.6</ele>
        <time>2024-05-09T08:13:47Z</time>
      </trkpt>
      <trkpt lat="47.0766" lon="6.68743">
        <ele>929.5</ele>
        <time>2024-05-09T08:13:57Z</time>
      </trkpt>
      <trkpt lat="47.07641" lon="6.68694">
        <ele>931</ele>
        <time>2024-05-09T08:14:08Z</time>
      </trkpt>
      <trkpt lat="47.07626" lon="6.68643">
        <ele>932.2</ele>
        <time>2024-05-09T08:14:18Z</time>
      </trkpt>
      <trkpt lat="47.07609" lon="6.68586">
        <ele>932.6</ele>
        <time>2024-05-09T08:14:29Z</time>
      </trkpt>
      <trkpt lat="47.07587" lon="6.68512">
        <ele>931</ele>
        <time>2024-05-09T08:14:40Z</time>
      </trkpt>
      <trkpt lat="47.07559" lon="6.68434">
        <ele>928.3</ele>
        <time>2024-05-09T08:14:50Z</time>
      </trkpt>
      <trkpt lat="47.07522" lon="6.68337">
        <ele>925</ele>
        <time>2024-05-09T08:15:00Z</time>
      </trkpt>
      <trkpt lat="47.0751" lon="6.68234">
        <ele>924.3</ele>
        <time>2024-05-09T08:15:11Z</time>
      </trkpt>
      <trkpt lat="47.07536" lon="6.68148">
        <ele>923.1</ele>
        <time>2024-05-09T08:15:22Z</time>
      </trkpt>
      <trkpt lat="47.07558" lon="6.68071">
        <ele>922.4</ele>
        <time>2024-05-09T08:15:32Z</time>
      </trkpt>
      <trkpt lat="47.07543" lon="6.67985">
        <ele>922.6</ele>
        <time>2024-05-09T08:15:42Z</time>
      </trkpt>
      <trkpt lat="47.07533" lon="6.67904">
        <ele>922.8</ele>
        <time>2024-05-09T08:15:53Z</time>
      </trkpt>
      <trkpt lat="47.0751" lon="6.67828">
        <ele>924</ele>
        <time>2024-05-09T08:16:03Z</time>
      </trkpt>
      <trkpt lat="47.07487" lon="6.67794">
        <ele>926.5</ele>
        <time>2024-05-09T08:16:14Z</time>
      </trkpt>
      <trkpt lat="47.07476" lon="6.67756">
        <ele>928.4</ele>
        <time>2024-05-09T08:16:24Z</time>
      </trkpt>
      <trkpt lat="47.07468" lon="6.67714">
        <ele>929.6</ele>
        <time>2024-05-09T08:16:35Z</time>
      </trkpt>
      <trkpt lat="47.07455" lon="6.67658">
        <ele>930.8</ele>
        <time>2024-05-09T08:16:46Z</time>
      </trkpt>
      <trkpt lat="47.07443" lon="6.67609">
        <ele>932.6</ele>
        <time>2024-05-09T08:16:57Z</time>
      </trkpt>
      <trkpt lat="47.07432" lon="6.67571">
        <ele>934.2</ele>
        <time>2024-05-09T08:17:07Z</time>
      </trkpt>
      <trkpt lat="47.07411" lon="6.67532">
        <ele>935.9</ele>
        <time>2024-05-09T08:17:18Z</time>
      </trkpt>
      <trkpt lat="47.07389" lon="6.67497">
        <ele>937.6</ele>
        <time>2024-05-09T08:17:29Z</time>
      </trkpt>
      <trkpt lat="47.07369" lon="6.6746">
        <ele>939.1</ele>
        <time>2024-05-09T08:17:40Z</time>
      </trkpt>
      <trkpt lat="47.07353" lon="6.67413">
        <ele>940</ele>
        <time>2024-05-09T08:17:51Z</time>
      </trkpt>
      <trkpt lat="47.07341" lon="6.67355">
        <ele>940.3</ele>
        <time>2024-05-09T08:18:01Z</time>
      </trkpt>
      <trkpt lat="47.07329" lon="6.673">
        <ele>940.9</ele>
        <time>2024-05-09T08:18:11Z</time>
      </trkpt>
      <trkpt lat="47.07318" lon="6.6724">
        <ele>942</ele>
        <time>2024-05-09T08:18:21Z</time>
      </trkpt>
      <trkpt lat="47.07316" lon="6.67183">
        <ele>942.9</ele>
        <time>2024-05-09T08:18:32Z</time>
      </trkpt>
      <trkpt lat="47.07304" lon="6.67123">
        <ele>944.2</ele>
        <time>2024-05-09T08:18:42Z</time>
      </trkpt>
      <trkpt lat="47.07288" lon="6.67072">
        <ele>945.5</ele>
        <time>2024-05-09T08:18:53Z</time>
      </trkpt>
      <trkpt lat="47.07283" lon="6.67006">
        <ele>947</ele>
        <time>2024-05-09T08:19:03Z</time>
      </trkpt>
      <trkpt lat="47.07292" lon="6.66963">
        <ele>948.7</ele>
        <time>2024-05-09T08:19:14Z</time>
      </trkpt>
      <trkpt lat="47.07305" lon="6.66911">
        <ele>950.5</ele>
        <time>2024-05-09T08:19:25Z</time>
      </trkpt>
      <trkpt lat="47.07327" lon="6.66871">
        <ele>952.5</ele>
        <time>2024-05-09T08:19:36Z</time>
      </trkpt>
      <trkpt lat="47.07354" lon="6.66863">
        <ele>954.6</ele>
        <time>2024-05-09T08:19:47Z</time>
      </trkpt>
      <trkpt lat="47.07377" lon="6.66837">
        <ele>956.4</ele>
        <time>2024-05-09T08:19:57Z</time>
      </trkpt>
      <trkpt lat="47.07389" lon="6.66791">
        <ele>957.4</ele>
        <time>2024-05-09T08:20:08Z</time>
      </trkpt>
      <trkpt lat="47.07385" lon="6.66729">
        <ele>957.9</ele>
        <time>2024-05-09T08:20:18Z</time>
      </trkpt>
      <trkpt lat="47.07367" lon="6.66669">
        <ele>958.8</ele>
        <time>2024-05-09T08:20:29Z</time>
      </trkpt>
      <trkpt lat="47.07345" lon="6.66623">
        <ele>959.7</ele>
        <time>2024-05-09T08:20:40Z</time>
      </trkpt>
      <trkpt lat="47.07313" lon="6.66584">
        <ele>960.7</ele>
        <time>2024-05-09T08:20:51Z</time>
      </trkpt>
      <trkpt lat="47.07288" lon="6.66546">
        <ele>961.8</ele>
        <time>2024-05-09T08:21:01Z</time>
      </trkpt>
      <trkpt lat="47.07265" lon="6.66505">
        <ele>961.8</ele>
        <time>2024-05-09T08:21:11Z</time>
      </trkpt>
      <trkpt lat="47.0724" lon="6.66447">
        <ele>961.4</ele>
        <time>2024-05-09T08:21:22Z</time>
      </trkpt>
      <trkpt lat="47.07226" lon="6.66373">
        <ele>962.4</ele>
        <time>2024-05-09T08:21:33Z</time>
      </trkpt>
      <trkpt lat="47.07232" lon="6.66307">
        <ele>963.9</ele>
        <time>2024-05-09T08:21:43Z</time>
      </trkpt>
      <trkpt lat="47.07235" lon="6.66249">
        <ele>964.9</ele>
        <time>2024-05-09T08:21:54Z</time>
      </trkpt>
      <trkpt lat="47.07239" lon="6.66199">
        <ele>966.1</ele>
        <time>2024-05-09T08:22:04Z</time>
      </trkpt>
      <trkpt lat="47.07247" lon="6.66136">
        <ele>966.6</ele>
        <time>2024-05-09T08:22:14Z</time>
      </trkpt>
      <trkpt lat="47.07237" lon="6.66075">
        <ele>966.9</ele>
        <time>2024-05-09T08:22:25Z</time>
      </trkpt>
      <trkpt lat="47.07218" lon="6.66008">
        <ele>967.8</ele>
        <time>2024-05-09T08:22:36Z</time>
      </trkpt>
      <trkpt lat="47.07191" lon="6.65964">
        <ele>969.5</ele>
        <time>2024-05-09T08:22:47Z</time>
      </trkpt>
      <trkpt lat="47.07158" lon="6.65942">
        <ele>971.4</ele>
        <time>2024-05-09T08:22:57Z</time>
      </trkpt>
      <trkpt lat="47.0713" lon="6.65902">
        <ele>973.5</ele>
        <time>2024-05-09T08:23:08Z</time>
      </trkpt>
      <trkpt lat="47.07116" lon="6.65858">
        <ele>975.6</ele>
        <time>2024-05-09T08:23:18Z</time>
      </trkpt>
      <trkpt lat="47.07114" lon="6.65825">
        <ele>978</ele>
        <time>2024-05-09T08:23:29Z</time>
      </trkpt>
      <trkpt lat="47.07109" lon="6.65795">
        <ele>980.2</ele>
        <time>2024-05-09T08:23:40Z</time>
      </trkpt>
      <trkpt lat="47.07101" lon="6.65762">
        <ele>982.6</ele>
        <time>2024-05-09T08:23:50Z</time>
      </trkpt>
      <trkpt lat="47.07091" lon="6.65729">
        <ele>984.9</ele>
        <time>2024-05-09T08:24:00Z</time>
      </trkpt>
      <trkpt lat="47.07083" lon="6.65697">
        <ele>987.2</ele>
        <time>2024-05-09T08:24:11Z</time>
      </trkpt>
      <trkpt lat="47.07074" lon="6.65665">
        <ele>989.7</ele>
        <time>2024-05-09T08:24:22Z</time>
      </trkpt>
      <trkpt lat="47.07067" lon="6.6563">
        <ele>991.7</ele>
        <time>2024-05-09T08:24:33Z</time>
      </trkpt>
      <trkpt lat="47.07058" lon="6.65593">
        <ele>993.8</ele>
        <time>2024-05-09T08:24:44Z</time>
      </trkpt>
      <trkpt lat="47.07049" lon="6.65558">
        <ele>996.3</ele>
        <time>2024-05-09T08:24:55Z</time>
      </trkpt>
      <trkpt lat="47.07042" lon="6.65525">
        <ele>999.1</ele>
        <time>2024-05-09T08:25:06Z</time>
      </trkpt>
      <trkpt lat="47.07035" lon="6.65498">
        <ele>1001.5</ele>
        <time>2024-05-09T08:25:16Z</time>
      </trkpt>
      <trkpt lat="47.07032" lon="6.6547">
        <ele>1003.8</ele>
        <time>2024-05-09T08:25:26Z</time>
      </trkpt>
      <trkpt lat="47.0702" lon="6.65436">
        <ele>1005.2</ele>
        <time>2024-05-09T08:25:37Z</time>
      </trkpt>
      <trkpt lat="47.07005" lon="6.65402">
        <ele>1006.3</ele>
        <time>2024-05-09T08:25:47Z</time>
      </trkpt>
      <trkpt lat="47.06989" lon="6.65371">
        <ele>1007.7</ele>
        <time>2024-05-09T08:25:58Z</time>
      </trkpt>
      <trkpt lat="47.0697" lon="6.65342">
        <ele>1008.9</ele>
        <time>2024-05-09T08:26:09Z</time>
      </trkpt>
      <trkpt lat="47.06941" lon="6.65311">
        <ele>1009.4</ele>
        <time>2024-05-09T08:26:19Z</time>
      </trkpt>
      <trkpt lat="47.06914" lon="6.65277">
        <ele>1009.9</ele>
        <time>2024-05-09T08:26:30Z</time>
      </trkpt>
      <trkpt lat="47.0689" lon="6.65245">
        <ele>1010.2</ele>
        <time>2024-05-09T08:26:41Z</time>
      </trkpt>
      <trkpt lat="47.06863" lon="6.65219">
        <ele>1009.3</ele>
        <time>2024-05-09T08:26:52Z</time>
      </trkpt>
      <trkpt lat="47.06835" lon="6.65189">
        <ele>1007.2</ele>
        <time>2024-05-09T08:27:02Z</time>
      </trkpt>
      <trkpt lat="47.06804" lon="6.6516">
        <ele>1005.4</ele>
        <time>2024-05-09T08:27:13Z</time>
      </trkpt>
      <trkpt lat="47.06782" lon="6.65123">
        <ele>1004.1</ele>
        <time>2024-05-09T08:27:24Z</time>
      </trkpt>
      <trkpt lat="47.06751" lon="6.65078">
        <ele>1002.2</ele>
        <time>2024-05-09T08:27:35Z</time>
      </trkpt>
      <trkpt lat="47.06719" lon="6.65039">
        <ele>999.6</ele>
        <time>2024-05-09T08:27:45Z</time>
      </trkpt>
      <trkpt lat="47.06694" lon="6.65006">
        <ele>997.1</ele>
        <time>2024-05-09T08:27:55Z</time>
      </trkpt>
      <trkpt lat="47.0668" lon="6.64992">
        <ele>996.1</ele>
        <time>2024-05-09T08:28:06Z</time>
      </trkpt>
      <trkpt lat="47.06656" lon="6.64969">
        <ele>994.6</ele>
        <time>2024-05-09T08:28:17Z</time>
      </trkpt>
      <trkpt lat="47.06623" lon="6.64945">
        <ele>993.2</ele>
        <time>2024-05-09T08:28:27Z</time>
      </trkpt>
      <trkpt lat="47.06589" lon="6.64918">
        <ele>993</ele>
        <time>2024-05-09T08:28:38Z</time>
      </trkpt>
      <trkpt lat="47.06568" lon="6.64875">
        <ele>993</ele>
        <time>2024-05-09T08:28:48Z</time>
      </trkpt>
      <trkpt lat="47.06544" lon="6.64837">
        <ele>992.5</ele>
        <time>2024-05-09T08:28:59Z</time>
      </trkpt>
      <trkpt lat="47.06538" lon="6.6483">
        <ele>991.1</ele>
        <time>2024-05-09T08:29:10Z</time>
      </trkpt>
      <trkpt lat="47.06538" lon="6.64831">
        <ele>991.1</ele>
        <time>2024-05-09T08:29:21Z</time>
      </trkpt>
      <trkpt lat="47.06538" lon="6.64826">
        <ele>990.8</ele>
        <time>2024-05-09T08:29:33Z</time>
      </trkpt>
      <trkpt lat="47.06533" lon="6.64817">
        <ele>990</ele>
        <time>2024-05-09T08:29:43Z</time>
      </trkpt>
      <trkpt lat="47.06502" lon="6.64791">
        <ele>986.8</ele>
        <time>2024-05-09T08:29:54Z</time>
      </trkpt>
      <trkpt lat="47.06476" lon="6.64779">
        <ele>984.5</ele>
        <time>2024-05-09T08:30:05Z</time>
      </trkpt>
      <trkpt lat="47.06448" lon="6.6476">
        <ele>982.4</ele>
        <time>2024-05-09T08:30:15Z</time>
      </trkpt>
      <trkpt lat="47.06414" lon="6.64737">
        <ele>979.8</ele>
        <time>2024-05-09T08:30:25Z</time>
      </trkpt>
      <trkpt lat="47.06372" lon="6.64711">
        <ele>976</ele>
        <time>2024-05-09T08:30:35Z</time>
      </trkpt>
      <trkpt lat="47.06342" lon="6.64678">
        <ele>973.4</ele>
        <time>2024-05-09T08:30:46Z</time>
      </trkpt>
      <trkpt lat="47.06316" lon="6.64646">
        <ele>971.4</ele>
        <time>2024-05-09T08:30:56Z</time>
      </trkpt>
      <trkpt lat="47.06288" lon="6.64615">
        <ele>970.4</ele>
        <time>2024-05-09T08:31:07Z</time>
      </trkpt>
      <trkpt lat="47.06266" lon="6.6459">
        <ele>970.3</ele>
        <time>2024-05-09T08:31:18Z</time>
      </trkpt>
      <trkpt lat="47.0626" lon="6.64583">
        <ele>970.3</ele>
        <time>2024-05-09T08:31:28Z</time>
      </trkpt>
      <trkpt lat="47.0626" lon="6.64583">
        <ele>970.3</ele>
        <time>2024-05-09T08:31:39Z</time>
      </trkpt>
      <trkpt lat="47.06252" lon="6.64595">
        <ele>970.3</ele>
        <time>2024-05-09T08:31:50Z</time>
      </trkpt>
      <trkpt lat="47.06229" lon="6.64632">
        <ele>970</ele>
        <time>2024-05-09T08:32:01Z</time>
      </trkpt>
      <trkpt lat="47.06199" lon="6.64645">
        <ele>969.4</ele>
        <time>2024-05-09T08:32:12Z</time>
      </trkpt>
      <trkpt lat="47.0618" lon="6.64638">
        <ele>968.9</ele>
        <time>2024-05-09T08:32:22Z</time>
      </trkpt>
      <trkpt lat="47.06179" lon="6.64636">
        <ele>968.9</ele>
        <time>2024-05-09T08:32:32Z</time>
      </trkpt>
      <trkpt lat="47.06177" lon="6.64633">
        <ele>968.8</ele>
        <time>2024-05-09T08:32:43Z</time>
      </trkpt>
      <trkpt lat="47.06178" lon="6.6463">
        <ele>968.7</ele>
        <time>2024-05-09T08:32:54Z</time>
      </trkpt>
      <trkpt lat="47.06175" lon="6.64629">
        <ele>968.7</ele>
        <time>2024-05-09T08:33:05Z</time>
      </trkpt>
      <trkpt lat="47.06152" lon="6.64609">
        <ele>967.8</ele>
        <time>2024-05-09T08:33:16Z</time>
      </trkpt>
      <trkpt lat="47.06133" lon="6.64585">
        <ele>966.8</ele>
        <time>2024-05-09T08:33:26Z</time>
      </trkpt>
      <trkpt lat="47.06119" lon="6.6456">
        <ele>966.6</ele>
        <time>2024-05-09T08:33:37Z</time>
      </trkpt>
      <trkpt lat="47.06102" lon="6.64537">
        <ele>966.7</ele>
        <time>2024-05-09T08:33:47Z</time>
      </trkpt>
      <trkpt lat="47.06083" lon="6.64511">
        <ele>967.1</ele>
        <time>2024-05-09T08:33:57Z</time>
      </trkpt>
      <trkpt lat="47.06065" lon="6.64468">
        <ele>967.3</ele>
        <time>2024-05-09T08:34:08Z</time>
      </trkpt>
      <trkpt lat="47.06048" lon="6.64411">
        <ele>966.3</ele>
        <time>2024-05-09T08:34:19Z</time>
      </trkpt>
      <trkpt lat="47.06025" lon="6.64365">
        <ele>963.8</ele>
        <time>2024-05-09T08:34:29Z</time>
      </trkpt>
      <trkpt lat="47.06007" lon="6.64311">
        <ele>959</ele>
        <time>2024-05-09T08:34:39Z</time>
      </trkpt>
      <trkpt lat="47.06" lon="6.64253">
        <ele>955.5</ele>
        <time>2024-05-09T08:34:50Z</time>
      </trkpt>
      <trkpt lat="47.05991" lon="6.64207">
        <ele>954.9</ele>
        <time>2024-05-09T08:35:00Z</time>
      </trkpt>
      <trkpt lat="47.05985" lon="6.6417">
        <ele>957.3</ele>
        <time>2024-05-09T08:35:11Z</time>
      </trkpt>
      <trkpt lat="47.05983" lon="6.64131">
        <ele>958.9</ele>
        <time>2024-05-09T08:35:22Z</time>
      </trkpt>
      <trkpt lat="47.05976" lon="6.64091">
        <ele>958.6</ele>
        <time>2024-05-09T08:35:32Z</time>
      </trkpt>
      <trkpt lat="47.05976" lon="6.64089">
        <ele>958.6</ele>
        <time>2024-05-09T08:35:43Z</time>
      </trkpt>
      <trkpt lat="47.05976" lon="6.64089">
        <ele>958.6</ele>
        <time>2024-05-09T08:35:53Z</time>
      </trkpt>
      <trkpt lat="47.05976" lon="6.64089">
        <ele>958.6</ele>
        <time>2024-05-09T08:36:04Z</time>
      </trkpt>
      <trkpt lat="47.05976" lon="6.64089">
        <ele>958.6</ele>
        <time>2024-05-09T08:36:15Z</time>
      </trkpt>
      <trkpt lat="47.05976" lon="6.64089">
        <ele>958.6</ele>
        <time>2024-05-09T08:36:25Z</time>
      </trkpt>
      <trkpt lat="47.05976" lon="6.64089">
        <ele>958.6</ele>
        <time>2024-05-09T08:36:35Z</time>
      </trkpt>
      <trkpt lat="47.05976" lon="6.64089">
        <ele>958.6</ele>
        <time>2024-05-09T08:36:46Z</time>
      </trkpt>
      <trkpt lat="47.05976" lon="6.64089">
        <ele>958.6</ele>
        <time>2024-05-09T08:36:56Z</time>
      </trkpt>
      <trkpt lat="47.05976" lon="6.64089">
        <ele>958.6</ele>
        <time>2024-05-09T08:37:06Z</time>
      </trkpt>
      <trkpt lat="47.05976" lon="6.64089">
        <ele>958.6</ele>
        <time>2024-05-09T08:37:17Z</time>
      </trkpt>
      <trkpt lat="47.05976" lon="6.64089">
        <ele>958.6</ele>
        <time>2024-05-09T08:37:27Z</time>
      </trkpt>
      <trkpt lat="47.05976" lon="6.64089">
        <ele>958.6</ele>
        <time>2024-05-09T08:37:38Z</time>
      </trkpt>
      <trkpt lat="47.05976" lon="6.64089">
        <ele>958.6</ele>
        <time>2024-05-09T08:37:49Z</time>
      </trkpt>
      <trkpt lat="47.05976" lon="6.64089">
        <ele>958.6</ele>
        <time>2024-05-09T08:38:00Z</time>
      </trkpt>
      <trkpt lat="47.05976" lon="6.64089">
        <ele>958.6</ele>
        <time>2024-05-09T08:38:10Z</time>
      </trkpt>
      <trkpt lat="47.05976" lon="6.64089">
        <ele>958.6</ele>
        <time>2024-05-09T08:38:22Z</time>
      </trkpt>
      <trkpt lat="47.05976" lon="6.64089">
        <ele>958.6</ele>
        <time>2024-05-09T08:38:33Z</time>
      </trkpt>
      <trkpt lat="47.05976" lon="6.64089">
        <ele>958.6</ele>
        <time>2024-05-09T08:38:43Z</time>
      </trkpt>
      <trkpt lat="47.05976" lon="6.64089">
        <ele>958.6</ele>
        <time>2024-05-09T08:38:53Z</time>
      </trkpt>
      <trkpt lat="47.05976" lon="6.64089">
        <ele>958.6</ele>
        <time>2024-05-09T08:39:04Z</time>
      </trkpt>
      <trkpt lat="47.05976" lon="6.64089">
        <ele>958.6</ele>
        <time>2024-05-09T08:39:14Z</time>
      </trkpt>
      <trkpt lat="47.05976" lon="6.64089">
        <ele>958.6</ele>
        <time>2024-05-09T08:39:25Z</time>
      </trkpt>
      <trkpt lat="47.05976" lon="6.64089">
        <ele>958.6</ele>
        <time>2024-05-09T08:39:35Z</time>
      </trkpt>
      <trkpt lat="47.05976" lon="6.64089">
        <ele>958.6</ele>
        <time>2024-05-09T08:39:46Z</time>
      </trkpt>
      <trkpt lat="47.05976" lon="6.64089">
        <ele>958.6</ele>
        <time>2024-05-09T08:39:56Z</time>
      </trkpt>
      <trkpt lat="47.05976" lon="6.64089">
        <ele>958.6</ele>
        <time>2024-05-09T08:40:06Z</time>
      </trkpt>
      <trkpt lat="47.05976" lon="6.64089">
        <ele>958.6</ele>
        <time>2024-05-09T08:40:17Z</time>
      </trkpt>
      <trkpt lat="47.05976" lon="6.64089">
        <ele>958.6</ele>
        <time>2024-05-09T08:40:28Z</time>
      </trkpt>
      <trkpt lat="47.05976" lon="6.64089">
        <ele>958.6</ele>
        <time>2024-05-09T08:40:39Z</time>
      </trkpt>
      <trkpt lat="47.05976" lon="6.64089">
        <ele>958.6</ele>
        <time>2024-05-09T08:40:50Z</time>
      </trkpt>
      <trkpt lat="47.05976" lon="6.64089">
        <ele>958.6</ele>
        <time>2024-05-09T08:41:00Z</time>
      </trkpt>
      <trkpt lat="47.05976" lon="6.64089">
        <ele>958.6</ele>
        <time>2024-05-09T08:41:11Z</time>
      </trkpt>
      <trkpt lat="47.05976" lon="6.64089">
        <ele>958.6</ele>
        <time>2024-05-09T08:41:22Z</time>
      </trkpt>
      <trkpt lat="47.05976" lon="6.64089">
        <ele>958.6</ele>
        <time>2024-05-09T08:41:33Z</time>
      </trkpt>
      <trkpt lat="47.05976" lon="6.64089">
        <ele>958.6</ele>
        <time>2024-05-09T08:41:43Z</time>
      </trkpt>
      <trkpt lat="47.05976" lon="6.64089">
        <ele>958.6</ele>
        <time>2024-05-09T08:41:54Z</time>
      </trkpt>
      <trkpt lat="47.05976" lon="6.64089">
        <ele>958.6</ele>
        <time>2024-05-09T08:42:05Z</time>
      </trkpt>
      <trkpt lat="47.05976" lon="6.64089">
        <ele>958.6</ele>
        <time>2024-05-09T08:42:16Z</time>
      </trkpt>
      <trkpt lat="47.05976" lon="6.64089">
        <ele>958.6</ele>
        <time>2024-05-09T08:42:27Z</time>
      </trkpt>
      <trkpt lat="47.05976" lon="6.64089">
        <ele>958.6</ele>
        <time>2024-05-09T08:42:38Z</time>
      </trkpt>
      <trkpt lat="47.05976" lon="6.64089">
        <ele>958.6</ele>
        <time>2024-05-09T08:42:48Z</time>
      </trkpt>
      <trkpt lat="47.05976" lon="6.64089">
        <ele>958.6</ele>
        <time>2024-05-09T08:42:59Z</time>
      </trkpt>
      <trkpt lat="47.05976" lon="6.64089">
        <ele>958.6</ele>
        <time>2024-05-09T08:43:09Z</time>
      </trkpt>
      <trkpt lat="47.05976" lon="6.64089">
        <ele>958.6</ele>
        <time>2024-05-09T08:43:19Z</time>
      </trkpt>
      <trkpt lat="47.05976" lon="6.64089">
        <ele>958.6</ele>
        <time>2024-05-09T08:43:30Z</time>
      </trkpt>
      <trkpt lat="47.05976" lon="6.64089">
        <ele>958.6</ele>
        <time>2024-05-09T08:43:41Z</time>
      </trkpt>
      <trkpt lat="47.05976" lon="6.64089">
        <ele>958.6</ele>
        <time>2024-05-09T08:43:52Z</time>
      </trkpt>
      <trkpt lat="47.05976" lon="6.64089">
        <ele>958.6</ele>
        <time>2024-05-09T08:44:03Z</time>
      </trkpt>
      <trkpt lat="47.05976" lon="6.64089">
        <ele>958.6</ele>
        <time>2024-05-09T08:44:14Z</time>
      </trkpt>
      <trkpt lat="47.05976" lon="6.64089">
        <ele>958.6</ele>
        <time>2024-05-09T08:44:25Z</time>
      </trkpt>
      <trkpt lat="47.05976" lon="6.64089">
        <ele>958.6</ele>
        <time>2024-05-09T08:44:36Z</time>
      </trkpt>
      <trkpt lat="47.05976" lon="6.64089">
        <ele>958.6</ele>
        <time>2024-05-09T08:44:46Z</time>
      </trkpt>
      <trkpt lat="47.05976" lon="6.64089">
        <ele>958.6</ele>
        <time>2024-05-09T08:44:57Z</time>
      </trkpt>
      <trkpt lat="47.05976" lon="6.64089">
        <ele>958.6</ele>
        <time>2024-05-09T08:45:07Z</time>
      </trkpt>
      <trkpt lat="47.05976" lon="6.64089">
        <ele>958.6</ele>
        <time>2024-05-09T08:45:18Z</time>
      </trkpt>
      <trkpt lat="47.05964" lon="6.64088">
        <ele>958.3</ele>
        <time>2024-05-09T08:45:29Z</time>
      </trkpt>
      <trkpt lat="47.05923" lon="6.64086">
        <ele>957.5</ele>
        <time>2024-05-09T08:45:40Z</time>
      </trkpt>
      <trkpt lat="47.05875" lon="6.64079">
        <ele>956.6</ele>
        <time>2024-05-09T08:45:50Z</time>
      </trkpt>
      <trkpt lat="47.05832" lon="6.64103">
        <ele>955.8</ele>
        <time>2024-05-09T08:46:01Z</time>
      </trkpt>
      <trkpt lat="47.0582" lon="6.64198">
        <ele>950.8</ele>
        <time>2024-05-09T08:46:12Z</time>
      </trkpt>
      <trkpt lat="47.05839" lon="6.64297">
        <ele>942.8</ele>
        <time>2024-05-09T08:46:22Z</time>
      </trkpt>
      <trkpt lat="47.05783" lon="6.64346">
        <ele>936.9</ele>
        <time>2024-05-09T08:46:33Z</time>
      </trkpt>
      <trkpt lat="47.05689" lon="6.64366">
        <ele>927.6</ele>
        <time>2024-05-09T08:46:43Z</time>
      </trkpt>
      <trkpt lat="47.05609" lon="6.64342">
        <ele>919.9</ele>
        <time>2024-05-09T08:46:55Z</time>
      </trkpt>
      <trkpt lat="47.05582" lon="6.64348">
        <ele>917.1</ele>
        <time>2024-05-09T08:47:06Z</time>
      </trkpt>
      <trkpt lat="47.05562" lon="6.64346">
        <ele>915.3</ele>
        <time>2024-05-09T08:47:16Z</time>
      </trkpt>
      <trkpt lat="47.05532" lon="6.64313">
        <ele>914.6</ele>
        <time>2024-05-09T08:47:26Z</time>
      </trkpt>
      <trkpt lat="47.05503" lon="6.64262">
        <ele>914.7</ele>
        <time>2024-05-09T08:47:36Z</time>
      </trkpt>
      <trkpt lat="47.05484" lon="6.64204">
        <ele>916.5</ele>
        <time>2024-05-09T08:47:46Z</time>
      </trkpt>
      <trkpt lat="47.05472" lon="6.64146">
        <ele>918.2</ele>
        <time>2024-05-09T08:47:56Z</time>
      </trkpt>
      <trkpt lat="47.05455" lon="6.64099">
        <ele>918.9</ele>
        <time>2024-05-09T08:48:06Z</time>
      </trkpt>
      <trkpt lat="47.05432" lon="6.64053">
        <ele>919.6</ele>
        <time>2024-05-09T08:48:17Z</time>
      </trkpt>
      <trkpt lat="47.05395" lon="6.64009">
        <ele>920.5</ele>
        <time>2024-05-09T08:48:28Z</time>
      </trkpt>
      <trkpt lat="47.05362" lon="6.63988">
        <ele>922.8</ele>
        <time>2024-05-09T08:48:38Z</time>
      </trkpt>
      <trkpt lat="47.05345" lon="6.63947">
        <ele>924.2</ele>
        <time>2024-05-09T08:48:49Z</time>
      </trkpt>
      <trkpt lat="47.05328" lon="6.63901">
        <ele>925.6</ele>
        <time>2024-05-09T08:49:00Z</time>
      </trkpt>
      <trkpt lat="47.05307" lon="6.63854">
        <ele>926.3</ele>
        <time>2024-05-09T08:49:11Z</time>
      </trkpt>
      <trkpt lat="47.05277" lon="6.63802">
        <ele>925.5</ele>
        <time>2024-05-09T08:49:22Z</time>
      </trkpt>
      <trkpt lat="47.05244" lon="6.63749">
        <ele>924.5</ele>
        <time>2024-05-09T08:49:32Z</time>
      </trkpt>
      <trkpt lat="47.05212" lon="6.63683">
        <ele>923.5</ele>
        <time>2024-05-09T08:49:43Z</time>
      </trkpt>
      <trkpt lat="47.05177" lon="6.63615">
        <ele>922.6</ele>
        <time>2024-05-09T08:49:53Z</time>
      </trkpt>
      <trkpt lat="47.05156" lon="6.63538">
        <ele>923.2</ele>
        <time>2024-05-09T08:50:03Z</time>
      </trkpt>
      <trkpt lat="47.05154" lon="6.6347">
        <ele>923.3</ele>
        <time>2024-05-09T08:50:14Z</time>
      </trkpt>
      <trkpt lat="47.05163" lon="6.63406">
        <ele>922.4</ele>
        <time>2024-05-09T08:50:24Z</time>
      </trkpt>
      <trkpt lat="47.05185" lon="6.63337">
        <ele>919.7</ele>
        <time>2024-05-09T08:50:35Z</time>
      </trkpt>
      <trkpt lat="47.05194" lon="6.63308">
        <ele>918</ele>
        <time>2024-05-09T08:50:45Z</time>
      </trkpt>
      <trkpt lat="47.05194" lon="6.63308">
        <ele>918</ele>
        <time>2024-05-09T08:50:55Z</time>
      </trkpt>
      <trkpt lat="47.05194" lon="6.63308">
        <ele>918</ele>
        <time>2024-05-09T08:51:06Z</time>
      </trkpt>
      <trkpt lat="47.05194" lon="6.63308">
        <ele>918</ele>
        <time>2024-05-09T08:51:16Z</time>
      </trkpt>
      <trkpt lat="47.05194" lon="6.63308">
        <ele>918</ele>
        <time>2024-05-09T08:51:27Z</time>
      </trkpt>
      <trkpt lat="47.05195" lon="6.63306">
        <ele>916</ele>
        <time>2024-05-09T08:51:38Z</time>
      </trkpt>
      <trkpt lat="47.05195" lon="6.63306">
        <ele>916</ele>
        <time>2024-05-09T08:51:48Z</time>
      </trkpt>
      <trkpt lat="47.05195" lon="6.63306">
        <ele>916</ele>
        <time>2024-05-09T08:51:59Z</time>
      </trkpt>
      <trkpt lat="47.05217" lon="6.633">
        <ele>916</ele>
        <time>2024-05-09T08:52:10Z</time>
      </trkpt>
      <trkpt lat="47.05272" lon="6.63289">
        <ele>910.2</ele>
        <time>2024-05-09T08:52:20Z</time>
      </trkpt>
      <trkpt lat="47.05371" lon="6.63272">
        <ele>897.4</ele>
        <time>2024-05-09T08:52:32Z</time>
      </trkpt>
      <trkpt lat="47.05442" lon="6.63233">
        <ele>888.1</ele>
        <time>2024-05-09T08:52:42Z</time>
      </trkpt>
      <trkpt lat="47.05375" lon="6.63177">
        <ele>879.7</ele>
        <time>2024-05-09T08:52:52Z</time>
      </trkpt>
      <trkpt lat="47.05285" lon="6.6313">
        <ele>872.8</ele>
        <time>2024-05-09T08:53:03Z</time>
      </trkpt>
      <trkpt lat="47.05207" lon="6.63057">
        <ele>860.6</ele>
        <time>2024-05-09T08:53:14Z</time>
      </trkpt>
      <trkpt lat="47.05274" lon="6.62983">
        <ele>847.6</ele>
        <time>2024-05-09T08:53:24Z</time>
      </trkpt>
      <trkpt lat="47.05368" lon="6.62965">
        <ele>839.2</ele>
        <time>2024-05-09T08:53:35Z</time>
      </trkpt>
      <trkpt lat="47.05448" lon="6.62934">
        <ele>828.9</ele>
        <time>2024-05-09T08:53:45Z</time>
      </trkpt>
      <trkpt lat="47.0553" lon="6.62967">
        <ele>825.7</ele>
        <time>2024-05-09T08:53:56Z</time>
      </trkpt>
      <trkpt lat="47.05613" lon="6.62956">
        <ele>819.4</ele>
        <time>2024-05-09T08:54:06Z</time>
      </trkpt>
      <trkpt lat="47.05646" lon="6.62816">
        <ele>804.1</ele>
        <time>2024-05-09T08:54:17Z</time>
      </trkpt>
      <trkpt lat="47.05697" lon="6.62623">
        <ele>791.3</ele>
        <time>2024-05-09T08:54:28Z</time>
      </trkpt>
      <trkpt lat="47.05752" lon="6.62502">
        <ele>787</ele>
        <time>2024-05-09T08:54:38Z</time>
      </trkpt>
      <trkpt lat="47.05803" lon="6.62432">
        <ele>783.7</ele>
        <time>2024-05-09T08:54:48Z</time>
      </trkpt>
      <trkpt lat="47.05808" lon="6.62429">
        <ele>783.4</ele>
        <time>2024-05-09T08:54:59Z</time>
      </trkpt>
      <trkpt lat="47.05809" lon="6.62427">
        <ele>783.3</ele>
        <time>2024-05-09T08:55:10Z</time>
      </trkpt>
      <trkpt lat="47.0579" lon="6.62382">
        <ele>782.7</ele>
        <time>2024-05-09T08:55:21Z</time>
      </trkpt>
      <trkpt lat="47.05754" lon="6.62322">
        <ele>781.6</ele>
        <time>2024-05-09T08:55:32Z</time>
      </trkpt>
      <trkpt lat="47.05722" lon="6.62267">
        <ele>780.7</ele>
        <time>2024-05-09T08:55:42Z</time>
      </trkpt>
      <trkpt lat="47.05684" lon="6.6222">
        <ele>779.8</ele>
        <time>2024-05-09T08:55:52Z</time>
      </trkpt>
      <trkpt lat="47.05624" lon="6.6218">
        <ele>776</ele>
        <time>2024-05-09T08:56:02Z</time>
      </trkpt>
      <trkpt lat="47.05572" lon="6.62114">
        <ele>771.6</ele>
        <time>2024-05-09T08:56:13Z</time>
      </trkpt>
      <trkpt lat="47.05582" lon="6.62003">
        <ele>767.7</ele>
        <time>2024-05-09T08:56:24Z</time>
      </trkpt>
      <trkpt lat="47.05618" lon="6.61899">
        <ele>764.1</ele>
        <time>2024-05-09T08:56:35Z</time>
      </trkpt>
      <trkpt lat="47.05669" lon="6.61826">
        <ele>760.1</ele>
        <time>2024-05-09T08:56:45Z</time>
      </trkpt>
      <trkpt lat="47.05704" lon="6.6176">
        <ele>757.1</ele>
        <time>2024-05-09T08:56:56Z</time>
      </trkpt>
      <trkpt lat="47.05692" lon="6.61707">
        <ele>756.1</ele>
        <time>2024-05-09T08:57:06Z</time>
      </trkpt>
      <trkpt lat="47.05668" lon="6.61639">
        <ele>756.8</ele>
        <time>2024-05-09T08:57:16Z</time>
      </trkpt>
      <trkpt lat="47.05657" lon="6.61578">
        <ele>757.5</ele>
        <time>2024-05-09T08:57:26Z</time>
      </trkpt>
      <trkpt lat="47.05658" lon="6.61521">
        <ele>758.4</ele>
        <time>2024-05-09T08:57:37Z</time>
      </trkpt>
      <trkpt lat="47.05675" lon="6.61459">
        <ele>758.9</ele>
        <time>2024-05-09T08:57:48Z</time>
      </trkpt>
      <trkpt lat="47.05688" lon="6.61404">
        <ele>759.7</ele>
        <time>2024-05-09T08:57:58Z</time>
      </trkpt>
      <trkpt lat="47.05707" lon="6.6135">
        <ele>760.7</ele>
        <time>2024-05-09T08:58:09Z</time>
      </trkpt>
      <trkpt lat="47.05711" lon="6.61352">
        <ele>760.7</ele>
        <time>2024-05-09T08:58:19Z</time>
      </trkpt>
      <trkpt lat="47.05711" lon="6.61352">
        <ele>760.7</ele>
        <time>2024-05-09T08:58:29Z</time>
      </trkpt>
      <trkpt lat="47.05704" lon="6.61361">
        <ele>760.4</ele>
        <time>2024-05-09T08:58:39Z</time>
      </trkpt>
      <trkpt lat="47.05682" lon="6.61413">
        <ele>759.5</ele>
        <time>2024-05-09T08:58:51Z</time>
      </trkpt>
      <trkpt lat="47.05664" lon="6.61479">
        <ele>758.6</ele>
        <time>2024-05-09T08:59:01Z</time>
      </trkpt>
      <trkpt lat="47.05645" lon="6.61507">
        <ele>758.4</ele>
        <time>2024-05-09T08:59:12Z</time>
      </trkpt>
      <trkpt lat="47.05654" lon="6.61458">
        <ele>760.9</ele>
        <time>2024-05-09T08:59:23Z</time>
      </trkpt>
      <trkpt lat="47.05649" lon="6.61405">
        <ele>762.6</ele>
        <time>2024-05-09T08:59:35Z</time>
      </trkpt>
      <trkpt lat="47.05634" lon="6.61355">
        <ele>764.4</ele>
        <time>2024-05-09T08:59:46Z</time>
      </trkpt>
      <trkpt lat="47.05621" lon="6.61311">
        <ele>766.1</ele>
        <time>2024-05-09T08:59:56Z</time>
      </trkpt>
      <trkpt lat="47.05606" lon="6.61268">
        <ele>767.7</ele>
        <time>2024-05-09T09:00:06Z</time>
      </trkpt>
      <trkpt lat="47.05589" lon="6.6123">
        <ele>769</ele>
        <time>2024-05-09T09:00:17Z</time>
      </trkpt>
      <trkpt lat="47.05567" lon="6.61184">
        <ele>769.1</ele>
        <time>2024-05-09T09:00:27Z</time>
      </trkpt>
      <trkpt lat="47.05534" lon="6.61128">
        <ele>767.1</ele>
        <time>2024-05-09T09:00:37Z</time>
      </trkpt>
      <trkpt lat="47.05481" lon="6.61077">
        <ele>763.2</ele>
        <time>2024-05-09T09:00:47Z</time>
      </trkpt>
      <trkpt lat="47.05442" lon="6.61026">
        <ele>760</ele>
        <time>2024-05-09T09:00:58Z</time>
      </trkpt>
      <trkpt lat="47.05443" lon="6.61025">
        <ele>760</ele>
        <time>2024-05-09T09:01:08Z</time>
      </trkpt>
      <trkpt lat="47.05456" lon="6.6099">
        <ele>759.1</ele>
        <time>2024-05-09T09:01:19Z</time>
      </trkpt>
      <trkpt lat="47.05468" lon="6.6092">
        <ele>758.3</ele>
        <time>2024-05-09T09:01:29Z</time>
      </trkpt>
      <trkpt lat="47.0547" lon="6.60902">
        <ele>758.2</ele>
        <time>2024-05-09T09:01:40Z</time>
      </trkpt>
      <trkpt lat="47.05461" lon="6.60962">
        <ele>758.5</ele>
        <time>2024-05-09T09:01:50Z</time>
      </trkpt>
      <trkpt lat="47.05424" lon="6.60997">
        <ele>758.2</ele>
        <time>2024-05-09T09:02:01Z</time>
      </trkpt>
      <trkpt lat="47.0538" lon="6.6096">
        <ele>756.8</ele>
        <time>2024-05-09T09:02:12Z</time>
      </trkpt>
      <trkpt lat="47.05381" lon="6.60888">
        <ele>756.6</ele>
        <time>2024-05-09T09:02:22Z</time>
      </trkpt>
      <trkpt lat="47.05385" lon="6.60818">
        <ele>756.6</ele>
        <time>2024-05-09T09:02:32Z</time>
      </trkpt>
      <trkpt lat="47.05389" lon="6.60743">
        <ele>756.5</ele>
        <time>2024-05-09T09:02:43Z</time>
      </trkpt>
      <trkpt lat="47.0539" lon="6.60658">
        <ele>756.3</ele>
        <time>2024-05-09T09:02:54Z</time>
      </trkpt>
      <trkpt lat="47.05389" lon="6.60573">
        <ele>756.6</ele>
        <time>2024-05-09T09:03:04Z</time>
      </trkpt>
      <trkpt lat="47.05393" lon="6.60498">
        <ele>756.6</ele>
        <time>2024-05-09T09:03:15Z</time>
      </trkpt>
      <trkpt lat="47.05414" lon="6.60483">
        <ele>756.9</ele>
        <time>2024-05-09T09:03:26Z</time>
      </trkpt>
      <trkpt lat="47.05433" lon="6.60483">
        <ele>757.6</ele>
        <time>2024-05-09T09:03:37Z</time>
      </trkpt>
      <trkpt lat="47.05441" lon="6.60486">
        <ele>757.6</ele>
        <time>2024-05-09T09:03:47Z</time>
      </trkpt>
      <trkpt lat="47.05439" lon="6.60493">
        <ele>757.6</ele>
        <time>2024-05-09T09:03:57Z</time>
      </trkpt>
      <trkpt lat="47.05439" lon="6.60493">
        <ele>757.6</ele>
        <time>2024-05-09T09:04:07Z</time>
      </trkpt>
      <trkpt lat="47.05439" lon="6.60493">
        <ele>757.6</ele>
        <time>2024-05-09T09:04:17Z</time>
      </trkpt>
      <trkpt lat="47.05434" lon="6.60493">
        <ele>757.5</ele>
        <time>2024-05-09T09:04:28Z</time>
      </trkpt>
      <trkpt lat="47.05421" lon="6.60487">
        <ele>757.5</ele>
        <time>2024-05-09T09:04:39Z</time>
      </trkpt>
      <trkpt lat="47.05421" lon="6.60487">
        <ele>757.5</ele>
        <time>2024-05-09T09:04:50Z</time>
      </trkpt>
      <trkpt lat="47.05421" lon="6.60487">
        <ele>757.5</ele>
        <time>2024-05-09T09:05:01Z</time>
      </trkpt>
      <trkpt lat="47.05421" lon="6.60487">
        <ele>757.5</ele>
        <time>2024-05-09T09:05:11Z</time>
      </trkpt>
      <trkpt lat="47.05421" lon="6.60487">
        <ele>757.5</ele>
        <time>2024-05-09T09:05:21Z</time>
      </trkpt>
      <trkpt lat="47.05426" lon="6.60488">
        <ele>757.4</ele>
        <time>2024-05-09T09:05:31Z</time>
      </trkpt>
      <trkpt lat="47.05457" lon="6.60484">
        <ele>758.3</ele>
        <time>2024-05-09T09:05:42Z</time>
      </trkpt>
      <trkpt lat="47.05472" lon="6.60482">
        <ele>758.6</ele>
        <time>2024-05-09T09:05:52Z</time>
      </trkpt>
      <trkpt lat="47.05483" lon="6.60483">
        <ele>758.7</ele>
        <time>2024-05-09T09:06:02Z</time>
      </trkpt>
      <trkpt lat="47.05484" lon="6.60444">
        <ele>758.8</ele>
        <time>2024-05-09T09:06:13Z</time>
      </trkpt>
      <trkpt lat="47.0547" lon="6.60375">
        <ele>758.1</ele>
        <time>2024-05-09T09:06:24Z</time>
      </trkpt>
      <trkpt lat="47.05454" lon="6.60308">
        <ele>757.7</ele>
        <time>2024-05-09T09:06:35Z</time>
      </trkpt>
      <trkpt lat="47.05436" lon="6.60242">
        <ele>757.6</ele>
        <time>2024-05-09T09:06:45Z</time>
      </trkpt>
      <trkpt lat="47.0542" lon="6.60167">
        <ele>757.8</ele>
        <time>2024-05-09T09:06:56Z</time>
      </trkpt>
      <trkpt lat="47.05408" lon="6.60106">
        <ele>758.1</ele>
        <time>2024-05-09T09:07:07Z</time>
      </trkpt>
      <trkpt lat="47.05394" lon="6.60027">
        <ele>758.3</ele>
        <time>2024-05-09T09:07:18Z</time>
      </trkpt>
      <trkpt lat="47.05395" lon="6.59995">
        <ele>758.1</ele>
        <time>2024-05-09T09:07:29Z</time>
      </trkpt>
      <trkpt lat="47.05367" lon="6.5997">
        <ele>757.6</ele>
        <time>2024-05-09T09:07:39Z</time>
      </trkpt>
      <trkpt lat="47.05322" lon="6.5993">
        <ele>757.1</ele>
        <time>2024-05-09T09:07:50Z</time>
      </trkpt>
      <trkpt lat="47.05268" lon="6.59928">
        <ele>756.2</ele>
        <time>2024-05-09T09:08:01Z</time>
      </trkpt>
      <trkpt lat="47.05207" lon="6.59948">
        <ele>755.5</ele>
        <time>2024-05-09T09:08:11Z</time>
      </trkpt>
      <trkpt lat="47.05145" lon="6.59967">
        <ele>755.1</ele>
        <time>2024-05-09T09:08:21Z</time>
      </trkpt>
      <trkpt lat="47.05143" lon="6.59974">
        <ele>755.1</ele>
        <time>2024-05-09T09:08:31Z</time>
      </trkpt>
      <trkpt lat="47.05191" lon="6.5996">
        <ele>755.4</ele>
        <time>2024-05-09T09:08:42Z</time>
      </trkpt>
      <trkpt lat="47.05245" lon="6.59943">
        <ele>755.8</ele>
        <time>2024-05-09T09:08:53Z</time>
      </trkpt>
      <trkpt lat="47.05288" lon="6.59928">
        <ele>756.4</ele>
        <time>2024-05-09T09:09:03Z</time>
      </trkpt>
      <trkpt lat="47.05268" lon="6.59897">
        <ele>754.8</ele>
        <time>2024-05-09T09:09:14Z</time>
      </trkpt>
      <trkpt lat="47.05221" lon="6.59885">
        <ele>753.9</ele>
        <time>2024-05-09T09:09:24Z</time>
      </trkpt>
      <trkpt lat="47.05176" lon="6.59868">
        <ele>753.9</ele>
        <time>2024-05-09T09:09:34Z</time>
      </trkpt>
      <trkpt lat="47.05126" lon="6.59848">
        <ele>753.7</ele>
        <time>2024-05-09T09:09:45Z</time>
      </trkpt>
      <trkpt lat="47.05072" lon="6.59812">
        <ele>753.7</ele>
        <time>2024-05-09T09:09:56Z</time>
      </trkpt>
      <trkpt lat="47.05024" lon="6.59768">
        <ele>753.7</ele>
        <time>2024-05-09T09:10:06Z</time>
      </trkpt>
      <trkpt lat="47.04983" lon="6.59707">
        <ele>753.6</ele>
        <time>2024-05-09T09:10:16Z</time>
      </trkpt>
      <trkpt lat="47.04968" lon="6.59616">
        <ele>753.7</ele>
        <time>2024-05-09T09:10:27Z</time>
      </trkpt>
      <trkpt lat="47.04949" lon="6.59537">
        <ele>753.7</ele>
        <time>2024-05-09T09:10:38Z</time>
      </trkpt>
      <trkpt lat="47.04897" lon="6.59477">
        <ele>753.7</ele>
        <time>2024-05-09T09:10:49Z</time>
      </trkpt>
      <trkpt lat="47.04838" lon="6.59435">
        <ele>753.7</ele>
        <time>2024-05-09T09:11:00Z</time>
      </trkpt>
      <trkpt lat="47.04786" lon="6.59383">
        <ele>753.6</ele>
        <time>2024-05-09T09:11:11Z</time>
      </trkpt>
      <trkpt lat="47.04746" lon="6.59308">
        <ele>753.6</ele>
        <time>2024-05-09T09:11:22Z</time>
      </trkpt>
      <trkpt lat="47.04705" lon="6.59318">
        <ele>753.3</ele>
        <time>2024-05-09T09:11:32Z</time>
      </trkpt>
      <trkpt lat="47.04674" lon="6.59376">
        <ele>753.1</ele>
        <time>2024-05-09T09:11:42Z</time>
      </trkpt>
      <trkpt lat="47.04641" lon="6.59422">
        <ele>753</ele>
        <time>2024-05-09T09:11:52Z</time>
      </trkpt>
      <trkpt lat="47.04606" lon="6.59397">
        <ele>753.1</ele>
        <time>2024-05-09T09:12:02Z</time>
      </trkpt>
      <trkpt lat="47.0456" lon="6.59356">
        <ele>753.3</ele>
        <time>2024-05-09T09:12:13Z</time>
      </trkpt>
      <trkpt lat="47.04508" lon="6.59338">
        <ele>753.2</ele>
        <time>2024-05-09T09:12:23Z</time>
      </trkpt>
      <trkpt lat="47.04448" lon="6.59363">
        <ele>753.1</ele>
        <time>2024-05-09T09:12:33Z</time>
      </trkpt>
      <trkpt lat="47.0439" lon="6.59357">
        <ele>752.9</ele>
        <time>2024-05-09T09:12:44Z</time>
      </trkpt>
      <trkpt lat="47.0433" lon="6.59336">
        <ele>753.2</ele>
        <time>2024-05-09T09:12:55Z</time>
      </trkpt>
      <trkpt lat="47.04274" lon="6.59291">
        <ele>753.1</ele>
        <time>2024-05-09T09:13:05Z</time>
      </trkpt>
      <trkpt lat="47.04239" lon="6.59223">
        <ele>753.2</ele>
        <time>2024-05-09T09:13:16Z</time>
      </trkpt>
      <trkpt lat="47.04179" lon="6.59201">
        <ele>753.1</ele>
        <time>2024-05-09T09:13:26Z</time>
      </trkpt>
      <trkpt lat="47.04117" lon="6.59217">
        <ele>753</ele>
        <time>2024-05-09T09:13:36Z</time>
      </trkpt>
      <trkpt lat="47.04068" lon="6.59253">
        <ele>753.1</ele>
        <time>2024-05-09T09:13:47Z</time>
      </trkpt>
      <trkpt lat="47.04047" lon="6.59327">
        <ele>753.3</ele>
        <time>2024-05-09T09:13:58Z</time>
      </trkpt>
      <trkpt lat="47.04006" lon="6.59338">
        <ele>753.5</ele>
        <time>2024-05-09T09:14:08Z</time>
      </trkpt>
      <trkpt lat="47.03962" lon="6.5933">
        <ele>753.8</ele>
        <time>2024-05-09T09:14:18Z</time>
      </trkpt>
      <trkpt lat="47.0392" lon="6.59323">
        <ele>754</ele>
        <time>2024-05-09T09:14:29Z</time>
      </trkpt>
      <trkpt lat="47.0388" lon="6.59325">
        <ele>754.4</ele>
        <time>2024-05-09T09:14:39Z</time>
      </trkpt>
      <trkpt lat="47.03842" lon="6.59333">
        <ele>754.9</ele>
        <time>2024-05-09T09:14:49Z</time>
      </trkpt>
      <trkpt lat="47.03804" lon="6.59304">
        <ele>755.3</ele>
        <time>2024-05-09T09:15:00Z</time>
      </trkpt>
      <trkpt lat="47.03773" lon="6.59264">
        <ele>756</ele>
        <time>2024-05-09T09:15:11Z</time>
      </trkpt>
      <trkpt lat="47.03753" lon="6.59234">
        <ele>756.7</ele>
        <time>2024-05-09T09:15:21Z</time>
      </trkpt>
      <trkpt lat="47.03735" lon="6.59245">
        <ele>756.9</ele>
        <time>2024-05-09T09:15:32Z</time>
      </trkpt>
      <trkpt lat="47.03698" lon="6.59285">
        <ele>757.1</ele>
        <time>2024-05-09T09:15:43Z</time>
      </trkpt>
      <trkpt lat="47.03669" lon="6.59296">
        <ele>757.5</ele>
        <time>2024-05-09T09:15:54Z</time>
      </trkpt>
      <trkpt lat="47.0364" lon="6.5933">
        <ele>757.3</ele>
        <time>2024-05-09T09:16:05Z</time>
      </trkpt>
      <trkpt lat="47.03615" lon="6.59379">
        <ele>757.9</ele>
        <time>2024-05-09T09:16:15Z</time>
      </trkpt>
      <trkpt lat="47.03585" lon="6.59423">
        <ele>758.8</ele>
        <time>2024-05-09T09:16:26Z</time>
      </trkpt>
      <trkpt lat="47.03543" lon="6.59453">
        <ele>758.8</ele>
        <time>2024-05-09T09:16:37Z</time>
      </trkpt>
      <trkpt lat="47.03498" lon="6.59462">
        <ele>759.5</ele>
        <time>2024-05-09T09:16:48Z</time>
      </trkpt>
      <trkpt lat="47.03451" lon="6.59478">
        <ele>759.7</ele>
        <time>2024-05-09T09:16:59Z</time>
      </trkpt>
      <trkpt lat="47.03402" lon="6.5948">
        <ele>760.2</ele>
        <time>2024-05-09T09:17:09Z</time>
      </trkpt>
      <trkpt lat="47.03355" lon="6.59472">
        <ele>760.9</ele>
        <time>2024-05-09T09:17:21Z</time>
      </trkpt>
      <trkpt lat="47.03315" lon="6.59473">
        <ele>761.5</ele>
        <time>2024-05-09T09:17:32Z</time>
      </trkpt>
      <trkpt lat="47.03272" lon="6.59486">
        <ele>762.1</ele>
        <time>2024-05-09T09:17:42Z</time>
      </trkpt>
      <trkpt lat="47.03225" lon="6.59497">
        <ele>762.9</ele>
        <time>2024-05-09T09:17:52Z</time>
      </trkpt>
      <trkpt lat="47.03191" lon="6.59476">
        <ele>764</ele>
        <time>2024-05-09T09:18:03Z</time>
      </trkpt>
      <trkpt lat="47.03204" lon="6.59452">
        <ele>763.8</ele>
        <time>2024-05-09T09:18:14Z</time>
      </trkpt>
      <trkpt lat="47.03236" lon="6.59411">
        <ele>763.5</ele>
        <time>2024-05-09T09:18:24Z</time>
      </trkpt>
      <trkpt lat="47.03267" lon="6.59368">
        <ele>763.4</ele>
        <time>2024-05-09T09:18:34Z</time>
      </trkpt>
      <trkpt lat="47.03291" lon="6.59329">
        <ele>763.9</ele>
        <time>2024-05-09T09:18:45Z</time>
      </trkpt>
      <trkpt lat="47.03313" lon="6.59274">
        <ele>764.2</ele>
        <time>2024-05-09T09:18:55Z</time>
      </trkpt>
      <trkpt lat="47.03343" lon="6.59214">
        <ele>764.2</ele>
        <time>2024-05-09T09:19:06Z</time>
      </trkpt>
      <trkpt lat="47.0338" lon="6.59159">
        <ele>764.7</ele>
        <time>2024-05-09T09:19:17Z</time>
      </trkpt>
      <trkpt lat="47.0341" lon="6.591">
        <ele>766.2</ele>
        <time>2024-05-09T09:19:27Z</time>
      </trkpt>
      <trkpt lat="47.03426" lon="6.5905">
        <ele>767.2</ele>
        <time>2024-05-09T09:19:38Z</time>
      </trkpt>
      <trkpt lat="47.03447" lon="6.58995">
        <ele>767.9</ele>
        <time>2024-05-09T09:19:48Z</time>
      </trkpt>
      <trkpt lat="47.03446" lon="6.58946">
        <ele>768.6</ele>
        <time>2024-05-09T09:19:59Z</time>
      </trkpt>
      <trkpt lat="47.03421" lon="6.58935">
        <ele>770.5</ele>
        <time>2024-05-09T09:20:09Z</time>
      </trkpt>
      <trkpt lat="47.03398" lon="6.58922">
        <ele>772.7</ele>
        <time>2024-05-09T09:20:20Z</time>
      </trkpt>
      <trkpt lat="47.03376" lon="6.58908">
        <ele>774.5</ele>
        <time>2024-05-09T09:20:30Z</time>
      </trkpt>
      <trkpt lat="47.03356" lon="6.58893">
        <ele>775.9</ele>
        <time>2024-05-09T09:20:41Z</time>
      </trkpt>
      <trkpt lat="47.03328" lon="6.58874">
        <ele>777.1</ele>
        <time>2024-05-09T09:20:52Z</time>
      </trkpt>
      <trkpt lat="47.033" lon="6.58862">
        <ele>779.1</ele>
        <time>2024-05-09T09:21:03Z</time>
      </trkpt>
      <trkpt lat="47.03277" lon="6.58855">
        <ele>781</ele>
        <time>2024-05-09T09:21:13Z</time>
      </trkpt>
      <trkpt lat="47.03248" lon="6.58849">
        <ele>783</ele>
        <time>2024-05-09T09:21:24Z</time>
      </trkpt>
      <trkpt lat="47.03215" lon="6.58841">
        <ele>784.8</ele>
        <time>2024-05-09T09:21:35Z</time>
      </trkpt>
      <trkpt lat="47.03187" lon="6.58825">
        <ele>786.1</ele>
        <time>2024-05-09T09:21:45Z</time>
      </trkpt>
      <trkpt lat="47.03144" lon="6.58789">
        <ele>786.4</ele>
        <time>2024-05-09T09:21:56Z</time>
      </trkpt>
      <trkpt lat="47.03101" lon="6.58754">
        <ele>788.7</ele>
        <time>2024-05-09T09:22:07Z</time>
      </trkpt>
      <trkpt lat="47.03073" lon="6.58728">
        <ele>791.3</ele>
        <time>2024-05-09T09:22:17Z</time>
      </trkpt>
      <trkpt lat="47.03044" lon="6.58716">
        <ele>793.5</ele>
        <time>2024-05-09T09:22:27Z</time>
      </trkpt>
      <trkpt lat="47.0301" lon="6.58715">
        <ele>796.1</ele>
        <time>2024-05-09T09:22:37Z</time>
      </trkpt>
      <trkpt lat="47.02978" lon="6.58698">
        <ele>797.2</ele>
        <time>2024-05-09T09:22:48Z</time>
      </trkpt>
      <trkpt lat="47.02943" lon="6.5867">
        <ele>798.2</ele>
        <time>2024-05-09T09:22:58Z</time>
      </trkpt>
      <trkpt lat="47.02913" lon="6.58643">
        <ele>799.3</ele>
        <time>2024-05-09T09:23:09Z</time>
      </trkpt>
      <trkpt lat="47.02884" lon="6.5861">
        <ele>800.4</ele>
        <time>2024-05-09T09:23:19Z</time>
      </trkpt>
      <trkpt lat="47.02853" lon="6.58579">
        <ele>801.9</ele>
        <time>2024-05-09T09:23:29Z</time>
      </trkpt>
      <trkpt lat="47.02823" lon="6.58552">
        <ele>803.8</ele>
        <time>2024-05-09T09:23:39Z</time>
      </trkpt>
      <trkpt lat="47.0279" lon="6.58527">
        <ele>804.7</ele>
        <time>2024-05-09T09:23:50Z</time>
      </trkpt>
      <trkpt lat="47.02751" lon="6.58489">
        <ele>805.3</ele>
        <time>2024-05-09T09:24:01Z</time>
      </trkpt>
      <trkpt lat="47.02727" lon="6.58439">
        <ele>805.2</ele>
        <time>2024-05-09T09:24:11Z</time>
      </trkpt>
      <trkpt lat="47.02677" lon="6.58382">
        <ele>802.8</ele>
        <time>2024-05-09T09:24:22Z</time>
      </trkpt>
      <trkpt lat="47.02682" lon="6.58319">
        <ele>803.8</ele>
        <time>2024-05-09T09:24:32Z</time>
      </trkpt>
      <trkpt lat="47.02723" lon="6.58266">
        <ele>801.4</ele>
        <time>2024-05-09T09:24:42Z</time>
      </trkpt>
      <trkpt lat="47.02766" lon="6.58173">
        <ele>797.3</ele>
        <time>2024-05-09T09:24:53Z</time>
      </trkpt>
      <trkpt lat="47.02764" lon="6.58044">
        <ele>792.2</ele>
        <time>2024-05-09T09:25:04Z</time>
      </trkpt>
      <trkpt lat="47.02713" lon="6.57927">
        <ele>786.8</ele>
        <time>2024-05-09T09:25:14Z</time>
      </trkpt>
      <trkpt lat="47.02656" lon="6.57801">
        <ele>782</ele>
        <time>2024-05-09T09:25:24Z</time>
      </trkpt>
      <trkpt lat="47.02612" lon="6.57684">
        <ele>777.7</ele>
        <time>2024-05-09T09:25:35Z</time>
      </trkpt>
      <trkpt lat="47.02586" lon="6.57595">
        <ele>772.4</ele>
        <time>2024-05-09T09:25:46Z</time>
      </trkpt>
      <trkpt lat="47.0265" lon="6.57537">
        <ele>766.3</ele>
        <time>2024-05-09T09:25:56Z</time>
      </trkpt>
      <trkpt lat="47.02723" lon="6.57466">
        <ele>762.5</ele>
        <time>2024-05-09T09:26:07Z</time>
      </trkpt>
      <trkpt lat="47.02741" lon="6.57385">
        <ele>763</ele>
        <time>2024-05-09T09:26:17Z</time>
      </trkpt>
      <trkpt lat="47.02744" lon="6.57294">
        <ele>763</ele>
        <time>2024-05-09T09:26:27Z</time>
      </trkpt>
      <trkpt lat="47.02746" lon="6.57265">
        <ele>763</ele>
        <time>2024-05-09T09:26:38Z</time>
      </trkpt>
      <trkpt lat="47.0275" lon="6.57281">
        <ele>763.1</ele>
        <time>2024-05-09T09:26:49Z</time>
      </trkpt>
      <trkpt lat="47.02751" lon="6.57289">
        <ele>763.2</ele>
        <time>2024-05-09T09:27:00Z</time>
      </trkpt>
      <trkpt lat="47.0275" lon="6.57289">
        <ele>763.2</ele>
        <time>2024-05-09T09:27:10Z</time>
      </trkpt>
      <trkpt lat="47.0275" lon="6.57289">
        <ele>763.2</ele>
        <time>2024-05-09T09:27:20Z</time>
      </trkpt>
      <trkpt lat="47.0275" lon="6.57289">
        <ele>763.2</ele>
        <time>2024-05-09T09:27:30Z</time>
      </trkpt>
      <trkpt lat="47.02749" lon="6.57291">
        <ele>763.2</ele>
        <time>2024-05-09T09:27:40Z</time>
      </trkpt>
      <trkpt lat="47.0275" lon="6.57287">
        <ele>763.2</ele>
        <time>2024-05-09T09:27:51Z</time>
      </trkpt>
      <trkpt lat="47.0275" lon="6.57287">
        <ele>763.2</ele>
        <time>2024-05-09T09:28:01Z</time>
      </trkpt>
      <trkpt lat="47.0275" lon="6.57287">
        <ele>763.2</ele>
        <time>2024-05-09T09:28:11Z</time>
      </trkpt>
      <trkpt lat="47.0275" lon="6.57287">
        <ele>763.2</ele>
        <time>2024-05-09T09:28:21Z</time>
      </trkpt>
      <trkpt lat="47.0275" lon="6.57287">
        <ele>763.2</ele>
        <time>2024-05-09T09:28:31Z</time>
      </trkpt>
      <trkpt lat="47.02749" lon="6.57284">
        <ele>763.2</ele>
        <time>2024-05-09T09:28:41Z</time>
      </trkpt>
      <trkpt lat="47.02751" lon="6.5728">
        <ele>763.3</ele>
        <time>2024-05-09T09:28:51Z</time>
      </trkpt>
      <trkpt lat="47.0275" lon="6.57283">
        <ele>763.3</ele>
        <time>2024-05-09T09:29:02Z</time>
      </trkpt>
      <trkpt lat="47.0275" lon="6.57285">
        <ele>763.3</ele>
        <time>2024-05-09T09:29:12Z</time>
      </trkpt>
      <trkpt lat="47.0275" lon="6.57285">
        <ele>763.3</ele>
        <time>2024-05-09T09:29:24Z</time>
      </trkpt>
      <trkpt lat="47.0275" lon="6.57283">
        <ele>763.3</ele>
        <time>2024-05-09T09:29:34Z</time>
      </trkpt>
      <trkpt lat="47.02753" lon="6.57283">
        <ele>763.4</ele>
        <time>2024-05-09T09:29:45Z</time>
      </trkpt>
      <trkpt lat="47.02749" lon="6.57283">
        <ele>763.4</ele>
        <time>2024-05-09T09:29:55Z</time>
      </trkpt>
      <trkpt lat="47.02747" lon="6.57279">
        <ele>763.5</ele>
        <time>2024-05-09T09:30:06Z</time>
      </trkpt>
      <trkpt lat="47.02757" lon="6.57262">
        <ele>764</ele>
        <time>2024-05-09T09:30:17Z</time>
      </trkpt>
      <trkpt lat="47.02758" lon="6.57286">
        <ele>763.9</ele>
        <time>2024-05-09T09:30:37Z</time>
      </trkpt>
      <trkpt lat="47.02744" lon="6.57307">
        <ele>763.9</ele>
        <time>2024-05-09T09:30:48Z</time>
      </trkpt>
      <trkpt lat="47.02735" lon="6.57308">
        <ele>763.8</ele>
        <time>2024-05-09T09:30:58Z</time>
      </trkpt>
      <trkpt lat="47.02724" lon="6.5731">
        <ele>763.8</ele>
        <time>2024-05-09T09:31:12Z</time>
      </trkpt>
      <trkpt lat="47.02741" lon="6.57307">
        <ele>763.7</ele>
        <time>2024-05-09T09:31:22Z</time>
      </trkpt>
      <trkpt lat="47.02753" lon="6.57306">
        <ele>763.7</ele>
        <time>2024-05-09T09:31:32Z</time>
      </trkpt>
      <trkpt lat="47.02756" lon="6.57306">
        <ele>763.7</ele>
        <time>2024-05-09T09:31:42Z</time>
      </trkpt>
      <trkpt lat="47.02756" lon="6.57306">
        <ele>763.7</ele>
        <time>2024-05-09T09:32:02Z</time>
      </trkpt>
      <trkpt lat="47.02756" lon="6.57306">
        <ele>763.7</ele>
        <time>2024-05-09T09:32:13Z</time>
      </trkpt>
      <trkpt lat="47.02756" lon="6.57306">
        <ele>763.7</ele>
        <time>2024-05-09T09:32:28Z</time>
      </trkpt>
      <trkpt lat="47.02756" lon="6.57306">
        <ele>763.7</ele>
        <time>2024-05-09T09:32:38Z</time>
      </trkpt>
      <trkpt lat="47.02756" lon="6.57313">
        <ele>763.7</ele>
        <time>2024-05-09T09:33:14Z</time>
      </trkpt>
      <trkpt lat="47.02744" lon="6.5729">
        <ele>763.6</ele>
        <time>2024-05-09T09:33:28Z</time>
      </trkpt>
      <trkpt lat="47.02744" lon="6.57273">
        <ele>763.6</ele>
        <time>2024-05-09T09:33:38Z</time>
      </trkpt>
      <trkpt lat="47.02773" lon="6.57318">
        <ele>763</ele>
        <time>2024-05-09T09:33:48Z</time>
      </trkpt>
      <trkpt lat="47.02768" lon="6.57261">
        <ele>764</ele>
        <time>2024-05-09T09:34:32Z</time>
      </trkpt>
      <trkpt lat="47.02758" lon="6.57306">
        <ele>763.5</ele>
        <time>2024-05-09T09:34:43Z</time>
      </trkpt>
      <trkpt lat="47.02749" lon="6.57293">
        <ele>763.3</ele>
        <time>2024-05-09T09:34:54Z</time>
      </trkpt>
      <trkpt lat="47.02764" lon="6.57289">
        <ele>763.1</ele>
        <time>2024-05-09T09:35:04Z</time>
      </trkpt>
      <trkpt lat="47.02768" lon="6.57327">
        <ele>763</ele>
        <time>2024-05-09T09:35:15Z</time>
      </trkpt>
      <trkpt lat="47.02756" lon="6.57338">
        <ele>763</ele>
        <time>2024-05-09T09:35:25Z</time>
      </trkpt>
      <trkpt lat="47.02755" lon="6.57293">
        <ele>763.3</ele>
        <time>2024-05-09T09:35:36Z</time>
      </trkpt>
      <trkpt lat="47.02756" lon="6.57282">
        <ele>763.3</ele>
        <time>2024-05-09T09:35:46Z</time>
      </trkpt>
      <trkpt lat="47.0276" lon="6.57292">
        <ele>763.3</ele>
        <time>2024-05-09T09:35:56Z</time>
      </trkpt>
      <trkpt lat="47.02763" lon="6.5733">
        <ele>763.5</ele>
        <time>2024-05-09T09:36:06Z</time>
      </trkpt>
      <trkpt lat="47.02763" lon="6.57325">
        <ele>763.5</ele>
        <time>2024-05-09T09:36:17Z</time>
      </trkpt>
      <trkpt lat="47.02758" lon="6.57314">
        <ele>763.6</ele>
        <time>2024-05-09T09:36:28Z</time>
      </trkpt>
      <trkpt lat="47.02756" lon="6.57307">
        <ele>763.6</ele>
        <time>2024-05-09T09:36:38Z</time>
      </trkpt>
      <trkpt lat="47.02756" lon="6.57301">
        <ele>763.6</ele>
        <time>2024-05-09T09:36:48Z</time>
      </trkpt>
      <trkpt lat="47.02756" lon="6.57301">
        <ele>763.6</ele>
        <time>2024-05-09T09:36:59Z</time>
      </trkpt>
      <trkpt lat="47.02756" lon="6.57301">
        <ele>763.6</ele>
        <time>2024-05-09T09:37:10Z</time>
      </trkpt>
      <trkpt lat="47.02753" lon="6.57295">
        <ele>763.6</ele>
        <time>2024-05-09T09:37:21Z</time>
      </trkpt>
      <trkpt lat="47.02753" lon="6.57295">
        <ele>763.6</ele>
        <time>2024-05-09T09:37:31Z</time>
      </trkpt>
      <trkpt lat="47.02753" lon="6.57293">
        <ele>763.7</ele>
        <time>2024-05-09T09:37:41Z</time>
      </trkpt>
      <trkpt lat="47.02753" lon="6.57293">
        <ele>763.7</ele>
        <time>2024-05-09T09:37:51Z</time>
      </trkpt>
      <trkpt lat="47.02753" lon="6.57293">
        <ele>763.7</ele>
        <time>2024-05-09T09:38:02Z</time>
      </trkpt>
      <trkpt lat="47.02753" lon="6.57293">
        <ele>763.7</ele>
        <time>2024-05-09T09:38:12Z</time>
      </trkpt>
      <trkpt lat="47.02753" lon="6.57293">
        <ele>763.7</ele>
        <time>2024-05-09T09:38:23Z</time>
      </trkpt>
      <trkpt lat="47.02753" lon="6.57293">
        <ele>763.7</ele>
        <time>2024-05-09T09:38:34Z</time>
      </trkpt>
      <trkpt lat="47.02753" lon="6.57293">
        <ele>763.7</ele>
        <time>2024-05-09T09:38:45Z</time>
      </trkpt>
      <trkpt lat="47.02753" lon="6.57293">
        <ele>763.7</ele>
        <time>2024-05-09T09:38:56Z</time>
      </trkpt>
      <trkpt lat="47.02753" lon="6.57293">
        <ele>763.7</ele>
        <time>2024-05-09T09:39:06Z</time>
      </trkpt>
      <trkpt lat="47.02753" lon="6.57293">
        <ele>763.7</ele>
        <time>2024-05-09T09:39:16Z</time>
      </trkpt>
      <trkpt lat="47.02753" lon="6.57293">
        <ele>763.7</ele>
        <time>2024-05-09T09:39:26Z</time>
      </trkpt>
      <trkpt lat="47.02753" lon="6.57293">
        <ele>763.7</ele>
        <time>2024-05-09T09:39:36Z</time>
      </trkpt>
      <trkpt lat="47.02753" lon="6.57293">
        <ele>763.7</ele>
        <time>2024-05-09T09:39:46Z</time>
      </trkpt>
      <trkpt lat="47.02753" lon="6.57293">
        <ele>763.7</ele>
        <time>2024-05-09T09:39:56Z</time>
      </trkpt>
      <trkpt lat="47.02753" lon="6.57293">
        <ele>763.7</ele>
        <time>2024-05-09T09:40:07Z</time>
      </trkpt>
      <trkpt lat="47.02753" lon="6.57293">
        <ele>763.7</ele>
        <time>2024-05-09T09:40:17Z</time>
      </trkpt>
      <trkpt lat="47.02753" lon="6.57293">
        <ele>763.7</ele>
        <time>2024-05-09T09:40:28Z</time>
      </trkpt>
      <trkpt lat="47.02751" lon="6.57292">
        <ele>763.7</ele>
        <time>2024-05-09T09:40:38Z</time>
      </trkpt>
      <trkpt lat="47.02751" lon="6.57292">
        <ele>763.7</ele>
        <time>2024-05-09T09:40:49Z</time>
      </trkpt>
      <trkpt lat="47.02751" lon="6.57292">
        <ele>763.7</ele>
        <time>2024-05-09T09:41:00Z</time>
      </trkpt>
      <trkpt lat="47.0275" lon="6.57291">
        <ele>763.7</ele>
        <time>2024-05-09T09:41:10Z</time>
      </trkpt>
      <trkpt lat="47.02749" lon="6.57291">
        <ele>763.7</ele>
        <time>2024-05-09T09:41:22Z</time>
      </trkpt>
      <trkpt lat="47.02749" lon="6.57291">
        <ele>763.7</ele>
        <time>2024-05-09T09:41:32Z</time>
      </trkpt>
      <trkpt lat="47.02749" lon="6.57291">
        <ele>763.7</ele>
        <time>2024-05-09T09:41:43Z</time>
      </trkpt>
      <trkpt lat="47.02749" lon="6.57291">
        <ele>763.7</ele>
        <time>2024-05-09T09:41:53Z</time>
      </trkpt>
      <trkpt lat="47.02749" lon="6.57291">
        <ele>763.7</ele>
        <time>2024-05-09T09:42:03Z</time>
      </trkpt>
      <trkpt lat="47.02749" lon="6.57291">
        <ele>763.7</ele>
        <time>2024-05-09T09:42:14Z</time>
      </trkpt>
      <trkpt lat="47.02749" lon="6.57291">
        <ele>763.7</ele>
        <time>2024-05-09T09:42:24Z</time>
      </trkpt>
      <trkpt lat="47.02749" lon="6.57291">
        <ele>763.7</ele>
        <time>2024-05-09T09:42:34Z</time>
      </trkpt>
      <trkpt lat="47.02749" lon="6.57291">
        <ele>763.7</ele>
        <time>2024-05-09T09:42:45Z</time>
      </trkpt>
      <trkpt lat="47.02749" lon="6.57291">
        <ele>763.7</ele>
        <time>2024-05-09T09:42:55Z</time>
      </trkpt>
      <trkpt lat="47.02749" lon="6.57291">
        <ele>763.7</ele>
        <time>2024-05-09T09:43:06Z</time>
      </trkpt>
      <trkpt lat="47.02748" lon="6.57289">
        <ele>763.7</ele>
        <time>2024-05-09T09:43:17Z</time>
      </trkpt>
      <trkpt lat="47.02746" lon="6.57263">
        <ele>763.8</ele>
        <time>2024-05-09T09:43:27Z</time>
      </trkpt>
      <trkpt lat="47.02735" lon="6.57229">
        <ele>764</ele>
        <time>2024-05-09T09:43:38Z</time>
      </trkpt>
      <trkpt lat="47.02709" lon="6.57187">
        <ele>764.1</ele>
        <time>2024-05-09T09:43:49Z</time>
      </trkpt>
      <trkpt lat="47.02686" lon="6.5715">
        <ele>764.4</ele>
        <time>2024-05-09T09:43:59Z</time>
      </trkpt>
      <trkpt lat="47.02663" lon="6.57113">
        <ele>764.9</ele>
        <time>2024-05-09T09:44:09Z</time>
      </trkpt>
      <trkpt lat="47.02632" lon="6.57078">
        <ele>765.1</ele>
        <time>2024-05-09T09:44:19Z</time>
      </trkpt>
      <trkpt lat="47.02583" lon="6.57036">
        <ele>764.9</ele>
        <time>2024-05-09T09:44:30Z</time>
      </trkpt>
      <trkpt lat="47.0255" lon="6.56975">
        <ele>765.4</ele>
        <time>2024-05-09T09:44:41Z</time>
      </trkpt>
      <trkpt lat="47.02532" lon="6.56913">
        <ele>766.1</ele>
        <time>2024-05-09T09:44:51Z</time>
      </trkpt>
      <trkpt lat="47.02528" lon="6.56848">
        <ele>766.9</ele>
        <time>2024-05-09T09:45:01Z</time>
      </trkpt>
      <trkpt lat="47.02504" lon="6.56786">
        <ele>767.5</ele>
        <time>2024-05-09T09:45:12Z</time>
      </trkpt>
      <trkpt lat="47.02461" lon="6.56746">
        <ele>768</ele>
        <time>2024-05-09T09:45:23Z</time>
      </trkpt>
      <trkpt lat="47.02413" lon="6.56706">
        <ele>768.4</ele>
        <time>2024-05-09T09:45:33Z</time>
      </trkpt>
      <trkpt lat="47.02359" lon="6.56676">
        <ele>769.2</ele>
        <time>2024-05-09T09:45:43Z</time>
      </trkpt>
      <trkpt lat="47.02314" lon="6.56638">
        <ele>771</ele>
        <time>2024-05-09T09:45:54Z</time>
      </trkpt>
      <trkpt lat="47.02321" lon="6.56597">
        <ele>773.8</ele>
        <time>2024-05-09T09:46:05Z</time>
      </trkpt>
      <trkpt lat="47.02323" lon="6.56566">
        <ele>776.3</ele>
        <time>2024-05-09T09:46:15Z</time>
      </trkpt>
      <trkpt lat="47.02306" lon="6.56549">
        <ele>778.4</ele>
        <time>2024-05-09T09:46:26Z</time>
      </trkpt>
      <trkpt lat="47.02288" lon="6.56541">
        <ele>780.4</ele>
        <time>2024-05-09T09:46:36Z</time>
      </trkpt>
      <trkpt lat="47.0227" lon="6.56528">
        <ele>782.5</ele>
        <time>2024-05-09T09:46:46Z</time>
      </trkpt>
      <trkpt lat="47.02257" lon="6.56501">
        <ele>784.5</ele>
        <time>2024-05-09T09:46:57Z</time>
      </trkpt>
      <trkpt lat="47.02247" lon="6.56467">
        <ele>786.7</ele>
        <time>2024-05-09T09:47:08Z</time>
      </trkpt>
      <trkpt lat="47.02241" lon="6.56435">
        <ele>788.6</ele>
        <time>2024-05-09T09:47:18Z</time>
      </trkpt>
      <trkpt lat="47.02238" lon="6.56398">
        <ele>790.8</ele>
        <time>2024-05-09T09:47:29Z</time>
      </trkpt>
      <trkpt lat="47.0224" lon="6.56365">
        <ele>792.6</ele>
        <time>2024-05-09T09:47:39Z</time>
      </trkpt>
      <trkpt lat="47.02246" lon="6.5633">
        <ele>794.3</ele>
        <time>2024-05-09T09:47:50Z</time>
      </trkpt>
      <trkpt lat="47.02252" lon="6.56299">
        <ele>795.6</ele>
        <time>2024-05-09T09:48:00Z</time>
      </trkpt>
      <trkpt lat="47.02252" lon="6.56274">
        <ele>796.8</ele>
        <time>2024-05-09T09:48:10Z</time>
      </trkpt>
      <trkpt lat="47.02248" lon="6.56246">
        <ele>798.1</ele>
        <time>2024-05-09T09:48:20Z</time>
      </trkpt>
      <trkpt lat="47.02246" lon="6.56211">
        <ele>800.1</ele>
        <time>2024-05-09T09:48:31Z</time>
      </trkpt>
      <trkpt lat="47.02248" lon="6.56177">
        <ele>802.6</ele>
        <time>2024-05-09T09:48:42Z</time>
      </trkpt>
      <trkpt lat="47.02255" lon="6.56148">
        <ele>805.4</ele>
        <time>2024-05-09T09:48:53Z</time>
      </trkpt>
      <trkpt lat="47.02265" lon="6.56125">
        <ele>808</ele>
        <time>2024-05-09T09:49:03Z</time>
      </trkpt>
      <trkpt lat="47.02275" lon="6.56103">
        <ele>810.4</ele>
        <time>2024-05-09T09:49:14Z</time>
      </trkpt>
      <trkpt lat="47.02288" lon="6.56091">
        <ele>812.2</ele>
        <time>2024-05-09T09:49:24Z</time>
      </trkpt>
      <trkpt lat="47.02288" lon="6.56066">
        <ele>813</ele>
        <time>2024-05-09T09:49:34Z</time>
      </trkpt>
      <trkpt lat="47.02303" lon="6.56051">
        <ele>815.3</ele>
        <time>2024-05-09T09:49:44Z</time>
      </trkpt>
      <trkpt lat="47.0231" lon="6.56026">
        <ele>817.7</ele>
        <time>2024-05-09T09:49:55Z</time>
      </trkpt>
      <trkpt lat="47.02315" lon="6.55998">
        <ele>820.5</ele>
        <time>2024-05-09T09:50:05Z</time>
      </trkpt>
      <trkpt lat="47.02298" lon="6.55959">
        <ele>821.6</ele>
        <time>2024-05-09T09:50:16Z</time>
      </trkpt>
      <trkpt lat="47.02274" lon="6.55937">
        <ele>823.2</ele>
        <time>2024-05-09T09:50:26Z</time>
      </trkpt>
      <trkpt lat="47.02246" lon="6.55915">
        <ele>823.9</ele>
        <time>2024-05-09T09:50:36Z</time>
      </trkpt>
      <trkpt lat="47.02208" lon="6.55883">
        <ele>824.6</ele>
        <time>2024-05-09T09:50:47Z</time>
      </trkpt>
      <trkpt lat="47.0218" lon="6.55856">
        <ele>826.2</ele>
        <time>2024-05-09T09:50:58Z</time>
      </trkpt>
      <trkpt lat="47.02151" lon="6.55825">
        <ele>827.7</ele>
        <time>2024-05-09T09:51:09Z</time>
      </trkpt>
      <trkpt lat="47.02113" lon="6.55786">
        <ele>827.8</ele>
        <time>2024-05-09T09:51:20Z</time>
      </trkpt>
      <trkpt lat="47.02071" lon="6.55748">
        <ele>828.3</ele>
        <time>2024-05-09T09:51:31Z</time>
      </trkpt>
      <trkpt lat="47.02041" lon="6.55719">
        <ele>830.1</ele>
        <time>2024-05-09T09:51:41Z</time>
      </trkpt>
      <trkpt lat="47.02013" lon="6.55691">
        <ele>832.4</ele>
        <time>2024-05-09T09:51:52Z</time>
      </trkpt>
      <trkpt lat="47.01986" lon="6.55663">
        <ele>834.9</ele>
        <time>2024-05-09T09:52:03Z</time>
      </trkpt>
      <trkpt lat="47.01957" lon="6.55636">
        <ele>836.8</ele>
        <time>2024-05-09T09:52:14Z</time>
      </trkpt>
      <trkpt lat="47.01931" lon="6.55608">
        <ele>838.2</ele>
        <time>2024-05-09T09:52:24Z</time>
      </trkpt>
      <trkpt lat="47.01907" lon="6.55573">
        <ele>839.3</ele>
        <time>2024-05-09T09:52:34Z</time>
      </trkpt>
      <trkpt lat="47.01882" lon="6.55532">
        <ele>840.6</ele>
        <time>2024-05-09T09:52:45Z</time>
      </trkpt>
      <trkpt lat="47.01862" lon="6.55499">
        <ele>842.1</ele>
        <time>2024-05-09T09:52:55Z</time>
      </trkpt>
      <trkpt lat="47.01842" lon="6.55469">
        <ele>843.8</ele>
        <time>2024-05-09T09:53:06Z</time>
      </trkpt>
      <trkpt lat="47.01821" lon="6.55438">
        <ele>844.9</ele>
        <time>2024-05-09T09:53:17Z</time>
      </trkpt>
      <trkpt lat="47.01804" lon="6.55403">
        <ele>845.7</ele>
        <time>2024-05-09T09:53:27Z</time>
      </trkpt>
      <trkpt lat="47.01781" lon="6.5536">
        <ele>846.3</ele>
        <time>2024-05-09T09:53:38Z</time>
      </trkpt>
      <trkpt lat="47.01757" lon="6.55319">
        <ele>846.9</ele>
        <time>2024-05-09T09:53:48Z</time>
      </trkpt>
      <trkpt lat="47.01745" lon="6.553">
        <ele>847.3</ele>
        <time>2024-05-09T09:53:58Z</time>
      </trkpt>
      <trkpt lat="47.01744" lon="6.55302">
        <ele>847.3</ele>
        <time>2024-05-09T09:54:09Z</time>
      </trkpt>
      <trkpt lat="47.01739" lon="6.55311">
        <ele>847.5</ele>
        <time>2024-05-09T09:54:20Z</time>
      </trkpt>
      <trkpt lat="47.01746" lon="6.55298">
        <ele>847.9</ele>
        <time>2024-05-09T09:54:30Z</time>
      </trkpt>
      <trkpt lat="47.0173" lon="6.55265">
        <ele>849.2</ele>
        <time>2024-05-09T09:54:40Z</time>
      </trkpt>
      <trkpt lat="47.01716" lon="6.55231">
        <ele>851</ele>
        <time>2024-05-09T09:54:51Z</time>
      </trkpt>
      <trkpt lat="47.01706" lon="6.55195">
        <ele>853.2</ele>
        <time>2024-05-09T09:55:02Z</time>
      </trkpt>
      <trkpt lat="47.017" lon="6.55171">
        <ele>854.9</ele>
        <time>2024-05-09T09:55:12Z</time>
      </trkpt>
      <trkpt lat="47.01696" lon="6.55144">
        <ele>856.9</ele>
        <time>2024-05-09T09:55:23Z</time>
      </trkpt>
      <trkpt lat="47.01695" lon="6.55123">
        <ele>858.5</ele>
        <time>2024-05-09T09:55:34Z</time>
      </trkpt>
      <trkpt lat="47.01692" lon="6.55103">
        <ele>860.5</ele>
        <time>2024-05-09T09:55:44Z</time>
      </trkpt>
      <trkpt lat="47.01688" lon="6.55086">
        <ele>862.6</ele>
        <time>2024-05-09T09:55:55Z</time>
      </trkpt>
      <trkpt lat="47.01677" lon="6.55068">
        <ele>865.7</ele>
        <time>2024-05-09T09:56:05Z</time>
      </trkpt>
      <trkpt lat="47.01669" lon="6.5505">
        <ele>868.5</ele>
        <time>2024-05-09T09:56:16Z</time>
      </trkpt>
      <trkpt lat="47.0166" lon="6.55035">
        <ele>871.2</ele>
        <time>2024-05-09T09:56:27Z</time>
      </trkpt>
      <trkpt lat="47.01652" lon="6.55026">
        <ele>872.9</ele>
        <time>2024-05-09T09:56:37Z</time>
      </trkpt>
      <trkpt lat="47.01636" lon="6.55009">
        <ele>876.2</ele>
        <time>2024-05-09T09:56:48Z</time>
      </trkpt>
      <trkpt lat="47.01625" lon="6.55003">
        <ele>878</ele>
        <time>2024-05-09T09:56:59Z</time>
      </trkpt>
      <trkpt lat="47.01612" lon="6.54995">
        <ele>879.8</ele>
        <time>2024-05-09T09:57:10Z</time>
      </trkpt>
      <trkpt lat="47.01598" lon="6.5499">
        <ele>881.3</ele>
        <time>2024-05-09T09:57:20Z</time>
      </trkpt>
      <trkpt lat="47.01582" lon="6.5498">
        <ele>882.9</ele>
        <time>2024-05-09T09:57:30Z</time>
      </trkpt>
      <trkpt lat="47.01569" lon="6.5497">
        <ele>884.2</ele>
        <time>2024-05-09T09:57:40Z</time>
      </trkpt>
      <trkpt lat="47.01555" lon="6.54957">
        <ele>886</ele>
        <time>2024-05-09T09:57:51Z</time>
      </trkpt>
      <trkpt lat="47.01539" lon="6.54944">
        <ele>888</ele>
        <time>2024-05-09T09:58:02Z</time>
      </trkpt>
      <trkpt lat="47.01527" lon="6.54933">
        <ele>889.7</ele>
        <time>2024-05-09T09:58:13Z</time>
      </trkpt>
      <trkpt lat="47.01514" lon="6.5492">
        <ele>891.6</ele>
        <time>2024-05-09T09:58:23Z</time>
      </trkpt>
      <trkpt lat="47.01499" lon="6.54902">
        <ele>894</ele>
        <time>2024-05-09T09:58:34Z</time>
      </trkpt>
      <trkpt lat="47.01486" lon="6.54886">
        <ele>896.3</ele>
        <time>2024-05-09T09:58:44Z</time>
      </trkpt>
      <trkpt lat="47.01473" lon="6.5487">
        <ele>898.5</ele>
        <time>2024-05-09T09:58:55Z</time>
      </trkpt>
      <trkpt lat="47.01458" lon="6.54857">
        <ele>900.8</ele>
        <time>2024-05-09T09:59:06Z</time>
      </trkpt>
      <trkpt lat="47.01444" lon="6.54849">
        <ele>902.9</ele>
        <time>2024-05-09T09:59:17Z</time>
      </trkpt>
      <trkpt lat="47.01432" lon="6.54838">
        <ele>904.8</ele>
        <time>2024-05-09T09:59:28Z</time>
      </trkpt>
      <trkpt lat="47.01421" lon="6.54825">
        <ele>906.3</ele>
        <time>2024-05-09T09:59:38Z</time>
      </trkpt>
      <trkpt lat="47.01411" lon="6.54811">
        <ele>907.7</ele>
        <time>2024-05-09T09:59:48Z</time>
      </trkpt>
      <trkpt lat="47.014" lon="6.54795">
        <ele>909.2</ele>
        <time>2024-05-09T09:59:58Z</time>
      </trkpt>
      <trkpt lat="47.01389" lon="6.54773">
        <ele>911</ele>
        <time>2024-05-09T10:00:09Z</time>
      </trkpt>
      <trkpt lat="47.01377" lon="6.54752">
        <ele>912.8</ele>
        <time>2024-05-09T10:00:20Z</time>
      </trkpt>
      <trkpt lat="47.01366" lon="6.54732">
        <ele>914.5</ele>
        <time>2024-05-09T10:00:30Z</time>
      </trkpt>
      <trkpt lat="47.01355" lon="6.54716">
        <ele>916.2</ele>
        <time>2024-05-09T10:00:40Z</time>
      </trkpt>
      <trkpt lat="47.01346" lon="6.54703">
        <ele>917.8</ele>
        <time>2024-05-09T10:00:50Z</time>
      </trkpt>
      <trkpt lat="47.01335" lon="6.54689">
        <ele>919.8</ele>
        <time>2024-05-09T10:01:00Z</time>
      </trkpt>
      <trkpt lat="47.01336" lon="6.5467">
        <ele>921.6</ele>
        <time>2024-05-09T10:01:11Z</time>
      </trkpt>
      <trkpt lat="47.01336" lon="6.54651">
        <ele>923.5</ele>
        <time>2024-05-09T10:01:22Z</time>
      </trkpt>
      <trkpt lat="47.01322" lon="6.54635">
        <ele>924.9</ele>
        <time>2024-05-09T10:01:33Z</time>
      </trkpt>
      <trkpt lat="47.01309" lon="6.54613">
        <ele>925.4</ele>
        <time>2024-05-09T10:01:44Z</time>
      </trkpt>
      <trkpt lat="47.01298" lon="6.54593">
        <ele>925.1</ele>
        <time>2024-05-09T10:01:54Z</time>
      </trkpt>
      <trkpt lat="47.01283" lon="6.54576">
        <ele>925.4</ele>
        <time>2024-05-09T10:02:05Z</time>
      </trkpt>
      <trkpt lat="47.01268" lon="6.54559">
        <ele>926.1</ele>
        <time>2024-05-09T10:02:16Z</time>
      </trkpt>
      <trkpt lat="47.01262" lon="6.5454">
        <ele>926.8</ele>
        <time>2024-05-09T10:02:27Z</time>
      </trkpt>
      <trkpt lat="47.01264" lon="6.54527">
        <ele>927.6</ele>
        <time>2024-05-09T10:02:37Z</time>
      </trkpt>
      <trkpt lat="47.01265" lon="6.54512">
        <ele>928.8</ele>
        <time>2024-05-09T10:02:48Z</time>
      </trkpt>
      <trkpt lat="47.01263" lon="6.54507">
        <ele>929.3</ele>
        <time>2024-05-09T10:02:58Z</time>
      </trkpt>
      <trkpt lat="47.01259" lon="6.54498">
        <ele>930.2</ele>
        <time>2024-05-09T10:03:09Z</time>
      </trkpt>
      <trkpt lat="47.01256" lon="6.54478">
        <ele>931.9</ele>
        <time>2024-05-09T10:03:20Z</time>
      </trkpt>
      <trkpt lat="47.0125" lon="6.54464">
        <ele>933.2</ele>
        <time>2024-05-09T10:03:30Z</time>
      </trkpt>
      <trkpt lat="47.01243" lon="6.5445">
        <ele>934.6</ele>
        <time>2024-05-09T10:03:41Z</time>
      </trkpt>
      <trkpt lat="47.01231" lon="6.54432">
        <ele>936.4</ele>
        <time>2024-05-09T10:03:52Z</time>
      </trkpt>
      <trkpt lat="47.0122" lon="6.54412">
        <ele>938.1</ele>
        <time>2024-05-09T10:04:03Z</time>
      </trkpt>
      <trkpt lat="47.01209" lon="6.5439">
        <ele>940.4</ele>
        <time>2024-05-09T10:04:14Z</time>
      </trkpt>
      <trkpt lat="47.01195" lon="6.54371">
        <ele>942.9</ele>
        <time>2024-05-09T10:04:25Z</time>
      </trkpt>
      <trkpt lat="47.01177" lon="6.54338">
        <ele>944.2</ele>
        <time>2024-05-09T10:04:35Z</time>
      </trkpt>
      <trkpt lat="47.0116" lon="6.54298">
        <ele>945.1</ele>
        <time>2024-05-09T10:04:45Z</time>
      </trkpt>
      <trkpt lat="47.01144" lon="6.54262">
        <ele>946.1</ele>
        <time>2024-05-09T10:04:56Z</time>
      </trkpt>
      <trkpt lat="47.01127" lon="6.54225">
        <ele>946.6</ele>
        <time>2024-05-09T10:05:06Z</time>
      </trkpt>
      <trkpt lat="47.01097" lon="6.54166">
        <ele>946.1</ele>
        <time>2024-05-09T10:05:17Z</time>
      </trkpt>
      <trkpt lat="47.01069" lon="6.54115">
        <ele>945.7</ele>
        <time>2024-05-09T10:05:27Z</time>
      </trkpt>
      <trkpt lat="47.0103" lon="6.54075">
        <ele>945.8</ele>
        <time>2024-05-09T10:05:38Z</time>
      </trkpt>
      <trkpt lat="47.00995" lon="6.54041">
        <ele>946.2</ele>
        <time>2024-05-09T10:05:48Z</time>
      </trkpt>
      <trkpt lat="47.00962" lon="6.53986">
        <ele>945.9</ele>
        <time>2024-05-09T10:05:59Z</time>
      </trkpt>
      <trkpt lat="47.0093" lon="6.5393">
        <ele>945.6</ele>
        <time>2024-05-09T10:06:09Z</time>
      </trkpt>
      <trkpt lat="47.00892" lon="6.53872">
        <ele>945.2</ele>
        <time>2024-05-09T10:06:20Z</time>
      </trkpt>
      <trkpt lat="47.00839" lon="6.53854">
        <ele>944.9</ele>
        <time>2024-05-09T10:06:31Z</time>
      </trkpt>
      <trkpt lat="47.00798" lon="6.53827">
        <ele>945.5</ele>
        <time>2024-05-09T10:06:41Z</time>
      </trkpt>
      <trkpt lat="47.00757" lon="6.53797">
        <ele>946.4</ele>
        <time>2024-05-09T10:06:52Z</time>
      </trkpt>
      <trkpt lat="47.00732" lon="6.53784">
        <ele>948.4</ele>
        <time>2024-05-09T10:07:02Z</time>
      </trkpt>
      <trkpt lat="47.00711" lon="6.53773">
        <ele>950.9</ele>
        <time>2024-05-09T10:07:13Z</time>
      </trkpt>
      <trkpt lat="47.00692" lon="6.53759">
        <ele>952.9</ele>
        <time>2024-05-09T10:07:24Z</time>
      </trkpt>
      <trkpt lat="47.0067" lon="6.53753">
        <ele>954.4</ele>
        <time>2024-05-09T10:07:35Z</time>
      </trkpt>
      <trkpt lat="47.00649" lon="6.53728">
        <ele>955.5</ele>
        <time>2024-05-09T10:07:46Z</time>
      </trkpt>
      <trkpt lat="47.00629" lon="6.53697">
        <ele>956.6</ele>
        <time>2024-05-09T10:07:57Z</time>
      </trkpt>
      <trkpt lat="47.00612" lon="6.53669">
        <ele>958</ele>
        <time>2024-05-09T10:08:08Z</time>
      </trkpt>
      <trkpt lat="47.00596" lon="6.53644">
        <ele>959.3</ele>
        <time>2024-05-09T10:08:18Z</time>
      </trkpt>
      <trkpt lat="47.0058" lon="6.53613">
        <ele>960.1</ele>
        <time>2024-05-09T10:08:29Z</time>
      </trkpt>
      <trkpt lat="47.0056" lon="6.53581">
        <ele>961</ele>
        <time>2024-05-09T10:08:40Z</time>
      </trkpt>
      <trkpt lat="47.00548" lon="6.53548">
        <ele>962.3</ele>
        <time>2024-05-09T10:08:51Z</time>
      </trkpt>
      <trkpt lat="47.00541" lon="6.53518">
        <ele>963.6</ele>
        <time>2024-05-09T10:09:01Z</time>
      </trkpt>
      <trkpt lat="47.00531" lon="6.53489">
        <ele>964.9</ele>
        <time>2024-05-09T10:09:12Z</time>
      </trkpt>
      <trkpt lat="47.00515" lon="6.53435">
        <ele>965.9</ele>
        <time>2024-05-09T10:09:23Z</time>
      </trkpt>
      <trkpt lat="47.005" lon="6.53384">
        <ele>966.3</ele>
        <time>2024-05-09T10:09:33Z</time>
      </trkpt>
      <trkpt lat="47.00484" lon="6.53332">
        <ele>965.2</ele>
        <time>2024-05-09T10:09:43Z</time>
      </trkpt>
      <trkpt lat="47.00457" lon="6.53259">
        <ele>962.2</ele>
        <time>2024-05-09T10:09:54Z</time>
      </trkpt>
      <trkpt lat="47.0044" lon="6.53229">
        <ele>962</ele>
        <time>2024-05-09T10:10:05Z</time>
      </trkpt>
      <trkpt lat="47.00409" lon="6.53204">
        <ele>963</ele>
        <time>2024-05-09T10:10:16Z</time>
      </trkpt>
      <trkpt lat="47.00382" lon="6.5318">
        <ele>963.9</ele>
        <time>2024-05-09T10:10:26Z</time>
      </trkpt>
      <trkpt lat="47.00364" lon="6.53162">
        <ele>963.8</ele>
        <time>2024-05-09T10:10:37Z</time>
      </trkpt>
      <trkpt lat="47.00364" lon="6.53162">
        <ele>963.8</ele>
        <time>2024-05-09T10:10:48Z</time>
      </trkpt>
      <trkpt lat="47.00367" lon="6.53165">
        <ele>963.8</ele>
        <time>2024-05-09T10:10:59Z</time>
      </trkpt>
      <trkpt lat="47.00366" lon="6.53167">
        <ele>963.7</ele>
        <time>2024-05-09T10:11:09Z</time>
      </trkpt>
      <trkpt lat="47.00365" lon="6.53166">
        <ele>963.7</ele>
        <time>2024-05-09T10:11:20Z</time>
      </trkpt>
      <trkpt lat="47.0037" lon="6.53171">
        <ele>963.6</ele>
        <time>2024-05-09T10:11:31Z</time>
      </trkpt>
      <trkpt lat="47.0037" lon="6.5317">
        <ele>963.6</ele>
        <time>2024-05-09T10:11:42Z</time>
      </trkpt>
      <trkpt lat="47.00369" lon="6.53169">
        <ele>963.6</ele>
        <time>2024-05-09T10:11:52Z</time>
      </trkpt>
      <trkpt lat="47.00369" lon="6.53169">
        <ele>963.6</ele>
        <time>2024-05-09T10:12:02Z</time>
      </trkpt>
      <trkpt lat="47.00369" lon="6.53169">
        <ele>963.6</ele>
        <time>2024-05-09T10:12:13Z</time>
      </trkpt>
      <trkpt lat="47.00364" lon="6.53164">
        <ele>963.4</ele>
        <time>2024-05-09T10:12:24Z</time>
      </trkpt>
      <trkpt lat="47.00363" lon="6.53164">
        <ele>963.4</ele>
        <time>2024-05-09T10:12:34Z</time>
      </trkpt>
      <trkpt lat="47.00363" lon="6.53164">
        <ele>963.4</ele>
        <time>2024-05-09T10:12:45Z</time>
      </trkpt>
      <trkpt lat="47.00363" lon="6.53164">
        <ele>963.4</ele>
        <time>2024-05-09T10:12:56Z</time>
      </trkpt>
      <trkpt lat="47.00363" lon="6.53164">
        <ele>963.4</ele>
        <time>2024-05-09T10:13:06Z</time>
      </trkpt>
      <trkpt lat="47.00363" lon="6.53164">
        <ele>963.4</ele>
        <time>2024-05-09T10:13:17Z</time>
      </trkpt>
      <trkpt lat="47.00352" lon="6.53145">
        <ele>963.1</ele>
        <time>2024-05-09T10:13:27Z</time>
      </trkpt>
      <trkpt lat="47.00325" lon="6.53113">
        <ele>963</ele>
        <time>2024-05-09T10:13:38Z</time>
      </trkpt>
      <trkpt lat="47.00303" lon="6.53081">
        <ele>963</ele>
        <time>2024-05-09T10:13:48Z</time>
      </trkpt>
      <trkpt lat="47.00276" lon="6.53042">
        <ele>963.4</ele>
        <time>2024-05-09T10:13:58Z</time>
      </trkpt>
      <trkpt lat="47.00246" lon="6.52992">
        <ele>963.4</ele>
        <time>2024-05-09T10:14:09Z</time>
      </trkpt>
      <trkpt lat="47.00213" lon="6.52936">
        <ele>963</ele>
        <time>2024-05-09T10:14:20Z</time>
      </trkpt>
      <trkpt lat="47.00183" lon="6.52879">
        <ele>962.5</ele>
        <time>2024-05-09T10:14:30Z</time>
      </trkpt>
      <trkpt lat="47.00147" lon="6.52825">
        <ele>962.6</ele>
        <time>2024-05-09T10:14:41Z</time>
      </trkpt>
      <trkpt lat="47.00146" lon="6.52789">
        <ele>962.7</ele>
        <time>2024-05-09T10:14:51Z</time>
      </trkpt>
      <trkpt lat="47.0017" lon="6.52748">
        <ele>962.9</ele>
        <time>2024-05-09T10:15:02Z</time>
      </trkpt>
      <trkpt lat="47.00179" lon="6.52706">
        <ele>963</ele>
        <time>2024-05-09T10:15:12Z</time>
      </trkpt>
      <trkpt lat="47.00181" lon="6.5267">
        <ele>964.5</ele>
        <time>2024-05-09T10:15:22Z</time>
      </trkpt>
      <trkpt lat="47.00177" lon="6.52652">
        <ele>966.3</ele>
        <time>2024-05-09T10:15:33Z</time>
      </trkpt>
      <trkpt lat="47.00169" lon="6.52635">
        <ele>968.4</ele>
        <time>2024-05-09T10:15:43Z</time>
      </trkpt>
      <trkpt lat="47.00164" lon="6.52619">
        <ele>970.2</ele>
        <time>2024-05-09T10:15:53Z</time>
      </trkpt>
      <trkpt lat="47.00158" lon="6.52602">
        <ele>971.9</ele>
        <time>2024-05-09T10:16:04Z</time>
      </trkpt>
      <trkpt lat="47.00152" lon="6.52581">
        <ele>973.8</ele>
        <time>2024-05-09T10:16:14Z</time>
      </trkpt>
      <trkpt lat="47.00147" lon="6.52561">
        <ele>975.4</ele>
        <time>2024-05-09T10:16:25Z</time>
      </trkpt>
      <trkpt lat="47.00136" lon="6.52532">
        <ele>977.9</ele>
        <time>2024-05-09T10:16:36Z</time>
      </trkpt>
      <trkpt lat="47.00134" lon="6.52514">
        <ele>979.3</ele>
        <time>2024-05-09T10:16:47Z</time>
      </trkpt>
      <trkpt lat="47.00129" lon="6.52491">
        <ele>981.5</ele>
        <time>2024-05-09T10:16:58Z</time>
      </trkpt>
      <trkpt lat="47.00125" lon="6.52467">
        <ele>983.8</ele>
        <time>2024-05-09T10:17:09Z</time>
      </trkpt>
      <trkpt lat="47.00119" lon="6.52446">
        <ele>985.5</ele>
        <time>2024-05-09T10:17:19Z</time>
      </trkpt>
      <trkpt lat="47.00114" lon="6.52425">
        <ele>987</ele>
        <time>2024-05-09T10:17:30Z</time>
      </trkpt>
      <trkpt lat="47.00118" lon="6.524">
        <ele>989.1</ele>
        <time>2024-05-09T10:17:41Z</time>
      </trkpt>
      <trkpt lat="47.00128" lon="6.52382">
        <ele>991.2</ele>
        <time>2024-05-09T10:17:52Z</time>
      </trkpt>
      <trkpt lat="47.00138" lon="6.52358">
        <ele>991.7</ele>
        <time>2024-05-09T10:18:03Z</time>
      </trkpt>
      <trkpt lat="47.0016" lon="6.5234">
        <ele>990.6</ele>
        <time>2024-05-09T10:18:13Z</time>
      </trkpt>
      <trkpt lat="47.0018" lon="6.52311">
        <ele>988.9</ele>
        <time>2024-05-09T10:18:24Z</time>
      </trkpt>
      <trkpt lat="47.00196" lon="6.52274">
        <ele>987.3</ele>
        <time>2024-05-09T10:18:34Z</time>
      </trkpt>
      <trkpt lat="47.00207" lon="6.52243">
        <ele>985.8</ele>
        <time>2024-05-09T10:18:45Z</time>
      </trkpt>
      <trkpt lat="47.00212" lon="6.52209">
        <ele>983.6</ele>
        <time>2024-05-09T10:18:56Z</time>
      </trkpt>
      <trkpt lat="47.00216" lon="6.52168">
        <ele>981.2</ele>
        <time>2024-05-09T10:19:06Z</time>
      </trkpt>
      <trkpt lat="47.00219" lon="6.52135">
        <ele>979.8</ele>
        <time>2024-05-09T10:19:16Z</time>
      </trkpt>
      <trkpt lat="47.00221" lon="6.521">
        <ele>978.8</ele>
        <time>2024-05-09T10:19:27Z</time>
      </trkpt>
      <trkpt lat="47.00228" lon="6.52076">
        <ele>978</ele>
        <time>2024-05-09T10:19:37Z</time>
      </trkpt>
      <trkpt lat="47.0023" lon="6.52041">
        <ele>976.9</ele>
        <time>2024-05-09T10:19:47Z</time>
      </trkpt>
      <trkpt lat="47.00237" lon="6.52003">
        <ele>975.6</ele>
        <time>2024-05-09T10:19:58Z</time>
      </trkpt>
      <trkpt lat="47.00242" lon="6.51973">
        <ele>974.6</ele>
        <time>2024-05-09T10:20:09Z</time>
      </trkpt>
      <trkpt lat="47.00239" lon="6.51932">
        <ele>972.4</ele>
        <time>2024-05-09T10:20:20Z</time>
      </trkpt>
      <trkpt lat="47.00252" lon="6.51897">
        <ele>970.2</ele>
        <time>2024-05-09T10:20:30Z</time>
      </trkpt>
      <trkpt lat="47.0026" lon="6.51857">
        <ele>967</ele>
        <time>2024-05-09T10:20:41Z</time>
      </trkpt>
      <trkpt lat="47.0027" lon="6.51823">
        <ele>963.3</ele>
        <time>2024-05-09T10:20:51Z</time>
      </trkpt>
      <trkpt lat="47.0028" lon="6.51778">
        <ele>960.5</ele>
        <time>2024-05-09T10:21:01Z</time>
      </trkpt>
      <trkpt lat="47.00293" lon="6.51746">
        <ele>959.8</ele>
        <time>2024-05-09T10:21:11Z</time>
      </trkpt>
      <trkpt lat="47.00294" lon="6.51741">
        <ele>959.8</ele>
        <time>2024-05-09T10:21:22Z</time>
      </trkpt>
      <trkpt lat="47.00296" lon="6.51733">
        <ele>959.8</ele>
        <time>2024-05-09T10:21:33Z</time>
      </trkpt>
      <trkpt lat="47.00294" lon="6.51727">
        <ele>959.8</ele>
        <time>2024-05-09T10:21:44Z</time>
      </trkpt>
      <trkpt lat="47.00288" lon="6.51693">
        <ele>960.2</ele>
        <time>2024-05-09T10:21:55Z</time>
      </trkpt>
      <trkpt lat="47.00283" lon="6.51661">
        <ele>961.2</ele>
        <time>2024-05-09T10:22:06Z</time>
      </trkpt>
      <trkpt lat="47.00287" lon="6.51636">
        <ele>962.2</ele>
        <time>2024-05-09T10:22:16Z</time>
      </trkpt>
      <trkpt lat="47.00287" lon="6.51631">
        <ele>962.4</ele>
        <time>2024-05-09T10:22:26Z</time>
      </trkpt>
      <trkpt lat="47.00289" lon="6.51621">
        <ele>962.9</ele>
        <time>2024-05-09T10:22:37Z</time>
      </trkpt>
      <trkpt lat="47.00286" lon="6.5159">
        <ele>963.8</ele>
        <time>2024-05-09T10:22:48Z</time>
      </trkpt>
      <trkpt lat="47.00274" lon="6.51543">
        <ele>963.8</ele>
        <time>2024-05-09T10:22:59Z</time>
      </trkpt>
      <trkpt lat="47.00265" lon="6.5148">
        <ele>961.4</ele>
        <time>2024-05-09T10:23:09Z</time>
      </trkpt>
      <trkpt lat="47.00272" lon="6.51403">
        <ele>954.8</ele>
        <time>2024-05-09T10:23:19Z</time>
      </trkpt>
      <trkpt lat="47.00309" lon="6.5134">
        <ele>947.8</ele>
        <time>2024-05-09T10:23:29Z</time>
      </trkpt>
      <trkpt lat="47.00355" lon="6.51289">
        <ele>941.8</ele>
        <time>2024-05-09T10:23:39Z</time>
      </trkpt>
      <trkpt lat="47.00372" lon="6.51212">
        <ele>934.7</ele>
        <time>2024-05-09T10:23:50Z</time>
      </trkpt>
      <trkpt lat="47.00336" lon="6.51206">
        <ele>936</ele>
        <time>2024-05-09T10:24:00Z</time>
      </trkpt>
      <trkpt lat="47.00301" lon="6.51201">
        <ele>936.6</ele>
        <time>2024-05-09T10:24:11Z</time>
      </trkpt>
      <trkpt lat="47.00256" lon="6.5119">
        <ele>937.4</ele>
        <time>2024-05-09T10:24:22Z</time>
      </trkpt>
      <trkpt lat="47.00216" lon="6.5119">
        <ele>938.6</ele>
        <time>2024-05-09T10:24:33Z</time>
      </trkpt>
      <trkpt lat="47.00171" lon="6.51189">
        <ele>937.9</ele>
        <time>2024-05-09T10:24:43Z</time>
      </trkpt>
      <trkpt lat="47.00133" lon="6.51207">
        <ele>937.2</ele>
        <time>2024-05-09T10:24:53Z</time>
      </trkpt>
      <trkpt lat="47.00079" lon="6.51211">
        <ele>938.1</ele>
        <time>2024-05-09T10:25:04Z</time>
      </trkpt>
      <trkpt lat="47.00038" lon="6.51204">
        <ele>939.4</ele>
        <time>2024-05-09T10:25:14Z</time>
      </trkpt>
      <trkpt lat="46.99997" lon="6.51213">
        <ele>940.5</ele>
        <time>2024-05-09T10:25:25Z</time>
      </trkpt>
      <trkpt lat="46.99958" lon="6.51237">
        <ele>942</ele>
        <time>2024-05-09T10:25:36Z</time>
      </trkpt>
      <trkpt lat="46.99926" lon="6.5126">
        <ele>943.5</ele>
        <time>2024-05-09T10:25:46Z</time>
      </trkpt>
      <trkpt lat="46.99894" lon="6.51268">
        <ele>944.5</ele>
        <time>2024-05-09T10:25:56Z</time>
      </trkpt>
      <trkpt lat="46.99848" lon="6.5126">
        <ele>944.8</ele>
        <time>2024-05-09T10:26:07Z</time>
      </trkpt>
      <trkpt lat="46.99805" lon="6.51243">
        <ele>946.9</ele>
        <time>2024-05-09T10:26:18Z</time>
      </trkpt>
      <trkpt lat="46.99771" lon="6.5123">
        <ele>948.5</ele>
        <time>2024-05-09T10:26:28Z</time>
      </trkpt>
      <trkpt lat="46.99734" lon="6.51206">
        <ele>950</ele>
        <time>2024-05-09T10:26:39Z</time>
      </trkpt>
      <trkpt lat="46.99704" lon="6.51191">
        <ele>951.6</ele>
        <time>2024-05-09T10:26:49Z</time>
      </trkpt>
      <trkpt lat="46.9967" lon="6.51189">
        <ele>952.8</ele>
        <time>2024-05-09T10:27:00Z</time>
      </trkpt>
      <trkpt lat="46.99633" lon="6.51172">
        <ele>953.9</ele>
        <time>2024-05-09T10:27:10Z</time>
      </trkpt>
      <trkpt lat="46.99596" lon="6.51143">
        <ele>955.2</ele>
        <time>2024-05-09T10:27:21Z</time>
      </trkpt>
      <trkpt lat="46.99561" lon="6.51115">
        <ele>956.3</ele>
        <time>2024-05-09T10:27:31Z</time>
      </trkpt>
      <trkpt lat="46.99523" lon="6.51092">
        <ele>957.6</ele>
        <time>2024-05-09T10:27:42Z</time>
      </trkpt>
      <trkpt lat="46.99484" lon="6.51072">
        <ele>958.8</ele>
        <time>2024-05-09T10:27:53Z</time>
      </trkpt>
      <trkpt lat="46.99452" lon="6.51048">
        <ele>960.1</ele>
        <time>2024-05-09T10:28:03Z</time>
      </trkpt>
      <trkpt lat="46.99423" lon="6.51019">
        <ele>961.9</ele>
        <time>2024-05-09T10:28:14Z</time>
      </trkpt>
      <trkpt lat="46.99395" lon="6.50987">
        <ele>963.7</ele>
        <time>2024-05-09T10:28:25Z</time>
      </trkpt>
      <trkpt lat="46.99372" lon="6.50955">
        <ele>964.9</ele>
        <time>2024-05-09T10:28:36Z</time>
      </trkpt>
      <trkpt lat="46.99358" lon="6.50918">
        <ele>965.4</ele>
        <time>2024-05-09T10:28:47Z</time>
      </trkpt>
      <trkpt lat="46.9934" lon="6.50889">
        <ele>966.6</ele>
        <time>2024-05-09T10:28:57Z</time>
      </trkpt>
      <trkpt lat="46.99321" lon="6.50855">
        <ele>968.1</ele>
        <time>2024-05-09T10:29:08Z</time>
      </trkpt>
      <trkpt lat="46.9931" lon="6.50823">
        <ele>969.5</ele>
        <time>2024-05-09T10:29:18Z</time>
      </trkpt>
      <trkpt lat="46.993" lon="6.50789">
        <ele>971.1</ele>
        <time>2024-05-09T10:29:28Z</time>
      </trkpt>
      <trkpt lat="46.99292" lon="6.50753">
        <ele>972.7</ele>
        <time>2024-05-09T10:29:38Z</time>
      </trkpt>
      <trkpt lat="46.99281" lon="6.50711">
        <ele>974.3</ele>
        <time>2024-05-09T10:29:49Z</time>
      </trkpt>
      <trkpt lat="46.99272" lon="6.50667">
        <ele>975.7</ele>
        <time>2024-05-09T10:30:00Z</time>
      </trkpt>
      <trkpt lat="46.99257" lon="6.50621">
        <ele>976.9</ele>
        <time>2024-05-09T10:30:11Z</time>
      </trkpt>
      <trkpt lat="46.99236" lon="6.50588">
        <ele>978.4</ele>
        <time>2024-05-09T10:30:22Z</time>
      </trkpt>
      <trkpt lat="46.99214" lon="6.50557">
        <ele>980.3</ele>
        <time>2024-05-09T10:30:33Z</time>
      </trkpt>
      <trkpt lat="46.99197" lon="6.50527">
        <ele>982</ele>
        <time>2024-05-09T10:30:43Z</time>
      </trkpt>
      <trkpt lat="46.9918" lon="6.50491">
        <ele>983.9</ele>
        <time>2024-05-09T10:30:54Z</time>
      </trkpt>
      <trkpt lat="46.99165" lon="6.50459">
        <ele>985.7</ele>
        <time>2024-05-09T10:31:04Z</time>
      </trkpt>
      <trkpt lat="46.99149" lon="6.50424">
        <ele>987.6</ele>
        <time>2024-05-09T10:31:15Z</time>
      </trkpt>
      <trkpt lat="46.99131" lon="6.5039">
        <ele>988.9</ele>
        <time>2024-05-09T10:31:25Z</time>
      </trkpt>
      <trkpt lat="46.99106" lon="6.50358">
        <ele>988.8</ele>
        <time>2024-05-09T10:31:35Z</time>
      </trkpt>
      <trkpt lat="46.99059" lon="6.50336">
        <ele>986.5</ele>
        <time>2024-05-09T10:31:46Z</time>
      </trkpt>
      <trkpt lat="46.99047" lon="6.50278">
        <ele>987.3</ele>
        <time>2024-05-09T10:31:57Z</time>
      </trkpt>
      <trkpt lat="46.99043" lon="6.50239">
        <ele>988.3</ele>
        <time>2024-05-09T10:32:08Z</time>
      </trkpt>
      <trkpt lat="46.99033" lon="6.50193">
        <ele>989.8</ele>
        <time>2024-05-09T10:32:19Z</time>
      </trkpt>
      <trkpt lat="46.99019" lon="6.5015">
        <ele>991.1</ele>
        <time>2024-05-09T10:32:29Z</time>
      </trkpt>
      <trkpt lat="46.99007" lon="6.5011">
        <ele>992.4</ele>
        <time>2024-05-09T10:32:39Z</time>
      </trkpt>
      <trkpt lat="46.98994" lon="6.50062">
        <ele>993.9</ele>
        <time>2024-05-09T10:32:50Z</time>
      </trkpt>
      <trkpt lat="46.98986" lon="6.50013">
        <ele>995.6</ele>
        <time>2024-05-09T10:33:01Z</time>
      </trkpt>
      <trkpt lat="46.98998" lon="6.49974">
        <ele>997.2</ele>
        <time>2024-05-09T10:33:11Z</time>
      </trkpt>
      <trkpt lat="46.99018" lon="6.4994">
        <ele>998.7</ele>
        <time>2024-05-09T10:33:21Z</time>
      </trkpt>
      <trkpt lat="46.9904" lon="6.49902">
        <ele>999.7</ele>
        <time>2024-05-09T10:33:32Z</time>
      </trkpt>
      <trkpt lat="46.99066" lon="6.49861">
        <ele>999.5</ele>
        <time>2024-05-09T10:33:42Z</time>
      </trkpt>
      <trkpt lat="46.99061" lon="6.49811">
        <ele>999.8</ele>
        <time>2024-05-09T10:33:53Z</time>
      </trkpt>
      <trkpt lat="46.99038" lon="6.49775">
        <ele>1001.7</ele>
        <time>2024-05-09T10:34:04Z</time>
      </trkpt>
      <trkpt lat="46.99009" lon="6.49743">
        <ele>1002.2</ele>
        <time>2024-05-09T10:34:15Z</time>
      </trkpt>
      <trkpt lat="46.98965" lon="6.49697">
        <ele>1000.6</ele>
        <time>2024-05-09T10:34:26Z</time>
      </trkpt>
      <trkpt lat="46.98922" lon="6.49632">
        <ele>998.9</ele>
        <time>2024-05-09T10:34:36Z</time>
      </trkpt>
      <trkpt lat="46.98881" lon="6.4957">
        <ele>998.6</ele>
        <time>2024-05-09T10:34:46Z</time>
      </trkpt>
      <trkpt lat="46.98826" lon="6.49507">
        <ele>995.1</ele>
        <time>2024-05-09T10:34:57Z</time>
      </trkpt>
      <trkpt lat="46.98758" lon="6.49433">
        <ele>988.7</ele>
        <time>2024-05-09T10:35:07Z</time>
      </trkpt>
      <trkpt lat="46.98657" lon="6.49342">
        <ele>978.4</ele>
        <time>2024-05-09T10:35:18Z</time>
      </trkpt>
      <trkpt lat="46.98563" lon="6.49229">
        <ele>970.9</ele>
        <time>2024-05-09T10:35:29Z</time>
      </trkpt>
      <trkpt lat="46.98488" lon="6.49118">
        <ele>967.9</ele>
        <time>2024-05-09T10:35:40Z</time>
      </trkpt>
      <trkpt lat="46.98455" lon="6.49078">
        <ele>969.1</ele>
        <time>2024-05-09T10:35:50Z</time>
      </trkpt>
      <trkpt lat="46.98431" lon="6.49071">
        <ele>970.6</ele>
        <time>2024-05-09T10:36:01Z</time>
      </trkpt>
      <trkpt lat="46.98411" lon="6.49069">
        <ele>972</ele>
        <time>2024-05-09T10:36:12Z</time>
      </trkpt>
      <trkpt lat="46.98395" lon="6.49068">
        <ele>972.7</ele>
        <time>2024-05-09T10:36:22Z</time>
      </trkpt>
      <trkpt lat="46.98382" lon="6.49066">
        <ele>972.9</ele>
        <time>2024-05-09T10:36:32Z</time>
      </trkpt>
      <trkpt lat="46.98363" lon="6.49059">
        <ele>973.1</ele>
        <time>2024-05-09T10:36:43Z</time>
      </trkpt>
      <trkpt lat="46.98343" lon="6.49047">
        <ele>973.3</ele>
        <time>2024-05-09T10:36:53Z</time>
      </trkpt>
      <trkpt lat="46.98323" lon="6.49031">
        <ele>974</ele>
        <time>2024-05-09T10:37:04Z</time>
      </trkpt>
      <trkpt lat="46.98297" lon="6.4902">
        <ele>975.2</ele>
        <time>2024-05-09T10:37:15Z</time>
      </trkpt>
      <trkpt lat="46.98272" lon="6.49012">
        <ele>976.7</ele>
        <time>2024-05-09T10:37:26Z</time>
      </trkpt>
      <trkpt lat="46.98253" lon="6.49005">
        <ele>977.8</ele>
        <time>2024-05-09T10:37:37Z</time>
      </trkpt>
      <trkpt lat="46.98233" lon="6.48997">
        <ele>978.7</ele>
        <time>2024-05-09T10:37:47Z</time>
      </trkpt>
      <trkpt lat="46.98211" lon="6.48991">
        <ele>980.1</ele>
        <time>2024-05-09T10:37:58Z</time>
      </trkpt>
      <trkpt lat="46.98195" lon="6.48997">
        <ele>981.3</ele>
        <time>2024-05-09T10:38:09Z</time>
      </trkpt>
      <trkpt lat="46.98174" lon="6.48985">
        <ele>982.1</ele>
        <time>2024-05-09T10:38:20Z</time>
      </trkpt>
      <trkpt lat="46.98162" lon="6.48968">
        <ele>982.2</ele>
        <time>2024-05-09T10:38:30Z</time>
      </trkpt>
      <trkpt lat="46.98148" lon="6.48949">
        <ele>982.4</ele>
        <time>2024-05-09T10:38:41Z</time>
      </trkpt>
      <trkpt lat="46.98135" lon="6.48926">
        <ele>982.8</ele>
        <time>2024-05-09T10:38:51Z</time>
      </trkpt>
      <trkpt lat="46.98121" lon="6.48899">
        <ele>984.1</ele>
        <time>2024-05-09T10:39:02Z</time>
      </trkpt>
      <trkpt lat="46.98107" lon="6.48877">
        <ele>985.5</ele>
        <time>2024-05-09T10:39:13Z</time>
      </trkpt>
      <trkpt lat="46.98086" lon="6.48853">
        <ele>986.9</ele>
        <time>2024-05-09T10:39:24Z</time>
      </trkpt>
      <trkpt lat="46.98067" lon="6.48833">
        <ele>988.3</ele>
        <time>2024-05-09T10:39:34Z</time>
      </trkpt>
      <trkpt lat="46.98046" lon="6.48806">
        <ele>989.9</ele>
        <time>2024-05-09T10:39:45Z</time>
      </trkpt>
      <trkpt lat="46.98032" lon="6.48778">
        <ele>991.2</ele>
        <time>2024-05-09T10:39:55Z</time>
      </trkpt>
      <trkpt lat="46.98015" lon="6.48742">
        <ele>991.3</ele>
        <time>2024-05-09T10:40:06Z</time>
      </trkpt>
      <trkpt lat="46.97997" lon="6.48706">
        <ele>990.8</ele>
        <time>2024-05-09T10:40:16Z</time>
      </trkpt>
      <trkpt lat="46.97979" lon="6.48675">
        <ele>990.3</ele>
        <time>2024-05-09T10:40:27Z</time>
      </trkpt>
      <trkpt lat="46.97956" lon="6.48643">
        <ele>989.5</ele>
        <time>2024-05-09T10:40:38Z</time>
      </trkpt>
      <trkpt lat="46.97933" lon="6.48605">
        <ele>988.5</ele>
        <time>2024-05-09T10:40:48Z</time>
      </trkpt>
      <trkpt lat="46.9791" lon="6.4857">
        <ele>988.9</ele>
        <time>2024-05-09T10:40:58Z</time>
      </trkpt>
      <trkpt lat="46.97892" lon="6.48548">
        <ele>990.1</ele>
        <time>2024-05-09T10:41:08Z</time>
      </trkpt>
      <trkpt lat="46.97874" lon="6.48523">
        <ele>991.7</ele>
        <time>2024-05-09T10:41:19Z</time>
      </trkpt>
      <trkpt lat="46.97862" lon="6.485">
        <ele>992.9</ele>
        <time>2024-05-09T10:41:30Z</time>
      </trkpt>
      <trkpt lat="46.97847" lon="6.48473">
        <ele>993.8</ele>
        <time>2024-05-09T10:41:40Z</time>
      </trkpt>
      <trkpt lat="46.97829" lon="6.48445">
        <ele>994.3</ele>
        <time>2024-05-09T10:41:51Z</time>
      </trkpt>
      <trkpt lat="46.97807" lon="6.48405">
        <ele>995.2</ele>
        <time>2024-05-09T10:42:01Z</time>
      </trkpt>
      <trkpt lat="46.97796" lon="6.4838">
        <ele>997</ele>
        <time>2024-05-09T10:42:12Z</time>
      </trkpt>
      <trkpt lat="46.9779" lon="6.48359">
        <ele>998.4</ele>
        <time>2024-05-09T10:42:22Z</time>
      </trkpt>
      <trkpt lat="46.97774" lon="6.48333">
        <ele>999.3</ele>
        <time>2024-05-09T10:42:33Z</time>
      </trkpt>
      <trkpt lat="46.97748" lon="6.48316">
        <ele>1000</ele>
        <time>2024-05-09T10:42:43Z</time>
      </trkpt>
      <trkpt lat="46.97719" lon="6.48297">
        <ele>1001.2</ele>
        <time>2024-05-09T10:42:54Z</time>
      </trkpt>
      <trkpt lat="46.97694" lon="6.48276">
        <ele>1002.8</ele>
        <time>2024-05-09T10:43:05Z</time>
      </trkpt>
      <trkpt lat="46.97674" lon="6.48259">
        <ele>1004.2</ele>
        <time>2024-05-09T10:43:15Z</time>
      </trkpt>
      <trkpt lat="46.97657" lon="6.48236">
        <ele>1005.6</ele>
        <time>2024-05-09T10:43:25Z</time>
      </trkpt>
      <trkpt lat="46.97641" lon="6.48204">
        <ele>1007.1</ele>
        <time>2024-05-09T10:43:36Z</time>
      </trkpt>
      <trkpt lat="46.97626" lon="6.48169">
        <ele>1008.6</ele>
        <time>2024-05-09T10:43:47Z</time>
      </trkpt>
      <trkpt lat="46.97611" lon="6.48139">
        <ele>1010.2</ele>
        <time>2024-05-09T10:43:57Z</time>
      </trkpt>
      <trkpt lat="46.97592" lon="6.48106">
        <ele>1011.9</ele>
        <time>2024-05-09T10:44:08Z</time>
      </trkpt>
      <trkpt lat="46.97575" lon="6.48074">
        <ele>1013.4</ele>
        <time>2024-05-09T10:44:18Z</time>
      </trkpt>
      <trkpt lat="46.97555" lon="6.48045">
        <ele>1014.9</ele>
        <time>2024-05-09T10:44:28Z</time>
      </trkpt>
      <trkpt lat="46.9753" lon="6.48012">
        <ele>1015.8</ele>
        <time>2024-05-09T10:44:39Z</time>
      </trkpt>
      <trkpt lat="46.97514" lon="6.47969">
        <ele>1016.7</ele>
        <time>2024-05-09T10:44:49Z</time>
      </trkpt>
      <trkpt lat="46.97502" lon="6.47927">
        <ele>1018.4</ele>
        <time>2024-05-09T10:45:00Z</time>
      </trkpt>
      <trkpt lat="46.97486" lon="6.47897">
        <ele>1020.3</ele>
        <time>2024-05-09T10:45:11Z</time>
      </trkpt>
      <trkpt lat="46.97472" lon="6.47871">
        <ele>1022.1</ele>
        <time>2024-05-09T10:45:21Z</time>
      </trkpt>
      <trkpt lat="46.97461" lon="6.47845">
        <ele>1023.7</ele>
        <time>2024-05-09T10:45:31Z</time>
      </trkpt>
      <trkpt lat="46.97445" lon="6.47814">
        <ele>1025.6</ele>
        <time>2024-05-09T10:45:41Z</time>
      </trkpt>
      <trkpt lat="46.97426" lon="6.47787">
        <ele>1027.7</ele>
        <time>2024-05-09T10:45:52Z</time>
      </trkpt>
      <trkpt lat="46.97406" lon="6.47769">
        <ele>1029.7</ele>
        <time>2024-05-09T10:46:02Z</time>
      </trkpt>
      <trkpt lat="46.97382" lon="6.47759">
        <ele>1031.7</ele>
        <time>2024-05-09T10:46:13Z</time>
      </trkpt>
      <trkpt lat="46.97361" lon="6.47755">
        <ele>1033.5</ele>
        <time>2024-05-09T10:46:23Z</time>
      </trkpt>
      <trkpt lat="46.97336" lon="6.47743">
        <ele>1035.6</ele>
        <time>2024-05-09T10:46:34Z</time>
      </trkpt>
      <trkpt lat="46.97318" lon="6.47723">
        <ele>1037.3</ele>
        <time>2024-05-09T10:46:45Z</time>
      </trkpt>
      <trkpt lat="46.97303" lon="6.4769">
        <ele>1039</ele>
        <time>2024-05-09T10:46:56Z</time>
      </trkpt>
      <trkpt lat="46.97283" lon="6.47663">
        <ele>1040.8</ele>
        <time>2024-05-09T10:47:07Z</time>
      </trkpt>
      <trkpt lat="46.97263" lon="6.47643">
        <ele>1042.4</ele>
        <time>2024-05-09T10:47:17Z</time>
      </trkpt>
      <trkpt lat="46.97245" lon="6.47624">
        <ele>1044</ele>
        <time>2024-05-09T10:47:28Z</time>
      </trkpt>
      <trkpt lat="46.97229" lon="6.47609">
        <ele>1045.3</ele>
        <time>2024-05-09T10:47:38Z</time>
      </trkpt>
      <trkpt lat="46.97202" lon="6.47589">
        <ele>1047.5</ele>
        <time>2024-05-09T10:47:49Z</time>
      </trkpt>
      <trkpt lat="46.97177" lon="6.47582">
        <ele>1048.9</ele>
        <time>2024-05-09T10:47:59Z</time>
      </trkpt>
      <trkpt lat="46.97156" lon="6.47575">
        <ele>1049.9</ele>
        <time>2024-05-09T10:48:09Z</time>
      </trkpt>
      <trkpt lat="46.97133" lon="6.47569">
        <ele>1051</ele>
        <time>2024-05-09T10:48:20Z</time>
      </trkpt>
      <trkpt lat="46.97112" lon="6.47557">
        <ele>1052.3</ele>
        <time>2024-05-09T10:48:30Z</time>
      </trkpt>
      <trkpt lat="46.97091" lon="6.47543">
        <ele>1053.5</ele>
        <time>2024-05-09T10:48:40Z</time>
      </trkpt>
      <trkpt lat="46.97071" lon="6.4752">
        <ele>1054.3</ele>
        <time>2024-05-09T10:48:51Z</time>
      </trkpt>
      <trkpt lat="46.97056" lon="6.47496">
        <ele>1054.9</ele>
        <time>2024-05-09T10:49:02Z</time>
      </trkpt>
      <trkpt lat="46.9704" lon="6.47465">
        <ele>1055.9</ele>
        <time>2024-05-09T10:49:13Z</time>
      </trkpt>
      <trkpt lat="46.97021" lon="6.47434">
        <ele>1057.1</ele>
        <time>2024-05-09T10:49:24Z</time>
      </trkpt>
      <trkpt lat="46.97004" lon="6.47407">
        <ele>1058.4</ele>
        <time>2024-05-09T10:49:34Z</time>
      </trkpt>
      <trkpt lat="46.96986" lon="6.47377">
        <ele>1059.9</ele>
        <time>2024-05-09T10:49:45Z</time>
      </trkpt>
      <trkpt lat="46.96969" lon="6.47347">
        <ele>1061.3</ele>
        <time>2024-05-09T10:49:56Z</time>
      </trkpt>
      <trkpt lat="46.96955" lon="6.4732">
        <ele>1062.5</ele>
        <time>2024-05-09T10:50:06Z</time>
      </trkpt>
      <trkpt lat="46.96942" lon="6.47291">
        <ele>1064.2</ele>
        <time>2024-05-09T10:50:17Z</time>
      </trkpt>
      <trkpt lat="46.9693" lon="6.47268">
        <ele>1065.8</ele>
        <time>2024-05-09T10:50:27Z</time>
      </trkpt>
      <trkpt lat="46.96917" lon="6.47244">
        <ele>1067.6</ele>
        <time>2024-05-09T10:50:38Z</time>
      </trkpt>
      <trkpt lat="46.96904" lon="6.47217">
        <ele>1069.3</ele>
        <time>2024-05-09T10:50:49Z</time>
      </trkpt>
      <trkpt lat="46.96892" lon="6.47192">
        <ele>1070.7</ele>
        <time>2024-05-09T10:50:59Z</time>
      </trkpt>
      <trkpt lat="46.96878" lon="6.47167">
        <ele>1071.5</ele>
        <time>2024-05-09T10:51:09Z</time>
      </trkpt>
      <trkpt lat="46.96856" lon="6.47138">
        <ele>1071.5</ele>
        <time>2024-05-09T10:51:20Z</time>
      </trkpt>
      <trkpt lat="46.9684" lon="6.47114">
        <ele>1071.3</ele>
        <time>2024-05-09T10:51:30Z</time>
      </trkpt>
      <trkpt lat="46.96825" lon="6.47089">
        <ele>1071</ele>
        <time>2024-05-09T10:51:41Z</time>
      </trkpt>
      <trkpt lat="46.96811" lon="6.47068">
        <ele>1070.6</ele>
        <time>2024-05-09T10:51:51Z</time>
      </trkpt>
      <trkpt lat="46.96792" lon="6.4704">
        <ele>1069.9</ele>
        <time>2024-05-09T10:52:02Z</time>
      </trkpt>
      <trkpt lat="46.96764" lon="6.46995">
        <ele>1068.3</ele>
        <time>2024-05-09T10:52:13Z</time>
      </trkpt>
      <trkpt lat="46.9673" lon="6.46932">
        <ele>1067.1</ele>
        <time>2024-05-09T10:52:24Z</time>
      </trkpt>
      <trkpt lat="46.96703" lon="6.4688">
        <ele>1066.7</ele>
        <time>2024-05-09T10:52:35Z</time>
      </trkpt>
      <trkpt lat="46.96679" lon="6.46839">
        <ele>1066.4</ele>
        <time>2024-05-09T10:52:45Z</time>
      </trkpt>
      <trkpt lat="46.96667" lon="6.46819">
        <ele>1066.3</ele>
        <time>2024-05-09T10:52:56Z</time>
      </trkpt>
      <trkpt lat="46.96667" lon="6.46819">
        <ele>1066.3</ele>
        <time>2024-05-09T10:53:06Z</time>
      </trkpt>
      <trkpt lat="46.96669" lon="6.46824">
        <ele>1066.2</ele>
        <time>2024-05-09T10:53:16Z</time>
      </trkpt>
      <trkpt lat="46.96669" lon="6.46821">
        <ele>1066.2</ele>
        <time>2024-05-09T10:53:27Z</time>
      </trkpt>
      <trkpt lat="46.96669" lon="6.4682">
        <ele>1066.2</ele>
        <time>2024-05-09T10:53:37Z</time>
      </trkpt>
      <trkpt lat="46.96669" lon="6.4682">
        <ele>1066.2</ele>
        <time>2024-05-09T10:53:47Z</time>
      </trkpt>
      <trkpt lat="46.96669" lon="6.4682">
        <ele>1066.2</ele>
        <time>2024-05-09T10:53:58Z</time>
      </trkpt>
      <trkpt lat="46.96669" lon="6.4682">
        <ele>1066.2</ele>
        <time>2024-05-09T10:54:08Z</time>
      </trkpt>
      <trkpt lat="46.96669" lon="6.4682">
        <ele>1066.2</ele>
        <time>2024-05-09T10:54:18Z</time>
      </trkpt>
      <trkpt lat="46.96669" lon="6.4682">
        <ele>1066.2</ele>
        <time>2024-05-09T10:54:28Z</time>
      </trkpt>
      <trkpt lat="46.96669" lon="6.4682">
        <ele>1066.2</ele>
        <time>2024-05-09T10:54:38Z</time>
      </trkpt>
      <trkpt lat="46.96669" lon="6.4682">
        <ele>1066.2</ele>
        <time>2024-05-09T10:54:49Z</time>
      </trkpt>
      <trkpt lat="46.96669" lon="6.4682">
        <ele>1066.2</ele>
        <time>2024-05-09T10:54:59Z</time>
      </trkpt>
      <trkpt lat="46.96669" lon="6.4682">
        <ele>1066.2</ele>
        <time>2024-05-09T10:55:10Z</time>
      </trkpt>
      <trkpt lat="46.96669" lon="6.4682">
        <ele>1066.2</ele>
        <time>2024-05-09T10:55:20Z</time>
      </trkpt>
      <trkpt lat="46.96669" lon="6.4682">
        <ele>1066.2</ele>
        <time>2024-05-09T10:55:31Z</time>
      </trkpt>
      <trkpt lat="46.96669" lon="6.4682">
        <ele>1066.2</ele>
        <time>2024-05-09T10:55:41Z</time>
      </trkpt>
      <trkpt lat="46.96669" lon="6.4682">
        <ele>1066.2</ele>
        <time>2024-05-09T10:55:51Z</time>
      </trkpt>
      <trkpt lat="46.96669" lon="6.4682">
        <ele>1066.2</ele>
        <time>2024-05-09T10:56:02Z</time>
      </trkpt>
      <trkpt lat="46.96669" lon="6.4682">
        <ele>1066.2</ele>
        <time>2024-05-09T10:56:12Z</time>
      </trkpt>
      <trkpt lat="46.96669" lon="6.4682">
        <ele>1066.2</ele>
        <time>2024-05-09T10:56:23Z</time>
      </trkpt>
      <trkpt lat="46.96669" lon="6.4682">
        <ele>1066.2</ele>
        <time>2024-05-09T10:56:34Z</time>
      </trkpt>
      <trkpt lat="46.96669" lon="6.4682">
        <ele>1066.2</ele>
        <time>2024-05-09T10:56:45Z</time>
      </trkpt>
      <trkpt lat="46.96669" lon="6.4682">
        <ele>1066.2</ele>
        <time>2024-05-09T10:56:55Z</time>
      </trkpt>
      <trkpt lat="46.96669" lon="6.4682">
        <ele>1066.2</ele>
        <time>2024-05-09T10:57:06Z</time>
      </trkpt>
      <trkpt lat="46.96669" lon="6.4682">
        <ele>1066.2</ele>
        <time>2024-05-09T10:57:17Z</time>
      </trkpt>
      <trkpt lat="46.96669" lon="6.4682">
        <ele>1066.2</ele>
        <time>2024-05-09T10:57:28Z</time>
      </trkpt>
      <trkpt lat="46.96668" lon="6.4682">
        <ele>1066.1</ele>
        <time>2024-05-09T10:57:38Z</time>
      </trkpt>
      <trkpt lat="46.96668" lon="6.4682">
        <ele>1066.1</ele>
        <time>2024-05-09T10:57:48Z</time>
      </trkpt>
      <trkpt lat="46.96668" lon="6.4682">
        <ele>1066.1</ele>
        <time>2024-05-09T10:57:59Z</time>
      </trkpt>
      <trkpt lat="46.96668" lon="6.4682">
        <ele>1066.1</ele>
        <time>2024-05-09T10:58:09Z</time>
      </trkpt>
      <trkpt lat="46.96668" lon="6.4682">
        <ele>1066.1</ele>
        <time>2024-05-09T10:58:20Z</time>
      </trkpt>
      <trkpt lat="46.96668" lon="6.4682">
        <ele>1066.1</ele>
        <time>2024-05-09T10:58:30Z</time>
      </trkpt>
      <trkpt lat="46.96656" lon="6.46804">
        <ele>1065.9</ele>
        <time>2024-05-09T10:58:40Z</time>
      </trkpt>
      <trkpt lat="46.96637" lon="6.46774">
        <ele>1065.8</ele>
        <time>2024-05-09T10:58:51Z</time>
      </trkpt>
      <trkpt lat="46.96619" lon="6.46745">
        <ele>1065.8</ele>
        <time>2024-05-09T10:59:02Z</time>
      </trkpt>
      <trkpt lat="46.96604" lon="6.46717">
        <ele>1065.8</ele>
        <time>2024-05-09T10:59:13Z</time>
      </trkpt>
      <trkpt lat="46.96592" lon="6.46684">
        <ele>1065.6</ele>
        <time>2024-05-09T10:59:24Z</time>
      </trkpt>
      <trkpt lat="46.96577" lon="6.46672">
        <ele>1065.6</ele>
        <time>2024-05-09T10:59:34Z</time>
      </trkpt>
      <trkpt lat="46.96565" lon="6.46661">
        <ele>1065.7</ele>
        <time>2024-05-09T10:59:45Z</time>
      </trkpt>
      <trkpt lat="46.96564" lon="6.46658">
        <ele>1065.7</ele>
        <time>2024-05-09T10:59:55Z</time>
      </trkpt>
      <trkpt lat="46.96563" lon="6.46654">
        <ele>1065.7</ele>
        <time>2024-05-09T11:00:06Z</time>
      </trkpt>
      <trkpt lat="46.96563" lon="6.46654">
        <ele>1065.7</ele>
        <time>2024-05-09T11:00:17Z</time>
      </trkpt>
      <trkpt lat="46.96562" lon="6.46634">
        <ele>1065.6</ele>
        <time>2024-05-09T11:00:27Z</time>
      </trkpt>
      <trkpt lat="46.96549" lon="6.46616">
        <ele>1065.6</ele>
        <time>2024-05-09T11:00:38Z</time>
      </trkpt>
      <trkpt lat="46.96544" lon="6.46609">
        <ele>1065.6</ele>
        <time>2024-05-09T11:00:48Z</time>
      </trkpt>
      <trkpt lat="46.96538" lon="6.46601">
        <ele>1065.6</ele>
        <time>2024-05-09T11:00:59Z</time>
      </trkpt>
      <trkpt lat="46.96522" lon="6.46575">
        <ele>1065.6</ele>
        <time>2024-05-09T11:01:09Z</time>
      </trkpt>
      <trkpt lat="46.96512" lon="6.46541">
        <ele>1065.7</ele>
        <time>2024-05-09T11:01:20Z</time>
      </trkpt>
      <trkpt lat="46.96503" lon="6.46511">
        <ele>1066.1</ele>
        <time>2024-05-09T11:01:30Z</time>
      </trkpt>
      <trkpt lat="46.96489" lon="6.46484">
        <ele>1066.8</ele>
        <time>2024-05-09T11:01:41Z</time>
      </trkpt>
      <trkpt lat="46.96466" lon="6.46457">
        <ele>1067.3</ele>
        <time>2024-05-09T11:01:52Z</time>
      </trkpt>
      <trkpt lat="46.96446" lon="6.46441">
        <ele>1068.4</ele>
        <time>2024-05-09T11:02:02Z</time>
      </trkpt>
      <trkpt lat="46.96434" lon="6.46423">
        <ele>1069.6</ele>
        <time>2024-05-09T11:02:12Z</time>
      </trkpt>
      <trkpt lat="46.96419" lon="6.46399">
        <ele>1071.1</ele>
        <time>2024-05-09T11:02:23Z</time>
      </trkpt>
      <trkpt lat="46.96406" lon="6.46377">
        <ele>1072.1</ele>
        <time>2024-05-09T11:02:34Z</time>
      </trkpt>
      <trkpt lat="46.96394" lon="6.46358">
        <ele>1072.6</ele>
        <time>2024-05-09T11:02:45Z</time>
      </trkpt>
      <trkpt lat="46.9638" lon="6.46344">
        <ele>1073</ele>
        <time>2024-05-09T11:02:55Z</time>
      </trkpt>
      <trkpt lat="46.96371" lon="6.46325">
        <ele>1073.4</ele>
        <time>2024-05-09T11:03:05Z</time>
      </trkpt>
      <trkpt lat="46.9636" lon="6.46294">
        <ele>1074.6</ele>
        <time>2024-05-09T11:03:16Z</time>
      </trkpt>
      <trkpt lat="46.96346" lon="6.46273">
        <ele>1075.6</ele>
        <time>2024-05-09T11:03:26Z</time>
      </trkpt>
      <trkpt lat="46.96335" lon="6.46252">
        <ele>1076.5</ele>
        <time>2024-05-09T11:03:36Z</time>
      </trkpt>
      <trkpt lat="46.9632" lon="6.46232">
        <ele>1077.8</ele>
        <time>2024-05-09T11:03:47Z</time>
      </trkpt>
      <trkpt lat="46.9631" lon="6.46214">
        <ele>1079</ele>
        <time>2024-05-09T11:03:57Z</time>
      </trkpt>
      <trkpt lat="46.96304" lon="6.46197">
        <ele>1079.8</ele>
        <time>2024-05-09T11:04:07Z</time>
      </trkpt>
      <trkpt lat="46.96304" lon="6.46194">
        <ele>1079.9</ele>
        <time>2024-05-09T11:04:17Z</time>
      </trkpt>
      <trkpt lat="46.96298" lon="6.46184">
        <ele>1080</ele>
        <time>2024-05-09T11:04:28Z</time>
      </trkpt>
      <trkpt lat="46.96281" lon="6.46162">
        <ele>1079.9</ele>
        <time>2024-05-09T11:04:39Z</time>
      </trkpt>
      <trkpt lat="46.96264" lon="6.46139">
        <ele>1080</ele>
        <time>2024-05-09T11:04:50Z</time>
      </trkpt>
      <trkpt lat="46.96246" lon="6.46119">
        <ele>1080.4</ele>
        <time>2024-05-09T11:05:01Z</time>
      </trkpt>
      <trkpt lat="46.96244" lon="6.4611">
        <ele>1080.6</ele>
        <time>2024-05-09T11:05:11Z</time>
      </trkpt>
      <trkpt lat="46.96242" lon="6.46102">
        <ele>1080.9</ele>
        <time>2024-05-09T11:05:22Z</time>
      </trkpt>
      <trkpt lat="46.96235" lon="6.46086">
        <ele>1081.3</ele>
        <time>2024-05-09T11:05:33Z</time>
      </trkpt>
      <trkpt lat="46.96229" lon="6.46073">
        <ele>1081.5</ele>
        <time>2024-05-09T11:05:44Z</time>
      </trkpt>
      <trkpt lat="46.96228" lon="6.46065">
        <ele>1081.6</ele>
        <time>2024-05-09T11:05:55Z</time>
      </trkpt>
      <trkpt lat="46.96227" lon="6.46061">
        <ele>1081.7</ele>
        <time>2024-05-09T11:06:05Z</time>
      </trkpt>
      <trkpt lat="46.96223" lon="6.46042">
        <ele>1081.6</ele>
        <time>2024-05-09T11:06:16Z</time>
      </trkpt>
      <trkpt lat="46.96208" lon="6.46015">
        <ele>1081.1</ele>
        <time>2024-05-09T11:06:27Z</time>
      </trkpt>
      <trkpt lat="46.96193" lon="6.45991">
        <ele>1081.2</ele>
        <time>2024-05-09T11:06:37Z</time>
      </trkpt>
      <trkpt lat="46.96181" lon="6.45975">
        <ele>1082.2</ele>
        <time>2024-05-09T11:06:47Z</time>
      </trkpt>
      <trkpt lat="46.96166" lon="6.45963">
        <ele>1083.5</ele>
        <time>2024-05-09T11:06:58Z</time>
      </trkpt>
      <trkpt lat="46.96147" lon="6.45953">
        <ele>1084.6</ele>
        <time>2024-05-09T11:07:09Z</time>
      </trkpt>
      <trkpt lat="46.96129" lon="6.45942">
        <ele>1085.2</ele>
        <time>2024-05-09T11:07:20Z</time>
      </trkpt>
      <trkpt lat="46.96105" lon="6.45923">
        <ele>1084.9</ele>
        <time>2024-05-09T11:07:31Z</time>
      </trkpt>
      <trkpt lat="46.96099" lon="6.45917">
        <ele>1084.6</ele>
        <time>2024-05-09T11:07:41Z</time>
      </trkpt>
      <trkpt lat="46.96099" lon="6.45911">
        <ele>1084.5</ele>
        <time>2024-05-09T11:07:52Z</time>
      </trkpt>
      <trkpt lat="46.96099" lon="6.45908">
        <ele>1084.4</ele>
        <time>2024-05-09T11:08:03Z</time>
      </trkpt>
      <trkpt lat="46.9609" lon="6.45877">
        <ele>1083.5</ele>
        <time>2024-05-09T11:08:14Z</time>
      </trkpt>
      <trkpt lat="46.96076" lon="6.45837">
        <ele>1082.7</ele>
        <time>2024-05-09T11:08:25Z</time>
      </trkpt>
      <trkpt lat="46.96061" lon="6.45795">
        <ele>1080.6</ele>
        <time>2024-05-09T11:08:35Z</time>
      </trkpt>
      <trkpt lat="46.96037" lon="6.45751">
        <ele>1077.6</ele>
        <time>2024-05-09T11:08:46Z</time>
      </trkpt>
      <trkpt lat="46.96011" lon="6.45738">
        <ele>1077</ele>
        <time>2024-05-09T11:08:56Z</time>
      </trkpt>
      <trkpt lat="46.95986" lon="6.45721">
        <ele>1076.6</ele>
        <time>2024-05-09T11:09:07Z</time>
      </trkpt>
      <trkpt lat="46.95985" lon="6.4572">
        <ele>1076.5</ele>
        <time>2024-05-09T11:09:17Z</time>
      </trkpt>
      <trkpt lat="46.95984" lon="6.4572">
        <ele>1076.5</ele>
        <time>2024-05-09T11:09:28Z</time>
      </trkpt>
      <trkpt lat="46.95959" lon="6.45735">
        <ele>1075.3</ele>
        <time>2024-05-09T11:09:39Z</time>
      </trkpt>
      <trkpt lat="46.95929" lon="6.45704">
        <ele>1072</ele>
        <time>2024-05-09T11:09:50Z</time>
      </trkpt>
      <trkpt lat="46.95899" lon="6.45653">
        <ele>1067.3</ele>
        <time>2024-05-09T11:10:00Z</time>
      </trkpt>
      <trkpt lat="46.95864" lon="6.45588">
        <ele>1061.9</ele>
        <time>2024-05-09T11:10:11Z</time>
      </trkpt>
      <trkpt lat="46.95832" lon="6.45499">
        <ele>1055.4</ele>
        <time>2024-05-09T11:10:21Z</time>
      </trkpt>
      <trkpt lat="46.95819" lon="6.4535">
        <ele>1048.2</ele>
        <time>2024-05-09T11:10:32Z</time>
      </trkpt>
      <trkpt lat="46.9584" lon="6.45263">
        <ele>1048.9</ele>
        <time>2024-05-09T11:10:42Z</time>
      </trkpt>
      <trkpt lat="46.95856" lon="6.45207">
        <ele>1050.8</ele>
        <time>2024-05-09T11:10:53Z</time>
      </trkpt>
      <trkpt lat="46.95865" lon="6.45172">
        <ele>1052.2</ele>
        <time>2024-05-09T11:11:03Z</time>
      </trkpt>
      <trkpt lat="46.9587" lon="6.45152">
        <ele>1052.6</ele>
        <time>2024-05-09T11:11:14Z</time>
      </trkpt>
      <trkpt lat="46.9587" lon="6.45152">
        <ele>1052.6</ele>
        <time>2024-05-09T11:11:25Z</time>
      </trkpt>
      <trkpt lat="46.9587" lon="6.45152">
        <ele>1052.6</ele>
        <time>2024-05-09T11:11:36Z</time>
      </trkpt>
      <trkpt lat="46.9587" lon="6.45152">
        <ele>1052.6</ele>
        <time>2024-05-09T11:11:47Z</time>
      </trkpt>
      <trkpt lat="46.9587" lon="6.45152">
        <ele>1052.6</ele>
        <time>2024-05-09T11:11:57Z</time>
      </trkpt>
      <trkpt lat="46.9587" lon="6.45152">
        <ele>1052.6</ele>
        <time>2024-05-09T11:12:07Z</time>
      </trkpt>
      <trkpt lat="46.9587" lon="6.45152">
        <ele>1052.6</ele>
        <time>2024-05-09T11:12:18Z</time>
      </trkpt>
      <trkpt lat="46.9587" lon="6.45149">
        <ele>1052.6</ele>
        <time>2024-05-09T11:12:29Z</time>
      </trkpt>
      <trkpt lat="46.95867" lon="6.45142">
        <ele>1052.5</ele>
        <time>2024-05-09T11:12:40Z</time>
      </trkpt>
      <trkpt lat="46.95867" lon="6.45142">
        <ele>1052.5</ele>
        <time>2024-05-09T11:12:50Z</time>
      </trkpt>
      <trkpt lat="46.95867" lon="6.45141">
        <ele>1052.5</ele>
        <time>2024-05-09T11:13:01Z</time>
      </trkpt>
      <trkpt lat="46.95867" lon="6.45141">
        <ele>1052.5</ele>
        <time>2024-05-09T11:13:11Z</time>
      </trkpt>
      <trkpt lat="46.95867" lon="6.45142">
        <ele>1052.5</ele>
        <time>2024-05-09T11:13:21Z</time>
      </trkpt>
      <trkpt lat="46.95867" lon="6.45142">
        <ele>1052.5</ele>
        <time>2024-05-09T11:13:32Z</time>
      </trkpt>
      <trkpt lat="46.95867" lon="6.45142">
        <ele>1052.5</ele>
        <time>2024-05-09T11:13:43Z</time>
      </trkpt>
      <trkpt lat="46.95867" lon="6.45141">
        <ele>1052.5</ele>
        <time>2024-05-09T11:13:53Z</time>
      </trkpt>
      <trkpt lat="46.95867" lon="6.45141">
        <ele>1052.5</ele>
        <time>2024-05-09T11:14:03Z</time>
      </trkpt>
      <trkpt lat="46.95867" lon="6.45141">
        <ele>1052.5</ele>
        <time>2024-05-09T11:14:14Z</time>
      </trkpt>
      <trkpt lat="46.95867" lon="6.45141">
        <ele>1052.5</ele>
        <time>2024-05-09T11:14:24Z</time>
      </trkpt>
      <trkpt lat="46.95867" lon="6.45141">
        <ele>1052.5</ele>
        <time>2024-05-09T11:14:34Z</time>
      </trkpt>
      <trkpt lat="46.95867" lon="6.45141">
        <ele>1052.5</ele>
        <time>2024-05-09T11:14:45Z</time>
      </trkpt>
      <trkpt lat="46.95867" lon="6.45141">
        <ele>1052.5</ele>
        <time>2024-05-09T11:14:55Z</time>
      </trkpt>
      <trkpt lat="46.95867" lon="6.45141">
        <ele>1052.5</ele>
        <time>2024-05-09T11:15:06Z</time>
      </trkpt>
      <trkpt lat="46.95867" lon="6.45141">
        <ele>1052.5</ele>
        <time>2024-05-09T11:15:16Z</time>
      </trkpt>
      <trkpt lat="46.95867" lon="6.45141">
        <ele>1052.5</ele>
        <time>2024-05-09T11:15:27Z</time>
      </trkpt>
      <trkpt lat="46.95867" lon="6.45141">
        <ele>1052.5</ele>
        <time>2024-05-09T11:15:37Z</time>
      </trkpt>
      <trkpt lat="46.95867" lon="6.45141">
        <ele>1052.5</ele>
        <time>2024-05-09T11:15:48Z</time>
      </trkpt>
      <trkpt lat="46.95867" lon="6.45141">
        <ele>1052.5</ele>
        <time>2024-05-09T11:15:59Z</time>
      </trkpt>
      <trkpt lat="46.95867" lon="6.45141">
        <ele>1052.5</ele>
        <time>2024-05-09T11:16:10Z</time>
      </trkpt>
      <trkpt lat="46.95867" lon="6.45141">
        <ele>1052.5</ele>
        <time>2024-05-09T11:16:20Z</time>
      </trkpt>
      <trkpt lat="46.95867" lon="6.45141">
        <ele>1052.5</ele>
        <time>2024-05-09T11:16:31Z</time>
      </trkpt>
      <trkpt lat="46.95867" lon="6.45141">
        <ele>1052.5</ele>
        <time>2024-05-09T11:16:42Z</time>
      </trkpt>
      <trkpt lat="46.9587" lon="6.45135">
        <ele>1052.4</ele>
        <time>2024-05-09T11:16:52Z</time>
      </trkpt>
      <trkpt lat="46.9588" lon="6.45086">
        <ele>1050.5</ele>
        <time>2024-05-09T11:17:02Z</time>
      </trkpt>
      <trkpt lat="46.95865" lon="6.45037">
        <ele>1047.9</ele>
        <time>2024-05-09T11:17:12Z</time>
      </trkpt>
      <trkpt lat="46.958" lon="6.45006">
        <ele>1043.4</ele>
        <time>2024-05-09T11:17:23Z</time>
      </trkpt>
      <trkpt lat="46.95766" lon="6.44979">
        <ele>1043.6</ele>
        <time>2024-05-09T11:17:33Z</time>
      </trkpt>
      <trkpt lat="46.95722" lon="6.44937">
        <ele>1041.7</ele>
        <time>2024-05-09T11:17:43Z</time>
      </trkpt>
      <trkpt lat="46.95655" lon="6.44899">
        <ele>1037.2</ele>
        <time>2024-05-09T11:17:53Z</time>
      </trkpt>
      <trkpt lat="46.9557" lon="6.44875">
        <ele>1035.5</ele>
        <time>2024-05-09T11:18:04Z</time>
      </trkpt>
      <trkpt lat="46.95528" lon="6.44915">
        <ele>1037.4</ele>
        <time>2024-05-09T11:18:14Z</time>
      </trkpt>
      <trkpt lat="46.95497" lon="6.44951">
        <ele>1039.3</ele>
        <time>2024-05-09T11:18:25Z</time>
      </trkpt>
      <trkpt lat="46.9546" lon="6.44956">
        <ele>1041.1</ele>
        <time>2024-05-09T11:18:35Z</time>
      </trkpt>
      <trkpt lat="46.95423" lon="6.44944">
        <ele>1042.8</ele>
        <time>2024-05-09T11:18:46Z</time>
      </trkpt>
      <trkpt lat="46.95394" lon="6.44942">
        <ele>1044.3</ele>
        <time>2024-05-09T11:18:56Z</time>
      </trkpt>
      <trkpt lat="46.95362" lon="6.44946">
        <ele>1046.3</ele>
        <time>2024-05-09T11:19:07Z</time>
      </trkpt>
      <trkpt lat="46.95329" lon="6.44949">
        <ele>1048.4</ele>
        <time>2024-05-09T11:19:18Z</time>
      </trkpt>
      <trkpt lat="46.953" lon="6.44958">
        <ele>1050.1</ele>
        <time>2024-05-09T11:19:28Z</time>
      </trkpt>
      <trkpt lat="46.95268" lon="6.44963">
        <ele>1050.8</ele>
        <time>2024-05-09T11:19:39Z</time>
      </trkpt>
      <trkpt lat="46.95223" lon="6.44941">
        <ele>1047.6</ele>
        <time>2024-05-09T11:19:50Z</time>
      </trkpt>
      <trkpt lat="46.95152" lon="6.44874">
        <ele>1038.1</ele>
        <time>2024-05-09T11:20:01Z</time>
      </trkpt>
      <trkpt lat="46.95118" lon="6.44833">
        <ele>1033.9</ele>
        <time>2024-05-09T11:20:12Z</time>
      </trkpt>
      <trkpt lat="46.95094" lon="6.44796">
        <ele>1032.9</ele>
        <time>2024-05-09T11:20:23Z</time>
      </trkpt>
      <trkpt lat="46.95082" lon="6.4477">
        <ele>1032.1</ele>
        <time>2024-05-09T11:20:33Z</time>
      </trkpt>
      <trkpt lat="46.95082" lon="6.4477">
        <ele>1032.1</ele>
        <time>2024-05-09T11:20:43Z</time>
      </trkpt>
      <trkpt lat="46.95082" lon="6.4477">
        <ele>1032.1</ele>
        <time>2024-05-09T11:20:53Z</time>
      </trkpt>
      <trkpt lat="46.9509" lon="6.44792">
        <ele>1032.7</ele>
        <time>2024-05-09T11:21:04Z</time>
      </trkpt>
      <trkpt lat="46.95104" lon="6.44816">
        <ele>1032.8</ele>
        <time>2024-05-09T11:21:14Z</time>
      </trkpt>
      <trkpt lat="46.95104" lon="6.4479">
        <ele>1033</ele>
        <time>2024-05-09T11:21:25Z</time>
      </trkpt>
      <trkpt lat="46.95111" lon="6.4483">
        <ele>1033.8</ele>
        <time>2024-05-09T11:21:36Z</time>
      </trkpt>
      <trkpt lat="46.95135" lon="6.44857">
        <ele>1036.2</ele>
        <time>2024-05-09T11:21:47Z</time>
      </trkpt>
      <trkpt lat="46.95158" lon="6.44883">
        <ele>1038.9</ele>
        <time>2024-05-09T11:21:58Z</time>
      </trkpt>
      <trkpt lat="46.95183" lon="6.44907">
        <ele>1042</ele>
        <time>2024-05-09T11:22:09Z</time>
      </trkpt>
      <trkpt lat="46.95202" lon="6.44926">
        <ele>1044.8</ele>
        <time>2024-05-09T11:22:19Z</time>
      </trkpt>
      <trkpt lat="46.95223" lon="6.44945">
        <ele>1047.7</ele>
        <time>2024-05-09T11:22:30Z</time>
      </trkpt>
      <trkpt lat="46.95239" lon="6.4495">
        <ele>1049.4</ele>
        <time>2024-05-09T11:22:41Z</time>
      </trkpt>
      <trkpt lat="46.95239" lon="6.44945">
        <ele>1049.5</ele>
        <time>2024-05-09T11:22:52Z</time>
      </trkpt>
      <trkpt lat="46.95236" lon="6.44939">
        <ele>1049.1</ele>
        <time>2024-05-09T11:23:02Z</time>
      </trkpt>
      <trkpt lat="46.95229" lon="6.44922">
        <ele>1048</ele>
        <time>2024-05-09T11:23:12Z</time>
      </trkpt>
      <trkpt lat="46.95207" lon="6.44887">
        <ele>1046.4</ele>
        <time>2024-05-09T11:23:23Z</time>
      </trkpt>
      <trkpt lat="46.95196" lon="6.44855">
        <ele>1045.6</ele>
        <time>2024-05-09T11:23:34Z</time>
      </trkpt>
      <trkpt lat="46.95173" lon="6.44823">
        <ele>1044.9</ele>
        <time>2024-05-09T11:23:45Z</time>
      </trkpt>
      <trkpt lat="46.95154" lon="6.44789">
        <ele>1044.6</ele>
        <time>2024-05-09T11:23:56Z</time>
      </trkpt>
      <trkpt lat="46.95138" lon="6.44757">
        <ele>1044.3</ele>
        <time>2024-05-09T11:24:06Z</time>
      </trkpt>
      <trkpt lat="46.95123" lon="6.44723">
        <ele>1044.5</ele>
        <time>2024-05-09T11:24:17Z</time>
      </trkpt>
      <trkpt lat="46.95122" lon="6.44718">
        <ele>1044.4</ele>
        <time>2024-05-09T11:24:27Z</time>
      </trkpt>
      <trkpt lat="46.95113" lon="6.44705">
        <ele>1044.1</ele>
        <time>2024-05-09T11:24:38Z</time>
      </trkpt>
      <trkpt lat="46.95101" lon="6.44663">
        <ele>1044.1</ele>
        <time>2024-05-09T11:24:48Z</time>
      </trkpt>
      <trkpt lat="46.95116" lon="6.44628">
        <ele>1044</ele>
        <time>2024-05-09T11:24:58Z</time>
      </trkpt>
      <trkpt lat="46.95105" lon="6.44575">
        <ele>1044.7</ele>
        <time>2024-05-09T11:25:08Z</time>
      </trkpt>
      <trkpt lat="46.95089" lon="6.44539">
        <ele>1045.4</ele>
        <time>2024-05-09T11:25:18Z</time>
      </trkpt>
      <trkpt lat="46.95059" lon="6.44474">
        <ele>1042.8</ele>
        <time>2024-05-09T11:25:29Z</time>
      </trkpt>
      <trkpt lat="46.95018" lon="6.44392">
        <ele>1039.3</ele>
        <time>2024-05-09T11:25:39Z</time>
      </trkpt>
      <trkpt lat="46.94996" lon="6.44347">
        <ele>1039.6</ele>
        <time>2024-05-09T11:25:49Z</time>
      </trkpt>
      <trkpt lat="46.95" lon="6.44313">
        <ele>1039.8</ele>
        <time>2024-05-09T11:26:00Z</time>
      </trkpt>
      <trkpt lat="46.95011" lon="6.44274">
        <ele>1039.2</ele>
        <time>2024-05-09T11:26:10Z</time>
      </trkpt>
      <trkpt lat="46.95038" lon="6.44221">
        <ele>1038</ele>
        <time>2024-05-09T11:26:21Z</time>
      </trkpt>
      <trkpt lat="46.95066" lon="6.44175">
        <ele>1036.8</ele>
        <time>2024-05-09T11:26:31Z</time>
      </trkpt>
      <trkpt lat="46.95094" lon="6.4416">
        <ele>1036.4</ele>
        <time>2024-05-09T11:26:41Z</time>
      </trkpt>
      <trkpt lat="46.951" lon="6.44109">
        <ele>1034.7</ele>
        <time>2024-05-09T11:26:52Z</time>
      </trkpt>
      <trkpt lat="46.95114" lon="6.44053">
        <ele>1033.6</ele>
        <time>2024-05-09T11:27:03Z</time>
      </trkpt>
      <trkpt lat="46.95125" lon="6.44006">
        <ele>1034.5</ele>
        <time>2024-05-09T11:27:13Z</time>
      </trkpt>
      <trkpt lat="46.95119" lon="6.43968">
        <ele>1035.7</ele>
        <time>2024-05-09T11:27:24Z</time>
      </trkpt>
      <trkpt lat="46.95101" lon="6.43927">
        <ele>1035.5</ele>
        <time>2024-05-09T11:27:35Z</time>
      </trkpt>
      <trkpt lat="46.95087" lon="6.43875">
        <ele>1034.4</ele>
        <time>2024-05-09T11:27:46Z</time>
      </trkpt>
      <trkpt lat="46.95074" lon="6.43826">
        <ele>1033.6</ele>
        <time>2024-05-09T11:27:56Z</time>
      </trkpt>
      <trkpt lat="46.95067" lon="6.43778">
        <ele>1033.7</ele>
        <time>2024-05-09T11:28:07Z</time>
      </trkpt>
      <trkpt lat="46.95064" lon="6.43739">
        <ele>1035.5</ele>
        <time>2024-05-09T11:28:18Z</time>
      </trkpt>
      <trkpt lat="46.95064" lon="6.43737">
        <ele>1035.6</ele>
        <time>2024-05-09T11:28:28Z</time>
      </trkpt>
      <trkpt lat="46.95063" lon="6.43734">
        <ele>1035.8</ele>
        <time>2024-05-09T11:28:39Z</time>
      </trkpt>
      <trkpt lat="46.95063" lon="6.43732">
        <ele>1035.9</ele>
        <time>2024-05-09T11:28:49Z</time>
      </trkpt>
      <trkpt lat="46.9506" lon="6.43709">
        <ele>1037.4</ele>
        <time>2024-05-09T11:28:59Z</time>
      </trkpt>
      <trkpt lat="46.95064" lon="6.43686">
        <ele>1039.3</ele>
        <time>2024-05-09T11:29:10Z</time>
      </trkpt>
      <trkpt lat="46.95066" lon="6.43667">
        <ele>1040.7</ele>
        <time>2024-05-09T11:29:20Z</time>
      </trkpt>
      <trkpt lat="46.95068" lon="6.43643">
        <ele>1042.3</ele>
        <time>2024-05-09T11:29:31Z</time>
      </trkpt>
      <trkpt lat="46.95072" lon="6.43618">
        <ele>1043.9</ele>
        <time>2024-05-09T11:29:42Z</time>
      </trkpt>
      <trkpt lat="46.95073" lon="6.43596">
        <ele>1045.5</ele>
        <time>2024-05-09T11:29:52Z</time>
      </trkpt>
      <trkpt lat="46.95077" lon="6.43575">
        <ele>1047</ele>
        <time>2024-05-09T11:30:03Z</time>
      </trkpt>
      <trkpt lat="46.95079" lon="6.4355">
        <ele>1048</ele>
        <time>2024-05-09T11:30:13Z</time>
      </trkpt>
      <trkpt lat="46.95081" lon="6.43518">
        <ele>1049.1</ele>
        <time>2024-05-09T11:30:23Z</time>
      </trkpt>
      <trkpt lat="46.95084" lon="6.4349">
        <ele>1050.6</ele>
        <time>2024-05-09T11:30:34Z</time>
      </trkpt>
      <trkpt lat="46.95082" lon="6.43463">
        <ele>1052.4</ele>
        <time>2024-05-09T11:30:45Z</time>
      </trkpt>
      <trkpt lat="46.95081" lon="6.43434">
        <ele>1053.5</ele>
        <time>2024-05-09T11:30:56Z</time>
      </trkpt>
      <trkpt lat="46.95081" lon="6.43397">
        <ele>1053.5</ele>
        <time>2024-05-09T11:31:06Z</time>
      </trkpt>
      <trkpt lat="46.95077" lon="6.43365">
        <ele>1053.7</ele>
        <time>2024-05-09T11:31:16Z</time>
      </trkpt>
      <trkpt lat="46.95068" lon="6.43334">
        <ele>1055</ele>
        <time>2024-05-09T11:31:27Z</time>
      </trkpt>
      <trkpt lat="46.95057" lon="6.43313">
        <ele>1056.8</ele>
        <time>2024-05-09T11:31:37Z</time>
      </trkpt>
      <trkpt lat="46.95045" lon="6.4329">
        <ele>1058.4</ele>
        <time>2024-05-09T11:31:48Z</time>
      </trkpt>
      <trkpt lat="46.95041" lon="6.43284">
        <ele>1058.8</ele>
        <time>2024-05-09T11:31:59Z</time>
      </trkpt>
      <trkpt lat="46.95041" lon="6.43283">
        <ele>1058.8</ele>
        <time>2024-05-09T11:32:09Z</time>
      </trkpt>
      <trkpt lat="46.95036" lon="6.43274">
        <ele>1059.2</ele>
        <time>2024-05-09T11:32:19Z</time>
      </trkpt>
      <trkpt lat="46.95021" lon="6.4325">
        <ele>1060.3</ele>
        <time>2024-05-09T11:32:30Z</time>
      </trkpt>
      <trkpt lat="46.95008" lon="6.43228">
        <ele>1061.9</ele>
        <time>2024-05-09T11:32:41Z</time>
      </trkpt>
      <trkpt lat="46.95003" lon="6.43201">
        <ele>1064.1</ele>
        <time>2024-05-09T11:32:52Z</time>
      </trkpt>
      <trkpt lat="46.95008" lon="6.43177">
        <ele>1066.2</ele>
        <time>2024-05-09T11:33:03Z</time>
      </trkpt>
      <trkpt lat="46.95007" lon="6.4316">
        <ele>1067.5</ele>
        <time>2024-05-09T11:33:13Z</time>
      </trkpt>
      <trkpt lat="46.95007" lon="6.43161">
        <ele>1067.5</ele>
        <time>2024-05-09T11:33:24Z</time>
      </trkpt>
      <trkpt lat="46.95008" lon="6.43155">
        <ele>1068</ele>
        <time>2024-05-09T11:33:35Z</time>
      </trkpt>
      <trkpt lat="46.95009" lon="6.43154">
        <ele>1068.1</ele>
        <time>2024-05-09T11:33:46Z</time>
      </trkpt>
      <trkpt lat="46.95009" lon="6.43152">
        <ele>1068.2</ele>
        <time>2024-05-09T11:33:56Z</time>
      </trkpt>
      <trkpt lat="46.9501" lon="6.43128">
        <ele>1069.6</ele>
        <time>2024-05-09T11:34:07Z</time>
      </trkpt>
      <trkpt lat="46.95011" lon="6.43099">
        <ele>1071.3</ele>
        <time>2024-05-09T11:34:18Z</time>
      </trkpt>
      <trkpt lat="46.95012" lon="6.43072">
        <ele>1072.3</ele>
        <time>2024-05-09T11:34:28Z</time>
      </trkpt>
      <trkpt lat="46.95013" lon="6.43034">
        <ele>1073</ele>
        <time>2024-05-09T11:34:38Z</time>
      </trkpt>
      <trkpt lat="46.95012" lon="6.42993">
        <ele>1073.7</ele>
        <time>2024-05-09T11:34:49Z</time>
      </trkpt>
      <trkpt lat="46.95015" lon="6.42955">
        <ele>1075.2</ele>
        <time>2024-05-09T11:35:00Z</time>
      </trkpt>
      <trkpt lat="46.95018" lon="6.42922">
        <ele>1076.6</ele>
        <time>2024-05-09T11:35:10Z</time>
      </trkpt>
      <trkpt lat="46.95006" lon="6.42896">
        <ele>1077.1</ele>
        <time>2024-05-09T11:35:21Z</time>
      </trkpt>
      <trkpt lat="46.94981" lon="6.42869">
        <ele>1076.9</ele>
        <time>2024-05-09T11:35:32Z</time>
      </trkpt>
      <trkpt lat="46.94937" lon="6.42848">
        <ele>1075.4</ele>
        <time>2024-05-09T11:35:43Z</time>
      </trkpt>
      <trkpt lat="46.94902" lon="6.42786">
        <ele>1074.9</ele>
        <time>2024-05-09T11:35:54Z</time>
      </trkpt>
      <trkpt lat="46.94865" lon="6.42733">
        <ele>1073.9</ele>
        <time>2024-05-09T11:36:04Z</time>
      </trkpt>
      <trkpt lat="46.94818" lon="6.42689">
        <ele>1069.9</ele>
        <time>2024-05-09T11:36:15Z</time>
      </trkpt>
      <trkpt lat="46.94754" lon="6.42649">
        <ele>1061</ele>
        <time>2024-05-09T11:36:25Z</time>
      </trkpt>
      <trkpt lat="46.9469" lon="6.4253">
        <ele>1047.6</ele>
        <time>2024-05-09T11:36:36Z</time>
      </trkpt>
      <trkpt lat="46.9461" lon="6.42387">
        <ele>1040.6</ele>
        <time>2024-05-09T11:36:47Z</time>
      </trkpt>
      <trkpt lat="46.94537" lon="6.42275">
        <ele>1041.9</ele>
        <time>2024-05-09T11:36:58Z</time>
      </trkpt>
      <trkpt lat="46.94469" lon="6.42202">
        <ele>1039.5</ele>
        <time>2024-05-09T11:37:08Z</time>
      </trkpt>
      <trkpt lat="46.94407" lon="6.42224">
        <ele>1040.4</ele>
        <time>2024-05-09T11:37:19Z</time>
      </trkpt>
      <trkpt lat="46.94366" lon="6.42248">
        <ele>1038.5</ele>
        <time>2024-05-09T11:37:29Z</time>
      </trkpt>
      <trkpt lat="46.94296" lon="6.42285">
        <ele>1032.9</ele>
        <time>2024-05-09T11:37:40Z</time>
      </trkpt>
      <trkpt lat="46.94205" lon="6.42307">
        <ele>1025.5</ele>
        <time>2024-05-09T11:37:50Z</time>
      </trkpt>
      <trkpt lat="46.94099" lon="6.4233">
        <ele>1021.1</ele>
        <time>2024-05-09T11:38:01Z</time>
      </trkpt>
      <trkpt lat="46.94018" lon="6.42303">
        <ele>1018.5</ele>
        <time>2024-05-09T11:38:11Z</time>
      </trkpt>
      <trkpt lat="46.93947" lon="6.42219">
        <ele>1013.1</ele>
        <time>2024-05-09T11:38:22Z</time>
      </trkpt>
      <trkpt lat="46.93903" lon="6.4214">
        <ele>1009.4</ele>
        <time>2024-05-09T11:38:32Z</time>
      </trkpt>
      <trkpt lat="46.93864" lon="6.42112">
        <ele>1008.2</ele>
        <time>2024-05-09T11:38:43Z</time>
      </trkpt>
      <trkpt lat="46.93817" lon="6.4214">
        <ele>1003.8</ele>
        <time>2024-05-09T11:38:54Z</time>
      </trkpt>
      <trkpt lat="46.93761" lon="6.42183">
        <ele>995</ele>
        <time>2024-05-09T11:39:05Z</time>
      </trkpt>
      <trkpt lat="46.93711" lon="6.42256">
        <ele>986.9</ele>
        <time>2024-05-09T11:39:16Z</time>
      </trkpt>
      <trkpt lat="46.93675" lon="6.42257">
        <ele>984.6</ele>
        <time>2024-05-09T11:39:26Z</time>
      </trkpt>
      <trkpt lat="46.93639" lon="6.42218">
        <ele>982.6</ele>
        <time>2024-05-09T11:39:37Z</time>
      </trkpt>
      <trkpt lat="46.93614" lon="6.42183">
        <ele>980.8</ele>
        <time>2024-05-09T11:39:48Z</time>
      </trkpt>
      <trkpt lat="46.93609" lon="6.42177">
        <ele>980.4</ele>
        <time>2024-05-09T11:39:59Z</time>
      </trkpt>
      <trkpt lat="46.93609" lon="6.42177">
        <ele>980.4</ele>
        <time>2024-05-09T11:40:10Z</time>
      </trkpt>
      <trkpt lat="46.93609" lon="6.42177">
        <ele>980.4</ele>
        <time>2024-05-09T11:40:20Z</time>
      </trkpt>
      <trkpt lat="46.9361" lon="6.42176">
        <ele>980.3</ele>
        <time>2024-05-09T11:40:30Z</time>
      </trkpt>
      <trkpt lat="46.9361" lon="6.42176">
        <ele>980.3</ele>
        <time>2024-05-09T11:40:40Z</time>
      </trkpt>
      <trkpt lat="46.9361" lon="6.42177">
        <ele>980.3</ele>
        <time>2024-05-09T11:40:51Z</time>
      </trkpt>
      <trkpt lat="46.93609" lon="6.42178">
        <ele>980.2</ele>
        <time>2024-05-09T11:41:01Z</time>
      </trkpt>
      <trkpt lat="46.9361" lon="6.42179">
        <ele>980.2</ele>
        <time>2024-05-09T11:41:11Z</time>
      </trkpt>
      <trkpt lat="46.9361" lon="6.42179">
        <ele>980.2</ele>
        <time>2024-05-09T11:41:22Z</time>
      </trkpt>
      <trkpt lat="46.93611" lon="6.42178">
        <ele>980.1</ele>
        <time>2024-05-09T11:41:33Z</time>
      </trkpt>
      <trkpt lat="46.9361" lon="6.42176">
        <ele>980</ele>
        <time>2024-05-09T11:41:43Z</time>
      </trkpt>
      <trkpt lat="46.9361" lon="6.42175">
        <ele>980</ele>
        <time>2024-05-09T11:41:53Z</time>
      </trkpt>
      <trkpt lat="46.93611" lon="6.42173">
        <ele>979.9</ele>
        <time>2024-05-09T11:42:03Z</time>
      </trkpt>
      <trkpt lat="46.93597" lon="6.42146">
        <ele>979.1</ele>
        <time>2024-05-09T11:42:14Z</time>
      </trkpt>
      <trkpt lat="46.93573" lon="6.42101">
        <ele>978.6</ele>
        <time>2024-05-09T11:42:25Z</time>
      </trkpt>
      <trkpt lat="46.9355" lon="6.42064">
        <ele>979.5</ele>
        <time>2024-05-09T11:42:35Z</time>
      </trkpt>
      <trkpt lat="46.93527" lon="6.4203">
        <ele>981.7</ele>
        <time>2024-05-09T11:42:46Z</time>
      </trkpt>
      <trkpt lat="46.93508" lon="6.42">
        <ele>983.4</ele>
        <time>2024-05-09T11:42:57Z</time>
      </trkpt>
      <trkpt lat="46.93493" lon="6.41969">
        <ele>984.4</ele>
        <time>2024-05-09T11:43:08Z</time>
      </trkpt>
      <trkpt lat="46.93475" lon="6.41943">
        <ele>985.1</ele>
        <time>2024-05-09T11:43:19Z</time>
      </trkpt>
      <trkpt lat="46.9346" lon="6.41913">
        <ele>985.5</ele>
        <time>2024-05-09T11:43:29Z</time>
      </trkpt>
      <trkpt lat="46.93438" lon="6.41878">
        <ele>986.1</ele>
        <time>2024-05-09T11:43:40Z</time>
      </trkpt>
      <trkpt lat="46.93419" lon="6.41844">
        <ele>986.2</ele>
        <time>2024-05-09T11:43:50Z</time>
      </trkpt>
      <trkpt lat="46.934" lon="6.41812">
        <ele>985.7</ele>
        <time>2024-05-09T11:44:00Z</time>
      </trkpt>
      <trkpt lat="46.93373" lon="6.4176">
        <ele>983.3</ele>
        <time>2024-05-09T11:44:11Z</time>
      </trkpt>
      <trkpt lat="46.93343" lon="6.41698">
        <ele>980</ele>
        <time>2024-05-09T11:44:22Z</time>
      </trkpt>
      <trkpt lat="46.93319" lon="6.4164">
        <ele>978.5</ele>
        <time>2024-05-09T11:44:33Z</time>
      </trkpt>
      <trkpt lat="46.93308" lon="6.41604">
        <ele>978.3</ele>
        <time>2024-05-09T11:44:44Z</time>
      </trkpt>
      <trkpt lat="46.93296" lon="6.41563">
        <ele>978.6</ele>
        <time>2024-05-09T11:44:54Z</time>
      </trkpt>
      <trkpt lat="46.93286" lon="6.41523">
        <ele>979.2</ele>
        <time>2024-05-09T11:45:05Z</time>
      </trkpt>
      <trkpt lat="46.93272" lon="6.41484">
        <ele>979.3</ele>
        <time>2024-05-09T11:45:15Z</time>
      </trkpt>
      <trkpt lat="46.93266" lon="6.41466">
        <ele>979.3</ele>
        <time>2024-05-09T11:45:26Z</time>
      </trkpt>
      <trkpt lat="46.93264" lon="6.41464">
        <ele>979.3</ele>
        <time>2024-05-09T11:45:37Z</time>
      </trkpt>
      <trkpt lat="46.93266" lon="6.41464">
        <ele>979.2</ele>
        <time>2024-05-09T11:45:48Z</time>
      </trkpt>
      <trkpt lat="46.9326" lon="6.41462">
        <ele>979.2</ele>
        <time>2024-05-09T11:45:59Z</time>
      </trkpt>
      <trkpt lat="46.9326" lon="6.41461">
        <ele>979.2</ele>
        <time>2024-05-09T11:46:09Z</time>
      </trkpt>
      <trkpt lat="46.93247" lon="6.41426">
        <ele>979.5</ele>
        <time>2024-05-09T11:46:19Z</time>
      </trkpt>
      <trkpt lat="46.9323" lon="6.41389">
        <ele>980.8</ele>
        <time>2024-05-09T11:46:30Z</time>
      </trkpt>
      <trkpt lat="46.93212" lon="6.41353">
        <ele>982.9</ele>
        <time>2024-05-09T11:46:41Z</time>
      </trkpt>
      <trkpt lat="46.93197" lon="6.41313">
        <ele>984.8</ele>
        <time>2024-05-09T11:46:52Z</time>
      </trkpt>
      <trkpt lat="46.93179" lon="6.41273">
        <ele>985.4</ele>
        <time>2024-05-09T11:47:02Z</time>
      </trkpt>
      <trkpt lat="46.93147" lon="6.41227">
        <ele>984.6</ele>
        <time>2024-05-09T11:47:13Z</time>
      </trkpt>
      <trkpt lat="46.93115" lon="6.41173">
        <ele>983.3</ele>
        <time>2024-05-09T11:47:23Z</time>
      </trkpt>
      <trkpt lat="46.93096" lon="6.41137">
        <ele>982.5</ele>
        <time>2024-05-09T11:47:33Z</time>
      </trkpt>
      <trkpt lat="46.93078" lon="6.41101">
        <ele>981.7</ele>
        <time>2024-05-09T11:47:43Z</time>
      </trkpt>
      <trkpt lat="46.93062" lon="6.41069">
        <ele>981.2</ele>
        <time>2024-05-09T11:47:53Z</time>
      </trkpt>
      <trkpt lat="46.93044" lon="6.41028">
        <ele>980.6</ele>
        <time>2024-05-09T11:48:04Z</time>
      </trkpt>
      <trkpt lat="46.93028" lon="6.40995">
        <ele>980.6</ele>
        <time>2024-05-09T11:48:14Z</time>
      </trkpt>
      <trkpt lat="46.93027" lon="6.40989">
        <ele>980.6</ele>
        <time>2024-05-09T11:48:25Z</time>
      </trkpt>
      <trkpt lat="46.93026" lon="6.40983">
        <ele>980.6</ele>
        <time>2024-05-09T11:48:35Z</time>
      </trkpt>
      <trkpt lat="46.93018" lon="6.40968">
        <ele>980.5</ele>
        <time>2024-05-09T11:48:46Z</time>
      </trkpt>
      <trkpt lat="46.93007" lon="6.4094">
        <ele>980.3</ele>
        <time>2024-05-09T11:48:56Z</time>
      </trkpt>
      <trkpt lat="46.92993" lon="6.40903">
        <ele>979.7</ele>
        <time>2024-05-09T11:49:07Z</time>
      </trkpt>
      <trkpt lat="46.92975" lon="6.40862">
        <ele>978.6</ele>
        <time>2024-05-09T11:49:18Z</time>
      </trkpt>
      <trkpt lat="46.92955" lon="6.40819">
        <ele>977.5</ele>
        <time>2024-05-09T11:49:28Z</time>
      </trkpt>
      <trkpt lat="46.92937" lon="6.40778">
        <ele>975.5</ele>
        <time>2024-05-09T11:49:38Z</time>
      </trkpt>
      <trkpt lat="46.92916" lon="6.40731">
        <ele>972.7</ele>
        <time>2024-05-09T11:49:49Z</time>
      </trkpt>
      <trkpt lat="46.92894" lon="6.40686">
        <ele>970.1</ele>
        <time>2024-05-09T11:49:59Z</time>
      </trkpt>
      <trkpt lat="46.92869" lon="6.40637">
        <ele>967.4</ele>
        <time>2024-05-09T11:50:10Z</time>
      </trkpt>
      <trkpt lat="46.92847" lon="6.40589">
        <ele>965.4</ele>
        <time>2024-05-09T11:50:20Z</time>
      </trkpt>
      <trkpt lat="46.9282" lon="6.40541">
        <ele>962.9</ele>
        <time>2024-05-09T11:50:31Z</time>
      </trkpt>
      <trkpt lat="46.92798" lon="6.40498">
        <ele>961</ele>
        <time>2024-05-09T11:50:42Z</time>
      </trkpt>
      <trkpt lat="46.92776" lon="6.40446">
        <ele>958.6</ele>
        <time>2024-05-09T11:50:53Z</time>
      </trkpt>
      <trkpt lat="46.9275" lon="6.404">
        <ele>956.5</ele>
        <time>2024-05-09T11:51:04Z</time>
      </trkpt>
      <trkpt lat="46.92726" lon="6.40348">
        <ele>954.5</ele>
        <time>2024-05-09T11:51:14Z</time>
      </trkpt>
      <trkpt lat="46.92706" lon="6.40305">
        <ele>953.7</ele>
        <time>2024-05-09T11:51:24Z</time>
      </trkpt>
      <trkpt lat="46.92685" lon="6.4026">
        <ele>952.6</ele>
        <time>2024-05-09T11:51:35Z</time>
      </trkpt>
      <trkpt lat="46.92657" lon="6.40212">
        <ele>950.2</ele>
        <time>2024-05-09T11:51:45Z</time>
      </trkpt>
      <trkpt lat="46.92629" lon="6.4015">
        <ele>948</ele>
        <time>2024-05-09T11:51:56Z</time>
      </trkpt>
      <trkpt lat="46.92608" lon="6.40108">
        <ele>947.6</ele>
        <time>2024-05-09T11:52:07Z</time>
      </trkpt>
      <trkpt lat="46.92586" lon="6.40065">
        <ele>947.2</ele>
        <time>2024-05-09T11:52:18Z</time>
      </trkpt>
      <trkpt lat="46.92569" lon="6.40029">
        <ele>946.1</ele>
        <time>2024-05-09T11:52:28Z</time>
      </trkpt>
      <trkpt lat="46.92545" lon="6.39974">
        <ele>947.1</ele>
        <time>2024-05-09T11:52:39Z</time>
      </trkpt>
      <trkpt lat="46.92525" lon="6.39928">
        <ele>947.9</ele>
        <time>2024-05-09T11:52:49Z</time>
      </trkpt>
      <trkpt lat="46.9249" lon="6.39858">
        <ele>946.9</ele>
        <time>2024-05-09T11:53:00Z</time>
      </trkpt>
      <trkpt lat="46.92464" lon="6.39805">
        <ele>947.1</ele>
        <time>2024-05-09T11:53:10Z</time>
      </trkpt>
      <trkpt lat="46.92443" lon="6.39754">
        <ele>947.4</ele>
        <time>2024-05-09T11:53:21Z</time>
      </trkpt>
      <trkpt lat="46.92419" lon="6.39709">
        <ele>947.8</ele>
        <time>2024-05-09T11:53:32Z</time>
      </trkpt>
      <trkpt lat="46.92407" lon="6.39685">
        <ele>947.3</ele>
        <time>2024-05-09T11:53:43Z</time>
      </trkpt>
      <trkpt lat="46.92406" lon="6.39684">
        <ele>947.2</ele>
        <time>2024-05-09T11:53:54Z</time>
      </trkpt>
      <trkpt lat="46.92407" lon="6.3968">
        <ele>947.1</ele>
        <time>2024-05-09T11:54:05Z</time>
      </trkpt>
      <trkpt lat="46.92408" lon="6.39676">
        <ele>947</ele>
        <time>2024-05-09T11:54:15Z</time>
      </trkpt>
      <trkpt lat="46.92397" lon="6.39652">
        <ele>946.3</ele>
        <time>2024-05-09T11:54:25Z</time>
      </trkpt>
      <trkpt lat="46.92382" lon="6.39618">
        <ele>945.6</ele>
        <time>2024-05-09T11:54:36Z</time>
      </trkpt>
      <trkpt lat="46.92365" lon="6.39585">
        <ele>944.5</ele>
        <time>2024-05-09T11:54:47Z</time>
      </trkpt>
      <trkpt lat="46.92345" lon="6.39547">
        <ele>942.6</ele>
        <time>2024-05-09T11:54:58Z</time>
      </trkpt>
      <trkpt lat="46.92317" lon="6.3947">
        <ele>939.1</ele>
        <time>2024-05-09T11:55:09Z</time>
      </trkpt>
      <trkpt lat="46.92276" lon="6.39373">
        <ele>935.5</ele>
        <time>2024-05-09T11:55:20Z</time>
      </trkpt>
      <trkpt lat="46.9224" lon="6.39291">
        <ele>932.6</ele>
        <time>2024-05-09T11:55:30Z</time>
      </trkpt>
      <trkpt lat="46.92205" lon="6.39208">
        <ele>931.1</ele>
        <time>2024-05-09T11:55:41Z</time>
      </trkpt>
      <trkpt lat="46.92176" lon="6.39161">
        <ele>930.7</ele>
        <time>2024-05-09T11:55:51Z</time>
      </trkpt>
      <trkpt lat="46.9214" lon="6.39092">
        <ele>927.7</ele>
        <time>2024-05-09T11:56:02Z</time>
      </trkpt>
      <trkpt lat="46.92092" lon="6.39022">
        <ele>924.4</ele>
        <time>2024-05-09T11:56:13Z</time>
      </trkpt>
      <trkpt lat="46.92058" lon="6.38967">
        <ele>921.3</ele>
        <time>2024-05-09T11:56:23Z</time>
      </trkpt>
      <trkpt lat="46.92035" lon="6.38904">
        <ele>918.7</ele>
        <time>2024-05-09T11:56:34Z</time>
      </trkpt>
      <trkpt lat="46.9202" lon="6.38856">
        <ele>916.3</ele>
        <time>2024-05-09T11:56:45Z</time>
      </trkpt>
      <trkpt lat="46.91986" lon="6.38791">
        <ele>912.5</ele>
        <time>2024-05-09T11:56:56Z</time>
      </trkpt>
      <trkpt lat="46.91925" lon="6.38772">
        <ele>908.6</ele>
        <time>2024-05-09T11:57:06Z</time>
      </trkpt>
      <trkpt lat="46.91892" lon="6.38759">
        <ele>906.2</ele>
        <time>2024-05-09T11:57:16Z</time>
      </trkpt>
      <trkpt lat="46.91862" lon="6.38737">
        <ele>903.5</ele>
        <time>2024-05-09T11:57:26Z</time>
      </trkpt>
      <trkpt lat="46.91823" lon="6.387">
        <ele>899.8</ele>
        <time>2024-05-09T11:57:37Z</time>
      </trkpt>
      <trkpt lat="46.91784" lon="6.3866">
        <ele>895.9</ele>
        <time>2024-05-09T11:57:47Z</time>
      </trkpt>
      <trkpt lat="46.9175" lon="6.38623">
        <ele>892.3</ele>
        <time>2024-05-09T11:57:58Z</time>
      </trkpt>
      <trkpt lat="46.91676" lon="6.38546">
        <ele>884.5</ele>
        <time>2024-05-09T11:58:09Z</time>
      </trkpt>
      <trkpt lat="46.91615" lon="6.38447">
        <ele>880.9</ele>
        <time>2024-05-09T11:58:20Z</time>
      </trkpt>
      <trkpt lat="46.91566" lon="6.38362">
        <ele>879.2</ele>
        <time>2024-05-09T11:58:31Z</time>
      </trkpt>
      <trkpt lat="46.91496" lon="6.38334">
        <ele>877</ele>
        <time>2024-05-09T11:58:42Z</time>
      </trkpt>
      <trkpt lat="46.91448" lon="6.38311">
        <ele>876.3</ele>
        <time>2024-05-09T11:58:53Z</time>
      </trkpt>
      <trkpt lat="46.91384" lon="6.38266">
        <ele>874.2</ele>
        <time>2024-05-09T11:59:04Z</time>
      </trkpt>
      <trkpt lat="46.91331" lon="6.38217">
        <ele>871.9</ele>
        <time>2024-05-09T11:59:15Z</time>
      </trkpt>
      <trkpt lat="46.91296" lon="6.38166">
        <ele>869</ele>
        <time>2024-05-09T11:59:26Z</time>
      </trkpt>
      <trkpt lat="46.91261" lon="6.38094">
        <ele>865.1</ele>
        <time>2024-05-09T11:59:36Z</time>
      </trkpt>
      <trkpt lat="46.91212" lon="6.38006">
        <ele>860.3</ele>
        <time>2024-05-09T11:59:46Z</time>
      </trkpt>
      <trkpt lat="46.91141" lon="6.37899">
        <ele>854.8</ele>
        <time>2024-05-09T11:59:57Z</time>
      </trkpt>
      <trkpt lat="46.91089" lon="6.37816">
        <ele>849.8</ele>
        <time>2024-05-09T12:00:07Z</time>
      </trkpt>
      <trkpt lat="46.91053" lon="6.37769">
        <ele>848.5</ele>
        <time>2024-05-09T12:00:18Z</time>
      </trkpt>
      <trkpt lat="46.91017" lon="6.37733">
        <ele>847.5</ele>
        <time>2024-05-09T12:00:29Z</time>
      </trkpt>
      <trkpt lat="46.90981" lon="6.37694">
        <ele>846.8</ele>
        <time>2024-05-09T12:00:40Z</time>
      </trkpt>
      <trkpt lat="46.90959" lon="6.37666">
        <ele>846</ele>
        <time>2024-05-09T12:00:50Z</time>
      </trkpt>
      <trkpt lat="46.90947" lon="6.37646">
        <ele>845.3</ele>
        <time>2024-05-09T12:01:00Z</time>
      </trkpt>
      <trkpt lat="46.90889" lon="6.37561">
        <ele>843.4</ele>
        <time>2024-05-09T12:01:11Z</time>
      </trkpt>
      <trkpt lat="46.90794" lon="6.37471">
        <ele>841.6</ele>
        <time>2024-05-09T12:01:22Z</time>
      </trkpt>
      <trkpt lat="46.90736" lon="6.37406">
        <ele>840.3</ele>
        <time>2024-05-09T12:01:33Z</time>
      </trkpt>
      <trkpt lat="46.90729" lon="6.37402">
        <ele>840.3</ele>
        <time>2024-05-09T12:01:44Z</time>
      </trkpt>
      <trkpt lat="46.90729" lon="6.37402">
        <ele>840.3</ele>
        <time>2024-05-09T12:01:54Z</time>
      </trkpt>
      <trkpt lat="46.90729" lon="6.37402">
        <ele>840.3</ele>
        <time>2024-05-09T12:02:05Z</time>
      </trkpt>
      <trkpt lat="46.90729" lon="6.37402">
        <ele>840.3</ele>
        <time>2024-05-09T12:02:15Z</time>
      </trkpt>
      <trkpt lat="46.90729" lon="6.37402">
        <ele>840.3</ele>
        <time>2024-05-09T12:02:26Z</time>
      </trkpt>
      <trkpt lat="46.90729" lon="6.37402">
        <ele>840.3</ele>
        <time>2024-05-09T12:02:36Z</time>
      </trkpt>
      <trkpt lat="46.90729" lon="6.37402">
        <ele>840.3</ele>
        <time>2024-05-09T12:02:47Z</time>
      </trkpt>
      <trkpt lat="46.90729" lon="6.37402">
        <ele>840.3</ele>
        <time>2024-05-09T12:02:57Z</time>
      </trkpt>
      <trkpt lat="46.90729" lon="6.37402">
        <ele>840.3</ele>
        <time>2024-05-09T12:03:07Z</time>
      </trkpt>
      <trkpt lat="46.90729" lon="6.37402">
        <ele>840.3</ele>
        <time>2024-05-09T12:03:18Z</time>
      </trkpt>
      <trkpt lat="46.90729" lon="6.37402">
        <ele>840.3</ele>
        <time>2024-05-09T12:03:29Z</time>
      </trkpt>
      <trkpt lat="46.90729" lon="6.37402">
        <ele>840.3</ele>
        <time>2024-05-09T12:03:39Z</time>
      </trkpt>
      <trkpt lat="46.90729" lon="6.37402">
        <ele>840.3</ele>
        <time>2024-05-09T12:03:50Z</time>
      </trkpt>
      <trkpt lat="46.90729" lon="6.37402">
        <ele>840.3</ele>
        <time>2024-05-09T12:04:01Z</time>
      </trkpt>
      <trkpt lat="46.90729" lon="6.37402">
        <ele>840.3</ele>
        <time>2024-05-09T12:04:12Z</time>
      </trkpt>
      <trkpt lat="46.90729" lon="6.37402">
        <ele>840.3</ele>
        <time>2024-05-09T12:04:22Z</time>
      </trkpt>
      <trkpt lat="46.90729" lon="6.37402">
        <ele>840.3</ele>
        <time>2024-05-09T12:04:32Z</time>
      </trkpt>
      <trkpt lat="46.90729" lon="6.37402">
        <ele>840.3</ele>
        <time>2024-05-09T12:04:43Z</time>
      </trkpt>
      <trkpt lat="46.90729" lon="6.37402">
        <ele>840.3</ele>
        <time>2024-05-09T12:04:53Z</time>
      </trkpt>
      <trkpt lat="46.90729" lon="6.37402">
        <ele>840.3</ele>
        <time>2024-05-09T12:05:03Z</time>
      </trkpt>
      <trkpt lat="46.90729" lon="6.37402">
        <ele>840.3</ele>
        <time>2024-05-09T12:05:14Z</time>
      </trkpt>
      <trkpt lat="46.90729" lon="6.37403">
        <ele>840.3</ele>
        <time>2024-05-09T12:05:24Z</time>
      </trkpt>
      <trkpt lat="46.90734" lon="6.37421">
        <ele>840.4</ele>
        <time>2024-05-09T12:05:34Z</time>
      </trkpt>
      <trkpt lat="46.90761" lon="6.37457">
        <ele>841</ele>
        <time>2024-05-09T12:05:45Z</time>
      </trkpt>
      <trkpt lat="46.90791" lon="6.37499">
        <ele>841.8</ele>
        <time>2024-05-09T12:05:56Z</time>
      </trkpt>
      <trkpt lat="46.90816" lon="6.37544">
        <ele>842.4</ele>
        <time>2024-05-09T12:06:06Z</time>
      </trkpt>
      <trkpt lat="46.90847" lon="6.37581">
        <ele>843</ele>
        <time>2024-05-09T12:06:16Z</time>
      </trkpt>
      <trkpt lat="46.90878" lon="6.3761">
        <ele>843.5</ele>
        <time>2024-05-09T12:06:27Z</time>
      </trkpt>
      <trkpt lat="46.90879" lon="6.37611">
        <ele>843.5</ele>
        <time>2024-05-09T12:06:38Z</time>
      </trkpt>
      <trkpt lat="46.90879" lon="6.3761">
        <ele>843.6</ele>
        <time>2024-05-09T12:06:49Z</time>
      </trkpt>
      <trkpt lat="46.90879" lon="6.3761">
        <ele>843.6</ele>
        <time>2024-05-09T12:07:00Z</time>
      </trkpt>
      <trkpt lat="46.90879" lon="6.37611">
        <ele>843.6</ele>
        <time>2024-05-09T12:07:10Z</time>
      </trkpt>
      <trkpt lat="46.90884" lon="6.37617">
        <ele>843.7</ele>
        <time>2024-05-09T12:07:20Z</time>
      </trkpt>
      <trkpt lat="46.90921" lon="6.37645">
        <ele>844.5</ele>
        <time>2024-05-09T12:07:31Z</time>
      </trkpt>
      <trkpt lat="46.90965" lon="6.3768">
        <ele>846.4</ele>
        <time>2024-05-09T12:07:42Z</time>
      </trkpt>
      <trkpt lat="46.91008" lon="6.37719">
        <ele>847.3</ele>
        <time>2024-05-09T12:07:53Z</time>
      </trkpt>
      <trkpt lat="46.91043" lon="6.37761">
        <ele>848.2</ele>
        <time>2024-05-09T12:08:03Z</time>
      </trkpt>
      <trkpt lat="46.91076" lon="6.37806">
        <ele>849.4</ele>
        <time>2024-05-09T12:08:14Z</time>
      </trkpt>
      <trkpt lat="46.91104" lon="6.37837">
        <ele>851.3</ele>
        <time>2024-05-09T12:08:25Z</time>
      </trkpt>
      <trkpt lat="46.91125" lon="6.37881">
        <ele>853.7</ele>
        <time>2024-05-09T12:08:36Z</time>
      </trkpt>
      <trkpt lat="46.9115" lon="6.37911">
        <ele>855.4</ele>
        <time>2024-05-09T12:08:46Z</time>
      </trkpt>
      <trkpt lat="46.91172" lon="6.37942">
        <ele>857.1</ele>
        <time>2024-05-09T12:08:56Z</time>
      </trkpt>
      <trkpt lat="46.91195" lon="6.3798">
        <ele>859</ele>
        <time>2024-05-09T12:09:07Z</time>
      </trkpt>
      <trkpt lat="46.91219" lon="6.38023">
        <ele>861.2</ele>
        <time>2024-05-09T12:09:18Z</time>
      </trkpt>
      <trkpt lat="46.9124" lon="6.3806">
        <ele>863.2</ele>
        <time>2024-05-09T12:09:28Z</time>
      </trkpt>
      <trkpt lat="46.91263" lon="6.38095">
        <ele>865.2</ele>
        <time>2024-05-09T12:09:39Z</time>
      </trkpt>
      <trkpt lat="46.91282" lon="6.38135">
        <ele>867.4</ele>
        <time>2024-05-09T12:09:50Z</time>
      </trkpt>
      <trkpt lat="46.91301" lon="6.38173">
        <ele>869.4</ele>
        <time>2024-05-09T12:10:00Z</time>
      </trkpt>
      <trkpt lat="46.91322" lon="6.38199">
        <ele>871.2</ele>
        <time>2024-05-09T12:10:10Z</time>
      </trkpt>
      <trkpt lat="46.91344" lon="6.38237">
        <ele>872.7</ele>
        <time>2024-05-09T12:10:21Z</time>
      </trkpt>
      <trkpt lat="46.91378" lon="6.38261">
        <ele>874</ele>
        <time>2024-05-09T12:10:32Z</time>
      </trkpt>
      <trkpt lat="46.91411" lon="6.38281">
        <ele>874.9</ele>
        <time>2024-05-09T12:10:42Z</time>
      </trkpt>
      <trkpt lat="46.91443" lon="6.38295">
        <ele>876</ele>
        <time>2024-05-09T12:10:53Z</time>
      </trkpt>
      <trkpt lat="46.91476" lon="6.38319">
        <ele>876.8</ele>
        <time>2024-05-09T12:11:04Z</time>
      </trkpt>
      <trkpt lat="46.91518" lon="6.38348">
        <ele>877.5</ele>
        <time>2024-05-09T12:11:15Z</time>
      </trkpt>
      <trkpt lat="46.9157" lon="6.38415">
        <ele>879.8</ele>
        <time>2024-05-09T12:11:25Z</time>
      </trkpt>
      <trkpt lat="46.91614" lon="6.38475">
        <ele>881.1</ele>
        <time>2024-05-09T12:11:35Z</time>
      </trkpt>
      <trkpt lat="46.91652" lon="6.38525">
        <ele>882.7</ele>
        <time>2024-05-09T12:11:46Z</time>
      </trkpt>
      <trkpt lat="46.91676" lon="6.3855">
        <ele>884.5</ele>
        <time>2024-05-09T12:11:56Z</time>
      </trkpt>
      <trkpt lat="46.91701" lon="6.38574">
        <ele>886.9</ele>
        <time>2024-05-09T12:12:07Z</time>
      </trkpt>
      <trkpt lat="46.91724" lon="6.38595">
        <ele>889.3</ele>
        <time>2024-05-09T12:12:17Z</time>
      </trkpt>
      <trkpt lat="46.91751" lon="6.38622">
        <ele>892.3</ele>
        <time>2024-05-09T12:12:28Z</time>
      </trkpt>
      <trkpt lat="46.91773" lon="6.38644">
        <ele>894.6</ele>
        <time>2024-05-09T12:12:38Z</time>
      </trkpt>
      <trkpt lat="46.91793" lon="6.38666">
        <ele>896.9</ele>
        <time>2024-05-09T12:12:49Z</time>
      </trkpt>
      <trkpt lat="46.91813" lon="6.38685">
        <ele>898.8</ele>
        <time>2024-05-09T12:13:00Z</time>
      </trkpt>
      <trkpt lat="46.91832" lon="6.38705">
        <ele>900.7</ele>
        <time>2024-05-09T12:13:11Z</time>
      </trkpt>
      <trkpt lat="46.9185" lon="6.38719">
        <ele>902.3</ele>
        <time>2024-05-09T12:13:21Z</time>
      </trkpt>
      <trkpt lat="46.91866" lon="6.38727">
        <ele>903.7</ele>
        <time>2024-05-09T12:13:32Z</time>
      </trkpt>
      <trkpt lat="46.91889" lon="6.38744">
        <ele>905.8</ele>
        <time>2024-05-09T12:13:43Z</time>
      </trkpt>
      <trkpt lat="46.91902" lon="6.38754">
        <ele>906.9</ele>
        <time>2024-05-09T12:13:54Z</time>
      </trkpt>
      <trkpt lat="46.91906" lon="6.38753">
        <ele>907.2</ele>
        <time>2024-05-09T12:14:05Z</time>
      </trkpt>
      <trkpt lat="46.91912" lon="6.38753">
        <ele>907.3</ele>
        <time>2024-05-09T12:14:15Z</time>
      </trkpt>
      <trkpt lat="46.91912" lon="6.38753">
        <ele>907.3</ele>
        <time>2024-05-09T12:14:26Z</time>
      </trkpt>
      <trkpt lat="46.91914" lon="6.38763">
        <ele>907.5</ele>
        <time>2024-05-09T12:14:36Z</time>
      </trkpt>
      <trkpt lat="46.91914" lon="6.38764">
        <ele>907.5</ele>
        <time>2024-05-09T12:14:47Z</time>
      </trkpt>
      <trkpt lat="46.91914" lon="6.38764">
        <ele>907.5</ele>
        <time>2024-05-09T12:14:58Z</time>
      </trkpt>
      <trkpt lat="46.91914" lon="6.38764">
        <ele>907.5</ele>
        <time>2024-05-09T12:15:08Z</time>
      </trkpt>
      <trkpt lat="46.91914" lon="6.38764">
        <ele>907.5</ele>
        <time>2024-05-09T12:15:19Z</time>
      </trkpt>
      <trkpt lat="46.91914" lon="6.38764">
        <ele>907.5</ele>
        <time>2024-05-09T12:15:29Z</time>
      </trkpt>
      <trkpt lat="46.91914" lon="6.38764">
        <ele>907.5</ele>
        <time>2024-05-09T12:15:39Z</time>
      </trkpt>
      <trkpt lat="46.91914" lon="6.38764">
        <ele>907.5</ele>
        <time>2024-05-09T12:15:49Z</time>
      </trkpt>
      <trkpt lat="46.91917" lon="6.38763">
        <ele>907.5</ele>
        <time>2024-05-09T12:16:00Z</time>
      </trkpt>
      <trkpt lat="46.91921" lon="6.38765">
        <ele>907.6</ele>
        <time>2024-05-09T12:16:10Z</time>
      </trkpt>
      <trkpt lat="46.91913" lon="6.38759">
        <ele>907.8</ele>
        <time>2024-05-09T12:16:20Z</time>
      </trkpt>
      <trkpt lat="46.91904" lon="6.38751">
        <ele>907.1</ele>
        <time>2024-05-09T12:16:31Z</time>
      </trkpt>
      <trkpt lat="46.91904" lon="6.38754">
        <ele>907</ele>
        <time>2024-05-09T12:16:42Z</time>
      </trkpt>
      <trkpt lat="46.91903" lon="6.38752">
        <ele>906.9</ele>
        <time>2024-05-09T12:16:52Z</time>
      </trkpt>
      <trkpt lat="46.91896" lon="6.38753">
        <ele>906.3</ele>
        <time>2024-05-09T12:17:03Z</time>
      </trkpt>
      <trkpt lat="46.91892" lon="6.38755">
        <ele>906</ele>
        <time>2024-05-09T12:17:14Z</time>
      </trkpt>
      <trkpt lat="46.9189" lon="6.38755">
        <ele>905.9</ele>
        <time>2024-05-09T12:17:24Z</time>
      </trkpt>
      <trkpt lat="46.91883" lon="6.38757">
        <ele>905.3</ele>
        <time>2024-05-09T12:17:35Z</time>
      </trkpt>
      <trkpt lat="46.91858" lon="6.38732">
        <ele>902.9</ele>
        <time>2024-05-09T12:17:45Z</time>
      </trkpt>
      <trkpt lat="46.91828" lon="6.38705">
        <ele>900.2</ele>
        <time>2024-05-09T12:17:56Z</time>
      </trkpt>
      <trkpt lat="46.91777" lon="6.38652">
        <ele>895.1</ele>
        <time>2024-05-09T12:18:06Z</time>
      </trkpt>
      <trkpt lat="46.91713" lon="6.38589">
        <ele>888.3</ele>
        <time>2024-05-09T12:18:16Z</time>
      </trkpt>
      <trkpt lat="46.91635" lon="6.38491">
        <ele>881.9</ele>
        <time>2024-05-09T12:18:27Z</time>
      </trkpt>
      <trkpt lat="46.91585" lon="6.38391">
        <ele>879.9</ele>
        <time>2024-05-09T12:18:38Z</time>
      </trkpt>
      <trkpt lat="46.9152" lon="6.38344">
        <ele>877.6</ele>
        <time>2024-05-09T12:18:49Z</time>
      </trkpt>
      <trkpt lat="46.91461" lon="6.3832">
        <ele>876.7</ele>
        <time>2024-05-09T12:18:59Z</time>
      </trkpt>
      <trkpt lat="46.91395" lon="6.38287">
        <ele>874.7</ele>
        <time>2024-05-09T12:19:10Z</time>
      </trkpt>
      <trkpt lat="46.91341" lon="6.3824">
        <ele>872.9</ele>
        <time>2024-05-09T12:19:21Z</time>
      </trkpt>
      <trkpt lat="46.91343" lon="6.38226">
        <ele>872.5</ele>
        <time>2024-05-09T12:19:32Z</time>
      </trkpt>
      <trkpt lat="46.9136" lon="6.38214">
        <ele>874.6</ele>
        <time>2024-05-09T12:19:42Z</time>
      </trkpt>
      <trkpt lat="46.91364" lon="6.3819">
        <ele>875.3</ele>
        <time>2024-05-09T12:19:53Z</time>
      </trkpt>
      <trkpt lat="46.91361" lon="6.38187">
        <ele>875.4</ele>
        <time>2024-05-09T12:20:03Z</time>
      </trkpt>
      <trkpt lat="46.91361" lon="6.38187">
        <ele>875.4</ele>
        <time>2024-05-09T12:20:13Z</time>
      </trkpt>
      <trkpt lat="46.91362" lon="6.38187">
        <ele>875.5</ele>
        <time>2024-05-09T12:20:24Z</time>
      </trkpt>
      <trkpt lat="46.91362" lon="6.38187">
        <ele>875.5</ele>
        <time>2024-05-09T12:20:34Z</time>
      </trkpt>
      <trkpt lat="46.91362" lon="6.38187">
        <ele>875.5</ele>
        <time>2024-05-09T12:20:44Z</time>
      </trkpt>
      <trkpt lat="46.91362" lon="6.38187">
        <ele>875.5</ele>
        <time>2024-05-09T12:20:55Z</time>
      </trkpt>
      <trkpt lat="46.91362" lon="6.38187">
        <ele>875.5</ele>
        <time>2024-05-09T12:21:05Z</time>
      </trkpt>
      <trkpt lat="46.91362" lon="6.38187">
        <ele>875.5</ele>
        <time>2024-05-09T12:21:16Z</time>
      </trkpt>
      <trkpt lat="46.91363" lon="6.38186">
        <ele>875.5</ele>
        <time>2024-05-09T12:21:26Z</time>
      </trkpt>
      <trkpt lat="46.91363" lon="6.38187">
        <ele>875.5</ele>
        <time>2024-05-09T12:21:37Z</time>
      </trkpt>
      <trkpt lat="46.91363" lon="6.38187">
        <ele>875.5</ele>
        <time>2024-05-09T12:21:47Z</time>
      </trkpt>
      <trkpt lat="46.91363" lon="6.38187">
        <ele>875.5</ele>
        <time>2024-05-09T12:21:57Z</time>
      </trkpt>
      <trkpt lat="46.91363" lon="6.38187">
        <ele>875.5</ele>
        <time>2024-05-09T12:22:08Z</time>
      </trkpt>
      <trkpt lat="46.91363" lon="6.38187">
        <ele>875.5</ele>
        <time>2024-05-09T12:22:18Z</time>
      </trkpt>
      <trkpt lat="46.91363" lon="6.38187">
        <ele>875.5</ele>
        <time>2024-05-09T12:22:29Z</time>
      </trkpt>
      <trkpt lat="46.91363" lon="6.38187">
        <ele>875.5</ele>
        <time>2024-05-09T12:22:40Z</time>
      </trkpt>
      <trkpt lat="46.91363" lon="6.38188">
        <ele>875.6</ele>
        <time>2024-05-09T12:22:50Z</time>
      </trkpt>
      <trkpt lat="46.91363" lon="6.38188">
        <ele>875.6</ele>
        <time>2024-05-09T12:23:01Z</time>
      </trkpt>
      <trkpt lat="46.91362" lon="6.38186">
        <ele>875.6</ele>
        <time>2024-05-09T12:23:11Z</time>
      </trkpt>
      <trkpt lat="46.91361" lon="6.38186">
        <ele>875.6</ele>
        <time>2024-05-09T12:23:22Z</time>
      </trkpt>
      <trkpt lat="46.91361" lon="6.38186">
        <ele>875.6</ele>
        <time>2024-05-09T12:23:32Z</time>
      </trkpt>
      <trkpt lat="46.91362" lon="6.38187">
        <ele>875.7</ele>
        <time>2024-05-09T12:23:42Z</time>
      </trkpt>
      <trkpt lat="46.91362" lon="6.38187">
        <ele>875.7</ele>
        <time>2024-05-09T12:23:53Z</time>
      </trkpt>
      <trkpt lat="46.91362" lon="6.38187">
        <ele>875.7</ele>
        <time>2024-05-09T12:24:04Z</time>
      </trkpt>
      <trkpt lat="46.91362" lon="6.38187">
        <ele>875.7</ele>
        <time>2024-05-09T12:24:14Z</time>
      </trkpt>
      <trkpt lat="46.91363" lon="6.38188">
        <ele>875.7</ele>
        <time>2024-05-09T12:24:24Z</time>
      </trkpt>
      <trkpt lat="46.91363" lon="6.38188">
        <ele>875.7</ele>
        <time>2024-05-09T12:24:35Z</time>
      </trkpt>
      <trkpt lat="46.91363" lon="6.38188">
        <ele>875.7</ele>
        <time>2024-05-09T12:24:45Z</time>
      </trkpt>
      <trkpt lat="46.91363" lon="6.38188">
        <ele>875.7</ele>
        <time>2024-05-09T12:24:56Z</time>
      </trkpt>
      <trkpt lat="46.91363" lon="6.38188">
        <ele>875.7</ele>
        <time>2024-05-09T12:25:06Z</time>
      </trkpt>
      <trkpt lat="46.91363" lon="6.38188">
        <ele>875.7</ele>
        <time>2024-05-09T12:25:16Z</time>
      </trkpt>
      <trkpt lat="46.91363" lon="6.38188">
        <ele>875.7</ele>
        <time>2024-05-09T12:25:26Z</time>
      </trkpt>
      <trkpt lat="46.91363" lon="6.38188">
        <ele>875.7</ele>
        <time>2024-05-09T12:25:37Z</time>
      </trkpt>
      <trkpt lat="46.91364" lon="6.38189">
        <ele>875.7</ele>
        <time>2024-05-09T12:25:48Z</time>
      </trkpt>
      <trkpt lat="46.91364" lon="6.38191">
        <ele>875.8</ele>
        <time>2024-05-09T12:25:59Z</time>
      </trkpt>
      <trkpt lat="46.91364" lon="6.38191">
        <ele>875.8</ele>
        <time>2024-05-09T12:26:10Z</time>
      </trkpt>
      <trkpt lat="46.91364" lon="6.38191">
        <ele>875.8</ele>
        <time>2024-05-09T12:26:21Z</time>
      </trkpt>
      <trkpt lat="46.91364" lon="6.38191">
        <ele>875.8</ele>
        <time>2024-05-09T12:26:31Z</time>
      </trkpt>
      <trkpt lat="46.91364" lon="6.38191">
        <ele>875.8</ele>
        <time>2024-05-09T12:26:41Z</time>
      </trkpt>
      <trkpt lat="46.91364" lon="6.38191">
        <ele>875.8</ele>
        <time>2024-05-09T12:26:52Z</time>
      </trkpt>
      <trkpt lat="46.91365" lon="6.38191">
        <ele>875.8</ele>
        <time>2024-05-09T12:27:03Z</time>
      </trkpt>
      <trkpt lat="46.91365" lon="6.38191">
        <ele>875.8</ele>
        <time>2024-05-09T12:27:13Z</time>
      </trkpt>
      <trkpt lat="46.91365" lon="6.38192">
        <ele>875.8</ele>
        <time>2024-05-09T12:27:23Z</time>
      </trkpt>
      <trkpt lat="46.91364" lon="6.38192">
        <ele>875.8</ele>
        <time>2024-05-09T12:27:34Z</time>
      </trkpt>
      <trkpt lat="46.91364" lon="6.38193">
        <ele>875.8</ele>
        <time>2024-05-09T12:27:45Z</time>
      </trkpt>
      <trkpt lat="46.91364" lon="6.38193">
        <ele>875.8</ele>
        <time>2024-05-09T12:27:55Z</time>
      </trkpt>
      <trkpt lat="46.91365" lon="6.38192">
        <ele>875.9</ele>
        <time>2024-05-09T12:28:06Z</time>
      </trkpt>
      <trkpt lat="46.91365" lon="6.38192">
        <ele>875.9</ele>
        <time>2024-05-09T12:28:17Z</time>
      </trkpt>
      <trkpt lat="46.91365" lon="6.38192">
        <ele>875.9</ele>
        <time>2024-05-09T12:28:28Z</time>
      </trkpt>
      <trkpt lat="46.91365" lon="6.38192">
        <ele>875.9</ele>
        <time>2024-05-09T12:28:38Z</time>
      </trkpt>
      <trkpt lat="46.91363" lon="6.38192">
        <ele>875.9</ele>
        <time>2024-05-09T12:28:48Z</time>
      </trkpt>
      <trkpt lat="46.91363" lon="6.38192">
        <ele>875.9</ele>
        <time>2024-05-09T12:28:58Z</time>
      </trkpt>
      <trkpt lat="46.91365" lon="6.3819">
        <ele>875.9</ele>
        <time>2024-05-09T12:29:08Z</time>
      </trkpt>
      <trkpt lat="46.91366" lon="6.3819">
        <ele>876</ele>
        <time>2024-05-09T12:29:19Z</time>
      </trkpt>
      <trkpt lat="46.91364" lon="6.38189">
        <ele>876</ele>
        <time>2024-05-09T12:29:29Z</time>
      </trkpt>
      <trkpt lat="46.91363" lon="6.38184">
        <ele>876</ele>
        <time>2024-05-09T12:29:40Z</time>
      </trkpt>
      <trkpt lat="46.91362" lon="6.38192">
        <ele>876</ele>
        <time>2024-05-09T12:29:50Z</time>
      </trkpt>
      <trkpt lat="46.91362" lon="6.38191">
        <ele>876</ele>
        <time>2024-05-09T12:30:01Z</time>
      </trkpt>
      <trkpt lat="46.91362" lon="6.38191">
        <ele>876</ele>
        <time>2024-05-09T12:30:11Z</time>
      </trkpt>
      <trkpt lat="46.91363" lon="6.38193">
        <ele>875.9</ele>
        <time>2024-05-09T12:30:21Z</time>
      </trkpt>
      <trkpt lat="46.91363" lon="6.38193">
        <ele>875.9</ele>
        <time>2024-05-09T12:30:32Z</time>
      </trkpt>
      <trkpt lat="46.91363" lon="6.38193">
        <ele>875.9</ele>
        <time>2024-05-09T12:30:42Z</time>
      </trkpt>
      <trkpt lat="46.91363" lon="6.38193">
        <ele>875.9</ele>
        <time>2024-05-09T12:30:53Z</time>
      </trkpt>
      <trkpt lat="46.91363" lon="6.38193">
        <ele>875.9</ele>
        <time>2024-05-09T12:31:03Z</time>
      </trkpt>
      <trkpt lat="46.91363" lon="6.38193">
        <ele>875.9</ele>
        <time>2024-05-09T12:31:13Z</time>
      </trkpt>
      <trkpt lat="46.91363" lon="6.38193">
        <ele>875.9</ele>
        <time>2024-05-09T12:31:23Z</time>
      </trkpt>
      <trkpt lat="46.91363" lon="6.38193">
        <ele>875.9</ele>
        <time>2024-05-09T12:31:34Z</time>
      </trkpt>
      <trkpt lat="46.91363" lon="6.38193">
        <ele>875.9</ele>
        <time>2024-05-09T12:31:44Z</time>
      </trkpt>
      <trkpt lat="46.91363" lon="6.38193">
        <ele>875.9</ele>
        <time>2024-05-09T12:31:55Z</time>
      </trkpt>
      <trkpt lat="46.91363" lon="6.38193">
        <ele>875.9</ele>
        <time>2024-05-09T12:32:05Z</time>
      </trkpt>
      <trkpt lat="46.91363" lon="6.38193">
        <ele>875.9</ele>
        <time>2024-05-09T12:32:16Z</time>
      </trkpt>
      <trkpt lat="46.91363" lon="6.38193">
        <ele>875.9</ele>
        <time>2024-05-09T12:32:26Z</time>
      </trkpt>
      <trkpt lat="46.91363" lon="6.38193">
        <ele>875.9</ele>
        <time>2024-05-09T12:32:37Z</time>
      </trkpt>
      <trkpt lat="46.91363" lon="6.38193">
        <ele>875.9</ele>
        <time>2024-05-09T12:32:48Z</time>
      </trkpt>
      <trkpt lat="46.91363" lon="6.38193">
        <ele>875.9</ele>
        <time>2024-05-09T12:32:58Z</time>
      </trkpt>
      <trkpt lat="46.91363" lon="6.38193">
        <ele>875.9</ele>
        <time>2024-05-09T12:33:09Z</time>
      </trkpt>
      <trkpt lat="46.91363" lon="6.38193">
        <ele>875.9</ele>
        <time>2024-05-09T12:33:19Z</time>
      </trkpt>
      <trkpt lat="46.91363" lon="6.38193">
        <ele>875.9</ele>
        <time>2024-05-09T12:33:30Z</time>
      </trkpt>
      <trkpt lat="46.91364" lon="6.38193">
        <ele>875.9</ele>
        <time>2024-05-09T12:33:40Z</time>
      </trkpt>
      <trkpt lat="46.91364" lon="6.38193">
        <ele>875.9</ele>
        <time>2024-05-09T12:33:50Z</time>
      </trkpt>
      <trkpt lat="46.91364" lon="6.38193">
        <ele>875.9</ele>
        <time>2024-05-09T12:34:00Z</time>
      </trkpt>
      <trkpt lat="46.91365" lon="6.38193">
        <ele>875.9</ele>
        <time>2024-05-09T12:34:11Z</time>
      </trkpt>
      <trkpt lat="46.91365" lon="6.38193">
        <ele>875.9</ele>
        <time>2024-05-09T12:34:22Z</time>
      </trkpt>
      <trkpt lat="46.91365" lon="6.38193">
        <ele>875.9</ele>
        <time>2024-05-09T12:34:33Z</time>
      </trkpt>
      <trkpt lat="46.91365" lon="6.38193">
        <ele>875.9</ele>
        <time>2024-05-09T12:34:43Z</time>
      </trkpt>
      <trkpt lat="46.91365" lon="6.38193">
        <ele>875.9</ele>
        <time>2024-05-09T12:34:54Z</time>
      </trkpt>
      <trkpt lat="46.91365" lon="6.38193">
        <ele>875.9</ele>
        <time>2024-05-09T12:35:04Z</time>
      </trkpt>
      <trkpt lat="46.91365" lon="6.38193">
        <ele>875.9</ele>
        <time>2024-05-09T12:35:14Z</time>
      </trkpt>
      <trkpt lat="46.91365" lon="6.38193">
        <ele>875.9</ele>
        <time>2024-05-09T12:35:25Z</time>
      </trkpt>
      <trkpt lat="46.91365" lon="6.38193">
        <ele>875.9</ele>
        <time>2024-05-09T12:35:35Z</time>
      </trkpt>
      <trkpt lat="46.91365" lon="6.38193">
        <ele>875.9</ele>
        <time>2024-05-09T12:35:46Z</time>
      </trkpt>
      <trkpt lat="46.91365" lon="6.38193">
        <ele>875.9</ele>
        <time>2024-05-09T12:35:56Z</time>
      </trkpt>
      <trkpt lat="46.91365" lon="6.38193">
        <ele>875.9</ele>
        <time>2024-05-09T12:36:07Z</time>
      </trkpt>
      <trkpt lat="46.91365" lon="6.38193">
        <ele>875.9</ele>
        <time>2024-05-09T12:36:18Z</time>
      </trkpt>
      <trkpt lat="46.91365" lon="6.38193">
        <ele>875.9</ele>
        <time>2024-05-09T12:36:28Z</time>
      </trkpt>
      <trkpt lat="46.91365" lon="6.38193">
        <ele>875.9</ele>
        <time>2024-05-09T12:36:38Z</time>
      </trkpt>
      <trkpt lat="46.91365" lon="6.38193">
        <ele>875.9</ele>
        <time>2024-05-09T12:36:48Z</time>
      </trkpt>
      <trkpt lat="46.91365" lon="6.38193">
        <ele>875.9</ele>
        <time>2024-05-09T12:36:59Z</time>
      </trkpt>
      <trkpt lat="46.91365" lon="6.38193">
        <ele>875.9</ele>
        <time>2024-05-09T12:37:09Z</time>
      </trkpt>
      <trkpt lat="46.91364" lon="6.38194">
        <ele>875.9</ele>
        <time>2024-05-09T12:37:20Z</time>
      </trkpt>
      <trkpt lat="46.91364" lon="6.38194">
        <ele>875.9</ele>
        <time>2024-05-09T12:37:30Z</time>
      </trkpt>
      <trkpt lat="46.91363" lon="6.38195">
        <ele>875.9</ele>
        <time>2024-05-09T12:37:41Z</time>
      </trkpt>
      <trkpt lat="46.91363" lon="6.38195">
        <ele>875.9</ele>
        <time>2024-05-09T12:37:52Z</time>
      </trkpt>
      <trkpt lat="46.91363" lon="6.38194">
        <ele>875.8</ele>
        <time>2024-05-09T12:38:03Z</time>
      </trkpt>
      <trkpt lat="46.91363" lon="6.38194">
        <ele>875.8</ele>
        <time>2024-05-09T12:38:14Z</time>
      </trkpt>
      <trkpt lat="46.91363" lon="6.38194">
        <ele>875.8</ele>
        <time>2024-05-09T12:38:25Z</time>
      </trkpt>
      <trkpt lat="46.91363" lon="6.38194">
        <ele>875.8</ele>
        <time>2024-05-09T12:38:35Z</time>
      </trkpt>
      <trkpt lat="46.91363" lon="6.38194">
        <ele>875.8</ele>
        <time>2024-05-09T12:38:46Z</time>
      </trkpt>
      <trkpt lat="46.91363" lon="6.38194">
        <ele>875.8</ele>
        <time>2024-05-09T12:38:57Z</time>
      </trkpt>
      <trkpt lat="46.91363" lon="6.38194">
        <ele>875.8</ele>
        <time>2024-05-09T12:39:07Z</time>
      </trkpt>
      <trkpt lat="46.91364" lon="6.38193">
        <ele>875.8</ele>
        <time>2024-05-09T12:39:17Z</time>
      </trkpt>
      <trkpt lat="46.91364" lon="6.38193">
        <ele>875.8</ele>
        <time>2024-05-09T12:39:28Z</time>
      </trkpt>
      <trkpt lat="46.91363" lon="6.38197">
        <ele>875.8</ele>
        <time>2024-05-09T12:39:38Z</time>
      </trkpt>
      <trkpt lat="46.91361" lon="6.38198">
        <ele>875.7</ele>
        <time>2024-05-09T12:39:49Z</time>
      </trkpt>
      <trkpt lat="46.91361" lon="6.38198">
        <ele>875.7</ele>
        <time>2024-05-09T12:39:59Z</time>
      </trkpt>
      <trkpt lat="46.91363" lon="6.3821">
        <ele>875.5</ele>
        <time>2024-05-09T12:40:09Z</time>
      </trkpt>
      <trkpt lat="46.91361" lon="6.38218">
        <ele>875.3</ele>
        <time>2024-05-09T12:40:20Z</time>
      </trkpt>
      <trkpt lat="46.91357" lon="6.38225">
        <ele>875</ele>
        <time>2024-05-09T12:40:31Z</time>
      </trkpt>
      <trkpt lat="46.91357" lon="6.38222">
        <ele>874.9</ele>
        <time>2024-05-09T12:40:42Z</time>
      </trkpt>
      <trkpt lat="46.91355" lon="6.38222">
        <ele>874.8</ele>
        <time>2024-05-09T12:40:53Z</time>
      </trkpt>
      <trkpt lat="46.91355" lon="6.38223">
        <ele>874.8</ele>
        <time>2024-05-09T12:41:04Z</time>
      </trkpt>
      <trkpt lat="46.91354" lon="6.38224">
        <ele>874.8</ele>
        <time>2024-05-09T12:41:14Z</time>
      </trkpt>
      <trkpt lat="46.91354" lon="6.38224">
        <ele>874.8</ele>
        <time>2024-05-09T12:41:25Z</time>
      </trkpt>
      <trkpt lat="46.91354" lon="6.38224">
        <ele>874.8</ele>
        <time>2024-05-09T12:41:35Z</time>
      </trkpt>
      <trkpt lat="46.91354" lon="6.38224">
        <ele>874.8</ele>
        <time>2024-05-09T12:41:46Z</time>
      </trkpt>
      <trkpt lat="46.91354" lon="6.38224">
        <ele>874.8</ele>
        <time>2024-05-09T12:41:56Z</time>
      </trkpt>
      <trkpt lat="46.91354" lon="6.38224">
        <ele>874.8</ele>
        <time>2024-05-09T12:42:07Z</time>
      </trkpt>
      <trkpt lat="46.91354" lon="6.38224">
        <ele>874.8</ele>
        <time>2024-05-09T12:42:17Z</time>
      </trkpt>
      <trkpt lat="46.91354" lon="6.38224">
        <ele>874.8</ele>
        <time>2024-05-09T12:42:27Z</time>
      </trkpt>
      <trkpt lat="46.91354" lon="6.38224">
        <ele>874.8</ele>
        <time>2024-05-09T12:42:38Z</time>
      </trkpt>
      <trkpt lat="46.91354" lon="6.38224">
        <ele>874.8</ele>
        <time>2024-05-09T12:42:49Z</time>
      </trkpt>
      <trkpt lat="46.91354" lon="6.38224">
        <ele>874.8</ele>
        <time>2024-05-09T12:43:00Z</time>
      </trkpt>
      <trkpt lat="46.91354" lon="6.38224">
        <ele>874.8</ele>
        <time>2024-05-09T12:43:10Z</time>
      </trkpt>
      <trkpt lat="46.91354" lon="6.38224">
        <ele>874.8</ele>
        <time>2024-05-09T12:43:21Z</time>
      </trkpt>
      <trkpt lat="46.91354" lon="6.38224">
        <ele>874.8</ele>
        <time>2024-05-09T12:43:31Z</time>
      </trkpt>
      <trkpt lat="46.91354" lon="6.38224">
        <ele>874.8</ele>
        <time>2024-05-09T12:43:42Z</time>
      </trkpt>
      <trkpt lat="46.91354" lon="6.38224">
        <ele>874.8</ele>
        <time>2024-05-09T12:43:53Z</time>
      </trkpt>
      <trkpt lat="46.91354" lon="6.38224">
        <ele>874.8</ele>
        <time>2024-05-09T12:44:03Z</time>
      </trkpt>
      <trkpt lat="46.91354" lon="6.38224">
        <ele>874.8</ele>
        <time>2024-05-09T12:44:14Z</time>
      </trkpt>
      <trkpt lat="46.91354" lon="6.38224">
        <ele>874.8</ele>
        <time>2024-05-09T12:44:25Z</time>
      </trkpt>
      <trkpt lat="46.91354" lon="6.38224">
        <ele>874.8</ele>
        <time>2024-05-09T12:44:35Z</time>
      </trkpt>
      <trkpt lat="46.91354" lon="6.38224">
        <ele>874.8</ele>
        <time>2024-05-09T12:44:46Z</time>
      </trkpt>
      <trkpt lat="46.91354" lon="6.38224">
        <ele>874.8</ele>
        <time>2024-05-09T12:44:56Z</time>
      </trkpt>
      <trkpt lat="46.91354" lon="6.38224">
        <ele>874.8</ele>
        <time>2024-05-09T12:45:07Z</time>
      </trkpt>
      <trkpt lat="46.91354" lon="6.38224">
        <ele>874.8</ele>
        <time>2024-05-09T12:45:18Z</time>
      </trkpt>
      <trkpt lat="46.91354" lon="6.38224">
        <ele>874.8</ele>
        <time>2024-05-09T12:45:28Z</time>
      </trkpt>
      <trkpt lat="46.91354" lon="6.38224">
        <ele>874.8</ele>
        <time>2024-05-09T12:45:39Z</time>
      </trkpt>
      <trkpt lat="46.91354" lon="6.38224">
        <ele>874.8</ele>
        <time>2024-05-09T12:45:50Z</time>
      </trkpt>
      <trkpt lat="46.91354" lon="6.38224">
        <ele>874.8</ele>
        <time>2024-05-09T12:46:01Z</time>
      </trkpt>
      <trkpt lat="46.91354" lon="6.38224">
        <ele>874.8</ele>
        <time>2024-05-09T12:46:11Z</time>
      </trkpt>
      <trkpt lat="46.91354" lon="6.38224">
        <ele>874.8</ele>
        <time>2024-05-09T12:46:22Z</time>
      </trkpt>
      <trkpt lat="46.91354" lon="6.38224">
        <ele>874.8</ele>
        <time>2024-05-09T12:46:32Z</time>
      </trkpt>
      <trkpt lat="46.91354" lon="6.38224">
        <ele>874.8</ele>
        <time>2024-05-09T12:46:42Z</time>
      </trkpt>
      <trkpt lat="46.91354" lon="6.38224">
        <ele>874.8</ele>
        <time>2024-05-09T12:46:53Z</time>
      </trkpt>
      <trkpt lat="46.91354" lon="6.38224">
        <ele>874.8</ele>
        <time>2024-05-09T12:47:03Z</time>
      </trkpt>
      <trkpt lat="46.91354" lon="6.38224">
        <ele>874.8</ele>
        <time>2024-05-09T12:47:13Z</time>
      </trkpt>
      <trkpt lat="46.91354" lon="6.38224">
        <ele>874.8</ele>
        <time>2024-05-09T12:47:23Z</time>
      </trkpt>
      <trkpt lat="46.91354" lon="6.38224">
        <ele>874.8</ele>
        <time>2024-05-09T12:47:34Z</time>
      </trkpt>
      <trkpt lat="46.91354" lon="6.38224">
        <ele>874.8</ele>
        <time>2024-05-09T12:47:44Z</time>
      </trkpt>
      <trkpt lat="46.91354" lon="6.38224">
        <ele>874.8</ele>
        <time>2024-05-09T12:47:54Z</time>
      </trkpt>
      <trkpt lat="46.91354" lon="6.38224">
        <ele>874.8</ele>
        <time>2024-05-09T12:48:05Z</time>
      </trkpt>
      <trkpt lat="46.91354" lon="6.38224">
        <ele>874.8</ele>
        <time>2024-05-09T12:48:16Z</time>
      </trkpt>
      <trkpt lat="46.91354" lon="6.38224">
        <ele>874.8</ele>
        <time>2024-05-09T12:48:26Z</time>
      </trkpt>
      <trkpt lat="46.91354" lon="6.38224">
        <ele>874.8</ele>
        <time>2024-05-09T12:48:37Z</time>
      </trkpt>
      <trkpt lat="46.91354" lon="6.38224">
        <ele>874.8</ele>
        <time>2024-05-09T12:48:47Z</time>
      </trkpt>
      <trkpt lat="46.91354" lon="6.38224">
        <ele>874.8</ele>
        <time>2024-05-09T12:48:57Z</time>
      </trkpt>
      <trkpt lat="46.91354" lon="6.38224">
        <ele>874.8</ele>
        <time>2024-05-09T12:49:08Z</time>
      </trkpt>
      <trkpt lat="46.91354" lon="6.38224">
        <ele>874.8</ele>
        <time>2024-05-09T12:49:19Z</time>
      </trkpt>
      <trkpt lat="46.91354" lon="6.38224">
        <ele>874.8</ele>
        <time>2024-05-09T12:49:29Z</time>
      </trkpt>
      <trkpt lat="46.91354" lon="6.38224">
        <ele>874.8</ele>
        <time>2024-05-09T12:49:40Z</time>
      </trkpt>
      <trkpt lat="46.91354" lon="6.38224">
        <ele>874.8</ele>
        <time>2024-05-09T12:49:50Z</time>
      </trkpt>
      <trkpt lat="46.91354" lon="6.38224">
        <ele>874.8</ele>
        <time>2024-05-09T12:50:01Z</time>
      </trkpt>
      <trkpt lat="46.91354" lon="6.38224">
        <ele>874.8</ele>
        <time>2024-05-09T12:50:11Z</time>
      </trkpt>
      <trkpt lat="46.91354" lon="6.38224">
        <ele>874.8</ele>
        <time>2024-05-09T12:50:22Z</time>
      </trkpt>
      <trkpt lat="46.91354" lon="6.38224">
        <ele>874.8</ele>
        <time>2024-05-09T12:50:33Z</time>
      </trkpt>
      <trkpt lat="46.91354" lon="6.38224">
        <ele>874.8</ele>
        <time>2024-05-09T12:50:44Z</time>
      </trkpt>
      <trkpt lat="46.91354" lon="6.38224">
        <ele>874.8</ele>
        <time>2024-05-09T12:50:54Z</time>
      </trkpt>
      <trkpt lat="46.91354" lon="6.38224">
        <ele>874.8</ele>
        <time>2024-05-09T12:51:05Z</time>
      </trkpt>
      <trkpt lat="46.91354" lon="6.38224">
        <ele>874.8</ele>
        <time>2024-05-09T12:51:16Z</time>
      </trkpt>
      <trkpt lat="46.91354" lon="6.38224">
        <ele>874.8</ele>
        <time>2024-05-09T12:51:26Z</time>
      </trkpt>
      <trkpt lat="46.91354" lon="6.38224">
        <ele>874.8</ele>
        <time>2024-05-09T12:51:36Z</time>
      </trkpt>
      <trkpt lat="46.91354" lon="6.38224">
        <ele>874.8</ele>
        <time>2024-05-09T12:51:46Z</time>
      </trkpt>
      <trkpt lat="46.91354" lon="6.38224">
        <ele>874.8</ele>
        <time>2024-05-09T12:51:57Z</time>
      </trkpt>
      <trkpt lat="46.91354" lon="6.38224">
        <ele>874.8</ele>
        <time>2024-05-09T12:52:08Z</time>
      </trkpt>
      <trkpt lat="46.91354" lon="6.38224">
        <ele>874.8</ele>
        <time>2024-05-09T12:52:19Z</time>
      </trkpt>
      <trkpt lat="46.91354" lon="6.38224">
        <ele>874.8</ele>
        <time>2024-05-09T12:52:30Z</time>
      </trkpt>
      <trkpt lat="46.91354" lon="6.38224">
        <ele>874.8</ele>
        <time>2024-05-09T12:52:40Z</time>
      </trkpt>
      <trkpt lat="46.91354" lon="6.38224">
        <ele>874.8</ele>
        <time>2024-05-09T12:52:50Z</time>
      </trkpt>
      <trkpt lat="46.91354" lon="6.38224">
        <ele>874.8</ele>
        <time>2024-05-09T12:53:01Z</time>
      </trkpt>
      <trkpt lat="46.91354" lon="6.38224">
        <ele>874.8</ele>
        <time>2024-05-09T12:53:11Z</time>
      </trkpt>
      <trkpt lat="46.91354" lon="6.38224">
        <ele>874.8</ele>
        <time>2024-05-09T12:53:22Z</time>
      </trkpt>
      <trkpt lat="46.91354" lon="6.38224">
        <ele>874.8</ele>
        <time>2024-05-09T12:53:33Z</time>
      </trkpt>
      <trkpt lat="46.91354" lon="6.38224">
        <ele>874.8</ele>
        <time>2024-05-09T12:53:43Z</time>
      </trkpt>
      <trkpt lat="46.91354" lon="6.38224">
        <ele>874.8</ele>
        <time>2024-05-09T12:53:54Z</time>
      </trkpt>
      <trkpt lat="46.91354" lon="6.38224">
        <ele>874.8</ele>
        <time>2024-05-09T12:54:04Z</time>
      </trkpt>
      <trkpt lat="46.91354" lon="6.38224">
        <ele>874.8</ele>
        <time>2024-05-09T12:54:15Z</time>
      </trkpt>
      <trkpt lat="46.91355" lon="6.38224">
        <ele>874.7</ele>
        <time>2024-05-09T12:54:26Z</time>
      </trkpt>
      <trkpt lat="46.91355" lon="6.38223">
        <ele>874.7</ele>
        <time>2024-05-09T12:54:37Z</time>
      </trkpt>
      <trkpt lat="46.91355" lon="6.38223">
        <ele>874.7</ele>
        <time>2024-05-09T12:54:48Z</time>
      </trkpt>
      <trkpt lat="46.91355" lon="6.38223">
        <ele>874.7</ele>
        <time>2024-05-09T12:54:58Z</time>
      </trkpt>
      <trkpt lat="46.91355" lon="6.38223">
        <ele>874.7</ele>
        <time>2024-05-09T12:55:08Z</time>
      </trkpt>
      <trkpt lat="46.91355" lon="6.38223">
        <ele>874.7</ele>
        <time>2024-05-09T12:55:19Z</time>
      </trkpt>
      <trkpt lat="46.91355" lon="6.38223">
        <ele>874.7</ele>
        <time>2024-05-09T12:55:30Z</time>
      </trkpt>
      <trkpt lat="46.91355" lon="6.38223">
        <ele>874.7</ele>
        <time>2024-05-09T12:55:40Z</time>
      </trkpt>
      <trkpt lat="46.91355" lon="6.38223">
        <ele>874.7</ele>
        <time>2024-05-09T12:55:51Z</time>
      </trkpt>
      <trkpt lat="46.91355" lon="6.38223">
        <ele>874.7</ele>
        <time>2024-05-09T12:56:01Z</time>
      </trkpt>
      <trkpt lat="46.91355" lon="6.38223">
        <ele>874.7</ele>
        <time>2024-05-09T12:56:12Z</time>
      </trkpt>
      <trkpt lat="46.91355" lon="6.38223">
        <ele>874.7</ele>
        <time>2024-05-09T12:56:22Z</time>
      </trkpt>
      <trkpt lat="46.91354" lon="6.38222">
        <ele>874.6</ele>
        <time>2024-05-09T12:56:33Z</time>
      </trkpt>
      <trkpt lat="46.91354" lon="6.38222">
        <ele>874.6</ele>
        <time>2024-05-09T12:56:44Z</time>
      </trkpt>
      <trkpt lat="46.91355" lon="6.38222">
        <ele>874.6</ele>
        <time>2024-05-09T12:56:54Z</time>
      </trkpt>
      <trkpt lat="46.91355" lon="6.38223">
        <ele>874.6</ele>
        <time>2024-05-09T12:57:05Z</time>
      </trkpt>
      <trkpt lat="46.91355" lon="6.38223">
        <ele>874.6</ele>
        <time>2024-05-09T12:57:15Z</time>
      </trkpt>
      <trkpt lat="46.91355" lon="6.38223">
        <ele>874.6</ele>
        <time>2024-05-09T12:57:26Z</time>
      </trkpt>
      <trkpt lat="46.91355" lon="6.38223">
        <ele>874.6</ele>
        <time>2024-05-09T12:57:36Z</time>
      </trkpt>
      <trkpt lat="46.91355" lon="6.38223">
        <ele>874.6</ele>
        <time>2024-05-09T12:57:47Z</time>
      </trkpt>
      <trkpt lat="46.91355" lon="6.38223">
        <ele>874.6</ele>
        <time>2024-05-09T12:57:58Z</time>
      </trkpt>
      <trkpt lat="46.91355" lon="6.38223">
        <ele>874.6</ele>
        <time>2024-05-09T12:58:09Z</time>
      </trkpt>
      <trkpt lat="46.91355" lon="6.38223">
        <ele>874.6</ele>
        <time>2024-05-09T12:58:20Z</time>
      </trkpt>
      <trkpt lat="46.91355" lon="6.38223">
        <ele>874.6</ele>
        <time>2024-05-09T12:58:30Z</time>
      </trkpt>
      <trkpt lat="46.91355" lon="6.38223">
        <ele>874.6</ele>
        <time>2024-05-09T12:58:41Z</time>
      </trkpt>
      <trkpt lat="46.91355" lon="6.38223">
        <ele>874.6</ele>
        <time>2024-05-09T12:58:52Z</time>
      </trkpt>
      <trkpt lat="46.91355" lon="6.38223">
        <ele>874.6</ele>
        <time>2024-05-09T12:59:02Z</time>
      </trkpt>
      <trkpt lat="46.91355" lon="6.38223">
        <ele>874.6</ele>
        <time>2024-05-09T12:59:13Z</time>
      </trkpt>
      <trkpt lat="46.91355" lon="6.38223">
        <ele>874.6</ele>
        <time>2024-05-09T12:59:24Z</time>
      </trkpt>
      <trkpt lat="46.91355" lon="6.38223">
        <ele>874.6</ele>
        <time>2024-05-09T12:59:34Z</time>
      </trkpt>
      <trkpt lat="46.91355" lon="6.38223">
        <ele>874.6</ele>
        <time>2024-05-09T12:59:45Z</time>
      </trkpt>
      <trkpt lat="46.91356" lon="6.38223">
        <ele>874.5</ele>
        <time>2024-05-09T12:59:56Z</time>
      </trkpt>
      <trkpt lat="46.91357" lon="6.38224">
        <ele>874.4</ele>
        <time>2024-05-09T13:00:07Z</time>
      </trkpt>
      <trkpt lat="46.91357" lon="6.38224">
        <ele>874.4</ele>
        <time>2024-05-09T13:00:18Z</time>
      </trkpt>
      <trkpt lat="46.91357" lon="6.38224">
        <ele>874.4</ele>
        <time>2024-05-09T13:00:29Z</time>
      </trkpt>
      <trkpt lat="46.91357" lon="6.38224">
        <ele>874.4</ele>
        <time>2024-05-09T13:00:40Z</time>
      </trkpt>
      <trkpt lat="46.91357" lon="6.38224">
        <ele>874.4</ele>
        <time>2024-05-09T13:00:50Z</time>
      </trkpt>
      <trkpt lat="46.91358" lon="6.38227">
        <ele>874.3</ele>
        <time>2024-05-09T13:01:01Z</time>
      </trkpt>
      <trkpt lat="46.91358" lon="6.38227">
        <ele>874.3</ele>
        <time>2024-05-09T13:01:12Z</time>
      </trkpt>
      <trkpt lat="46.91358" lon="6.38227">
        <ele>874.3</ele>
        <time>2024-05-09T13:01:23Z</time>
      </trkpt>
      <trkpt lat="46.91358" lon="6.38227">
        <ele>874.3</ele>
        <time>2024-05-09T13:01:34Z</time>
      </trkpt>
      <trkpt lat="46.91358" lon="6.38227">
        <ele>874.3</ele>
        <time>2024-05-09T13:01:45Z</time>
      </trkpt>
      <trkpt lat="46.91358" lon="6.38228">
        <ele>874.3</ele>
        <time>2024-05-09T13:01:56Z</time>
      </trkpt>
      <trkpt lat="46.91358" lon="6.38228">
        <ele>874.3</ele>
        <time>2024-05-09T13:02:06Z</time>
      </trkpt>
      <trkpt lat="46.91358" lon="6.38228">
        <ele>874.3</ele>
        <time>2024-05-09T13:02:17Z</time>
      </trkpt>
      <trkpt lat="46.91358" lon="6.38228">
        <ele>874.3</ele>
        <time>2024-05-09T13:02:27Z</time>
      </trkpt>
      <trkpt lat="46.91357" lon="6.38229">
        <ele>874.2</ele>
        <time>2024-05-09T13:02:37Z</time>
      </trkpt>
      <trkpt lat="46.91357" lon="6.38229">
        <ele>874.2</ele>
        <time>2024-05-09T13:02:47Z</time>
      </trkpt>
      <trkpt lat="46.91357" lon="6.38229">
        <ele>874.2</ele>
        <time>2024-05-09T13:02:57Z</time>
      </trkpt>
      <trkpt lat="46.91357" lon="6.38229">
        <ele>874.2</ele>
        <time>2024-05-09T13:03:07Z</time>
      </trkpt>
      <trkpt lat="46.91357" lon="6.38229">
        <ele>874.2</ele>
        <time>2024-05-09T13:03:18Z</time>
      </trkpt>
      <trkpt lat="46.91357" lon="6.38229">
        <ele>874.2</ele>
        <time>2024-05-09T13:03:28Z</time>
      </trkpt>
      <trkpt lat="46.91357" lon="6.38229">
        <ele>874.2</ele>
        <time>2024-05-09T13:03:39Z</time>
      </trkpt>
      <trkpt lat="46.91357" lon="6.38229">
        <ele>874.2</ele>
        <time>2024-05-09T13:03:50Z</time>
      </trkpt>
      <trkpt lat="46.91357" lon="6.38229">
        <ele>874.2</ele>
        <time>2024-05-09T13:04:01Z</time>
      </trkpt>
      <trkpt lat="46.91357" lon="6.38229">
        <ele>874.2</ele>
        <time>2024-05-09T13:04:11Z</time>
      </trkpt>
      <trkpt lat="46.91357" lon="6.38229">
        <ele>874.2</ele>
        <time>2024-05-09T13:04:21Z</time>
      </trkpt>
      <trkpt lat="46.91357" lon="6.38229">
        <ele>874.2</ele>
        <time>2024-05-09T13:04:32Z</time>
      </trkpt>
      <trkpt lat="46.91356" lon="6.38229">
        <ele>874.2</ele>
        <time>2024-05-09T13:04:43Z</time>
      </trkpt>
      <trkpt lat="46.91356" lon="6.38229">
        <ele>874.2</ele>
        <time>2024-05-09T13:04:53Z</time>
      </trkpt>
      <trkpt lat="46.91356" lon="6.38229">
        <ele>874.2</ele>
        <time>2024-05-09T13:05:03Z</time>
      </trkpt>
      <trkpt lat="46.91356" lon="6.38229">
        <ele>874.2</ele>
        <time>2024-05-09T13:05:14Z</time>
      </trkpt>
      <trkpt lat="46.91356" lon="6.38229">
        <ele>874.2</ele>
        <time>2024-05-09T13:05:25Z</time>
      </trkpt>
      <trkpt lat="46.91356" lon="6.38229">
        <ele>874.2</ele>
        <time>2024-05-09T13:05:35Z</time>
      </trkpt>
      <trkpt lat="46.91356" lon="6.38229">
        <ele>874.2</ele>
        <time>2024-05-09T13:05:46Z</time>
      </trkpt>
      <trkpt lat="46.91356" lon="6.38229">
        <ele>874.2</ele>
        <time>2024-05-09T13:05:57Z</time>
      </trkpt>
      <trkpt lat="46.91356" lon="6.38229">
        <ele>874.2</ele>
        <time>2024-05-09T13:06:07Z</time>
      </trkpt>
      <trkpt lat="46.91356" lon="6.38229">
        <ele>874.2</ele>
        <time>2024-05-09T13:06:18Z</time>
      </trkpt>
      <trkpt lat="46.91356" lon="6.38228">
        <ele>874.2</ele>
        <time>2024-05-09T13:06:29Z</time>
      </trkpt>
      <trkpt lat="46.91349" lon="6.38228">
        <ele>873.8</ele>
        <time>2024-05-09T13:06:40Z</time>
      </trkpt>
      <trkpt lat="46.91325" lon="6.38213">
        <ele>871.7</ele>
        <time>2024-05-09T13:06:51Z</time>
      </trkpt>
      <trkpt lat="46.91293" lon="6.38154">
        <ele>868.4</ele>
        <time>2024-05-09T13:07:01Z</time>
      </trkpt>
      <trkpt lat="46.9125" lon="6.38073">
        <ele>864</ele>
        <time>2024-05-09T13:07:12Z</time>
      </trkpt>
      <trkpt lat="46.91191" lon="6.37975">
        <ele>858.7</ele>
        <time>2024-05-09T13:07:23Z</time>
      </trkpt>
      <trkpt lat="46.91123" lon="6.37878">
        <ele>853.5</ele>
        <time>2024-05-09T13:07:34Z</time>
      </trkpt>
      <trkpt lat="46.9107" lon="6.378">
        <ele>849.2</ele>
        <time>2024-05-09T13:07:44Z</time>
      </trkpt>
      <trkpt lat="46.9102" lon="6.37728">
        <ele>847.5</ele>
        <time>2024-05-09T13:07:54Z</time>
      </trkpt>
      <trkpt lat="46.90963" lon="6.37675">
        <ele>846.3</ele>
        <time>2024-05-09T13:08:05Z</time>
      </trkpt>
      <trkpt lat="46.90897" lon="6.37624">
        <ele>843.9</ele>
        <time>2024-05-09T13:08:16Z</time>
      </trkpt>
      <trkpt lat="46.90841" lon="6.37566">
        <ele>842.9</ele>
        <time>2024-05-09T13:08:27Z</time>
      </trkpt>
      <trkpt lat="46.90789" lon="6.37496">
        <ele>841.7</ele>
        <time>2024-05-09T13:08:38Z</time>
      </trkpt>
      <trkpt lat="46.90745" lon="6.37434">
        <ele>840.6</ele>
        <time>2024-05-09T13:08:48Z</time>
      </trkpt>
      <trkpt lat="46.907" lon="6.37362">
        <ele>839.9</ele>
        <time>2024-05-09T13:09:00Z</time>
      </trkpt>
      <trkpt lat="46.90677" lon="6.37332">
        <ele>839.6</ele>
        <time>2024-05-09T13:09:10Z</time>
      </trkpt>
      <trkpt lat="46.90705" lon="6.3738">
        <ele>840</ele>
        <time>2024-05-09T13:09:21Z</time>
      </trkpt>
      <trkpt lat="46.90735" lon="6.37427">
        <ele>840.4</ele>
        <time>2024-05-09T13:09:31Z</time>
      </trkpt>
      <trkpt lat="46.90771" lon="6.37477">
        <ele>841.3</ele>
        <time>2024-05-09T13:09:42Z</time>
      </trkpt>
      <trkpt lat="46.90808" lon="6.37527">
        <ele>842.2</ele>
        <time>2024-05-09T13:09:53Z</time>
      </trkpt>
      <trkpt lat="46.90842" lon="6.37572">
        <ele>842.9</ele>
        <time>2024-05-09T13:10:03Z</time>
      </trkpt>
      <trkpt lat="46.90882" lon="6.37616">
        <ele>843.6</ele>
        <time>2024-05-09T13:10:14Z</time>
      </trkpt>
      <trkpt lat="46.90895" lon="6.37681">
        <ele>844.4</ele>
        <time>2024-05-09T13:10:24Z</time>
      </trkpt>
      <trkpt lat="46.90884" lon="6.37738">
        <ele>846</ele>
        <time>2024-05-09T13:10:35Z</time>
      </trkpt>
      <trkpt lat="46.90868" lon="6.37773">
        <ele>848.3</ele>
        <time>2024-05-09T13:10:46Z</time>
      </trkpt>
      <trkpt lat="46.90857" lon="6.37798">
        <ele>850.4</ele>
        <time>2024-05-09T13:10:56Z</time>
      </trkpt>
      <trkpt lat="46.90843" lon="6.37826">
        <ele>852.5</ele>
        <time>2024-05-09T13:11:07Z</time>
      </trkpt>
      <trkpt lat="46.90827" lon="6.37853">
        <ele>854.3</ele>
        <time>2024-05-09T13:11:18Z</time>
      </trkpt>
      <trkpt lat="46.90803" lon="6.3787">
        <ele>855.6</ele>
        <time>2024-05-09T13:11:29Z</time>
      </trkpt>
      <trkpt lat="46.90774" lon="6.3787">
        <ele>856.6</ele>
        <time>2024-05-09T13:11:40Z</time>
      </trkpt>
      <trkpt lat="46.90747" lon="6.37864">
        <ele>857.8</ele>
        <time>2024-05-09T13:11:50Z</time>
      </trkpt>
      <trkpt lat="46.90719" lon="6.37857">
        <ele>859.2</ele>
        <time>2024-05-09T13:12:01Z</time>
      </trkpt>
      <trkpt lat="46.90694" lon="6.37848">
        <ele>860.4</ele>
        <time>2024-05-09T13:12:11Z</time>
      </trkpt>
      <trkpt lat="46.90668" lon="6.37829">
        <ele>861.9</ele>
        <time>2024-05-09T13:12:22Z</time>
      </trkpt>
      <trkpt lat="46.90643" lon="6.37807">
        <ele>863.5</ele>
        <time>2024-05-09T13:12:33Z</time>
      </trkpt>
      <trkpt lat="46.90619" lon="6.37782">
        <ele>864.9</ele>
        <time>2024-05-09T13:12:44Z</time>
      </trkpt>
      <trkpt lat="46.90592" lon="6.37757">
        <ele>866.2</ele>
        <time>2024-05-09T13:12:55Z</time>
      </trkpt>
      <trkpt lat="46.90569" lon="6.37731">
        <ele>867.7</ele>
        <time>2024-05-09T13:13:06Z</time>
      </trkpt>
      <trkpt lat="46.90547" lon="6.37702">
        <ele>868.8</ele>
        <time>2024-05-09T13:13:16Z</time>
      </trkpt>
      <trkpt lat="46.90523" lon="6.37676">
        <ele>870.6</ele>
        <time>2024-05-09T13:13:27Z</time>
      </trkpt>
      <trkpt lat="46.90502" lon="6.37657">
        <ele>872.4</ele>
        <time>2024-05-09T13:13:38Z</time>
      </trkpt>
      <trkpt lat="46.90488" lon="6.3763">
        <ele>874</ele>
        <time>2024-05-09T13:13:48Z</time>
      </trkpt>
      <trkpt lat="46.90484" lon="6.37598">
        <ele>875.4</ele>
        <time>2024-05-09T13:13:58Z</time>
      </trkpt>
      <trkpt lat="46.9048" lon="6.37559">
        <ele>876.7</ele>
        <time>2024-05-09T13:14:09Z</time>
      </trkpt>
      <trkpt lat="46.90473" lon="6.37506">
        <ele>876.6</ele>
        <time>2024-05-09T13:14:20Z</time>
      </trkpt>
      <trkpt lat="46.90467" lon="6.37442">
        <ele>875.6</ele>
        <time>2024-05-09T13:14:31Z</time>
      </trkpt>
      <trkpt lat="46.90468" lon="6.37388">
        <ele>874.8</ele>
        <time>2024-05-09T13:14:41Z</time>
      </trkpt>
      <trkpt lat="46.90476" lon="6.37319">
        <ele>872.3</ele>
        <time>2024-05-09T13:14:52Z</time>
      </trkpt>
      <trkpt lat="46.90483" lon="6.37228">
        <ele>867</ele>
        <time>2024-05-09T13:15:02Z</time>
      </trkpt>
      <trkpt lat="46.90474" lon="6.37149">
        <ele>866.8</ele>
        <time>2024-05-09T13:15:13Z</time>
      </trkpt>
      <trkpt lat="46.90459" lon="6.3711">
        <ele>868.6</ele>
        <time>2024-05-09T13:15:23Z</time>
      </trkpt>
      <trkpt lat="46.90439" lon="6.37127">
        <ele>867.8</ele>
        <time>2024-05-09T13:15:34Z</time>
      </trkpt>
      <trkpt lat="46.90401" lon="6.37147">
        <ele>866.2</ele>
        <time>2024-05-09T13:15:44Z</time>
      </trkpt>
      <trkpt lat="46.90348" lon="6.37157">
        <ele>864.5</ele>
        <time>2024-05-09T13:15:55Z</time>
      </trkpt>
      <trkpt lat="46.90319" lon="6.37203">
        <ele>864.9</ele>
        <time>2024-05-09T13:16:05Z</time>
      </trkpt>
      <trkpt lat="46.90296" lon="6.37254">
        <ele>865.4</ele>
        <time>2024-05-09T13:16:15Z</time>
      </trkpt>
      <trkpt lat="46.90272" lon="6.37303">
        <ele>866.3</ele>
        <time>2024-05-09T13:16:26Z</time>
      </trkpt>
      <trkpt lat="46.90257" lon="6.37347">
        <ele>867.9</ele>
        <time>2024-05-09T13:16:36Z</time>
      </trkpt>
      <trkpt lat="46.90253" lon="6.37388">
        <ele>870.1</ele>
        <time>2024-05-09T13:16:47Z</time>
      </trkpt>
      <trkpt lat="46.90248" lon="6.37419">
        <ele>872.2</ele>
        <time>2024-05-09T13:16:57Z</time>
      </trkpt>
      <trkpt lat="46.9024" lon="6.37447">
        <ele>874.3</ele>
        <time>2024-05-09T13:17:07Z</time>
      </trkpt>
      <trkpt lat="46.90233" lon="6.37477">
        <ele>876.7</ele>
        <time>2024-05-09T13:17:18Z</time>
      </trkpt>
      <trkpt lat="46.90226" lon="6.37503">
        <ele>878.6</ele>
        <time>2024-05-09T13:17:28Z</time>
      </trkpt>
      <trkpt lat="46.90219" lon="6.37532">
        <ele>880.2</ele>
        <time>2024-05-09T13:17:39Z</time>
      </trkpt>
      <trkpt lat="46.9021" lon="6.37563">
        <ele>881.8</ele>
        <time>2024-05-09T13:17:50Z</time>
      </trkpt>
      <trkpt lat="46.90204" lon="6.37596">
        <ele>883.7</ele>
        <time>2024-05-09T13:18:01Z</time>
      </trkpt>
      <trkpt lat="46.90198" lon="6.37629">
        <ele>885.6</ele>
        <time>2024-05-09T13:18:12Z</time>
      </trkpt>
      <trkpt lat="46.90195" lon="6.3766">
        <ele>887.4</ele>
        <time>2024-05-09T13:18:22Z</time>
      </trkpt>
      <trkpt lat="46.90189" lon="6.37692">
        <ele>889.5</ele>
        <time>2024-05-09T13:18:33Z</time>
      </trkpt>
      <trkpt lat="46.90173" lon="6.37716">
        <ele>892</ele>
        <time>2024-05-09T13:18:44Z</time>
      </trkpt>
      <trkpt lat="46.90157" lon="6.37736">
        <ele>894.3</ele>
        <time>2024-05-09T13:18:55Z</time>
      </trkpt>
      <trkpt lat="46.90142" lon="6.37744">
        <ele>896.5</ele>
        <time>2024-05-09T13:19:05Z</time>
      </trkpt>
      <trkpt lat="46.90135" lon="6.3775">
        <ele>897.2</ele>
        <time>2024-05-09T13:19:16Z</time>
      </trkpt>
      <trkpt lat="46.90133" lon="6.37752">
        <ele>897.7</ele>
        <time>2024-05-09T13:19:26Z</time>
      </trkpt>
      <trkpt lat="46.90133" lon="6.37749">
        <ele>897.8</ele>
        <time>2024-05-09T13:19:36Z</time>
      </trkpt>
      <trkpt lat="46.90131" lon="6.37749">
        <ele>897.9</ele>
        <time>2024-05-09T13:19:47Z</time>
      </trkpt>
      <trkpt lat="46.90131" lon="6.37749">
        <ele>897.9</ele>
        <time>2024-05-09T13:19:58Z</time>
      </trkpt>
      <trkpt lat="46.90122" lon="6.3775">
        <ele>898.5</ele>
        <time>2024-05-09T13:20:09Z</time>
      </trkpt>
      <trkpt lat="46.90118" lon="6.37752">
        <ele>898.8</ele>
        <time>2024-05-09T13:20:20Z</time>
      </trkpt>
      <trkpt lat="46.90101" lon="6.37741">
        <ele>899.9</ele>
        <time>2024-05-09T13:20:31Z</time>
      </trkpt>
      <trkpt lat="46.90087" lon="6.37731">
        <ele>900.9</ele>
        <time>2024-05-09T13:20:41Z</time>
      </trkpt>
      <trkpt lat="46.9007" lon="6.37727">
        <ele>901.9</ele>
        <time>2024-05-09T13:20:52Z</time>
      </trkpt>
      <trkpt lat="46.90054" lon="6.3772">
        <ele>902.7</ele>
        <time>2024-05-09T13:21:03Z</time>
      </trkpt>
      <trkpt lat="46.90054" lon="6.3772">
        <ele>902.7</ele>
        <time>2024-05-09T13:21:14Z</time>
      </trkpt>
      <trkpt lat="46.90054" lon="6.3772">
        <ele>902.7</ele>
        <time>2024-05-09T13:21:24Z</time>
      </trkpt>
      <trkpt lat="46.90054" lon="6.3772">
        <ele>902.7</ele>
        <time>2024-05-09T13:21:35Z</time>
      </trkpt>
      <trkpt lat="46.90054" lon="6.37721">
        <ele>902.7</ele>
        <time>2024-05-09T13:21:46Z</time>
      </trkpt>
      <trkpt lat="46.90054" lon="6.37721">
        <ele>902.7</ele>
        <time>2024-05-09T13:21:57Z</time>
      </trkpt>
      <trkpt lat="46.90053" lon="6.37721">
        <ele>902.7</ele>
        <time>2024-05-09T13:22:08Z</time>
      </trkpt>
      <trkpt lat="46.90053" lon="6.37721">
        <ele>902.7</ele>
        <time>2024-05-09T13:22:19Z</time>
      </trkpt>
      <trkpt lat="46.9006" lon="6.37721">
        <ele>902.5</ele>
        <time>2024-05-09T13:22:29Z</time>
      </trkpt>
      <trkpt lat="46.90061" lon="6.37722">
        <ele>902.4</ele>
        <time>2024-05-09T13:22:39Z</time>
      </trkpt>
      <trkpt lat="46.90063" lon="6.37724">
        <ele>902.3</ele>
        <time>2024-05-09T13:22:50Z</time>
      </trkpt>
      <trkpt lat="46.90065" lon="6.37725">
        <ele>902.2</ele>
        <time>2024-05-09T13:23:01Z</time>
      </trkpt>
      <trkpt lat="46.90066" lon="6.37727">
        <ele>902.1</ele>
        <time>2024-05-09T13:23:12Z</time>
      </trkpt>
      <trkpt lat="46.90068" lon="6.3773">
        <ele>902</ele>
        <time>2024-05-09T13:23:23Z</time>
      </trkpt>
      <trkpt lat="46.90069" lon="6.3773">
        <ele>901.9</ele>
        <time>2024-05-09T13:23:34Z</time>
      </trkpt>
      <trkpt lat="46.90069" lon="6.3773">
        <ele>901.9</ele>
        <time>2024-05-09T13:23:45Z</time>
      </trkpt>
      <trkpt lat="46.90071" lon="6.37728">
        <ele>901.8</ele>
        <time>2024-05-09T13:23:56Z</time>
      </trkpt>
      <trkpt lat="46.90071" lon="6.37728">
        <ele>901.8</ele>
        <time>2024-05-09T13:24:06Z</time>
      </trkpt>
      <trkpt lat="46.90072" lon="6.37728">
        <ele>901.7</ele>
        <time>2024-05-09T13:24:16Z</time>
      </trkpt>
      <trkpt lat="46.90072" lon="6.37728">
        <ele>901.7</ele>
        <time>2024-05-09T13:24:26Z</time>
      </trkpt>
      <trkpt lat="46.90072" lon="6.37728">
        <ele>901.7</ele>
        <time>2024-05-09T13:24:37Z</time>
      </trkpt>
      <trkpt lat="46.90072" lon="6.37728">
        <ele>901.7</ele>
        <time>2024-05-09T13:24:48Z</time>
      </trkpt>
      <trkpt lat="46.90072" lon="6.37728">
        <ele>901.7</ele>
        <time>2024-05-09T13:24:59Z</time>
      </trkpt>
      <trkpt lat="46.90072" lon="6.37728">
        <ele>901.7</ele>
        <time>2024-05-09T13:25:09Z</time>
      </trkpt>
      <trkpt lat="46.90072" lon="6.37728">
        <ele>901.7</ele>
        <time>2024-05-09T13:25:19Z</time>
      </trkpt>
      <trkpt lat="46.90072" lon="6.37728">
        <ele>901.7</ele>
        <time>2024-05-09T13:25:29Z</time>
      </trkpt>
      <trkpt lat="46.90072" lon="6.37728">
        <ele>901.7</ele>
        <time>2024-05-09T13:25:40Z</time>
      </trkpt>
      <trkpt lat="46.90072" lon="6.37728">
        <ele>901.7</ele>
        <time>2024-05-09T13:25:51Z</time>
      </trkpt>
      <trkpt lat="46.90072" lon="6.37728">
        <ele>901.7</ele>
        <time>2024-05-09T13:26:02Z</time>
      </trkpt>
      <trkpt lat="46.90072" lon="6.37728">
        <ele>901.7</ele>
        <time>2024-05-09T13:26:12Z</time>
      </trkpt>
      <trkpt lat="46.90072" lon="6.37728">
        <ele>901.7</ele>
        <time>2024-05-09T13:26:23Z</time>
      </trkpt>
      <trkpt lat="46.90072" lon="6.37728">
        <ele>901.7</ele>
        <time>2024-05-09T13:26:34Z</time>
      </trkpt>
      <trkpt lat="46.90072" lon="6.37728">
        <ele>901.7</ele>
        <time>2024-05-09T13:26:44Z</time>
      </trkpt>
      <trkpt lat="46.90072" lon="6.37728">
        <ele>901.7</ele>
        <time>2024-05-09T13:26:55Z</time>
      </trkpt>
      <trkpt lat="46.90072" lon="6.37728">
        <ele>901.7</ele>
        <time>2024-05-09T13:27:05Z</time>
      </trkpt>
      <trkpt lat="46.90072" lon="6.37728">
        <ele>901.7</ele>
        <time>2024-05-09T13:27:15Z</time>
      </trkpt>
      <trkpt lat="46.90072" lon="6.37728">
        <ele>901.7</ele>
        <time>2024-05-09T13:27:26Z</time>
      </trkpt>
      <trkpt lat="46.90072" lon="6.37728">
        <ele>901.7</ele>
        <time>2024-05-09T13:27:37Z</time>
      </trkpt>
      <trkpt lat="46.90072" lon="6.37728">
        <ele>901.7</ele>
        <time>2024-05-09T13:27:48Z</time>
      </trkpt>
      <trkpt lat="46.90072" lon="6.37728">
        <ele>901.7</ele>
        <time>2024-05-09T13:27:59Z</time>
      </trkpt>
      <trkpt lat="46.90095" lon="6.37738">
        <ele>900.2</ele>
        <time>2024-05-09T13:28:10Z</time>
      </trkpt>
      <trkpt lat="46.90121" lon="6.37751">
        <ele>898.6</ele>
        <time>2024-05-09T13:28:21Z</time>
      </trkpt>
      <trkpt lat="46.90131" lon="6.37745">
        <ele>897.7</ele>
        <time>2024-05-09T13:28:32Z</time>
      </trkpt>
      <trkpt lat="46.90131" lon="6.37747">
        <ele>896.7</ele>
        <time>2024-05-09T13:28:43Z</time>
      </trkpt>
      <trkpt lat="46.90131" lon="6.37747">
        <ele>896.7</ele>
        <time>2024-05-09T13:28:53Z</time>
      </trkpt>
      <trkpt lat="46.90125" lon="6.37723">
        <ele>895.6</ele>
        <time>2024-05-09T13:29:03Z</time>
      </trkpt>
      <trkpt lat="46.90098" lon="6.37686">
        <ele>893.6</ele>
        <time>2024-05-09T13:29:13Z</time>
      </trkpt>
      <trkpt lat="46.90065" lon="6.37671">
        <ele>893.1</ele>
        <time>2024-05-09T13:29:24Z</time>
      </trkpt>
      <trkpt lat="46.9002" lon="6.37649">
        <ele>890.6</ele>
        <time>2024-05-09T13:29:35Z</time>
      </trkpt>
      <trkpt lat="46.89988" lon="6.37615">
        <ele>889.2</ele>
        <time>2024-05-09T13:29:45Z</time>
      </trkpt>
      <trkpt lat="46.8998" lon="6.37574">
        <ele>886.6</ele>
        <time>2024-05-09T13:29:56Z</time>
      </trkpt>
      <trkpt lat="46.89958" lon="6.37538">
        <ele>882.4</ele>
        <time>2024-05-09T13:30:07Z</time>
      </trkpt>
      <trkpt lat="46.89945" lon="6.37542">
        <ele>881.7</ele>
        <time>2024-05-09T13:30:17Z</time>
      </trkpt>
      <trkpt lat="46.89916" lon="6.37557">
        <ele>881.4</ele>
        <time>2024-05-09T13:30:28Z</time>
      </trkpt>
      <trkpt lat="46.89894" lon="6.37541">
        <ele>882.3</ele>
        <time>2024-05-09T13:30:39Z</time>
      </trkpt>
      <trkpt lat="46.89898" lon="6.37514">
        <ele>885</ele>
        <time>2024-05-09T13:30:50Z</time>
      </trkpt>
      <trkpt lat="46.89892" lon="6.37494">
        <ele>887.1</ele>
        <time>2024-05-09T13:31:01Z</time>
      </trkpt>
      <trkpt lat="46.89884" lon="6.37489">
        <ele>888.1</ele>
        <time>2024-05-09T13:31:12Z</time>
      </trkpt>
      <trkpt lat="46.89884" lon="6.37489">
        <ele>888.1</ele>
        <time>2024-05-09T13:31:22Z</time>
      </trkpt>
      <trkpt lat="46.89884" lon="6.37489">
        <ele>888.1</ele>
        <time>2024-05-09T13:31:33Z</time>
      </trkpt>
      <trkpt lat="46.89884" lon="6.37489">
        <ele>888.1</ele>
        <time>2024-05-09T13:31:43Z</time>
      </trkpt>
      <trkpt lat="46.89884" lon="6.37489">
        <ele>888.1</ele>
        <time>2024-05-09T13:31:53Z</time>
      </trkpt>
      <trkpt lat="46.89884" lon="6.37489">
        <ele>888.1</ele>
        <time>2024-05-09T13:32:03Z</time>
      </trkpt>
      <trkpt lat="46.89884" lon="6.37489">
        <ele>888.1</ele>
        <time>2024-05-09T13:32:14Z</time>
      </trkpt>
      <trkpt lat="46.89884" lon="6.37489">
        <ele>888.1</ele>
        <time>2024-05-09T13:32:24Z</time>
      </trkpt>
      <trkpt lat="46.89884" lon="6.37489">
        <ele>888.1</ele>
        <time>2024-05-09T13:32:34Z</time>
      </trkpt>
      <trkpt lat="46.89884" lon="6.37489">
        <ele>888.1</ele>
        <time>2024-05-09T13:32:44Z</time>
      </trkpt>
      <trkpt lat="46.89884" lon="6.37489">
        <ele>888.1</ele>
        <time>2024-05-09T13:32:54Z</time>
      </trkpt>
      <trkpt lat="46.89884" lon="6.37489">
        <ele>888.1</ele>
        <time>2024-05-09T13:33:04Z</time>
      </trkpt>
      <trkpt lat="46.89884" lon="6.37489">
        <ele>888.1</ele>
        <time>2024-05-09T13:33:15Z</time>
      </trkpt>
      <trkpt lat="46.89882" lon="6.37489">
        <ele>888.3</ele>
        <time>2024-05-09T13:33:26Z</time>
      </trkpt>
      <trkpt lat="46.89881" lon="6.37489">
        <ele>888.4</ele>
        <time>2024-05-09T13:33:36Z</time>
      </trkpt>
      <trkpt lat="46.89879" lon="6.37489">
        <ele>888.6</ele>
        <time>2024-05-09T13:33:46Z</time>
      </trkpt>
      <trkpt lat="46.89863" lon="6.37484">
        <ele>889.7</ele>
        <time>2024-05-09T13:33:57Z</time>
      </trkpt>
      <trkpt lat="46.89847" lon="6.37478">
        <ele>890.7</ele>
        <time>2024-05-09T13:34:08Z</time>
      </trkpt>
      <trkpt lat="46.89829" lon="6.37471">
        <ele>892</ele>
        <time>2024-05-09T13:34:19Z</time>
      </trkpt>
      <trkpt lat="46.89814" lon="6.37463">
        <ele>893.2</ele>
        <time>2024-05-09T13:34:29Z</time>
      </trkpt>
      <trkpt lat="46.89798" lon="6.37453">
        <ele>894.3</ele>
        <time>2024-05-09T13:34:40Z</time>
      </trkpt>
      <trkpt lat="46.89782" lon="6.37446">
        <ele>895.6</ele>
        <time>2024-05-09T13:34:51Z</time>
      </trkpt>
      <trkpt lat="46.89768" lon="6.37432">
        <ele>897.5</ele>
        <time>2024-05-09T13:35:02Z</time>
      </trkpt>
      <trkpt lat="46.89758" lon="6.37424">
        <ele>899</ele>
        <time>2024-05-09T13:35:12Z</time>
      </trkpt>
      <trkpt lat="46.89753" lon="6.37423">
        <ele>899.8</ele>
        <time>2024-05-09T13:35:23Z</time>
      </trkpt>
      <trkpt lat="46.89742" lon="6.37422">
        <ele>901.4</ele>
        <time>2024-05-09T13:35:34Z</time>
      </trkpt>
      <trkpt lat="46.89736" lon="6.37416">
        <ele>902.5</ele>
        <time>2024-05-09T13:35:44Z</time>
      </trkpt>
      <trkpt lat="46.89726" lon="6.37408">
        <ele>904.2</ele>
        <time>2024-05-09T13:35:55Z</time>
      </trkpt>
      <trkpt lat="46.89719" lon="6.37403">
        <ele>905.4</ele>
        <time>2024-05-09T13:36:05Z</time>
      </trkpt>
      <trkpt lat="46.8971" lon="6.37398">
        <ele>906.8</ele>
        <time>2024-05-09T13:36:16Z</time>
      </trkpt>
      <trkpt lat="46.89701" lon="6.3739">
        <ele>908</ele>
        <time>2024-05-09T13:36:26Z</time>
      </trkpt>
      <trkpt lat="46.89692" lon="6.37381">
        <ele>908.9</ele>
        <time>2024-05-09T13:36:37Z</time>
      </trkpt>
      <trkpt lat="46.89689" lon="6.37377">
        <ele>909.2</ele>
        <time>2024-05-09T13:36:47Z</time>
      </trkpt>
      <trkpt lat="46.89676" lon="6.37364">
        <ele>910.2</ele>
        <time>2024-05-09T13:36:58Z</time>
      </trkpt>
      <trkpt lat="46.89662" lon="6.37359">
        <ele>911.2</ele>
        <time>2024-05-09T13:37:08Z</time>
      </trkpt>
      <trkpt lat="46.8966" lon="6.37357">
        <ele>911.4</ele>
        <time>2024-05-09T13:37:18Z</time>
      </trkpt>
      <trkpt lat="46.8966" lon="6.37356">
        <ele>911.4</ele>
        <time>2024-05-09T13:37:29Z</time>
      </trkpt>
      <trkpt lat="46.8966" lon="6.37356">
        <ele>911.4</ele>
        <time>2024-05-09T13:37:40Z</time>
      </trkpt>
      <trkpt lat="46.8966" lon="6.37356">
        <ele>911.4</ele>
        <time>2024-05-09T13:37:50Z</time>
      </trkpt>
      <trkpt lat="46.8966" lon="6.37356">
        <ele>911.4</ele>
        <time>2024-05-09T13:38:01Z</time>
      </trkpt>
      <trkpt lat="46.8966" lon="6.37356">
        <ele>911.4</ele>
        <time>2024-05-09T13:38:11Z</time>
      </trkpt>
      <trkpt lat="46.8966" lon="6.37356">
        <ele>911.4</ele>
        <time>2024-05-09T13:38:22Z</time>
      </trkpt>
      <trkpt lat="46.8966" lon="6.37356">
        <ele>911.4</ele>
        <time>2024-05-09T13:38:32Z</time>
      </trkpt>
      <trkpt lat="46.89659" lon="6.37356">
        <ele>911.5</ele>
        <time>2024-05-09T13:38:43Z</time>
      </trkpt>
      <trkpt lat="46.8966" lon="6.37356">
        <ele>911.6</ele>
        <time>2024-05-09T13:38:53Z</time>
      </trkpt>
      <trkpt lat="46.89659" lon="6.37355">
        <ele>911.7</ele>
        <time>2024-05-09T13:39:03Z</time>
      </trkpt>
      <trkpt lat="46.89659" lon="6.37355">
        <ele>911.7</ele>
        <time>2024-05-09T13:39:14Z</time>
      </trkpt>
      <trkpt lat="46.8966" lon="6.37354">
        <ele>911.7</ele>
        <time>2024-05-09T13:39:24Z</time>
      </trkpt>
      <trkpt lat="46.8966" lon="6.37354">
        <ele>911.7</ele>
        <time>2024-05-09T13:39:35Z</time>
      </trkpt>
      <trkpt lat="46.8966" lon="6.37354">
        <ele>911.7</ele>
        <time>2024-05-09T13:39:46Z</time>
      </trkpt>
      <trkpt lat="46.8966" lon="6.37354">
        <ele>911.7</ele>
        <time>2024-05-09T13:39:57Z</time>
      </trkpt>
      <trkpt lat="46.89655" lon="6.37358">
        <ele>912.2</ele>
        <time>2024-05-09T13:40:08Z</time>
      </trkpt>
      <trkpt lat="46.89655" lon="6.37358">
        <ele>912.2</ele>
        <time>2024-05-09T13:40:18Z</time>
      </trkpt>
      <trkpt lat="46.89653" lon="6.37359">
        <ele>912.4</ele>
        <time>2024-05-09T13:40:29Z</time>
      </trkpt>
      <trkpt lat="46.89651" lon="6.37356">
        <ele>912.2</ele>
        <time>2024-05-09T13:40:39Z</time>
      </trkpt>
      <trkpt lat="46.89648" lon="6.37325">
        <ele>910.7</ele>
        <time>2024-05-09T13:40:50Z</time>
      </trkpt>
      <trkpt lat="46.89594" lon="6.37282">
        <ele>908.1</ele>
        <time>2024-05-09T13:41:00Z</time>
      </trkpt>
      <trkpt lat="46.89531" lon="6.37203">
        <ele>903.1</ele>
        <time>2024-05-09T13:41:11Z</time>
      </trkpt>
      <trkpt lat="46.89508" lon="6.3719">
        <ele>901.7</ele>
        <time>2024-05-09T13:41:22Z</time>
      </trkpt>
      <trkpt lat="46.89508" lon="6.3719">
        <ele>901.7</ele>
        <time>2024-05-09T13:41:32Z</time>
      </trkpt>
      <trkpt lat="46.89508" lon="6.3719">
        <ele>901.7</ele>
        <time>2024-05-09T13:41:43Z</time>
      </trkpt>
      <trkpt lat="46.89508" lon="6.3719">
        <ele>901.7</ele>
        <time>2024-05-09T13:41:53Z</time>
      </trkpt>
      <trkpt lat="46.89508" lon="6.3719">
        <ele>901.7</ele>
        <time>2024-05-09T13:42:03Z</time>
      </trkpt>
      <trkpt lat="46.89508" lon="6.3719">
        <ele>901.7</ele>
        <time>2024-05-09T13:42:14Z</time>
      </trkpt>
      <trkpt lat="46.89508" lon="6.3719">
        <ele>901.7</ele>
        <time>2024-05-09T13:42:25Z</time>
      </trkpt>
      <trkpt lat="46.89496" lon="6.37189">
        <ele>900.9</ele>
        <time>2024-05-09T13:42:35Z</time>
      </trkpt>
      <trkpt lat="46.89429" lon="6.37184">
        <ele>896.6</ele>
        <time>2024-05-09T13:42:46Z</time>
      </trkpt>
      <trkpt lat="46.89344" lon="6.37152">
        <ele>891</ele>
        <time>2024-05-09T13:42:56Z</time>
      </trkpt>
      <trkpt lat="46.89254" lon="6.37065">
        <ele>883.5</ele>
        <time>2024-05-09T13:43:06Z</time>
      </trkpt>
      <trkpt lat="46.8915" lon="6.36972">
        <ele>876.1</ele>
        <time>2024-05-09T13:43:17Z</time>
      </trkpt>
      <trkpt lat="46.89165" lon="6.36915">
        <ele>870.4</ele>
        <time>2024-05-09T13:43:28Z</time>
      </trkpt>
      <trkpt lat="46.89261" lon="6.36921">
        <ele>863.9</ele>
        <time>2024-05-09T13:43:39Z</time>
      </trkpt>
      <trkpt lat="46.89374" lon="6.36895">
        <ele>855.9</ele>
        <time>2024-05-09T13:43:50Z</time>
      </trkpt>
      <trkpt lat="46.89456" lon="6.36794">
        <ele>847.9</ele>
        <time>2024-05-09T13:44:00Z</time>
      </trkpt>
      <trkpt lat="46.89458" lon="6.36666">
        <ele>842.6</ele>
        <time>2024-05-09T13:44:10Z</time>
      </trkpt>
      <trkpt lat="46.89441" lon="6.36549">
        <ele>840.4</ele>
        <time>2024-05-09T13:44:21Z</time>
      </trkpt>
      <trkpt lat="46.8943" lon="6.36458">
        <ele>839.5</ele>
        <time>2024-05-09T13:44:32Z</time>
      </trkpt>
      <trkpt lat="46.89436" lon="6.36445">
        <ele>839.4</ele>
        <time>2024-05-09T13:44:42Z</time>
      </trkpt>
      <trkpt lat="46.89453" lon="6.36437">
        <ele>839.2</ele>
        <time>2024-05-09T13:44:53Z</time>
      </trkpt>
      <trkpt lat="46.89492" lon="6.36421">
        <ele>839</ele>
        <time>2024-05-09T13:45:04Z</time>
      </trkpt>
      <trkpt lat="46.89523" lon="6.36398">
        <ele>838.7</ele>
        <time>2024-05-09T13:45:15Z</time>
      </trkpt>
      <trkpt lat="46.89564" lon="6.36378">
        <ele>838.7</ele>
        <time>2024-05-09T13:45:26Z</time>
      </trkpt>
      <trkpt lat="46.89616" lon="6.36352">
        <ele>838.6</ele>
        <time>2024-05-09T13:45:36Z</time>
      </trkpt>
      <trkpt lat="46.89663" lon="6.3633">
        <ele>838.3</ele>
        <time>2024-05-09T13:45:46Z</time>
      </trkpt>
      <trkpt lat="46.89713" lon="6.36305">
        <ele>837.8</ele>
        <time>2024-05-09T13:45:57Z</time>
      </trkpt>
      <trkpt lat="46.89759" lon="6.36283">
        <ele>837.3</ele>
        <time>2024-05-09T13:46:07Z</time>
      </trkpt>
      <trkpt lat="46.89807" lon="6.36257">
        <ele>836.9</ele>
        <time>2024-05-09T13:46:18Z</time>
      </trkpt>
      <trkpt lat="46.8985" lon="6.36243">
        <ele>836.5</ele>
        <time>2024-05-09T13:46:28Z</time>
      </trkpt>
      <trkpt lat="46.8989" lon="6.36213">
        <ele>835.7</ele>
        <time>2024-05-09T13:46:38Z</time>
      </trkpt>
      <trkpt lat="46.89941" lon="6.3617">
        <ele>834.1</ele>
        <time>2024-05-09T13:46:49Z</time>
      </trkpt>
      <trkpt lat="46.8999" lon="6.36135">
        <ele>833.2</ele>
        <time>2024-05-09T13:47:00Z</time>
      </trkpt>
      <trkpt lat="46.9003" lon="6.36104">
        <ele>832.6</ele>
        <time>2024-05-09T13:47:10Z</time>
      </trkpt>
      <trkpt lat="46.90075" lon="6.36066">
        <ele>831.7</ele>
        <time>2024-05-09T13:47:21Z</time>
      </trkpt>
      <trkpt lat="46.90118" lon="6.36026">
        <ele>830.7</ele>
        <time>2024-05-09T13:47:31Z</time>
      </trkpt>
      <trkpt lat="46.90167" lon="6.35985">
        <ele>830.1</ele>
        <time>2024-05-09T13:47:42Z</time>
      </trkpt>
      <trkpt lat="46.90205" lon="6.35936">
        <ele>829.2</ele>
        <time>2024-05-09T13:47:53Z</time>
      </trkpt>
      <trkpt lat="46.90218" lon="6.35881">
        <ele>829.1</ele>
        <time>2024-05-09T13:48:04Z</time>
      </trkpt>
      <trkpt lat="46.90232" lon="6.35825">
        <ele>829.3</ele>
        <time>2024-05-09T13:48:15Z</time>
      </trkpt>
      <trkpt lat="46.90251" lon="6.35783">
        <ele>829.6</ele>
        <time>2024-05-09T13:48:25Z</time>
      </trkpt>
      <trkpt lat="46.90264" lon="6.35757">
        <ele>829.8</ele>
        <time>2024-05-09T13:48:35Z</time>
      </trkpt>
      <trkpt lat="46.90264" lon="6.35756">
        <ele>829.8</ele>
        <time>2024-05-09T13:48:46Z</time>
      </trkpt>
      <trkpt lat="46.90264" lon="6.35756">
        <ele>829.8</ele>
        <time>2024-05-09T13:48:56Z</time>
      </trkpt>
      <trkpt lat="46.90264" lon="6.35756">
        <ele>829.8</ele>
        <time>2024-05-09T13:49:07Z</time>
      </trkpt>
      <trkpt lat="46.90267" lon="6.35752">
        <ele>829.9</ele>
        <time>2024-05-09T13:49:17Z</time>
      </trkpt>
      <trkpt lat="46.90283" lon="6.35712">
        <ele>830.1</ele>
        <time>2024-05-09T13:49:27Z</time>
      </trkpt>
      <trkpt lat="46.90293" lon="6.35683">
        <ele>830.5</ele>
        <time>2024-05-09T13:49:38Z</time>
      </trkpt>
      <trkpt lat="46.90301" lon="6.35661">
        <ele>830.6</ele>
        <time>2024-05-09T13:49:48Z</time>
      </trkpt>
      <trkpt lat="46.90315" lon="6.35629">
        <ele>830.9</ele>
        <time>2024-05-09T13:49:58Z</time>
      </trkpt>
      <trkpt lat="46.90337" lon="6.35575">
        <ele>831.3</ele>
        <time>2024-05-09T13:50:09Z</time>
      </trkpt>
      <trkpt lat="46.90356" lon="6.35522">
        <ele>831.3</ele>
        <time>2024-05-09T13:50:19Z</time>
      </trkpt>
      <trkpt lat="46.90381" lon="6.35465">
        <ele>831</ele>
        <time>2024-05-09T13:50:30Z</time>
      </trkpt>
      <trkpt lat="46.90395" lon="6.35458">
        <ele>830.7</ele>
        <time>2024-05-09T13:50:41Z</time>
      </trkpt>
      <trkpt lat="46.90408" lon="6.35469">
        <ele>829.8</ele>
        <time>2024-05-09T13:50:52Z</time>
      </trkpt>
      <trkpt lat="46.90411" lon="6.35487">
        <ele>829.6</ele>
        <time>2024-05-09T13:51:02Z</time>
      </trkpt>
      <trkpt lat="46.90428" lon="6.35506">
        <ele>829.2</ele>
        <time>2024-05-09T13:51:12Z</time>
      </trkpt>
      <trkpt lat="46.90452" lon="6.3554">
        <ele>828</ele>
        <time>2024-05-09T13:51:23Z</time>
      </trkpt>
      <trkpt lat="46.90464" lon="6.3557">
        <ele>827.1</ele>
        <time>2024-05-09T13:51:33Z</time>
      </trkpt>
      <trkpt lat="46.90458" lon="6.35593">
        <ele>827</ele>
        <time>2024-05-09T13:51:43Z</time>
      </trkpt>
      <trkpt lat="46.90448" lon="6.35613">
        <ele>826.8</ele>
        <time>2024-05-09T13:51:54Z</time>
      </trkpt>
      <trkpt lat="46.90444" lon="6.35617">
        <ele>826.7</ele>
        <time>2024-05-09T13:52:04Z</time>
      </trkpt>
      <trkpt lat="46.9043" lon="6.35642">
        <ele>826.4</ele>
        <time>2024-05-09T13:52:15Z</time>
      </trkpt>
      <trkpt lat="46.90436" lon="6.35664">
        <ele>826.2</ele>
        <time>2024-05-09T13:52:25Z</time>
      </trkpt>
      <trkpt lat="46.9047" lon="6.35691">
        <ele>826.2</ele>
        <time>2024-05-09T13:52:35Z</time>
      </trkpt>
      <trkpt lat="46.90502" lon="6.35725">
        <ele>826.1</ele>
        <time>2024-05-09T13:52:46Z</time>
      </trkpt>
      <trkpt lat="46.90534" lon="6.3575">
        <ele>826.1</ele>
        <time>2024-05-09T13:52:57Z</time>
      </trkpt>
      <trkpt lat="46.90566" lon="6.35762">
        <ele>826.4</ele>
        <time>2024-05-09T13:53:07Z</time>
      </trkpt>
      <trkpt lat="46.90571" lon="6.35767">
        <ele>826.4</ele>
        <time>2024-05-09T13:53:17Z</time>
      </trkpt>
      <trkpt lat="46.90571" lon="6.35767">
        <ele>826.4</ele>
        <time>2024-05-09T13:53:27Z</time>
      </trkpt>
      <trkpt lat="46.90571" lon="6.35767">
        <ele>826.4</ele>
        <time>2024-05-09T13:53:38Z</time>
      </trkpt>
      <trkpt lat="46.90571" lon="6.35767">
        <ele>826.4</ele>
        <time>2024-05-09T13:53:48Z</time>
      </trkpt>
      <trkpt lat="46.90571" lon="6.35771">
        <ele>826.4</ele>
        <time>2024-05-09T13:53:59Z</time>
      </trkpt>
      <trkpt lat="46.90571" lon="6.35771">
        <ele>826.4</ele>
        <time>2024-05-09T13:54:10Z</time>
      </trkpt>
      <trkpt lat="46.90571" lon="6.35771">
        <ele>826.4</ele>
        <time>2024-05-09T13:54:20Z</time>
      </trkpt>
      <trkpt lat="46.90571" lon="6.35771">
        <ele>826.4</ele>
        <time>2024-05-09T13:54:31Z</time>
      </trkpt>
      <trkpt lat="46.90571" lon="6.35771">
        <ele>826.4</ele>
        <time>2024-05-09T13:54:41Z</time>
      </trkpt>
      <trkpt lat="46.9057" lon="6.35772">
        <ele>826.4</ele>
        <time>2024-05-09T13:54:52Z</time>
      </trkpt>
      <trkpt lat="46.90566" lon="6.3576">
        <ele>826.4</ele>
        <time>2024-05-09T13:55:03Z</time>
      </trkpt>
      <trkpt lat="46.90529" lon="6.35736">
        <ele>826.1</ele>
        <time>2024-05-09T13:55:14Z</time>
      </trkpt>
      <trkpt lat="46.9049" lon="6.35705">
        <ele>826.1</ele>
        <time>2024-05-09T13:55:25Z</time>
      </trkpt>
      <trkpt lat="46.90455" lon="6.35666">
        <ele>826.2</ele>
        <time>2024-05-09T13:55:36Z</time>
      </trkpt>
      <trkpt lat="46.90451" lon="6.35662">
        <ele>826.2</ele>
        <time>2024-05-09T13:55:47Z</time>
      </trkpt>
      <trkpt lat="46.90451" lon="6.35662">
        <ele>826.2</ele>
        <time>2024-05-09T13:55:57Z</time>
      </trkpt>
      <trkpt lat="46.90433" lon="6.35649">
        <ele>826.4</ele>
        <time>2024-05-09T13:56:08Z</time>
      </trkpt>
      <trkpt lat="46.90402" lon="6.35618">
        <ele>827.2</ele>
        <time>2024-05-09T13:56:19Z</time>
      </trkpt>
      <trkpt lat="46.90371" lon="6.3559">
        <ele>829</ele>
        <time>2024-05-09T13:56:30Z</time>
      </trkpt>
      <trkpt lat="46.90352" lon="6.35565">
        <ele>830.6</ele>
        <time>2024-05-09T13:56:41Z</time>
      </trkpt>
      <trkpt lat="46.90347" lon="6.35561">
        <ele>830.9</ele>
        <time>2024-05-09T13:56:52Z</time>
      </trkpt>
      <trkpt lat="46.90339" lon="6.35553">
        <ele>831.3</ele>
        <time>2024-05-09T13:57:03Z</time>
      </trkpt>
      <trkpt lat="46.90313" lon="6.35528">
        <ele>831.5</ele>
        <time>2024-05-09T13:57:14Z</time>
      </trkpt>
      <trkpt lat="46.90277" lon="6.35495">
        <ele>831.6</ele>
        <time>2024-05-09T13:57:24Z</time>
      </trkpt>
      <trkpt lat="46.90238" lon="6.35459">
        <ele>832</ele>
        <time>2024-05-09T13:57:35Z</time>
      </trkpt>
      <trkpt lat="46.90233" lon="6.35425">
        <ele>832.6</ele>
        <time>2024-05-09T13:57:46Z</time>
      </trkpt>
      <trkpt lat="46.90258" lon="6.35389">
        <ele>833.5</ele>
        <time>2024-05-09T13:57:57Z</time>
      </trkpt>
      <trkpt lat="46.90281" lon="6.35355">
        <ele>834.1</ele>
        <time>2024-05-09T13:58:07Z</time>
      </trkpt>
      <trkpt lat="46.90293" lon="6.35325">
        <ele>833.8</ele>
        <time>2024-05-09T13:58:18Z</time>
      </trkpt>
      <trkpt lat="46.90292" lon="6.35322">
        <ele>833.8</ele>
        <time>2024-05-09T13:58:28Z</time>
      </trkpt>
      <trkpt lat="46.90292" lon="6.35322">
        <ele>833.8</ele>
        <time>2024-05-09T13:58:38Z</time>
      </trkpt>
      <trkpt lat="46.90292" lon="6.35322">
        <ele>833.8</ele>
        <time>2024-05-09T13:58:49Z</time>
      </trkpt>
      <trkpt lat="46.90292" lon="6.35322">
        <ele>833.8</ele>
        <time>2024-05-09T13:59:00Z</time>
      </trkpt>
      <trkpt lat="46.90292" lon="6.35322">
        <ele>833.8</ele>
        <time>2024-05-09T13:59:11Z</time>
      </trkpt>
      <trkpt lat="46.90292" lon="6.35322">
        <ele>833.8</ele>
        <time>2024-05-09T13:59:22Z</time>
      </trkpt>
      <trkpt lat="46.90292" lon="6.35322">
        <ele>833.8</ele>
        <time>2024-05-09T13:59:32Z</time>
      </trkpt>
      <trkpt lat="46.90292" lon="6.35322">
        <ele>833.8</ele>
        <time>2024-05-09T13:59:42Z</time>
      </trkpt>
      <trkpt lat="46.90291" lon="6.3532">
        <ele>833.8</ele>
        <time>2024-05-09T13:59:53Z</time>
      </trkpt>
      <trkpt lat="46.90291" lon="6.35322">
        <ele>833.8</ele>
        <time>2024-05-09T14:00:04Z</time>
      </trkpt>
      <trkpt lat="46.90281" lon="6.35341">
        <ele>832.3</ele>
        <time>2024-05-09T14:00:15Z</time>
      </trkpt>
      <trkpt lat="46.9026" lon="6.35314">
        <ele>832.1</ele>
        <time>2024-05-09T14:00:26Z</time>
      </trkpt>
      <trkpt lat="46.90263" lon="6.35291">
        <ele>831.7</ele>
        <time>2024-05-09T14:00:36Z</time>
      </trkpt>
      <trkpt lat="46.90276" lon="6.35265">
        <ele>831.6</ele>
        <time>2024-05-09T14:00:47Z</time>
      </trkpt>
      <trkpt lat="46.90267" lon="6.35286">
        <ele>831.6</ele>
        <time>2024-05-09T14:00:57Z</time>
      </trkpt>
      <trkpt lat="46.90259" lon="6.35318">
        <ele>832.1</ele>
        <time>2024-05-09T14:01:07Z</time>
      </trkpt>
      <trkpt lat="46.90279" lon="6.3535">
        <ele>834.1</ele>
        <time>2024-05-09T14:01:18Z</time>
      </trkpt>
      <trkpt lat="46.90271" lon="6.35373">
        <ele>833.7</ele>
        <time>2024-05-09T14:01:28Z</time>
      </trkpt>
      <trkpt lat="46.9024" lon="6.35417">
        <ele>832.8</ele>
        <time>2024-05-09T14:01:39Z</time>
      </trkpt>
      <trkpt lat="46.90224" lon="6.35443">
        <ele>832.4</ele>
        <time>2024-05-09T14:01:49Z</time>
      </trkpt>
      <trkpt lat="46.90204" lon="6.35472">
        <ele>832.8</ele>
        <time>2024-05-09T14:02:00Z</time>
      </trkpt>
      <trkpt lat="46.90183" lon="6.35503">
        <ele>833.4</ele>
        <time>2024-05-09T14:02:10Z</time>
      </trkpt>
      <trkpt lat="46.90177" lon="6.35515">
        <ele>833.4</ele>
        <time>2024-05-09T14:02:20Z</time>
      </trkpt>
      <trkpt lat="46.90189" lon="6.35543">
        <ele>833</ele>
        <time>2024-05-09T14:02:31Z</time>
      </trkpt>
      <trkpt lat="46.90216" lon="6.35585">
        <ele>831.9</ele>
        <time>2024-05-09T14:02:41Z</time>
      </trkpt>
      <trkpt lat="46.9024" lon="6.35621">
        <ele>831.5</ele>
        <time>2024-05-09T14:02:51Z</time>
      </trkpt>
      <trkpt lat="46.90249" lon="6.3565">
        <ele>831.2</ele>
        <time>2024-05-09T14:03:01Z</time>
      </trkpt>
      <trkpt lat="46.90257" lon="6.35684">
        <ele>830.7</ele>
        <time>2024-05-09T14:03:12Z</time>
      </trkpt>
      <trkpt lat="46.90275" lon="6.35699">
        <ele>830.3</ele>
        <time>2024-05-09T14:03:23Z</time>
      </trkpt>
      <trkpt lat="46.90276" lon="6.357">
        <ele>830.3</ele>
        <time>2024-05-09T14:03:33Z</time>
      </trkpt>
      <trkpt lat="46.90296" lon="6.3567">
        <ele>830.6</ele>
        <time>2024-05-09T14:03:44Z</time>
      </trkpt>
      <trkpt lat="46.90314" lon="6.35624">
        <ele>830.9</ele>
        <time>2024-05-09T14:03:54Z</time>
      </trkpt>
      <trkpt lat="46.90335" lon="6.35572">
        <ele>831.3</ele>
        <time>2024-05-09T14:04:05Z</time>
      </trkpt>
      <trkpt lat="46.90355" lon="6.35524">
        <ele>831.3</ele>
        <time>2024-05-09T14:04:16Z</time>
      </trkpt>
      <trkpt lat="46.90379" lon="6.35461">
        <ele>830.9</ele>
        <time>2024-05-09T14:04:27Z</time>
      </trkpt>
      <trkpt lat="46.90404" lon="6.354">
        <ele>830.4</ele>
        <time>2024-05-09T14:04:38Z</time>
      </trkpt>
      <trkpt lat="46.90437" lon="6.35394">
        <ele>829.5</ele>
        <time>2024-05-09T14:04:48Z</time>
      </trkpt>
      <trkpt lat="46.90482" lon="6.35427">
        <ele>829</ele>
        <time>2024-05-09T14:04:59Z</time>
      </trkpt>
      <trkpt lat="46.90522" lon="6.35371">
        <ele>829</ele>
        <time>2024-05-09T14:05:10Z</time>
      </trkpt>
      <trkpt lat="46.90531" lon="6.35331">
        <ele>828.8</ele>
        <time>2024-05-09T14:05:21Z</time>
      </trkpt>
      <trkpt lat="46.90501" lon="6.35282">
        <ele>829.3</ele>
        <time>2024-05-09T14:05:32Z</time>
      </trkpt>
      <trkpt lat="46.90485" lon="6.35251">
        <ele>829.3</ele>
        <time>2024-05-09T14:05:42Z</time>
      </trkpt>
      <trkpt lat="46.90498" lon="6.35191">
        <ele>828.5</ele>
        <time>2024-05-09T14:05:53Z</time>
      </trkpt>
      <trkpt lat="46.90523" lon="6.35152">
        <ele>828.2</ele>
        <time>2024-05-09T14:06:03Z</time>
      </trkpt>
      <trkpt lat="46.90559" lon="6.35121">
        <ele>827.9</ele>
        <time>2024-05-09T14:06:14Z</time>
      </trkpt>
      <trkpt lat="46.90597" lon="6.35096">
        <ele>827.7</ele>
        <time>2024-05-09T14:06:24Z</time>
      </trkpt>
      <trkpt lat="46.9064" lon="6.3507">
        <ele>827.6</ele>
        <time>2024-05-09T14:06:34Z</time>
      </trkpt>
      <trkpt lat="46.9068" lon="6.35051">
        <ele>827.4</ele>
        <time>2024-05-09T14:06:45Z</time>
      </trkpt>
      <trkpt lat="46.90707" lon="6.35033">
        <ele>826.9</ele>
        <time>2024-05-09T14:06:55Z</time>
      </trkpt>
      <trkpt lat="46.90742" lon="6.35011">
        <ele>826.7</ele>
        <time>2024-05-09T14:07:05Z</time>
      </trkpt>
      <trkpt lat="46.90786" lon="6.3498">
        <ele>826.3</ele>
        <time>2024-05-09T14:07:16Z</time>
      </trkpt>
      <trkpt lat="46.90827" lon="6.34959">
        <ele>826</ele>
        <time>2024-05-09T14:07:26Z</time>
      </trkpt>
      <trkpt lat="46.90872" lon="6.34934">
        <ele>825.5</ele>
        <time>2024-05-09T14:07:37Z</time>
      </trkpt>
      <trkpt lat="46.90915" lon="6.34909">
        <ele>824.9</ele>
        <time>2024-05-09T14:07:48Z</time>
      </trkpt>
      <trkpt lat="46.90959" lon="6.34881">
        <ele>824.3</ele>
        <time>2024-05-09T14:07:58Z</time>
      </trkpt>
      <trkpt lat="46.91007" lon="6.34851">
        <ele>823.7</ele>
        <time>2024-05-09T14:08:09Z</time>
      </trkpt>
      <trkpt lat="46.91047" lon="6.34826">
        <ele>823.4</ele>
        <time>2024-05-09T14:08:19Z</time>
      </trkpt>
      <trkpt lat="46.9109" lon="6.34801">
        <ele>822.9</ele>
        <time>2024-05-09T14:08:29Z</time>
      </trkpt>
      <trkpt lat="46.9113" lon="6.34776">
        <ele>822.7</ele>
        <time>2024-05-09T14:08:39Z</time>
      </trkpt>
      <trkpt lat="46.91176" lon="6.34782">
        <ele>822.1</ele>
        <time>2024-05-09T14:08:50Z</time>
      </trkpt>
      <trkpt lat="46.91213" lon="6.34724">
        <ele>822.1</ele>
        <time>2024-05-09T14:09:00Z</time>
      </trkpt>
      <trkpt lat="46.9127" lon="6.3469">
        <ele>821.6</ele>
        <time>2024-05-09T14:09:11Z</time>
      </trkpt>
      <trkpt lat="46.91321" lon="6.34659">
        <ele>821.2</ele>
        <time>2024-05-09T14:09:22Z</time>
      </trkpt>
      <trkpt lat="46.91376" lon="6.34625">
        <ele>820.6</ele>
        <time>2024-05-09T14:09:33Z</time>
      </trkpt>
      <trkpt lat="46.91425" lon="6.34595">
        <ele>820.2</ele>
        <time>2024-05-09T14:09:44Z</time>
      </trkpt>
      <trkpt lat="46.91471" lon="6.34567">
        <ele>819.6</ele>
        <time>2024-05-09T14:09:54Z</time>
      </trkpt>
      <trkpt lat="46.91517" lon="6.3454">
        <ele>819.1</ele>
        <time>2024-05-09T14:10:05Z</time>
      </trkpt>
      <trkpt lat="46.91562" lon="6.34512">
        <ele>818.7</ele>
        <time>2024-05-09T14:10:15Z</time>
      </trkpt>
      <trkpt lat="46.916" lon="6.3449">
        <ele>818.2</ele>
        <time>2024-05-09T14:10:25Z</time>
      </trkpt>
      <trkpt lat="46.91604" lon="6.34491">
        <ele>818.2</ele>
        <time>2024-05-09T14:10:35Z</time>
      </trkpt>
      <trkpt lat="46.91604" lon="6.34491">
        <ele>818.2</ele>
        <time>2024-05-09T14:10:46Z</time>
      </trkpt>
      <trkpt lat="46.91604" lon="6.34491">
        <ele>818.2</ele>
        <time>2024-05-09T14:10:57Z</time>
      </trkpt>
      <trkpt lat="46.91629" lon="6.34472">
        <ele>818</ele>
        <time>2024-05-09T14:11:08Z</time>
      </trkpt>
      <trkpt lat="46.91672" lon="6.34447">
        <ele>817.8</ele>
        <time>2024-05-09T14:11:18Z</time>
      </trkpt>
      <trkpt lat="46.91724" lon="6.34415">
        <ele>817.9</ele>
        <time>2024-05-09T14:11:29Z</time>
      </trkpt>
      <trkpt lat="46.91768" lon="6.34399">
        <ele>818</ele>
        <time>2024-05-09T14:11:39Z</time>
      </trkpt>
      <trkpt lat="46.91812" lon="6.34391">
        <ele>818</ele>
        <time>2024-05-09T14:11:49Z</time>
      </trkpt>
      <trkpt lat="46.91787" lon="6.34349">
        <ele>818.1</ele>
        <time>2024-05-09T14:12:00Z</time>
      </trkpt>
      <trkpt lat="46.91734" lon="6.34324">
        <ele>818</ele>
        <time>2024-05-09T14:12:11Z</time>
      </trkpt>
      <trkpt lat="46.91685" lon="6.34298">
        <ele>818.3</ele>
        <time>2024-05-09T14:12:21Z</time>
      </trkpt>
      <trkpt lat="46.91631" lon="6.34268">
        <ele>818.8</ele>
        <time>2024-05-09T14:12:32Z</time>
      </trkpt>
      <trkpt lat="46.91586" lon="6.34245">
        <ele>819.1</ele>
        <time>2024-05-09T14:12:42Z</time>
      </trkpt>
      <trkpt lat="46.91552" lon="6.34227">
        <ele>819.2</ele>
        <time>2024-05-09T14:12:53Z</time>
      </trkpt>
      <trkpt lat="46.91504" lon="6.34202">
        <ele>819.2</ele>
        <time>2024-05-09T14:13:04Z</time>
      </trkpt>
      <trkpt lat="46.91448" lon="6.34177">
        <ele>819.1</ele>
        <time>2024-05-09T14:13:15Z</time>
      </trkpt>
      <trkpt lat="46.91393" lon="6.34153">
        <ele>819.1</ele>
        <time>2024-05-09T14:13:26Z</time>
      </trkpt>
      <trkpt lat="46.91344" lon="6.3413">
        <ele>819.2</ele>
        <time>2024-05-09T14:13:36Z</time>
      </trkpt>
      <trkpt lat="46.91331" lon="6.34111">
        <ele>819.2</ele>
        <time>2024-05-09T14:13:46Z</time>
      </trkpt>
      <trkpt lat="46.91317" lon="6.34127">
        <ele>819.2</ele>
        <time>2024-05-09T14:13:57Z</time>
      </trkpt>
      <trkpt lat="46.91309" lon="6.34183">
        <ele>819.5</ele>
        <time>2024-05-09T14:14:07Z</time>
      </trkpt>
      <trkpt lat="46.91297" lon="6.3424">
        <ele>819.7</ele>
        <time>2024-05-09T14:14:17Z</time>
      </trkpt>
      <trkpt lat="46.91283" lon="6.34305">
        <ele>820.1</ele>
        <time>2024-05-09T14:14:28Z</time>
      </trkpt>
      <trkpt lat="46.91268" lon="6.34368">
        <ele>820.4</ele>
        <time>2024-05-09T14:14:39Z</time>
      </trkpt>
      <trkpt lat="46.91255" lon="6.3443">
        <ele>820.5</ele>
        <time>2024-05-09T14:14:49Z</time>
      </trkpt>
      <trkpt lat="46.9124" lon="6.345">
        <ele>820.3</ele>
        <time>2024-05-09T14:15:00Z</time>
      </trkpt>
      <trkpt lat="46.91213" lon="6.34533">
        <ele>821.2</ele>
        <time>2024-05-09T14:15:10Z</time>
      </trkpt>
      <trkpt lat="46.91174" lon="6.34513">
        <ele>821.4</ele>
        <time>2024-05-09T14:15:21Z</time>
      </trkpt>
      <trkpt lat="46.91133" lon="6.34493">
        <ele>821.7</ele>
        <time>2024-05-09T14:15:32Z</time>
      </trkpt>
      <trkpt lat="46.91089" lon="6.3447">
        <ele>821.8</ele>
        <time>2024-05-09T14:15:42Z</time>
      </trkpt>
      <trkpt lat="46.91038" lon="6.34441">
        <ele>822.1</ele>
        <time>2024-05-09T14:15:53Z</time>
      </trkpt>
      <trkpt lat="46.90985" lon="6.34415">
        <ele>822.4</ele>
        <time>2024-05-09T14:16:04Z</time>
      </trkpt>
      <trkpt lat="46.90933" lon="6.3439">
        <ele>822.6</ele>
        <time>2024-05-09T14:16:15Z</time>
      </trkpt>
      <trkpt lat="46.90889" lon="6.34368">
        <ele>822.6</ele>
        <time>2024-05-09T14:16:25Z</time>
      </trkpt>
      <trkpt lat="46.90844" lon="6.34345">
        <ele>822.8</ele>
        <time>2024-05-09T14:16:35Z</time>
      </trkpt>
      <trkpt lat="46.90795" lon="6.34315">
        <ele>823.1</ele>
        <time>2024-05-09T14:16:46Z</time>
      </trkpt>
      <trkpt lat="46.90772" lon="6.34292">
        <ele>823.6</ele>
        <time>2024-05-09T14:16:56Z</time>
      </trkpt>
      <trkpt lat="46.90772" lon="6.34292">
        <ele>823.6</ele>
        <time>2024-05-09T14:17:06Z</time>
      </trkpt>
      <trkpt lat="46.9077" lon="6.34293">
        <ele>823.6</ele>
        <time>2024-05-09T14:17:17Z</time>
      </trkpt>
      <trkpt lat="46.90747" lon="6.34342">
        <ele>823.9</ele>
        <time>2024-05-09T14:17:27Z</time>
      </trkpt>
      <trkpt lat="46.90729" lon="6.34409">
        <ele>824</ele>
        <time>2024-05-09T14:17:37Z</time>
      </trkpt>
      <trkpt lat="46.9071" lon="6.34486">
        <ele>824.4</ele>
        <time>2024-05-09T14:17:48Z</time>
      </trkpt>
      <trkpt lat="46.90695" lon="6.34551">
        <ele>824.7</ele>
        <time>2024-05-09T14:17:58Z</time>
      </trkpt>
      <trkpt lat="46.90679" lon="6.34623">
        <ele>825.1</ele>
        <time>2024-05-09T14:18:09Z</time>
      </trkpt>
      <trkpt lat="46.90666" lon="6.34674">
        <ele>825.4</ele>
        <time>2024-05-09T14:18:19Z</time>
      </trkpt>
      <trkpt lat="46.90653" lon="6.3473">
        <ele>825.8</ele>
        <time>2024-05-09T14:18:30Z</time>
      </trkpt>
      <trkpt lat="46.90639" lon="6.3478">
        <ele>826.1</ele>
        <time>2024-05-09T14:18:40Z</time>
      </trkpt>
      <trkpt lat="46.90625" lon="6.34841">
        <ele>826.5</ele>
        <time>2024-05-09T14:18:51Z</time>
      </trkpt>
      <trkpt lat="46.90602" lon="6.34899">
        <ele>826.8</ele>
        <time>2024-05-09T14:19:02Z</time>
      </trkpt>
      <trkpt lat="46.9058" lon="6.34954">
        <ele>827</ele>
        <time>2024-05-09T14:19:12Z</time>
      </trkpt>
      <trkpt lat="46.90559" lon="6.35008">
        <ele>827.2</ele>
        <time>2024-05-09T14:19:23Z</time>
      </trkpt>
      <trkpt lat="46.90538" lon="6.35066">
        <ele>827.4</ele>
        <time>2024-05-09T14:19:34Z</time>
      </trkpt>
      <trkpt lat="46.9052" lon="6.35115">
        <ele>827.6</ele>
        <time>2024-05-09T14:19:45Z</time>
      </trkpt>
      <trkpt lat="46.90501" lon="6.35162">
        <ele>828</ele>
        <time>2024-05-09T14:19:56Z</time>
      </trkpt>
      <trkpt lat="46.90479" lon="6.35212">
        <ele>828.5</ele>
        <time>2024-05-09T14:20:06Z</time>
      </trkpt>
      <trkpt lat="46.90462" lon="6.35244">
        <ele>829</ele>
        <time>2024-05-09T14:20:17Z</time>
      </trkpt>
      <trkpt lat="46.9045" lon="6.3527">
        <ele>829.2</ele>
        <time>2024-05-09T14:20:28Z</time>
      </trkpt>
      <trkpt lat="46.90438" lon="6.35311">
        <ele>829.3</ele>
        <time>2024-05-09T14:20:38Z</time>
      </trkpt>
      <trkpt lat="46.9042" lon="6.35354">
        <ele>829.7</ele>
        <time>2024-05-09T14:20:48Z</time>
      </trkpt>
      <trkpt lat="46.90423" lon="6.35387">
        <ele>829.9</ele>
        <time>2024-05-09T14:20:59Z</time>
      </trkpt>
      <trkpt lat="46.9046" lon="6.35426">
        <ele>829.1</ele>
        <time>2024-05-09T14:21:09Z</time>
      </trkpt>
      <trkpt lat="46.9049" lon="6.35475">
        <ele>828.1</ele>
        <time>2024-05-09T14:21:20Z</time>
      </trkpt>
      <trkpt lat="46.905" lon="6.35517">
        <ele>827.4</ele>
        <time>2024-05-09T14:21:31Z</time>
      </trkpt>
      <trkpt lat="46.90476" lon="6.3557">
        <ele>827</ele>
        <time>2024-05-09T14:21:42Z</time>
      </trkpt>
      <trkpt lat="46.90461" lon="6.35568">
        <ele>827.2</ele>
        <time>2024-05-09T14:21:52Z</time>
      </trkpt>
      <trkpt lat="46.9045" lon="6.35537">
        <ele>828</ele>
        <time>2024-05-09T14:22:03Z</time>
      </trkpt>
      <trkpt lat="46.90435" lon="6.35512">
        <ele>828.8</ele>
        <time>2024-05-09T14:22:13Z</time>
      </trkpt>
      <trkpt lat="46.90434" lon="6.35505">
        <ele>829</ele>
        <time>2024-05-09T14:22:24Z</time>
      </trkpt>
      <trkpt lat="46.90434" lon="6.35505">
        <ele>829</ele>
        <time>2024-05-09T14:22:35Z</time>
      </trkpt>
      <trkpt lat="46.90435" lon="6.35507">
        <ele>829</ele>
        <time>2024-05-09T14:22:46Z</time>
      </trkpt>
      <trkpt lat="46.90434" lon="6.35507">
        <ele>829.1</ele>
        <time>2024-05-09T14:22:56Z</time>
      </trkpt>
      <trkpt lat="46.90434" lon="6.35507">
        <ele>829.1</ele>
        <time>2024-05-09T14:23:06Z</time>
      </trkpt>
      <trkpt lat="46.90431" lon="6.35506">
        <ele>829.1</ele>
        <time>2024-05-09T14:23:17Z</time>
      </trkpt>
      <trkpt lat="46.9043" lon="6.35505">
        <ele>829.1</ele>
        <time>2024-05-09T14:23:27Z</time>
      </trkpt>
      <trkpt lat="46.90429" lon="6.35501">
        <ele>829.2</ele>
        <time>2024-05-09T14:23:38Z</time>
      </trkpt>
      <trkpt lat="46.90425" lon="6.35489">
        <ele>829.5</ele>
        <time>2024-05-09T14:23:49Z</time>
      </trkpt>
      <trkpt lat="46.90425" lon="6.35489">
        <ele>829.5</ele>
        <time>2024-05-09T14:24:00Z</time>
      </trkpt>
      <trkpt lat="46.90425" lon="6.35491">
        <ele>829.4</ele>
        <time>2024-05-09T14:24:10Z</time>
      </trkpt>
      <trkpt lat="46.90425" lon="6.35494">
        <ele>829.4</ele>
        <time>2024-05-09T14:24:20Z</time>
      </trkpt>
      <trkpt lat="46.90427" lon="6.355">
        <ele>829.3</ele>
        <time>2024-05-09T14:24:31Z</time>
      </trkpt>
      <trkpt lat="46.90435" lon="6.35506">
        <ele>829</ele>
        <time>2024-05-09T14:24:41Z</time>
      </trkpt>
      <trkpt lat="46.90438" lon="6.35513">
        <ele>828.9</ele>
        <time>2024-05-09T14:24:51Z</time>
      </trkpt>
      <trkpt lat="46.90438" lon="6.35515">
        <ele>828.9</ele>
        <time>2024-05-09T14:25:02Z</time>
      </trkpt>
      <trkpt lat="46.90438" lon="6.35516">
        <ele>828.9</ele>
        <time>2024-05-09T14:25:12Z</time>
      </trkpt>
      <trkpt lat="46.90438" lon="6.35516">
        <ele>828.9</ele>
        <time>2024-05-09T14:25:23Z</time>
      </trkpt>
      <trkpt lat="46.90438" lon="6.35516">
        <ele>828.9</ele>
        <time>2024-05-09T14:25:33Z</time>
      </trkpt>
      <trkpt lat="46.90437" lon="6.35519">
        <ele>828.9</ele>
        <time>2024-05-09T14:25:44Z</time>
      </trkpt>
      <trkpt lat="46.90435" lon="6.35518">
        <ele>828.8</ele>
        <time>2024-05-09T14:25:54Z</time>
      </trkpt>
      <trkpt lat="46.90435" lon="6.35518">
        <ele>828.8</ele>
        <time>2024-05-09T14:26:04Z</time>
      </trkpt>
      <trkpt lat="46.90434" lon="6.35519">
        <ele>828.8</ele>
        <time>2024-05-09T14:26:14Z</time>
      </trkpt>
      <trkpt lat="46.90434" lon="6.3552">
        <ele>828.8</ele>
        <time>2024-05-09T14:26:25Z</time>
      </trkpt>
      <trkpt lat="46.90434" lon="6.3552">
        <ele>828.8</ele>
        <time>2024-05-09T14:26:36Z</time>
      </trkpt>
      <trkpt lat="46.90434" lon="6.3552">
        <ele>828.8</ele>
        <time>2024-05-09T14:26:46Z</time>
      </trkpt>
      <trkpt lat="46.90434" lon="6.3552">
        <ele>828.8</ele>
        <time>2024-05-09T14:26:57Z</time>
      </trkpt>
      <trkpt lat="46.90434" lon="6.3552">
        <ele>828.8</ele>
        <time>2024-05-09T14:27:08Z</time>
      </trkpt>
      <trkpt lat="46.90434" lon="6.3552">
        <ele>828.8</ele>
        <time>2024-05-09T14:27:19Z</time>
      </trkpt>
      <trkpt lat="46.90434" lon="6.3552">
        <ele>828.8</ele>
        <time>2024-05-09T14:27:29Z</time>
      </trkpt>
    </trkseg>
  </trk>
  <trk>
    <name><![CDATA[GTJ Gravielo EP 3]]></name>
    <extensions>
      <line xmlns="http://www.topografix.com/GPX/gpx_style/0/2">
        <color>FF0000</color>
        <width>4</width>
      </line>
    </extensions>
    <trkseg>
      <trkpt lat="46.85839" lon="6.34106">
        <ele>856.9</ele>
        <time>2024-05-10T06:44:23Z</time>
      </trkpt>
      <trkpt lat="46.8582" lon="6.34052">
        <ele>856.8</ele>
        <time>2024-05-10T06:44:33Z</time>
      </trkpt>
      <trkpt lat="46.85806" lon="6.33984">
        <ele>856.9</ele>
        <time>2024-05-10T06:44:44Z</time>
      </trkpt>
      <trkpt lat="46.85785" lon="6.33913">
        <ele>856.9</ele>
        <time>2024-05-10T06:44:55Z</time>
      </trkpt>
      <trkpt lat="46.85762" lon="6.3384">
        <ele>857.2</ele>
        <time>2024-05-10T06:45:06Z</time>
      </trkpt>
      <trkpt lat="46.85733" lon="6.33772">
        <ele>857</ele>
        <time>2024-05-10T06:45:17Z</time>
      </trkpt>
      <trkpt lat="46.85677" lon="6.33725">
        <ele>855.9</ele>
        <time>2024-05-10T06:45:28Z</time>
      </trkpt>
      <trkpt lat="46.8563" lon="6.33671">
        <ele>855</ele>
        <time>2024-05-10T06:45:38Z</time>
      </trkpt>
      <trkpt lat="46.8559" lon="6.33632">
        <ele>854.5</ele>
        <time>2024-05-10T06:45:49Z</time>
      </trkpt>
      <trkpt lat="46.85554" lon="6.33623">
        <ele>854.3</ele>
        <time>2024-05-10T06:45:59Z</time>
      </trkpt>
      <trkpt lat="46.85505" lon="6.33614">
        <ele>854.1</ele>
        <time>2024-05-10T06:46:09Z</time>
      </trkpt>
      <trkpt lat="46.85447" lon="6.33604">
        <ele>854.2</ele>
        <time>2024-05-10T06:46:20Z</time>
      </trkpt>
      <trkpt lat="46.85395" lon="6.3359">
        <ele>854.7</ele>
        <time>2024-05-10T06:46:30Z</time>
      </trkpt>
      <trkpt lat="46.85355" lon="6.33555">
        <ele>855.2</ele>
        <time>2024-05-10T06:46:41Z</time>
      </trkpt>
      <trkpt lat="46.85317" lon="6.33514">
        <ele>855.4</ele>
        <time>2024-05-10T06:46:52Z</time>
      </trkpt>
      <trkpt lat="46.85279" lon="6.33472">
        <ele>854.9</ele>
        <time>2024-05-10T06:47:02Z</time>
      </trkpt>
      <trkpt lat="46.85233" lon="6.3344">
        <ele>854.3</ele>
        <time>2024-05-10T06:47:12Z</time>
      </trkpt>
      <trkpt lat="46.85173" lon="6.33399">
        <ele>853.4</ele>
        <time>2024-05-10T06:47:23Z</time>
      </trkpt>
      <trkpt lat="46.85117" lon="6.33347">
        <ele>852.8</ele>
        <time>2024-05-10T06:47:34Z</time>
      </trkpt>
      <trkpt lat="46.8505" lon="6.3332">
        <ele>852.1</ele>
        <time>2024-05-10T06:47:46Z</time>
      </trkpt>
      <trkpt lat="46.84992" lon="6.33321">
        <ele>852.3</ele>
        <time>2024-05-10T06:47:56Z</time>
      </trkpt>
      <trkpt lat="46.84938" lon="6.33327">
        <ele>852.7</ele>
        <time>2024-05-10T06:48:06Z</time>
      </trkpt>
      <trkpt lat="46.84882" lon="6.33342">
        <ele>853.3</ele>
        <time>2024-05-10T06:48:16Z</time>
      </trkpt>
      <trkpt lat="46.84833" lon="6.33329">
        <ele>853.7</ele>
        <time>2024-05-10T06:48:27Z</time>
      </trkpt>
      <trkpt lat="46.8478" lon="6.33314">
        <ele>854.4</ele>
        <time>2024-05-10T06:48:37Z</time>
      </trkpt>
      <trkpt lat="46.84724" lon="6.33289">
        <ele>855</ele>
        <time>2024-05-10T06:48:47Z</time>
      </trkpt>
      <trkpt lat="46.84668" lon="6.33262">
        <ele>855.1</ele>
        <time>2024-05-10T06:48:58Z</time>
      </trkpt>
      <trkpt lat="46.84611" lon="6.33232">
        <ele>855.2</ele>
        <time>2024-05-10T06:49:09Z</time>
      </trkpt>
      <trkpt lat="46.84557" lon="6.33207">
        <ele>855</ele>
        <time>2024-05-10T06:49:19Z</time>
      </trkpt>
      <trkpt lat="46.845" lon="6.33181">
        <ele>854.9</ele>
        <time>2024-05-10T06:49:29Z</time>
      </trkpt>
      <trkpt lat="46.84442" lon="6.33143">
        <ele>854.7</ele>
        <time>2024-05-10T06:49:40Z</time>
      </trkpt>
      <trkpt lat="46.84381" lon="6.33161">
        <ele>854.6</ele>
        <time>2024-05-10T06:49:51Z</time>
      </trkpt>
      <trkpt lat="46.84354" lon="6.3324">
        <ele>855</ele>
        <time>2024-05-10T06:50:01Z</time>
      </trkpt>
      <trkpt lat="46.84316" lon="6.33314">
        <ele>855.1</ele>
        <time>2024-05-10T06:50:12Z</time>
      </trkpt>
      <trkpt lat="46.84261" lon="6.33319">
        <ele>855.8</ele>
        <time>2024-05-10T06:50:23Z</time>
      </trkpt>
      <trkpt lat="46.84249" lon="6.33236">
        <ele>856.5</ele>
        <time>2024-05-10T06:50:34Z</time>
      </trkpt>
      <trkpt lat="46.84225" lon="6.33163">
        <ele>857</ele>
        <time>2024-05-10T06:50:44Z</time>
      </trkpt>
      <trkpt lat="46.84198" lon="6.33092">
        <ele>857.9</ele>
        <time>2024-05-10T06:50:55Z</time>
      </trkpt>
      <trkpt lat="46.84158" lon="6.33031">
        <ele>858.7</ele>
        <time>2024-05-10T06:51:06Z</time>
      </trkpt>
      <trkpt lat="46.84102" lon="6.33023">
        <ele>859.3</ele>
        <time>2024-05-10T06:51:16Z</time>
      </trkpt>
      <trkpt lat="46.8404" lon="6.33007">
        <ele>860.3</ele>
        <time>2024-05-10T06:51:26Z</time>
      </trkpt>
      <trkpt lat="46.83986" lon="6.33005">
        <ele>861</ele>
        <time>2024-05-10T06:51:36Z</time>
      </trkpt>
      <trkpt lat="46.83935" lon="6.33011">
        <ele>861.8</ele>
        <time>2024-05-10T06:51:47Z</time>
      </trkpt>
      <trkpt lat="46.83908" lon="6.33075">
        <ele>862.3</ele>
        <time>2024-05-10T06:51:57Z</time>
      </trkpt>
      <trkpt lat="46.83907" lon="6.33156">
        <ele>863.1</ele>
        <time>2024-05-10T06:52:07Z</time>
      </trkpt>
      <trkpt lat="46.83902" lon="6.33236">
        <ele>864</ele>
        <time>2024-05-10T06:52:18Z</time>
      </trkpt>
      <trkpt lat="46.83859" lon="6.33266">
        <ele>864.9</ele>
        <time>2024-05-10T06:52:28Z</time>
      </trkpt>
      <trkpt lat="46.8381" lon="6.33244">
        <ele>865.9</ele>
        <time>2024-05-10T06:52:39Z</time>
      </trkpt>
      <trkpt lat="46.83767" lon="6.33209">
        <ele>866.8</ele>
        <time>2024-05-10T06:52:50Z</time>
      </trkpt>
      <trkpt lat="46.83723" lon="6.33166">
        <ele>867.8</ele>
        <time>2024-05-10T06:53:01Z</time>
      </trkpt>
      <trkpt lat="46.83682" lon="6.33142">
        <ele>868.5</ele>
        <time>2024-05-10T06:53:11Z</time>
      </trkpt>
      <trkpt lat="46.83645" lon="6.33134">
        <ele>869</ele>
        <time>2024-05-10T06:53:22Z</time>
      </trkpt>
      <trkpt lat="46.83634" lon="6.33122">
        <ele>869.2</ele>
        <time>2024-05-10T06:53:32Z</time>
      </trkpt>
      <trkpt lat="46.83634" lon="6.33122">
        <ele>869.2</ele>
        <time>2024-05-10T06:53:43Z</time>
      </trkpt>
      <trkpt lat="46.83634" lon="6.33122">
        <ele>869.2</ele>
        <time>2024-05-10T06:53:53Z</time>
      </trkpt>
      <trkpt lat="46.83634" lon="6.33122">
        <ele>869.2</ele>
        <time>2024-05-10T06:54:03Z</time>
      </trkpt>
      <trkpt lat="46.83633" lon="6.33125">
        <ele>869.2</ele>
        <time>2024-05-10T06:54:14Z</time>
      </trkpt>
      <trkpt lat="46.83634" lon="6.33125">
        <ele>869.2</ele>
        <time>2024-05-10T06:54:24Z</time>
      </trkpt>
      <trkpt lat="46.83629" lon="6.331">
        <ele>869.4</ele>
        <time>2024-05-10T06:54:35Z</time>
      </trkpt>
      <trkpt lat="46.83606" lon="6.33042">
        <ele>870</ele>
        <time>2024-05-10T06:54:46Z</time>
      </trkpt>
      <trkpt lat="46.83596" lon="6.32974">
        <ele>870.3</ele>
        <time>2024-05-10T06:54:56Z</time>
      </trkpt>
      <trkpt lat="46.83572" lon="6.32895">
        <ele>870.6</ele>
        <time>2024-05-10T06:55:07Z</time>
      </trkpt>
      <trkpt lat="46.83538" lon="6.32815">
        <ele>870.3</ele>
        <time>2024-05-10T06:55:17Z</time>
      </trkpt>
      <trkpt lat="46.83509" lon="6.32734">
        <ele>870.4</ele>
        <time>2024-05-10T06:55:27Z</time>
      </trkpt>
      <trkpt lat="46.83475" lon="6.32644">
        <ele>870.5</ele>
        <time>2024-05-10T06:55:39Z</time>
      </trkpt>
      <trkpt lat="46.83427" lon="6.32566">
        <ele>870.5</ele>
        <time>2024-05-10T06:55:50Z</time>
      </trkpt>
      <trkpt lat="46.83398" lon="6.32471">
        <ele>870.5</ele>
        <time>2024-05-10T06:56:00Z</time>
      </trkpt>
      <trkpt lat="46.83372" lon="6.32379">
        <ele>870.5</ele>
        <time>2024-05-10T06:56:11Z</time>
      </trkpt>
      <trkpt lat="46.83359" lon="6.32288">
        <ele>870.5</ele>
        <time>2024-05-10T06:56:22Z</time>
      </trkpt>
      <trkpt lat="46.83351" lon="6.32196">
        <ele>870.3</ele>
        <time>2024-05-10T06:56:32Z</time>
      </trkpt>
      <trkpt lat="46.83354" lon="6.32098">
        <ele>870.8</ele>
        <time>2024-05-10T06:56:42Z</time>
      </trkpt>
      <trkpt lat="46.8333" lon="6.32028">
        <ele>871.4</ele>
        <time>2024-05-10T06:56:52Z</time>
      </trkpt>
      <trkpt lat="46.83274" lon="6.31996">
        <ele>872.2</ele>
        <time>2024-05-10T06:57:03Z</time>
      </trkpt>
      <trkpt lat="46.83246" lon="6.3193">
        <ele>872.9</ele>
        <time>2024-05-10T06:57:14Z</time>
      </trkpt>
      <trkpt lat="46.83222" lon="6.31857">
        <ele>873.6</ele>
        <time>2024-05-10T06:57:24Z</time>
      </trkpt>
      <trkpt lat="46.83169" lon="6.31816">
        <ele>874</ele>
        <time>2024-05-10T06:57:35Z</time>
      </trkpt>
      <trkpt lat="46.83132" lon="6.31756">
        <ele>874.6</ele>
        <time>2024-05-10T06:57:46Z</time>
      </trkpt>
      <trkpt lat="46.8309" lon="6.31704">
        <ele>875.3</ele>
        <time>2024-05-10T06:57:57Z</time>
      </trkpt>
      <trkpt lat="46.83042" lon="6.31672">
        <ele>876.4</ele>
        <time>2024-05-10T06:58:07Z</time>
      </trkpt>
      <trkpt lat="46.82992" lon="6.3164">
        <ele>877.6</ele>
        <time>2024-05-10T06:58:18Z</time>
      </trkpt>
      <trkpt lat="46.82943" lon="6.31607">
        <ele>878.6</ele>
        <time>2024-05-10T06:58:29Z</time>
      </trkpt>
      <trkpt lat="46.82894" lon="6.31575">
        <ele>879.5</ele>
        <time>2024-05-10T06:58:40Z</time>
      </trkpt>
      <trkpt lat="46.82848" lon="6.31541">
        <ele>880</ele>
        <time>2024-05-10T06:58:51Z</time>
      </trkpt>
      <trkpt lat="46.82811" lon="6.31494">
        <ele>880.7</ele>
        <time>2024-05-10T06:59:01Z</time>
      </trkpt>
      <trkpt lat="46.8281" lon="6.31491">
        <ele>880.7</ele>
        <time>2024-05-10T06:59:12Z</time>
      </trkpt>
      <trkpt lat="46.82809" lon="6.3149">
        <ele>880.7</ele>
        <time>2024-05-10T06:59:22Z</time>
      </trkpt>
      <trkpt lat="46.82809" lon="6.3149">
        <ele>880.7</ele>
        <time>2024-05-10T06:59:33Z</time>
      </trkpt>
      <trkpt lat="46.82809" lon="6.3149">
        <ele>880.7</ele>
        <time>2024-05-10T06:59:44Z</time>
      </trkpt>
      <trkpt lat="46.82807" lon="6.3149">
        <ele>880.7</ele>
        <time>2024-05-10T06:59:54Z</time>
      </trkpt>
      <trkpt lat="46.82782" lon="6.31452">
        <ele>880.4</ele>
        <time>2024-05-10T07:00:05Z</time>
      </trkpt>
      <trkpt lat="46.82748" lon="6.31379">
        <ele>879.8</ele>
        <time>2024-05-10T07:00:16Z</time>
      </trkpt>
      <trkpt lat="46.82714" lon="6.31306">
        <ele>879.3</ele>
        <time>2024-05-10T07:00:26Z</time>
      </trkpt>
      <trkpt lat="46.82682" lon="6.31226">
        <ele>878.7</ele>
        <time>2024-05-10T07:00:37Z</time>
      </trkpt>
      <trkpt lat="46.8266" lon="6.31125">
        <ele>878</ele>
        <time>2024-05-10T07:00:47Z</time>
      </trkpt>
      <trkpt lat="46.82636" lon="6.31035">
        <ele>877</ele>
        <time>2024-05-10T07:00:57Z</time>
      </trkpt>
      <trkpt lat="46.82573" lon="6.30964">
        <ele>875.3</ele>
        <time>2024-05-10T07:01:08Z</time>
      </trkpt>
      <trkpt lat="46.82498" lon="6.30911">
        <ele>873.7</ele>
        <time>2024-05-10T07:01:19Z</time>
      </trkpt>
      <trkpt lat="46.82423" lon="6.3093">
        <ele>872.7</ele>
        <time>2024-05-10T07:01:30Z</time>
      </trkpt>
      <trkpt lat="46.82366" lon="6.30975">
        <ele>872.7</ele>
        <time>2024-05-10T07:01:40Z</time>
      </trkpt>
      <trkpt lat="46.82321" lon="6.31024">
        <ele>873</ele>
        <time>2024-05-10T07:01:50Z</time>
      </trkpt>
      <trkpt lat="46.82272" lon="6.31079">
        <ele>873.1</ele>
        <time>2024-05-10T07:02:01Z</time>
      </trkpt>
      <trkpt lat="46.82223" lon="6.31117">
        <ele>873.2</ele>
        <time>2024-05-10T07:02:12Z</time>
      </trkpt>
      <trkpt lat="46.8218" lon="6.31125">
        <ele>875.7</ele>
        <time>2024-05-10T07:02:22Z</time>
      </trkpt>
      <trkpt lat="46.82132" lon="6.31132">
        <ele>876.2</ele>
        <time>2024-05-10T07:02:33Z</time>
      </trkpt>
      <trkpt lat="46.82099" lon="6.3113">
        <ele>877.5</ele>
        <time>2024-05-10T07:02:43Z</time>
      </trkpt>
      <trkpt lat="46.82089" lon="6.31126">
        <ele>877.8</ele>
        <time>2024-05-10T07:02:54Z</time>
      </trkpt>
      <trkpt lat="46.82089" lon="6.31126">
        <ele>877.8</ele>
        <time>2024-05-10T07:03:05Z</time>
      </trkpt>
      <trkpt lat="46.82089" lon="6.31125">
        <ele>877.8</ele>
        <time>2024-05-10T07:03:15Z</time>
      </trkpt>
      <trkpt lat="46.8209" lon="6.31128">
        <ele>877.9</ele>
        <time>2024-05-10T07:03:26Z</time>
      </trkpt>
      <trkpt lat="46.82092" lon="6.31129">
        <ele>877.9</ele>
        <time>2024-05-10T07:03:36Z</time>
      </trkpt>
      <trkpt lat="46.82092" lon="6.31129">
        <ele>877.9</ele>
        <time>2024-05-10T07:03:47Z</time>
      </trkpt>
      <trkpt lat="46.82092" lon="6.31129">
        <ele>877.9</ele>
        <time>2024-05-10T07:03:57Z</time>
      </trkpt>
      <trkpt lat="46.82092" lon="6.31129">
        <ele>877.9</ele>
        <time>2024-05-10T07:04:08Z</time>
      </trkpt>
      <trkpt lat="46.82091" lon="6.31128">
        <ele>877.9</ele>
        <time>2024-05-10T07:04:18Z</time>
      </trkpt>
      <trkpt lat="46.82091" lon="6.31128">
        <ele>877.9</ele>
        <time>2024-05-10T07:04:29Z</time>
      </trkpt>
      <trkpt lat="46.82091" lon="6.31128">
        <ele>877.9</ele>
        <time>2024-05-10T07:04:40Z</time>
      </trkpt>
      <trkpt lat="46.82091" lon="6.31128">
        <ele>877.9</ele>
        <time>2024-05-10T07:04:50Z</time>
      </trkpt>
      <trkpt lat="46.82091" lon="6.31127">
        <ele>877.9</ele>
        <time>2024-05-10T07:05:00Z</time>
      </trkpt>
      <trkpt lat="46.82089" lon="6.31128">
        <ele>877.9</ele>
        <time>2024-05-10T07:05:10Z</time>
      </trkpt>
      <trkpt lat="46.82068" lon="6.31119">
        <ele>878</ele>
        <time>2024-05-10T07:05:20Z</time>
      </trkpt>
      <trkpt lat="46.82021" lon="6.31091">
        <ele>878.5</ele>
        <time>2024-05-10T07:05:31Z</time>
      </trkpt>
      <trkpt lat="46.81978" lon="6.31055">
        <ele>878.7</ele>
        <time>2024-05-10T07:05:42Z</time>
      </trkpt>
      <trkpt lat="46.81941" lon="6.30999">
        <ele>878</ele>
        <time>2024-05-10T07:05:53Z</time>
      </trkpt>
      <trkpt lat="46.8191" lon="6.30959">
        <ele>879.8</ele>
        <time>2024-05-10T07:06:04Z</time>
      </trkpt>
      <trkpt lat="46.81888" lon="6.30917">
        <ele>880.4</ele>
        <time>2024-05-10T07:06:14Z</time>
      </trkpt>
      <trkpt lat="46.8187" lon="6.30852">
        <ele>880.3</ele>
        <time>2024-05-10T07:06:24Z</time>
      </trkpt>
      <trkpt lat="46.81861" lon="6.30777">
        <ele>878.6</ele>
        <time>2024-05-10T07:06:34Z</time>
      </trkpt>
      <trkpt lat="46.81802" lon="6.30783">
        <ele>877.4</ele>
        <time>2024-05-10T07:06:45Z</time>
      </trkpt>
      <trkpt lat="46.81733" lon="6.30739">
        <ele>876.9</ele>
        <time>2024-05-10T07:06:56Z</time>
      </trkpt>
      <trkpt lat="46.81687" lon="6.30703">
        <ele>878.6</ele>
        <time>2024-05-10T07:07:06Z</time>
      </trkpt>
      <trkpt lat="46.81638" lon="6.30654">
        <ele>878.6</ele>
        <time>2024-05-10T07:07:17Z</time>
      </trkpt>
      <trkpt lat="46.81593" lon="6.30599">
        <ele>879.9</ele>
        <time>2024-05-10T07:07:28Z</time>
      </trkpt>
      <trkpt lat="46.81556" lon="6.30548">
        <ele>880.6</ele>
        <time>2024-05-10T07:07:39Z</time>
      </trkpt>
      <trkpt lat="46.81513" lon="6.30493">
        <ele>878.3</ele>
        <time>2024-05-10T07:07:50Z</time>
      </trkpt>
      <trkpt lat="46.81466" lon="6.30413">
        <ele>873.1</ele>
        <time>2024-05-10T07:08:01Z</time>
      </trkpt>
      <trkpt lat="46.8143" lon="6.30374">
        <ele>869.6</ele>
        <time>2024-05-10T07:08:12Z</time>
      </trkpt>
      <trkpt lat="46.81431" lon="6.30374">
        <ele>869.5</ele>
        <time>2024-05-10T07:08:22Z</time>
      </trkpt>
      <trkpt lat="46.81431" lon="6.30374">
        <ele>869.5</ele>
        <time>2024-05-10T07:08:33Z</time>
      </trkpt>
      <trkpt lat="46.81419" lon="6.30363">
        <ele>868.2</ele>
        <time>2024-05-10T07:08:44Z</time>
      </trkpt>
      <trkpt lat="46.81361" lon="6.3032">
        <ele>862.2</ele>
        <time>2024-05-10T07:08:54Z</time>
      </trkpt>
      <trkpt lat="46.81313" lon="6.3026">
        <ele>857</ele>
        <time>2024-05-10T07:09:05Z</time>
      </trkpt>
      <trkpt lat="46.81264" lon="6.30199">
        <ele>856.7</ele>
        <time>2024-05-10T07:09:16Z</time>
      </trkpt>
      <trkpt lat="46.81216" lon="6.3015">
        <ele>857.4</ele>
        <time>2024-05-10T07:09:27Z</time>
      </trkpt>
      <trkpt lat="46.81167" lon="6.30105">
        <ele>858</ele>
        <time>2024-05-10T07:09:38Z</time>
      </trkpt>
      <trkpt lat="46.81121" lon="6.30063">
        <ele>858.2</ele>
        <time>2024-05-10T07:09:48Z</time>
      </trkpt>
      <trkpt lat="46.81071" lon="6.30017">
        <ele>858.1</ele>
        <time>2024-05-10T07:09:58Z</time>
      </trkpt>
      <trkpt lat="46.81012" lon="6.29963">
        <ele>857.7</ele>
        <time>2024-05-10T07:10:09Z</time>
      </trkpt>
      <trkpt lat="46.80954" lon="6.29911">
        <ele>857.7</ele>
        <time>2024-05-10T07:10:20Z</time>
      </trkpt>
      <trkpt lat="46.80897" lon="6.29859">
        <ele>857.7</ele>
        <time>2024-05-10T07:10:31Z</time>
      </trkpt>
      <trkpt lat="46.80845" lon="6.29808">
        <ele>857.4</ele>
        <time>2024-05-10T07:10:41Z</time>
      </trkpt>
      <trkpt lat="46.80793" lon="6.29752">
        <ele>856.9</ele>
        <time>2024-05-10T07:10:52Z</time>
      </trkpt>
      <trkpt lat="46.80739" lon="6.29693">
        <ele>856.7</ele>
        <time>2024-05-10T07:11:02Z</time>
      </trkpt>
      <trkpt lat="46.80684" lon="6.29633">
        <ele>856.6</ele>
        <time>2024-05-10T07:11:12Z</time>
      </trkpt>
      <trkpt lat="46.80625" lon="6.29569">
        <ele>856.5</ele>
        <time>2024-05-10T07:11:22Z</time>
      </trkpt>
      <trkpt lat="46.80573" lon="6.29514">
        <ele>857</ele>
        <time>2024-05-10T07:11:32Z</time>
      </trkpt>
      <trkpt lat="46.80516" lon="6.29452">
        <ele>857.3</ele>
        <time>2024-05-10T07:11:43Z</time>
      </trkpt>
      <trkpt lat="46.80468" lon="6.29389">
        <ele>857.5</ele>
        <time>2024-05-10T07:11:54Z</time>
      </trkpt>
      <trkpt lat="46.80426" lon="6.29303">
        <ele>857.5</ele>
        <time>2024-05-10T07:12:05Z</time>
      </trkpt>
      <trkpt lat="46.80383" lon="6.29214">
        <ele>857.5</ele>
        <time>2024-05-10T07:12:15Z</time>
      </trkpt>
      <trkpt lat="46.80342" lon="6.29128">
        <ele>857.1</ele>
        <time>2024-05-10T07:12:26Z</time>
      </trkpt>
      <trkpt lat="46.80294" lon="6.29051">
        <ele>857</ele>
        <time>2024-05-10T07:12:36Z</time>
      </trkpt>
      <trkpt lat="46.80222" lon="6.28998">
        <ele>857.2</ele>
        <time>2024-05-10T07:12:46Z</time>
      </trkpt>
      <trkpt lat="46.80154" lon="6.28954">
        <ele>857.2</ele>
        <time>2024-05-10T07:12:57Z</time>
      </trkpt>
      <trkpt lat="46.80135" lon="6.28953">
        <ele>857.2</ele>
        <time>2024-05-10T07:13:07Z</time>
      </trkpt>
      <trkpt lat="46.80135" lon="6.28953">
        <ele>857.2</ele>
        <time>2024-05-10T07:13:17Z</time>
      </trkpt>
      <trkpt lat="46.80137" lon="6.28944">
        <ele>857.2</ele>
        <time>2024-05-10T07:13:28Z</time>
      </trkpt>
      <trkpt lat="46.8009" lon="6.28911">
        <ele>857.1</ele>
        <time>2024-05-10T07:13:38Z</time>
      </trkpt>
      <trkpt lat="46.80035" lon="6.28878">
        <ele>857</ele>
        <time>2024-05-10T07:13:48Z</time>
      </trkpt>
      <trkpt lat="46.79974" lon="6.28851">
        <ele>856.7</ele>
        <time>2024-05-10T07:13:59Z</time>
      </trkpt>
      <trkpt lat="46.79905" lon="6.28836">
        <ele>856.9</ele>
        <time>2024-05-10T07:14:10Z</time>
      </trkpt>
      <trkpt lat="46.79839" lon="6.28816">
        <ele>856.7</ele>
        <time>2024-05-10T07:14:20Z</time>
      </trkpt>
      <trkpt lat="46.79766" lon="6.28793">
        <ele>856.5</ele>
        <time>2024-05-10T07:14:30Z</time>
      </trkpt>
      <trkpt lat="46.797" lon="6.28737">
        <ele>855.9</ele>
        <time>2024-05-10T07:14:41Z</time>
      </trkpt>
      <trkpt lat="46.79633" lon="6.28698">
        <ele>855.5</ele>
        <time>2024-05-10T07:14:52Z</time>
      </trkpt>
      <trkpt lat="46.79568" lon="6.28704">
        <ele>855.8</ele>
        <time>2024-05-10T07:15:03Z</time>
      </trkpt>
      <trkpt lat="46.79507" lon="6.28725">
        <ele>855.7</ele>
        <time>2024-05-10T07:15:13Z</time>
      </trkpt>
      <trkpt lat="46.79435" lon="6.28709">
        <ele>855.3</ele>
        <time>2024-05-10T07:15:23Z</time>
      </trkpt>
      <trkpt lat="46.79372" lon="6.28684">
        <ele>855.1</ele>
        <time>2024-05-10T07:15:34Z</time>
      </trkpt>
      <trkpt lat="46.7931" lon="6.28644">
        <ele>854.9</ele>
        <time>2024-05-10T07:15:44Z</time>
      </trkpt>
      <trkpt lat="46.79247" lon="6.28588">
        <ele>854.9</ele>
        <time>2024-05-10T07:15:54Z</time>
      </trkpt>
      <trkpt lat="46.79199" lon="6.28517">
        <ele>854.7</ele>
        <time>2024-05-10T07:16:04Z</time>
      </trkpt>
      <trkpt lat="46.79143" lon="6.28435">
        <ele>854.8</ele>
        <time>2024-05-10T07:16:15Z</time>
      </trkpt>
      <trkpt lat="46.7909" lon="6.2835">
        <ele>854.8</ele>
        <time>2024-05-10T07:16:26Z</time>
      </trkpt>
      <trkpt lat="46.79053" lon="6.28259">
        <ele>854.4</ele>
        <time>2024-05-10T07:16:36Z</time>
      </trkpt>
      <trkpt lat="46.79015" lon="6.28155">
        <ele>854.3</ele>
        <time>2024-05-10T07:16:47Z</time>
      </trkpt>
      <trkpt lat="46.78977" lon="6.28052">
        <ele>854.2</ele>
        <time>2024-05-10T07:16:58Z</time>
      </trkpt>
      <trkpt lat="46.78928" lon="6.2796">
        <ele>853.8</ele>
        <time>2024-05-10T07:17:09Z</time>
      </trkpt>
      <trkpt lat="46.78877" lon="6.27886">
        <ele>853.4</ele>
        <time>2024-05-10T07:17:19Z</time>
      </trkpt>
      <trkpt lat="46.78824" lon="6.27809">
        <ele>853.6</ele>
        <time>2024-05-10T07:17:30Z</time>
      </trkpt>
      <trkpt lat="46.78798" lon="6.27777">
        <ele>853.7</ele>
        <time>2024-05-10T07:17:40Z</time>
      </trkpt>
      <trkpt lat="46.78764" lon="6.2782">
        <ele>853.2</ele>
        <time>2024-05-10T07:17:50Z</time>
      </trkpt>
      <trkpt lat="46.78733" lon="6.27886">
        <ele>853.2</ele>
        <time>2024-05-10T07:18:01Z</time>
      </trkpt>
      <trkpt lat="46.78694" lon="6.27939">
        <ele>853.7</ele>
        <time>2024-05-10T07:18:12Z</time>
      </trkpt>
      <trkpt lat="46.7868" lon="6.27967">
        <ele>853.8</ele>
        <time>2024-05-10T07:18:22Z</time>
      </trkpt>
      <trkpt lat="46.7868" lon="6.27966">
        <ele>853.8</ele>
        <time>2024-05-10T07:18:33Z</time>
      </trkpt>
      <trkpt lat="46.78679" lon="6.27965">
        <ele>853.8</ele>
        <time>2024-05-10T07:18:44Z</time>
      </trkpt>
      <trkpt lat="46.7868" lon="6.27966">
        <ele>853.8</ele>
        <time>2024-05-10T07:18:54Z</time>
      </trkpt>
      <trkpt lat="46.7868" lon="6.27966">
        <ele>853.8</ele>
        <time>2024-05-10T07:19:05Z</time>
      </trkpt>
      <trkpt lat="46.7868" lon="6.27966">
        <ele>853.8</ele>
        <time>2024-05-10T07:19:15Z</time>
      </trkpt>
      <trkpt lat="46.7868" lon="6.27966">
        <ele>853.8</ele>
        <time>2024-05-10T07:19:26Z</time>
      </trkpt>
      <trkpt lat="46.78679" lon="6.27969">
        <ele>853.8</ele>
        <time>2024-05-10T07:19:36Z</time>
      </trkpt>
      <trkpt lat="46.78679" lon="6.27969">
        <ele>853.8</ele>
        <time>2024-05-10T07:19:47Z</time>
      </trkpt>
      <trkpt lat="46.78678" lon="6.27969">
        <ele>853.8</ele>
        <time>2024-05-10T07:19:57Z</time>
      </trkpt>
      <trkpt lat="46.78678" lon="6.27969">
        <ele>853.8</ele>
        <time>2024-05-10T07:20:07Z</time>
      </trkpt>
      <trkpt lat="46.78678" lon="6.27969">
        <ele>853.8</ele>
        <time>2024-05-10T07:20:18Z</time>
      </trkpt>
      <trkpt lat="46.78669" lon="6.27986">
        <ele>853.7</ele>
        <time>2024-05-10T07:20:29Z</time>
      </trkpt>
      <trkpt lat="46.78656" lon="6.28043">
        <ele>853.2</ele>
        <time>2024-05-10T07:20:40Z</time>
      </trkpt>
      <trkpt lat="46.78623" lon="6.28073">
        <ele>853</ele>
        <time>2024-05-10T07:20:50Z</time>
      </trkpt>
      <trkpt lat="46.78588" lon="6.28115">
        <ele>852.8</ele>
        <time>2024-05-10T07:21:00Z</time>
      </trkpt>
      <trkpt lat="46.78549" lon="6.28169">
        <ele>852.8</ele>
        <time>2024-05-10T07:21:11Z</time>
      </trkpt>
      <trkpt lat="46.78502" lon="6.28232">
        <ele>853.2</ele>
        <time>2024-05-10T07:21:21Z</time>
      </trkpt>
      <trkpt lat="46.7846" lon="6.28288">
        <ele>853.6</ele>
        <time>2024-05-10T07:21:31Z</time>
      </trkpt>
      <trkpt lat="46.78421" lon="6.28342">
        <ele>854.6</ele>
        <time>2024-05-10T07:21:41Z</time>
      </trkpt>
      <trkpt lat="46.7838" lon="6.28352">
        <ele>855.7</ele>
        <time>2024-05-10T07:21:51Z</time>
      </trkpt>
      <trkpt lat="46.7834" lon="6.28331">
        <ele>857.7</ele>
        <time>2024-05-10T07:22:03Z</time>
      </trkpt>
      <trkpt lat="46.783" lon="6.28308">
        <ele>858.4</ele>
        <time>2024-05-10T07:22:13Z</time>
      </trkpt>
      <trkpt lat="46.78261" lon="6.28256">
        <ele>858.5</ele>
        <time>2024-05-10T07:22:24Z</time>
      </trkpt>
      <trkpt lat="46.78229" lon="6.28206">
        <ele>858.6</ele>
        <time>2024-05-10T07:22:34Z</time>
      </trkpt>
      <trkpt lat="46.78194" lon="6.2815">
        <ele>858.7</ele>
        <time>2024-05-10T07:22:44Z</time>
      </trkpt>
      <trkpt lat="46.78154" lon="6.2809">
        <ele>858.7</ele>
        <time>2024-05-10T07:22:54Z</time>
      </trkpt>
      <trkpt lat="46.78112" lon="6.28023">
        <ele>858.7</ele>
        <time>2024-05-10T07:23:05Z</time>
      </trkpt>
      <trkpt lat="46.78064" lon="6.27949">
        <ele>858.2</ele>
        <time>2024-05-10T07:23:16Z</time>
      </trkpt>
      <trkpt lat="46.78002" lon="6.27888">
        <ele>857.7</ele>
        <time>2024-05-10T07:23:27Z</time>
      </trkpt>
      <trkpt lat="46.77939" lon="6.27872">
        <ele>857.7</ele>
        <time>2024-05-10T07:23:37Z</time>
      </trkpt>
      <trkpt lat="46.77878" lon="6.27869">
        <ele>859.4</ele>
        <time>2024-05-10T07:23:48Z</time>
      </trkpt>
      <trkpt lat="46.77832" lon="6.27873">
        <ele>860.9</ele>
        <time>2024-05-10T07:23:58Z</time>
      </trkpt>
      <trkpt lat="46.77785" lon="6.27884">
        <ele>862.4</ele>
        <time>2024-05-10T07:24:08Z</time>
      </trkpt>
      <trkpt lat="46.77741" lon="6.27892">
        <ele>863.8</ele>
        <time>2024-05-10T07:24:19Z</time>
      </trkpt>
      <trkpt lat="46.77699" lon="6.27906">
        <ele>865.2</ele>
        <time>2024-05-10T07:24:29Z</time>
      </trkpt>
      <trkpt lat="46.77655" lon="6.27918">
        <ele>866.4</ele>
        <time>2024-05-10T07:24:39Z</time>
      </trkpt>
      <trkpt lat="46.77605" lon="6.27943">
        <ele>865.9</ele>
        <time>2024-05-10T07:24:50Z</time>
      </trkpt>
      <trkpt lat="46.77548" lon="6.27973">
        <ele>863.9</ele>
        <time>2024-05-10T07:25:01Z</time>
      </trkpt>
      <trkpt lat="46.77477" lon="6.28004">
        <ele>860.9</ele>
        <time>2024-05-10T07:25:11Z</time>
      </trkpt>
      <trkpt lat="46.77399" lon="6.28044">
        <ele>857.6</ele>
        <time>2024-05-10T07:25:21Z</time>
      </trkpt>
      <trkpt lat="46.77306" lon="6.28044">
        <ele>857.2</ele>
        <time>2024-05-10T07:25:32Z</time>
      </trkpt>
      <trkpt lat="46.77256" lon="6.2797">
        <ele>856.9</ele>
        <time>2024-05-10T07:25:43Z</time>
      </trkpt>
      <trkpt lat="46.77176" lon="6.27945">
        <ele>856.2</ele>
        <time>2024-05-10T07:25:54Z</time>
      </trkpt>
      <trkpt lat="46.77101" lon="6.27941">
        <ele>856.1</ele>
        <time>2024-05-10T07:26:04Z</time>
      </trkpt>
      <trkpt lat="46.77029" lon="6.2791">
        <ele>857</ele>
        <time>2024-05-10T07:26:14Z</time>
      </trkpt>
      <trkpt lat="46.76988" lon="6.27848">
        <ele>858.3</ele>
        <time>2024-05-10T07:26:26Z</time>
      </trkpt>
      <trkpt lat="46.76954" lon="6.27792">
        <ele>859.9</ele>
        <time>2024-05-10T07:26:36Z</time>
      </trkpt>
      <trkpt lat="46.76911" lon="6.27742">
        <ele>861.7</ele>
        <time>2024-05-10T07:26:46Z</time>
      </trkpt>
      <trkpt lat="46.76871" lon="6.27707">
        <ele>863</ele>
        <time>2024-05-10T07:26:56Z</time>
      </trkpt>
      <trkpt lat="46.76828" lon="6.27675">
        <ele>864.3</ele>
        <time>2024-05-10T07:27:07Z</time>
      </trkpt>
      <trkpt lat="46.76787" lon="6.27646">
        <ele>865.4</ele>
        <time>2024-05-10T07:27:18Z</time>
      </trkpt>
      <trkpt lat="46.7674" lon="6.27613">
        <ele>866.2</ele>
        <time>2024-05-10T07:27:29Z</time>
      </trkpt>
      <trkpt lat="46.76692" lon="6.27578">
        <ele>867.2</ele>
        <time>2024-05-10T07:27:39Z</time>
      </trkpt>
      <trkpt lat="46.76645" lon="6.2754">
        <ele>868.3</ele>
        <time>2024-05-10T07:27:50Z</time>
      </trkpt>
      <trkpt lat="46.76605" lon="6.27498">
        <ele>869.2</ele>
        <time>2024-05-10T07:28:01Z</time>
      </trkpt>
      <trkpt lat="46.7657" lon="6.27436">
        <ele>870.3</ele>
        <time>2024-05-10T07:28:11Z</time>
      </trkpt>
      <trkpt lat="46.76548" lon="6.27366">
        <ele>871.7</ele>
        <time>2024-05-10T07:28:22Z</time>
      </trkpt>
      <trkpt lat="46.76538" lon="6.27292">
        <ele>873</ele>
        <time>2024-05-10T07:28:33Z</time>
      </trkpt>
      <trkpt lat="46.76537" lon="6.27229">
        <ele>874.3</ele>
        <time>2024-05-10T07:28:43Z</time>
      </trkpt>
      <trkpt lat="46.76535" lon="6.27165">
        <ele>875.4</ele>
        <time>2024-05-10T07:28:54Z</time>
      </trkpt>
      <trkpt lat="46.76522" lon="6.2709">
        <ele>876</ele>
        <time>2024-05-10T07:29:04Z</time>
      </trkpt>
      <trkpt lat="46.76498" lon="6.27016">
        <ele>875.9</ele>
        <time>2024-05-10T07:29:15Z</time>
      </trkpt>
      <trkpt lat="46.76453" lon="6.26942">
        <ele>874.6</ele>
        <time>2024-05-10T07:29:26Z</time>
      </trkpt>
      <trkpt lat="46.76395" lon="6.26875">
        <ele>872.6</ele>
        <time>2024-05-10T07:29:36Z</time>
      </trkpt>
      <trkpt lat="46.76326" lon="6.26795">
        <ele>871.6</ele>
        <time>2024-05-10T07:29:47Z</time>
      </trkpt>
      <trkpt lat="46.76264" lon="6.2674">
        <ele>872.5</ele>
        <time>2024-05-10T07:29:58Z</time>
      </trkpt>
      <trkpt lat="46.76194" lon="6.26704">
        <ele>873.4</ele>
        <time>2024-05-10T07:30:08Z</time>
      </trkpt>
      <trkpt lat="46.76127" lon="6.26654">
        <ele>873.4</ele>
        <time>2024-05-10T07:30:20Z</time>
      </trkpt>
      <trkpt lat="46.7606" lon="6.26594">
        <ele>872.4</ele>
        <time>2024-05-10T07:30:30Z</time>
      </trkpt>
      <trkpt lat="46.76" lon="6.26529">
        <ele>870.7</ele>
        <time>2024-05-10T07:30:41Z</time>
      </trkpt>
      <trkpt lat="46.75931" lon="6.26444">
        <ele>868.4</ele>
        <time>2024-05-10T07:30:51Z</time>
      </trkpt>
      <trkpt lat="46.7586" lon="6.26356">
        <ele>867.7</ele>
        <time>2024-05-10T07:31:02Z</time>
      </trkpt>
      <trkpt lat="46.75814" lon="6.26266">
        <ele>868.7</ele>
        <time>2024-05-10T07:31:13Z</time>
      </trkpt>
      <trkpt lat="46.75784" lon="6.26195">
        <ele>870.2</ele>
        <time>2024-05-10T07:31:24Z</time>
      </trkpt>
      <trkpt lat="46.7576" lon="6.26132">
        <ele>871.8</ele>
        <time>2024-05-10T07:31:35Z</time>
      </trkpt>
      <trkpt lat="46.75741" lon="6.26066">
        <ele>873.4</ele>
        <time>2024-05-10T07:31:46Z</time>
      </trkpt>
      <trkpt lat="46.75733" lon="6.26006">
        <ele>874.7</ele>
        <time>2024-05-10T07:31:56Z</time>
      </trkpt>
      <trkpt lat="46.75721" lon="6.25949">
        <ele>876</ele>
        <time>2024-05-10T07:32:06Z</time>
      </trkpt>
      <trkpt lat="46.75703" lon="6.25897">
        <ele>877.2</ele>
        <time>2024-05-10T07:32:16Z</time>
      </trkpt>
      <trkpt lat="46.75678" lon="6.25841">
        <ele>878.7</ele>
        <time>2024-05-10T07:32:27Z</time>
      </trkpt>
      <trkpt lat="46.75656" lon="6.25789">
        <ele>880.3</ele>
        <time>2024-05-10T07:32:37Z</time>
      </trkpt>
      <trkpt lat="46.75633" lon="6.25735">
        <ele>881.7</ele>
        <time>2024-05-10T07:32:49Z</time>
      </trkpt>
      <trkpt lat="46.75602" lon="6.2569">
        <ele>883.4</ele>
        <time>2024-05-10T07:33:00Z</time>
      </trkpt>
      <trkpt lat="46.75564" lon="6.25654">
        <ele>885.7</ele>
        <time>2024-05-10T07:33:10Z</time>
      </trkpt>
      <trkpt lat="46.75532" lon="6.25624">
        <ele>887.4</ele>
        <time>2024-05-10T07:33:20Z</time>
      </trkpt>
      <trkpt lat="46.75496" lon="6.25591">
        <ele>889.2</ele>
        <time>2024-05-10T07:33:31Z</time>
      </trkpt>
      <trkpt lat="46.75456" lon="6.25562">
        <ele>890.9</ele>
        <time>2024-05-10T07:33:42Z</time>
      </trkpt>
      <trkpt lat="46.75414" lon="6.25536">
        <ele>892.3</ele>
        <time>2024-05-10T07:33:53Z</time>
      </trkpt>
      <trkpt lat="46.75371" lon="6.25508">
        <ele>893.8</ele>
        <time>2024-05-10T07:34:04Z</time>
      </trkpt>
      <trkpt lat="46.75332" lon="6.25481">
        <ele>895.3</ele>
        <time>2024-05-10T07:34:15Z</time>
      </trkpt>
      <trkpt lat="46.75289" lon="6.25453">
        <ele>897</ele>
        <time>2024-05-10T07:34:25Z</time>
      </trkpt>
      <trkpt lat="46.7525" lon="6.25426">
        <ele>898.5</ele>
        <time>2024-05-10T07:34:35Z</time>
      </trkpt>
      <trkpt lat="46.75208" lon="6.25402">
        <ele>900.2</ele>
        <time>2024-05-10T07:34:46Z</time>
      </trkpt>
      <trkpt lat="46.7516" lon="6.254">
        <ele>902.2</ele>
        <time>2024-05-10T07:34:57Z</time>
      </trkpt>
      <trkpt lat="46.75114" lon="6.25425">
        <ele>904.3</ele>
        <time>2024-05-10T07:35:08Z</time>
      </trkpt>
      <trkpt lat="46.7508" lon="6.25454">
        <ele>905.2</ele>
        <time>2024-05-10T07:35:18Z</time>
      </trkpt>
      <trkpt lat="46.75042" lon="6.25469">
        <ele>906.2</ele>
        <time>2024-05-10T07:35:28Z</time>
      </trkpt>
      <trkpt lat="46.75002" lon="6.25462">
        <ele>907.5</ele>
        <time>2024-05-10T07:35:38Z</time>
      </trkpt>
      <trkpt lat="46.74962" lon="6.25429">
        <ele>909.8</ele>
        <time>2024-05-10T07:35:49Z</time>
      </trkpt>
      <trkpt lat="46.74932" lon="6.25385">
        <ele>911.6</ele>
        <time>2024-05-10T07:35:59Z</time>
      </trkpt>
      <trkpt lat="46.74898" lon="6.25335">
        <ele>912.3</ele>
        <time>2024-05-10T07:36:10Z</time>
      </trkpt>
      <trkpt lat="46.74861" lon="6.25285">
        <ele>912.4</ele>
        <time>2024-05-10T07:36:20Z</time>
      </trkpt>
      <trkpt lat="46.74815" lon="6.25242">
        <ele>912.5</ele>
        <time>2024-05-10T07:36:30Z</time>
      </trkpt>
      <trkpt lat="46.74756" lon="6.25195">
        <ele>912.3</ele>
        <time>2024-05-10T07:36:41Z</time>
      </trkpt>
      <trkpt lat="46.74694" lon="6.25144">
        <ele>912.2</ele>
        <time>2024-05-10T07:36:52Z</time>
      </trkpt>
      <trkpt lat="46.74627" lon="6.25117">
        <ele>912.4</ele>
        <time>2024-05-10T07:37:03Z</time>
      </trkpt>
      <trkpt lat="46.74564" lon="6.25123">
        <ele>912.4</ele>
        <time>2024-05-10T07:37:13Z</time>
      </trkpt>
      <trkpt lat="46.74502" lon="6.25129">
        <ele>912.8</ele>
        <time>2024-05-10T07:37:23Z</time>
      </trkpt>
      <trkpt lat="46.74442" lon="6.25134">
        <ele>913.5</ele>
        <time>2024-05-10T07:37:33Z</time>
      </trkpt>
      <trkpt lat="46.74385" lon="6.25139">
        <ele>914.4</ele>
        <time>2024-05-10T07:37:43Z</time>
      </trkpt>
      <trkpt lat="46.74326" lon="6.25145">
        <ele>915.4</ele>
        <time>2024-05-10T07:37:54Z</time>
      </trkpt>
      <trkpt lat="46.74267" lon="6.25152">
        <ele>916.5</ele>
        <time>2024-05-10T07:38:05Z</time>
      </trkpt>
      <trkpt lat="46.74212" lon="6.2516">
        <ele>917.1</ele>
        <time>2024-05-10T07:38:16Z</time>
      </trkpt>
      <trkpt lat="46.74156" lon="6.25167">
        <ele>917.5</ele>
        <time>2024-05-10T07:38:26Z</time>
      </trkpt>
      <trkpt lat="46.74092" lon="6.25174">
        <ele>918.1</ele>
        <time>2024-05-10T07:38:36Z</time>
      </trkpt>
      <trkpt lat="46.74031" lon="6.25172">
        <ele>918.5</ele>
        <time>2024-05-10T07:38:46Z</time>
      </trkpt>
      <trkpt lat="46.73963" lon="6.2515">
        <ele>918.8</ele>
        <time>2024-05-10T07:38:58Z</time>
      </trkpt>
      <trkpt lat="46.73902" lon="6.25105">
        <ele>919.3</ele>
        <time>2024-05-10T07:39:08Z</time>
      </trkpt>
      <trkpt lat="46.73854" lon="6.25049">
        <ele>919.7</ele>
        <time>2024-05-10T07:39:18Z</time>
      </trkpt>
      <trkpt lat="46.73813" lon="6.24979">
        <ele>920.1</ele>
        <time>2024-05-10T07:39:28Z</time>
      </trkpt>
      <trkpt lat="46.7377" lon="6.24909">
        <ele>920.4</ele>
        <time>2024-05-10T07:39:39Z</time>
      </trkpt>
      <trkpt lat="46.73724" lon="6.24831">
        <ele>921</ele>
        <time>2024-05-10T07:39:50Z</time>
      </trkpt>
      <trkpt lat="46.73682" lon="6.24762">
        <ele>921.9</ele>
        <time>2024-05-10T07:40:00Z</time>
      </trkpt>
      <trkpt lat="46.73639" lon="6.24688">
        <ele>923</ele>
        <time>2024-05-10T07:40:10Z</time>
      </trkpt>
      <trkpt lat="46.73602" lon="6.24625">
        <ele>924.2</ele>
        <time>2024-05-10T07:40:21Z</time>
      </trkpt>
      <trkpt lat="46.73565" lon="6.24556">
        <ele>926.1</ele>
        <time>2024-05-10T07:40:31Z</time>
      </trkpt>
      <trkpt lat="46.73535" lon="6.24497">
        <ele>927.6</ele>
        <time>2024-05-10T07:40:41Z</time>
      </trkpt>
      <trkpt lat="46.73501" lon="6.24432">
        <ele>928.8</ele>
        <time>2024-05-10T07:40:52Z</time>
      </trkpt>
      <trkpt lat="46.7347" lon="6.24372">
        <ele>929.7</ele>
        <time>2024-05-10T07:41:03Z</time>
      </trkpt>
      <trkpt lat="46.73439" lon="6.24304">
        <ele>930</ele>
        <time>2024-05-10T07:41:13Z</time>
      </trkpt>
      <trkpt lat="46.73415" lon="6.24241">
        <ele>929.2</ele>
        <time>2024-05-10T07:41:23Z</time>
      </trkpt>
      <trkpt lat="46.73394" lon="6.24166">
        <ele>927.7</ele>
        <time>2024-05-10T07:41:33Z</time>
      </trkpt>
      <trkpt lat="46.73364" lon="6.24076">
        <ele>925.4</ele>
        <time>2024-05-10T07:41:44Z</time>
      </trkpt>
      <trkpt lat="46.73319" lon="6.2398">
        <ele>922.7</ele>
        <time>2024-05-10T07:41:54Z</time>
      </trkpt>
      <trkpt lat="46.73262" lon="6.23902">
        <ele>921.2</ele>
        <time>2024-05-10T07:42:04Z</time>
      </trkpt>
      <trkpt lat="46.73196" lon="6.23831">
        <ele>921.5</ele>
        <time>2024-05-10T07:42:15Z</time>
      </trkpt>
      <trkpt lat="46.73139" lon="6.23768">
        <ele>921.8</ele>
        <time>2024-05-10T07:42:25Z</time>
      </trkpt>
      <trkpt lat="46.7309" lon="6.23693">
        <ele>922</ele>
        <time>2024-05-10T07:42:35Z</time>
      </trkpt>
      <trkpt lat="46.73052" lon="6.23612">
        <ele>922.8</ele>
        <time>2024-05-10T07:42:45Z</time>
      </trkpt>
      <trkpt lat="46.73023" lon="6.23535">
        <ele>924.4</ele>
        <time>2024-05-10T07:42:55Z</time>
      </trkpt>
      <trkpt lat="46.72997" lon="6.23462">
        <ele>926.7</ele>
        <time>2024-05-10T07:43:06Z</time>
      </trkpt>
      <trkpt lat="46.72975" lon="6.23401">
        <ele>928.8</ele>
        <time>2024-05-10T07:43:16Z</time>
      </trkpt>
      <trkpt lat="46.72951" lon="6.2334">
        <ele>931</ele>
        <time>2024-05-10T07:43:27Z</time>
      </trkpt>
      <trkpt lat="46.72927" lon="6.23279">
        <ele>933</ele>
        <time>2024-05-10T07:43:38Z</time>
      </trkpt>
      <trkpt lat="46.72897" lon="6.23219">
        <ele>934.2</ele>
        <time>2024-05-10T07:43:49Z</time>
      </trkpt>
      <trkpt lat="46.72869" lon="6.23165">
        <ele>935.1</ele>
        <time>2024-05-10T07:43:59Z</time>
      </trkpt>
      <trkpt lat="46.7284" lon="6.23102">
        <ele>935.5</ele>
        <time>2024-05-10T07:44:10Z</time>
      </trkpt>
      <trkpt lat="46.7281" lon="6.23019">
        <ele>935.1</ele>
        <time>2024-05-10T07:44:20Z</time>
      </trkpt>
      <trkpt lat="46.7279" lon="6.22924">
        <ele>933.6</ele>
        <time>2024-05-10T07:44:30Z</time>
      </trkpt>
      <trkpt lat="46.72776" lon="6.22813">
        <ele>932.1</ele>
        <time>2024-05-10T07:44:41Z</time>
      </trkpt>
      <trkpt lat="46.72762" lon="6.22699">
        <ele>931.6</ele>
        <time>2024-05-10T07:44:51Z</time>
      </trkpt>
      <trkpt lat="46.72746" lon="6.22584">
        <ele>931.6</ele>
        <time>2024-05-10T07:45:01Z</time>
      </trkpt>
      <trkpt lat="46.72722" lon="6.2247">
        <ele>931.6</ele>
        <time>2024-05-10T07:45:12Z</time>
      </trkpt>
      <trkpt lat="46.72699" lon="6.2237">
        <ele>932.2</ele>
        <time>2024-05-10T07:45:22Z</time>
      </trkpt>
      <trkpt lat="46.72683" lon="6.22286">
        <ele>933.3</ele>
        <time>2024-05-10T07:45:32Z</time>
      </trkpt>
      <trkpt lat="46.72669" lon="6.22198">
        <ele>934.6</ele>
        <time>2024-05-10T07:45:43Z</time>
      </trkpt>
      <trkpt lat="46.72656" lon="6.22114">
        <ele>934.7</ele>
        <time>2024-05-10T07:45:53Z</time>
      </trkpt>
      <trkpt lat="46.72623" lon="6.2201">
        <ele>933.9</ele>
        <time>2024-05-10T07:46:04Z</time>
      </trkpt>
      <trkpt lat="46.72584" lon="6.21917">
        <ele>933.1</ele>
        <time>2024-05-10T07:46:14Z</time>
      </trkpt>
      <trkpt lat="46.72536" lon="6.21839">
        <ele>932.2</ele>
        <time>2024-05-10T07:46:24Z</time>
      </trkpt>
      <trkpt lat="46.72483" lon="6.2176">
        <ele>931.6</ele>
        <time>2024-05-10T07:46:35Z</time>
      </trkpt>
      <trkpt lat="46.72436" lon="6.21673">
        <ele>932.2</ele>
        <time>2024-05-10T07:46:45Z</time>
      </trkpt>
      <trkpt lat="46.724" lon="6.21576">
        <ele>932.9</ele>
        <time>2024-05-10T07:46:56Z</time>
      </trkpt>
      <trkpt lat="46.72366" lon="6.21489">
        <ele>932.7</ele>
        <time>2024-05-10T07:47:06Z</time>
      </trkpt>
      <trkpt lat="46.72332" lon="6.21394">
        <ele>931.5</ele>
        <time>2024-05-10T07:47:16Z</time>
      </trkpt>
      <trkpt lat="46.72289" lon="6.21286">
        <ele>929.8</ele>
        <time>2024-05-10T07:47:26Z</time>
      </trkpt>
      <trkpt lat="46.72231" lon="6.21196">
        <ele>928.2</ele>
        <time>2024-05-10T07:47:36Z</time>
      </trkpt>
      <trkpt lat="46.7217" lon="6.21106">
        <ele>927.8</ele>
        <time>2024-05-10T07:47:46Z</time>
      </trkpt>
      <trkpt lat="46.72115" lon="6.21027">
        <ele>928.8</ele>
        <time>2024-05-10T07:47:56Z</time>
      </trkpt>
      <trkpt lat="46.72067" lon="6.20959">
        <ele>931.7</ele>
        <time>2024-05-10T07:48:07Z</time>
      </trkpt>
      <trkpt lat="46.72032" lon="6.20909">
        <ele>933.7</ele>
        <time>2024-05-10T07:48:17Z</time>
      </trkpt>
      <trkpt lat="46.71995" lon="6.20853">
        <ele>935</ele>
        <time>2024-05-10T07:48:28Z</time>
      </trkpt>
      <trkpt lat="46.7196" lon="6.20789">
        <ele>935.1</ele>
        <time>2024-05-10T07:48:39Z</time>
      </trkpt>
      <trkpt lat="46.71929" lon="6.20701">
        <ele>934.6</ele>
        <time>2024-05-10T07:48:49Z</time>
      </trkpt>
      <trkpt lat="46.71914" lon="6.20596">
        <ele>933.3</ele>
        <time>2024-05-10T07:49:00Z</time>
      </trkpt>
      <trkpt lat="46.7191" lon="6.20494">
        <ele>931.6</ele>
        <time>2024-05-10T07:49:10Z</time>
      </trkpt>
      <trkpt lat="46.71899" lon="6.20391">
        <ele>930.9</ele>
        <time>2024-05-10T07:49:20Z</time>
      </trkpt>
      <trkpt lat="46.71873" lon="6.2029">
        <ele>930.5</ele>
        <time>2024-05-10T07:49:31Z</time>
      </trkpt>
      <trkpt lat="46.71844" lon="6.20193">
        <ele>930.4</ele>
        <time>2024-05-10T07:49:41Z</time>
      </trkpt>
      <trkpt lat="46.7181" lon="6.20112">
        <ele>930.5</ele>
        <time>2024-05-10T07:49:51Z</time>
      </trkpt>
      <trkpt lat="46.7177" lon="6.20035">
        <ele>932.2</ele>
        <time>2024-05-10T07:50:02Z</time>
      </trkpt>
      <trkpt lat="46.7174" lon="6.19981">
        <ele>934.4</ele>
        <time>2024-05-10T07:50:12Z</time>
      </trkpt>
      <trkpt lat="46.71713" lon="6.19932">
        <ele>935.8</ele>
        <time>2024-05-10T07:50:22Z</time>
      </trkpt>
      <trkpt lat="46.71684" lon="6.1988">
        <ele>936.9</ele>
        <time>2024-05-10T07:50:34Z</time>
      </trkpt>
      <trkpt lat="46.71651" lon="6.19816">
        <ele>936.9</ele>
        <time>2024-05-10T07:50:44Z</time>
      </trkpt>
      <trkpt lat="46.7161" lon="6.19738">
        <ele>935.8</ele>
        <time>2024-05-10T07:50:55Z</time>
      </trkpt>
      <trkpt lat="46.71568" lon="6.19661">
        <ele>935.5</ele>
        <time>2024-05-10T07:51:06Z</time>
      </trkpt>
      <trkpt lat="46.7153" lon="6.19601">
        <ele>935.5</ele>
        <time>2024-05-10T07:51:16Z</time>
      </trkpt>
      <trkpt lat="46.71479" lon="6.19546">
        <ele>935.6</ele>
        <time>2024-05-10T07:51:27Z</time>
      </trkpt>
      <trkpt lat="46.71436" lon="6.19512">
        <ele>935.8</ele>
        <time>2024-05-10T07:51:37Z</time>
      </trkpt>
      <trkpt lat="46.71391" lon="6.19481">
        <ele>936.4</ele>
        <time>2024-05-10T07:51:48Z</time>
      </trkpt>
      <trkpt lat="46.71346" lon="6.19454">
        <ele>936.7</ele>
        <time>2024-05-10T07:51:58Z</time>
      </trkpt>
      <trkpt lat="46.71295" lon="6.19424">
        <ele>936.5</ele>
        <time>2024-05-10T07:52:09Z</time>
      </trkpt>
      <trkpt lat="46.71239" lon="6.19399">
        <ele>935.6</ele>
        <time>2024-05-10T07:52:19Z</time>
      </trkpt>
      <trkpt lat="46.71185" lon="6.19359">
        <ele>935.2</ele>
        <time>2024-05-10T07:52:30Z</time>
      </trkpt>
      <trkpt lat="46.71137" lon="6.19317">
        <ele>935.6</ele>
        <time>2024-05-10T07:52:40Z</time>
      </trkpt>
      <trkpt lat="46.71093" lon="6.19281">
        <ele>935.6</ele>
        <time>2024-05-10T07:52:50Z</time>
      </trkpt>
      <trkpt lat="46.71057" lon="6.19254">
        <ele>935.7</ele>
        <time>2024-05-10T07:53:00Z</time>
      </trkpt>
      <trkpt lat="46.71049" lon="6.19249">
        <ele>935.8</ele>
        <time>2024-05-10T07:53:11Z</time>
      </trkpt>
      <trkpt lat="46.71039" lon="6.19243">
        <ele>935.8</ele>
        <time>2024-05-10T07:53:22Z</time>
      </trkpt>
      <trkpt lat="46.71034" lon="6.19237">
        <ele>935.8</ele>
        <time>2024-05-10T07:53:33Z</time>
      </trkpt>
      <trkpt lat="46.71031" lon="6.19237">
        <ele>935.8</ele>
        <time>2024-05-10T07:53:43Z</time>
      </trkpt>
      <trkpt lat="46.71048" lon="6.19273">
        <ele>935.8</ele>
        <time>2024-05-10T07:53:54Z</time>
      </trkpt>
      <trkpt lat="46.71055" lon="6.19319">
        <ele>936.2</ele>
        <time>2024-05-10T07:54:05Z</time>
      </trkpt>
      <trkpt lat="46.71056" lon="6.19328">
        <ele>936.2</ele>
        <time>2024-05-10T07:54:15Z</time>
      </trkpt>
      <trkpt lat="46.71057" lon="6.19331">
        <ele>936.3</ele>
        <time>2024-05-10T07:54:25Z</time>
      </trkpt>
      <trkpt lat="46.71057" lon="6.19331">
        <ele>936.3</ele>
        <time>2024-05-10T07:54:36Z</time>
      </trkpt>
      <trkpt lat="46.71057" lon="6.19331">
        <ele>936.3</ele>
        <time>2024-05-10T07:54:46Z</time>
      </trkpt>
      <trkpt lat="46.71057" lon="6.19331">
        <ele>936.3</ele>
        <time>2024-05-10T07:54:56Z</time>
      </trkpt>
      <trkpt lat="46.71057" lon="6.19331">
        <ele>936.3</ele>
        <time>2024-05-10T07:55:07Z</time>
      </trkpt>
      <trkpt lat="46.71056" lon="6.1933">
        <ele>936.3</ele>
        <time>2024-05-10T07:55:17Z</time>
      </trkpt>
      <trkpt lat="46.71057" lon="6.19331">
        <ele>936.3</ele>
        <time>2024-05-10T07:55:27Z</time>
      </trkpt>
      <trkpt lat="46.71052" lon="6.19289">
        <ele>935.9</ele>
        <time>2024-05-10T07:55:37Z</time>
      </trkpt>
      <trkpt lat="46.71054" lon="6.19264">
        <ele>935.8</ele>
        <time>2024-05-10T07:55:47Z</time>
      </trkpt>
      <trkpt lat="46.71033" lon="6.19233">
        <ele>935.8</ele>
        <time>2024-05-10T07:55:58Z</time>
      </trkpt>
      <trkpt lat="46.71009" lon="6.1921">
        <ele>935.8</ele>
        <time>2024-05-10T07:56:08Z</time>
      </trkpt>
      <trkpt lat="46.70979" lon="6.1918">
        <ele>935.9</ele>
        <time>2024-05-10T07:56:19Z</time>
      </trkpt>
      <trkpt lat="46.70937" lon="6.19139">
        <ele>935.9</ele>
        <time>2024-05-10T07:56:31Z</time>
      </trkpt>
      <trkpt lat="46.70894" lon="6.19093">
        <ele>935.9</ele>
        <time>2024-05-10T07:56:41Z</time>
      </trkpt>
      <trkpt lat="46.70852" lon="6.19049">
        <ele>935.9</ele>
        <time>2024-05-10T07:56:51Z</time>
      </trkpt>
      <trkpt lat="46.70814" lon="6.19006">
        <ele>936.4</ele>
        <time>2024-05-10T07:57:01Z</time>
      </trkpt>
      <trkpt lat="46.70771" lon="6.18974">
        <ele>937.2</ele>
        <time>2024-05-10T07:57:12Z</time>
      </trkpt>
      <trkpt lat="46.70721" lon="6.18953">
        <ele>937.7</ele>
        <time>2024-05-10T07:57:23Z</time>
      </trkpt>
      <trkpt lat="46.70673" lon="6.18929">
        <ele>938.1</ele>
        <time>2024-05-10T07:57:34Z</time>
      </trkpt>
      <trkpt lat="46.70631" lon="6.18908">
        <ele>938.5</ele>
        <time>2024-05-10T07:57:44Z</time>
      </trkpt>
      <trkpt lat="46.7059" lon="6.18894">
        <ele>938.8</ele>
        <time>2024-05-10T07:57:55Z</time>
      </trkpt>
      <trkpt lat="46.70545" lon="6.18867">
        <ele>939.5</ele>
        <time>2024-05-10T07:58:05Z</time>
      </trkpt>
      <trkpt lat="46.7051" lon="6.18834">
        <ele>939.5</ele>
        <time>2024-05-10T07:58:16Z</time>
      </trkpt>
      <trkpt lat="46.70495" lon="6.18816">
        <ele>939.4</ele>
        <time>2024-05-10T07:58:26Z</time>
      </trkpt>
      <trkpt lat="46.70507" lon="6.18847">
        <ele>939.5</ele>
        <time>2024-05-10T07:58:37Z</time>
      </trkpt>
      <trkpt lat="46.70541" lon="6.1887">
        <ele>939.5</ele>
        <time>2024-05-10T07:58:48Z</time>
      </trkpt>
      <trkpt lat="46.70582" lon="6.18895">
        <ele>938.9</ele>
        <time>2024-05-10T07:58:58Z</time>
      </trkpt>
      <trkpt lat="46.70633" lon="6.18921">
        <ele>938.4</ele>
        <time>2024-05-10T07:59:09Z</time>
      </trkpt>
      <trkpt lat="46.70692" lon="6.18948">
        <ele>937.9</ele>
        <time>2024-05-10T07:59:19Z</time>
      </trkpt>
      <trkpt lat="46.70746" lon="6.18973">
        <ele>937.4</ele>
        <time>2024-05-10T07:59:30Z</time>
      </trkpt>
      <trkpt lat="46.708" lon="6.19003">
        <ele>936.6</ele>
        <time>2024-05-10T07:59:40Z</time>
      </trkpt>
      <trkpt lat="46.70848" lon="6.19057">
        <ele>935.9</ele>
        <time>2024-05-10T07:59:51Z</time>
      </trkpt>
      <trkpt lat="46.70903" lon="6.19113">
        <ele>935.9</ele>
        <time>2024-05-10T08:00:01Z</time>
      </trkpt>
      <trkpt lat="46.70954" lon="6.19163">
        <ele>935.9</ele>
        <time>2024-05-10T08:00:12Z</time>
      </trkpt>
      <trkpt lat="46.71003" lon="6.19211">
        <ele>935.9</ele>
        <time>2024-05-10T08:00:23Z</time>
      </trkpt>
      <trkpt lat="46.71047" lon="6.19256">
        <ele>935.8</ele>
        <time>2024-05-10T08:00:34Z</time>
      </trkpt>
      <trkpt lat="46.71094" lon="6.19292">
        <ele>935.6</ele>
        <time>2024-05-10T08:00:44Z</time>
      </trkpt>
      <trkpt lat="46.71146" lon="6.19332">
        <ele>935.5</ele>
        <time>2024-05-10T08:00:54Z</time>
      </trkpt>
      <trkpt lat="46.71198" lon="6.19375">
        <ele>935.1</ele>
        <time>2024-05-10T08:01:05Z</time>
      </trkpt>
      <trkpt lat="46.71254" lon="6.19415">
        <ele>935.8</ele>
        <time>2024-05-10T08:01:15Z</time>
      </trkpt>
      <trkpt lat="46.71297" lon="6.19432">
        <ele>936.5</ele>
        <time>2024-05-10T08:01:25Z</time>
      </trkpt>
      <trkpt lat="46.71346" lon="6.19461">
        <ele>936.7</ele>
        <time>2024-05-10T08:01:36Z</time>
      </trkpt>
      <trkpt lat="46.71403" lon="6.19493">
        <ele>936.2</ele>
        <time>2024-05-10T08:01:47Z</time>
      </trkpt>
      <trkpt lat="46.71445" lon="6.19523">
        <ele>935.7</ele>
        <time>2024-05-10T08:01:57Z</time>
      </trkpt>
      <trkpt lat="46.71446" lon="6.19547">
        <ele>935.1</ele>
        <time>2024-05-10T08:02:09Z</time>
      </trkpt>
      <trkpt lat="46.71442" lon="6.19551">
        <ele>935</ele>
        <time>2024-05-10T08:02:19Z</time>
      </trkpt>
      <trkpt lat="46.71442" lon="6.19551">
        <ele>935</ele>
        <time>2024-05-10T08:02:29Z</time>
      </trkpt>
      <trkpt lat="46.71442" lon="6.19551">
        <ele>935</ele>
        <time>2024-05-10T08:02:39Z</time>
      </trkpt>
      <trkpt lat="46.71442" lon="6.19551">
        <ele>935</ele>
        <time>2024-05-10T08:02:50Z</time>
      </trkpt>
      <trkpt lat="46.71442" lon="6.19551">
        <ele>935</ele>
        <time>2024-05-10T08:03:00Z</time>
      </trkpt>
      <trkpt lat="46.71442" lon="6.19551">
        <ele>935</ele>
        <time>2024-05-10T08:03:11Z</time>
      </trkpt>
      <trkpt lat="46.71442" lon="6.19551">
        <ele>935</ele>
        <time>2024-05-10T08:03:21Z</time>
      </trkpt>
      <trkpt lat="46.71441" lon="6.19551">
        <ele>935.1</ele>
        <time>2024-05-10T08:03:32Z</time>
      </trkpt>
      <trkpt lat="46.7144" lon="6.19556">
        <ele>935</ele>
        <time>2024-05-10T08:03:43Z</time>
      </trkpt>
      <trkpt lat="46.71435" lon="6.19563">
        <ele>934.9</ele>
        <time>2024-05-10T08:03:54Z</time>
      </trkpt>
      <trkpt lat="46.71439" lon="6.1957">
        <ele>934.5</ele>
        <time>2024-05-10T08:04:04Z</time>
      </trkpt>
      <trkpt lat="46.71465" lon="6.19608">
        <ele>932.6</ele>
        <time>2024-05-10T08:04:15Z</time>
      </trkpt>
      <trkpt lat="46.71452" lon="6.19595">
        <ele>933.4</ele>
        <time>2024-05-10T08:04:33Z</time>
      </trkpt>
      <trkpt lat="46.71438" lon="6.19603">
        <ele>933.7</ele>
        <time>2024-05-10T08:04:43Z</time>
      </trkpt>
      <trkpt lat="46.71447" lon="6.19621">
        <ele>932.8</ele>
        <time>2024-05-10T08:04:54Z</time>
      </trkpt>
      <trkpt lat="46.71437" lon="6.19616">
        <ele>933.2</ele>
        <time>2024-05-10T08:05:04Z</time>
      </trkpt>
      <trkpt lat="46.7145" lon="6.1962">
        <ele>932.8</ele>
        <time>2024-05-10T08:05:15Z</time>
      </trkpt>
      <trkpt lat="46.71478" lon="6.19629">
        <ele>932</ele>
        <time>2024-05-10T08:05:26Z</time>
      </trkpt>
      <trkpt lat="46.71469" lon="6.19615">
        <ele>932.5</ele>
        <time>2024-05-10T08:05:37Z</time>
      </trkpt>
      <trkpt lat="46.71471" lon="6.19622">
        <ele>932.2</ele>
        <time>2024-05-10T08:05:47Z</time>
      </trkpt>
      <trkpt lat="46.7147" lon="6.19618">
        <ele>932.3</ele>
        <time>2024-05-10T08:05:58Z</time>
      </trkpt>
      <trkpt lat="46.71469" lon="6.19607">
        <ele>932.7</ele>
        <time>2024-05-10T08:06:08Z</time>
      </trkpt>
      <trkpt lat="46.71456" lon="6.19606">
        <ele>933</ele>
        <time>2024-05-10T08:06:18Z</time>
      </trkpt>
      <trkpt lat="46.71453" lon="6.196">
        <ele>933.3</ele>
        <time>2024-05-10T08:06:29Z</time>
      </trkpt>
      <trkpt lat="46.71454" lon="6.19599">
        <ele>933.2</ele>
        <time>2024-05-10T08:06:39Z</time>
      </trkpt>
      <trkpt lat="46.71454" lon="6.19594">
        <ele>933.4</ele>
        <time>2024-05-10T08:06:49Z</time>
      </trkpt>
      <trkpt lat="46.71451" lon="6.19592">
        <ele>933.5</ele>
        <time>2024-05-10T08:06:59Z</time>
      </trkpt>
      <trkpt lat="46.71449" lon="6.19591">
        <ele>933.6</ele>
        <time>2024-05-10T08:07:09Z</time>
      </trkpt>
      <trkpt lat="46.71445" lon="6.19582">
        <ele>934</ele>
        <time>2024-05-10T08:07:20Z</time>
      </trkpt>
      <trkpt lat="46.7144" lon="6.19586">
        <ele>934.1</ele>
        <time>2024-05-10T08:07:31Z</time>
      </trkpt>
      <trkpt lat="46.71441" lon="6.19587">
        <ele>934.1</ele>
        <time>2024-05-10T08:07:41Z</time>
      </trkpt>
      <trkpt lat="46.71435" lon="6.19588">
        <ele>934.2</ele>
        <time>2024-05-10T08:07:52Z</time>
      </trkpt>
      <trkpt lat="46.71428" lon="6.19578">
        <ele>934.6</ele>
        <time>2024-05-10T08:08:02Z</time>
      </trkpt>
      <trkpt lat="46.71433" lon="6.19574">
        <ele>934.6</ele>
        <time>2024-05-10T08:08:12Z</time>
      </trkpt>
      <trkpt lat="46.71436" lon="6.19576">
        <ele>934.5</ele>
        <time>2024-05-10T08:08:22Z</time>
      </trkpt>
      <trkpt lat="46.71437" lon="6.19575">
        <ele>934.5</ele>
        <time>2024-05-10T08:08:33Z</time>
      </trkpt>
      <trkpt lat="46.71438" lon="6.19574">
        <ele>934.5</ele>
        <time>2024-05-10T08:08:43Z</time>
      </trkpt>
      <trkpt lat="46.71441" lon="6.19575">
        <ele>934.4</ele>
        <time>2024-05-10T08:08:53Z</time>
      </trkpt>
      <trkpt lat="46.71447" lon="6.19581">
        <ele>934.1</ele>
        <time>2024-05-10T08:09:03Z</time>
      </trkpt>
      <trkpt lat="46.71448" lon="6.19578">
        <ele>934</ele>
        <time>2024-05-10T08:09:14Z</time>
      </trkpt>
      <trkpt lat="46.71447" lon="6.19578">
        <ele>934.1</ele>
        <time>2024-05-10T08:09:24Z</time>
      </trkpt>
      <trkpt lat="46.71447" lon="6.19577">
        <ele>934.3</ele>
        <time>2024-05-10T08:09:35Z</time>
      </trkpt>
      <trkpt lat="46.71449" lon="6.19582">
        <ele>933.9</ele>
        <time>2024-05-10T08:09:45Z</time>
      </trkpt>
      <trkpt lat="46.71448" lon="6.19579">
        <ele>934</ele>
        <time>2024-05-10T08:09:55Z</time>
      </trkpt>
      <trkpt lat="46.71443" lon="6.19558">
        <ele>934.9</ele>
        <time>2024-05-10T08:10:06Z</time>
      </trkpt>
      <trkpt lat="46.71423" lon="6.19548">
        <ele>935.5</ele>
        <time>2024-05-10T08:10:16Z</time>
      </trkpt>
      <trkpt lat="46.71419" lon="6.19547">
        <ele>935.6</ele>
        <time>2024-05-10T08:10:26Z</time>
      </trkpt>
      <trkpt lat="46.71428" lon="6.19556">
        <ele>935.3</ele>
        <time>2024-05-10T08:10:37Z</time>
      </trkpt>
      <trkpt lat="46.71429" lon="6.19559">
        <ele>935.2</ele>
        <time>2024-05-10T08:10:48Z</time>
      </trkpt>
      <trkpt lat="46.7144" lon="6.19568">
        <ele>934.7</ele>
        <time>2024-05-10T08:10:58Z</time>
      </trkpt>
      <trkpt lat="46.71442" lon="6.1957">
        <ele>934.5</ele>
        <time>2024-05-10T08:11:08Z</time>
      </trkpt>
      <trkpt lat="46.71444" lon="6.19572">
        <ele>934.5</ele>
        <time>2024-05-10T08:11:19Z</time>
      </trkpt>
      <trkpt lat="46.71446" lon="6.19575">
        <ele>934.3</ele>
        <time>2024-05-10T08:11:29Z</time>
      </trkpt>
      <trkpt lat="46.71446" lon="6.19578">
        <ele>934.1</ele>
        <time>2024-05-10T08:11:39Z</time>
      </trkpt>
      <trkpt lat="46.71448" lon="6.1958">
        <ele>934.1</ele>
        <time>2024-05-10T08:11:49Z</time>
      </trkpt>
      <trkpt lat="46.71449" lon="6.19579">
        <ele>934.1</ele>
        <time>2024-05-10T08:11:59Z</time>
      </trkpt>
      <trkpt lat="46.7145" lon="6.19578">
        <ele>934.1</ele>
        <time>2024-05-10T08:12:10Z</time>
      </trkpt>
      <trkpt lat="46.71451" lon="6.1958">
        <ele>934</ele>
        <time>2024-05-10T08:12:21Z</time>
      </trkpt>
      <trkpt lat="46.71449" lon="6.19587">
        <ele>933.8</ele>
        <time>2024-05-10T08:12:31Z</time>
      </trkpt>
      <trkpt lat="46.71448" lon="6.19587">
        <ele>933.8</ele>
        <time>2024-05-10T08:12:42Z</time>
      </trkpt>
      <trkpt lat="46.71448" lon="6.19587">
        <ele>933.8</ele>
        <time>2024-05-10T08:12:52Z</time>
      </trkpt>
      <trkpt lat="46.71448" lon="6.19585">
        <ele>933.9</ele>
        <time>2024-05-10T08:13:03Z</time>
      </trkpt>
      <trkpt lat="46.71448" lon="6.19583">
        <ele>933.9</ele>
        <time>2024-05-10T08:13:13Z</time>
      </trkpt>
      <trkpt lat="46.7145" lon="6.19582">
        <ele>933.9</ele>
        <time>2024-05-10T08:13:24Z</time>
      </trkpt>
      <trkpt lat="46.71452" lon="6.19579">
        <ele>934</ele>
        <time>2024-05-10T08:13:34Z</time>
      </trkpt>
      <trkpt lat="46.71451" lon="6.19574">
        <ele>934.1</ele>
        <time>2024-05-10T08:13:44Z</time>
      </trkpt>
      <trkpt lat="46.7145" lon="6.19573">
        <ele>934.4</ele>
        <time>2024-05-10T08:13:55Z</time>
      </trkpt>
      <trkpt lat="46.7145" lon="6.19572">
        <ele>934.4</ele>
        <time>2024-05-10T08:14:05Z</time>
      </trkpt>
      <trkpt lat="46.7145" lon="6.19574">
        <ele>934.2</ele>
        <time>2024-05-10T08:14:16Z</time>
      </trkpt>
      <trkpt lat="46.7145" lon="6.19574">
        <ele>934.2</ele>
        <time>2024-05-10T08:14:27Z</time>
      </trkpt>
      <trkpt lat="46.71449" lon="6.1957">
        <ele>934.4</ele>
        <time>2024-05-10T08:14:38Z</time>
      </trkpt>
      <trkpt lat="46.71447" lon="6.1957">
        <ele>934.4</ele>
        <time>2024-05-10T08:14:49Z</time>
      </trkpt>
      <trkpt lat="46.71445" lon="6.1957">
        <ele>934.4</ele>
        <time>2024-05-10T08:14:59Z</time>
      </trkpt>
      <trkpt lat="46.71446" lon="6.19569">
        <ele>934.4</ele>
        <time>2024-05-10T08:15:09Z</time>
      </trkpt>
      <trkpt lat="46.71446" lon="6.19568">
        <ele>934.6</ele>
        <time>2024-05-10T08:15:19Z</time>
      </trkpt>
      <trkpt lat="46.71445" lon="6.19565">
        <ele>934.6</ele>
        <time>2024-05-10T08:15:30Z</time>
      </trkpt>
      <trkpt lat="46.71445" lon="6.19565">
        <ele>934.6</ele>
        <time>2024-05-10T08:15:41Z</time>
      </trkpt>
      <trkpt lat="46.71441" lon="6.19559">
        <ele>935</ele>
        <time>2024-05-10T08:15:51Z</time>
      </trkpt>
      <trkpt lat="46.71442" lon="6.19559">
        <ele>934.9</ele>
        <time>2024-05-10T08:16:02Z</time>
      </trkpt>
      <trkpt lat="46.71442" lon="6.19559">
        <ele>934.9</ele>
        <time>2024-05-10T08:16:12Z</time>
      </trkpt>
      <trkpt lat="46.71442" lon="6.19559">
        <ele>934.9</ele>
        <time>2024-05-10T08:16:22Z</time>
      </trkpt>
      <trkpt lat="46.71442" lon="6.19559">
        <ele>934.9</ele>
        <time>2024-05-10T08:16:33Z</time>
      </trkpt>
      <trkpt lat="46.71442" lon="6.19559">
        <ele>934.9</ele>
        <time>2024-05-10T08:16:43Z</time>
      </trkpt>
      <trkpt lat="46.71442" lon="6.19559">
        <ele>934.9</ele>
        <time>2024-05-10T08:16:53Z</time>
      </trkpt>
      <trkpt lat="46.71442" lon="6.19559">
        <ele>934.9</ele>
        <time>2024-05-10T08:17:04Z</time>
      </trkpt>
      <trkpt lat="46.71442" lon="6.19559">
        <ele>934.9</ele>
        <time>2024-05-10T08:17:14Z</time>
      </trkpt>
      <trkpt lat="46.71442" lon="6.19559">
        <ele>934.9</ele>
        <time>2024-05-10T08:17:25Z</time>
      </trkpt>
      <trkpt lat="46.71442" lon="6.19559">
        <ele>934.9</ele>
        <time>2024-05-10T08:17:36Z</time>
      </trkpt>
      <trkpt lat="46.71442" lon="6.19559">
        <ele>934.9</ele>
        <time>2024-05-10T08:17:46Z</time>
      </trkpt>
      <trkpt lat="46.71442" lon="6.19559">
        <ele>934.9</ele>
        <time>2024-05-10T08:17:56Z</time>
      </trkpt>
      <trkpt lat="46.71442" lon="6.19559">
        <ele>934.9</ele>
        <time>2024-05-10T08:18:06Z</time>
      </trkpt>
      <trkpt lat="46.71442" lon="6.19559">
        <ele>934.9</ele>
        <time>2024-05-10T08:18:17Z</time>
      </trkpt>
      <trkpt lat="46.71442" lon="6.19559">
        <ele>934.9</ele>
        <time>2024-05-10T08:18:28Z</time>
      </trkpt>
      <trkpt lat="46.71442" lon="6.19559">
        <ele>934.9</ele>
        <time>2024-05-10T08:18:38Z</time>
      </trkpt>
      <trkpt lat="46.71442" lon="6.19559">
        <ele>934.9</ele>
        <time>2024-05-10T08:18:48Z</time>
      </trkpt>
      <trkpt lat="46.71442" lon="6.19559">
        <ele>934.9</ele>
        <time>2024-05-10T08:18:59Z</time>
      </trkpt>
      <trkpt lat="46.71442" lon="6.19559">
        <ele>934.9</ele>
        <time>2024-05-10T08:19:09Z</time>
      </trkpt>
      <trkpt lat="46.71442" lon="6.19559">
        <ele>934.9</ele>
        <time>2024-05-10T08:19:20Z</time>
      </trkpt>
      <trkpt lat="46.71442" lon="6.19559">
        <ele>934.9</ele>
        <time>2024-05-10T08:19:30Z</time>
      </trkpt>
      <trkpt lat="46.71442" lon="6.19559">
        <ele>934.9</ele>
        <time>2024-05-10T08:19:41Z</time>
      </trkpt>
      <trkpt lat="46.71442" lon="6.19559">
        <ele>934.9</ele>
        <time>2024-05-10T08:19:52Z</time>
      </trkpt>
      <trkpt lat="46.71442" lon="6.19559">
        <ele>934.9</ele>
        <time>2024-05-10T08:20:03Z</time>
      </trkpt>
      <trkpt lat="46.71442" lon="6.19559">
        <ele>934.9</ele>
        <time>2024-05-10T08:20:13Z</time>
      </trkpt>
      <trkpt lat="46.71442" lon="6.19559">
        <ele>934.9</ele>
        <time>2024-05-10T08:20:24Z</time>
      </trkpt>
      <trkpt lat="46.71442" lon="6.19559">
        <ele>934.9</ele>
        <time>2024-05-10T08:20:34Z</time>
      </trkpt>
      <trkpt lat="46.71442" lon="6.19559">
        <ele>934.9</ele>
        <time>2024-05-10T08:20:45Z</time>
      </trkpt>
      <trkpt lat="46.71441" lon="6.19558">
        <ele>935</ele>
        <time>2024-05-10T08:20:56Z</time>
      </trkpt>
      <trkpt lat="46.71441" lon="6.19559">
        <ele>935</ele>
        <time>2024-05-10T08:21:06Z</time>
      </trkpt>
      <trkpt lat="46.7144" lon="6.19557">
        <ele>935</ele>
        <time>2024-05-10T08:21:17Z</time>
      </trkpt>
      <trkpt lat="46.7144" lon="6.19557">
        <ele>935</ele>
        <time>2024-05-10T08:21:27Z</time>
      </trkpt>
      <trkpt lat="46.71442" lon="6.19554">
        <ele>935</ele>
        <time>2024-05-10T08:21:37Z</time>
      </trkpt>
      <trkpt lat="46.71444" lon="6.19555">
        <ele>935</ele>
        <time>2024-05-10T08:21:47Z</time>
      </trkpt>
      <trkpt lat="46.71447" lon="6.19559">
        <ele>934.9</ele>
        <time>2024-05-10T08:21:58Z</time>
      </trkpt>
      <trkpt lat="46.71447" lon="6.1956">
        <ele>934.9</ele>
        <time>2024-05-10T08:22:08Z</time>
      </trkpt>
      <trkpt lat="46.71447" lon="6.1956">
        <ele>934.9</ele>
        <time>2024-05-10T08:22:19Z</time>
      </trkpt>
      <trkpt lat="46.71447" lon="6.1956">
        <ele>934.9</ele>
        <time>2024-05-10T08:22:30Z</time>
      </trkpt>
      <trkpt lat="46.71447" lon="6.1956">
        <ele>934.9</ele>
        <time>2024-05-10T08:22:40Z</time>
      </trkpt>
      <trkpt lat="46.71447" lon="6.1956">
        <ele>934.9</ele>
        <time>2024-05-10T08:22:51Z</time>
      </trkpt>
      <trkpt lat="46.71447" lon="6.19559">
        <ele>934.9</ele>
        <time>2024-05-10T08:23:02Z</time>
      </trkpt>
      <trkpt lat="46.71447" lon="6.19559">
        <ele>934.9</ele>
        <time>2024-05-10T08:23:12Z</time>
      </trkpt>
      <trkpt lat="46.71447" lon="6.19559">
        <ele>934.9</ele>
        <time>2024-05-10T08:23:23Z</time>
      </trkpt>
      <trkpt lat="46.71447" lon="6.19559">
        <ele>934.9</ele>
        <time>2024-05-10T08:23:34Z</time>
      </trkpt>
      <trkpt lat="46.71447" lon="6.19559">
        <ele>934.9</ele>
        <time>2024-05-10T08:23:44Z</time>
      </trkpt>
      <trkpt lat="46.71445" lon="6.19558">
        <ele>934.9</ele>
        <time>2024-05-10T08:23:55Z</time>
      </trkpt>
      <trkpt lat="46.71445" lon="6.19559">
        <ele>934.9</ele>
        <time>2024-05-10T08:24:06Z</time>
      </trkpt>
      <trkpt lat="46.71445" lon="6.19559">
        <ele>934.9</ele>
        <time>2024-05-10T08:24:17Z</time>
      </trkpt>
      <trkpt lat="46.71444" lon="6.19558">
        <ele>934.9</ele>
        <time>2024-05-10T08:24:28Z</time>
      </trkpt>
      <trkpt lat="46.71436" lon="6.19549">
        <ele>935.3</ele>
        <time>2024-05-10T08:24:38Z</time>
      </trkpt>
      <trkpt lat="46.71448" lon="6.19548">
        <ele>935.1</ele>
        <time>2024-05-10T08:24:48Z</time>
      </trkpt>
      <trkpt lat="46.7145" lon="6.1953">
        <ele>935.7</ele>
        <time>2024-05-10T08:24:58Z</time>
      </trkpt>
      <trkpt lat="46.71447" lon="6.19522">
        <ele>935.7</ele>
        <time>2024-05-10T08:25:09Z</time>
      </trkpt>
      <trkpt lat="46.71411" lon="6.19494">
        <ele>936.1</ele>
        <time>2024-05-10T08:25:19Z</time>
      </trkpt>
      <trkpt lat="46.71366" lon="6.19468">
        <ele>936.6</ele>
        <time>2024-05-10T08:25:29Z</time>
      </trkpt>
      <trkpt lat="46.7132" lon="6.19439">
        <ele>936.9</ele>
        <time>2024-05-10T08:25:40Z</time>
      </trkpt>
      <trkpt lat="46.71273" lon="6.19416">
        <ele>936</ele>
        <time>2024-05-10T08:25:50Z</time>
      </trkpt>
      <trkpt lat="46.71232" lon="6.19439">
        <ele>935</ele>
        <time>2024-05-10T08:26:00Z</time>
      </trkpt>
      <trkpt lat="46.71187" lon="6.19463">
        <ele>934.8</ele>
        <time>2024-05-10T08:26:11Z</time>
      </trkpt>
      <trkpt lat="46.71146" lon="6.19458">
        <ele>936.8</ele>
        <time>2024-05-10T08:26:21Z</time>
      </trkpt>
      <trkpt lat="46.71122" lon="6.19478">
        <ele>939.5</ele>
        <time>2024-05-10T08:26:32Z</time>
      </trkpt>
      <trkpt lat="46.71103" lon="6.195">
        <ele>940.9</ele>
        <time>2024-05-10T08:26:42Z</time>
      </trkpt>
      <trkpt lat="46.71076" lon="6.19468">
        <ele>938.8</ele>
        <time>2024-05-10T08:26:52Z</time>
      </trkpt>
      <trkpt lat="46.71028" lon="6.1952">
        <ele>937.5</ele>
        <time>2024-05-10T08:27:03Z</time>
      </trkpt>
      <trkpt lat="46.70972" lon="6.19527">
        <ele>936.3</ele>
        <time>2024-05-10T08:27:13Z</time>
      </trkpt>
      <trkpt lat="46.70908" lon="6.19483">
        <ele>935.2</ele>
        <time>2024-05-10T08:27:24Z</time>
      </trkpt>
      <trkpt lat="46.70851" lon="6.1946">
        <ele>935.3</ele>
        <time>2024-05-10T08:27:34Z</time>
      </trkpt>
      <trkpt lat="46.70785" lon="6.19448">
        <ele>935.4</ele>
        <time>2024-05-10T08:27:45Z</time>
      </trkpt>
      <trkpt lat="46.70734" lon="6.19475">
        <ele>935.9</ele>
        <time>2024-05-10T08:27:55Z</time>
      </trkpt>
      <trkpt lat="46.70684" lon="6.19502">
        <ele>936.6</ele>
        <time>2024-05-10T08:28:05Z</time>
      </trkpt>
      <trkpt lat="46.7063" lon="6.19519">
        <ele>936.9</ele>
        <time>2024-05-10T08:28:16Z</time>
      </trkpt>
      <trkpt lat="46.70574" lon="6.19537">
        <ele>937</ele>
        <time>2024-05-10T08:28:26Z</time>
      </trkpt>
      <trkpt lat="46.70519" lon="6.19535">
        <ele>936.9</ele>
        <time>2024-05-10T08:28:36Z</time>
      </trkpt>
      <trkpt lat="46.70514" lon="6.19534">
        <ele>936.9</ele>
        <time>2024-05-10T08:28:47Z</time>
      </trkpt>
      <trkpt lat="46.70535" lon="6.19538">
        <ele>937.1</ele>
        <time>2024-05-10T08:28:57Z</time>
      </trkpt>
      <trkpt lat="46.70505" lon="6.19554">
        <ele>937.3</ele>
        <time>2024-05-10T08:29:08Z</time>
      </trkpt>
      <trkpt lat="46.70462" lon="6.1958">
        <ele>937.6</ele>
        <time>2024-05-10T08:29:18Z</time>
      </trkpt>
      <trkpt lat="46.70423" lon="6.19636">
        <ele>938.1</ele>
        <time>2024-05-10T08:29:29Z</time>
      </trkpt>
      <trkpt lat="46.70397" lon="6.1971">
        <ele>938.7</ele>
        <time>2024-05-10T08:29:40Z</time>
      </trkpt>
      <trkpt lat="46.70356" lon="6.19764">
        <ele>939.5</ele>
        <time>2024-05-10T08:29:51Z</time>
      </trkpt>
      <trkpt lat="46.70318" lon="6.19793">
        <ele>940.3</ele>
        <time>2024-05-10T08:30:01Z</time>
      </trkpt>
      <trkpt lat="46.70276" lon="6.19804">
        <ele>941.2</ele>
        <time>2024-05-10T08:30:12Z</time>
      </trkpt>
      <trkpt lat="46.70257" lon="6.19739">
        <ele>941.9</ele>
        <time>2024-05-10T08:30:23Z</time>
      </trkpt>
      <trkpt lat="46.70237" lon="6.19683">
        <ele>943</ele>
        <time>2024-05-10T08:30:33Z</time>
      </trkpt>
      <trkpt lat="46.70212" lon="6.19631">
        <ele>944.3</ele>
        <time>2024-05-10T08:30:44Z</time>
      </trkpt>
      <trkpt lat="46.70189" lon="6.19582">
        <ele>945.1</ele>
        <time>2024-05-10T08:30:54Z</time>
      </trkpt>
      <trkpt lat="46.7017" lon="6.1953">
        <ele>945.8</ele>
        <time>2024-05-10T08:31:05Z</time>
      </trkpt>
      <trkpt lat="46.70151" lon="6.19489">
        <ele>946.4</ele>
        <time>2024-05-10T08:31:16Z</time>
      </trkpt>
      <trkpt lat="46.70134" lon="6.19448">
        <ele>946.7</ele>
        <time>2024-05-10T08:31:27Z</time>
      </trkpt>
      <trkpt lat="46.70115" lon="6.19414">
        <ele>946.4</ele>
        <time>2024-05-10T08:31:37Z</time>
      </trkpt>
      <trkpt lat="46.70109" lon="6.19404">
        <ele>946.2</ele>
        <time>2024-05-10T08:31:47Z</time>
      </trkpt>
      <trkpt lat="46.70109" lon="6.19404">
        <ele>946.2</ele>
        <time>2024-05-10T08:31:58Z</time>
      </trkpt>
      <trkpt lat="46.70109" lon="6.19404">
        <ele>946.2</ele>
        <time>2024-05-10T08:32:09Z</time>
      </trkpt>
      <trkpt lat="46.70109" lon="6.19404">
        <ele>946.2</ele>
        <time>2024-05-10T08:32:20Z</time>
      </trkpt>
      <trkpt lat="46.70109" lon="6.19404">
        <ele>946.2</ele>
        <time>2024-05-10T08:32:30Z</time>
      </trkpt>
      <trkpt lat="46.70109" lon="6.19404">
        <ele>946.2</ele>
        <time>2024-05-10T08:32:41Z</time>
      </trkpt>
      <trkpt lat="46.70109" lon="6.19404">
        <ele>946.2</ele>
        <time>2024-05-10T08:32:51Z</time>
      </trkpt>
      <trkpt lat="46.70109" lon="6.19404">
        <ele>946.2</ele>
        <time>2024-05-10T08:33:01Z</time>
      </trkpt>
      <trkpt lat="46.70109" lon="6.19404">
        <ele>946.2</ele>
        <time>2024-05-10T08:33:12Z</time>
      </trkpt>
      <trkpt lat="46.70109" lon="6.19404">
        <ele>946.2</ele>
        <time>2024-05-10T08:33:22Z</time>
      </trkpt>
      <trkpt lat="46.70109" lon="6.19404">
        <ele>946.2</ele>
        <time>2024-05-10T08:33:33Z</time>
      </trkpt>
      <trkpt lat="46.70109" lon="6.19404">
        <ele>946.2</ele>
        <time>2024-05-10T08:33:43Z</time>
      </trkpt>
      <trkpt lat="46.70109" lon="6.19404">
        <ele>946.2</ele>
        <time>2024-05-10T08:33:53Z</time>
      </trkpt>
      <trkpt lat="46.7011" lon="6.19405">
        <ele>946.2</ele>
        <time>2024-05-10T08:34:04Z</time>
      </trkpt>
      <trkpt lat="46.7011" lon="6.19405">
        <ele>946.2</ele>
        <time>2024-05-10T08:34:14Z</time>
      </trkpt>
      <trkpt lat="46.7011" lon="6.19405">
        <ele>946.2</ele>
        <time>2024-05-10T08:34:25Z</time>
      </trkpt>
      <trkpt lat="46.70091" lon="6.19372">
        <ele>946.8</ele>
        <time>2024-05-10T08:34:36Z</time>
      </trkpt>
      <trkpt lat="46.70072" lon="6.19315">
        <ele>946.4</ele>
        <time>2024-05-10T08:34:46Z</time>
      </trkpt>
      <trkpt lat="46.70058" lon="6.19243">
        <ele>946</ele>
        <time>2024-05-10T08:34:57Z</time>
      </trkpt>
      <trkpt lat="46.70037" lon="6.19178">
        <ele>946.4</ele>
        <time>2024-05-10T08:35:08Z</time>
      </trkpt>
      <trkpt lat="46.70004" lon="6.19108">
        <ele>947.1</ele>
        <time>2024-05-10T08:35:19Z</time>
      </trkpt>
      <trkpt lat="46.69974" lon="6.19039">
        <ele>947.3</ele>
        <time>2024-05-10T08:35:30Z</time>
      </trkpt>
      <trkpt lat="46.69944" lon="6.18971">
        <ele>948.1</ele>
        <time>2024-05-10T08:35:41Z</time>
      </trkpt>
      <trkpt lat="46.69909" lon="6.18921">
        <ele>950.1</ele>
        <time>2024-05-10T08:35:52Z</time>
      </trkpt>
      <trkpt lat="46.69874" lon="6.18884">
        <ele>951.2</ele>
        <time>2024-05-10T08:36:03Z</time>
      </trkpt>
      <trkpt lat="46.69832" lon="6.18853">
        <ele>951.3</ele>
        <time>2024-05-10T08:36:13Z</time>
      </trkpt>
      <trkpt lat="46.6979" lon="6.18807">
        <ele>952.3</ele>
        <time>2024-05-10T08:36:24Z</time>
      </trkpt>
      <trkpt lat="46.69746" lon="6.18762">
        <ele>952.5</ele>
        <time>2024-05-10T08:36:35Z</time>
      </trkpt>
      <trkpt lat="46.69716" lon="6.18698">
        <ele>952.7</ele>
        <time>2024-05-10T08:36:45Z</time>
      </trkpt>
      <trkpt lat="46.69681" lon="6.18658">
        <ele>954</ele>
        <time>2024-05-10T08:36:55Z</time>
      </trkpt>
      <trkpt lat="46.69651" lon="6.18631">
        <ele>954.2</ele>
        <time>2024-05-10T08:37:06Z</time>
      </trkpt>
      <trkpt lat="46.69643" lon="6.18633">
        <ele>953.9</ele>
        <time>2024-05-10T08:37:16Z</time>
      </trkpt>
      <trkpt lat="46.69638" lon="6.18614">
        <ele>953.5</ele>
        <time>2024-05-10T08:37:27Z</time>
      </trkpt>
      <trkpt lat="46.69585" lon="6.18588">
        <ele>953.8</ele>
        <time>2024-05-10T08:37:38Z</time>
      </trkpt>
      <trkpt lat="46.69539" lon="6.1857">
        <ele>954.9</ele>
        <time>2024-05-10T08:37:49Z</time>
      </trkpt>
      <trkpt lat="46.695" lon="6.18543">
        <ele>955.2</ele>
        <time>2024-05-10T08:37:59Z</time>
      </trkpt>
      <trkpt lat="46.69462" lon="6.18508">
        <ele>955.1</ele>
        <time>2024-05-10T08:38:10Z</time>
      </trkpt>
      <trkpt lat="46.69474" lon="6.18461">
        <ele>954.9</ele>
        <time>2024-05-10T08:38:20Z</time>
      </trkpt>
      <trkpt lat="46.6951" lon="6.18433">
        <ele>955.4</ele>
        <time>2024-05-10T08:38:31Z</time>
      </trkpt>
      <trkpt lat="46.69542" lon="6.18414">
        <ele>957.2</ele>
        <time>2024-05-10T08:38:41Z</time>
      </trkpt>
      <trkpt lat="46.69567" lon="6.18369">
        <ele>958.1</ele>
        <time>2024-05-10T08:38:52Z</time>
      </trkpt>
      <trkpt lat="46.69557" lon="6.18309">
        <ele>959.1</ele>
        <time>2024-05-10T08:39:03Z</time>
      </trkpt>
      <trkpt lat="46.69536" lon="6.18262">
        <ele>960.4</ele>
        <time>2024-05-10T08:39:13Z</time>
      </trkpt>
      <trkpt lat="46.6954" lon="6.18192">
        <ele>960.6</ele>
        <time>2024-05-10T08:39:24Z</time>
      </trkpt>
      <trkpt lat="46.69521" lon="6.18147">
        <ele>960.5</ele>
        <time>2024-05-10T08:39:35Z</time>
      </trkpt>
      <trkpt lat="46.69503" lon="6.18116">
        <ele>960.5</ele>
        <time>2024-05-10T08:39:45Z</time>
      </trkpt>
      <trkpt lat="46.69476" lon="6.18091">
        <ele>962.5</ele>
        <time>2024-05-10T08:39:56Z</time>
      </trkpt>
      <trkpt lat="46.69455" lon="6.18077">
        <ele>964.7</ele>
        <time>2024-05-10T08:40:06Z</time>
      </trkpt>
      <trkpt lat="46.6943" lon="6.1807">
        <ele>967.1</ele>
        <time>2024-05-10T08:40:16Z</time>
      </trkpt>
      <trkpt lat="46.69411" lon="6.18062">
        <ele>969.7</ele>
        <time>2024-05-10T08:40:27Z</time>
      </trkpt>
      <trkpt lat="46.69396" lon="6.18058">
        <ele>972.4</ele>
        <time>2024-05-10T08:40:37Z</time>
      </trkpt>
      <trkpt lat="46.69386" lon="6.18045">
        <ele>974.1</ele>
        <time>2024-05-10T08:40:47Z</time>
      </trkpt>
      <trkpt lat="46.69361" lon="6.18018">
        <ele>975.5</ele>
        <time>2024-05-10T08:40:58Z</time>
      </trkpt>
      <trkpt lat="46.69323" lon="6.17969">
        <ele>975</ele>
        <time>2024-05-10T08:41:09Z</time>
      </trkpt>
      <trkpt lat="46.6929" lon="6.17918">
        <ele>975.5</ele>
        <time>2024-05-10T08:41:20Z</time>
      </trkpt>
      <trkpt lat="46.69265" lon="6.17895">
        <ele>976.8</ele>
        <time>2024-05-10T08:41:30Z</time>
      </trkpt>
      <trkpt lat="46.69261" lon="6.17864">
        <ele>976.8</ele>
        <time>2024-05-10T08:41:40Z</time>
      </trkpt>
      <trkpt lat="46.69283" lon="6.17824">
        <ele>976.3</ele>
        <time>2024-05-10T08:41:50Z</time>
      </trkpt>
      <trkpt lat="46.69314" lon="6.17808">
        <ele>977.3</ele>
        <time>2024-05-10T08:42:00Z</time>
      </trkpt>
      <trkpt lat="46.69323" lon="6.17755">
        <ele>978.7</ele>
        <time>2024-05-10T08:42:11Z</time>
      </trkpt>
      <trkpt lat="46.69332" lon="6.17713">
        <ele>980.2</ele>
        <time>2024-05-10T08:42:22Z</time>
      </trkpt>
      <trkpt lat="46.69382" lon="6.1771">
        <ele>981.4</ele>
        <time>2024-05-10T08:42:33Z</time>
      </trkpt>
      <trkpt lat="46.69424" lon="6.17717">
        <ele>983.7</ele>
        <time>2024-05-10T08:42:44Z</time>
      </trkpt>
      <trkpt lat="46.69476" lon="6.17708">
        <ele>983.2</ele>
        <time>2024-05-10T08:42:55Z</time>
      </trkpt>
      <trkpt lat="46.69482" lon="6.17619">
        <ele>981.3</ele>
        <time>2024-05-10T08:43:06Z</time>
      </trkpt>
      <trkpt lat="46.69457" lon="6.17544">
        <ele>979.6</ele>
        <time>2024-05-10T08:43:17Z</time>
      </trkpt>
      <trkpt lat="46.69433" lon="6.17464">
        <ele>979.9</ele>
        <time>2024-05-10T08:43:28Z</time>
      </trkpt>
      <trkpt lat="46.69407" lon="6.17413">
        <ele>982.1</ele>
        <time>2024-05-10T08:43:38Z</time>
      </trkpt>
      <trkpt lat="46.69382" lon="6.17397">
        <ele>985.9</ele>
        <time>2024-05-10T08:43:49Z</time>
      </trkpt>
      <trkpt lat="46.69367" lon="6.17384">
        <ele>988.5</ele>
        <time>2024-05-10T08:43:59Z</time>
      </trkpt>
      <trkpt lat="46.69346" lon="6.17375">
        <ele>991.8</ele>
        <time>2024-05-10T08:44:10Z</time>
      </trkpt>
      <trkpt lat="46.69332" lon="6.17366">
        <ele>994.6</ele>
        <time>2024-05-10T08:44:20Z</time>
      </trkpt>
      <trkpt lat="46.69323" lon="6.17346">
        <ele>997.3</ele>
        <time>2024-05-10T08:44:31Z</time>
      </trkpt>
      <trkpt lat="46.69315" lon="6.17327">
        <ele>999.9</ele>
        <time>2024-05-10T08:44:42Z</time>
      </trkpt>
      <trkpt lat="46.69306" lon="6.17313">
        <ele>1002.1</ele>
        <time>2024-05-10T08:44:52Z</time>
      </trkpt>
      <trkpt lat="46.69296" lon="6.17298">
        <ele>1004.4</ele>
        <time>2024-05-10T08:45:02Z</time>
      </trkpt>
      <trkpt lat="46.69277" lon="6.17276">
        <ele>1006.4</ele>
        <time>2024-05-10T08:45:13Z</time>
      </trkpt>
      <trkpt lat="46.69256" lon="6.17247">
        <ele>1007.9</ele>
        <time>2024-05-10T08:45:24Z</time>
      </trkpt>
      <trkpt lat="46.69236" lon="6.17224">
        <ele>1009</ele>
        <time>2024-05-10T08:45:35Z</time>
      </trkpt>
      <trkpt lat="46.69201" lon="6.17163">
        <ele>1006.5</ele>
        <time>2024-05-10T08:45:46Z</time>
      </trkpt>
      <trkpt lat="46.6917" lon="6.17108">
        <ele>1005.9</ele>
        <time>2024-05-10T08:45:57Z</time>
      </trkpt>
      <trkpt lat="46.69132" lon="6.17043">
        <ele>1003.3</ele>
        <time>2024-05-10T08:46:07Z</time>
      </trkpt>
      <trkpt lat="46.69089" lon="6.16984">
        <ele>1004.1</ele>
        <time>2024-05-10T08:46:19Z</time>
      </trkpt>
      <trkpt lat="46.69062" lon="6.16952">
        <ele>1007</ele>
        <time>2024-05-10T08:46:29Z</time>
      </trkpt>
      <trkpt lat="46.6904" lon="6.16922">
        <ele>1008.8</ele>
        <time>2024-05-10T08:46:39Z</time>
      </trkpt>
      <trkpt lat="46.69019" lon="6.16889">
        <ele>1011.2</ele>
        <time>2024-05-10T08:46:50Z</time>
      </trkpt>
      <trkpt lat="46.69004" lon="6.1686">
        <ele>1014.2</ele>
        <time>2024-05-10T08:47:00Z</time>
      </trkpt>
      <trkpt lat="46.6899" lon="6.16838">
        <ele>1016.4</ele>
        <time>2024-05-10T08:47:11Z</time>
      </trkpt>
      <trkpt lat="46.68975" lon="6.16816">
        <ele>1018</ele>
        <time>2024-05-10T08:47:22Z</time>
      </trkpt>
      <trkpt lat="46.68966" lon="6.16774">
        <ele>1017.1</ele>
        <time>2024-05-10T08:47:33Z</time>
      </trkpt>
      <trkpt lat="46.68949" lon="6.1673">
        <ele>1017.1</ele>
        <time>2024-05-10T08:47:43Z</time>
      </trkpt>
      <trkpt lat="46.68939" lon="6.16699">
        <ele>1017.8</ele>
        <time>2024-05-10T08:47:53Z</time>
      </trkpt>
      <trkpt lat="46.6893" lon="6.1667">
        <ele>1017.9</ele>
        <time>2024-05-10T08:48:03Z</time>
      </trkpt>
      <trkpt lat="46.68921" lon="6.16631">
        <ele>1015.4</ele>
        <time>2024-05-10T08:48:14Z</time>
      </trkpt>
      <trkpt lat="46.68913" lon="6.16587">
        <ele>1012.1</ele>
        <time>2024-05-10T08:48:25Z</time>
      </trkpt>
      <trkpt lat="46.68906" lon="6.16554">
        <ele>1009.7</ele>
        <time>2024-05-10T08:48:35Z</time>
      </trkpt>
      <trkpt lat="46.68897" lon="6.16532">
        <ele>1008.4</ele>
        <time>2024-05-10T08:48:45Z</time>
      </trkpt>
      <trkpt lat="46.68885" lon="6.16511">
        <ele>1007.5</ele>
        <time>2024-05-10T08:48:56Z</time>
      </trkpt>
      <trkpt lat="46.68869" lon="6.16467">
        <ele>1007</ele>
        <time>2024-05-10T08:49:08Z</time>
      </trkpt>
      <trkpt lat="46.68852" lon="6.16414">
        <ele>1005.3</ele>
        <time>2024-05-10T08:49:18Z</time>
      </trkpt>
      <trkpt lat="46.68841" lon="6.16376">
        <ele>1003.5</ele>
        <time>2024-05-10T08:49:30Z</time>
      </trkpt>
      <trkpt lat="46.68827" lon="6.16343">
        <ele>1001.5</ele>
        <time>2024-05-10T08:49:40Z</time>
      </trkpt>
      <trkpt lat="46.68813" lon="6.16283">
        <ele>996.9</ele>
        <time>2024-05-10T08:49:50Z</time>
      </trkpt>
      <trkpt lat="46.68794" lon="6.16221">
        <ele>993.7</ele>
        <time>2024-05-10T08:50:01Z</time>
      </trkpt>
      <trkpt lat="46.68759" lon="6.16166">
        <ele>990.5</ele>
        <time>2024-05-10T08:50:13Z</time>
      </trkpt>
      <trkpt lat="46.68751" lon="6.16108">
        <ele>985.3</ele>
        <time>2024-05-10T08:50:24Z</time>
      </trkpt>
      <trkpt lat="46.68756" lon="6.16034">
        <ele>979.2</ele>
        <time>2024-05-10T08:50:34Z</time>
      </trkpt>
      <trkpt lat="46.68749" lon="6.15961">
        <ele>978.1</ele>
        <time>2024-05-10T08:50:44Z</time>
      </trkpt>
      <trkpt lat="46.68732" lon="6.15908">
        <ele>976.9</ele>
        <time>2024-05-10T08:50:54Z</time>
      </trkpt>
      <trkpt lat="46.68727" lon="6.1583">
        <ele>977.3</ele>
        <time>2024-05-10T08:51:05Z</time>
      </trkpt>
      <trkpt lat="46.68757" lon="6.15772">
        <ele>977.2</ele>
        <time>2024-05-10T08:51:16Z</time>
      </trkpt>
      <trkpt lat="46.68737" lon="6.15722">
        <ele>977.5</ele>
        <time>2024-05-10T08:51:26Z</time>
      </trkpt>
      <trkpt lat="46.68731" lon="6.15674">
        <ele>978</ele>
        <time>2024-05-10T08:51:38Z</time>
      </trkpt>
      <trkpt lat="46.68707" lon="6.15621">
        <ele>977.8</ele>
        <time>2024-05-10T08:51:48Z</time>
      </trkpt>
      <trkpt lat="46.68697" lon="6.15575">
        <ele>978.1</ele>
        <time>2024-05-10T08:51:59Z</time>
      </trkpt>
      <trkpt lat="46.68689" lon="6.15522">
        <ele>978.7</ele>
        <time>2024-05-10T08:52:09Z</time>
      </trkpt>
      <trkpt lat="46.68681" lon="6.15472">
        <ele>979.1</ele>
        <time>2024-05-10T08:52:20Z</time>
      </trkpt>
      <trkpt lat="46.68673" lon="6.1542">
        <ele>979.4</ele>
        <time>2024-05-10T08:52:31Z</time>
      </trkpt>
      <trkpt lat="46.68661" lon="6.15379">
        <ele>980.1</ele>
        <time>2024-05-10T08:52:41Z</time>
      </trkpt>
      <trkpt lat="46.6865" lon="6.15339">
        <ele>980.9</ele>
        <time>2024-05-10T08:52:51Z</time>
      </trkpt>
      <trkpt lat="46.68635" lon="6.1529">
        <ele>981.1</ele>
        <time>2024-05-10T08:53:02Z</time>
      </trkpt>
      <trkpt lat="46.68619" lon="6.15244">
        <ele>981.1</ele>
        <time>2024-05-10T08:53:12Z</time>
      </trkpt>
      <trkpt lat="46.68606" lon="6.15198">
        <ele>981.7</ele>
        <time>2024-05-10T08:53:23Z</time>
      </trkpt>
      <trkpt lat="46.68598" lon="6.15146">
        <ele>982.4</ele>
        <time>2024-05-10T08:53:34Z</time>
      </trkpt>
      <trkpt lat="46.68585" lon="6.1509">
        <ele>982.5</ele>
        <time>2024-05-10T08:53:44Z</time>
      </trkpt>
      <trkpt lat="46.68573" lon="6.15039">
        <ele>982.7</ele>
        <time>2024-05-10T08:53:54Z</time>
      </trkpt>
      <trkpt lat="46.68558" lon="6.14998">
        <ele>982.7</ele>
        <time>2024-05-10T08:54:05Z</time>
      </trkpt>
      <trkpt lat="46.68531" lon="6.14948">
        <ele>983.1</ele>
        <time>2024-05-10T08:54:15Z</time>
      </trkpt>
      <trkpt lat="46.68517" lon="6.1491">
        <ele>984.2</ele>
        <time>2024-05-10T08:54:25Z</time>
      </trkpt>
      <trkpt lat="46.68507" lon="6.14877">
        <ele>985.1</ele>
        <time>2024-05-10T08:54:36Z</time>
      </trkpt>
      <trkpt lat="46.68489" lon="6.14828">
        <ele>985.5</ele>
        <time>2024-05-10T08:54:46Z</time>
      </trkpt>
      <trkpt lat="46.68469" lon="6.14779">
        <ele>985.5</ele>
        <time>2024-05-10T08:54:56Z</time>
      </trkpt>
      <trkpt lat="46.68466" lon="6.14764">
        <ele>985.5</ele>
        <time>2024-05-10T08:55:07Z</time>
      </trkpt>
      <trkpt lat="46.68464" lon="6.14759">
        <ele>985.4</ele>
        <time>2024-05-10T08:55:17Z</time>
      </trkpt>
      <trkpt lat="46.68464" lon="6.1476">
        <ele>985.4</ele>
        <time>2024-05-10T08:55:29Z</time>
      </trkpt>
      <trkpt lat="46.68453" lon="6.14722">
        <ele>985.5</ele>
        <time>2024-05-10T08:55:39Z</time>
      </trkpt>
      <trkpt lat="46.68435" lon="6.14667">
        <ele>986.3</ele>
        <time>2024-05-10T08:55:49Z</time>
      </trkpt>
      <trkpt lat="46.6842" lon="6.1462">
        <ele>987.1</ele>
        <time>2024-05-10T08:55:59Z</time>
      </trkpt>
      <trkpt lat="46.68404" lon="6.14566">
        <ele>987.9</ele>
        <time>2024-05-10T08:56:10Z</time>
      </trkpt>
      <trkpt lat="46.6839" lon="6.14518">
        <ele>988.4</ele>
        <time>2024-05-10T08:56:20Z</time>
      </trkpt>
      <trkpt lat="46.68376" lon="6.1447">
        <ele>989</ele>
        <time>2024-05-10T08:56:30Z</time>
      </trkpt>
      <trkpt lat="46.68363" lon="6.14417">
        <ele>989.4</ele>
        <time>2024-05-10T08:56:41Z</time>
      </trkpt>
      <trkpt lat="46.6835" lon="6.14369">
        <ele>990.8</ele>
        <time>2024-05-10T08:56:52Z</time>
      </trkpt>
      <trkpt lat="46.68347" lon="6.14341">
        <ele>992.6</ele>
        <time>2024-05-10T08:57:03Z</time>
      </trkpt>
      <trkpt lat="46.68343" lon="6.14317">
        <ele>994.7</ele>
        <time>2024-05-10T08:57:13Z</time>
      </trkpt>
      <trkpt lat="46.68341" lon="6.14295">
        <ele>996.8</ele>
        <time>2024-05-10T08:57:24Z</time>
      </trkpt>
      <trkpt lat="46.68339" lon="6.14276">
        <ele>998.7</ele>
        <time>2024-05-10T08:57:34Z</time>
      </trkpt>
      <trkpt lat="46.68335" lon="6.14259">
        <ele>1000.4</ele>
        <time>2024-05-10T08:57:45Z</time>
      </trkpt>
      <trkpt lat="46.68332" lon="6.14244">
        <ele>1001.6</ele>
        <time>2024-05-10T08:57:56Z</time>
      </trkpt>
      <trkpt lat="46.68326" lon="6.14218">
        <ele>1003.4</ele>
        <time>2024-05-10T08:58:06Z</time>
      </trkpt>
      <trkpt lat="46.68321" lon="6.14182">
        <ele>1004.8</ele>
        <time>2024-05-10T08:58:17Z</time>
      </trkpt>
      <trkpt lat="46.68321" lon="6.14144">
        <ele>1006.2</ele>
        <time>2024-05-10T08:58:28Z</time>
      </trkpt>
      <trkpt lat="46.68324" lon="6.14139">
        <ele>1006.5</ele>
        <time>2024-05-10T08:58:38Z</time>
      </trkpt>
      <trkpt lat="46.68323" lon="6.14135">
        <ele>1006.7</ele>
        <time>2024-05-10T08:58:48Z</time>
      </trkpt>
      <trkpt lat="46.68316" lon="6.1411">
        <ele>1007.4</ele>
        <time>2024-05-10T08:58:59Z</time>
      </trkpt>
      <trkpt lat="46.68308" lon="6.1406">
        <ele>1007.6</ele>
        <time>2024-05-10T08:59:09Z</time>
      </trkpt>
      <trkpt lat="46.68302" lon="6.14009">
        <ele>1007.5</ele>
        <time>2024-05-10T08:59:20Z</time>
      </trkpt>
      <trkpt lat="46.68283" lon="6.13952">
        <ele>1006.7</ele>
        <time>2024-05-10T08:59:30Z</time>
      </trkpt>
      <trkpt lat="46.68265" lon="6.13904">
        <ele>1008.2</ele>
        <time>2024-05-10T08:59:41Z</time>
      </trkpt>
      <trkpt lat="46.68261" lon="6.13886">
        <ele>1009.1</ele>
        <time>2024-05-10T08:59:52Z</time>
      </trkpt>
      <trkpt lat="46.6826" lon="6.13887">
        <ele>1009.1</ele>
        <time>2024-05-10T09:00:03Z</time>
      </trkpt>
      <trkpt lat="46.6826" lon="6.13886">
        <ele>1009.2</ele>
        <time>2024-05-10T09:00:13Z</time>
      </trkpt>
      <trkpt lat="46.68255" lon="6.13871">
        <ele>1009.7</ele>
        <time>2024-05-10T09:00:24Z</time>
      </trkpt>
      <trkpt lat="46.68245" lon="6.13825">
        <ele>1009.8</ele>
        <time>2024-05-10T09:00:35Z</time>
      </trkpt>
      <trkpt lat="46.68225" lon="6.13768">
        <ele>1008.3</ele>
        <time>2024-05-10T09:00:46Z</time>
      </trkpt>
      <trkpt lat="46.68182" lon="6.13712">
        <ele>1005.4</ele>
        <time>2024-05-10T09:00:57Z</time>
      </trkpt>
      <trkpt lat="46.68147" lon="6.13654">
        <ele>1000.7</ele>
        <time>2024-05-10T09:01:07Z</time>
      </trkpt>
      <trkpt lat="46.68112" lon="6.13572">
        <ele>996.3</ele>
        <time>2024-05-10T09:01:18Z</time>
      </trkpt>
      <trkpt lat="46.68086" lon="6.13482">
        <ele>994.4</ele>
        <time>2024-05-10T09:01:29Z</time>
      </trkpt>
      <trkpt lat="46.68093" lon="6.13441">
        <ele>993.9</ele>
        <time>2024-05-10T09:01:39Z</time>
      </trkpt>
      <trkpt lat="46.68091" lon="6.13441">
        <ele>993.9</ele>
        <time>2024-05-10T09:01:49Z</time>
      </trkpt>
      <trkpt lat="46.68088" lon="6.1343">
        <ele>993.9</ele>
        <time>2024-05-10T09:02:00Z</time>
      </trkpt>
      <trkpt lat="46.68047" lon="6.13405">
        <ele>994.5</ele>
        <time>2024-05-10T09:02:11Z</time>
      </trkpt>
      <trkpt lat="46.68007" lon="6.13369">
        <ele>993.9</ele>
        <time>2024-05-10T09:02:21Z</time>
      </trkpt>
      <trkpt lat="46.67955" lon="6.13312">
        <ele>992.4</ele>
        <time>2024-05-10T09:02:32Z</time>
      </trkpt>
      <trkpt lat="46.67912" lon="6.13359">
        <ele>992.6</ele>
        <time>2024-05-10T09:02:42Z</time>
      </trkpt>
      <trkpt lat="46.67876" lon="6.13436">
        <ele>993.3</ele>
        <time>2024-05-10T09:02:53Z</time>
      </trkpt>
      <trkpt lat="46.67844" lon="6.13505">
        <ele>994.6</ele>
        <time>2024-05-10T09:03:04Z</time>
      </trkpt>
      <trkpt lat="46.67812" lon="6.13574">
        <ele>995.5</ele>
        <time>2024-05-10T09:03:15Z</time>
      </trkpt>
      <trkpt lat="46.67781" lon="6.1365">
        <ele>996.1</ele>
        <time>2024-05-10T09:03:26Z</time>
      </trkpt>
      <trkpt lat="46.67751" lon="6.13711">
        <ele>996.9</ele>
        <time>2024-05-10T09:03:37Z</time>
      </trkpt>
      <trkpt lat="46.67717" lon="6.13768">
        <ele>998.1</ele>
        <time>2024-05-10T09:03:47Z</time>
      </trkpt>
      <trkpt lat="46.6768" lon="6.13817">
        <ele>999</ele>
        <time>2024-05-10T09:03:57Z</time>
      </trkpt>
      <trkpt lat="46.67635" lon="6.13829">
        <ele>1000.2</ele>
        <time>2024-05-10T09:04:07Z</time>
      </trkpt>
      <trkpt lat="46.67602" lon="6.1382">
        <ele>1001.6</ele>
        <time>2024-05-10T09:04:17Z</time>
      </trkpt>
      <trkpt lat="46.67597" lon="6.13827">
        <ele>1002.2</ele>
        <time>2024-05-10T09:04:28Z</time>
      </trkpt>
      <trkpt lat="46.67563" lon="6.13801">
        <ele>1003.8</ele>
        <time>2024-05-10T09:04:38Z</time>
      </trkpt>
      <trkpt lat="46.67526" lon="6.13769">
        <ele>1005.8</ele>
        <time>2024-05-10T09:04:49Z</time>
      </trkpt>
      <trkpt lat="46.67479" lon="6.13759">
        <ele>1007.2</ele>
        <time>2024-05-10T09:05:00Z</time>
      </trkpt>
      <trkpt lat="46.67442" lon="6.13773">
        <ele>1008.6</ele>
        <time>2024-05-10T09:05:10Z</time>
      </trkpt>
      <trkpt lat="46.67422" lon="6.13726">
        <ele>1007.5</ele>
        <time>2024-05-10T09:05:20Z</time>
      </trkpt>
      <trkpt lat="46.67406" lon="6.13663">
        <ele>1008.7</ele>
        <time>2024-05-10T09:05:31Z</time>
      </trkpt>
      <trkpt lat="46.67392" lon="6.13601">
        <ele>1009.7</ele>
        <time>2024-05-10T09:05:41Z</time>
      </trkpt>
      <trkpt lat="46.67376" lon="6.13529">
        <ele>1010.4</ele>
        <time>2024-05-10T09:05:52Z</time>
      </trkpt>
      <trkpt lat="46.67351" lon="6.13466">
        <ele>1011.3</ele>
        <time>2024-05-10T09:06:03Z</time>
      </trkpt>
      <trkpt lat="46.67344" lon="6.13452">
        <ele>1011.5</ele>
        <time>2024-05-10T09:06:14Z</time>
      </trkpt>
      <trkpt lat="46.67344" lon="6.13453">
        <ele>1011.5</ele>
        <time>2024-05-10T09:06:25Z</time>
      </trkpt>
      <trkpt lat="46.67344" lon="6.13453">
        <ele>1011.6</ele>
        <time>2024-05-10T09:06:36Z</time>
      </trkpt>
      <trkpt lat="46.67343" lon="6.13452">
        <ele>1011.6</ele>
        <time>2024-05-10T09:06:46Z</time>
      </trkpt>
      <trkpt lat="46.67336" lon="6.13435">
        <ele>1011.9</ele>
        <time>2024-05-10T09:06:56Z</time>
      </trkpt>
      <trkpt lat="46.67312" lon="6.13379">
        <ele>1013.2</ele>
        <time>2024-05-10T09:07:07Z</time>
      </trkpt>
      <trkpt lat="46.67291" lon="6.13326">
        <ele>1014.2</ele>
        <time>2024-05-10T09:07:17Z</time>
      </trkpt>
      <trkpt lat="46.67273" lon="6.13269">
        <ele>1015.2</ele>
        <time>2024-05-10T09:07:27Z</time>
      </trkpt>
      <trkpt lat="46.67246" lon="6.13219">
        <ele>1016.6</ele>
        <time>2024-05-10T09:07:38Z</time>
      </trkpt>
      <trkpt lat="46.67209" lon="6.13196">
        <ele>1017.7</ele>
        <time>2024-05-10T09:07:48Z</time>
      </trkpt>
      <trkpt lat="46.67167" lon="6.13173">
        <ele>1018.8</ele>
        <time>2024-05-10T09:07:59Z</time>
      </trkpt>
      <trkpt lat="46.67133" lon="6.13142">
        <ele>1020.3</ele>
        <time>2024-05-10T09:08:10Z</time>
      </trkpt>
      <trkpt lat="46.67107" lon="6.13112">
        <ele>1021.9</ele>
        <time>2024-05-10T09:08:20Z</time>
      </trkpt>
      <trkpt lat="46.67071" lon="6.13072">
        <ele>1022</ele>
        <time>2024-05-10T09:08:30Z</time>
      </trkpt>
      <trkpt lat="46.67033" lon="6.13031">
        <ele>1022.9</ele>
        <time>2024-05-10T09:08:40Z</time>
      </trkpt>
      <trkpt lat="46.67005" lon="6.13009">
        <ele>1025.4</ele>
        <time>2024-05-10T09:08:51Z</time>
      </trkpt>
      <trkpt lat="46.66982" lon="6.12997">
        <ele>1027.9</ele>
        <time>2024-05-10T09:09:01Z</time>
      </trkpt>
      <trkpt lat="46.66962" lon="6.12979">
        <ele>1030.7</ele>
        <time>2024-05-10T09:09:12Z</time>
      </trkpt>
      <trkpt lat="46.66948" lon="6.12957">
        <ele>1033.6</ele>
        <time>2024-05-10T09:09:23Z</time>
      </trkpt>
      <trkpt lat="46.66938" lon="6.12937">
        <ele>1036.4</ele>
        <time>2024-05-10T09:09:34Z</time>
      </trkpt>
      <trkpt lat="46.66927" lon="6.12917">
        <ele>1039.1</ele>
        <time>2024-05-10T09:09:46Z</time>
      </trkpt>
      <trkpt lat="46.66915" lon="6.12899">
        <ele>1041.9</ele>
        <time>2024-05-10T09:09:56Z</time>
      </trkpt>
      <trkpt lat="46.66903" lon="6.12886">
        <ele>1044.8</ele>
        <time>2024-05-10T09:10:07Z</time>
      </trkpt>
      <trkpt lat="46.66893" lon="6.12872">
        <ele>1047.6</ele>
        <time>2024-05-10T09:10:17Z</time>
      </trkpt>
      <trkpt lat="46.66882" lon="6.12857">
        <ele>1050.3</ele>
        <time>2024-05-10T09:10:28Z</time>
      </trkpt>
      <trkpt lat="46.66872" lon="6.12838">
        <ele>1052.8</ele>
        <time>2024-05-10T09:10:39Z</time>
      </trkpt>
      <trkpt lat="46.66861" lon="6.12819">
        <ele>1055.1</ele>
        <time>2024-05-10T09:10:50Z</time>
      </trkpt>
      <trkpt lat="46.66851" lon="6.12799">
        <ele>1057</ele>
        <time>2024-05-10T09:11:00Z</time>
      </trkpt>
      <trkpt lat="46.66839" lon="6.12774">
        <ele>1058.7</ele>
        <time>2024-05-10T09:11:11Z</time>
      </trkpt>
      <trkpt lat="46.66825" lon="6.12745">
        <ele>1059.9</ele>
        <time>2024-05-10T09:11:21Z</time>
      </trkpt>
      <trkpt lat="46.668" lon="6.12705">
        <ele>1060.2</ele>
        <time>2024-05-10T09:11:31Z</time>
      </trkpt>
      <trkpt lat="46.66766" lon="6.12656">
        <ele>1058.1</ele>
        <time>2024-05-10T09:11:41Z</time>
      </trkpt>
      <trkpt lat="46.6673" lon="6.1261">
        <ele>1058.2</ele>
        <time>2024-05-10T09:11:51Z</time>
      </trkpt>
      <trkpt lat="46.66703" lon="6.12557">
        <ele>1059</ele>
        <time>2024-05-10T09:12:02Z</time>
      </trkpt>
      <trkpt lat="46.66675" lon="6.12492">
        <ele>1056.5</ele>
        <time>2024-05-10T09:12:13Z</time>
      </trkpt>
      <trkpt lat="46.66653" lon="6.12434">
        <ele>1055.1</ele>
        <time>2024-05-10T09:12:24Z</time>
      </trkpt>
      <trkpt lat="46.66635" lon="6.12373">
        <ele>1053.5</ele>
        <time>2024-05-10T09:12:35Z</time>
      </trkpt>
      <trkpt lat="46.66607" lon="6.12309">
        <ele>1051.5</ele>
        <time>2024-05-10T09:12:45Z</time>
      </trkpt>
      <trkpt lat="46.66586" lon="6.12249">
        <ele>1049.3</ele>
        <time>2024-05-10T09:12:55Z</time>
      </trkpt>
      <trkpt lat="46.66557" lon="6.12178">
        <ele>1047.4</ele>
        <time>2024-05-10T09:13:06Z</time>
      </trkpt>
      <trkpt lat="46.6653" lon="6.12114">
        <ele>1046.3</ele>
        <time>2024-05-10T09:13:16Z</time>
      </trkpt>
      <trkpt lat="46.66519" lon="6.12057">
        <ele>1046.7</ele>
        <time>2024-05-10T09:13:27Z</time>
      </trkpt>
      <trkpt lat="46.66519" lon="6.12023">
        <ele>1047.2</ele>
        <time>2024-05-10T09:13:37Z</time>
      </trkpt>
      <trkpt lat="46.66513" lon="6.11977">
        <ele>1047.7</ele>
        <time>2024-05-10T09:13:48Z</time>
      </trkpt>
      <trkpt lat="46.66505" lon="6.11926">
        <ele>1047.4</ele>
        <time>2024-05-10T09:13:59Z</time>
      </trkpt>
      <trkpt lat="46.6651" lon="6.1189">
        <ele>1046.8</ele>
        <time>2024-05-10T09:14:09Z</time>
      </trkpt>
      <trkpt lat="46.66497" lon="6.11841">
        <ele>1045.7</ele>
        <time>2024-05-10T09:14:21Z</time>
      </trkpt>
      <trkpt lat="46.66471" lon="6.11782">
        <ele>1044.2</ele>
        <time>2024-05-10T09:14:31Z</time>
      </trkpt>
      <trkpt lat="46.66446" lon="6.11747">
        <ele>1044.4</ele>
        <time>2024-05-10T09:14:42Z</time>
      </trkpt>
      <trkpt lat="46.66423" lon="6.11718">
        <ele>1045.9</ele>
        <time>2024-05-10T09:14:54Z</time>
      </trkpt>
      <trkpt lat="46.66402" lon="6.1169">
        <ele>1047.3</ele>
        <time>2024-05-10T09:15:04Z</time>
      </trkpt>
      <trkpt lat="46.66413" lon="6.11672">
        <ele>1046.2</ele>
        <time>2024-05-10T09:15:15Z</time>
      </trkpt>
      <trkpt lat="46.66413" lon="6.11672">
        <ele>1046.2</ele>
        <time>2024-05-10T09:15:25Z</time>
      </trkpt>
      <trkpt lat="46.66413" lon="6.11672">
        <ele>1046.2</ele>
        <time>2024-05-10T09:15:35Z</time>
      </trkpt>
      <trkpt lat="46.66413" lon="6.11672">
        <ele>1046.2</ele>
        <time>2024-05-10T09:15:46Z</time>
      </trkpt>
      <trkpt lat="46.66413" lon="6.11672">
        <ele>1046.2</ele>
        <time>2024-05-10T09:15:56Z</time>
      </trkpt>
      <trkpt lat="46.66413" lon="6.11672">
        <ele>1046.2</ele>
        <time>2024-05-10T09:16:07Z</time>
      </trkpt>
      <trkpt lat="46.6642" lon="6.11659">
        <ele>1045.2</ele>
        <time>2024-05-10T09:16:17Z</time>
      </trkpt>
      <trkpt lat="46.66447" lon="6.11592">
        <ele>1041.3</ele>
        <time>2024-05-10T09:16:28Z</time>
      </trkpt>
      <trkpt lat="46.66448" lon="6.11516">
        <ele>1034.7</ele>
        <time>2024-05-10T09:16:40Z</time>
      </trkpt>
      <trkpt lat="46.66446" lon="6.11426">
        <ele>1028.8</ele>
        <time>2024-05-10T09:16:51Z</time>
      </trkpt>
      <trkpt lat="46.66453" lon="6.11333">
        <ele>1024.2</ele>
        <time>2024-05-10T09:17:01Z</time>
      </trkpt>
      <trkpt lat="46.66425" lon="6.11259">
        <ele>1019.2</ele>
        <time>2024-05-10T09:17:11Z</time>
      </trkpt>
      <trkpt lat="46.6639" lon="6.11172">
        <ele>1013.4</ele>
        <time>2024-05-10T09:17:22Z</time>
      </trkpt>
      <trkpt lat="46.66348" lon="6.11097">
        <ele>1007.6</ele>
        <time>2024-05-10T09:17:32Z</time>
      </trkpt>
      <trkpt lat="46.66299" lon="6.11023">
        <ele>1002.3</ele>
        <time>2024-05-10T09:17:43Z</time>
      </trkpt>
      <trkpt lat="46.66297" lon="6.10931">
        <ele>999.2</ele>
        <time>2024-05-10T09:17:54Z</time>
      </trkpt>
      <trkpt lat="46.66338" lon="6.10969">
        <ele>997.1</ele>
        <time>2024-05-10T09:18:04Z</time>
      </trkpt>
      <trkpt lat="46.66378" lon="6.11035">
        <ele>993.3</ele>
        <time>2024-05-10T09:18:15Z</time>
      </trkpt>
      <trkpt lat="46.66436" lon="6.11043">
        <ele>988.5</ele>
        <time>2024-05-10T09:18:25Z</time>
      </trkpt>
      <trkpt lat="46.66429" lon="6.11022">
        <ele>987.1</ele>
        <time>2024-05-10T09:18:35Z</time>
      </trkpt>
      <trkpt lat="46.66411" lon="6.10953">
        <ele>985.9</ele>
        <time>2024-05-10T09:18:46Z</time>
      </trkpt>
      <trkpt lat="46.66402" lon="6.109">
        <ele>988.2</ele>
        <time>2024-05-10T09:18:56Z</time>
      </trkpt>
      <trkpt lat="46.66386" lon="6.10867">
        <ele>990.6</ele>
        <time>2024-05-10T09:19:06Z</time>
      </trkpt>
      <trkpt lat="46.66373" lon="6.10835">
        <ele>992.3</ele>
        <time>2024-05-10T09:19:16Z</time>
      </trkpt>
      <trkpt lat="46.66361" lon="6.10804">
        <ele>995</ele>
        <time>2024-05-10T09:19:27Z</time>
      </trkpt>
      <trkpt lat="46.6635" lon="6.10779">
        <ele>997.4</ele>
        <time>2024-05-10T09:19:38Z</time>
      </trkpt>
      <trkpt lat="46.6634" lon="6.10758">
        <ele>999.6</ele>
        <time>2024-05-10T09:19:48Z</time>
      </trkpt>
      <trkpt lat="46.66328" lon="6.10737">
        <ele>1001.7</ele>
        <time>2024-05-10T09:19:59Z</time>
      </trkpt>
      <trkpt lat="46.66317" lon="6.10712">
        <ele>1004.1</ele>
        <time>2024-05-10T09:20:10Z</time>
      </trkpt>
      <trkpt lat="46.66306" lon="6.10691">
        <ele>1006.1</ele>
        <time>2024-05-10T09:20:20Z</time>
      </trkpt>
      <trkpt lat="46.66296" lon="6.10664">
        <ele>1008.1</ele>
        <time>2024-05-10T09:20:31Z</time>
      </trkpt>
      <trkpt lat="46.66286" lon="6.10637">
        <ele>1010.1</ele>
        <time>2024-05-10T09:20:42Z</time>
      </trkpt>
      <trkpt lat="46.66273" lon="6.10613">
        <ele>1012.4</ele>
        <time>2024-05-10T09:20:53Z</time>
      </trkpt>
      <trkpt lat="46.66262" lon="6.10588">
        <ele>1014.5</ele>
        <time>2024-05-10T09:21:04Z</time>
      </trkpt>
      <trkpt lat="46.66253" lon="6.10561">
        <ele>1016.3</ele>
        <time>2024-05-10T09:21:15Z</time>
      </trkpt>
      <trkpt lat="46.66245" lon="6.10534">
        <ele>1018.1</ele>
        <time>2024-05-10T09:21:25Z</time>
      </trkpt>
      <trkpt lat="46.66235" lon="6.10507">
        <ele>1020</ele>
        <time>2024-05-10T09:21:36Z</time>
      </trkpt>
      <trkpt lat="46.66229" lon="6.10478">
        <ele>1021.6</ele>
        <time>2024-05-10T09:21:46Z</time>
      </trkpt>
      <trkpt lat="46.66222" lon="6.10444">
        <ele>1023.2</ele>
        <time>2024-05-10T09:21:57Z</time>
      </trkpt>
      <trkpt lat="46.66215" lon="6.10411">
        <ele>1024.2</ele>
        <time>2024-05-10T09:22:07Z</time>
      </trkpt>
      <trkpt lat="46.66209" lon="6.10365">
        <ele>1024.1</ele>
        <time>2024-05-10T09:22:18Z</time>
      </trkpt>
      <trkpt lat="46.66196" lon="6.10313">
        <ele>1024.1</ele>
        <time>2024-05-10T09:22:28Z</time>
      </trkpt>
      <trkpt lat="46.66171" lon="6.1027">
        <ele>1024.9</ele>
        <time>2024-05-10T09:22:39Z</time>
      </trkpt>
      <trkpt lat="46.66145" lon="6.10207">
        <ele>1025.4</ele>
        <time>2024-05-10T09:22:50Z</time>
      </trkpt>
      <trkpt lat="46.6611" lon="6.10148">
        <ele>1027.6</ele>
        <time>2024-05-10T09:23:01Z</time>
      </trkpt>
      <trkpt lat="46.66096" lon="6.10118">
        <ele>1029.3</ele>
        <time>2024-05-10T09:23:11Z</time>
      </trkpt>
      <trkpt lat="46.66088" lon="6.10076">
        <ele>1030.3</ele>
        <time>2024-05-10T09:23:21Z</time>
      </trkpt>
      <trkpt lat="46.66077" lon="6.10039">
        <ele>1032.3</ele>
        <time>2024-05-10T09:23:31Z</time>
      </trkpt>
      <trkpt lat="46.66066" lon="6.10005">
        <ele>1034.3</ele>
        <time>2024-05-10T09:23:42Z</time>
      </trkpt>
      <trkpt lat="46.66058" lon="6.09973">
        <ele>1035.4</ele>
        <time>2024-05-10T09:23:52Z</time>
      </trkpt>
      <trkpt lat="46.66042" lon="6.09934">
        <ele>1036</ele>
        <time>2024-05-10T09:24:02Z</time>
      </trkpt>
      <trkpt lat="46.66028" lon="6.0989">
        <ele>1036.6</ele>
        <time>2024-05-10T09:24:12Z</time>
      </trkpt>
      <trkpt lat="46.66006" lon="6.09841">
        <ele>1037.1</ele>
        <time>2024-05-10T09:24:23Z</time>
      </trkpt>
      <trkpt lat="46.65984" lon="6.09793">
        <ele>1038.2</ele>
        <time>2024-05-10T09:24:33Z</time>
      </trkpt>
      <trkpt lat="46.65965" lon="6.0975">
        <ele>1039.2</ele>
        <time>2024-05-10T09:24:44Z</time>
      </trkpt>
      <trkpt lat="46.65936" lon="6.09708">
        <ele>1040.3</ele>
        <time>2024-05-10T09:24:55Z</time>
      </trkpt>
      <trkpt lat="46.65919" lon="6.09672">
        <ele>1041.8</ele>
        <time>2024-05-10T09:25:05Z</time>
      </trkpt>
      <trkpt lat="46.65898" lon="6.09634">
        <ele>1042</ele>
        <time>2024-05-10T09:25:15Z</time>
      </trkpt>
      <trkpt lat="46.65863" lon="6.09586">
        <ele>1040.7</ele>
        <time>2024-05-10T09:25:26Z</time>
      </trkpt>
      <trkpt lat="46.6584" lon="6.09527">
        <ele>1037.9</ele>
        <time>2024-05-10T09:25:36Z</time>
      </trkpt>
      <trkpt lat="46.65838" lon="6.09516">
        <ele>1037.4</ele>
        <time>2024-05-10T09:25:46Z</time>
      </trkpt>
      <trkpt lat="46.65837" lon="6.09515">
        <ele>1037.3</ele>
        <time>2024-05-10T09:25:57Z</time>
      </trkpt>
      <trkpt lat="46.6581" lon="6.0947">
        <ele>1034.7</ele>
        <time>2024-05-10T09:26:08Z</time>
      </trkpt>
      <trkpt lat="46.65763" lon="6.0939">
        <ele>1031.9</ele>
        <time>2024-05-10T09:26:19Z</time>
      </trkpt>
      <trkpt lat="46.65733" lon="6.09335">
        <ele>1032.2</ele>
        <time>2024-05-10T09:26:29Z</time>
      </trkpt>
      <trkpt lat="46.65708" lon="6.09306">
        <ele>1032.6</ele>
        <time>2024-05-10T09:26:39Z</time>
      </trkpt>
      <trkpt lat="46.65679" lon="6.09251">
        <ele>1032</ele>
        <time>2024-05-10T09:26:50Z</time>
      </trkpt>
      <trkpt lat="46.65625" lon="6.09182">
        <ele>1029.9</ele>
        <time>2024-05-10T09:27:01Z</time>
      </trkpt>
      <trkpt lat="46.65594" lon="6.09103">
        <ele>1030.6</ele>
        <time>2024-05-10T09:27:12Z</time>
      </trkpt>
      <trkpt lat="46.65562" lon="6.09047">
        <ele>1031.3</ele>
        <time>2024-05-10T09:27:22Z</time>
      </trkpt>
      <trkpt lat="46.65528" lon="6.08986">
        <ele>1030.2</ele>
        <time>2024-05-10T09:27:32Z</time>
      </trkpt>
      <trkpt lat="46.65494" lon="6.0891">
        <ele>1028.7</ele>
        <time>2024-05-10T09:27:42Z</time>
      </trkpt>
      <trkpt lat="46.65457" lon="6.08845">
        <ele>1025.5</ele>
        <time>2024-05-10T09:27:52Z</time>
      </trkpt>
      <trkpt lat="46.65405" lon="6.08747">
        <ele>1021.1</ele>
        <time>2024-05-10T09:28:03Z</time>
      </trkpt>
      <trkpt lat="46.6537" lon="6.08656">
        <ele>1015.9</ele>
        <time>2024-05-10T09:28:13Z</time>
      </trkpt>
      <trkpt lat="46.65311" lon="6.08622">
        <ele>1008.6</ele>
        <time>2024-05-10T09:28:24Z</time>
      </trkpt>
      <trkpt lat="46.65259" lon="6.08577">
        <ele>1006.2</ele>
        <time>2024-05-10T09:28:35Z</time>
      </trkpt>
      <trkpt lat="46.65248" lon="6.08522">
        <ele>1007.6</ele>
        <time>2024-05-10T09:28:45Z</time>
      </trkpt>
      <trkpt lat="46.65238" lon="6.0848">
        <ele>1010</ele>
        <time>2024-05-10T09:28:55Z</time>
      </trkpt>
      <trkpt lat="46.65226" lon="6.08444">
        <ele>1012.8</ele>
        <time>2024-05-10T09:29:06Z</time>
      </trkpt>
      <trkpt lat="46.65202" lon="6.08461">
        <ele>1015.3</ele>
        <time>2024-05-10T09:29:18Z</time>
      </trkpt>
      <trkpt lat="46.65189" lon="6.08486">
        <ele>1017.1</ele>
        <time>2024-05-10T09:29:29Z</time>
      </trkpt>
      <trkpt lat="46.65166" lon="6.08516">
        <ele>1018.2</ele>
        <time>2024-05-10T09:29:40Z</time>
      </trkpt>
      <trkpt lat="46.65158" lon="6.08518">
        <ele>1018.1</ele>
        <time>2024-05-10T09:29:51Z</time>
      </trkpt>
      <trkpt lat="46.65144" lon="6.08548">
        <ele>1016</ele>
        <time>2024-05-10T09:30:02Z</time>
      </trkpt>
      <trkpt lat="46.65107" lon="6.08591">
        <ele>1011.6</ele>
        <time>2024-05-10T09:30:13Z</time>
      </trkpt>
      <trkpt lat="46.65074" lon="6.08637">
        <ele>1011.6</ele>
        <time>2024-05-10T09:30:24Z</time>
      </trkpt>
      <trkpt lat="46.65074" lon="6.08675">
        <ele>1013.1</ele>
        <time>2024-05-10T09:30:35Z</time>
      </trkpt>
      <trkpt lat="46.65066" lon="6.08712">
        <ele>1014.4</ele>
        <time>2024-05-10T09:30:45Z</time>
      </trkpt>
      <trkpt lat="46.65053" lon="6.08729">
        <ele>1016.1</ele>
        <time>2024-05-10T09:30:55Z</time>
      </trkpt>
      <trkpt lat="46.65036" lon="6.08714">
        <ele>1018.4</ele>
        <time>2024-05-10T09:31:06Z</time>
      </trkpt>
      <trkpt lat="46.65027" lon="6.08682">
        <ele>1019.4</ele>
        <time>2024-05-10T09:31:16Z</time>
      </trkpt>
      <trkpt lat="46.65019" lon="6.0865">
        <ele>1019.9</ele>
        <time>2024-05-10T09:31:26Z</time>
      </trkpt>
      <trkpt lat="46.65003" lon="6.08611">
        <ele>1019.9</ele>
        <time>2024-05-10T09:31:36Z</time>
      </trkpt>
      <trkpt lat="46.64993" lon="6.08576">
        <ele>1019.5</ele>
        <time>2024-05-10T09:31:47Z</time>
      </trkpt>
      <trkpt lat="46.64984" lon="6.08546">
        <ele>1019.2</ele>
        <time>2024-05-10T09:31:58Z</time>
      </trkpt>
      <trkpt lat="46.64981" lon="6.08541">
        <ele>1019.1</ele>
        <time>2024-05-10T09:32:09Z</time>
      </trkpt>
      <trkpt lat="46.64981" lon="6.08533">
        <ele>1019.1</ele>
        <time>2024-05-10T09:32:19Z</time>
      </trkpt>
      <trkpt lat="46.6496" lon="6.08503">
        <ele>1016.8</ele>
        <time>2024-05-10T09:32:30Z</time>
      </trkpt>
      <trkpt lat="46.64926" lon="6.08521">
        <ele>1013.2</ele>
        <time>2024-05-10T09:32:40Z</time>
      </trkpt>
      <trkpt lat="46.64921" lon="6.08525">
        <ele>1012.8</ele>
        <time>2024-05-10T09:32:50Z</time>
      </trkpt>
      <trkpt lat="46.6491" lon="6.08536">
        <ele>1012.5</ele>
        <time>2024-05-10T09:33:00Z</time>
      </trkpt>
      <trkpt lat="46.64884" lon="6.08567">
        <ele>1013</ele>
        <time>2024-05-10T09:33:11Z</time>
      </trkpt>
      <trkpt lat="46.64879" lon="6.08569">
        <ele>1013.3</ele>
        <time>2024-05-10T09:33:21Z</time>
      </trkpt>
      <trkpt lat="46.64876" lon="6.08567">
        <ele>1013.5</ele>
        <time>2024-05-10T09:33:32Z</time>
      </trkpt>
      <trkpt lat="46.64859" lon="6.08555">
        <ele>1014.7</ele>
        <time>2024-05-10T09:33:43Z</time>
      </trkpt>
      <trkpt lat="46.64836" lon="6.08538">
        <ele>1016.3</ele>
        <time>2024-05-10T09:33:53Z</time>
      </trkpt>
      <trkpt lat="46.64811" lon="6.08523">
        <ele>1017.6</ele>
        <time>2024-05-10T09:34:03Z</time>
      </trkpt>
      <trkpt lat="46.64793" lon="6.08495">
        <ele>1019.3</ele>
        <time>2024-05-10T09:34:14Z</time>
      </trkpt>
      <trkpt lat="46.64773" lon="6.08469">
        <ele>1020.7</ele>
        <time>2024-05-10T09:34:25Z</time>
      </trkpt>
      <trkpt lat="46.64755" lon="6.08448">
        <ele>1022.2</ele>
        <time>2024-05-10T09:34:35Z</time>
      </trkpt>
      <trkpt lat="46.64737" lon="6.08431">
        <ele>1023.7</ele>
        <time>2024-05-10T09:34:45Z</time>
      </trkpt>
      <trkpt lat="46.64719" lon="6.08418">
        <ele>1025.3</ele>
        <time>2024-05-10T09:34:56Z</time>
      </trkpt>
      <trkpt lat="46.64699" lon="6.08398">
        <ele>1026.3</ele>
        <time>2024-05-10T09:35:06Z</time>
      </trkpt>
      <trkpt lat="46.64679" lon="6.08366">
        <ele>1027.1</ele>
        <time>2024-05-10T09:35:17Z</time>
      </trkpt>
      <trkpt lat="46.64659" lon="6.08337">
        <ele>1028.2</ele>
        <time>2024-05-10T09:35:27Z</time>
      </trkpt>
      <trkpt lat="46.64629" lon="6.08311">
        <ele>1028.8</ele>
        <time>2024-05-10T09:35:38Z</time>
      </trkpt>
      <trkpt lat="46.64598" lon="6.08277">
        <ele>1028.9</ele>
        <time>2024-05-10T09:35:49Z</time>
      </trkpt>
      <trkpt lat="46.64576" lon="6.08244">
        <ele>1027.5</ele>
        <time>2024-05-10T09:36:00Z</time>
      </trkpt>
      <trkpt lat="46.64554" lon="6.08213">
        <ele>1025.3</ele>
        <time>2024-05-10T09:36:10Z</time>
      </trkpt>
      <trkpt lat="46.64536" lon="6.08174">
        <ele>1022.3</ele>
        <time>2024-05-10T09:36:21Z</time>
      </trkpt>
      <trkpt lat="46.64513" lon="6.08164">
        <ele>1022.3</ele>
        <time>2024-05-10T09:36:32Z</time>
      </trkpt>
      <trkpt lat="46.64485" lon="6.08148">
        <ele>1022.3</ele>
        <time>2024-05-10T09:36:43Z</time>
      </trkpt>
      <trkpt lat="46.64447" lon="6.0812">
        <ele>1022.7</ele>
        <time>2024-05-10T09:36:53Z</time>
      </trkpt>
      <trkpt lat="46.64407" lon="6.08088">
        <ele>1023</ele>
        <time>2024-05-10T09:37:03Z</time>
      </trkpt>
      <trkpt lat="46.64372" lon="6.08034">
        <ele>1023.4</ele>
        <time>2024-05-10T09:37:14Z</time>
      </trkpt>
      <trkpt lat="46.64341" lon="6.07974">
        <ele>1023.9</ele>
        <time>2024-05-10T09:37:24Z</time>
      </trkpt>
      <trkpt lat="46.64308" lon="6.07918">
        <ele>1024.5</ele>
        <time>2024-05-10T09:37:35Z</time>
      </trkpt>
      <trkpt lat="46.64268" lon="6.07872">
        <ele>1024.9</ele>
        <time>2024-05-10T09:37:45Z</time>
      </trkpt>
      <trkpt lat="46.64241" lon="6.07803">
        <ele>1024.9</ele>
        <time>2024-05-10T09:37:55Z</time>
      </trkpt>
      <trkpt lat="46.64206" lon="6.07731">
        <ele>1025.5</ele>
        <time>2024-05-10T09:38:06Z</time>
      </trkpt>
      <trkpt lat="46.64172" lon="6.07658">
        <ele>1025.6</ele>
        <time>2024-05-10T09:38:16Z</time>
      </trkpt>
      <trkpt lat="46.64129" lon="6.07608">
        <ele>1026.1</ele>
        <time>2024-05-10T09:38:26Z</time>
      </trkpt>
      <trkpt lat="46.64088" lon="6.07564">
        <ele>1026.5</ele>
        <time>2024-05-10T09:38:36Z</time>
      </trkpt>
      <trkpt lat="46.64045" lon="6.07521">
        <ele>1027.1</ele>
        <time>2024-05-10T09:38:46Z</time>
      </trkpt>
      <trkpt lat="46.63996" lon="6.07481">
        <ele>1027.4</ele>
        <time>2024-05-10T09:38:57Z</time>
      </trkpt>
      <trkpt lat="46.63946" lon="6.07471">
        <ele>1028</ele>
        <time>2024-05-10T09:39:07Z</time>
      </trkpt>
      <trkpt lat="46.63915" lon="6.07519">
        <ele>1027.6</ele>
        <time>2024-05-10T09:39:19Z</time>
      </trkpt>
      <trkpt lat="46.63869" lon="6.07487">
        <ele>1027.5</ele>
        <time>2024-05-10T09:39:29Z</time>
      </trkpt>
      <trkpt lat="46.63851" lon="6.07442">
        <ele>1029.6</ele>
        <time>2024-05-10T09:39:40Z</time>
      </trkpt>
      <trkpt lat="46.63841" lon="6.07399">
        <ele>1031.7</ele>
        <time>2024-05-10T09:39:50Z</time>
      </trkpt>
      <trkpt lat="46.63822" lon="6.07363">
        <ele>1033.9</ele>
        <time>2024-05-10T09:40:01Z</time>
      </trkpt>
      <trkpt lat="46.63821" lon="6.0732">
        <ele>1035.8</ele>
        <time>2024-05-10T09:40:12Z</time>
      </trkpt>
      <trkpt lat="46.63831" lon="6.07288">
        <ele>1037.3</ele>
        <time>2024-05-10T09:40:22Z</time>
      </trkpt>
      <trkpt lat="46.63828" lon="6.07248">
        <ele>1038.9</ele>
        <time>2024-05-10T09:40:34Z</time>
      </trkpt>
      <trkpt lat="46.63809" lon="6.07211">
        <ele>1040.5</ele>
        <time>2024-05-10T09:40:44Z</time>
      </trkpt>
      <trkpt lat="46.63792" lon="6.0717">
        <ele>1041.9</ele>
        <time>2024-05-10T09:40:55Z</time>
      </trkpt>
      <trkpt lat="46.63776" lon="6.07133">
        <ele>1043.7</ele>
        <time>2024-05-10T09:41:06Z</time>
      </trkpt>
      <trkpt lat="46.6375" lon="6.07127">
        <ele>1045.5</ele>
        <time>2024-05-10T09:41:16Z</time>
      </trkpt>
      <trkpt lat="46.63732" lon="6.07095">
        <ele>1047.3</ele>
        <time>2024-05-10T09:41:26Z</time>
      </trkpt>
      <trkpt lat="46.63708" lon="6.07081">
        <ele>1048.9</ele>
        <time>2024-05-10T09:41:37Z</time>
      </trkpt>
      <trkpt lat="46.63686" lon="6.07101">
        <ele>1050.8</ele>
        <time>2024-05-10T09:41:48Z</time>
      </trkpt>
      <trkpt lat="46.63666" lon="6.07113">
        <ele>1052.7</ele>
        <time>2024-05-10T09:41:59Z</time>
      </trkpt>
      <trkpt lat="46.63647" lon="6.07116">
        <ele>1054.7</ele>
        <time>2024-05-10T09:42:09Z</time>
      </trkpt>
      <trkpt lat="46.63634" lon="6.07136">
        <ele>1056.5</ele>
        <time>2024-05-10T09:42:20Z</time>
      </trkpt>
      <trkpt lat="46.63622" lon="6.07164">
        <ele>1058.4</ele>
        <time>2024-05-10T09:42:30Z</time>
      </trkpt>
      <trkpt lat="46.63607" lon="6.07183">
        <ele>1060.1</ele>
        <time>2024-05-10T09:42:41Z</time>
      </trkpt>
      <trkpt lat="46.63586" lon="6.07197">
        <ele>1061.6</ele>
        <time>2024-05-10T09:42:51Z</time>
      </trkpt>
      <trkpt lat="46.6356" lon="6.07191">
        <ele>1062.7</ele>
        <time>2024-05-10T09:43:02Z</time>
      </trkpt>
      <trkpt lat="46.63544" lon="6.07161">
        <ele>1064.1</ele>
        <time>2024-05-10T09:43:12Z</time>
      </trkpt>
      <trkpt lat="46.63525" lon="6.07142">
        <ele>1065.6</ele>
        <time>2024-05-10T09:43:22Z</time>
      </trkpt>
      <trkpt lat="46.635" lon="6.07145">
        <ele>1066.9</ele>
        <time>2024-05-10T09:43:32Z</time>
      </trkpt>
      <trkpt lat="46.6347" lon="6.0715">
        <ele>1067.7</ele>
        <time>2024-05-10T09:43:43Z</time>
      </trkpt>
      <trkpt lat="46.6343" lon="6.07152">
        <ele>1068.3</ele>
        <time>2024-05-10T09:43:54Z</time>
      </trkpt>
      <trkpt lat="46.63409" lon="6.07102">
        <ele>1066.5</ele>
        <time>2024-05-10T09:44:05Z</time>
      </trkpt>
      <trkpt lat="46.63381" lon="6.07077">
        <ele>1063.9</ele>
        <time>2024-05-10T09:44:15Z</time>
      </trkpt>
      <trkpt lat="46.63345" lon="6.0702">
        <ele>1061.9</ele>
        <time>2024-05-10T09:44:25Z</time>
      </trkpt>
      <trkpt lat="46.63313" lon="6.06932">
        <ele>1057.3</ele>
        <time>2024-05-10T09:44:36Z</time>
      </trkpt>
      <trkpt lat="46.63313" lon="6.06859">
        <ele>1054.2</ele>
        <time>2024-05-10T09:44:46Z</time>
      </trkpt>
      <trkpt lat="46.63284" lon="6.068">
        <ele>1051.1</ele>
        <time>2024-05-10T09:44:56Z</time>
      </trkpt>
      <trkpt lat="46.63232" lon="6.06791">
        <ele>1048</ele>
        <time>2024-05-10T09:45:07Z</time>
      </trkpt>
      <trkpt lat="46.632" lon="6.0676">
        <ele>1047.1</ele>
        <time>2024-05-10T09:45:17Z</time>
      </trkpt>
      <trkpt lat="46.63181" lon="6.06745">
        <ele>1047</ele>
        <time>2024-05-10T09:45:28Z</time>
      </trkpt>
      <trkpt lat="46.6314" lon="6.06732">
        <ele>1047.2</ele>
        <time>2024-05-10T09:45:38Z</time>
      </trkpt>
      <trkpt lat="46.63102" lon="6.06726">
        <ele>1048.1</ele>
        <time>2024-05-10T09:45:49Z</time>
      </trkpt>
      <trkpt lat="46.63069" lon="6.06709">
        <ele>1049.2</ele>
        <time>2024-05-10T09:45:59Z</time>
      </trkpt>
      <trkpt lat="46.63054" lon="6.06659">
        <ele>1050.7</ele>
        <time>2024-05-10T09:46:10Z</time>
      </trkpt>
      <trkpt lat="46.63032" lon="6.06621">
        <ele>1050.8</ele>
        <time>2024-05-10T09:46:21Z</time>
      </trkpt>
      <trkpt lat="46.63003" lon="6.06613">
        <ele>1049.2</ele>
        <time>2024-05-10T09:46:32Z</time>
      </trkpt>
      <trkpt lat="46.62983" lon="6.06638">
        <ele>1047.9</ele>
        <time>2024-05-10T09:46:42Z</time>
      </trkpt>
      <trkpt lat="46.62956" lon="6.06664">
        <ele>1047.3</ele>
        <time>2024-05-10T09:46:53Z</time>
      </trkpt>
      <trkpt lat="46.6293" lon="6.06695">
        <ele>1047.4</ele>
        <time>2024-05-10T09:47:04Z</time>
      </trkpt>
      <trkpt lat="46.62892" lon="6.06719">
        <ele>1047</ele>
        <time>2024-05-10T09:47:15Z</time>
      </trkpt>
      <trkpt lat="46.62863" lon="6.06678">
        <ele>1045.4</ele>
        <time>2024-05-10T09:47:25Z</time>
      </trkpt>
      <trkpt lat="46.62821" lon="6.06636">
        <ele>1042.2</ele>
        <time>2024-05-10T09:47:36Z</time>
      </trkpt>
      <trkpt lat="46.62775" lon="6.06583">
        <ele>1042.3</ele>
        <time>2024-05-10T09:47:46Z</time>
      </trkpt>
      <trkpt lat="46.62727" lon="6.06558">
        <ele>1042.8</ele>
        <time>2024-05-10T09:47:57Z</time>
      </trkpt>
      <trkpt lat="46.62685" lon="6.06521">
        <ele>1043.4</ele>
        <time>2024-05-10T09:48:07Z</time>
      </trkpt>
      <trkpt lat="46.62634" lon="6.06495">
        <ele>1042.8</ele>
        <time>2024-05-10T09:48:18Z</time>
      </trkpt>
      <trkpt lat="46.62592" lon="6.06462">
        <ele>1040.6</ele>
        <time>2024-05-10T09:48:28Z</time>
      </trkpt>
      <trkpt lat="46.62577" lon="6.06407">
        <ele>1036.8</ele>
        <time>2024-05-10T09:48:39Z</time>
      </trkpt>
      <trkpt lat="46.6255" lon="6.06361">
        <ele>1034.5</ele>
        <time>2024-05-10T09:48:49Z</time>
      </trkpt>
      <trkpt lat="46.62518" lon="6.06378">
        <ele>1031.3</ele>
        <time>2024-05-10T09:49:00Z</time>
      </trkpt>
      <trkpt lat="46.62468" lon="6.06402">
        <ele>1027.6</ele>
        <time>2024-05-10T09:49:11Z</time>
      </trkpt>
      <trkpt lat="46.62417" lon="6.06421">
        <ele>1025.4</ele>
        <time>2024-05-10T09:49:21Z</time>
      </trkpt>
      <trkpt lat="46.6239" lon="6.06496">
        <ele>1022.2</ele>
        <time>2024-05-10T09:49:31Z</time>
      </trkpt>
      <trkpt lat="46.6235" lon="6.06577">
        <ele>1021.9</ele>
        <time>2024-05-10T09:49:42Z</time>
      </trkpt>
      <trkpt lat="46.62311" lon="6.06604">
        <ele>1024.4</ele>
        <time>2024-05-10T09:49:53Z</time>
      </trkpt>
      <trkpt lat="46.62281" lon="6.06626">
        <ele>1026.4</ele>
        <time>2024-05-10T09:50:04Z</time>
      </trkpt>
      <trkpt lat="46.62262" lon="6.06646">
        <ele>1027.9</ele>
        <time>2024-05-10T09:50:14Z</time>
      </trkpt>
      <trkpt lat="46.62238" lon="6.06672">
        <ele>1028.3</ele>
        <time>2024-05-10T09:50:25Z</time>
      </trkpt>
      <trkpt lat="46.62209" lon="6.06706">
        <ele>1028.6</ele>
        <time>2024-05-10T09:50:36Z</time>
      </trkpt>
      <trkpt lat="46.62175" lon="6.06728">
        <ele>1029.9</ele>
        <time>2024-05-10T09:50:46Z</time>
      </trkpt>
      <trkpt lat="46.62142" lon="6.06735">
        <ele>1031.6</ele>
        <time>2024-05-10T09:50:57Z</time>
      </trkpt>
      <trkpt lat="46.62119" lon="6.06752">
        <ele>1033.8</ele>
        <time>2024-05-10T09:51:08Z</time>
      </trkpt>
      <trkpt lat="46.62097" lon="6.06756">
        <ele>1036</ele>
        <time>2024-05-10T09:51:19Z</time>
      </trkpt>
      <trkpt lat="46.62084" lon="6.06769">
        <ele>1037.5</ele>
        <time>2024-05-10T09:51:30Z</time>
      </trkpt>
      <trkpt lat="46.62068" lon="6.06794">
        <ele>1039.5</ele>
        <time>2024-05-10T09:51:40Z</time>
      </trkpt>
      <trkpt lat="46.62052" lon="6.06807">
        <ele>1040.9</ele>
        <time>2024-05-10T09:51:51Z</time>
      </trkpt>
      <trkpt lat="46.62046" lon="6.06833">
        <ele>1042.1</ele>
        <time>2024-05-10T09:52:01Z</time>
      </trkpt>
      <trkpt lat="46.6204" lon="6.06862">
        <ele>1043.5</ele>
        <time>2024-05-10T09:52:12Z</time>
      </trkpt>
      <trkpt lat="46.62029" lon="6.06888">
        <ele>1045.2</ele>
        <time>2024-05-10T09:52:22Z</time>
      </trkpt>
      <trkpt lat="46.62025" lon="6.06912">
        <ele>1046.6</ele>
        <time>2024-05-10T09:52:32Z</time>
      </trkpt>
      <trkpt lat="46.62022" lon="6.06935">
        <ele>1047.8</ele>
        <time>2024-05-10T09:52:42Z</time>
      </trkpt>
      <trkpt lat="46.6201" lon="6.0696">
        <ele>1049.1</ele>
        <time>2024-05-10T09:52:53Z</time>
      </trkpt>
      <trkpt lat="46.61999" lon="6.06982">
        <ele>1050.3</ele>
        <time>2024-05-10T09:53:03Z</time>
      </trkpt>
      <trkpt lat="46.61982" lon="6.07006">
        <ele>1051.9</ele>
        <time>2024-05-10T09:53:14Z</time>
      </trkpt>
      <trkpt lat="46.61963" lon="6.07026">
        <ele>1053.4</ele>
        <time>2024-05-10T09:53:25Z</time>
      </trkpt>
      <trkpt lat="46.61945" lon="6.07044">
        <ele>1054.8</ele>
        <time>2024-05-10T09:53:36Z</time>
      </trkpt>
      <trkpt lat="46.61933" lon="6.07067">
        <ele>1056.2</ele>
        <time>2024-05-10T09:53:47Z</time>
      </trkpt>
      <trkpt lat="46.61922" lon="6.07093">
        <ele>1057.8</ele>
        <time>2024-05-10T09:53:57Z</time>
      </trkpt>
      <trkpt lat="46.61909" lon="6.07117">
        <ele>1059.5</ele>
        <time>2024-05-10T09:54:08Z</time>
      </trkpt>
      <trkpt lat="46.61893" lon="6.07139">
        <ele>1061</ele>
        <time>2024-05-10T09:54:18Z</time>
      </trkpt>
      <trkpt lat="46.61874" lon="6.0716">
        <ele>1062.6</ele>
        <time>2024-05-10T09:54:29Z</time>
      </trkpt>
      <trkpt lat="46.61859" lon="6.07173">
        <ele>1063.8</ele>
        <time>2024-05-10T09:54:40Z</time>
      </trkpt>
      <trkpt lat="46.61844" lon="6.0719">
        <ele>1065.2</ele>
        <time>2024-05-10T09:54:50Z</time>
      </trkpt>
      <trkpt lat="46.61827" lon="6.07205">
        <ele>1066.6</ele>
        <time>2024-05-10T09:55:00Z</time>
      </trkpt>
      <trkpt lat="46.61806" lon="6.07216">
        <ele>1068.1</ele>
        <time>2024-05-10T09:55:10Z</time>
      </trkpt>
      <trkpt lat="46.61785" lon="6.0721">
        <ele>1069.7</ele>
        <time>2024-05-10T09:55:20Z</time>
      </trkpt>
      <trkpt lat="46.61765" lon="6.07205">
        <ele>1071.4</ele>
        <time>2024-05-10T09:55:31Z</time>
      </trkpt>
      <trkpt lat="46.61744" lon="6.07206">
        <ele>1073.1</ele>
        <time>2024-05-10T09:55:41Z</time>
      </trkpt>
      <trkpt lat="46.61725" lon="6.07205">
        <ele>1074.8</ele>
        <time>2024-05-10T09:55:51Z</time>
      </trkpt>
      <trkpt lat="46.61702" lon="6.07205">
        <ele>1076.7</ele>
        <time>2024-05-10T09:56:02Z</time>
      </trkpt>
      <trkpt lat="46.61673" lon="6.07214">
        <ele>1077.6</ele>
        <time>2024-05-10T09:56:14Z</time>
      </trkpt>
      <trkpt lat="46.6164" lon="6.0724">
        <ele>1077.8</ele>
        <time>2024-05-10T09:56:24Z</time>
      </trkpt>
      <trkpt lat="46.6161" lon="6.07267">
        <ele>1078.2</ele>
        <time>2024-05-10T09:56:35Z</time>
      </trkpt>
      <trkpt lat="46.61563" lon="6.07299">
        <ele>1077.3</ele>
        <time>2024-05-10T09:56:45Z</time>
      </trkpt>
      <trkpt lat="46.61529" lon="6.07353">
        <ele>1074.5</ele>
        <time>2024-05-10T09:56:56Z</time>
      </trkpt>
      <trkpt lat="46.61486" lon="6.07414">
        <ele>1070.5</ele>
        <time>2024-05-10T09:57:07Z</time>
      </trkpt>
      <trkpt lat="46.6145" lon="6.07469">
        <ele>1067.8</ele>
        <time>2024-05-10T09:57:17Z</time>
      </trkpt>
      <trkpt lat="46.61419" lon="6.07549">
        <ele>1066.7</ele>
        <time>2024-05-10T09:57:28Z</time>
      </trkpt>
      <trkpt lat="46.614" lon="6.07612">
        <ele>1067</ele>
        <time>2024-05-10T09:57:39Z</time>
      </trkpt>
      <trkpt lat="46.61373" lon="6.07669">
        <ele>1067</ele>
        <time>2024-05-10T09:57:49Z</time>
      </trkpt>
      <trkpt lat="46.61336" lon="6.07725">
        <ele>1067.5</ele>
        <time>2024-05-10T09:57:59Z</time>
      </trkpt>
      <trkpt lat="46.61314" lon="6.0777">
        <ele>1067.9</ele>
        <time>2024-05-10T09:58:09Z</time>
      </trkpt>
      <trkpt lat="46.61289" lon="6.07823">
        <ele>1068.1</ele>
        <time>2024-05-10T09:58:20Z</time>
      </trkpt>
      <trkpt lat="46.61279" lon="6.07889">
        <ele>1068</ele>
        <time>2024-05-10T09:58:30Z</time>
      </trkpt>
      <trkpt lat="46.61261" lon="6.07954">
        <ele>1067.6</ele>
        <time>2024-05-10T09:58:40Z</time>
      </trkpt>
      <trkpt lat="46.6123" lon="6.08014">
        <ele>1066.8</ele>
        <time>2024-05-10T09:58:51Z</time>
      </trkpt>
      <trkpt lat="46.61218" lon="6.08055">
        <ele>1065.7</ele>
        <time>2024-05-10T09:59:01Z</time>
      </trkpt>
      <trkpt lat="46.61217" lon="6.08056">
        <ele>1065.6</ele>
        <time>2024-05-10T09:59:12Z</time>
      </trkpt>
      <trkpt lat="46.61216" lon="6.08056">
        <ele>1065.6</ele>
        <time>2024-05-10T09:59:22Z</time>
      </trkpt>
      <trkpt lat="46.61216" lon="6.08056">
        <ele>1065.6</ele>
        <time>2024-05-10T09:59:32Z</time>
      </trkpt>
      <trkpt lat="46.61216" lon="6.08056">
        <ele>1065.6</ele>
        <time>2024-05-10T09:59:43Z</time>
      </trkpt>
      <trkpt lat="46.61217" lon="6.08064">
        <ele>1065.4</ele>
        <time>2024-05-10T09:59:53Z</time>
      </trkpt>
      <trkpt lat="46.61215" lon="6.08112">
        <ele>1064.3</ele>
        <time>2024-05-10T10:00:04Z</time>
      </trkpt>
      <trkpt lat="46.61217" lon="6.08172">
        <ele>1064.6</ele>
        <time>2024-05-10T10:00:15Z</time>
      </trkpt>
      <trkpt lat="46.61202" lon="6.08208">
        <ele>1066</ele>
        <time>2024-05-10T10:00:25Z</time>
      </trkpt>
      <trkpt lat="46.61188" lon="6.08255">
        <ele>1066.8</ele>
        <time>2024-05-10T10:00:35Z</time>
      </trkpt>
      <trkpt lat="46.61163" lon="6.08295">
        <ele>1067.1</ele>
        <time>2024-05-10T10:00:46Z</time>
      </trkpt>
      <trkpt lat="46.61133" lon="6.08339">
        <ele>1066.3</ele>
        <time>2024-05-10T10:00:56Z</time>
      </trkpt>
      <trkpt lat="46.61097" lon="6.08394">
        <ele>1064.5</ele>
        <time>2024-05-10T10:01:07Z</time>
      </trkpt>
      <trkpt lat="46.6106" lon="6.08453">
        <ele>1062.8</ele>
        <time>2024-05-10T10:01:17Z</time>
      </trkpt>
      <trkpt lat="46.61036" lon="6.08514">
        <ele>1060.7</ele>
        <time>2024-05-10T10:01:28Z</time>
      </trkpt>
      <trkpt lat="46.61003" lon="6.08557">
        <ele>1059.2</ele>
        <time>2024-05-10T10:01:38Z</time>
      </trkpt>
      <trkpt lat="46.60965" lon="6.08575">
        <ele>1059.2</ele>
        <time>2024-05-10T10:01:49Z</time>
      </trkpt>
      <trkpt lat="46.60925" lon="6.08598">
        <ele>1059.6</ele>
        <time>2024-05-10T10:01:59Z</time>
      </trkpt>
      <trkpt lat="46.60881" lon="6.08626">
        <ele>1060</ele>
        <time>2024-05-10T10:02:10Z</time>
      </trkpt>
      <trkpt lat="46.60842" lon="6.08654">
        <ele>1060.6</ele>
        <time>2024-05-10T10:02:21Z</time>
      </trkpt>
      <trkpt lat="46.60808" lon="6.08686">
        <ele>1061.8</ele>
        <time>2024-05-10T10:02:31Z</time>
      </trkpt>
      <trkpt lat="46.60777" lon="6.08711">
        <ele>1060.3</ele>
        <time>2024-05-10T10:02:41Z</time>
      </trkpt>
      <trkpt lat="46.60775" lon="6.08716">
        <ele>1060</ele>
        <time>2024-05-10T10:02:51Z</time>
      </trkpt>
      <trkpt lat="46.60775" lon="6.08716">
        <ele>1060</ele>
        <time>2024-05-10T10:03:02Z</time>
      </trkpt>
      <trkpt lat="46.60774" lon="6.08716">
        <ele>1060</ele>
        <time>2024-05-10T10:03:13Z</time>
      </trkpt>
      <trkpt lat="46.60774" lon="6.08716">
        <ele>1060</ele>
        <time>2024-05-10T10:03:23Z</time>
      </trkpt>
      <trkpt lat="46.60774" lon="6.08717">
        <ele>1059.9</ele>
        <time>2024-05-10T10:03:34Z</time>
      </trkpt>
      <trkpt lat="46.60758" lon="6.08739">
        <ele>1059</ele>
        <time>2024-05-10T10:03:44Z</time>
      </trkpt>
      <trkpt lat="46.6074" lon="6.08777">
        <ele>1058.5</ele>
        <time>2024-05-10T10:03:55Z</time>
      </trkpt>
      <trkpt lat="46.60727" lon="6.08825">
        <ele>1058.2</ele>
        <time>2024-05-10T10:04:05Z</time>
      </trkpt>
      <trkpt lat="46.6071" lon="6.08883">
        <ele>1058.2</ele>
        <time>2024-05-10T10:04:16Z</time>
      </trkpt>
      <trkpt lat="46.60684" lon="6.08938">
        <ele>1058.5</ele>
        <time>2024-05-10T10:04:26Z</time>
      </trkpt>
      <trkpt lat="46.60656" lon="6.08993">
        <ele>1058.6</ele>
        <time>2024-05-10T10:04:37Z</time>
      </trkpt>
      <trkpt lat="46.60632" lon="6.09032">
        <ele>1058.5</ele>
        <time>2024-05-10T10:04:47Z</time>
      </trkpt>
      <trkpt lat="46.60596" lon="6.09066">
        <ele>1058.9</ele>
        <time>2024-05-10T10:04:58Z</time>
      </trkpt>
      <trkpt lat="46.60564" lon="6.09101">
        <ele>1059.4</ele>
        <time>2024-05-10T10:05:08Z</time>
      </trkpt>
      <trkpt lat="46.60528" lon="6.09131">
        <ele>1059.9</ele>
        <time>2024-05-10T10:05:19Z</time>
      </trkpt>
      <trkpt lat="46.60482" lon="6.09144">
        <ele>1060.8</ele>
        <time>2024-05-10T10:05:30Z</time>
      </trkpt>
      <trkpt lat="46.6044" lon="6.09151">
        <ele>1061.1</ele>
        <time>2024-05-10T10:05:40Z</time>
      </trkpt>
      <trkpt lat="46.60396" lon="6.09157">
        <ele>1061.2</ele>
        <time>2024-05-10T10:05:51Z</time>
      </trkpt>
      <trkpt lat="46.6034" lon="6.09158">
        <ele>1062</ele>
        <time>2024-05-10T10:06:01Z</time>
      </trkpt>
      <trkpt lat="46.6029" lon="6.09176">
        <ele>1062.4</ele>
        <time>2024-05-10T10:06:12Z</time>
      </trkpt>
      <trkpt lat="46.6024" lon="6.09212">
        <ele>1061.8</ele>
        <time>2024-05-10T10:06:23Z</time>
      </trkpt>
      <trkpt lat="46.6018" lon="6.09271">
        <ele>1059.2</ele>
        <time>2024-05-10T10:06:33Z</time>
      </trkpt>
      <trkpt lat="46.60126" lon="6.09324">
        <ele>1059.1</ele>
        <time>2024-05-10T10:06:43Z</time>
      </trkpt>
      <trkpt lat="46.6011" lon="6.09339">
        <ele>1059.6</ele>
        <time>2024-05-10T10:06:53Z</time>
      </trkpt>
      <trkpt lat="46.60081" lon="6.0937">
        <ele>1060.3</ele>
        <time>2024-05-10T10:07:04Z</time>
      </trkpt>
      <trkpt lat="46.60054" lon="6.094">
        <ele>1061.3</ele>
        <time>2024-05-10T10:07:15Z</time>
      </trkpt>
      <trkpt lat="46.60018" lon="6.09431">
        <ele>1063.4</ele>
        <time>2024-05-10T10:07:26Z</time>
      </trkpt>
      <trkpt lat="46.59986" lon="6.09454">
        <ele>1065.3</ele>
        <time>2024-05-10T10:07:36Z</time>
      </trkpt>
      <trkpt lat="46.59956" lon="6.0949">
        <ele>1066.2</ele>
        <time>2024-05-10T10:07:46Z</time>
      </trkpt>
      <trkpt lat="46.59934" lon="6.09541">
        <ele>1066.8</ele>
        <time>2024-05-10T10:07:56Z</time>
      </trkpt>
      <trkpt lat="46.59911" lon="6.09604">
        <ele>1067.4</ele>
        <time>2024-05-10T10:08:07Z</time>
      </trkpt>
      <trkpt lat="46.59898" lon="6.09638">
        <ele>1067.8</ele>
        <time>2024-05-10T10:08:17Z</time>
      </trkpt>
      <trkpt lat="46.59898" lon="6.09638">
        <ele>1067.8</ele>
        <time>2024-05-10T10:08:27Z</time>
      </trkpt>
      <trkpt lat="46.59899" lon="6.09639">
        <ele>1067.8</ele>
        <time>2024-05-10T10:08:37Z</time>
      </trkpt>
      <trkpt lat="46.59901" lon="6.09639">
        <ele>1067.8</ele>
        <time>2024-05-10T10:08:48Z</time>
      </trkpt>
      <trkpt lat="46.59907" lon="6.09662">
        <ele>1068.1</ele>
        <time>2024-05-10T10:08:58Z</time>
      </trkpt>
      <trkpt lat="46.59913" lon="6.097">
        <ele>1068.7</ele>
        <time>2024-05-10T10:09:08Z</time>
      </trkpt>
      <trkpt lat="46.59923" lon="6.09738">
        <ele>1068.8</ele>
        <time>2024-05-10T10:09:18Z</time>
      </trkpt>
      <trkpt lat="46.59931" lon="6.09787">
        <ele>1068.8</ele>
        <time>2024-05-10T10:09:28Z</time>
      </trkpt>
      <trkpt lat="46.59926" lon="6.09829">
        <ele>1069.4</ele>
        <time>2024-05-10T10:09:39Z</time>
      </trkpt>
      <trkpt lat="46.5993" lon="6.09876">
        <ele>1070.1</ele>
        <time>2024-05-10T10:09:50Z</time>
      </trkpt>
      <trkpt lat="46.59941" lon="6.09917">
        <ele>1070.9</ele>
        <time>2024-05-10T10:10:00Z</time>
      </trkpt>
      <trkpt lat="46.59951" lon="6.09956">
        <ele>1071.5</ele>
        <time>2024-05-10T10:10:11Z</time>
      </trkpt>
      <trkpt lat="46.59954" lon="6.09982">
        <ele>1072.1</ele>
        <time>2024-05-10T10:10:21Z</time>
      </trkpt>
      <trkpt lat="46.59955" lon="6.09986">
        <ele>1072.2</ele>
        <time>2024-05-10T10:10:32Z</time>
      </trkpt>
      <trkpt lat="46.59957" lon="6.09992">
        <ele>1072.4</ele>
        <time>2024-05-10T10:10:43Z</time>
      </trkpt>
      <trkpt lat="46.59959" lon="6.0999">
        <ele>1072.5</ele>
        <time>2024-05-10T10:10:54Z</time>
      </trkpt>
      <trkpt lat="46.59959" lon="6.09993">
        <ele>1072.5</ele>
        <time>2024-05-10T10:11:05Z</time>
      </trkpt>
      <trkpt lat="46.5996" lon="6.09991">
        <ele>1072.6</ele>
        <time>2024-05-10T10:11:16Z</time>
      </trkpt>
      <trkpt lat="46.59963" lon="6.09993">
        <ele>1072.6</ele>
        <time>2024-05-10T10:11:27Z</time>
      </trkpt>
      <trkpt lat="46.59969" lon="6.10005">
        <ele>1072.5</ele>
        <time>2024-05-10T10:11:37Z</time>
      </trkpt>
      <trkpt lat="46.59988" lon="6.10034">
        <ele>1072.1</ele>
        <time>2024-05-10T10:11:47Z</time>
      </trkpt>
      <trkpt lat="46.60004" lon="6.10068">
        <ele>1072.2</ele>
        <time>2024-05-10T10:11:57Z</time>
      </trkpt>
      <trkpt lat="46.60025" lon="6.10112">
        <ele>1072.5</ele>
        <time>2024-05-10T10:12:08Z</time>
      </trkpt>
      <trkpt lat="46.60045" lon="6.10144">
        <ele>1072.8</ele>
        <time>2024-05-10T10:12:18Z</time>
      </trkpt>
      <trkpt lat="46.60076" lon="6.10171">
        <ele>1073.5</ele>
        <time>2024-05-10T10:12:29Z</time>
      </trkpt>
      <trkpt lat="46.601" lon="6.1019">
        <ele>1073.9</ele>
        <time>2024-05-10T10:12:39Z</time>
      </trkpt>
      <trkpt lat="46.60121" lon="6.1021">
        <ele>1074</ele>
        <time>2024-05-10T10:12:50Z</time>
      </trkpt>
      <trkpt lat="46.60122" lon="6.10208">
        <ele>1074</ele>
        <time>2024-05-10T10:13:00Z</time>
      </trkpt>
      <trkpt lat="46.60122" lon="6.10208">
        <ele>1074</ele>
        <time>2024-05-10T10:13:10Z</time>
      </trkpt>
      <trkpt lat="46.60122" lon="6.10208">
        <ele>1074</ele>
        <time>2024-05-10T10:13:21Z</time>
      </trkpt>
      <trkpt lat="46.60122" lon="6.10208">
        <ele>1074</ele>
        <time>2024-05-10T10:13:32Z</time>
      </trkpt>
      <trkpt lat="46.6013" lon="6.10218">
        <ele>1074.1</ele>
        <time>2024-05-10T10:13:42Z</time>
      </trkpt>
      <trkpt lat="46.60159" lon="6.10261">
        <ele>1074.3</ele>
        <time>2024-05-10T10:13:53Z</time>
      </trkpt>
      <trkpt lat="46.60177" lon="6.10306">
        <ele>1075.2</ele>
        <time>2024-05-10T10:14:04Z</time>
      </trkpt>
      <trkpt lat="46.60172" lon="6.10356">
        <ele>1075.8</ele>
        <time>2024-05-10T10:14:14Z</time>
      </trkpt>
      <trkpt lat="46.60148" lon="6.10383">
        <ele>1076.2</ele>
        <time>2024-05-10T10:14:24Z</time>
      </trkpt>
      <trkpt lat="46.60123" lon="6.10407">
        <ele>1077.1</ele>
        <time>2024-05-10T10:14:35Z</time>
      </trkpt>
      <trkpt lat="46.60092" lon="6.10458">
        <ele>1075.9</ele>
        <time>2024-05-10T10:14:46Z</time>
      </trkpt>
      <trkpt lat="46.60062" lon="6.10507">
        <ele>1075.7</ele>
        <time>2024-05-10T10:14:56Z</time>
      </trkpt>
      <trkpt lat="46.60057" lon="6.10518">
        <ele>1075.9</ele>
        <time>2024-05-10T10:15:06Z</time>
      </trkpt>
      <trkpt lat="46.60055" lon="6.10521">
        <ele>1076</ele>
        <time>2024-05-10T10:15:16Z</time>
      </trkpt>
      <trkpt lat="46.60038" lon="6.1056">
        <ele>1075.8</ele>
        <time>2024-05-10T10:15:27Z</time>
      </trkpt>
      <trkpt lat="46.60049" lon="6.10618">
        <ele>1074.1</ele>
        <time>2024-05-10T10:15:38Z</time>
      </trkpt>
      <trkpt lat="46.60069" lon="6.10702">
        <ele>1072.7</ele>
        <time>2024-05-10T10:15:48Z</time>
      </trkpt>
      <trkpt lat="46.60073" lon="6.10753">
        <ele>1072.8</ele>
        <time>2024-05-10T10:15:59Z</time>
      </trkpt>
      <trkpt lat="46.60065" lon="6.10828">
        <ele>1073</ele>
        <time>2024-05-10T10:16:10Z</time>
      </trkpt>
      <trkpt lat="46.60046" lon="6.10897">
        <ele>1072.9</ele>
        <time>2024-05-10T10:16:21Z</time>
      </trkpt>
      <trkpt lat="46.60019" lon="6.10992">
        <ele>1073.4</ele>
        <time>2024-05-10T10:16:31Z</time>
      </trkpt>
      <trkpt lat="46.59999" lon="6.11073">
        <ele>1076</ele>
        <time>2024-05-10T10:16:41Z</time>
      </trkpt>
      <trkpt lat="46.59986" lon="6.11129">
        <ele>1079.4</ele>
        <time>2024-05-10T10:16:52Z</time>
      </trkpt>
      <trkpt lat="46.59974" lon="6.11175">
        <ele>1082.4</ele>
        <time>2024-05-10T10:17:02Z</time>
      </trkpt>
      <trkpt lat="46.59968" lon="6.11207">
        <ele>1084.8</ele>
        <time>2024-05-10T10:17:13Z</time>
      </trkpt>
      <trkpt lat="46.59966" lon="6.11227">
        <ele>1086.2</ele>
        <time>2024-05-10T10:17:23Z</time>
      </trkpt>
      <trkpt lat="46.59959" lon="6.11263">
        <ele>1088.3</ele>
        <time>2024-05-10T10:17:34Z</time>
      </trkpt>
      <trkpt lat="46.59951" lon="6.11297">
        <ele>1089.7</ele>
        <time>2024-05-10T10:17:44Z</time>
      </trkpt>
      <trkpt lat="46.59934" lon="6.11338">
        <ele>1089.7</ele>
        <time>2024-05-10T10:17:55Z</time>
      </trkpt>
      <trkpt lat="46.59884" lon="6.11391">
        <ele>1086.5</ele>
        <time>2024-05-10T10:18:05Z</time>
      </trkpt>
      <trkpt lat="46.59836" lon="6.11396">
        <ele>1087.7</ele>
        <time>2024-05-10T10:18:16Z</time>
      </trkpt>
      <trkpt lat="46.59812" lon="6.11407">
        <ele>1088.7</ele>
        <time>2024-05-10T10:18:26Z</time>
      </trkpt>
      <trkpt lat="46.59791" lon="6.11401">
        <ele>1088.7</ele>
        <time>2024-05-10T10:18:37Z</time>
      </trkpt>
      <trkpt lat="46.59782" lon="6.11382">
        <ele>1088.4</ele>
        <time>2024-05-10T10:18:48Z</time>
      </trkpt>
      <trkpt lat="46.59781" lon="6.11382">
        <ele>1088.4</ele>
        <time>2024-05-10T10:18:58Z</time>
      </trkpt>
      <trkpt lat="46.59781" lon="6.11381">
        <ele>1088.4</ele>
        <time>2024-05-10T10:19:09Z</time>
      </trkpt>
      <trkpt lat="46.59781" lon="6.11381">
        <ele>1088.4</ele>
        <time>2024-05-10T10:19:19Z</time>
      </trkpt>
      <trkpt lat="46.59781" lon="6.11381">
        <ele>1088.4</ele>
        <time>2024-05-10T10:19:30Z</time>
      </trkpt>
      <trkpt lat="46.59781" lon="6.11381">
        <ele>1088.4</ele>
        <time>2024-05-10T10:19:40Z</time>
      </trkpt>
      <trkpt lat="46.59781" lon="6.11381">
        <ele>1088.4</ele>
        <time>2024-05-10T10:19:50Z</time>
      </trkpt>
      <trkpt lat="46.59781" lon="6.11381">
        <ele>1088.4</ele>
        <time>2024-05-10T10:20:00Z</time>
      </trkpt>
      <trkpt lat="46.5978" lon="6.11378">
        <ele>1088.3</ele>
        <time>2024-05-10T10:20:10Z</time>
      </trkpt>
      <trkpt lat="46.59781" lon="6.11378">
        <ele>1088.3</ele>
        <time>2024-05-10T10:20:21Z</time>
      </trkpt>
      <trkpt lat="46.59781" lon="6.11378">
        <ele>1088.3</ele>
        <time>2024-05-10T10:20:32Z</time>
      </trkpt>
      <trkpt lat="46.59772" lon="6.11375">
        <ele>1088.1</ele>
        <time>2024-05-10T10:20:42Z</time>
      </trkpt>
      <trkpt lat="46.59755" lon="6.11342">
        <ele>1086.9</ele>
        <time>2024-05-10T10:20:53Z</time>
      </trkpt>
      <trkpt lat="46.59727" lon="6.11314">
        <ele>1085</ele>
        <time>2024-05-10T10:21:03Z</time>
      </trkpt>
      <trkpt lat="46.59689" lon="6.1131">
        <ele>1083.9</ele>
        <time>2024-05-10T10:21:14Z</time>
      </trkpt>
      <trkpt lat="46.59674" lon="6.11336">
        <ele>1083.7</ele>
        <time>2024-05-10T10:21:25Z</time>
      </trkpt>
      <trkpt lat="46.59672" lon="6.11339">
        <ele>1083.7</ele>
        <time>2024-05-10T10:21:35Z</time>
      </trkpt>
      <trkpt lat="46.59673" lon="6.11339">
        <ele>1083.7</ele>
        <time>2024-05-10T10:21:46Z</time>
      </trkpt>
      <trkpt lat="46.59674" lon="6.11338">
        <ele>1083.6</ele>
        <time>2024-05-10T10:21:56Z</time>
      </trkpt>
      <trkpt lat="46.59674" lon="6.11338">
        <ele>1083.6</ele>
        <time>2024-05-10T10:22:07Z</time>
      </trkpt>
      <trkpt lat="46.59674" lon="6.11338">
        <ele>1083.6</ele>
        <time>2024-05-10T10:22:18Z</time>
      </trkpt>
      <trkpt lat="46.59674" lon="6.11337">
        <ele>1083.6</ele>
        <time>2024-05-10T10:22:28Z</time>
      </trkpt>
      <trkpt lat="46.59674" lon="6.11337">
        <ele>1083.6</ele>
        <time>2024-05-10T10:22:39Z</time>
      </trkpt>
      <trkpt lat="46.59671" lon="6.11345">
        <ele>1083.5</ele>
        <time>2024-05-10T10:22:49Z</time>
      </trkpt>
      <trkpt lat="46.59644" lon="6.11405">
        <ele>1080.4</ele>
        <time>2024-05-10T10:23:00Z</time>
      </trkpt>
      <trkpt lat="46.59586" lon="6.11497">
        <ele>1076.6</ele>
        <time>2024-05-10T10:23:10Z</time>
      </trkpt>
      <trkpt lat="46.5954" lon="6.11479">
        <ele>1079.6</ele>
        <time>2024-05-10T10:23:21Z</time>
      </trkpt>
      <trkpt lat="46.59485" lon="6.11478">
        <ele>1078.2</ele>
        <time>2024-05-10T10:23:32Z</time>
      </trkpt>
      <trkpt lat="46.59418" lon="6.11487">
        <ele>1077.7</ele>
        <time>2024-05-10T10:23:44Z</time>
      </trkpt>
      <trkpt lat="46.59375" lon="6.11496">
        <ele>1079.7</ele>
        <time>2024-05-10T10:23:54Z</time>
      </trkpt>
      <trkpt lat="46.59345" lon="6.11542">
        <ele>1080.5</ele>
        <time>2024-05-10T10:24:04Z</time>
      </trkpt>
      <trkpt lat="46.59313" lon="6.11583">
        <ele>1081.4</ele>
        <time>2024-05-10T10:24:14Z</time>
      </trkpt>
      <trkpt lat="46.5928" lon="6.11623">
        <ele>1082.5</ele>
        <time>2024-05-10T10:24:24Z</time>
      </trkpt>
      <trkpt lat="46.59254" lon="6.11673">
        <ele>1083.8</ele>
        <time>2024-05-10T10:24:35Z</time>
      </trkpt>
      <trkpt lat="46.59237" lon="6.11727">
        <ele>1085.1</ele>
        <time>2024-05-10T10:24:46Z</time>
      </trkpt>
      <trkpt lat="46.59223" lon="6.1178">
        <ele>1086.8</ele>
        <time>2024-05-10T10:24:57Z</time>
      </trkpt>
      <trkpt lat="46.5921" lon="6.11799">
        <ele>1088.6</ele>
        <time>2024-05-10T10:25:07Z</time>
      </trkpt>
      <trkpt lat="46.59192" lon="6.11779">
        <ele>1088.8</ele>
        <time>2024-05-10T10:25:17Z</time>
      </trkpt>
      <trkpt lat="46.59172" lon="6.11749">
        <ele>1087.5</ele>
        <time>2024-05-10T10:25:28Z</time>
      </trkpt>
      <trkpt lat="46.59152" lon="6.11692">
        <ele>1085.7</ele>
        <time>2024-05-10T10:25:39Z</time>
      </trkpt>
      <trkpt lat="46.59137" lon="6.1165">
        <ele>1084.9</ele>
        <time>2024-05-10T10:25:49Z</time>
      </trkpt>
      <trkpt lat="46.59122" lon="6.11617">
        <ele>1084.5</ele>
        <time>2024-05-10T10:25:59Z</time>
      </trkpt>
      <trkpt lat="46.591" lon="6.11582">
        <ele>1084.4</ele>
        <time>2024-05-10T10:26:10Z</time>
      </trkpt>
      <trkpt lat="46.59075" lon="6.11547">
        <ele>1084.6</ele>
        <time>2024-05-10T10:26:21Z</time>
      </trkpt>
      <trkpt lat="46.59049" lon="6.11511">
        <ele>1085</ele>
        <time>2024-05-10T10:26:31Z</time>
      </trkpt>
      <trkpt lat="46.59023" lon="6.11489">
        <ele>1085.6</ele>
        <time>2024-05-10T10:26:42Z</time>
      </trkpt>
      <trkpt lat="46.58996" lon="6.11464">
        <ele>1086.3</ele>
        <time>2024-05-10T10:26:53Z</time>
      </trkpt>
      <trkpt lat="46.58975" lon="6.1144">
        <ele>1087.4</ele>
        <time>2024-05-10T10:27:04Z</time>
      </trkpt>
      <trkpt lat="46.58955" lon="6.11416">
        <ele>1087.8</ele>
        <time>2024-05-10T10:27:14Z</time>
      </trkpt>
      <trkpt lat="46.58926" lon="6.11395">
        <ele>1086.8</ele>
        <time>2024-05-10T10:27:25Z</time>
      </trkpt>
      <trkpt lat="46.58889" lon="6.11377">
        <ele>1085.6</ele>
        <time>2024-05-10T10:27:35Z</time>
      </trkpt>
      <trkpt lat="46.58863" lon="6.11356">
        <ele>1086.6</ele>
        <time>2024-05-10T10:27:46Z</time>
      </trkpt>
      <trkpt lat="46.58835" lon="6.11337">
        <ele>1087.8</ele>
        <time>2024-05-10T10:27:56Z</time>
      </trkpt>
      <trkpt lat="46.5881" lon="6.11312">
        <ele>1089.2</ele>
        <time>2024-05-10T10:28:07Z</time>
      </trkpt>
      <trkpt lat="46.58793" lon="6.11293">
        <ele>1090.7</ele>
        <time>2024-05-10T10:28:18Z</time>
      </trkpt>
      <trkpt lat="46.58779" lon="6.11267">
        <ele>1092.2</ele>
        <time>2024-05-10T10:28:29Z</time>
      </trkpt>
      <trkpt lat="46.58765" lon="6.1124">
        <ele>1093.2</ele>
        <time>2024-05-10T10:28:40Z</time>
      </trkpt>
      <trkpt lat="46.5875" lon="6.11208">
        <ele>1093.6</ele>
        <time>2024-05-10T10:28:50Z</time>
      </trkpt>
      <trkpt lat="46.58724" lon="6.11175">
        <ele>1093.5</ele>
        <time>2024-05-10T10:29:00Z</time>
      </trkpt>
      <trkpt lat="46.58716" lon="6.11119">
        <ele>1093.7</ele>
        <time>2024-05-10T10:29:11Z</time>
      </trkpt>
      <trkpt lat="46.58732" lon="6.1107">
        <ele>1094.1</ele>
        <time>2024-05-10T10:29:21Z</time>
      </trkpt>
      <trkpt lat="46.58742" lon="6.11019">
        <ele>1095.9</ele>
        <time>2024-05-10T10:29:32Z</time>
      </trkpt>
      <trkpt lat="46.58751" lon="6.1098">
        <ele>1097.4</ele>
        <time>2024-05-10T10:29:42Z</time>
      </trkpt>
      <trkpt lat="46.58763" lon="6.10933">
        <ele>1097.5</ele>
        <time>2024-05-10T10:29:52Z</time>
      </trkpt>
      <trkpt lat="46.58775" lon="6.10863">
        <ele>1096.1</ele>
        <time>2024-05-10T10:30:02Z</time>
      </trkpt>
      <trkpt lat="46.58781" lon="6.10798">
        <ele>1095.5</ele>
        <time>2024-05-10T10:30:13Z</time>
      </trkpt>
      <trkpt lat="46.58756" lon="6.10784">
        <ele>1096.5</ele>
        <time>2024-05-10T10:30:23Z</time>
      </trkpt>
      <trkpt lat="46.5874" lon="6.10775">
        <ele>1098.2</ele>
        <time>2024-05-10T10:30:33Z</time>
      </trkpt>
      <trkpt lat="46.58725" lon="6.10767">
        <ele>1100.4</ele>
        <time>2024-05-10T10:30:44Z</time>
      </trkpt>
      <trkpt lat="46.58708" lon="6.10762">
        <ele>1102.6</ele>
        <time>2024-05-10T10:30:54Z</time>
      </trkpt>
      <trkpt lat="46.58693" lon="6.10758">
        <ele>1104.9</ele>
        <time>2024-05-10T10:31:04Z</time>
      </trkpt>
      <trkpt lat="46.58679" lon="6.10755">
        <ele>1106.6</ele>
        <time>2024-05-10T10:31:15Z</time>
      </trkpt>
      <trkpt lat="46.58662" lon="6.10753">
        <ele>1107.5</ele>
        <time>2024-05-10T10:31:25Z</time>
      </trkpt>
      <trkpt lat="46.58632" lon="6.10754">
        <ele>1107.7</ele>
        <time>2024-05-10T10:31:35Z</time>
      </trkpt>
      <trkpt lat="46.58603" lon="6.1075">
        <ele>1107.6</ele>
        <time>2024-05-10T10:31:45Z</time>
      </trkpt>
      <trkpt lat="46.58577" lon="6.10745">
        <ele>1108.9</ele>
        <time>2024-05-10T10:31:56Z</time>
      </trkpt>
      <trkpt lat="46.58555" lon="6.10735">
        <ele>1110.1</ele>
        <time>2024-05-10T10:32:07Z</time>
      </trkpt>
      <trkpt lat="46.58549" lon="6.107">
        <ele>1110.6</ele>
        <time>2024-05-10T10:32:17Z</time>
      </trkpt>
      <trkpt lat="46.58544" lon="6.10666">
        <ele>1111.3</ele>
        <time>2024-05-10T10:32:28Z</time>
      </trkpt>
      <trkpt lat="46.58539" lon="6.10629">
        <ele>1112.1</ele>
        <time>2024-05-10T10:32:38Z</time>
      </trkpt>
      <trkpt lat="46.58536" lon="6.10596">
        <ele>1113.2</ele>
        <time>2024-05-10T10:32:50Z</time>
      </trkpt>
      <trkpt lat="46.58529" lon="6.10564">
        <ele>1114.6</ele>
        <time>2024-05-10T10:33:00Z</time>
      </trkpt>
      <trkpt lat="46.58523" lon="6.10535">
        <ele>1116.3</ele>
        <time>2024-05-10T10:33:11Z</time>
      </trkpt>
      <trkpt lat="46.58513" lon="6.10501">
        <ele>1117.2</ele>
        <time>2024-05-10T10:33:21Z</time>
      </trkpt>
      <trkpt lat="46.58492" lon="6.10496">
        <ele>1118.1</ele>
        <time>2024-05-10T10:33:32Z</time>
      </trkpt>
      <trkpt lat="46.5847" lon="6.10498">
        <ele>1119.2</ele>
        <time>2024-05-10T10:33:43Z</time>
      </trkpt>
      <trkpt lat="46.5845" lon="6.10498">
        <ele>1120</ele>
        <time>2024-05-10T10:33:54Z</time>
      </trkpt>
      <trkpt lat="46.58429" lon="6.10496">
        <ele>1120.9</ele>
        <time>2024-05-10T10:34:04Z</time>
      </trkpt>
      <trkpt lat="46.5842" lon="6.10509">
        <ele>1121.8</ele>
        <time>2024-05-10T10:34:14Z</time>
      </trkpt>
      <trkpt lat="46.58416" lon="6.1054">
        <ele>1122.2</ele>
        <time>2024-05-10T10:34:24Z</time>
      </trkpt>
      <trkpt lat="46.58407" lon="6.10584">
        <ele>1122.8</ele>
        <time>2024-05-10T10:34:35Z</time>
      </trkpt>
      <trkpt lat="46.58396" lon="6.10629">
        <ele>1123.2</ele>
        <time>2024-05-10T10:34:45Z</time>
      </trkpt>
      <trkpt lat="46.58377" lon="6.10669">
        <ele>1123.2</ele>
        <time>2024-05-10T10:34:56Z</time>
      </trkpt>
      <trkpt lat="46.58344" lon="6.10706">
        <ele>1122.4</ele>
        <time>2024-05-10T10:35:07Z</time>
      </trkpt>
      <trkpt lat="46.58306" lon="6.10731">
        <ele>1122.3</ele>
        <time>2024-05-10T10:35:17Z</time>
      </trkpt>
      <trkpt lat="46.58267" lon="6.10744">
        <ele>1123.1</ele>
        <time>2024-05-10T10:35:28Z</time>
      </trkpt>
      <trkpt lat="46.58231" lon="6.10738">
        <ele>1124.5</ele>
        <time>2024-05-10T10:35:38Z</time>
      </trkpt>
      <trkpt lat="46.582" lon="6.10717">
        <ele>1125.9</ele>
        <time>2024-05-10T10:35:48Z</time>
      </trkpt>
      <trkpt lat="46.5817" lon="6.10692">
        <ele>1125.4</ele>
        <time>2024-05-10T10:35:59Z</time>
      </trkpt>
      <trkpt lat="46.58163" lon="6.10686">
        <ele>1124.9</ele>
        <time>2024-05-10T10:36:09Z</time>
      </trkpt>
      <trkpt lat="46.58185" lon="6.10705">
        <ele>1126</ele>
        <time>2024-05-10T10:36:20Z</time>
      </trkpt>
      <trkpt lat="46.58203" lon="6.10704">
        <ele>1125.9</ele>
        <time>2024-05-10T10:36:30Z</time>
      </trkpt>
      <trkpt lat="46.58203" lon="6.10703">
        <ele>1126</ele>
        <time>2024-05-10T10:36:41Z</time>
      </trkpt>
      <trkpt lat="46.58202" lon="6.10702">
        <ele>1126</ele>
        <time>2024-05-10T10:36:51Z</time>
      </trkpt>
      <trkpt lat="46.58202" lon="6.10702">
        <ele>1126</ele>
        <time>2024-05-10T10:37:02Z</time>
      </trkpt>
      <trkpt lat="46.58201" lon="6.107">
        <ele>1126</ele>
        <time>2024-05-10T10:37:13Z</time>
      </trkpt>
      <trkpt lat="46.58201" lon="6.107">
        <ele>1126</ele>
        <time>2024-05-10T10:37:24Z</time>
      </trkpt>
      <trkpt lat="46.58202" lon="6.10701">
        <ele>1126</ele>
        <time>2024-05-10T10:37:34Z</time>
      </trkpt>
      <trkpt lat="46.58202" lon="6.10701">
        <ele>1126</ele>
        <time>2024-05-10T10:37:45Z</time>
      </trkpt>
      <trkpt lat="46.58202" lon="6.10701">
        <ele>1126</ele>
        <time>2024-05-10T10:37:56Z</time>
      </trkpt>
      <trkpt lat="46.582" lon="6.10704">
        <ele>1126</ele>
        <time>2024-05-10T10:38:06Z</time>
      </trkpt>
      <trkpt lat="46.58194" lon="6.10715">
        <ele>1126</ele>
        <time>2024-05-10T10:38:17Z</time>
      </trkpt>
      <trkpt lat="46.58186" lon="6.10707">
        <ele>1126.1</ele>
        <time>2024-05-10T10:38:28Z</time>
      </trkpt>
      <trkpt lat="46.58152" lon="6.10677">
        <ele>1124.2</ele>
        <time>2024-05-10T10:38:38Z</time>
      </trkpt>
      <trkpt lat="46.58093" lon="6.10605">
        <ele>1120</ele>
        <time>2024-05-10T10:38:49Z</time>
      </trkpt>
      <trkpt lat="46.58023" lon="6.10552">
        <ele>1120.3</ele>
        <time>2024-05-10T10:39:00Z</time>
      </trkpt>
      <trkpt lat="46.57973" lon="6.10547">
        <ele>1122.4</ele>
        <time>2024-05-10T10:39:10Z</time>
      </trkpt>
      <trkpt lat="46.57937" lon="6.10549">
        <ele>1124.8</ele>
        <time>2024-05-10T10:39:21Z</time>
      </trkpt>
      <trkpt lat="46.57907" lon="6.10552">
        <ele>1126.4</ele>
        <time>2024-05-10T10:39:31Z</time>
      </trkpt>
      <trkpt lat="46.57875" lon="6.10567">
        <ele>1127.5</ele>
        <time>2024-05-10T10:39:42Z</time>
      </trkpt>
      <trkpt lat="46.57837" lon="6.10574">
        <ele>1129</ele>
        <time>2024-05-10T10:39:53Z</time>
      </trkpt>
      <trkpt lat="46.57804" lon="6.10565">
        <ele>1131.3</ele>
        <time>2024-05-10T10:40:04Z</time>
      </trkpt>
      <trkpt lat="46.57777" lon="6.1054">
        <ele>1133.6</ele>
        <time>2024-05-10T10:40:15Z</time>
      </trkpt>
      <trkpt lat="46.57759" lon="6.10503">
        <ele>1135.1</ele>
        <time>2024-05-10T10:40:25Z</time>
      </trkpt>
      <trkpt lat="46.57733" lon="6.10474">
        <ele>1136.2</ele>
        <time>2024-05-10T10:40:35Z</time>
      </trkpt>
      <trkpt lat="46.57706" lon="6.10431">
        <ele>1137.3</ele>
        <time>2024-05-10T10:40:45Z</time>
      </trkpt>
      <trkpt lat="46.57679" lon="6.1039">
        <ele>1137.8</ele>
        <time>2024-05-10T10:40:56Z</time>
      </trkpt>
      <trkpt lat="46.57628" lon="6.10327">
        <ele>1133.9</ele>
        <time>2024-05-10T10:41:07Z</time>
      </trkpt>
      <trkpt lat="46.57552" lon="6.10272">
        <ele>1130.9</ele>
        <time>2024-05-10T10:41:17Z</time>
      </trkpt>
      <trkpt lat="46.57531" lon="6.1022">
        <ele>1133.8</ele>
        <time>2024-05-10T10:41:28Z</time>
      </trkpt>
      <trkpt lat="46.57529" lon="6.10184">
        <ele>1134.5</ele>
        <time>2024-05-10T10:41:39Z</time>
      </trkpt>
      <trkpt lat="46.57515" lon="6.10132">
        <ele>1133</ele>
        <time>2024-05-10T10:41:49Z</time>
      </trkpt>
      <trkpt lat="46.57524" lon="6.10064">
        <ele>1131.2</ele>
        <time>2024-05-10T10:41:59Z</time>
      </trkpt>
      <trkpt lat="46.57503" lon="6.09987">
        <ele>1127.6</ele>
        <time>2024-05-10T10:42:10Z</time>
      </trkpt>
      <trkpt lat="46.57483" lon="6.09925">
        <ele>1125.4</ele>
        <time>2024-05-10T10:42:21Z</time>
      </trkpt>
      <trkpt lat="46.57474" lon="6.0987">
        <ele>1124.6</ele>
        <time>2024-05-10T10:42:31Z</time>
      </trkpt>
      <trkpt lat="46.57475" lon="6.09819">
        <ele>1123.8</ele>
        <time>2024-05-10T10:42:41Z</time>
      </trkpt>
      <trkpt lat="46.5745" lon="6.09794">
        <ele>1121.9</ele>
        <time>2024-05-10T10:42:51Z</time>
      </trkpt>
      <trkpt lat="46.57437" lon="6.09786">
        <ele>1121.3</ele>
        <time>2024-05-10T10:43:02Z</time>
      </trkpt>
      <trkpt lat="46.57435" lon="6.09784">
        <ele>1121.2</ele>
        <time>2024-05-10T10:43:13Z</time>
      </trkpt>
      <trkpt lat="46.57435" lon="6.09784">
        <ele>1121.2</ele>
        <time>2024-05-10T10:43:23Z</time>
      </trkpt>
      <trkpt lat="46.57435" lon="6.09788">
        <ele>1121.1</ele>
        <time>2024-05-10T10:43:33Z</time>
      </trkpt>
      <trkpt lat="46.57435" lon="6.09788">
        <ele>1121.1</ele>
        <time>2024-05-10T10:43:44Z</time>
      </trkpt>
      <trkpt lat="46.57441" lon="6.09793">
        <ele>1120.8</ele>
        <time>2024-05-10T10:43:55Z</time>
      </trkpt>
      <trkpt lat="46.57442" lon="6.09789">
        <ele>1120.7</ele>
        <time>2024-05-10T10:44:05Z</time>
      </trkpt>
      <trkpt lat="46.57442" lon="6.09793">
        <ele>1120.6</ele>
        <time>2024-05-10T10:44:15Z</time>
      </trkpt>
      <trkpt lat="46.57445" lon="6.09793">
        <ele>1120.5</ele>
        <time>2024-05-10T10:44:26Z</time>
      </trkpt>
      <trkpt lat="46.57445" lon="6.09793">
        <ele>1120.5</ele>
        <time>2024-05-10T10:44:36Z</time>
      </trkpt>
      <trkpt lat="46.57441" lon="6.09795">
        <ele>1120.3</ele>
        <time>2024-05-10T10:44:46Z</time>
      </trkpt>
      <trkpt lat="46.57441" lon="6.09793">
        <ele>1120.2</ele>
        <time>2024-05-10T10:44:57Z</time>
      </trkpt>
      <trkpt lat="46.57441" lon="6.09793">
        <ele>1120.2</ele>
        <time>2024-05-10T10:45:07Z</time>
      </trkpt>
      <trkpt lat="46.57441" lon="6.09793">
        <ele>1120.2</ele>
        <time>2024-05-10T10:45:18Z</time>
      </trkpt>
      <trkpt lat="46.57441" lon="6.09793">
        <ele>1120.2</ele>
        <time>2024-05-10T10:45:29Z</time>
      </trkpt>
      <trkpt lat="46.57441" lon="6.09793">
        <ele>1120.2</ele>
        <time>2024-05-10T10:45:39Z</time>
      </trkpt>
      <trkpt lat="46.57441" lon="6.09791">
        <ele>1120.2</ele>
        <time>2024-05-10T10:45:49Z</time>
      </trkpt>
      <trkpt lat="46.57438" lon="6.09789">
        <ele>1120.1</ele>
        <time>2024-05-10T10:46:00Z</time>
      </trkpt>
      <trkpt lat="46.57438" lon="6.09789">
        <ele>1120.1</ele>
        <time>2024-05-10T10:46:11Z</time>
      </trkpt>
      <trkpt lat="46.57438" lon="6.09789">
        <ele>1120.1</ele>
        <time>2024-05-10T10:46:21Z</time>
      </trkpt>
      <trkpt lat="46.57438" lon="6.09789">
        <ele>1120.1</ele>
        <time>2024-05-10T10:46:31Z</time>
      </trkpt>
      <trkpt lat="46.57437" lon="6.09788">
        <ele>1120</ele>
        <time>2024-05-10T10:46:42Z</time>
      </trkpt>
      <trkpt lat="46.57437" lon="6.09788">
        <ele>1120</ele>
        <time>2024-05-10T10:46:52Z</time>
      </trkpt>
      <trkpt lat="46.57435" lon="6.09784">
        <ele>1119.9</ele>
        <time>2024-05-10T10:47:03Z</time>
      </trkpt>
      <trkpt lat="46.57433" lon="6.09786">
        <ele>1119.7</ele>
        <time>2024-05-10T10:47:13Z</time>
      </trkpt>
      <trkpt lat="46.57433" lon="6.09784">
        <ele>1119.7</ele>
        <time>2024-05-10T10:47:24Z</time>
      </trkpt>
      <trkpt lat="46.57433" lon="6.09786">
        <ele>1119.6</ele>
        <time>2024-05-10T10:47:34Z</time>
      </trkpt>
      <trkpt lat="46.57416" lon="6.09783">
        <ele>1118.9</ele>
        <time>2024-05-10T10:47:44Z</time>
      </trkpt>
      <trkpt lat="46.57371" lon="6.09763">
        <ele>1117.1</ele>
        <time>2024-05-10T10:47:54Z</time>
      </trkpt>
      <trkpt lat="46.57312" lon="6.09745">
        <ele>1116.1</ele>
        <time>2024-05-10T10:48:05Z</time>
      </trkpt>
      <trkpt lat="46.57288" lon="6.09676">
        <ele>1114.9</ele>
        <time>2024-05-10T10:48:16Z</time>
      </trkpt>
      <trkpt lat="46.57263" lon="6.09614">
        <ele>1114</ele>
        <time>2024-05-10T10:48:26Z</time>
      </trkpt>
      <trkpt lat="46.57233" lon="6.09549">
        <ele>1111.6</ele>
        <time>2024-05-10T10:48:36Z</time>
      </trkpt>
      <trkpt lat="46.57213" lon="6.09495">
        <ele>1110</ele>
        <time>2024-05-10T10:48:46Z</time>
      </trkpt>
      <trkpt lat="46.57199" lon="6.09469">
        <ele>1107.6</ele>
        <time>2024-05-10T10:48:56Z</time>
      </trkpt>
      <trkpt lat="46.57158" lon="6.09426">
        <ele>1102.2</ele>
        <time>2024-05-10T10:49:07Z</time>
      </trkpt>
      <trkpt lat="46.57114" lon="6.09373">
        <ele>1099.7</ele>
        <time>2024-05-10T10:49:18Z</time>
      </trkpt>
      <trkpt lat="46.57055" lon="6.09304">
        <ele>1097.8</ele>
        <time>2024-05-10T10:49:28Z</time>
      </trkpt>
      <trkpt lat="46.57004" lon="6.09244">
        <ele>1100.1</ele>
        <time>2024-05-10T10:49:39Z</time>
      </trkpt>
      <trkpt lat="46.56975" lon="6.0922">
        <ele>1102</ele>
        <time>2024-05-10T10:49:51Z</time>
      </trkpt>
      <trkpt lat="46.56934" lon="6.09199">
        <ele>1101.3</ele>
        <time>2024-05-10T10:50:01Z</time>
      </trkpt>
      <trkpt lat="46.56891" lon="6.09158">
        <ele>1101.8</ele>
        <time>2024-05-10T10:50:11Z</time>
      </trkpt>
      <trkpt lat="46.56867" lon="6.0912">
        <ele>1103.9</ele>
        <time>2024-05-10T10:50:22Z</time>
      </trkpt>
      <trkpt lat="46.56848" lon="6.09076">
        <ele>1104.4</ele>
        <time>2024-05-10T10:50:33Z</time>
      </trkpt>
      <trkpt lat="46.56823" lon="6.0901">
        <ele>1104.1</ele>
        <time>2024-05-10T10:50:44Z</time>
      </trkpt>
      <trkpt lat="46.56794" lon="6.08938">
        <ele>1103.7</ele>
        <time>2024-05-10T10:50:55Z</time>
      </trkpt>
      <trkpt lat="46.56752" lon="6.0889">
        <ele>1102.3</ele>
        <time>2024-05-10T10:51:06Z</time>
      </trkpt>
      <trkpt lat="46.56723" lon="6.08812">
        <ele>1099.7</ele>
        <time>2024-05-10T10:51:16Z</time>
      </trkpt>
      <trkpt lat="46.56699" lon="6.0874">
        <ele>1097.5</ele>
        <time>2024-05-10T10:51:26Z</time>
      </trkpt>
      <trkpt lat="46.56672" lon="6.0867">
        <ele>1096.3</ele>
        <time>2024-05-10T10:51:37Z</time>
      </trkpt>
      <trkpt lat="46.56653" lon="6.08618">
        <ele>1096.3</ele>
        <time>2024-05-10T10:51:48Z</time>
      </trkpt>
      <trkpt lat="46.56632" lon="6.08577">
        <ele>1097.1</ele>
        <time>2024-05-10T10:51:58Z</time>
      </trkpt>
      <trkpt lat="46.56612" lon="6.08526">
        <ele>1098.2</ele>
        <time>2024-05-10T10:52:09Z</time>
      </trkpt>
      <trkpt lat="46.56603" lon="6.08472">
        <ele>1099.9</ele>
        <time>2024-05-10T10:52:20Z</time>
      </trkpt>
      <trkpt lat="46.56605" lon="6.0843">
        <ele>1100.9</ele>
        <time>2024-05-10T10:52:31Z</time>
      </trkpt>
      <trkpt lat="46.56616" lon="6.08395">
        <ele>1100.2</ele>
        <time>2024-05-10T10:52:41Z</time>
      </trkpt>
      <trkpt lat="46.56641" lon="6.08331">
        <ele>1098.3</ele>
        <time>2024-05-10T10:52:52Z</time>
      </trkpt>
      <trkpt lat="46.56669" lon="6.08252">
        <ele>1095.9</ele>
        <time>2024-05-10T10:53:03Z</time>
      </trkpt>
      <trkpt lat="46.56692" lon="6.08184">
        <ele>1093.7</ele>
        <time>2024-05-10T10:53:13Z</time>
      </trkpt>
      <trkpt lat="46.5672" lon="6.08124">
        <ele>1091</ele>
        <time>2024-05-10T10:53:23Z</time>
      </trkpt>
      <trkpt lat="46.56732" lon="6.08082">
        <ele>1091.4</ele>
        <time>2024-05-10T10:53:34Z</time>
      </trkpt>
      <trkpt lat="46.56735" lon="6.08041">
        <ele>1092.4</ele>
        <time>2024-05-10T10:53:44Z</time>
      </trkpt>
      <trkpt lat="46.56719" lon="6.08007">
        <ele>1093.7</ele>
        <time>2024-05-10T10:53:55Z</time>
      </trkpt>
      <trkpt lat="46.56699" lon="6.07972">
        <ele>1095</ele>
        <time>2024-05-10T10:54:05Z</time>
      </trkpt>
      <trkpt lat="46.56684" lon="6.07962">
        <ele>1095.7</ele>
        <time>2024-05-10T10:54:16Z</time>
      </trkpt>
      <trkpt lat="46.56667" lon="6.07983">
        <ele>1095.1</ele>
        <time>2024-05-10T10:54:26Z</time>
      </trkpt>
      <trkpt lat="46.56634" lon="6.08005">
        <ele>1093.5</ele>
        <time>2024-05-10T10:54:36Z</time>
      </trkpt>
      <trkpt lat="46.56586" lon="6.07922">
        <ele>1087.2</ele>
        <time>2024-05-10T10:54:47Z</time>
      </trkpt>
      <trkpt lat="46.56522" lon="6.0784">
        <ele>1079.4</ele>
        <time>2024-05-10T10:54:58Z</time>
      </trkpt>
      <trkpt lat="46.56418" lon="6.07863">
        <ele>1074.5</ele>
        <time>2024-05-10T10:55:09Z</time>
      </trkpt>
      <trkpt lat="46.56358" lon="6.07829">
        <ele>1077.3</ele>
        <time>2024-05-10T10:55:19Z</time>
      </trkpt>
      <trkpt lat="46.5633" lon="6.07794">
        <ele>1079.5</ele>
        <time>2024-05-10T10:55:30Z</time>
      </trkpt>
      <trkpt lat="46.56318" lon="6.07747">
        <ele>1081.2</ele>
        <time>2024-05-10T10:55:41Z</time>
      </trkpt>
      <trkpt lat="46.56308" lon="6.07703">
        <ele>1082.2</ele>
        <time>2024-05-10T10:55:51Z</time>
      </trkpt>
      <trkpt lat="46.56303" lon="6.07644">
        <ele>1081.5</ele>
        <time>2024-05-10T10:56:01Z</time>
      </trkpt>
      <trkpt lat="46.56335" lon="6.07571">
        <ele>1080</ele>
        <time>2024-05-10T10:56:12Z</time>
      </trkpt>
      <trkpt lat="46.56353" lon="6.07542">
        <ele>1079.4</ele>
        <time>2024-05-10T10:56:23Z</time>
      </trkpt>
      <trkpt lat="46.56344" lon="6.0754">
        <ele>1079.5</ele>
        <time>2024-05-10T10:56:34Z</time>
      </trkpt>
      <trkpt lat="46.56323" lon="6.07546">
        <ele>1079.8</ele>
        <time>2024-05-10T10:56:45Z</time>
      </trkpt>
      <trkpt lat="46.56302" lon="6.07544">
        <ele>1082.4</ele>
        <time>2024-05-10T10:56:55Z</time>
      </trkpt>
      <trkpt lat="46.56281" lon="6.07563">
        <ele>1084.4</ele>
        <time>2024-05-10T10:57:05Z</time>
      </trkpt>
      <trkpt lat="46.56267" lon="6.07593">
        <ele>1086.6</ele>
        <time>2024-05-10T10:57:16Z</time>
      </trkpt>
      <trkpt lat="46.56256" lon="6.07627">
        <ele>1088.8</ele>
        <time>2024-05-10T10:57:27Z</time>
      </trkpt>
      <trkpt lat="46.5625" lon="6.07655">
        <ele>1090.6</ele>
        <time>2024-05-10T10:57:37Z</time>
      </trkpt>
      <trkpt lat="46.56244" lon="6.07682">
        <ele>1092.3</ele>
        <time>2024-05-10T10:57:47Z</time>
      </trkpt>
      <trkpt lat="46.56236" lon="6.07713">
        <ele>1094.4</ele>
        <time>2024-05-10T10:57:58Z</time>
      </trkpt>
      <trkpt lat="46.5623" lon="6.07745">
        <ele>1096.5</ele>
        <time>2024-05-10T10:58:10Z</time>
      </trkpt>
      <trkpt lat="46.56224" lon="6.07775">
        <ele>1098.6</ele>
        <time>2024-05-10T10:58:20Z</time>
      </trkpt>
      <trkpt lat="46.56215" lon="6.07807">
        <ele>1101.1</ele>
        <time>2024-05-10T10:58:31Z</time>
      </trkpt>
      <trkpt lat="46.56209" lon="6.07834">
        <ele>1103.2</ele>
        <time>2024-05-10T10:58:41Z</time>
      </trkpt>
      <trkpt lat="46.56195" lon="6.07862">
        <ele>1105.5</ele>
        <time>2024-05-10T10:58:52Z</time>
      </trkpt>
      <trkpt lat="46.56183" lon="6.07886">
        <ele>1107.5</ele>
        <time>2024-05-10T10:59:02Z</time>
      </trkpt>
      <trkpt lat="46.56167" lon="6.0791">
        <ele>1109.5</ele>
        <time>2024-05-10T10:59:13Z</time>
      </trkpt>
      <trkpt lat="46.56153" lon="6.07934">
        <ele>1111.5</ele>
        <time>2024-05-10T10:59:23Z</time>
      </trkpt>
      <trkpt lat="46.56143" lon="6.07964">
        <ele>1113.9</ele>
        <time>2024-05-10T10:59:34Z</time>
      </trkpt>
      <trkpt lat="46.56138" lon="6.07994">
        <ele>1115.9</ele>
        <time>2024-05-10T10:59:45Z</time>
      </trkpt>
      <trkpt lat="46.56138" lon="6.08025">
        <ele>1117.7</ele>
        <time>2024-05-10T10:59:56Z</time>
      </trkpt>
      <trkpt lat="46.56139" lon="6.08052">
        <ele>1119.4</ele>
        <time>2024-05-10T11:00:07Z</time>
      </trkpt>
      <trkpt lat="46.56141" lon="6.08077">
        <ele>1120.8</ele>
        <time>2024-05-10T11:00:17Z</time>
      </trkpt>
      <trkpt lat="46.56145" lon="6.08104">
        <ele>1122.4</ele>
        <time>2024-05-10T11:00:28Z</time>
      </trkpt>
      <trkpt lat="46.56147" lon="6.08131">
        <ele>1124</ele>
        <time>2024-05-10T11:00:38Z</time>
      </trkpt>
      <trkpt lat="46.5615" lon="6.08161">
        <ele>1125.8</ele>
        <time>2024-05-10T11:00:49Z</time>
      </trkpt>
      <trkpt lat="46.56153" lon="6.08191">
        <ele>1127.7</ele>
        <time>2024-05-10T11:01:00Z</time>
      </trkpt>
      <trkpt lat="46.56152" lon="6.08217">
        <ele>1129.5</ele>
        <time>2024-05-10T11:01:10Z</time>
      </trkpt>
      <trkpt lat="46.56148" lon="6.08242">
        <ele>1131.1</ele>
        <time>2024-05-10T11:01:20Z</time>
      </trkpt>
      <trkpt lat="46.56145" lon="6.08271">
        <ele>1133</ele>
        <time>2024-05-10T11:01:31Z</time>
      </trkpt>
      <trkpt lat="46.56145" lon="6.08294">
        <ele>1134.5</ele>
        <time>2024-05-10T11:01:41Z</time>
      </trkpt>
      <trkpt lat="46.56146" lon="6.08324">
        <ele>1136.6</ele>
        <time>2024-05-10T11:01:52Z</time>
      </trkpt>
      <trkpt lat="46.56151" lon="6.08353">
        <ele>1138.5</ele>
        <time>2024-05-10T11:02:02Z</time>
      </trkpt>
      <trkpt lat="46.56157" lon="6.08381">
        <ele>1140.6</ele>
        <time>2024-05-10T11:02:13Z</time>
      </trkpt>
      <trkpt lat="46.56156" lon="6.08409">
        <ele>1142.5</ele>
        <time>2024-05-10T11:02:24Z</time>
      </trkpt>
      <trkpt lat="46.56148" lon="6.08429">
        <ele>1143.9</ele>
        <time>2024-05-10T11:02:34Z</time>
      </trkpt>
      <trkpt lat="46.56139" lon="6.08453">
        <ele>1145.6</ele>
        <time>2024-05-10T11:02:45Z</time>
      </trkpt>
      <trkpt lat="46.56127" lon="6.08472">
        <ele>1147.3</ele>
        <time>2024-05-10T11:02:55Z</time>
      </trkpt>
      <trkpt lat="46.56117" lon="6.08496">
        <ele>1149.1</ele>
        <time>2024-05-10T11:03:05Z</time>
      </trkpt>
      <trkpt lat="46.56109" lon="6.08524">
        <ele>1150.9</ele>
        <time>2024-05-10T11:03:16Z</time>
      </trkpt>
      <trkpt lat="46.56089" lon="6.08542">
        <ele>1152.5</ele>
        <time>2024-05-10T11:03:27Z</time>
      </trkpt>
      <trkpt lat="46.56067" lon="6.08548">
        <ele>1153.8</ele>
        <time>2024-05-10T11:03:37Z</time>
      </trkpt>
      <trkpt lat="46.56046" lon="6.0854">
        <ele>1155.1</ele>
        <time>2024-05-10T11:03:47Z</time>
      </trkpt>
      <trkpt lat="46.56026" lon="6.08526">
        <ele>1156.7</ele>
        <time>2024-05-10T11:03:58Z</time>
      </trkpt>
      <trkpt lat="46.56011" lon="6.08506">
        <ele>1158.3</ele>
        <time>2024-05-10T11:04:09Z</time>
      </trkpt>
      <trkpt lat="46.55995" lon="6.08492">
        <ele>1160</ele>
        <time>2024-05-10T11:04:19Z</time>
      </trkpt>
      <trkpt lat="46.55977" lon="6.0849">
        <ele>1161.6</ele>
        <time>2024-05-10T11:04:29Z</time>
      </trkpt>
      <trkpt lat="46.55956" lon="6.08493">
        <ele>1163.4</ele>
        <time>2024-05-10T11:04:40Z</time>
      </trkpt>
      <trkpt lat="46.55939" lon="6.08483">
        <ele>1165</ele>
        <time>2024-05-10T11:04:50Z</time>
      </trkpt>
      <trkpt lat="46.55923" lon="6.08466">
        <ele>1166.8</ele>
        <time>2024-05-10T11:05:01Z</time>
      </trkpt>
      <trkpt lat="46.55908" lon="6.08451">
        <ele>1168.6</ele>
        <time>2024-05-10T11:05:11Z</time>
      </trkpt>
      <trkpt lat="46.5589" lon="6.08439">
        <ele>1170.4</ele>
        <time>2024-05-10T11:05:21Z</time>
      </trkpt>
      <trkpt lat="46.55874" lon="6.08424">
        <ele>1172.3</ele>
        <time>2024-05-10T11:05:32Z</time>
      </trkpt>
      <trkpt lat="46.55858" lon="6.08406">
        <ele>1174.2</ele>
        <time>2024-05-10T11:05:44Z</time>
      </trkpt>
      <trkpt lat="46.55839" lon="6.08392">
        <ele>1176.3</ele>
        <time>2024-05-10T11:05:54Z</time>
      </trkpt>
      <trkpt lat="46.55832" lon="6.08388">
        <ele>1177.1</ele>
        <time>2024-05-10T11:06:05Z</time>
      </trkpt>
      <trkpt lat="46.55832" lon="6.08388">
        <ele>1177.1</ele>
        <time>2024-05-10T11:06:16Z</time>
      </trkpt>
      <trkpt lat="46.55832" lon="6.08388">
        <ele>1177.1</ele>
        <time>2024-05-10T11:06:26Z</time>
      </trkpt>
      <trkpt lat="46.55832" lon="6.08388">
        <ele>1177.1</ele>
        <time>2024-05-10T11:06:36Z</time>
      </trkpt>
      <trkpt lat="46.55832" lon="6.08388">
        <ele>1177.1</ele>
        <time>2024-05-10T11:06:46Z</time>
      </trkpt>
      <trkpt lat="46.55832" lon="6.08388">
        <ele>1177.1</ele>
        <time>2024-05-10T11:06:57Z</time>
      </trkpt>
      <trkpt lat="46.55832" lon="6.08388">
        <ele>1177.1</ele>
        <time>2024-05-10T11:07:08Z</time>
      </trkpt>
      <trkpt lat="46.55829" lon="6.08386">
        <ele>1177.4</ele>
        <time>2024-05-10T11:07:18Z</time>
      </trkpt>
      <trkpt lat="46.5583" lon="6.08386">
        <ele>1177.4</ele>
        <time>2024-05-10T11:07:28Z</time>
      </trkpt>
      <trkpt lat="46.5583" lon="6.08386">
        <ele>1177.4</ele>
        <time>2024-05-10T11:07:39Z</time>
      </trkpt>
      <trkpt lat="46.5583" lon="6.08386">
        <ele>1177.4</ele>
        <time>2024-05-10T11:07:49Z</time>
      </trkpt>
      <trkpt lat="46.5583" lon="6.08386">
        <ele>1177.4</ele>
        <time>2024-05-10T11:08:00Z</time>
      </trkpt>
      <trkpt lat="46.5583" lon="6.08386">
        <ele>1177.4</ele>
        <time>2024-05-10T11:08:10Z</time>
      </trkpt>
      <trkpt lat="46.5583" lon="6.08386">
        <ele>1177.4</ele>
        <time>2024-05-10T11:08:20Z</time>
      </trkpt>
      <trkpt lat="46.5583" lon="6.08386">
        <ele>1177.4</ele>
        <time>2024-05-10T11:08:31Z</time>
      </trkpt>
      <trkpt lat="46.5583" lon="6.08386">
        <ele>1177.4</ele>
        <time>2024-05-10T11:08:42Z</time>
      </trkpt>
      <trkpt lat="46.5583" lon="6.08386">
        <ele>1177.4</ele>
        <time>2024-05-10T11:08:53Z</time>
      </trkpt>
      <trkpt lat="46.5583" lon="6.08386">
        <ele>1177.4</ele>
        <time>2024-05-10T11:09:03Z</time>
      </trkpt>
      <trkpt lat="46.5583" lon="6.08386">
        <ele>1177.4</ele>
        <time>2024-05-10T11:09:14Z</time>
      </trkpt>
      <trkpt lat="46.5583" lon="6.08386">
        <ele>1177.4</ele>
        <time>2024-05-10T11:09:24Z</time>
      </trkpt>
      <trkpt lat="46.5583" lon="6.08386">
        <ele>1177.4</ele>
        <time>2024-05-10T11:09:35Z</time>
      </trkpt>
      <trkpt lat="46.5583" lon="6.08386">
        <ele>1177.4</ele>
        <time>2024-05-10T11:09:46Z</time>
      </trkpt>
      <trkpt lat="46.5583" lon="6.08386">
        <ele>1177.4</ele>
        <time>2024-05-10T11:09:56Z</time>
      </trkpt>
      <trkpt lat="46.5583" lon="6.08386">
        <ele>1177.4</ele>
        <time>2024-05-10T11:10:06Z</time>
      </trkpt>
      <trkpt lat="46.5583" lon="6.08386">
        <ele>1177.4</ele>
        <time>2024-05-10T11:10:17Z</time>
      </trkpt>
      <trkpt lat="46.5583" lon="6.08386">
        <ele>1177.4</ele>
        <time>2024-05-10T11:10:27Z</time>
      </trkpt>
      <trkpt lat="46.5583" lon="6.08386">
        <ele>1177.4</ele>
        <time>2024-05-10T11:10:38Z</time>
      </trkpt>
      <trkpt lat="46.5583" lon="6.08386">
        <ele>1177.4</ele>
        <time>2024-05-10T11:10:48Z</time>
      </trkpt>
      <trkpt lat="46.5583" lon="6.08386">
        <ele>1177.4</ele>
        <time>2024-05-10T11:10:59Z</time>
      </trkpt>
      <trkpt lat="46.5583" lon="6.08386">
        <ele>1177.4</ele>
        <time>2024-05-10T11:11:10Z</time>
      </trkpt>
      <trkpt lat="46.5583" lon="6.08386">
        <ele>1177.4</ele>
        <time>2024-05-10T11:11:21Z</time>
      </trkpt>
      <trkpt lat="46.5583" lon="6.08386">
        <ele>1177.4</ele>
        <time>2024-05-10T11:11:31Z</time>
      </trkpt>
      <trkpt lat="46.5583" lon="6.08386">
        <ele>1177.4</ele>
        <time>2024-05-10T11:11:42Z</time>
      </trkpt>
      <trkpt lat="46.5583" lon="6.08386">
        <ele>1177.4</ele>
        <time>2024-05-10T11:11:53Z</time>
      </trkpt>
      <trkpt lat="46.5583" lon="6.08386">
        <ele>1177.4</ele>
        <time>2024-05-10T11:12:03Z</time>
      </trkpt>
      <trkpt lat="46.5583" lon="6.08386">
        <ele>1177.4</ele>
        <time>2024-05-10T11:12:13Z</time>
      </trkpt>
      <trkpt lat="46.5583" lon="6.08386">
        <ele>1177.4</ele>
        <time>2024-05-10T11:12:23Z</time>
      </trkpt>
      <trkpt lat="46.5583" lon="6.08386">
        <ele>1177.4</ele>
        <time>2024-05-10T11:12:34Z</time>
      </trkpt>
      <trkpt lat="46.5583" lon="6.08386">
        <ele>1177.4</ele>
        <time>2024-05-10T11:12:45Z</time>
      </trkpt>
      <trkpt lat="46.5583" lon="6.08386">
        <ele>1177.4</ele>
        <time>2024-05-10T11:12:55Z</time>
      </trkpt>
      <trkpt lat="46.5583" lon="6.08386">
        <ele>1177.4</ele>
        <time>2024-05-10T11:13:06Z</time>
      </trkpt>
      <trkpt lat="46.55829" lon="6.08386">
        <ele>1177.4</ele>
        <time>2024-05-10T11:13:17Z</time>
      </trkpt>
      <trkpt lat="46.55829" lon="6.08386">
        <ele>1177.4</ele>
        <time>2024-05-10T11:13:28Z</time>
      </trkpt>
      <trkpt lat="46.55829" lon="6.08386">
        <ele>1177.4</ele>
        <time>2024-05-10T11:13:38Z</time>
      </trkpt>
      <trkpt lat="46.55829" lon="6.08386">
        <ele>1177.4</ele>
        <time>2024-05-10T11:13:49Z</time>
      </trkpt>
      <trkpt lat="46.55829" lon="6.08386">
        <ele>1177.4</ele>
        <time>2024-05-10T11:13:59Z</time>
      </trkpt>
      <trkpt lat="46.55829" lon="6.08386">
        <ele>1177.4</ele>
        <time>2024-05-10T11:14:10Z</time>
      </trkpt>
      <trkpt lat="46.55829" lon="6.08386">
        <ele>1177.5</ele>
        <time>2024-05-10T11:14:20Z</time>
      </trkpt>
      <trkpt lat="46.55829" lon="6.08386">
        <ele>1177.5</ele>
        <time>2024-05-10T11:14:31Z</time>
      </trkpt>
      <trkpt lat="46.55829" lon="6.08386">
        <ele>1177.5</ele>
        <time>2024-05-10T11:14:41Z</time>
      </trkpt>
      <trkpt lat="46.55829" lon="6.08386">
        <ele>1177.5</ele>
        <time>2024-05-10T11:14:52Z</time>
      </trkpt>
      <trkpt lat="46.55829" lon="6.08386">
        <ele>1177.5</ele>
        <time>2024-05-10T11:15:03Z</time>
      </trkpt>
      <trkpt lat="46.55829" lon="6.08386">
        <ele>1177.5</ele>
        <time>2024-05-10T11:15:13Z</time>
      </trkpt>
      <trkpt lat="46.55829" lon="6.08386">
        <ele>1177.5</ele>
        <time>2024-05-10T11:15:23Z</time>
      </trkpt>
      <trkpt lat="46.55829" lon="6.08386">
        <ele>1177.5</ele>
        <time>2024-05-10T11:15:34Z</time>
      </trkpt>
      <trkpt lat="46.55829" lon="6.08386">
        <ele>1177.5</ele>
        <time>2024-05-10T11:15:44Z</time>
      </trkpt>
      <trkpt lat="46.55829" lon="6.08386">
        <ele>1177.5</ele>
        <time>2024-05-10T11:15:54Z</time>
      </trkpt>
      <trkpt lat="46.55829" lon="6.08386">
        <ele>1177.5</ele>
        <time>2024-05-10T11:16:05Z</time>
      </trkpt>
      <trkpt lat="46.55829" lon="6.08386">
        <ele>1177.5</ele>
        <time>2024-05-10T11:16:15Z</time>
      </trkpt>
      <trkpt lat="46.55811" lon="6.08387">
        <ele>1179.2</ele>
        <time>2024-05-10T11:16:26Z</time>
      </trkpt>
      <trkpt lat="46.55787" lon="6.08387">
        <ele>1181.5</ele>
        <time>2024-05-10T11:16:37Z</time>
      </trkpt>
      <trkpt lat="46.55765" lon="6.08387">
        <ele>1183.6</ele>
        <time>2024-05-10T11:16:48Z</time>
      </trkpt>
      <trkpt lat="46.55744" lon="6.08373">
        <ele>1186</ele>
        <time>2024-05-10T11:16:59Z</time>
      </trkpt>
      <trkpt lat="46.55721" lon="6.08368">
        <ele>1188.3</ele>
        <time>2024-05-10T11:17:10Z</time>
      </trkpt>
      <trkpt lat="46.5571" lon="6.08391">
        <ele>1190.2</ele>
        <time>2024-05-10T11:17:20Z</time>
      </trkpt>
      <trkpt lat="46.55718" lon="6.08414">
        <ele>1191.8</ele>
        <time>2024-05-10T11:17:30Z</time>
      </trkpt>
      <trkpt lat="46.5574" lon="6.08419">
        <ele>1193.1</ele>
        <time>2024-05-10T11:17:40Z</time>
      </trkpt>
      <trkpt lat="46.55767" lon="6.08427">
        <ele>1194.2</ele>
        <time>2024-05-10T11:17:50Z</time>
      </trkpt>
      <trkpt lat="46.55793" lon="6.08442">
        <ele>1195.9</ele>
        <time>2024-05-10T11:18:01Z</time>
      </trkpt>
      <trkpt lat="46.55792" lon="6.0847">
        <ele>1197.6</ele>
        <time>2024-05-10T11:18:12Z</time>
      </trkpt>
      <trkpt lat="46.55772" lon="6.08474">
        <ele>1199.4</ele>
        <time>2024-05-10T11:18:23Z</time>
      </trkpt>
      <trkpt lat="46.55749" lon="6.08468">
        <ele>1201.4</ele>
        <time>2024-05-10T11:18:34Z</time>
      </trkpt>
      <trkpt lat="46.55727" lon="6.08457">
        <ele>1203.5</ele>
        <time>2024-05-10T11:18:45Z</time>
      </trkpt>
      <trkpt lat="46.55707" lon="6.08441">
        <ele>1205.5</ele>
        <time>2024-05-10T11:18:56Z</time>
      </trkpt>
      <trkpt lat="46.55684" lon="6.08429">
        <ele>1207.9</ele>
        <time>2024-05-10T11:19:07Z</time>
      </trkpt>
      <trkpt lat="46.55665" lon="6.08422">
        <ele>1210</ele>
        <time>2024-05-10T11:19:17Z</time>
      </trkpt>
      <trkpt lat="46.55643" lon="6.08418">
        <ele>1212.2</ele>
        <time>2024-05-10T11:19:27Z</time>
      </trkpt>
      <trkpt lat="46.55621" lon="6.08411">
        <ele>1214.5</ele>
        <time>2024-05-10T11:19:38Z</time>
      </trkpt>
      <trkpt lat="46.55603" lon="6.08398">
        <ele>1216.6</ele>
        <time>2024-05-10T11:19:49Z</time>
      </trkpt>
      <trkpt lat="46.55592" lon="6.08395">
        <ele>1217.8</ele>
        <time>2024-05-10T11:20:00Z</time>
      </trkpt>
      <trkpt lat="46.55592" lon="6.08394">
        <ele>1217.9</ele>
        <time>2024-05-10T11:20:11Z</time>
      </trkpt>
      <trkpt lat="46.55592" lon="6.08393">
        <ele>1218</ele>
        <time>2024-05-10T11:20:22Z</time>
      </trkpt>
      <trkpt lat="46.55592" lon="6.08393">
        <ele>1218</ele>
        <time>2024-05-10T11:20:32Z</time>
      </trkpt>
      <trkpt lat="46.55592" lon="6.08393">
        <ele>1218</ele>
        <time>2024-05-10T11:20:43Z</time>
      </trkpt>
      <trkpt lat="46.55581" lon="6.084">
        <ele>1219.3</ele>
        <time>2024-05-10T11:20:54Z</time>
      </trkpt>
      <trkpt lat="46.55564" lon="6.08422">
        <ele>1221.7</ele>
        <time>2024-05-10T11:21:05Z</time>
      </trkpt>
      <trkpt lat="46.55546" lon="6.08462">
        <ele>1224</ele>
        <time>2024-05-10T11:21:16Z</time>
      </trkpt>
      <trkpt lat="46.55527" lon="6.08499">
        <ele>1226.2</ele>
        <time>2024-05-10T11:21:27Z</time>
      </trkpt>
      <trkpt lat="46.55479" lon="6.08526">
        <ele>1227.8</ele>
        <time>2024-05-10T11:21:38Z</time>
      </trkpt>
      <trkpt lat="46.55436" lon="6.08559">
        <ele>1229.5</ele>
        <time>2024-05-10T11:21:48Z</time>
      </trkpt>
      <trkpt lat="46.55409" lon="6.08621">
        <ele>1230.4</ele>
        <time>2024-05-10T11:21:58Z</time>
      </trkpt>
      <trkpt lat="46.55377" lon="6.08673">
        <ele>1230.3</ele>
        <time>2024-05-10T11:22:08Z</time>
      </trkpt>
      <trkpt lat="46.55316" lon="6.08721">
        <ele>1226.7</ele>
        <time>2024-05-10T11:22:19Z</time>
      </trkpt>
      <trkpt lat="46.55239" lon="6.08771">
        <ele>1224.8</ele>
        <time>2024-05-10T11:22:30Z</time>
      </trkpt>
      <trkpt lat="46.55165" lon="6.08777">
        <ele>1224.8</ele>
        <time>2024-05-10T11:22:40Z</time>
      </trkpt>
      <trkpt lat="46.55101" lon="6.08823">
        <ele>1223.9</ele>
        <time>2024-05-10T11:22:50Z</time>
      </trkpt>
      <trkpt lat="46.55025" lon="6.08839">
        <ele>1225.5</ele>
        <time>2024-05-10T11:23:01Z</time>
      </trkpt>
      <trkpt lat="46.5498" lon="6.08882">
        <ele>1227.5</ele>
        <time>2024-05-10T11:23:12Z</time>
      </trkpt>
      <trkpt lat="46.54944" lon="6.08921">
        <ele>1228.7</ele>
        <time>2024-05-10T11:23:22Z</time>
      </trkpt>
      <trkpt lat="46.54907" lon="6.08958">
        <ele>1230.8</ele>
        <time>2024-05-10T11:23:32Z</time>
      </trkpt>
      <trkpt lat="46.54885" lon="6.0898">
        <ele>1234</ele>
        <time>2024-05-10T11:23:44Z</time>
      </trkpt>
      <trkpt lat="46.54867" lon="6.0901">
        <ele>1237.1</ele>
        <time>2024-05-10T11:23:54Z</time>
      </trkpt>
      <trkpt lat="46.54846" lon="6.09044">
        <ele>1239.4</ele>
        <time>2024-05-10T11:24:05Z</time>
      </trkpt>
      <trkpt lat="46.54823" lon="6.09075">
        <ele>1240.7</ele>
        <time>2024-05-10T11:24:16Z</time>
      </trkpt>
      <trkpt lat="46.54795" lon="6.09097">
        <ele>1242.4</ele>
        <time>2024-05-10T11:24:27Z</time>
      </trkpt>
      <trkpt lat="46.5477" lon="6.09117">
        <ele>1244.8</ele>
        <time>2024-05-10T11:24:38Z</time>
      </trkpt>
      <trkpt lat="46.54744" lon="6.09136">
        <ele>1247.4</ele>
        <time>2024-05-10T11:24:49Z</time>
      </trkpt>
      <trkpt lat="46.54719" lon="6.09148">
        <ele>1249.8</ele>
        <time>2024-05-10T11:24:59Z</time>
      </trkpt>
      <trkpt lat="46.54699" lon="6.09176">
        <ele>1251.4</ele>
        <time>2024-05-10T11:25:09Z</time>
      </trkpt>
      <trkpt lat="46.5468" lon="6.09232">
        <ele>1250.5</ele>
        <time>2024-05-10T11:25:20Z</time>
      </trkpt>
      <trkpt lat="46.54621" lon="6.09283">
        <ele>1244</ele>
        <time>2024-05-10T11:25:30Z</time>
      </trkpt>
      <trkpt lat="46.546" lon="6.09392">
        <ele>1235.3</ele>
        <time>2024-05-10T11:25:41Z</time>
      </trkpt>
      <trkpt lat="46.54535" lon="6.09426">
        <ele>1228.6</ele>
        <time>2024-05-10T11:25:52Z</time>
      </trkpt>
      <trkpt lat="46.54562" lon="6.09478">
        <ele>1226.9</ele>
        <time>2024-05-10T11:26:02Z</time>
      </trkpt>
      <trkpt lat="46.54562" lon="6.09595">
        <ele>1223.1</ele>
        <time>2024-05-10T11:26:13Z</time>
      </trkpt>
      <trkpt lat="46.54551" lon="6.09702">
        <ele>1222.3</ele>
        <time>2024-05-10T11:26:23Z</time>
      </trkpt>
      <trkpt lat="46.54553" lon="6.09756">
        <ele>1222.4</ele>
        <time>2024-05-10T11:26:34Z</time>
      </trkpt>
      <trkpt lat="46.54542" lon="6.09782">
        <ele>1221.1</ele>
        <time>2024-05-10T11:26:45Z</time>
      </trkpt>
      <trkpt lat="46.54508" lon="6.09846">
        <ele>1219.3</ele>
        <time>2024-05-10T11:26:55Z</time>
      </trkpt>
      <trkpt lat="46.54475" lon="6.09909">
        <ele>1216.4</ele>
        <time>2024-05-10T11:27:05Z</time>
      </trkpt>
      <trkpt lat="46.54426" lon="6.09948">
        <ele>1215.5</ele>
        <time>2024-05-10T11:27:16Z</time>
      </trkpt>
      <trkpt lat="46.54406" lon="6.10016">
        <ele>1216.6</ele>
        <time>2024-05-10T11:27:27Z</time>
      </trkpt>
      <trkpt lat="46.54361" lon="6.10064">
        <ele>1214.5</ele>
        <time>2024-05-10T11:27:37Z</time>
      </trkpt>
      <trkpt lat="46.54312" lon="6.10108">
        <ele>1210</ele>
        <time>2024-05-10T11:27:47Z</time>
      </trkpt>
      <trkpt lat="46.54283" lon="6.10123">
        <ele>1206.1</ele>
        <time>2024-05-10T11:27:58Z</time>
      </trkpt>
      <trkpt lat="46.54219" lon="6.10152">
        <ele>1203</ele>
        <time>2024-05-10T11:28:08Z</time>
      </trkpt>
      <trkpt lat="46.54159" lon="6.10181">
        <ele>1203.9</ele>
        <time>2024-05-10T11:28:19Z</time>
      </trkpt>
      <trkpt lat="46.54095" lon="6.10205">
        <ele>1201.7</ele>
        <time>2024-05-10T11:28:29Z</time>
      </trkpt>
      <trkpt lat="46.54063" lon="6.10208">
        <ele>1204.3</ele>
        <time>2024-05-10T11:28:39Z</time>
      </trkpt>
      <trkpt lat="46.54032" lon="6.10222">
        <ele>1206.5</ele>
        <time>2024-05-10T11:28:50Z</time>
      </trkpt>
      <trkpt lat="46.54002" lon="6.10234">
        <ele>1208.5</ele>
        <time>2024-05-10T11:29:00Z</time>
      </trkpt>
      <trkpt lat="46.53972" lon="6.10244">
        <ele>1210.6</ele>
        <time>2024-05-10T11:29:11Z</time>
      </trkpt>
      <trkpt lat="46.53937" lon="6.1024">
        <ele>1211.7</ele>
        <time>2024-05-10T11:29:22Z</time>
      </trkpt>
      <trkpt lat="46.53892" lon="6.10213">
        <ele>1212.2</ele>
        <time>2024-05-10T11:29:32Z</time>
      </trkpt>
      <trkpt lat="46.53856" lon="6.10203">
        <ele>1214.8</ele>
        <time>2024-05-10T11:29:42Z</time>
      </trkpt>
      <trkpt lat="46.53829" lon="6.10164">
        <ele>1216</ele>
        <time>2024-05-10T11:29:53Z</time>
      </trkpt>
      <trkpt lat="46.53779" lon="6.10142">
        <ele>1213.9</ele>
        <time>2024-05-10T11:30:04Z</time>
      </trkpt>
      <trkpt lat="46.53718" lon="6.10156">
        <ele>1213.9</ele>
        <time>2024-05-10T11:30:15Z</time>
      </trkpt>
      <trkpt lat="46.5368" lon="6.10175">
        <ele>1216.4</ele>
        <time>2024-05-10T11:30:25Z</time>
      </trkpt>
      <trkpt lat="46.53637" lon="6.10185">
        <ele>1216.6</ele>
        <time>2024-05-10T11:30:36Z</time>
      </trkpt>
      <trkpt lat="46.53598" lon="6.10158">
        <ele>1218.9</ele>
        <time>2024-05-10T11:30:46Z</time>
      </trkpt>
      <trkpt lat="46.53579" lon="6.10124">
        <ele>1220.6</ele>
        <time>2024-05-10T11:30:56Z</time>
      </trkpt>
      <trkpt lat="46.53559" lon="6.10089">
        <ele>1222.3</ele>
        <time>2024-05-10T11:31:07Z</time>
      </trkpt>
      <trkpt lat="46.53529" lon="6.10067">
        <ele>1225</ele>
        <time>2024-05-10T11:31:18Z</time>
      </trkpt>
      <trkpt lat="46.53498" lon="6.10072">
        <ele>1227.6</ele>
        <time>2024-05-10T11:31:29Z</time>
      </trkpt>
      <trkpt lat="46.53465" lon="6.10085">
        <ele>1229</ele>
        <time>2024-05-10T11:31:40Z</time>
      </trkpt>
      <trkpt lat="46.53419" lon="6.10087">
        <ele>1228.4</ele>
        <time>2024-05-10T11:31:50Z</time>
      </trkpt>
      <trkpt lat="46.53375" lon="6.10039">
        <ele>1226.7</ele>
        <time>2024-05-10T11:32:01Z</time>
      </trkpt>
      <trkpt lat="46.53343" lon="6.09959">
        <ele>1226.1</ele>
        <time>2024-05-10T11:32:12Z</time>
      </trkpt>
      <trkpt lat="46.53315" lon="6.099">
        <ele>1228.4</ele>
        <time>2024-05-10T11:32:22Z</time>
      </trkpt>
      <trkpt lat="46.53299" lon="6.09864">
        <ele>1230</ele>
        <time>2024-05-10T11:32:32Z</time>
      </trkpt>
      <trkpt lat="46.53275" lon="6.09814">
        <ele>1231.3</ele>
        <time>2024-05-10T11:32:42Z</time>
      </trkpt>
      <trkpt lat="46.53252" lon="6.09764">
        <ele>1232.9</ele>
        <time>2024-05-10T11:32:52Z</time>
      </trkpt>
      <trkpt lat="46.5323" lon="6.09728">
        <ele>1234.1</ele>
        <time>2024-05-10T11:33:02Z</time>
      </trkpt>
      <trkpt lat="46.53203" lon="6.09685">
        <ele>1235.8</ele>
        <time>2024-05-10T11:33:13Z</time>
      </trkpt>
      <trkpt lat="46.53184" lon="6.09659">
        <ele>1237.4</ele>
        <time>2024-05-10T11:33:24Z</time>
      </trkpt>
      <trkpt lat="46.53156" lon="6.09623">
        <ele>1238.2</ele>
        <time>2024-05-10T11:33:34Z</time>
      </trkpt>
      <trkpt lat="46.5313" lon="6.09585">
        <ele>1239.3</ele>
        <time>2024-05-10T11:33:45Z</time>
      </trkpt>
      <trkpt lat="46.53108" lon="6.09548">
        <ele>1240.8</ele>
        <time>2024-05-10T11:33:56Z</time>
      </trkpt>
      <trkpt lat="46.53086" lon="6.09514">
        <ele>1242.3</ele>
        <time>2024-05-10T11:34:07Z</time>
      </trkpt>
      <trkpt lat="46.53058" lon="6.09491">
        <ele>1244.1</ele>
        <time>2024-05-10T11:34:18Z</time>
      </trkpt>
      <trkpt lat="46.53039" lon="6.09474">
        <ele>1245.9</ele>
        <time>2024-05-10T11:34:28Z</time>
      </trkpt>
      <trkpt lat="46.53021" lon="6.09461">
        <ele>1248.1</ele>
        <time>2024-05-10T11:34:39Z</time>
      </trkpt>
      <trkpt lat="46.53003" lon="6.09446">
        <ele>1250.2</ele>
        <time>2024-05-10T11:34:50Z</time>
      </trkpt>
      <trkpt lat="46.52982" lon="6.09429">
        <ele>1251.9</ele>
        <time>2024-05-10T11:35:01Z</time>
      </trkpt>
      <trkpt lat="46.52964" lon="6.09407">
        <ele>1253.4</ele>
        <time>2024-05-10T11:35:11Z</time>
      </trkpt>
      <trkpt lat="46.52945" lon="6.09385">
        <ele>1255.1</ele>
        <time>2024-05-10T11:35:22Z</time>
      </trkpt>
      <trkpt lat="46.52926" lon="6.09367">
        <ele>1257.2</ele>
        <time>2024-05-10T11:35:32Z</time>
      </trkpt>
      <trkpt lat="46.52905" lon="6.09358">
        <ele>1259.1</ele>
        <time>2024-05-10T11:35:42Z</time>
      </trkpt>
      <trkpt lat="46.529" lon="6.09359">
        <ele>1259.8</ele>
        <time>2024-05-10T11:35:53Z</time>
      </trkpt>
      <trkpt lat="46.529" lon="6.09359">
        <ele>1259.8</ele>
        <time>2024-05-10T11:36:04Z</time>
      </trkpt>
      <trkpt lat="46.529" lon="6.09359">
        <ele>1259.8</ele>
        <time>2024-05-10T11:36:14Z</time>
      </trkpt>
      <trkpt lat="46.529" lon="6.09359">
        <ele>1259.8</ele>
        <time>2024-05-10T11:36:25Z</time>
      </trkpt>
      <trkpt lat="46.529" lon="6.09359">
        <ele>1259.8</ele>
        <time>2024-05-10T11:36:35Z</time>
      </trkpt>
      <trkpt lat="46.52899" lon="6.09352">
        <ele>1259.4</ele>
        <time>2024-05-10T11:36:45Z</time>
      </trkpt>
      <trkpt lat="46.52899" lon="6.09351">
        <ele>1259.3</ele>
        <time>2024-05-10T11:36:55Z</time>
      </trkpt>
      <trkpt lat="46.52899" lon="6.09351">
        <ele>1259.3</ele>
        <time>2024-05-10T11:37:06Z</time>
      </trkpt>
      <trkpt lat="46.52899" lon="6.0935">
        <ele>1259.3</ele>
        <time>2024-05-10T11:37:16Z</time>
      </trkpt>
      <trkpt lat="46.52899" lon="6.0935">
        <ele>1259.3</ele>
        <time>2024-05-10T11:37:27Z</time>
      </trkpt>
      <trkpt lat="46.52899" lon="6.0935">
        <ele>1259.3</ele>
        <time>2024-05-10T11:37:38Z</time>
      </trkpt>
      <trkpt lat="46.52899" lon="6.0935">
        <ele>1259.3</ele>
        <time>2024-05-10T11:37:48Z</time>
      </trkpt>
      <trkpt lat="46.52897" lon="6.09353">
        <ele>1259.1</ele>
        <time>2024-05-10T11:37:59Z</time>
      </trkpt>
      <trkpt lat="46.52897" lon="6.09353">
        <ele>1259.1</ele>
        <time>2024-05-10T11:38:09Z</time>
      </trkpt>
      <trkpt lat="46.52897" lon="6.09353">
        <ele>1259.1</ele>
        <time>2024-05-10T11:38:20Z</time>
      </trkpt>
      <trkpt lat="46.52886" lon="6.09331">
        <ele>1257.6</ele>
        <time>2024-05-10T11:38:31Z</time>
      </trkpt>
      <trkpt lat="46.52854" lon="6.09234">
        <ele>1251.6</ele>
        <time>2024-05-10T11:38:42Z</time>
      </trkpt>
      <trkpt lat="46.52796" lon="6.09136">
        <ele>1250.5</ele>
        <time>2024-05-10T11:38:52Z</time>
      </trkpt>
      <trkpt lat="46.52732" lon="6.09074">
        <ele>1247.7</ele>
        <time>2024-05-10T11:39:03Z</time>
      </trkpt>
      <trkpt lat="46.52658" lon="6.08976">
        <ele>1238.8</ele>
        <time>2024-05-10T11:39:14Z</time>
      </trkpt>
      <trkpt lat="46.52623" lon="6.08925">
        <ele>1236.8</ele>
        <time>2024-05-10T11:39:25Z</time>
      </trkpt>
      <trkpt lat="46.52624" lon="6.08924">
        <ele>1236.8</ele>
        <time>2024-05-10T11:39:35Z</time>
      </trkpt>
      <trkpt lat="46.52625" lon="6.08924">
        <ele>1236.8</ele>
        <time>2024-05-10T11:39:46Z</time>
      </trkpt>
      <trkpt lat="46.52626" lon="6.08923">
        <ele>1236.8</ele>
        <time>2024-05-10T11:39:57Z</time>
      </trkpt>
      <trkpt lat="46.52626" lon="6.08924">
        <ele>1236.8</ele>
        <time>2024-05-10T11:40:07Z</time>
      </trkpt>
      <trkpt lat="46.52626" lon="6.08924">
        <ele>1236.8</ele>
        <time>2024-05-10T11:40:18Z</time>
      </trkpt>
      <trkpt lat="46.52626" lon="6.08924">
        <ele>1236.8</ele>
        <time>2024-05-10T11:40:28Z</time>
      </trkpt>
      <trkpt lat="46.52623" lon="6.08921">
        <ele>1236.8</ele>
        <time>2024-05-10T11:40:38Z</time>
      </trkpt>
      <trkpt lat="46.52612" lon="6.0893">
        <ele>1237.3</ele>
        <time>2024-05-10T11:40:49Z</time>
      </trkpt>
      <trkpt lat="46.52585" lon="6.08906">
        <ele>1238.6</ele>
        <time>2024-05-10T11:40:59Z</time>
      </trkpt>
      <trkpt lat="46.52558" lon="6.08864">
        <ele>1238.8</ele>
        <time>2024-05-10T11:41:09Z</time>
      </trkpt>
      <trkpt lat="46.52519" lon="6.08815">
        <ele>1238.3</ele>
        <time>2024-05-10T11:41:20Z</time>
      </trkpt>
      <trkpt lat="46.52483" lon="6.08775">
        <ele>1240.3</ele>
        <time>2024-05-10T11:41:30Z</time>
      </trkpt>
      <trkpt lat="46.52466" lon="6.08746">
        <ele>1242.8</ele>
        <time>2024-05-10T11:41:40Z</time>
      </trkpt>
      <trkpt lat="46.52447" lon="6.08712">
        <ele>1245.5</ele>
        <time>2024-05-10T11:41:51Z</time>
      </trkpt>
      <trkpt lat="46.52436" lon="6.08666">
        <ele>1246.6</ele>
        <time>2024-05-10T11:42:02Z</time>
      </trkpt>
      <trkpt lat="46.52417" lon="6.08624">
        <ele>1248.2</ele>
        <time>2024-05-10T11:42:13Z</time>
      </trkpt>
      <trkpt lat="46.52391" lon="6.08588">
        <ele>1248.6</ele>
        <time>2024-05-10T11:42:23Z</time>
      </trkpt>
      <trkpt lat="46.52345" lon="6.08543">
        <ele>1247</ele>
        <time>2024-05-10T11:42:34Z</time>
      </trkpt>
      <trkpt lat="46.52298" lon="6.08473">
        <ele>1246.2</ele>
        <time>2024-05-10T11:42:45Z</time>
      </trkpt>
      <trkpt lat="46.52255" lon="6.0842">
        <ele>1247.4</ele>
        <time>2024-05-10T11:42:55Z</time>
      </trkpt>
      <trkpt lat="46.52213" lon="6.08356">
        <ele>1245.3</ele>
        <time>2024-05-10T11:43:05Z</time>
      </trkpt>
      <trkpt lat="46.52148" lon="6.08302">
        <ele>1242.4</ele>
        <time>2024-05-10T11:43:16Z</time>
      </trkpt>
      <trkpt lat="46.5212" lon="6.08239">
        <ele>1238.7</ele>
        <time>2024-05-10T11:43:26Z</time>
      </trkpt>
      <trkpt lat="46.52062" lon="6.08192">
        <ele>1234.2</ele>
        <time>2024-05-10T11:43:37Z</time>
      </trkpt>
      <trkpt lat="46.52028" lon="6.08099">
        <ele>1235.2</ele>
        <time>2024-05-10T11:43:48Z</time>
      </trkpt>
      <trkpt lat="46.51985" lon="6.08036">
        <ele>1236</ele>
        <time>2024-05-10T11:43:59Z</time>
      </trkpt>
      <trkpt lat="46.51942" lon="6.07976">
        <ele>1235.2</ele>
        <time>2024-05-10T11:44:09Z</time>
      </trkpt>
      <trkpt lat="46.51901" lon="6.07908">
        <ele>1237.8</ele>
        <time>2024-05-10T11:44:20Z</time>
      </trkpt>
      <trkpt lat="46.51889" lon="6.07877">
        <ele>1240.1</ele>
        <time>2024-05-10T11:44:30Z</time>
      </trkpt>
      <trkpt lat="46.51884" lon="6.07841">
        <ele>1242</ele>
        <time>2024-05-10T11:44:41Z</time>
      </trkpt>
      <trkpt lat="46.51867" lon="6.07811">
        <ele>1243.4</ele>
        <time>2024-05-10T11:44:52Z</time>
      </trkpt>
      <trkpt lat="46.5184" lon="6.07816">
        <ele>1244.7</ele>
        <time>2024-05-10T11:45:02Z</time>
      </trkpt>
      <trkpt lat="46.51823" lon="6.07859">
        <ele>1246.6</ele>
        <time>2024-05-10T11:45:13Z</time>
      </trkpt>
      <trkpt lat="46.51806" lon="6.07889">
        <ele>1248.1</ele>
        <time>2024-05-10T11:45:23Z</time>
      </trkpt>
      <trkpt lat="46.51779" lon="6.07894">
        <ele>1249.6</ele>
        <time>2024-05-10T11:45:34Z</time>
      </trkpt>
      <trkpt lat="46.51752" lon="6.07879">
        <ele>1250.9</ele>
        <time>2024-05-10T11:45:44Z</time>
      </trkpt>
      <trkpt lat="46.51725" lon="6.07861">
        <ele>1252.9</ele>
        <time>2024-05-10T11:45:55Z</time>
      </trkpt>
      <trkpt lat="46.51704" lon="6.07849">
        <ele>1255.2</ele>
        <time>2024-05-10T11:46:05Z</time>
      </trkpt>
      <trkpt lat="46.51686" lon="6.07834">
        <ele>1257.6</ele>
        <time>2024-05-10T11:46:15Z</time>
      </trkpt>
      <trkpt lat="46.51667" lon="6.0782">
        <ele>1259.7</ele>
        <time>2024-05-10T11:46:26Z</time>
      </trkpt>
      <trkpt lat="46.51647" lon="6.0781">
        <ele>1261.8</ele>
        <time>2024-05-10T11:46:37Z</time>
      </trkpt>
      <trkpt lat="46.51627" lon="6.07806">
        <ele>1264.3</ele>
        <time>2024-05-10T11:46:47Z</time>
      </trkpt>
      <trkpt lat="46.51615" lon="6.07827">
        <ele>1267.2</ele>
        <time>2024-05-10T11:46:58Z</time>
      </trkpt>
      <trkpt lat="46.51616" lon="6.07863">
        <ele>1269.5</ele>
        <time>2024-05-10T11:47:09Z</time>
      </trkpt>
      <trkpt lat="46.51607" lon="6.07901">
        <ele>1270.9</ele>
        <time>2024-05-10T11:47:20Z</time>
      </trkpt>
      <trkpt lat="46.51596" lon="6.07935">
        <ele>1272</ele>
        <time>2024-05-10T11:47:30Z</time>
      </trkpt>
      <trkpt lat="46.51579" lon="6.07975">
        <ele>1272.8</ele>
        <time>2024-05-10T11:47:41Z</time>
      </trkpt>
      <trkpt lat="46.51543" lon="6.07986">
        <ele>1273.1</ele>
        <time>2024-05-10T11:47:52Z</time>
      </trkpt>
      <trkpt lat="46.51486" lon="6.0794">
        <ele>1272.2</ele>
        <time>2024-05-10T11:48:03Z</time>
      </trkpt>
      <trkpt lat="46.51455" lon="6.07897">
        <ele>1274</ele>
        <time>2024-05-10T11:48:13Z</time>
      </trkpt>
      <trkpt lat="46.51411" lon="6.07856">
        <ele>1274.4</ele>
        <time>2024-05-10T11:48:24Z</time>
      </trkpt>
      <trkpt lat="46.51383" lon="6.07812">
        <ele>1276.2</ele>
        <time>2024-05-10T11:48:34Z</time>
      </trkpt>
      <trkpt lat="46.51367" lon="6.07761">
        <ele>1276.7</ele>
        <time>2024-05-10T11:48:45Z</time>
      </trkpt>
      <trkpt lat="46.51343" lon="6.07717">
        <ele>1276.3</ele>
        <time>2024-05-10T11:48:55Z</time>
      </trkpt>
      <trkpt lat="46.51314" lon="6.07652">
        <ele>1276.6</ele>
        <time>2024-05-10T11:49:05Z</time>
      </trkpt>
      <trkpt lat="46.51288" lon="6.07619">
        <ele>1275.9</ele>
        <time>2024-05-10T11:49:16Z</time>
      </trkpt>
      <trkpt lat="46.51288" lon="6.07619">
        <ele>1275.9</ele>
        <time>2024-05-10T11:49:26Z</time>
      </trkpt>
      <trkpt lat="46.51288" lon="6.07619">
        <ele>1275.9</ele>
        <time>2024-05-10T11:49:37Z</time>
      </trkpt>
      <trkpt lat="46.51249" lon="6.07617">
        <ele>1274.2</ele>
        <time>2024-05-10T11:49:48Z</time>
      </trkpt>
      <trkpt lat="46.51213" lon="6.07575">
        <ele>1275.8</ele>
        <time>2024-05-10T11:49:59Z</time>
      </trkpt>
      <trkpt lat="46.512" lon="6.07519">
        <ele>1277.5</ele>
        <time>2024-05-10T11:50:09Z</time>
      </trkpt>
      <trkpt lat="46.51183" lon="6.07482">
        <ele>1279.8</ele>
        <time>2024-05-10T11:50:20Z</time>
      </trkpt>
      <trkpt lat="46.51153" lon="6.07439">
        <ele>1279.8</ele>
        <time>2024-05-10T11:50:31Z</time>
      </trkpt>
      <trkpt lat="46.5111" lon="6.07385">
        <ele>1275.4</ele>
        <time>2024-05-10T11:50:42Z</time>
      </trkpt>
      <trkpt lat="46.51046" lon="6.07293">
        <ele>1265.1</ele>
        <time>2024-05-10T11:50:53Z</time>
      </trkpt>
      <trkpt lat="46.5099" lon="6.07189">
        <ele>1259</ele>
        <time>2024-05-10T11:51:04Z</time>
      </trkpt>
      <trkpt lat="46.50967" lon="6.07133">
        <ele>1256.3</ele>
        <time>2024-05-10T11:51:14Z</time>
      </trkpt>
      <trkpt lat="46.50941" lon="6.07059">
        <ele>1256.1</ele>
        <time>2024-05-10T11:51:25Z</time>
      </trkpt>
      <trkpt lat="46.50915" lon="6.07042">
        <ele>1256.9</ele>
        <time>2024-05-10T11:51:36Z</time>
      </trkpt>
      <trkpt lat="46.50867" lon="6.07004">
        <ele>1253.9</ele>
        <time>2024-05-10T11:51:46Z</time>
      </trkpt>
      <trkpt lat="46.50811" lon="6.06932">
        <ele>1248.8</ele>
        <time>2024-05-10T11:51:56Z</time>
      </trkpt>
      <trkpt lat="46.50749" lon="6.06807">
        <ele>1243.4</ele>
        <time>2024-05-10T11:52:07Z</time>
      </trkpt>
      <trkpt lat="46.50713" lon="6.06688">
        <ele>1243.9</ele>
        <time>2024-05-10T11:52:18Z</time>
      </trkpt>
      <trkpt lat="46.50668" lon="6.06611">
        <ele>1243.3</ele>
        <time>2024-05-10T11:52:28Z</time>
      </trkpt>
      <trkpt lat="46.5063" lon="6.0651">
        <ele>1242.7</ele>
        <time>2024-05-10T11:52:39Z</time>
      </trkpt>
      <trkpt lat="46.5058" lon="6.06438">
        <ele>1243.1</ele>
        <time>2024-05-10T11:52:49Z</time>
      </trkpt>
      <trkpt lat="46.50552" lon="6.06388">
        <ele>1242.8</ele>
        <time>2024-05-10T11:52:59Z</time>
      </trkpt>
      <trkpt lat="46.505" lon="6.06349">
        <ele>1238.4</ele>
        <time>2024-05-10T11:53:10Z</time>
      </trkpt>
      <trkpt lat="46.50432" lon="6.06337">
        <ele>1238.5</ele>
        <time>2024-05-10T11:53:20Z</time>
      </trkpt>
      <trkpt lat="46.50394" lon="6.06386">
        <ele>1237.6</ele>
        <time>2024-05-10T11:53:31Z</time>
      </trkpt>
      <trkpt lat="46.5033" lon="6.06391">
        <ele>1232.3</ele>
        <time>2024-05-10T11:53:41Z</time>
      </trkpt>
      <trkpt lat="46.50296" lon="6.06472">
        <ele>1230.9</ele>
        <time>2024-05-10T11:53:52Z</time>
      </trkpt>
      <trkpt lat="46.50321" lon="6.06538">
        <ele>1232</ele>
        <time>2024-05-10T11:54:02Z</time>
      </trkpt>
      <trkpt lat="46.50338" lon="6.0662">
        <ele>1233.2</ele>
        <time>2024-05-10T11:54:13Z</time>
      </trkpt>
      <trkpt lat="46.50345" lon="6.06691">
        <ele>1232.5</ele>
        <time>2024-05-10T11:54:23Z</time>
      </trkpt>
      <trkpt lat="46.50324" lon="6.06768">
        <ele>1230.4</ele>
        <time>2024-05-10T11:54:34Z</time>
      </trkpt>
      <trkpt lat="46.50252" lon="6.06841">
        <ele>1224.7</ele>
        <time>2024-05-10T11:54:45Z</time>
      </trkpt>
      <trkpt lat="46.50161" lon="6.06793">
        <ele>1217.8</ele>
        <time>2024-05-10T11:54:55Z</time>
      </trkpt>
      <trkpt lat="46.50047" lon="6.06731">
        <ele>1210.6</ele>
        <time>2024-05-10T11:55:06Z</time>
      </trkpt>
      <trkpt lat="46.49963" lon="6.06709">
        <ele>1205.7</ele>
        <time>2024-05-10T11:55:17Z</time>
      </trkpt>
      <trkpt lat="46.49874" lon="6.06691">
        <ele>1198.3</ele>
        <time>2024-05-10T11:55:28Z</time>
      </trkpt>
      <trkpt lat="46.49795" lon="6.06779">
        <ele>1189.6</ele>
        <time>2024-05-10T11:55:39Z</time>
      </trkpt>
      <trkpt lat="46.49708" lon="6.06653">
        <ele>1176.6</ele>
        <time>2024-05-10T11:55:50Z</time>
      </trkpt>
      <trkpt lat="46.49591" lon="6.0657">
        <ele>1163</ele>
        <time>2024-05-10T11:56:01Z</time>
      </trkpt>
      <trkpt lat="46.49508" lon="6.0647">
        <ele>1150.8</ele>
        <time>2024-05-10T11:56:11Z</time>
      </trkpt>
      <trkpt lat="46.49412" lon="6.06308">
        <ele>1134.7</ele>
        <time>2024-05-10T11:56:22Z</time>
      </trkpt>
      <trkpt lat="46.49315" lon="6.06162">
        <ele>1121.3</ele>
        <time>2024-05-10T11:56:32Z</time>
      </trkpt>
      <trkpt lat="46.49243" lon="6.05984">
        <ele>1109.3</ele>
        <time>2024-05-10T11:56:43Z</time>
      </trkpt>
      <trkpt lat="46.49173" lon="6.05896">
        <ele>1102</ele>
        <time>2024-05-10T11:56:53Z</time>
      </trkpt>
      <trkpt lat="46.49113" lon="6.0599">
        <ele>1096</ele>
        <time>2024-05-10T11:57:04Z</time>
      </trkpt>
      <trkpt lat="46.49083" lon="6.05984">
        <ele>1095.4</ele>
        <time>2024-05-10T11:57:14Z</time>
      </trkpt>
      <trkpt lat="46.49067" lon="6.05949">
        <ele>1095.4</ele>
        <time>2024-05-10T11:57:25Z</time>
      </trkpt>
      <trkpt lat="46.49067" lon="6.05949">
        <ele>1095.4</ele>
        <time>2024-05-10T11:57:35Z</time>
      </trkpt>
      <trkpt lat="46.49067" lon="6.05949">
        <ele>1095.4</ele>
        <time>2024-05-10T11:57:46Z</time>
      </trkpt>
      <trkpt lat="46.49067" lon="6.05949">
        <ele>1095.4</ele>
        <time>2024-05-10T11:57:57Z</time>
      </trkpt>
      <trkpt lat="46.49067" lon="6.05949">
        <ele>1095.4</ele>
        <time>2024-05-10T11:58:08Z</time>
      </trkpt>
      <trkpt lat="46.49067" lon="6.05949">
        <ele>1095.4</ele>
        <time>2024-05-10T11:58:18Z</time>
      </trkpt>
      <trkpt lat="46.49067" lon="6.05949">
        <ele>1095.4</ele>
        <time>2024-05-10T11:58:29Z</time>
      </trkpt>
      <trkpt lat="46.49067" lon="6.05949">
        <ele>1095.4</ele>
        <time>2024-05-10T11:58:39Z</time>
      </trkpt>
      <trkpt lat="46.49067" lon="6.05949">
        <ele>1095.4</ele>
        <time>2024-05-10T11:58:49Z</time>
      </trkpt>
      <trkpt lat="46.49062" lon="6.0594">
        <ele>1095.4</ele>
        <time>2024-05-10T11:59:00Z</time>
      </trkpt>
      <trkpt lat="46.49034" lon="6.0589">
        <ele>1095.5</ele>
        <time>2024-05-10T11:59:11Z</time>
      </trkpt>
      <trkpt lat="46.49001" lon="6.05835">
        <ele>1094.9</ele>
        <time>2024-05-10T11:59:22Z</time>
      </trkpt>
      <trkpt lat="46.48951" lon="6.05771">
        <ele>1091.8</ele>
        <time>2024-05-10T11:59:33Z</time>
      </trkpt>
      <trkpt lat="46.48878" lon="6.05723">
        <ele>1086.2</ele>
        <time>2024-05-10T11:59:44Z</time>
      </trkpt>
      <trkpt lat="46.48871" lon="6.05643">
        <ele>1086</ele>
        <time>2024-05-10T11:59:54Z</time>
      </trkpt>
      <trkpt lat="46.48847" lon="6.05554">
        <ele>1085.2</ele>
        <time>2024-05-10T12:00:05Z</time>
      </trkpt>
      <trkpt lat="46.4885" lon="6.05463">
        <ele>1082.2</ele>
        <time>2024-05-10T12:00:15Z</time>
      </trkpt>
      <trkpt lat="46.48881" lon="6.05343">
        <ele>1079</ele>
        <time>2024-05-10T12:00:26Z</time>
      </trkpt>
      <trkpt lat="46.48888" lon="6.05234">
        <ele>1077.9</ele>
        <time>2024-05-10T12:00:36Z</time>
      </trkpt>
      <trkpt lat="46.48879" lon="6.0519">
        <ele>1078.7</ele>
        <time>2024-05-10T12:00:47Z</time>
      </trkpt>
      <trkpt lat="46.48879" lon="6.05188">
        <ele>1078.7</ele>
        <time>2024-05-10T12:00:57Z</time>
      </trkpt>
      <trkpt lat="46.48879" lon="6.05188">
        <ele>1078.7</ele>
        <time>2024-05-10T12:01:08Z</time>
      </trkpt>
      <trkpt lat="46.48879" lon="6.05188">
        <ele>1078.7</ele>
        <time>2024-05-10T12:01:18Z</time>
      </trkpt>
      <trkpt lat="46.48879" lon="6.05188">
        <ele>1078.7</ele>
        <time>2024-05-10T12:01:29Z</time>
      </trkpt>
      <trkpt lat="46.48879" lon="6.05188">
        <ele>1078.7</ele>
        <time>2024-05-10T12:01:39Z</time>
      </trkpt>
      <trkpt lat="46.48885" lon="6.05185">
        <ele>1079.1</ele>
        <time>2024-05-10T12:01:50Z</time>
      </trkpt>
      <trkpt lat="46.48893" lon="6.05148">
        <ele>1081.3</ele>
        <time>2024-05-10T12:02:00Z</time>
      </trkpt>
      <trkpt lat="46.4892" lon="6.05116">
        <ele>1082.7</ele>
        <time>2024-05-10T12:02:11Z</time>
      </trkpt>
      <trkpt lat="46.48957" lon="6.05076">
        <ele>1082.6</ele>
        <time>2024-05-10T12:02:22Z</time>
      </trkpt>
      <trkpt lat="46.48976" lon="6.05007">
        <ele>1081.4</ele>
        <time>2024-05-10T12:02:33Z</time>
      </trkpt>
      <trkpt lat="46.49025" lon="6.04929">
        <ele>1078.5</ele>
        <time>2024-05-10T12:02:44Z</time>
      </trkpt>
      <trkpt lat="46.49086" lon="6.04879">
        <ele>1073.8</ele>
        <time>2024-05-10T12:02:54Z</time>
      </trkpt>
      <trkpt lat="46.49163" lon="6.04839">
        <ele>1068.1</ele>
        <time>2024-05-10T12:03:05Z</time>
      </trkpt>
      <trkpt lat="46.49255" lon="6.04871">
        <ele>1062.8</ele>
        <time>2024-05-10T12:03:15Z</time>
      </trkpt>
      <trkpt lat="46.49344" lon="6.04916">
        <ele>1057.7</ele>
        <time>2024-05-10T12:03:25Z</time>
      </trkpt>
      <trkpt lat="46.49433" lon="6.04996">
        <ele>1050.6</ele>
        <time>2024-05-10T12:03:36Z</time>
      </trkpt>
      <trkpt lat="46.49531" lon="6.05022">
        <ele>1043.3</ele>
        <time>2024-05-10T12:03:46Z</time>
      </trkpt>
      <trkpt lat="46.49573" lon="6.04894">
        <ele>1037.1</ele>
        <time>2024-05-10T12:03:57Z</time>
      </trkpt>
      <trkpt lat="46.4962" lon="6.04801">
        <ele>1037.3</ele>
        <time>2024-05-10T12:04:07Z</time>
      </trkpt>
      <trkpt lat="46.49626" lon="6.04707">
        <ele>1039.4</ele>
        <time>2024-05-10T12:04:18Z</time>
      </trkpt>
      <trkpt lat="46.4963" lon="6.04632">
        <ele>1041.6</ele>
        <time>2024-05-10T12:04:29Z</time>
      </trkpt>
      <trkpt lat="46.49644" lon="6.04574">
        <ele>1044.8</ele>
        <time>2024-05-10T12:04:40Z</time>
      </trkpt>
      <trkpt lat="46.49647" lon="6.04528">
        <ele>1048</ele>
        <time>2024-05-10T12:04:51Z</time>
      </trkpt>
      <trkpt lat="46.4965" lon="6.04495">
        <ele>1050.8</ele>
        <time>2024-05-10T12:05:01Z</time>
      </trkpt>
      <trkpt lat="46.49668" lon="6.04468">
        <ele>1053.2</ele>
        <time>2024-05-10T12:05:12Z</time>
      </trkpt>
      <trkpt lat="46.49701" lon="6.04425">
        <ele>1052.4</ele>
        <time>2024-05-10T12:05:23Z</time>
      </trkpt>
      <trkpt lat="46.49759" lon="6.04353">
        <ele>1046.5</ele>
        <time>2024-05-10T12:05:34Z</time>
      </trkpt>
      <trkpt lat="46.49863" lon="6.0429">
        <ele>1037</ele>
        <time>2024-05-10T12:05:45Z</time>
      </trkpt>
      <trkpt lat="46.49956" lon="6.04234">
        <ele>1034.1</ele>
        <time>2024-05-10T12:05:55Z</time>
      </trkpt>
      <trkpt lat="46.50046" lon="6.04193">
        <ele>1032.9</ele>
        <time>2024-05-10T12:06:06Z</time>
      </trkpt>
      <trkpt lat="46.50095" lon="6.04133">
        <ele>1036.3</ele>
        <time>2024-05-10T12:06:16Z</time>
      </trkpt>
      <trkpt lat="46.50137" lon="6.04086">
        <ele>1039.4</ele>
        <time>2024-05-10T12:06:27Z</time>
      </trkpt>
      <trkpt lat="46.50174" lon="6.04041">
        <ele>1041</ele>
        <time>2024-05-10T12:06:38Z</time>
      </trkpt>
      <trkpt lat="46.50224" lon="6.04012">
        <ele>1040</ele>
        <time>2024-05-10T12:06:48Z</time>
      </trkpt>
      <trkpt lat="46.50304" lon="6.03979">
        <ele>1035.6</ele>
        <time>2024-05-10T12:06:59Z</time>
      </trkpt>
      <trkpt lat="46.50386" lon="6.03918">
        <ele>1031.9</ele>
        <time>2024-05-10T12:07:09Z</time>
      </trkpt>
      <trkpt lat="46.50469" lon="6.03851">
        <ele>1027.6</ele>
        <time>2024-05-10T12:07:20Z</time>
      </trkpt>
      <trkpt lat="46.50493" lon="6.03832">
        <ele>1028</ele>
        <time>2024-05-10T12:07:30Z</time>
      </trkpt>
      <trkpt lat="46.50493" lon="6.03832">
        <ele>1028</ele>
        <time>2024-05-10T12:07:41Z</time>
      </trkpt>
      <trkpt lat="46.50493" lon="6.03832">
        <ele>1028</ele>
        <time>2024-05-10T12:07:51Z</time>
      </trkpt>
      <trkpt lat="46.50493" lon="6.03832">
        <ele>1028</ele>
        <time>2024-05-10T12:08:02Z</time>
      </trkpt>
      <trkpt lat="46.50495" lon="6.03831">
        <ele>1028</ele>
        <time>2024-05-10T12:08:13Z</time>
      </trkpt>
      <trkpt lat="46.50531" lon="6.0384">
        <ele>1029.1</ele>
        <time>2024-05-10T12:08:24Z</time>
      </trkpt>
      <trkpt lat="46.5057" lon="6.03851">
        <ele>1031.4</ele>
        <time>2024-05-10T12:08:35Z</time>
      </trkpt>
      <trkpt lat="46.50609" lon="6.03854">
        <ele>1033</ele>
        <time>2024-05-10T12:08:45Z</time>
      </trkpt>
      <trkpt lat="46.50647" lon="6.03854">
        <ele>1033.8</ele>
        <time>2024-05-10T12:08:55Z</time>
      </trkpt>
      <trkpt lat="46.50692" lon="6.03854">
        <ele>1034.5</ele>
        <time>2024-05-10T12:09:06Z</time>
      </trkpt>
      <trkpt lat="46.50742" lon="6.0386">
        <ele>1035.1</ele>
        <time>2024-05-10T12:09:17Z</time>
      </trkpt>
      <trkpt lat="46.50789" lon="6.03871">
        <ele>1035.9</ele>
        <time>2024-05-10T12:09:27Z</time>
      </trkpt>
      <trkpt lat="46.50831" lon="6.03877">
        <ele>1038.6</ele>
        <time>2024-05-10T12:09:38Z</time>
      </trkpt>
      <trkpt lat="46.50868" lon="6.03869">
        <ele>1041.1</ele>
        <time>2024-05-10T12:09:49Z</time>
      </trkpt>
      <trkpt lat="46.50899" lon="6.03861">
        <ele>1043.4</ele>
        <time>2024-05-10T12:09:59Z</time>
      </trkpt>
      <trkpt lat="46.50933" lon="6.03851">
        <ele>1045.7</ele>
        <time>2024-05-10T12:10:10Z</time>
      </trkpt>
      <trkpt lat="46.50965" lon="6.03843">
        <ele>1047.3</ele>
        <time>2024-05-10T12:10:21Z</time>
      </trkpt>
      <trkpt lat="46.51004" lon="6.03845">
        <ele>1045.4</ele>
        <time>2024-05-10T12:10:32Z</time>
      </trkpt>
      <trkpt lat="46.51052" lon="6.03827">
        <ele>1042.9</ele>
        <time>2024-05-10T12:10:42Z</time>
      </trkpt>
      <trkpt lat="46.5109" lon="6.03779">
        <ele>1040.5</ele>
        <time>2024-05-10T12:10:53Z</time>
      </trkpt>
      <trkpt lat="46.51122" lon="6.03737">
        <ele>1036.3</ele>
        <time>2024-05-10T12:11:03Z</time>
      </trkpt>
      <trkpt lat="46.51147" lon="6.03684">
        <ele>1033.7</ele>
        <time>2024-05-10T12:11:13Z</time>
      </trkpt>
      <trkpt lat="46.51196" lon="6.03655">
        <ele>1031.3</ele>
        <time>2024-05-10T12:11:24Z</time>
      </trkpt>
      <trkpt lat="46.51205" lon="6.03653">
        <ele>1031.5</ele>
        <time>2024-05-10T12:11:35Z</time>
      </trkpt>
      <trkpt lat="46.51206" lon="6.03651">
        <ele>1031.6</ele>
        <time>2024-05-10T12:11:45Z</time>
      </trkpt>
      <trkpt lat="46.51175" lon="6.03663">
        <ele>1032.5</ele>
        <time>2024-05-10T12:11:55Z</time>
      </trkpt>
      <trkpt lat="46.51129" lon="6.03701">
        <ele>1034.9</ele>
        <time>2024-05-10T12:12:06Z</time>
      </trkpt>
      <trkpt lat="46.51113" lon="6.03756">
        <ele>1037.7</ele>
        <time>2024-05-10T12:12:16Z</time>
      </trkpt>
      <trkpt lat="46.51091" lon="6.03779">
        <ele>1039.5</ele>
        <time>2024-05-10T12:12:27Z</time>
      </trkpt>
      <trkpt lat="46.51072" lon="6.03802">
        <ele>1040.9</ele>
        <time>2024-05-10T12:12:37Z</time>
      </trkpt>
      <trkpt lat="46.51057" lon="6.03824">
        <ele>1042</ele>
        <time>2024-05-10T12:12:47Z</time>
      </trkpt>
      <trkpt lat="46.51057" lon="6.03823">
        <ele>1042</ele>
        <time>2024-05-10T12:12:57Z</time>
      </trkpt>
      <trkpt lat="46.51057" lon="6.03825">
        <ele>1042</ele>
        <time>2024-05-10T12:13:07Z</time>
      </trkpt>
      <trkpt lat="46.51067" lon="6.03825">
        <ele>1042.4</ele>
        <time>2024-05-10T12:13:18Z</time>
      </trkpt>
      <trkpt lat="46.51075" lon="6.0382">
        <ele>1042.7</ele>
        <time>2024-05-10T12:13:29Z</time>
      </trkpt>
      <trkpt lat="46.51075" lon="6.0382">
        <ele>1042.7</ele>
        <time>2024-05-10T12:13:40Z</time>
      </trkpt>
      <trkpt lat="46.51093" lon="6.03794">
        <ele>1040.9</ele>
        <time>2024-05-10T12:13:51Z</time>
      </trkpt>
      <trkpt lat="46.51123" lon="6.03769">
        <ele>1037.4</ele>
        <time>2024-05-10T12:14:01Z</time>
      </trkpt>
      <trkpt lat="46.51151" lon="6.03726">
        <ele>1033.5</ele>
        <time>2024-05-10T12:14:12Z</time>
      </trkpt>
      <trkpt lat="46.5117" lon="6.03713">
        <ele>1032</ele>
        <time>2024-05-10T12:14:22Z</time>
      </trkpt>
      <trkpt lat="46.51175" lon="6.03713">
        <ele>1031.7</ele>
        <time>2024-05-10T12:14:33Z</time>
      </trkpt>
      <trkpt lat="46.51181" lon="6.03711">
        <ele>1031.3</ele>
        <time>2024-05-10T12:14:44Z</time>
      </trkpt>
      <trkpt lat="46.51212" lon="6.03704">
        <ele>1028.8</ele>
        <time>2024-05-10T12:14:55Z</time>
      </trkpt>
      <trkpt lat="46.51248" lon="6.03693">
        <ele>1025.4</ele>
        <time>2024-05-10T12:15:05Z</time>
      </trkpt>
      <trkpt lat="46.51288" lon="6.03683">
        <ele>1021.9</ele>
        <time>2024-05-10T12:15:15Z</time>
      </trkpt>
      <trkpt lat="46.51313" lon="6.03687">
        <ele>1019.3</ele>
        <time>2024-05-10T12:15:26Z</time>
      </trkpt>
      <trkpt lat="46.51321" lon="6.03684">
        <ele>1018.5</ele>
        <time>2024-05-10T12:15:36Z</time>
      </trkpt>
      <trkpt lat="46.51358" lon="6.03676">
        <ele>1013.6</ele>
        <time>2024-05-10T12:15:47Z</time>
      </trkpt>
      <trkpt lat="46.51403" lon="6.03663">
        <ele>1007.5</ele>
        <time>2024-05-10T12:15:57Z</time>
      </trkpt>
      <trkpt lat="46.51438" lon="6.03642">
        <ele>1003.5</ele>
        <time>2024-05-10T12:16:08Z</time>
      </trkpt>
      <trkpt lat="46.5147" lon="6.03625">
        <ele>1001</ele>
        <time>2024-05-10T12:16:18Z</time>
      </trkpt>
      <trkpt lat="46.51495" lon="6.03608">
        <ele>999.4</ele>
        <time>2024-05-10T12:16:28Z</time>
      </trkpt>
      <trkpt lat="46.51519" lon="6.03557">
        <ele>993.9</ele>
        <time>2024-05-10T12:16:39Z</time>
      </trkpt>
      <trkpt lat="46.51542" lon="6.03502">
        <ele>986.6</ele>
        <time>2024-05-10T12:16:49Z</time>
      </trkpt>
      <trkpt lat="46.51571" lon="6.03435">
        <ele>981.4</ele>
        <time>2024-05-10T12:17:00Z</time>
      </trkpt>
      <trkpt lat="46.51601" lon="6.03396">
        <ele>977.8</ele>
        <time>2024-05-10T12:17:10Z</time>
      </trkpt>
      <trkpt lat="46.51603" lon="6.03351">
        <ele>978.1</ele>
        <time>2024-05-10T12:17:20Z</time>
      </trkpt>
      <trkpt lat="46.51621" lon="6.0331">
        <ele>979.7</ele>
        <time>2024-05-10T12:17:31Z</time>
      </trkpt>
      <trkpt lat="46.51642" lon="6.03279">
        <ele>980.7</ele>
        <time>2024-05-10T12:17:41Z</time>
      </trkpt>
      <trkpt lat="46.51662" lon="6.03236">
        <ele>981.2</ele>
        <time>2024-05-10T12:17:52Z</time>
      </trkpt>
      <trkpt lat="46.51664" lon="6.032">
        <ele>982.9</ele>
        <time>2024-05-10T12:18:02Z</time>
      </trkpt>
      <trkpt lat="46.51668" lon="6.03181">
        <ele>984.3</ele>
        <time>2024-05-10T12:18:12Z</time>
      </trkpt>
      <trkpt lat="46.51669" lon="6.03181">
        <ele>984.4</ele>
        <time>2024-05-10T12:18:22Z</time>
      </trkpt>
      <trkpt lat="46.51665" lon="6.03175">
        <ele>985</ele>
        <time>2024-05-10T12:18:32Z</time>
      </trkpt>
      <trkpt lat="46.51661" lon="6.03172">
        <ele>985.3</ele>
        <time>2024-05-10T12:18:43Z</time>
      </trkpt>
      <trkpt lat="46.51643" lon="6.03165">
        <ele>985.3</ele>
        <time>2024-05-10T12:18:53Z</time>
      </trkpt>
      <trkpt lat="46.51617" lon="6.03145">
        <ele>983.9</ele>
        <time>2024-05-10T12:19:04Z</time>
      </trkpt>
      <trkpt lat="46.51602" lon="6.03093">
        <ele>981.2</ele>
        <time>2024-05-10T12:19:14Z</time>
      </trkpt>
      <trkpt lat="46.516" lon="6.03088">
        <ele>980.7</ele>
        <time>2024-05-10T12:19:25Z</time>
      </trkpt>
      <trkpt lat="46.516" lon="6.03088">
        <ele>980.7</ele>
        <time>2024-05-10T12:19:35Z</time>
      </trkpt>
      <trkpt lat="46.51611" lon="6.03078">
        <ele>977.9</ele>
        <time>2024-05-10T12:19:46Z</time>
      </trkpt>
      <trkpt lat="46.51616" lon="6.03076">
        <ele>976.5</ele>
        <time>2024-05-10T12:19:57Z</time>
      </trkpt>
      <trkpt lat="46.51616" lon="6.03076">
        <ele>976.5</ele>
        <time>2024-05-10T12:20:07Z</time>
      </trkpt>
      <trkpt lat="46.51616" lon="6.03076">
        <ele>976.5</ele>
        <time>2024-05-10T12:20:18Z</time>
      </trkpt>
      <trkpt lat="46.51616" lon="6.03076">
        <ele>976.5</ele>
        <time>2024-05-10T12:20:28Z</time>
      </trkpt>
      <trkpt lat="46.51616" lon="6.03076">
        <ele>976.5</ele>
        <time>2024-05-10T12:20:39Z</time>
      </trkpt>
      <trkpt lat="46.51616" lon="6.03076">
        <ele>976.5</ele>
        <time>2024-05-10T12:20:49Z</time>
      </trkpt>
      <trkpt lat="46.5162" lon="6.03076">
        <ele>975.4</ele>
        <time>2024-05-10T12:21:00Z</time>
      </trkpt>
      <trkpt lat="46.51629" lon="6.03073">
        <ele>972.6</ele>
        <time>2024-05-10T12:21:11Z</time>
      </trkpt>
      <trkpt lat="46.51641" lon="6.03076">
        <ele>969.1</ele>
        <time>2024-05-10T12:21:22Z</time>
      </trkpt>
      <trkpt lat="46.51644" lon="6.03075">
        <ele>968.4</ele>
        <time>2024-05-10T12:21:33Z</time>
      </trkpt>
      <trkpt lat="46.51646" lon="6.03076">
        <ele>967.9</ele>
        <time>2024-05-10T12:21:43Z</time>
      </trkpt>
      <trkpt lat="46.51661" lon="6.0308">
        <ele>964.2</ele>
        <time>2024-05-10T12:21:54Z</time>
      </trkpt>
      <trkpt lat="46.51672" lon="6.03085">
        <ele>962</ele>
        <time>2024-05-10T12:22:05Z</time>
      </trkpt>
      <trkpt lat="46.51688" lon="6.03089">
        <ele>959.4</ele>
        <time>2024-05-10T12:22:16Z</time>
      </trkpt>
      <trkpt lat="46.51704" lon="6.03087">
        <ele>956.6</ele>
        <time>2024-05-10T12:22:27Z</time>
      </trkpt>
      <trkpt lat="46.51724" lon="6.03083">
        <ele>951.4</ele>
        <time>2024-05-10T12:22:37Z</time>
      </trkpt>
      <trkpt lat="46.51743" lon="6.03082">
        <ele>946.1</ele>
        <time>2024-05-10T12:22:48Z</time>
      </trkpt>
      <trkpt lat="46.51761" lon="6.03083">
        <ele>941.6</ele>
        <time>2024-05-10T12:22:59Z</time>
      </trkpt>
      <trkpt lat="46.51783" lon="6.03081">
        <ele>935.9</ele>
        <time>2024-05-10T12:23:10Z</time>
      </trkpt>
      <trkpt lat="46.51811" lon="6.03082">
        <ele>928.9</ele>
        <time>2024-05-10T12:23:20Z</time>
      </trkpt>
      <trkpt lat="46.51826" lon="6.03089">
        <ele>925.7</ele>
        <time>2024-05-10T12:23:30Z</time>
      </trkpt>
      <trkpt lat="46.51834" lon="6.03092">
        <ele>924</ele>
        <time>2024-05-10T12:23:41Z</time>
      </trkpt>
      <trkpt lat="46.51848" lon="6.03093">
        <ele>921.2</ele>
        <time>2024-05-10T12:23:52Z</time>
      </trkpt>
      <trkpt lat="46.51876" lon="6.03086">
        <ele>914.6</ele>
        <time>2024-05-10T12:24:02Z</time>
      </trkpt>
      <trkpt lat="46.51907" lon="6.03083">
        <ele>906.5</ele>
        <time>2024-05-10T12:24:13Z</time>
      </trkpt>
      <trkpt lat="46.51935" lon="6.03085">
        <ele>900</ele>
        <time>2024-05-10T12:24:24Z</time>
      </trkpt>
      <trkpt lat="46.51935" lon="6.03085">
        <ele>899.9</ele>
        <time>2024-05-10T12:24:35Z</time>
      </trkpt>
      <trkpt lat="46.51935" lon="6.03085">
        <ele>899.9</ele>
        <time>2024-05-10T12:24:46Z</time>
      </trkpt>
      <trkpt lat="46.51935" lon="6.03085">
        <ele>899.9</ele>
        <time>2024-05-10T12:24:57Z</time>
      </trkpt>
      <trkpt lat="46.51947" lon="6.03086">
        <ele>897.2</ele>
        <time>2024-05-10T12:25:07Z</time>
      </trkpt>
      <trkpt lat="46.51986" lon="6.03083">
        <ele>887.9</ele>
        <time>2024-05-10T12:25:17Z</time>
      </trkpt>
      <trkpt lat="46.52026" lon="6.03085">
        <ele>878.9</ele>
        <time>2024-05-10T12:25:28Z</time>
      </trkpt>
      <trkpt lat="46.52053" lon="6.03085">
        <ele>873</ele>
        <time>2024-05-10T12:25:38Z</time>
      </trkpt>
      <trkpt lat="46.52078" lon="6.03046">
        <ele>863.1</ele>
        <time>2024-05-10T12:25:49Z</time>
      </trkpt>
      <trkpt lat="46.52077" lon="6.03043">
        <ele>863.2</ele>
        <time>2024-05-10T12:25:59Z</time>
      </trkpt>
      <trkpt lat="46.52084" lon="6.03051">
        <ele>863.6</ele>
        <time>2024-05-10T12:26:10Z</time>
      </trkpt>
      <trkpt lat="46.52111" lon="6.0306">
        <ele>864.6</ele>
        <time>2024-05-10T12:26:21Z</time>
      </trkpt>
      <trkpt lat="46.52132" lon="6.03052">
        <ele>865</ele>
        <time>2024-05-10T12:26:31Z</time>
      </trkpt>
      <trkpt lat="46.52161" lon="6.03017">
        <ele>862.3</ele>
        <time>2024-05-10T12:26:42Z</time>
      </trkpt>
      <trkpt lat="46.52217" lon="6.03029">
        <ele>859</ele>
        <time>2024-05-10T12:26:52Z</time>
      </trkpt>
      <trkpt lat="46.52287" lon="6.03006">
        <ele>856.4</ele>
        <time>2024-05-10T12:27:03Z</time>
      </trkpt>
      <trkpt lat="46.52343" lon="6.02962">
        <ele>854.1</ele>
        <time>2024-05-10T12:27:13Z</time>
      </trkpt>
      <trkpt lat="46.52388" lon="6.02884">
        <ele>849.2</ele>
        <time>2024-05-10T12:27:23Z</time>
      </trkpt>
      <trkpt lat="46.52333" lon="6.02863">
        <ele>843.5</ele>
        <time>2024-05-10T12:27:34Z</time>
      </trkpt>
      <trkpt lat="46.52305" lon="6.02898">
        <ele>842.4</ele>
        <time>2024-05-10T12:27:45Z</time>
      </trkpt>
      <trkpt lat="46.52262" lon="6.02953">
        <ele>839.3</ele>
        <time>2024-05-10T12:27:56Z</time>
      </trkpt>
      <trkpt lat="46.52223" lon="6.02875">
        <ele>831.9</ele>
        <time>2024-05-10T12:28:07Z</time>
      </trkpt>
      <trkpt lat="46.52214" lon="6.02766">
        <ele>827.8</ele>
        <time>2024-05-10T12:28:17Z</time>
      </trkpt>
      <trkpt lat="46.52238" lon="6.0266">
        <ele>824.8</ele>
        <time>2024-05-10T12:28:28Z</time>
      </trkpt>
      <trkpt lat="46.52318" lon="6.02646">
        <ele>819.8</ele>
        <time>2024-05-10T12:28:38Z</time>
      </trkpt>
      <trkpt lat="46.52395" lon="6.02736">
        <ele>810.1</ele>
        <time>2024-05-10T12:28:49Z</time>
      </trkpt>
      <trkpt lat="46.52509" lon="6.02738">
        <ele>797</ele>
        <time>2024-05-10T12:29:00Z</time>
      </trkpt>
      <trkpt lat="46.52574" lon="6.02638">
        <ele>788</ele>
        <time>2024-05-10T12:29:10Z</time>
      </trkpt>
      <trkpt lat="46.52678" lon="6.02606">
        <ele>778.2</ele>
        <time>2024-05-10T12:29:21Z</time>
      </trkpt>
      <trkpt lat="46.52767" lon="6.02497">
        <ele>768.2</ele>
        <time>2024-05-10T12:29:32Z</time>
      </trkpt>
      <trkpt lat="46.52855" lon="6.02436">
        <ele>762.8</ele>
        <time>2024-05-10T12:29:42Z</time>
      </trkpt>
      <trkpt lat="46.52942" lon="6.02385">
        <ele>758.3</ele>
        <time>2024-05-10T12:29:53Z</time>
      </trkpt>
      <trkpt lat="46.52977" lon="6.02392">
        <ele>757.3</ele>
        <time>2024-05-10T12:30:03Z</time>
      </trkpt>
      <trkpt lat="46.5301" lon="6.02388">
        <ele>753.9</ele>
        <time>2024-05-10T12:30:13Z</time>
      </trkpt>
      <trkpt lat="46.53015" lon="6.02389">
        <ele>753.4</ele>
        <time>2024-05-10T12:30:24Z</time>
      </trkpt>
      <trkpt lat="46.53015" lon="6.02389">
        <ele>753.4</ele>
        <time>2024-05-10T12:30:35Z</time>
      </trkpt>
      <trkpt lat="46.53015" lon="6.02389">
        <ele>753.4</ele>
        <time>2024-05-10T12:30:46Z</time>
      </trkpt>
      <trkpt lat="46.53015" lon="6.02389">
        <ele>753.4</ele>
        <time>2024-05-10T12:30:57Z</time>
      </trkpt>
      <trkpt lat="46.53015" lon="6.02389">
        <ele>753.4</ele>
        <time>2024-05-10T12:31:07Z</time>
      </trkpt>
      <trkpt lat="46.53015" lon="6.02389">
        <ele>753.4</ele>
        <time>2024-05-10T12:31:18Z</time>
      </trkpt>
      <trkpt lat="46.53015" lon="6.02389">
        <ele>753.4</ele>
        <time>2024-05-10T12:31:29Z</time>
      </trkpt>
      <trkpt lat="46.53015" lon="6.02388">
        <ele>753.3</ele>
        <time>2024-05-10T12:31:39Z</time>
      </trkpt>
      <trkpt lat="46.53015" lon="6.02388">
        <ele>753.3</ele>
        <time>2024-05-10T12:31:49Z</time>
      </trkpt>
      <trkpt lat="46.53015" lon="6.02388">
        <ele>753.3</ele>
        <time>2024-05-10T12:32:00Z</time>
      </trkpt>
      <trkpt lat="46.53015" lon="6.02388">
        <ele>753.3</ele>
        <time>2024-05-10T12:32:10Z</time>
      </trkpt>
      <trkpt lat="46.53016" lon="6.0237">
        <ele>752</ele>
        <time>2024-05-10T12:32:21Z</time>
      </trkpt>
      <trkpt lat="46.52983" lon="6.02362">
        <ele>749</ele>
        <time>2024-05-10T12:32:31Z</time>
      </trkpt>
      <trkpt lat="46.52951" lon="6.02312">
        <ele>743.8</ele>
        <time>2024-05-10T12:32:42Z</time>
      </trkpt>
      <trkpt lat="46.52955" lon="6.02301">
        <ele>742.8</ele>
        <time>2024-05-10T12:32:53Z</time>
      </trkpt>
      <trkpt lat="46.52986" lon="6.02304">
        <ele>739.3</ele>
        <time>2024-05-10T12:33:03Z</time>
      </trkpt>
      <trkpt lat="46.52984" lon="6.023">
        <ele>739.5</ele>
        <time>2024-05-10T12:33:14Z</time>
      </trkpt>
      <trkpt lat="46.52978" lon="6.02301">
        <ele>740.2</ele>
        <time>2024-05-10T12:33:25Z</time>
      </trkpt>
      <trkpt lat="46.52951" lon="6.02315">
        <ele>744.2</ele>
        <time>2024-05-10T12:33:35Z</time>
      </trkpt>
      <trkpt lat="46.52968" lon="6.02358">
        <ele>747.6</ele>
        <time>2024-05-10T12:33:45Z</time>
      </trkpt>
      <trkpt lat="46.52997" lon="6.02369">
        <ele>750.5</ele>
        <time>2024-05-10T12:33:55Z</time>
      </trkpt>
      <trkpt lat="46.53016" lon="6.02378">
        <ele>752.9</ele>
        <time>2024-05-10T12:34:05Z</time>
      </trkpt>
      <trkpt lat="46.53018" lon="6.02383">
        <ele>753.4</ele>
        <time>2024-05-10T12:34:16Z</time>
      </trkpt>
      <trkpt lat="46.53018" lon="6.02383">
        <ele>753.4</ele>
        <time>2024-05-10T12:34:26Z</time>
      </trkpt>
      <trkpt lat="46.53018" lon="6.02383">
        <ele>753.4</ele>
        <time>2024-05-10T12:34:36Z</time>
      </trkpt>
      <trkpt lat="46.52998" lon="6.02387">
        <ele>755.2</ele>
        <time>2024-05-10T12:34:47Z</time>
      </trkpt>
      <trkpt lat="46.52962" lon="6.02383">
        <ele>758.5</ele>
        <time>2024-05-10T12:34:58Z</time>
      </trkpt>
      <trkpt lat="46.52935" lon="6.02328">
        <ele>756.4</ele>
        <time>2024-05-10T12:35:09Z</time>
      </trkpt>
      <trkpt lat="46.52882" lon="6.02304">
        <ele>753.5</ele>
        <time>2024-05-10T12:35:20Z</time>
      </trkpt>
      <trkpt lat="46.52807" lon="6.02328">
        <ele>749</ele>
        <time>2024-05-10T12:35:30Z</time>
      </trkpt>
      <trkpt lat="46.52719" lon="6.02384">
        <ele>743.2</ele>
        <time>2024-05-10T12:35:41Z</time>
      </trkpt>
      <trkpt lat="46.52652" lon="6.0238">
        <ele>738.6</ele>
        <time>2024-05-10T12:35:52Z</time>
      </trkpt>
      <trkpt lat="46.52724" lon="6.02358">
        <ele>733.3</ele>
        <time>2024-05-10T12:36:02Z</time>
      </trkpt>
      <trkpt lat="46.52748" lon="6.02296">
        <ele>732.8</ele>
        <time>2024-05-10T12:36:13Z</time>
      </trkpt>
      <trkpt lat="46.52753" lon="6.02295">
        <ele>733</ele>
        <time>2024-05-10T12:36:24Z</time>
      </trkpt>
      <trkpt lat="46.52788" lon="6.02286">
        <ele>733.5</ele>
        <time>2024-05-10T12:36:35Z</time>
      </trkpt>
      <trkpt lat="46.52838" lon="6.02253">
        <ele>732.8</ele>
        <time>2024-05-10T12:36:45Z</time>
      </trkpt>
      <trkpt lat="46.52903" lon="6.02216">
        <ele>731.2</ele>
        <time>2024-05-10T12:36:55Z</time>
      </trkpt>
      <trkpt lat="46.52984" lon="6.02204">
        <ele>729.1</ele>
        <time>2024-05-10T12:37:06Z</time>
      </trkpt>
      <trkpt lat="46.53057" lon="6.02255">
        <ele>727.3</ele>
        <time>2024-05-10T12:37:17Z</time>
      </trkpt>
      <trkpt lat="46.5311" lon="6.02295">
        <ele>726.4</ele>
        <time>2024-05-10T12:37:27Z</time>
      </trkpt>
      <trkpt lat="46.53088" lon="6.02237">
        <ele>719.8</ele>
        <time>2024-05-10T12:37:38Z</time>
      </trkpt>
      <trkpt lat="46.53067" lon="6.02179">
        <ele>713.1</ele>
        <time>2024-05-10T12:37:48Z</time>
      </trkpt>
      <trkpt lat="46.53052" lon="6.02102">
        <ele>706.5</ele>
        <time>2024-05-10T12:37:59Z</time>
      </trkpt>
      <trkpt lat="46.53038" lon="6.02079">
        <ele>703.2</ele>
        <time>2024-05-10T12:38:09Z</time>
      </trkpt>
      <trkpt lat="46.53055" lon="6.02077">
        <ele>702.4</ele>
        <time>2024-05-10T12:38:19Z</time>
      </trkpt>
      <trkpt lat="46.53086" lon="6.02068">
        <ele>702</ele>
        <time>2024-05-10T12:38:29Z</time>
      </trkpt>
      <trkpt lat="46.53085" lon="6.01996">
        <ele>701.9</ele>
        <time>2024-05-10T12:38:40Z</time>
      </trkpt>
      <trkpt lat="46.53072" lon="6.01919">
        <ele>702.5</ele>
        <time>2024-05-10T12:38:51Z</time>
      </trkpt>
      <trkpt lat="46.53069" lon="6.0184">
        <ele>703</ele>
        <time>2024-05-10T12:39:01Z</time>
      </trkpt>
      <trkpt lat="46.53075" lon="6.01774">
        <ele>703.5</ele>
        <time>2024-05-10T12:39:11Z</time>
      </trkpt>
      <trkpt lat="46.5308" lon="6.01734">
        <ele>703.7</ele>
        <time>2024-05-10T12:39:22Z</time>
      </trkpt>
      <trkpt lat="46.5309" lon="6.01704">
        <ele>703.8</ele>
        <time>2024-05-10T12:39:32Z</time>
      </trkpt>
      <trkpt lat="46.53118" lon="6.01664">
        <ele>704</ele>
        <time>2024-05-10T12:39:43Z</time>
      </trkpt>
      <trkpt lat="46.53153" lon="6.01615">
        <ele>704.4</ele>
        <time>2024-05-10T12:39:54Z</time>
      </trkpt>
      <trkpt lat="46.53181" lon="6.01561">
        <ele>704.7</ele>
        <time>2024-05-10T12:40:05Z</time>
      </trkpt>
      <trkpt lat="46.53181" lon="6.01559">
        <ele>704.7</ele>
        <time>2024-05-10T12:40:16Z</time>
      </trkpt>
      <trkpt lat="46.53181" lon="6.01559">
        <ele>704.7</ele>
        <time>2024-05-10T12:40:26Z</time>
      </trkpt>
      <trkpt lat="46.53176" lon="6.01568">
        <ele>704.7</ele>
        <time>2024-05-10T12:40:37Z</time>
      </trkpt>
      <trkpt lat="46.53146" lon="6.01623">
        <ele>704.3</ele>
        <time>2024-05-10T12:40:47Z</time>
      </trkpt>
      <trkpt lat="46.53106" lon="6.01681">
        <ele>704</ele>
        <time>2024-05-10T12:40:57Z</time>
      </trkpt>
      <trkpt lat="46.53077" lon="6.01739">
        <ele>703.6</ele>
        <time>2024-05-10T12:41:08Z</time>
      </trkpt>
      <trkpt lat="46.5307" lon="6.01808">
        <ele>703.2</ele>
        <time>2024-05-10T12:41:19Z</time>
      </trkpt>
      <trkpt lat="46.5307" lon="6.01896">
        <ele>702.7</ele>
        <time>2024-05-10T12:41:30Z</time>
      </trkpt>
      <trkpt lat="46.53079" lon="6.01974">
        <ele>702.1</ele>
        <time>2024-05-10T12:41:40Z</time>
      </trkpt>
      <trkpt lat="46.53093" lon="6.02009">
        <ele>701.8</ele>
        <time>2024-05-10T12:41:51Z</time>
      </trkpt>
      <trkpt lat="46.53093" lon="6.02007">
        <ele>701.8</ele>
        <time>2024-05-10T12:42:01Z</time>
      </trkpt>
      <trkpt lat="46.53093" lon="6.02007">
        <ele>701.8</ele>
        <time>2024-05-10T12:42:12Z</time>
      </trkpt>
      <trkpt lat="46.53092" lon="6.02002">
        <ele>702</ele>
        <time>2024-05-10T12:42:23Z</time>
      </trkpt>
      <trkpt lat="46.5309" lon="6.02">
        <ele>702.2</ele>
        <time>2024-05-10T12:42:33Z</time>
      </trkpt>
      <trkpt lat="46.53086" lon="6.01988">
        <ele>703.2</ele>
        <time>2024-05-10T12:42:44Z</time>
      </trkpt>
      <trkpt lat="46.53088" lon="6.01968">
        <ele>705.7</ele>
        <time>2024-05-10T12:42:55Z</time>
      </trkpt>
      <trkpt lat="46.53093" lon="6.01951">
        <ele>708.4</ele>
        <time>2024-05-10T12:43:06Z</time>
      </trkpt>
      <trkpt lat="46.53098" lon="6.01935">
        <ele>711</ele>
        <time>2024-05-10T12:43:16Z</time>
      </trkpt>
      <trkpt lat="46.53103" lon="6.01916">
        <ele>713.8</ele>
        <time>2024-05-10T12:43:27Z</time>
      </trkpt>
      <trkpt lat="46.53103" lon="6.01904">
        <ele>715.4</ele>
        <time>2024-05-10T12:43:37Z</time>
      </trkpt>
      <trkpt lat="46.53101" lon="6.01889">
        <ele>717.4</ele>
        <time>2024-05-10T12:43:48Z</time>
      </trkpt>
      <trkpt lat="46.53102" lon="6.01874">
        <ele>718.7</ele>
        <time>2024-05-10T12:43:58Z</time>
      </trkpt>
      <trkpt lat="46.53102" lon="6.01857">
        <ele>719.8</ele>
        <time>2024-05-10T12:44:09Z</time>
      </trkpt>
      <trkpt lat="46.53102" lon="6.01849">
        <ele>720.3</ele>
        <time>2024-05-10T12:44:19Z</time>
      </trkpt>
      <trkpt lat="46.53105" lon="6.01829">
        <ele>722</ele>
        <time>2024-05-10T12:44:30Z</time>
      </trkpt>
      <trkpt lat="46.53112" lon="6.01801">
        <ele>724.3</ele>
        <time>2024-05-10T12:44:41Z</time>
      </trkpt>
      <trkpt lat="46.53119" lon="6.01776">
        <ele>725.9</ele>
        <time>2024-05-10T12:44:51Z</time>
      </trkpt>
      <trkpt lat="46.53132" lon="6.01756">
        <ele>728.1</ele>
        <time>2024-05-10T12:45:01Z</time>
      </trkpt>
      <trkpt lat="46.53148" lon="6.01737">
        <ele>731.3</ele>
        <time>2024-05-10T12:45:12Z</time>
      </trkpt>
      <trkpt lat="46.53154" lon="6.01728">
        <ele>733.4</ele>
        <time>2024-05-10T12:45:22Z</time>
      </trkpt>
      <trkpt lat="46.53159" lon="6.01723">
        <ele>734.9</ele>
        <time>2024-05-10T12:45:32Z</time>
      </trkpt>
      <trkpt lat="46.53164" lon="6.01715">
        <ele>736.9</ele>
        <time>2024-05-10T12:45:43Z</time>
      </trkpt>
      <trkpt lat="46.53169" lon="6.0171">
        <ele>738.8</ele>
        <time>2024-05-10T12:45:53Z</time>
      </trkpt>
      <trkpt lat="46.53173" lon="6.01704">
        <ele>740.4</ele>
        <time>2024-05-10T12:46:04Z</time>
      </trkpt>
      <trkpt lat="46.53177" lon="6.017">
        <ele>741.9</ele>
        <time>2024-05-10T12:46:14Z</time>
      </trkpt>
      <trkpt lat="46.53184" lon="6.01693">
        <ele>744.2</ele>
        <time>2024-05-10T12:46:25Z</time>
      </trkpt>
      <trkpt lat="46.53191" lon="6.01684">
        <ele>746.6</ele>
        <time>2024-05-10T12:46:36Z</time>
      </trkpt>
      <trkpt lat="46.53195" lon="6.0168">
        <ele>747.6</ele>
        <time>2024-05-10T12:46:46Z</time>
      </trkpt>
      <trkpt lat="46.53195" lon="6.0168">
        <ele>747.6</ele>
        <time>2024-05-10T12:46:57Z</time>
      </trkpt>
      <trkpt lat="46.53196" lon="6.0168">
        <ele>747.9</ele>
        <time>2024-05-10T12:47:07Z</time>
      </trkpt>
      <trkpt lat="46.53202" lon="6.01675">
        <ele>749.5</ele>
        <time>2024-05-10T12:47:17Z</time>
      </trkpt>
      <trkpt lat="46.53208" lon="6.01671">
        <ele>751</ele>
        <time>2024-05-10T12:47:28Z</time>
      </trkpt>
      <trkpt lat="46.53209" lon="6.0167">
        <ele>751.3</ele>
        <time>2024-05-10T12:47:39Z</time>
      </trkpt>
      <trkpt lat="46.53216" lon="6.01663">
        <ele>753.3</ele>
        <time>2024-05-10T12:47:49Z</time>
      </trkpt>
      <trkpt lat="46.53222" lon="6.01657">
        <ele>755.2</ele>
        <time>2024-05-10T12:47:59Z</time>
      </trkpt>
      <trkpt lat="46.53231" lon="6.0165">
        <ele>757.7</ele>
        <time>2024-05-10T12:48:10Z</time>
      </trkpt>
      <trkpt lat="46.53237" lon="6.01645">
        <ele>759.6</ele>
        <time>2024-05-10T12:48:20Z</time>
      </trkpt>
      <trkpt lat="46.53246" lon="6.01639">
        <ele>761.9</ele>
        <time>2024-05-10T12:48:30Z</time>
      </trkpt>
      <trkpt lat="46.53252" lon="6.01634">
        <ele>763.7</ele>
        <time>2024-05-10T12:48:41Z</time>
      </trkpt>
      <trkpt lat="46.53259" lon="6.01628">
        <ele>765.7</ele>
        <time>2024-05-10T12:48:52Z</time>
      </trkpt>
      <trkpt lat="46.53265" lon="6.01621">
        <ele>767.5</ele>
        <time>2024-05-10T12:49:02Z</time>
      </trkpt>
      <trkpt lat="46.53271" lon="6.01614">
        <ele>769.5</ele>
        <time>2024-05-10T12:49:12Z</time>
      </trkpt>
      <trkpt lat="46.5328" lon="6.01608">
        <ele>771.7</ele>
        <time>2024-05-10T12:49:23Z</time>
      </trkpt>
      <trkpt lat="46.53289" lon="6.01602">
        <ele>774</ele>
        <time>2024-05-10T12:49:34Z</time>
      </trkpt>
      <trkpt lat="46.53298" lon="6.01594">
        <ele>776.5</ele>
        <time>2024-05-10T12:49:45Z</time>
      </trkpt>
      <trkpt lat="46.53305" lon="6.01589">
        <ele>778.3</ele>
        <time>2024-05-10T12:49:56Z</time>
      </trkpt>
      <trkpt lat="46.53311" lon="6.01584">
        <ele>780.1</ele>
        <time>2024-05-10T12:50:07Z</time>
      </trkpt>
      <trkpt lat="46.53319" lon="6.01581">
        <ele>782.1</ele>
        <time>2024-05-10T12:50:18Z</time>
      </trkpt>
      <trkpt lat="46.53327" lon="6.01576">
        <ele>784.3</ele>
        <time>2024-05-10T12:50:29Z</time>
      </trkpt>
      <trkpt lat="46.53335" lon="6.01572">
        <ele>786.3</ele>
        <time>2024-05-10T12:50:40Z</time>
      </trkpt>
      <trkpt lat="46.53337" lon="6.01573">
        <ele>786.9</ele>
        <time>2024-05-10T12:50:50Z</time>
      </trkpt>
      <trkpt lat="46.53341" lon="6.01583">
        <ele>788.5</ele>
        <time>2024-05-10T12:51:01Z</time>
      </trkpt>
      <trkpt lat="46.53341" lon="6.0159">
        <ele>789.4</ele>
        <time>2024-05-10T12:51:12Z</time>
      </trkpt>
      <trkpt lat="46.53341" lon="6.01612">
        <ele>791.6</ele>
        <time>2024-05-10T12:51:23Z</time>
      </trkpt>
      <trkpt lat="46.53343" lon="6.01634">
        <ele>793.6</ele>
        <time>2024-05-10T12:51:34Z</time>
      </trkpt>
      <trkpt lat="46.53347" lon="6.01653">
        <ele>795.7</ele>
        <time>2024-05-10T12:51:45Z</time>
      </trkpt>
      <trkpt lat="46.53353" lon="6.01669">
        <ele>798.1</ele>
        <time>2024-05-10T12:51:55Z</time>
      </trkpt>
      <trkpt lat="46.53355" lon="6.01673">
        <ele>798.8</ele>
        <time>2024-05-10T12:52:05Z</time>
      </trkpt>
      <trkpt lat="46.53359" lon="6.01674">
        <ele>799.9</ele>
        <time>2024-05-10T12:52:16Z</time>
      </trkpt>
      <trkpt lat="46.53361" lon="6.01672">
        <ele>800.7</ele>
        <time>2024-05-10T12:52:26Z</time>
      </trkpt>
      <trkpt lat="46.5337" lon="6.01674">
        <ele>803.7</ele>
        <time>2024-05-10T12:52:37Z</time>
      </trkpt>
      <trkpt lat="46.53375" lon="6.01679">
        <ele>806.7</ele>
        <time>2024-05-10T12:52:47Z</time>
      </trkpt>
      <trkpt lat="46.53378" lon="6.0167">
        <ele>807.3</ele>
        <time>2024-05-10T12:52:58Z</time>
      </trkpt>
      <trkpt lat="46.53388" lon="6.0165">
        <ele>808.6</ele>
        <time>2024-05-10T12:53:09Z</time>
      </trkpt>
      <trkpt lat="46.53405" lon="6.01628">
        <ele>810.4</ele>
        <time>2024-05-10T12:53:20Z</time>
      </trkpt>
      <trkpt lat="46.53425" lon="6.01603">
        <ele>811.3</ele>
        <time>2024-05-10T12:53:30Z</time>
      </trkpt>
      <trkpt lat="46.53444" lon="6.01594">
        <ele>812.6</ele>
        <time>2024-05-10T12:53:40Z</time>
      </trkpt>
      <trkpt lat="46.53466" lon="6.01592">
        <ele>814</ele>
        <time>2024-05-10T12:53:50Z</time>
      </trkpt>
      <trkpt lat="46.53487" lon="6.01583">
        <ele>815.4</ele>
        <time>2024-05-10T12:54:00Z</time>
      </trkpt>
      <trkpt lat="46.53504" lon="6.01582">
        <ele>816.4</ele>
        <time>2024-05-10T12:54:10Z</time>
      </trkpt>
      <trkpt lat="46.53513" lon="6.01579">
        <ele>816.9</ele>
        <time>2024-05-10T12:54:21Z</time>
      </trkpt>
      <trkpt lat="46.53535" lon="6.0159">
        <ele>818.3</ele>
        <time>2024-05-10T12:54:31Z</time>
      </trkpt>
      <trkpt lat="46.53572" lon="6.01594">
        <ele>820.5</ele>
        <time>2024-05-10T12:54:42Z</time>
      </trkpt>
      <trkpt lat="46.53604" lon="6.01596">
        <ele>822.6</ele>
        <time>2024-05-10T12:54:52Z</time>
      </trkpt>
      <trkpt lat="46.53636" lon="6.01599">
        <ele>826.4</ele>
        <time>2024-05-10T12:55:02Z</time>
      </trkpt>
      <trkpt lat="46.53666" lon="6.016">
        <ele>827.2</ele>
        <time>2024-05-10T12:55:13Z</time>
      </trkpt>
      <trkpt lat="46.53691" lon="6.01608">
        <ele>828.7</ele>
        <time>2024-05-10T12:55:23Z</time>
      </trkpt>
      <trkpt lat="46.5372" lon="6.01616">
        <ele>830.3</ele>
        <time>2024-05-10T12:55:34Z</time>
      </trkpt>
      <trkpt lat="46.53741" lon="6.01618">
        <ele>831.6</ele>
        <time>2024-05-10T12:55:45Z</time>
      </trkpt>
      <trkpt lat="46.53751" lon="6.01628">
        <ele>833.3</ele>
        <time>2024-05-10T12:55:55Z</time>
      </trkpt>
      <trkpt lat="46.53766" lon="6.01637">
        <ele>835.4</ele>
        <time>2024-05-10T12:56:05Z</time>
      </trkpt>
      <trkpt lat="46.53782" lon="6.01647">
        <ele>838</ele>
        <time>2024-05-10T12:56:16Z</time>
      </trkpt>
      <trkpt lat="46.53797" lon="6.01662">
        <ele>840.7</ele>
        <time>2024-05-10T12:56:27Z</time>
      </trkpt>
      <trkpt lat="46.53809" lon="6.01679">
        <ele>843.4</ele>
        <time>2024-05-10T12:56:38Z</time>
      </trkpt>
      <trkpt lat="46.5382" lon="6.01697">
        <ele>846.2</ele>
        <time>2024-05-10T12:56:49Z</time>
      </trkpt>
      <trkpt lat="46.53833" lon="6.01712">
        <ele>848.7</ele>
        <time>2024-05-10T12:57:00Z</time>
      </trkpt>
      <trkpt lat="46.53845" lon="6.01715">
        <ele>850</ele>
        <time>2024-05-10T12:57:11Z</time>
      </trkpt>
      <trkpt lat="46.53857" lon="6.0171">
        <ele>850.5</ele>
        <time>2024-05-10T12:57:21Z</time>
      </trkpt>
      <trkpt lat="46.53873" lon="6.01707">
        <ele>850.6</ele>
        <time>2024-05-10T12:57:32Z</time>
      </trkpt>
      <trkpt lat="46.53892" lon="6.01704">
        <ele>850.5</ele>
        <time>2024-05-10T12:57:43Z</time>
      </trkpt>
      <trkpt lat="46.5391" lon="6.01703">
        <ele>850.6</ele>
        <time>2024-05-10T12:57:54Z</time>
      </trkpt>
      <trkpt lat="46.53926" lon="6.01709">
        <ele>850.6</ele>
        <time>2024-05-10T12:58:05Z</time>
      </trkpt>
      <trkpt lat="46.53938" lon="6.01726">
        <ele>850.4</ele>
        <time>2024-05-10T12:58:16Z</time>
      </trkpt>
      <trkpt lat="46.53924" lon="6.01746">
        <ele>851.3</ele>
        <time>2024-05-10T12:58:26Z</time>
      </trkpt>
      <trkpt lat="46.53902" lon="6.01768">
        <ele>851.7</ele>
        <time>2024-05-10T12:58:37Z</time>
      </trkpt>
      <trkpt lat="46.53905" lon="6.01783">
        <ele>851.7</ele>
        <time>2024-05-10T12:58:48Z</time>
      </trkpt>
      <trkpt lat="46.53905" lon="6.01783">
        <ele>851.7</ele>
        <time>2024-05-10T12:58:58Z</time>
      </trkpt>
      <trkpt lat="46.53905" lon="6.01783">
        <ele>851.7</ele>
        <time>2024-05-10T12:59:08Z</time>
      </trkpt>
      <trkpt lat="46.53903" lon="6.01785">
        <ele>851.8</ele>
        <time>2024-05-10T12:59:19Z</time>
      </trkpt>
      <trkpt lat="46.53903" lon="6.01785">
        <ele>851.8</ele>
        <time>2024-05-10T12:59:30Z</time>
      </trkpt>
      <trkpt lat="46.53894" lon="6.0179">
        <ele>851.9</ele>
        <time>2024-05-10T12:59:40Z</time>
      </trkpt>
      <trkpt lat="46.53895" lon="6.01791">
        <ele>851.9</ele>
        <time>2024-05-10T12:59:50Z</time>
      </trkpt>
      <trkpt lat="46.53895" lon="6.01791">
        <ele>851.9</ele>
        <time>2024-05-10T13:00:01Z</time>
      </trkpt>
      <trkpt lat="46.53895" lon="6.01791">
        <ele>851.9</ele>
        <time>2024-05-10T13:00:12Z</time>
      </trkpt>
      <trkpt lat="46.53895" lon="6.01791">
        <ele>851.9</ele>
        <time>2024-05-10T13:00:22Z</time>
      </trkpt>
      <trkpt lat="46.53895" lon="6.01791">
        <ele>851.9</ele>
        <time>2024-05-10T13:00:33Z</time>
      </trkpt>
      <trkpt lat="46.53895" lon="6.01791">
        <ele>851.9</ele>
        <time>2024-05-10T13:00:43Z</time>
      </trkpt>
      <trkpt lat="46.53895" lon="6.01791">
        <ele>851.9</ele>
        <time>2024-05-10T13:00:53Z</time>
      </trkpt>
      <trkpt lat="46.53895" lon="6.01791">
        <ele>851.9</ele>
        <time>2024-05-10T13:01:04Z</time>
      </trkpt>
    </trkseg>
  </trk>
</gpx>